<?xml version='1.0' encoding='UTF-8'?><gpx version="1.1" creator="JPX - https://github.com/jenetics/jpx" xmlns="http://www.topografix.com/GPX/1/1"><trk><trkseg><trkpt lat="40.61916866006324" lon="16.151569097979753"><ele>678.0</ele><time>2026-04-26T06:47:52Z</time></trkpt><trkpt lat="40.619236286819856" lon="16.151560366701766"><ele>678.0</ele><time>2026-04-26T06:48:01Z</time></trkpt><trkpt lat="40.619288600218326" lon="16.151464560876565"><ele>678.0</ele><time>2026-04-26T06:49:34.999Z</time></trkpt><trkpt lat="40.61919041685745" lon="16.151494325304615"><ele>678.0</ele><time>2026-04-26T06:49:41.999Z</time></trkpt><trkpt lat="40.619127571986766" lon="16.151527295789293"><ele>678.0</ele><time>2026-04-26T06:49:47.999Z</time></trkpt><trkpt lat="40.61909346422101" lon="16.151602218470327"><ele>678.0</ele><time>2026-04-26T06:49:53.999Z</time></trkpt><trkpt lat="40.61912286199099" lon="16.15170944641771"><ele>678.0</ele><time>2026-04-26T06:57:03Z</time></trkpt><trkpt lat="40.619085524954855" lon="16.151611357887713"><ele>678.0</ele><time>2026-04-26T06:58:48Z</time></trkpt><trkpt lat="40.61915086752783" lon="16.151569047168955"><ele>678.0</ele><time>2026-04-26T06:59:23Z</time></trkpt><trkpt lat="40.61922630030126" lon="16.15155486870939"><ele>678.0</ele><time>2026-04-26T06:59:26Z</time></trkpt><trkpt lat="40.61929132543425" lon="16.151500293186622"><ele>678.0</ele><time>2026-04-26T06:59:29Z</time></trkpt><trkpt lat="40.619338198248094" lon="16.151443792506235"><ele>678.0</ele><time>2026-04-26T06:59:33Z</time></trkpt><trkpt lat="40.619406897666735" lon="16.15140234897058"><ele>678.0</ele><time>2026-04-26T07:03:13Z</time></trkpt><trkpt lat="40.619315415115835" lon="16.151382800847877"><ele>678.1428571428571</ele><time>2026-04-26T07:04:43Z</time></trkpt><trkpt lat="40.619244278724665" lon="16.15143631343218"><ele>678.2857142857143</ele><time>2026-04-26T07:04:46Z</time></trkpt><trkpt lat="40.619189504482726" lon="16.151480382987824"><ele>678.4285714285714</ele><time>2026-04-26T07:04:49Z</time></trkpt><trkpt lat="40.61912378239814" lon="16.15151598699585"><ele>678.5714285714286</ele><time>2026-04-26T07:04:53Z</time></trkpt><trkpt lat="40.61905482821316" lon="16.151501368675245"><ele>678.7142857142858</ele><time>2026-04-26T07:14:49Z</time></trkpt><trkpt lat="40.619028939276866" lon="16.151418744508884"><ele>678.8571428571429</ele><time>2026-04-26T07:14:52Z</time></trkpt><trkpt lat="40.618985851903915" lon="16.151347688248908"><ele>679.0</ele><time>2026-04-26T07:14:57Z</time></trkpt><trkpt lat="40.61904796336873" lon="16.151284547654853"><ele>679.0</ele><time>2026-04-26T07:15:05Z</time></trkpt><trkpt lat="40.61909815133865" lon="16.151221749149173"><ele>679.0</ele><time>2026-04-26T07:15:08Z</time></trkpt><trkpt lat="40.61916345144866" lon="16.151161807036623"><ele>679.0</ele><time>2026-04-26T07:15:12Z</time></trkpt><trkpt lat="40.61911645507505" lon="16.15110441495098"><ele>679.0</ele><time>2026-04-26T07:16:34Z</time></trkpt><trkpt lat="40.619058237115475" lon="16.151180962752804"><ele>679.0</ele><time>2026-04-26T07:16:37Z</time></trkpt><trkpt lat="40.61898423135138" lon="16.151241362458233"><ele>679.0</ele><time>2026-04-26T07:16:41Z</time></trkpt><trkpt lat="40.618918283926334" lon="16.151292389667347"><ele>679.0</ele><time>2026-04-26T07:16:44Z</time></trkpt><trkpt lat="40.61881458562947" lon="16.15128324763269"><ele>679.0</ele><time>2026-04-26T07:17:02Z</time></trkpt><trkpt lat="40.618748496334554" lon="16.151247987192864"><ele>679.0</ele><time>2026-04-26T07:17:06Z</time></trkpt><trkpt lat="40.61866202534085" lon="16.15126415878468"><ele>679.0</ele><time>2026-04-26T07:17:09Z</time></trkpt><trkpt lat="40.61858028897399" lon="16.15126846509669"><ele>679.0</ele><time>2026-04-26T07:17:12Z</time></trkpt><trkpt lat="40.618520173377604" lon="16.151188070449624"><ele>679.0</ele><time>2026-04-26T07:17:15Z</time></trkpt><trkpt lat="40.618511425195514" lon="16.151101764839733"><ele>679.8000000000001</ele><time>2026-04-26T07:17:17Z</time></trkpt><trkpt lat="40.61848483704216" lon="16.15101794717113"><ele>680.6</ele><time>2026-04-26T07:17:18Z</time></trkpt><trkpt lat="40.61847600012805" lon="16.150932767311748"><ele>681.4</ele><time>2026-04-26T07:17:19Z</time></trkpt><trkpt lat="40.61846578564523" lon="16.150846973771014"><ele>682.2</ele><time>2026-04-26T07:17:20Z</time></trkpt><trkpt lat="40.6184416498694" lon="16.150658027363857"><ele>683.0</ele><time>2026-04-26T07:17:22Z</time></trkpt><trkpt lat="40.618421140243015" lon="16.15050928933756"><ele>683.0</ele><time>2026-04-26T07:17:24Z</time></trkpt><trkpt lat="40.6183822272688" lon="16.15037577032633"><ele>683.0</ele><time>2026-04-26T07:17:26Z</time></trkpt><trkpt lat="40.61835272653517" lon="16.15021668360656"><ele>683.0</ele><time>2026-04-26T07:17:28Z</time></trkpt><trkpt lat="40.61832463183142" lon="16.150073955519083"><ele>683.0</ele><time>2026-04-26T07:17:30Z</time></trkpt><trkpt lat="40.618316387513815" lon="16.14994084878418"><ele>683.0</ele><time>2026-04-26T07:17:32Z</time></trkpt><trkpt lat="40.6182780717296" lon="16.14983901731219"><ele>681.25</ele><time>2026-04-26T07:17:34Z</time></trkpt><trkpt lat="40.618376526867586" lon="16.149746745967395"><ele>679.5</ele><time>2026-04-26T07:17:35Z</time></trkpt><trkpt lat="40.618422324952995" lon="16.14966142654627"><ele>677.75</ele><time>2026-04-26T07:17:37Z</time></trkpt><trkpt lat="40.618297472600624" lon="16.14944089045211"><ele>676.0</ele><time>2026-04-26T07:17:40Z</time></trkpt><trkpt lat="40.618223219518434" lon="16.14940206610648"><ele>676.0</ele><time>2026-04-26T07:17:41Z</time></trkpt><trkpt lat="40.61815168372872" lon="16.149363177403135"><ele>676.0</ele><time>2026-04-26T07:17:42Z</time></trkpt><trkpt lat="40.618090433055954" lon="16.149336117973704"><ele>676.0</ele><time>2026-04-26T07:17:43Z</time></trkpt><trkpt lat="40.61801941149142" lon="16.149296757890415"><ele>676.0</ele><time>2026-04-26T07:17:44Z</time></trkpt><trkpt lat="40.61795087244863" lon="16.149245236787998"><ele>676.0</ele><time>2026-04-26T07:17:45Z</time></trkpt><trkpt lat="40.617863519840405" lon="16.1491882125095"><ele>676.0</ele><time>2026-04-26T07:17:46Z</time></trkpt><trkpt lat="40.61779311931035" lon="16.149136076112192"><ele>676.3333333333334</ele><time>2026-04-26T07:17:47Z</time></trkpt><trkpt lat="40.61772853914201" lon="16.14909135875753"><ele>676.6666666666667</ele><time>2026-04-26T07:17:48Z</time></trkpt><trkpt lat="40.61766568166738" lon="16.14905320241071"><ele>677.0</ele><time>2026-04-26T07:17:49Z</time></trkpt><trkpt lat="40.617609879375244" lon="16.14900919175399"><ele>677.3333333333334</ele><time>2026-04-26T07:17:50Z</time></trkpt><trkpt lat="40.61755200287035" lon="16.148962628551356"><ele>677.6666666666666</ele><time>2026-04-26T07:17:51Z</time></trkpt><trkpt lat="40.617455465817" lon="16.148877336242343"><ele>678.0</ele><time>2026-04-26T07:17:53Z</time></trkpt><trkpt lat="40.61737208232238" lon="16.14880843032577"><ele>676.0</ele><time>2026-04-26T07:17:55Z</time></trkpt><trkpt lat="40.61731053709939" lon="16.148710351864853"><ele>674.0</ele><time>2026-04-26T07:17:57Z</time></trkpt><trkpt lat="40.61725213099775" lon="16.148582059883"><ele>672.0</ele><time>2026-04-26T07:17:59Z</time></trkpt><trkpt lat="40.61720050320516" lon="16.148465157115346"><ele>670.0</ele><time>2026-04-26T07:18:01Z</time></trkpt><trkpt lat="40.61717292127486" lon="16.148380251905806"><ele>668.0</ele><time>2026-04-26T07:18:02Z</time></trkpt><trkpt lat="40.61713205710545" lon="16.14828711663688"><ele>666.8571428571429</ele><time>2026-04-26T07:18:03Z</time></trkpt><trkpt lat="40.617094671368086" lon="16.148192255030494"><ele>665.7142857142858</ele><time>2026-04-26T07:18:04Z</time></trkpt><trkpt lat="40.617065516680306" lon="16.14809901611094"><ele>664.5714285714287</ele><time>2026-04-26T07:18:05Z</time></trkpt><trkpt lat="40.617040038644575" lon="16.14801097832323"><ele>663.4285714285714</ele><time>2026-04-26T07:18:06Z</time></trkpt><trkpt lat="40.61702267336914" lon="16.147925171642182"><ele>662.2857142857143</ele><time>2026-04-26T07:18:07Z</time></trkpt><trkpt lat="40.617011052864264" lon="16.14783413436298"><ele>661.1428571428572</ele><time>2026-04-26T07:18:08Z</time></trkpt><trkpt lat="40.617013218396814" lon="16.147736929517812"><ele>660.0</ele><time>2026-04-26T07:18:09Z</time></trkpt><trkpt lat="40.61700532285436" lon="16.147651412718577"><ele>660.0</ele><time>2026-04-26T07:18:10Z</time></trkpt><trkpt lat="40.617029711530414" lon="16.147572509616683"><ele>660.0</ele><time>2026-04-26T07:18:11Z</time></trkpt><trkpt lat="40.61705666668188" lon="16.14747768658323"><ele>660.0</ele><time>2026-04-26T07:18:12Z</time></trkpt><trkpt lat="40.617101776591575" lon="16.147391198686844"><ele>660.0</ele><time>2026-04-26T07:18:13Z</time></trkpt><trkpt lat="40.61715767822319" lon="16.14731746236452"><ele>660.0</ele><time>2026-04-26T07:18:14Z</time></trkpt><trkpt lat="40.61721990864051" lon="16.147256283612126"><ele>660.0</ele><time>2026-04-26T07:18:15Z</time></trkpt><trkpt lat="40.61729765911414" lon="16.1472280976223"><ele>660.3333333333334</ele><time>2026-04-26T07:18:16Z</time></trkpt><trkpt lat="40.617382401034384" lon="16.147192815328538"><ele>660.6666666666666</ele><time>2026-04-26T07:18:17Z</time></trkpt><trkpt lat="40.61746997335373" lon="16.147184576175"><ele>661.0</ele><time>2026-04-26T07:18:18Z</time></trkpt><trkpt lat="40.617549751795956" lon="16.147207526461003"><ele>661.3333333333333</ele><time>2026-04-26T07:18:19Z</time></trkpt><trkpt lat="40.617633559653406" lon="16.14723633558941"><ele>661.6666666666666</ele><time>2026-04-26T07:18:20Z</time></trkpt><trkpt lat="40.61771702981783" lon="16.14727646746631"><ele>662.0</ele><time>2026-04-26T07:18:21Z</time></trkpt><trkpt lat="40.617782682772926" lon="16.147331204035932"><ele>661.3333333333333</ele><time>2026-04-26T07:18:22Z</time></trkpt><trkpt lat="40.6178482710414" lon="16.147378227864177"><ele>660.6666666666666</ele><time>2026-04-26T07:18:23Z</time></trkpt><trkpt lat="40.61791500880106" lon="16.147409114095403"><ele>660.0</ele><time>2026-04-26T07:18:24Z</time></trkpt><trkpt lat="40.617974678186904" lon="16.147440100269854"><ele>659.3333333333334</ele><time>2026-04-26T07:18:25Z</time></trkpt><trkpt lat="40.61806647268434" lon="16.14747085888696"><ele>658.6666666666667</ele><time>2026-04-26T07:18:27Z</time></trkpt><trkpt lat="40.61813191875055" lon="16.147447169163417"><ele>658.0</ele><time>2026-04-26T07:18:30Z</time></trkpt><trkpt lat="40.618230510053785" lon="16.147444065054856"><ele>658.0</ele><time>2026-04-26T07:18:48Z</time></trkpt><trkpt lat="40.61829105317112" lon="16.147415907734835"><ele>658.0</ele><time>2026-04-26T07:18:49Z</time></trkpt><trkpt lat="40.618363903204354" lon="16.147378022288933"><ele>658.0</ele><time>2026-04-26T07:18:50Z</time></trkpt><trkpt lat="40.618442557505" lon="16.147290098590844"><ele>658.0</ele><time>2026-04-26T07:18:51Z</time></trkpt><trkpt lat="40.61852980797121" lon="16.147168522559117"><ele>658.0</ele><time>2026-04-26T07:18:52Z</time></trkpt><trkpt lat="40.61861940175217" lon="16.14705121474553"><ele>656.0</ele><time>2026-04-26T07:18:53Z</time></trkpt><trkpt lat="40.61872020090067" lon="16.14692208584407"><ele>654.0</ele><time>2026-04-26T07:18:54Z</time></trkpt><trkpt lat="40.61881642455425" lon="16.146795721068987"><ele>652.0</ele><time>2026-04-26T07:18:55Z</time></trkpt><trkpt lat="40.618927966357425" lon="16.146676799374365"><ele>650.0</ele><time>2026-04-26T07:18:56Z</time></trkpt><trkpt lat="40.6190199531838" lon="16.146546864838108"><ele>647.0</ele><time>2026-04-26T07:18:57Z</time></trkpt><trkpt lat="40.61913880525171" lon="16.14641575069387"><ele>644.0</ele><time>2026-04-26T07:18:58Z</time></trkpt><trkpt lat="40.61924840762093" lon="16.14629418216534"><ele>641.0</ele><time>2026-04-26T07:18:59Z</time></trkpt><trkpt lat="40.619364178829436" lon="16.14614853300391"><ele>641.0</ele><time>2026-04-26T07:19:00Z</time></trkpt><trkpt lat="40.61947162260068" lon="16.14603114002604"><ele>641.0</ele><time>2026-04-26T07:19:01Z</time></trkpt><trkpt lat="40.61956430181233" lon="16.145918714956217"><ele>641.0</ele><time>2026-04-26T07:19:02Z</time></trkpt><trkpt lat="40.619650458318176" lon="16.145813581246255"><ele>641.0</ele><time>2026-04-26T07:19:03Z</time></trkpt><trkpt lat="40.61972431204405" lon="16.145739896533534"><ele>640.1999999999999</ele><time>2026-04-26T07:19:04Z</time></trkpt><trkpt lat="40.619786185141805" lon="16.145673688641878"><ele>639.4</ele><time>2026-04-26T07:19:05Z</time></trkpt><trkpt lat="40.61983464476173" lon="16.145617461152778"><ele>638.6</ele><time>2026-04-26T07:19:06Z</time></trkpt><trkpt lat="40.61991366358578" lon="16.145510212524638"><ele>637.8</ele><time>2026-04-26T07:19:08Z</time></trkpt><trkpt lat="40.6200146504444" lon="16.145426264755883"><ele>637.0</ele><time>2026-04-26T07:19:10Z</time></trkpt><trkpt lat="40.620072450113284" lon="16.14535883927505"><ele>637.0</ele><time>2026-04-26T07:19:11Z</time></trkpt><trkpt lat="40.620152826156506" lon="16.145277939761534"><ele>637.0</ele><time>2026-04-26T07:19:12Z</time></trkpt><trkpt lat="40.620234164255656" lon="16.145191824874907"><ele>637.0</ele><time>2026-04-26T07:19:13Z</time></trkpt><trkpt lat="40.62032822729233" lon="16.145092804696674"><ele>637.0</ele><time>2026-04-26T07:19:14Z</time></trkpt><trkpt lat="40.620424902872045" lon="16.144971026523812"><ele>636.0</ele><time>2026-04-26T07:19:15Z</time></trkpt><trkpt lat="40.62051591884525" lon="16.14482629884145"><ele>635.0</ele><time>2026-04-26T07:19:16Z</time></trkpt><trkpt lat="40.62061497791751" lon="16.144662292935553"><ele>634.0</ele><time>2026-04-26T07:19:17Z</time></trkpt><trkpt lat="40.620711561548084" lon="16.144498967891764"><ele>634.0</ele><time>2026-04-26T07:19:18Z</time></trkpt><trkpt lat="40.62080115759366" lon="16.144351834730557"><ele>634.0</ele><time>2026-04-26T07:19:19Z</time></trkpt><trkpt lat="40.6208708437617" lon="16.144206909091835"><ele>634.0</ele><time>2026-04-26T07:19:20Z</time></trkpt><trkpt lat="40.62094840564644" lon="16.144073089008717"><ele>634.0</ele><time>2026-04-26T07:19:21Z</time></trkpt><trkpt lat="40.6210262821504" lon="16.143949754467545"><ele>633.8</ele><time>2026-04-26T07:19:22Z</time></trkpt><trkpt lat="40.6210929293239" lon="16.143832486702916"><ele>633.5999999999999</ele><time>2026-04-26T07:19:23Z</time></trkpt><trkpt lat="40.62115313536125" lon="16.143725344753168"><ele>633.4</ele><time>2026-04-26T07:19:24Z</time></trkpt><trkpt lat="40.62121261610679" lon="16.143620195741086"><ele>633.1999999999999</ele><time>2026-04-26T07:19:25Z</time></trkpt><trkpt lat="40.62125030215271" lon="16.143507419171996"><ele>633.0</ele><time>2026-04-26T07:19:26Z</time></trkpt><trkpt lat="40.62126851891315" lon="16.14336509498483"><ele>630.6</ele><time>2026-04-26T07:19:27Z</time></trkpt><trkpt lat="40.62127536627801" lon="16.14321297879037"><ele>628.1999999999999</ele><time>2026-04-26T07:19:28Z</time></trkpt><trkpt lat="40.621265845418165" lon="16.143063014739976"><ele>625.8</ele><time>2026-04-26T07:19:29Z</time></trkpt><trkpt lat="40.62127499077701" lon="16.14292796503833"><ele>623.4</ele><time>2026-04-26T07:19:30Z</time></trkpt><trkpt lat="40.62128892819771" lon="16.14279086121273"><ele>621.0</ele><time>2026-04-26T07:19:31Z</time></trkpt><trkpt lat="40.62133732743288" lon="16.142661654205938"><ele>621.0</ele><time>2026-04-26T07:19:32Z</time></trkpt><trkpt lat="40.62140365872363" lon="16.14254418602524"><ele>621.0</ele><time>2026-04-26T07:19:33Z</time></trkpt><trkpt lat="40.62147474735344" lon="16.142421409447284"><ele>621.0</ele><time>2026-04-26T07:19:34Z</time></trkpt><trkpt lat="40.621567965954654" lon="16.14230617157518"><ele>621.0</ele><time>2026-04-26T07:19:35Z</time></trkpt><trkpt lat="40.62166559819334" lon="16.142178615809275"><ele>620.0</ele><time>2026-04-26T07:19:36Z</time></trkpt><trkpt lat="40.62176028349902" lon="16.142041784191534"><ele>619.0</ele><time>2026-04-26T07:19:37Z</time></trkpt><trkpt lat="40.6218547062789" lon="16.141901578275167"><ele>618.0</ele><time>2026-04-26T07:19:38Z</time></trkpt><trkpt lat="40.62196227697924" lon="16.141734866877343"><ele>617.0</ele><time>2026-04-26T07:19:39Z</time></trkpt><trkpt lat="40.62205221935577" lon="16.14161161590243"><ele>618.5</ele><time>2026-04-26T07:19:40Z</time></trkpt><trkpt lat="40.62213529759576" lon="16.141454533922968"><ele>620.0</ele><time>2026-04-26T07:19:41Z</time></trkpt><trkpt lat="40.622219283275115" lon="16.141346555157334"><ele>621.5</ele><time>2026-04-26T07:19:42Z</time></trkpt><trkpt lat="40.622310895920215" lon="16.141235550261378"><ele>623.0</ele><time>2026-04-26T07:19:43Z</time></trkpt><trkpt lat="40.62241328059574" lon="16.141120115243606"><ele>623.0</ele><time>2026-04-26T07:19:44Z</time></trkpt><trkpt lat="40.62252645199093" lon="16.141034357802983"><ele>623.0</ele><time>2026-04-26T07:19:45Z</time></trkpt><trkpt lat="40.6226590288944" lon="16.14093546618796"><ele>623.0</ele><time>2026-04-26T07:19:46Z</time></trkpt><trkpt lat="40.62279944451963" lon="16.14085320032202"><ele>623.0</ele><time>2026-04-26T07:19:47Z</time></trkpt><trkpt lat="40.62295414554989" lon="16.140784877200517"><ele>622.25</ele><time>2026-04-26T07:19:48Z</time></trkpt><trkpt lat="40.62309115182727" lon="16.14073122632134"><ele>621.5</ele><time>2026-04-26T07:19:49Z</time></trkpt><trkpt lat="40.623235184475156" lon="16.140642409478023"><ele>620.75</ele><time>2026-04-26T07:19:50Z</time></trkpt><trkpt lat="40.62335366722789" lon="16.14053198142094"><ele>620.0</ele><time>2026-04-26T07:19:51Z</time></trkpt><trkpt lat="40.62345726110161" lon="16.140419706533276"><ele>620.0</ele><time>2026-04-26T07:19:52Z</time></trkpt><trkpt lat="40.623552893771155" lon="16.14031444808662"><ele>620.0</ele><time>2026-04-26T07:19:53Z</time></trkpt><trkpt lat="40.62365387742751" lon="16.140216348223888"><ele>620.0</ele><time>2026-04-26T07:19:54Z</time></trkpt><trkpt lat="40.62376668329681" lon="16.140112894946423"><ele>620.0</ele><time>2026-04-26T07:19:55Z</time></trkpt><trkpt lat="40.623876410751485" lon="16.140004006276108"><ele>618.0</ele><time>2026-04-26T07:19:56Z</time></trkpt><trkpt lat="40.62398662705149" lon="16.139888910565418"><ele>616.0</ele><time>2026-04-26T07:19:57Z</time></trkpt><trkpt lat="40.624094370409175" lon="16.139767200570088"><ele>614.0</ele><time>2026-04-26T07:19:58Z</time></trkpt><trkpt lat="40.6241929924707" lon="16.13962728121"><ele>612.0</ele><time>2026-04-26T07:19:59Z</time></trkpt><trkpt lat="40.6242726941004" lon="16.139478108488593"><ele>612.0</ele><time>2026-04-26T07:20:00Z</time></trkpt><trkpt lat="40.62432521501701" lon="16.139336145118442"><ele>612.0</ele><time>2026-04-26T07:20:01Z</time></trkpt><trkpt lat="40.62437984052343" lon="16.139198428979206"><ele>612.0</ele><time>2026-04-26T07:20:02Z</time></trkpt><trkpt lat="40.624444021331456" lon="16.13905362257109"><ele>612.0</ele><time>2026-04-26T07:20:03Z</time></trkpt><trkpt lat="40.624515736985096" lon="16.138902200302166"><ele>610.25</ele><time>2026-04-26T07:20:04Z</time></trkpt><trkpt lat="40.62458254519267" lon="16.138753763122427"><ele>608.5</ele><time>2026-04-26T07:20:05Z</time></trkpt><trkpt lat="40.62464675631996" lon="16.138610976004863"><ele>606.75</ele><time>2026-04-26T07:20:06Z</time></trkpt><trkpt lat="40.6247120550463" lon="16.138472485938337"><ele>605.0</ele><time>2026-04-26T07:20:07Z</time></trkpt><trkpt lat="40.62478969263574" lon="16.13833778134867"><ele>602.25</ele><time>2026-04-26T07:20:08Z</time></trkpt><trkpt lat="40.624879619141836" lon="16.138215670555052"><ele>599.5</ele><time>2026-04-26T07:20:09Z</time></trkpt><trkpt lat="40.624983044335224" lon="16.13810725173751"><ele>596.75</ele><time>2026-04-26T07:20:10Z</time></trkpt><trkpt lat="40.625086186473226" lon="16.13797519591084"><ele>594.0</ele><time>2026-04-26T07:20:11Z</time></trkpt><trkpt lat="40.6251693185169" lon="16.13784607408291"><ele>594.0</ele><time>2026-04-26T07:20:12Z</time></trkpt><trkpt lat="40.62524149051466" lon="16.13771334227309"><ele>594.0</ele><time>2026-04-26T07:20:13Z</time></trkpt><trkpt lat="40.62530452658933" lon="16.137560889704574"><ele>594.0</ele><time>2026-04-26T07:20:14Z</time></trkpt><trkpt lat="40.62538211518967" lon="16.13740512781196"><ele>594.0</ele><time>2026-04-26T07:20:15Z</time></trkpt><trkpt lat="40.625429268517024" lon="16.137233109039567"><ele>592.25</ele><time>2026-04-26T07:20:16Z</time></trkpt><trkpt lat="40.62546840653168" lon="16.13707619159408"><ele>590.5</ele><time>2026-04-26T07:20:17Z</time></trkpt><trkpt lat="40.62547888973089" lon="16.136899222652715"><ele>588.75</ele><time>2026-04-26T07:20:18Z</time></trkpt><trkpt lat="40.6254754129946" lon="16.136698132722834"><ele>587.0</ele><time>2026-04-26T07:20:19Z</time></trkpt><trkpt lat="40.62547533797014" lon="16.13649014335171"><ele>587.0</ele><time>2026-04-26T07:20:20Z</time></trkpt><trkpt lat="40.62549947675373" lon="16.136299796584968"><ele>587.0</ele><time>2026-04-26T07:20:21Z</time></trkpt><trkpt lat="40.6255081924422" lon="16.136115152674193"><ele>587.0</ele><time>2026-04-26T07:20:22Z</time></trkpt><trkpt lat="40.625516469423026" lon="16.135955685134935"><ele>587.0</ele><time>2026-04-26T07:20:23Z</time></trkpt><trkpt lat="40.62552798712154" lon="16.135823648796013"><ele>588.6</ele><time>2026-04-26T07:20:24Z</time></trkpt><trkpt lat="40.62554443968781" lon="16.135706617777597"><ele>590.2</ele><time>2026-04-26T07:20:25Z</time></trkpt><trkpt lat="40.62557072020501" lon="16.135596926724265"><ele>591.8</ele><time>2026-04-26T07:20:26Z</time></trkpt><trkpt lat="40.625630040589414" lon="16.135507062754773"><ele>593.4</ele><time>2026-04-26T07:20:27Z</time></trkpt><trkpt lat="40.62570353665346" lon="16.13541934125298"><ele>595.0</ele><time>2026-04-26T07:20:28Z</time></trkpt><trkpt lat="40.625817695306864" lon="16.1353712919351"><ele>595.0</ele><time>2026-04-26T07:20:29Z</time></trkpt><trkpt lat="40.62593488769161" lon="16.13537464899599"><ele>595.0</ele><time>2026-04-26T07:20:30Z</time></trkpt><trkpt lat="40.626058869462426" lon="16.13541462523097"><ele>595.0</ele><time>2026-04-26T07:20:31Z</time></trkpt><trkpt lat="40.62619669248003" lon="16.13546017199328"><ele>595.0</ele><time>2026-04-26T07:20:32Z</time></trkpt><trkpt lat="40.626345299501246" lon="16.13545781781373"><ele>593.75</ele><time>2026-04-26T07:20:33Z</time></trkpt><trkpt lat="40.626486184211984" lon="16.135431096082446"><ele>592.5</ele><time>2026-04-26T07:20:34Z</time></trkpt><trkpt lat="40.626611911951" lon="16.135383145440933"><ele>591.25</ele><time>2026-04-26T07:20:35Z</time></trkpt><trkpt lat="40.62671608009611" lon="16.13531588552756"><ele>590.0</ele><time>2026-04-26T07:20:36Z</time></trkpt><trkpt lat="40.62681000598315" lon="16.135225522414462"><ele>590.0</ele><time>2026-04-26T07:20:37Z</time></trkpt><trkpt lat="40.62690517328722" lon="16.135097748578655"><ele>590.0</ele><time>2026-04-26T07:20:38Z</time></trkpt><trkpt lat="40.62700258685729" lon="16.134961863803632"><ele>590.0</ele><time>2026-04-26T07:20:39Z</time></trkpt><trkpt lat="40.627112198007794" lon="16.134826618793053"><ele>590.0</ele><time>2026-04-26T07:20:40Z</time></trkpt><trkpt lat="40.62721715887516" lon="16.134701842032435"><ele>589.6</ele><time>2026-04-26T07:20:41Z</time></trkpt><trkpt lat="40.627325887098465" lon="16.134607231328452"><ele>589.2</ele><time>2026-04-26T07:20:42Z</time></trkpt><trkpt lat="40.627424867290536" lon="16.13452696938138"><ele>588.8</ele><time>2026-04-26T07:20:43Z</time></trkpt><trkpt lat="40.627523242254675" lon="16.13448359307719"><ele>588.4</ele><time>2026-04-26T07:20:44Z</time></trkpt><trkpt lat="40.627609885957376" lon="16.134443486204887"><ele>588.0</ele><time>2026-04-26T07:20:45Z</time></trkpt><trkpt lat="40.627696241530586" lon="16.134454322187995"><ele>588.0</ele><time>2026-04-26T07:20:46Z</time></trkpt><trkpt lat="40.627782089860354" lon="16.13445681869823"><ele>588.0</ele><time>2026-04-26T07:20:47Z</time></trkpt><trkpt lat="40.62787314486742" lon="16.13447140210803"><ele>588.0</ele><time>2026-04-26T07:20:48Z</time></trkpt><trkpt lat="40.62797940823343" lon="16.134375358029672"><ele>588.0</ele><time>2026-04-26T07:20:49Z</time></trkpt><trkpt lat="40.62808654535092" lon="16.13429662173673"><ele>588.0</ele><time>2026-04-26T07:20:50Z</time></trkpt><trkpt lat="40.62818938062442" lon="16.134213210653684"><ele>589.25</ele><time>2026-04-26T07:20:51Z</time></trkpt><trkpt lat="40.62829373164617" lon="16.134106148696368"><ele>590.5</ele><time>2026-04-26T07:20:52Z</time></trkpt><trkpt lat="40.62839736924654" lon="16.133982773628567"><ele>591.75</ele><time>2026-04-26T07:20:53Z</time></trkpt><trkpt lat="40.62851267182628" lon="16.133859663568927"><ele>593.0</ele><time>2026-04-26T07:20:54Z</time></trkpt><trkpt lat="40.628603465420284" lon="16.133699186459232"><ele>595.0</ele><time>2026-04-26T07:20:55Z</time></trkpt><trkpt lat="40.62867851916127" lon="16.133530164140982"><ele>597.0</ele><time>2026-04-26T07:20:56Z</time></trkpt><trkpt lat="40.62872957390245" lon="16.13335900182472"><ele>599.0</ele><time>2026-04-26T07:20:57Z</time></trkpt><trkpt lat="40.6287598510633" lon="16.13317889957579"><ele>601.0</ele><time>2026-04-26T07:20:58Z</time></trkpt><trkpt lat="40.628759954983046" lon="16.132983702477432"><ele>602.5</ele><time>2026-04-26T07:20:59Z</time></trkpt><trkpt lat="40.6288210975011" lon="16.132816906636283"><ele>604.0</ele><time>2026-04-26T07:21:00Z</time></trkpt><trkpt lat="40.628876919645634" lon="16.132656957939417"><ele>605.5</ele><time>2026-04-26T07:21:01Z</time></trkpt><trkpt lat="40.62893406239711" lon="16.1324932798865"><ele>607.0</ele><time>2026-04-26T07:21:02Z</time></trkpt><trkpt lat="40.62898537772483" lon="16.132332253767725"><ele>608.25</ele><time>2026-04-26T07:21:03Z</time></trkpt><trkpt lat="40.629025610867046" lon="16.13215181619817"><ele>609.5</ele><time>2026-04-26T07:21:04Z</time></trkpt><trkpt lat="40.62907558735819" lon="16.13197449453485"><ele>610.75</ele><time>2026-04-26T07:21:05Z</time></trkpt><trkpt lat="40.629142103920785" lon="16.131798190753067"><ele>612.0</ele><time>2026-04-26T07:21:06Z</time></trkpt><trkpt lat="40.62920772606824" lon="16.131603324557066"><ele>614.6666666666666</ele><time>2026-04-26T07:21:07Z</time></trkpt><trkpt lat="40.629314908606446" lon="16.131446873091242"><ele>617.3333333333333</ele><time>2026-04-26T07:21:08Z</time></trkpt><trkpt lat="40.629418309803775" lon="16.13128846646729"><ele>620.0</ele><time>2026-04-26T07:21:09Z</time></trkpt><trkpt lat="40.62952906228402" lon="16.131122155875378"><ele>622.0</ele><time>2026-04-26T07:21:10Z</time></trkpt><trkpt lat="40.62963864210577" lon="16.130957159497342"><ele>624.0</ele><time>2026-04-26T07:21:11Z</time></trkpt><trkpt lat="40.62974513265892" lon="16.13080197426436"><ele>626.0</ele><time>2026-04-26T07:21:12Z</time></trkpt><trkpt lat="40.62985102222325" lon="16.130649648016792"><ele>627.5</ele><time>2026-04-26T07:21:13Z</time></trkpt><trkpt lat="40.629938382469085" lon="16.130488425270737"><ele>629.0</ele><time>2026-04-26T07:21:14Z</time></trkpt><trkpt lat="40.630042470872425" lon="16.130361629069753"><ele>630.5</ele><time>2026-04-26T07:21:15Z</time></trkpt><trkpt lat="40.63012892205372" lon="16.130233572263204"><ele>632.0</ele><time>2026-04-26T07:21:16Z</time></trkpt><trkpt lat="40.63021286526566" lon="16.130128492517184"><ele>632.0</ele><time>2026-04-26T07:21:17Z</time></trkpt><trkpt lat="40.63027873558261" lon="16.1300741736456"><ele>632.0</ele><time>2026-04-26T07:21:18Z</time></trkpt><trkpt lat="40.630335514209584" lon="16.129913616782563"><ele>632.0</ele><time>2026-04-26T07:21:19Z</time></trkpt><trkpt lat="40.630351231124045" lon="16.12982193383635"><ele>632.0</ele><time>2026-04-26T07:21:20Z</time></trkpt><trkpt lat="40.63034172612886" lon="16.129710504505454"><ele>632.0</ele><time>2026-04-26T07:21:21Z</time></trkpt><trkpt lat="40.63030648117656" lon="16.129582392016996"><ele>633.5</ele><time>2026-04-26T07:21:22Z</time></trkpt><trkpt lat="40.630265428376156" lon="16.129452635345434"><ele>635.0</ele><time>2026-04-26T07:21:23Z</time></trkpt><trkpt lat="40.63021230085839" lon="16.129300723317986"><ele>636.5</ele><time>2026-04-26T07:21:24Z</time></trkpt><trkpt lat="40.63014068915725" lon="16.129144060969168"><ele>638.0</ele><time>2026-04-26T07:21:25Z</time></trkpt><trkpt lat="40.63007140750321" lon="16.128987889296305"><ele>638.8</ele><time>2026-04-26T07:21:26Z</time></trkpt><trkpt lat="40.63003306026239" lon="16.12883583581143"><ele>639.5999999999999</ele><time>2026-04-26T07:21:27Z</time></trkpt><trkpt lat="40.62999745657234" lon="16.128708834982646"><ele>640.4000000000001</ele><time>2026-04-26T07:21:28Z</time></trkpt><trkpt lat="40.62997664948504" lon="16.128580512511775"><ele>641.2</ele><time>2026-04-26T07:21:29Z</time></trkpt><trkpt lat="40.629968712525134" lon="16.128448605035206"><ele>642.0</ele><time>2026-04-26T07:21:30Z</time></trkpt><trkpt lat="40.629946140706984" lon="16.128266015568002"><ele>642.0</ele><time>2026-04-26T07:21:31Z</time></trkpt><trkpt lat="40.62990812724021" lon="16.12809905026769"><ele>642.0</ele><time>2026-04-26T07:21:32Z</time></trkpt><trkpt lat="40.629895004159245" lon="16.1279430478941"><ele>642.0</ele><time>2026-04-26T07:21:33Z</time></trkpt><trkpt lat="40.62987572627878" lon="16.12779742835032"><ele>642.0</ele><time>2026-04-26T07:21:34Z</time></trkpt><trkpt lat="40.6298566060963" lon="16.12764172798002"><ele>642.0</ele><time>2026-04-26T07:21:35Z</time></trkpt><trkpt lat="40.629837478098224" lon="16.1274765349095"><ele>642.0</ele><time>2026-04-26T07:21:36Z</time></trkpt><trkpt lat="40.629824014541306" lon="16.12731620312037"><ele>642.0</ele><time>2026-04-26T07:21:37Z</time></trkpt><trkpt lat="40.62980418216003" lon="16.127156697983953"><ele>642.0</ele><time>2026-04-26T07:21:38Z</time></trkpt><trkpt lat="40.62980148701369" lon="16.126997281331192"><ele>641.5</ele><time>2026-04-26T07:21:39Z</time></trkpt><trkpt lat="40.62981213897885" lon="16.126871740557608"><ele>641.0</ele><time>2026-04-26T07:21:40Z</time></trkpt><trkpt lat="40.629850076034785" lon="16.12676659691918"><ele>640.5</ele><time>2026-04-26T07:21:41Z</time></trkpt><trkpt lat="40.629934577254076" lon="16.126708703514932"><ele>640.0</ele><time>2026-04-26T07:21:42Z</time></trkpt><trkpt lat="40.62998450384905" lon="16.126641447473162"><ele>639.5</ele><time>2026-04-26T07:21:43Z</time></trkpt><trkpt lat="40.63003173660965" lon="16.126565132268937"><ele>639.0</ele><time>2026-04-26T07:21:44Z</time></trkpt><trkpt lat="40.630051584012456" lon="16.12647377281954"><ele>640.2</ele><time>2026-04-26T07:21:45Z</time></trkpt><trkpt lat="40.63001418574618" lon="16.126340875334016"><ele>641.4</ele><time>2026-04-26T07:21:46Z</time></trkpt><trkpt lat="40.630012484070136" lon="16.126232065684036"><ele>642.6</ele><time>2026-04-26T07:21:47Z</time></trkpt><trkpt lat="40.6300095579647" lon="16.12612014823742"><ele>643.8</ele><time>2026-04-26T07:21:48Z</time></trkpt><trkpt lat="40.630013258379016" lon="16.125991997557307"><ele>645.0</ele><time>2026-04-26T07:21:49Z</time></trkpt><trkpt lat="40.630024765540725" lon="16.125846932506736"><ele>645.0</ele><time>2026-04-26T07:21:50Z</time></trkpt><trkpt lat="40.63004099937574" lon="16.125737962530504"><ele>645.0</ele><time>2026-04-26T07:21:51Z</time></trkpt><trkpt lat="40.63007932121057" lon="16.125629070061812"><ele>645.0</ele><time>2026-04-26T07:21:52Z</time></trkpt><trkpt lat="40.63016201126338" lon="16.12556460624491"><ele>645.0</ele><time>2026-04-26T07:21:53Z</time></trkpt><trkpt lat="40.63024650118838" lon="16.12545917132622"><ele>645.0</ele><time>2026-04-26T07:21:54Z</time></trkpt><trkpt lat="40.630324582386926" lon="16.12533591615352"><ele>644.1666666666666</ele><time>2026-04-26T07:21:55Z</time></trkpt><trkpt lat="40.630379477495495" lon="16.125213647404607"><ele>643.3333333333334</ele><time>2026-04-26T07:21:56Z</time></trkpt><trkpt lat="40.630416611244534" lon="16.12513021120623"><ele>642.5</ele><time>2026-04-26T07:21:57Z</time></trkpt><trkpt lat="40.63046079983707" lon="16.12502568429986"><ele>641.6666666666667</ele><time>2026-04-26T07:21:59Z</time></trkpt><trkpt lat="40.63049898344588" lon="16.124935361987585"><ele>640.8333333333334</ele><time>2026-04-26T07:22:01Z</time></trkpt><trkpt lat="40.63054546430173" lon="16.124831946408356"><ele>640.0</ele><time>2026-04-26T07:22:03Z</time></trkpt><trkpt lat="40.63060100222105" lon="16.124739033001152"><ele>640.0</ele><time>2026-04-26T07:22:05Z</time></trkpt><trkpt lat="40.630678048719965" lon="16.124624962306733"><ele>640.0</ele><time>2026-04-26T07:22:07Z</time></trkpt><trkpt lat="40.630751067095986" lon="16.124537715327328"><ele>640.0</ele><time>2026-04-26T07:22:09Z</time></trkpt><trkpt lat="40.630837700797564" lon="16.124429602160824"><ele>640.0</ele><time>2026-04-26T07:22:11Z</time></trkpt><trkpt lat="40.63091297547064" lon="16.124349457610858"><ele>640.0</ele><time>2026-04-26T07:22:14Z</time></trkpt><trkpt lat="40.63100789674152" lon="16.1242447470847"><ele>648.0</ele><time>2026-04-26T07:22:16Z</time></trkpt><trkpt lat="40.630758191652795" lon="16.12364408129223"><ele>648.0</ele><time>2026-04-26T07:22:18Z</time></trkpt><trkpt lat="40.630814783884865" lon="16.12352900357474"><ele>648.0</ele><time>2026-04-26T07:22:20Z</time></trkpt><trkpt lat="40.630889858523766" lon="16.123456004877514"><ele>648.0</ele><time>2026-04-26T07:22:22Z</time></trkpt><trkpt lat="40.6309705003907" lon="16.123396700253195"><ele>648.0</ele><time>2026-04-26T07:22:24Z</time></trkpt><trkpt lat="40.63104202907501" lon="16.123339451303227"><ele>648.0</ele><time>2026-04-26T07:22:26Z</time></trkpt><trkpt lat="40.63114235816739" lon="16.123273857743396"><ele>646.5999999999999</ele><time>2026-04-26T07:22:28Z</time></trkpt><trkpt lat="40.631231509243975" lon="16.123203742383854"><ele>645.1999999999999</ele><time>2026-04-26T07:22:30Z</time></trkpt><trkpt lat="40.63133745959837" lon="16.12307187352514"><ele>643.8</ele><time>2026-04-26T07:22:32Z</time></trkpt><trkpt lat="40.63139880995713" lon="16.122983353056686"><ele>642.4</ele><time>2026-04-26T07:22:33Z</time></trkpt><trkpt lat="40.63145111487179" lon="16.12290402726201"><ele>641.0</ele><time>2026-04-26T07:22:34Z</time></trkpt><trkpt lat="40.631499343795404" lon="16.122834648407572"><ele>641.0</ele><time>2026-04-26T07:22:35Z</time></trkpt><trkpt lat="40.63154614409739" lon="16.122762249160235"><ele>641.0</ele><time>2026-04-26T07:22:36Z</time></trkpt><trkpt lat="40.63161021010551" lon="16.12261357426232"><ele>641.0</ele><time>2026-04-26T07:22:38Z</time></trkpt><trkpt lat="40.63166726849056" lon="16.12248393078795"><ele>641.0</ele><time>2026-04-26T07:22:40Z</time></trkpt><trkpt lat="40.63173601958082" lon="16.122339693944248"><ele>641.0</ele><time>2026-04-26T07:22:42Z</time></trkpt><trkpt lat="40.63177183930771" lon="16.12224527018711"><ele>642.8</ele><time>2026-04-26T07:22:43Z</time></trkpt><trkpt lat="40.631833100373335" lon="16.122100304786706"><ele>644.5999999999999</ele><time>2026-04-26T07:22:45Z</time></trkpt><trkpt lat="40.631888728567965" lon="16.121995098557957"><ele>646.4</ele><time>2026-04-26T07:22:47Z</time></trkpt><trkpt lat="40.6319961783142" lon="16.12191047133341"><ele>648.2</ele><time>2026-04-26T07:22:49Z</time></trkpt><trkpt lat="40.63205791628915" lon="16.1218886338295"><ele>650.0</ele><time>2026-04-26T07:22:50Z</time></trkpt><trkpt lat="40.63215550294165" lon="16.121881349007253"><ele>645.2</ele><time>2026-04-26T07:22:52Z</time></trkpt><trkpt lat="40.63224315270153" lon="16.12185784208711"><ele>640.4</ele><time>2026-04-26T07:22:54Z</time></trkpt><trkpt lat="40.632356537299906" lon="16.121798462819402"><ele>635.6</ele><time>2026-04-26T07:22:56Z</time></trkpt><trkpt lat="40.632423498143055" lon="16.121764433827014"><ele>630.8</ele><time>2026-04-26T07:22:57Z</time></trkpt><trkpt lat="40.6325096371457" lon="16.12170241416044"><ele>626.0</ele><time>2026-04-26T07:22:59Z</time></trkpt><trkpt lat="40.632578262927176" lon="16.121669539874034"><ele>626.0</ele><time>2026-04-26T07:23:01Z</time></trkpt><trkpt lat="40.632678571181856" lon="16.1216319877061"><ele>626.0</ele><time>2026-04-26T07:23:03Z</time></trkpt><trkpt lat="40.632765377682745" lon="16.12152797983493"><ele>626.0</ele><time>2026-04-26T07:23:05Z</time></trkpt><trkpt lat="40.63283217806119" lon="16.121395729458676"><ele>626.0</ele><time>2026-04-26T07:23:07Z</time></trkpt><trkpt lat="40.63287780927678" lon="16.121335147757055"><ele>626.0</ele><time>2026-04-26T07:23:08Z</time></trkpt><trkpt lat="40.632928982027664" lon="16.12127194119323"><ele>621.0</ele><time>2026-04-26T07:23:09Z</time></trkpt><trkpt lat="40.63297666974522" lon="16.121212261952312"><ele>616.0</ele><time>2026-04-26T07:23:10Z</time></trkpt><trkpt lat="40.63303360467768" lon="16.121161367292622"><ele>611.0</ele><time>2026-04-26T07:23:11Z</time></trkpt><trkpt lat="40.63313773176687" lon="16.121077710995444"><ele>606.0</ele><time>2026-04-26T07:23:13Z</time></trkpt><trkpt lat="40.63321263446283" lon="16.120952815340242"><ele>601.0</ele><time>2026-04-26T07:23:15Z</time></trkpt><trkpt lat="40.63329641635104" lon="16.120847829537244"><ele>601.0</ele><time>2026-04-26T07:23:17Z</time></trkpt><trkpt lat="40.63335860010632" lon="16.12080124271986"><ele>601.0</ele><time>2026-04-26T07:23:18Z</time></trkpt><trkpt lat="40.63345038687816" lon="16.120717241608997"><ele>601.0</ele><time>2026-04-26T07:23:20Z</time></trkpt><trkpt lat="40.63350127189727" lon="16.120667822735108"><ele>601.0</ele><time>2026-04-26T07:23:21Z</time></trkpt><trkpt lat="40.633560090769976" lon="16.120622381996945"><ele>601.0</ele><time>2026-04-26T07:23:22Z</time></trkpt><trkpt lat="40.633609603033214" lon="16.120557713991982"><ele>601.0</ele><time>2026-04-26T07:23:23Z</time></trkpt><trkpt lat="40.63366439262654" lon="16.120487129141967"><ele>594.75</ele><time>2026-04-26T07:23:24Z</time></trkpt><trkpt lat="40.6337476591039" lon="16.12038769018058"><ele>588.5</ele><time>2026-04-26T07:23:26Z</time></trkpt><trkpt lat="40.63381834816712" lon="16.12027579877556"><ele>582.25</ele><time>2026-04-26T07:23:28Z</time></trkpt><trkpt lat="40.63389984195857" lon="16.120176139689967"><ele>576.0</ele><time>2026-04-26T07:23:30Z</time></trkpt><trkpt lat="40.63396974185332" lon="16.12004563833413"><ele>576.0</ele><time>2026-04-26T07:23:32Z</time></trkpt><trkpt lat="40.63397674612669" lon="16.11993726164276"><ele>576.0</ele><time>2026-04-26T07:23:34Z</time></trkpt><trkpt lat="40.633990760611205" lon="16.11982329934039"><ele>576.0</ele><time>2026-04-26T07:23:36Z</time></trkpt><trkpt lat="40.63402283960613" lon="16.119728253712967"><ele>576.0</ele><time>2026-04-26T07:23:38Z</time></trkpt><trkpt lat="40.63408809961651" lon="16.119669939089416"><ele>576.0</ele><time>2026-04-26T07:23:40Z</time></trkpt><trkpt lat="40.63415009734794" lon="16.119639410182238"><ele>576.0</ele><time>2026-04-26T07:23:41Z</time></trkpt><trkpt lat="40.6342279713505" lon="16.119582840744965"><ele>572.4</ele><time>2026-04-26T07:23:43Z</time></trkpt><trkpt lat="40.63430377801682" lon="16.119555287957553"><ele>568.8</ele><time>2026-04-26T07:23:45Z</time></trkpt><trkpt lat="40.63439035256007" lon="16.119582281202245"><ele>565.1999999999999</ele><time>2026-04-26T07:23:47Z</time></trkpt><trkpt lat="40.63448954634794" lon="16.119566946674208"><ele>561.6</ele><time>2026-04-26T07:23:49Z</time></trkpt><trkpt lat="40.63459634528648" lon="16.119576739869927"><ele>558.0</ele><time>2026-04-26T07:23:51Z</time></trkpt><trkpt lat="40.63468431463983" lon="16.11958056712258"><ele>555.4</ele><time>2026-04-26T07:23:53Z</time></trkpt><trkpt lat="40.63478599256155" lon="16.11957164805151"><ele>552.8</ele><time>2026-04-26T07:23:55Z</time></trkpt><trkpt lat="40.634887285379186" lon="16.119586159591275"><ele>550.2</ele><time>2026-04-26T07:23:57Z</time></trkpt><trkpt lat="40.63498145710586" lon="16.119587849635636"><ele>547.6</ele><time>2026-04-26T07:23:59Z</time></trkpt><trkpt lat="40.635086958258995" lon="16.119602152803076"><ele>545.0</ele><time>2026-04-26T07:24:01Z</time></trkpt><trkpt lat="40.63515168594679" lon="16.11960098044393"><ele>545.0</ele><time>2026-04-26T07:24:02Z</time></trkpt><trkpt lat="40.635268346984354" lon="16.119538808130244"><ele>545.0</ele><time>2026-04-26T07:24:04Z</time></trkpt><trkpt lat="40.635337211573095" lon="16.119508237830566"><ele>545.0</ele><time>2026-04-26T07:24:05Z</time></trkpt><trkpt lat="40.63540170856031" lon="16.119470109164606"><ele>545.0</ele><time>2026-04-26T07:24:06Z</time></trkpt><trkpt lat="40.63549560576528" lon="16.119440052869685"><ele>545.0</ele><time>2026-04-26T07:24:08Z</time></trkpt><trkpt lat="40.63560812496775" lon="16.119401433160508"><ele>542.5</ele><time>2026-04-26T07:24:10Z</time></trkpt><trkpt lat="40.63566708155073" lon="16.11936691174539"><ele>540.0</ele><time>2026-04-26T07:24:11Z</time></trkpt><trkpt lat="40.63572464189791" lon="16.119329115930427"><ele>537.5</ele><time>2026-04-26T07:24:12Z</time></trkpt><trkpt lat="40.63577442187927" lon="16.119238019553286"><ele>535.0</ele><time>2026-04-26T07:24:14Z</time></trkpt><trkpt lat="40.63572055526972" lon="16.119121067733833"><ele>532.5</ele><time>2026-04-26T07:24:16Z</time></trkpt><trkpt lat="40.6356531686437" lon="16.119047058873953"><ele>530.0</ele><time>2026-04-26T07:24:18Z</time></trkpt><trkpt lat="40.635563637509165" lon="16.118964451766647"><ele>528.4</ele><time>2026-04-26T07:24:20Z</time></trkpt><trkpt lat="40.63547184570318" lon="16.11889866366665"><ele>526.8</ele><time>2026-04-26T07:24:22Z</time></trkpt><trkpt lat="40.635392063832484" lon="16.11881511988012"><ele>525.2</ele><time>2026-04-26T07:24:24Z</time></trkpt><trkpt lat="40.635319174600205" lon="16.118718101667483"><ele>523.6</ele><time>2026-04-26T07:24:26Z</time></trkpt><trkpt lat="40.63525776575897" lon="16.118584618025167"><ele>522.0</ele><time>2026-04-26T07:24:28Z</time></trkpt><trkpt lat="40.63518527289661" lon="16.118472541344484"><ele>522.0</ele><time>2026-04-26T07:24:30Z</time></trkpt><trkpt lat="40.63510620714592" lon="16.118394141127936"><ele>522.0</ele><time>2026-04-26T07:24:32Z</time></trkpt><trkpt lat="40.63505685796004" lon="16.11832257208445"><ele>522.0</ele><time>2026-04-26T07:24:34Z</time></trkpt><trkpt lat="40.634985410703706" lon="16.118252936871265"><ele>522.0</ele><time>2026-04-26T07:24:36Z</time></trkpt><trkpt lat="40.634947023959" lon="16.118177539301755"><ele>522.0</ele><time>2026-04-26T07:24:38Z</time></trkpt><trkpt lat="40.63486345763973" lon="16.11811904456524"><ele>522.0</ele><time>2026-04-26T07:24:40Z</time></trkpt><trkpt lat="40.63479729332185" lon="16.118037596677315"><ele>521.4285714285714</ele><time>2026-04-26T07:24:43Z</time></trkpt><trkpt lat="40.63473388009492" lon="16.11798845450312"><ele>520.8571428571429</ele><time>2026-04-26T07:24:45Z</time></trkpt><trkpt lat="40.63465268829237" lon="16.11793384625259"><ele>520.2857142857142</ele><time>2026-04-26T07:24:47Z</time></trkpt><trkpt lat="40.63462498831462" lon="16.11785275334775"><ele>519.7142857142858</ele><time>2026-04-26T07:24:50Z</time></trkpt><trkpt lat="40.6345817340575" lon="16.117789198596107"><ele>519.1428571428571</ele><time>2026-04-26T07:24:52Z</time></trkpt><trkpt lat="40.63462527699384" lon="16.11772434938178"><ele>518.5714285714286</ele><time>2026-04-26T07:24:57Z</time></trkpt><trkpt lat="40.634694772962504" lon="16.117689757977594"><ele>518.0</ele><time>2026-04-26T07:25:01Z</time></trkpt><trkpt lat="40.63474232499759" lon="16.11758765014268"><ele>518.0</ele><time>2026-04-26T07:25:03Z</time></trkpt><trkpt lat="40.634813811270206" lon="16.117568863841807"><ele>518.0</ele><time>2026-04-26T07:25:05Z</time></trkpt><trkpt lat="40.634943883239906" lon="16.11747945575215"><ele>518.0</ele><time>2026-04-26T07:25:07Z</time></trkpt><trkpt lat="40.63501982795794" lon="16.11742777678563"><ele>518.0</ele><time>2026-04-26T07:25:08Z</time></trkpt><trkpt lat="40.635105172915345" lon="16.117392541466828"><ele>518.0</ele><time>2026-04-26T07:25:10Z</time></trkpt><trkpt lat="40.63510168483267" lon="16.117283964855524"><ele>523.0</ele><time>2026-04-26T07:25:12Z</time></trkpt><trkpt lat="40.6350438781044" lon="16.117215026486896"><ele>528.0</ele><time>2026-04-26T07:25:13Z</time></trkpt><trkpt lat="40.63491540629742" lon="16.11713762287122"><ele>533.0</ele><time>2026-04-26T07:25:15Z</time></trkpt><trkpt lat="40.634847036413376" lon="16.11706308109392"><ele>538.0</ele><time>2026-04-26T07:25:16Z</time></trkpt><trkpt lat="40.63477797117175" lon="16.116994203450066"><ele>543.0</ele><time>2026-04-26T07:25:17Z</time></trkpt><trkpt lat="40.63469843473328" lon="16.116940379301848"><ele>543.0</ele><time>2026-04-26T07:25:18Z</time></trkpt><trkpt lat="40.63479605212272" lon="16.11688514624356"><ele>543.0</ele><time>2026-04-26T07:25:21Z</time></trkpt><trkpt lat="40.634882514958605" lon="16.11692017698712"><ele>543.0</ele><time>2026-04-26T07:25:22Z</time></trkpt><trkpt lat="40.63495072258803" lon="16.11693069657867"><ele>543.0</ele><time>2026-04-26T07:25:23Z</time></trkpt><trkpt lat="40.63503376504533" lon="16.11685064712951"><ele>543.0</ele><time>2026-04-26T07:25:25Z</time></trkpt><trkpt lat="40.63506740256576" lon="16.116757813076767"><ele>543.0</ele><time>2026-04-26T07:25:26Z</time></trkpt><trkpt lat="40.63510611516956" lon="16.116646972223883"><ele>545.1666666666666</ele><time>2026-04-26T07:25:27Z</time></trkpt><trkpt lat="40.63515815133452" lon="16.11656144064439"><ele>547.3333333333334</ele><time>2026-04-26T07:25:28Z</time></trkpt><trkpt lat="40.63522097996404" lon="16.11647551998928"><ele>549.5</ele><time>2026-04-26T07:25:29Z</time></trkpt><trkpt lat="40.63526931573948" lon="16.116404724412348"><ele>551.6666666666667</ele><time>2026-04-26T07:25:30Z</time></trkpt><trkpt lat="40.63533240999863" lon="16.116351392915554"><ele>553.8333333333334</ele><time>2026-04-26T07:25:31Z</time></trkpt><trkpt lat="40.63540729951251" lon="16.116325720637473"><ele>556.0</ele><time>2026-04-26T07:25:32Z</time></trkpt><trkpt lat="40.635530904480454" lon="16.11633136388338"><ele>558.4</ele><time>2026-04-26T07:25:34Z</time></trkpt><trkpt lat="40.63559474934221" lon="16.116390193661466"><ele>560.8</ele><time>2026-04-26T07:25:35Z</time></trkpt><trkpt lat="40.63565589903162" lon="16.11645542573783"><ele>563.1999999999999</ele><time>2026-04-26T07:25:36Z</time></trkpt><trkpt lat="40.63576296682899" lon="16.11650630833799"><ele>565.6</ele><time>2026-04-26T07:25:38Z</time></trkpt><trkpt lat="40.6358227585063" lon="16.11646952874625"><ele>568.0</ele><time>2026-04-26T07:25:39Z</time></trkpt><trkpt lat="40.635950173026586" lon="16.116426330823966"><ele>568.0</ele><time>2026-04-26T07:25:41Z</time></trkpt><trkpt lat="40.63601830851341" lon="16.116411043439797"><ele>568.0</ele><time>2026-04-26T07:25:42Z</time></trkpt><trkpt lat="40.63609460269189" lon="16.11639910036301"><ele>568.0</ele><time>2026-04-26T07:25:43Z</time></trkpt><trkpt lat="40.63622517036349" lon="16.11641411844947"><ele>568.0</ele><time>2026-04-26T07:25:45Z</time></trkpt><trkpt lat="40.636298416788534" lon="16.11640119417654"><ele>568.0</ele><time>2026-04-26T07:25:46Z</time></trkpt><trkpt lat="40.63637758880224" lon="16.11639445978844"><ele>568.0</ele><time>2026-04-26T07:25:47Z</time></trkpt><trkpt lat="40.636447441337985" lon="16.116385706511327"><ele>565.4</ele><time>2026-04-26T07:25:48Z</time></trkpt><trkpt lat="40.63656711540128" lon="16.11638237451346"><ele>562.8</ele><time>2026-04-26T07:25:50Z</time></trkpt><trkpt lat="40.63668438101803" lon="16.116412141470292"><ele>560.2</ele><time>2026-04-26T07:25:55Z</time></trkpt><trkpt lat="40.63671002698352" lon="16.116502812056027"><ele>557.6</ele><time>2026-04-26T07:26:20Z</time></trkpt><trkpt lat="40.63674866848125" lon="16.116585537720155"><ele>555.0</ele><time>2026-04-26T07:26:22Z</time></trkpt><trkpt lat="40.636766999250476" lon="16.116680542716928"><ele>555.0</ele><time>2026-04-26T07:26:24Z</time></trkpt><trkpt lat="40.63680428087682" lon="16.116764755506896"><ele>555.0</ele><time>2026-04-26T07:26:27Z</time></trkpt><trkpt lat="40.63684959626785" lon="16.116826287054074"><ele>555.0</ele><time>2026-04-26T07:26:29Z</time></trkpt><trkpt lat="40.63685658554895" lon="16.116911963333933"><ele>555.0</ele><time>2026-04-26T07:26:31Z</time></trkpt><trkpt lat="40.63691585223214" lon="16.117028329382972"><ele>555.0</ele><time>2026-04-26T07:26:33Z</time></trkpt><trkpt lat="40.63696290344961" lon="16.117106471820055"><ele>555.0</ele><time>2026-04-26T07:26:37Z</time></trkpt><trkpt lat="40.63699134354068" lon="16.117200768187725"><ele>555.2857142857143</ele><time>2026-04-26T07:26:40Z</time></trkpt><trkpt lat="40.63703008712057" lon="16.117276563403834"><ele>555.5714285714286</ele><time>2026-04-26T07:26:43Z</time></trkpt><trkpt lat="40.637062345617544" lon="16.11738179123018"><ele>555.8571428571429</ele><time>2026-04-26T07:26:45Z</time></trkpt><trkpt lat="40.63708940039813" lon="16.117459515338886"><ele>556.1428571428571</ele><time>2026-04-26T07:26:47Z</time></trkpt><trkpt lat="40.6370941208693" lon="16.117551102636813"><ele>556.4285714285714</ele><time>2026-04-26T07:26:49Z</time></trkpt><trkpt lat="40.637112649987564" lon="16.117635553779007"><ele>556.7142857142858</ele><time>2026-04-26T07:26:51Z</time></trkpt><trkpt lat="40.637142655214184" lon="16.11773949345196"><ele>557.0</ele><time>2026-04-26T07:26:53Z</time></trkpt><trkpt lat="40.63718235754661" lon="16.11784592190521"><ele>553.4285714285714</ele><time>2026-04-26T07:26:56Z</time></trkpt><trkpt lat="40.63722912050379" lon="16.117914638113003"><ele>549.8571428571429</ele><time>2026-04-26T07:27:01Z</time></trkpt><trkpt lat="40.63731372441054" lon="16.11794560842116"><ele>546.2857142857142</ele><time>2026-04-26T07:27:03Z</time></trkpt><trkpt lat="40.63738853924684" lon="16.117946356236033"><ele>542.7142857142858</ele><time>2026-04-26T07:27:06Z</time></trkpt><trkpt lat="40.63746281017067" lon="16.117962235687155"><ele>539.1428571428571</ele><time>2026-04-26T07:27:08Z</time></trkpt><trkpt lat="40.63748281931262" lon="16.11804207945029"><ele>535.5714285714286</ele><time>2026-04-26T07:27:11Z</time></trkpt><trkpt lat="40.6375182032578" lon="16.118126878531942"><ele>532.0</ele><time>2026-04-26T07:27:14Z</time></trkpt><trkpt lat="40.637568901925015" lon="16.11822174656874"><ele>528.3333333333334</ele><time>2026-04-26T07:27:17Z</time></trkpt><trkpt lat="40.63761619327942" lon="16.11829150999951"><ele>524.6666666666667</ele><time>2026-04-26T07:27:19Z</time></trkpt><trkpt lat="40.63768734404226" lon="16.1183513552182"><ele>521.0</ele><time>2026-04-26T07:27:22Z</time></trkpt><trkpt lat="40.63774516227532" lon="16.118398288309987"><ele>517.3333333333334</ele><time>2026-04-26T07:27:24Z</time></trkpt><trkpt lat="40.63782522808664" lon="16.118455912420412"><ele>513.6666666666666</ele><time>2026-04-26T07:27:26Z</time></trkpt><trkpt lat="40.637890561067024" lon="16.118473188801122"><ele>510.0</ele><time>2026-04-26T07:27:28Z</time></trkpt><trkpt lat="40.637915516753104" lon="16.118308775211542"><ele>513.3333333333334</ele><time>2026-04-26T07:27:31Z</time></trkpt><trkpt lat="40.63792377925095" lon="16.118208941949806"><ele>516.6666666666666</ele><time>2026-04-26T07:27:33Z</time></trkpt><trkpt lat="40.637946256570515" lon="16.118092588433875"><ele>520.0</ele><time>2026-04-26T07:27:35Z</time></trkpt><trkpt lat="40.63796267391094" lon="16.118002709675125"><ele>523.3333333333333</ele><time>2026-04-26T07:27:38Z</time></trkpt><trkpt lat="40.638019658262245" lon="16.117924465057794"><ele>526.6666666666666</ele><time>2026-04-26T07:27:40Z</time></trkpt><trkpt lat="40.63808148042565" lon="16.117826081287348"><ele>530.0</ele><time>2026-04-26T07:27:42Z</time></trkpt><trkpt lat="40.638165719583306" lon="16.117833942368396"><ele>530.0</ele><time>2026-04-26T07:28:03Z</time></trkpt><trkpt lat="40.638247044944684" lon="16.11779472744729"><ele>530.0</ele><time>2026-04-26T07:28:06Z</time></trkpt><trkpt lat="40.6382981859474" lon="16.117745805259986"><ele>530.0</ele><time>2026-04-26T07:28:08Z</time></trkpt><trkpt lat="40.638354542977375" lon="16.117696403192287"><ele>530.0</ele><time>2026-04-26T07:28:10Z</time></trkpt><trkpt lat="40.63842458291987" lon="16.117657595299374"><ele>530.0</ele><time>2026-04-26T07:28:12Z</time></trkpt><trkpt lat="40.63849587012359" lon="16.117599251912438"><ele>530.0</ele><time>2026-04-26T07:28:14Z</time></trkpt><trkpt lat="40.63856321960596" lon="16.117548367268082"><ele>529.9999999999999</ele><time>2026-04-26T07:28:16Z</time></trkpt><trkpt lat="40.638602301145866" lon="16.117470562470423"><ele>530.0</ele><time>2026-04-26T07:28:18Z</time></trkpt><trkpt lat="40.638602624189744" lon="16.1173738104801"><ele>530.0</ele><time>2026-04-26T07:28:20Z</time></trkpt><trkpt lat="40.63863719807338" lon="16.11729693525757"><ele>530.0</ele><time>2026-04-26T07:28:22Z</time></trkpt><trkpt lat="40.63870787393197" lon="16.117232925822428"><ele>530.0</ele><time>2026-04-26T07:28:24Z</time></trkpt><trkpt lat="40.63873957511696" lon="16.11713795146127"><ele>529.9999999999999</ele><time>2026-04-26T07:28:26Z</time></trkpt><trkpt lat="40.63880604148361" lon="16.117115323133504"><ele>530.0</ele><time>2026-04-26T07:28:28Z</time></trkpt><trkpt lat="40.63886105376097" lon="16.117166443900413"><ele>532.1428571428571</ele><time>2026-04-26T07:28:51Z</time></trkpt><trkpt lat="40.63892647029829" lon="16.117226397656612"><ele>534.2857142857142</ele><time>2026-04-26T07:28:54Z</time></trkpt><trkpt lat="40.63896593491786" lon="16.117291619018538"><ele>536.4285714285714</ele><time>2026-04-26T07:28:57Z</time></trkpt><trkpt lat="40.63902523040902" lon="16.11734477952117"><ele>538.5714285714286</ele><time>2026-04-26T07:29:00Z</time></trkpt><trkpt lat="40.63907440488366" lon="16.117428680930278"><ele>540.7142857142858</ele><time>2026-04-26T07:29:14Z</time></trkpt><trkpt lat="40.63911936817404" lon="16.117492372975818"><ele>542.8571428571429</ele><time>2026-04-26T07:29:22Z</time></trkpt><trkpt lat="40.63915251305871" lon="16.117573266801735"><ele>545.0</ele><time>2026-04-26T07:29:26Z</time></trkpt><trkpt lat="40.63922029918795" lon="16.117626106698847"><ele>545.0</ele><time>2026-04-26T07:29:29Z</time></trkpt><trkpt lat="40.63925416840915" lon="16.11771179657742"><ele>545.0</ele><time>2026-04-26T07:29:33Z</time></trkpt><trkpt lat="40.639292054490866" lon="16.11779128525414"><ele>545.0</ele><time>2026-04-26T07:29:39Z</time></trkpt><trkpt lat="40.63937406878808" lon="16.117817224239815"><ele>545.0</ele><time>2026-04-26T07:29:43Z</time></trkpt><trkpt lat="40.63942764594754" lon="16.11786372637028"><ele>545.0</ele><time>2026-04-26T07:29:53Z</time></trkpt><trkpt lat="40.639483475261315" lon="16.117939735929014"><ele>545.0</ele><time>2026-04-26T07:29:57Z</time></trkpt><trkpt lat="40.63954055248558" lon="16.117983375266537"><ele>545.0</ele><time>2026-04-26T07:30:00Z</time></trkpt><trkpt lat="40.63956883309789" lon="16.11808856483178"><ele>544.8333333333333</ele><time>2026-04-26T07:30:04Z</time></trkpt><trkpt lat="40.63963827188848" lon="16.118142137985203"><ele>544.6666666666666</ele><time>2026-04-26T07:30:08Z</time></trkpt><trkpt lat="40.63970633136638" lon="16.118168278229252"><ele>544.5</ele><time>2026-04-26T07:30:18Z</time></trkpt><trkpt lat="40.6397993639297" lon="16.118191118395004"><ele>544.3333333333334</ele><time>2026-04-26T07:30:21Z</time></trkpt><trkpt lat="40.639853375287444" lon="16.11825514478967"><ele>544.1666666666667</ele><time>2026-04-26T07:30:23Z</time></trkpt><trkpt lat="40.639909571657164" lon="16.118297070585946"><ele>544.0</ele><time>2026-04-26T07:30:27Z</time></trkpt><trkpt lat="40.63998126955672" lon="16.118334159451397"><ele>541.2857142857142</ele><time>2026-04-26T07:30:50Z</time></trkpt><trkpt lat="40.64003780508837" lon="16.11838132423339"><ele>538.5714285714286</ele><time>2026-04-26T07:30:59Z</time></trkpt><trkpt lat="40.640090061104196" lon="16.118428181423454"><ele>535.8571428571429</ele><time>2026-04-26T07:31:11Z</time></trkpt><trkpt lat="40.640158291265614" lon="16.11844646318369"><ele>533.1428571428571</ele><time>2026-04-26T07:31:17Z</time></trkpt><trkpt lat="40.64021240243743" lon="16.118403502158774"><ele>530.4285714285714</ele><time>2026-04-26T07:31:23Z</time></trkpt><trkpt lat="40.64027591025693" lon="16.118422491582812"><ele>527.7142857142857</ele><time>2026-04-26T07:31:29Z</time></trkpt><trkpt lat="40.64036116436798" lon="16.11848098541836"><ele>525.0</ele><time>2026-04-26T07:33:03Z</time></trkpt><trkpt lat="40.64039070412942" lon="16.11856242878572"><ele>521.4</ele><time>2026-04-26T07:33:09Z</time></trkpt><trkpt lat="40.64045581032578" lon="16.118603516462745"><ele>517.8</ele><time>2026-04-26T07:33:21Z</time></trkpt><trkpt lat="40.640542890801974" lon="16.118588722903304"><ele>514.2</ele><time>2026-04-26T07:33:25Z</time></trkpt><trkpt lat="40.640638080389806" lon="16.11881520113545"><ele>510.6</ele><time>2026-04-26T07:33:35Z</time></trkpt><trkpt lat="40.64066815234019" lon="16.11889139032396"><ele>507.0</ele><time>2026-04-26T07:33:37Z</time></trkpt><trkpt lat="40.64070567650651" lon="16.11897584352472"><ele>504.5</ele><time>2026-04-26T07:33:40Z</time></trkpt><trkpt lat="40.640687262715076" lon="16.119075060908436"><ele>502.0</ele><time>2026-04-26T07:33:43Z</time></trkpt><trkpt lat="40.64073807578329" lon="16.119153653660405"><ele>499.5</ele><time>2026-04-26T07:33:47Z</time></trkpt><trkpt lat="40.64079643400934" lon="16.11919367900215"><ele>497.0</ele><time>2026-04-26T07:33:49Z</time></trkpt><trkpt lat="40.64086152837127" lon="16.119194317054795"><ele>494.5</ele><time>2026-04-26T07:33:52Z</time></trkpt><trkpt lat="40.640999691069496" lon="16.119277481657257"><ele>492.0</ele><time>2026-04-26T07:33:54Z</time></trkpt><trkpt lat="40.64109168523234" lon="16.119272234141636"><ele>491.6666666666667</ele><time>2026-04-26T07:33:56Z</time></trkpt><trkpt lat="40.641178879161636" lon="16.11925087486268"><ele>491.33333333333337</ele><time>2026-04-26T07:33:58Z</time></trkpt><trkpt lat="40.641261213542286" lon="16.11920283882989"><ele>491.0</ele><time>2026-04-26T07:34:00Z</time></trkpt><trkpt lat="40.64132580899212" lon="16.11921063823599"><ele>490.6666666666667</ele><time>2026-04-26T07:34:13Z</time></trkpt><trkpt lat="40.64139418581913" lon="16.11918098764894"><ele>490.33333333333337</ele><time>2026-04-26T07:35:08Z</time></trkpt><trkpt lat="40.641451601994575" lon="16.119146495595086"><ele>490.0</ele><time>2026-04-26T07:35:12Z</time></trkpt><trkpt lat="40.64151504869984" lon="16.119197691739927"><ele>490.00000000000006</ele><time>2026-04-26T07:35:15Z</time></trkpt><trkpt lat="40.64158435711158" lon="16.11920733498142"><ele>490.0</ele><time>2026-04-26T07:35:23Z</time></trkpt><trkpt lat="40.64165975305556" lon="16.119139882031497"><ele>490.0</ele><time>2026-04-26T07:35:26Z</time></trkpt><trkpt lat="40.641733614696776" lon="16.119141989880266"><ele>490.0</ele><time>2026-04-26T07:35:30Z</time></trkpt><trkpt lat="40.64178099574746" lon="16.11920859569465"><ele>490.00000000000006</ele><time>2026-04-26T07:35:33Z</time></trkpt><trkpt lat="40.64191233685798" lon="16.119199514390154"><ele>490.0</ele><time>2026-04-26T07:35:36Z</time></trkpt><trkpt lat="40.64200978035601" lon="16.119152175952735"><ele>490.50000000000006</ele><time>2026-04-26T07:35:38Z</time></trkpt><trkpt lat="40.64207598458832" lon="16.119149710287086"><ele>491.0</ele><time>2026-04-26T07:35:40Z</time></trkpt><trkpt lat="40.642137976711254" lon="16.11910452098804"><ele>491.5</ele><time>2026-04-26T07:35:42Z</time></trkpt><trkpt lat="40.64223703168538" lon="16.11904372736496"><ele>492.0</ele><time>2026-04-26T07:35:46Z</time></trkpt><trkpt lat="40.642292552638764" lon="16.11897485745977"><ele>492.50000000000006</ele><time>2026-04-26T07:35:48Z</time></trkpt><trkpt lat="40.6423257667739" lon="16.118838500752414"><ele>493.0</ele><time>2026-04-26T07:35:50Z</time></trkpt><trkpt lat="40.64236867885534" lon="16.11877231706437"><ele>494.50000000000006</ele><time>2026-04-26T07:35:51Z</time></trkpt><trkpt lat="40.642395264308156" lon="16.118641287239175"><ele>496.0</ele><time>2026-04-26T07:35:53Z</time></trkpt><trkpt lat="40.64241907501824" lon="16.11856197824009"><ele>497.5</ele><time>2026-04-26T07:35:55Z</time></trkpt><trkpt lat="40.64237105135174" lon="16.118490170301158"><ele>499.0</ele><time>2026-04-26T07:36:26Z</time></trkpt><trkpt lat="40.6423200056286" lon="16.11838228736201"><ele>500.50000000000006</ele><time>2026-04-26T07:36:30Z</time></trkpt><trkpt lat="40.64226994022763" lon="16.11828410773055"><ele>502.0</ele><time>2026-04-26T07:36:32Z</time></trkpt><trkpt lat="40.64231026593711" lon="16.11821075800347"><ele>503.33333333333337</ele><time>2026-04-26T07:36:51Z</time></trkpt><trkpt lat="40.64235769752396" lon="16.118132208976537"><ele>504.6666666666667</ele><time>2026-04-26T07:36:54Z</time></trkpt><trkpt lat="40.64241242880038" lon="16.118087013245216"><ele>506.0</ele><time>2026-04-26T07:37:06Z</time></trkpt><trkpt lat="40.64245457749914" lon="16.118007572671193"><ele>507.33333333333337</ele><time>2026-04-26T07:37:10Z</time></trkpt><trkpt lat="40.64244557549885" lon="16.117900735836546"><ele>508.6666666666667</ele><time>2026-04-26T07:37:13Z</time></trkpt><trkpt lat="40.64243297580909" lon="16.11780873707066"><ele>510.0</ele><time>2026-04-26T07:37:16Z</time></trkpt><trkpt lat="40.64249968707319" lon="16.117737617286934"><ele>510.0</ele><time>2026-04-26T07:37:19Z</time></trkpt><trkpt lat="40.64257235717248" lon="16.117685804959976"><ele>510.0</ele><time>2026-04-26T07:37:22Z</time></trkpt><trkpt lat="40.642540956658195" lon="16.1177693540625"><ele>510.0</ele><time>2026-04-26T07:39:00Z</time></trkpt><trkpt lat="40.64253289867547" lon="16.11767635884212"><ele>510.0</ele><time>2026-04-26T07:39:57Z</time></trkpt><trkpt lat="40.6426014046993" lon="16.11766329958049"><ele>510.0</ele><time>2026-04-26T07:40:51Z</time></trkpt><trkpt lat="40.64268789429374" lon="16.1176711743674"><ele>510.0</ele><time>2026-04-26T07:40:53Z</time></trkpt><trkpt lat="40.64276740559638" lon="16.11765760683092"><ele>514.1666666666666</ele><time>2026-04-26T07:40:55Z</time></trkpt><trkpt lat="40.642867049789714" lon="16.117687176612957"><ele>518.3333333333334</ele><time>2026-04-26T07:40:57Z</time></trkpt><trkpt lat="40.642947123451435" lon="16.11770032118632"><ele>522.5</ele><time>2026-04-26T07:40:59Z</time></trkpt><trkpt lat="40.64302341940501" lon="16.117726446014217"><ele>526.6666666666667</ele><time>2026-04-26T07:41:02Z</time></trkpt><trkpt lat="40.64310088580128" lon="16.117764925710535"><ele>530.8333333333334</ele><time>2026-04-26T07:41:04Z</time></trkpt><trkpt lat="40.64318490177285" lon="16.11778387193486"><ele>535.0</ele><time>2026-04-26T07:41:06Z</time></trkpt><trkpt lat="40.64324760848556" lon="16.117897994483105"><ele>535.0</ele><time>2026-04-26T07:41:08Z</time></trkpt><trkpt lat="40.64331370142508" lon="16.117937062852075"><ele>535.0</ele><time>2026-04-26T07:41:10Z</time></trkpt><trkpt lat="40.64337238722803" lon="16.11786237072382"><ele>535.0</ele><time>2026-04-26T07:41:12Z</time></trkpt><trkpt lat="40.64340497204271" lon="16.117758984775048"><ele>535.0</ele><time>2026-04-26T07:41:55Z</time></trkpt><trkpt lat="40.64348204647257" lon="16.11774980869771"><ele>535.0</ele><time>2026-04-26T07:44:16Z</time></trkpt><trkpt lat="40.64354233605259" lon="16.117725327268428"><ele>535.0</ele><time>2026-04-26T07:44:48Z</time></trkpt><trkpt lat="40.64361600216688" lon="16.11767572613927"><ele>539.0</ele><time>2026-04-26T07:44:59Z</time></trkpt><trkpt lat="40.64368906253372" lon="16.11759724287155"><ele>543.0</ele><time>2026-04-26T07:45:02Z</time></trkpt><trkpt lat="40.643722955288204" lon="16.1175192358771"><ele>547.0</ele><time>2026-04-26T07:45:04Z</time></trkpt><trkpt lat="40.64378303627741" lon="16.11744741826538"><ele>551.0</ele><time>2026-04-26T07:45:07Z</time></trkpt><trkpt lat="40.64385130605548" lon="16.117351341531897"><ele>555.0</ele><time>2026-04-26T07:45:10Z</time></trkpt><trkpt lat="40.643920314429124" lon="16.117370493546957"><ele>559.0</ele><time>2026-04-26T07:45:13Z</time></trkpt><trkpt lat="40.64393629530405" lon="16.11728974695465"><ele>559.8333333333334</ele><time>2026-04-26T07:46:41Z</time></trkpt><trkpt lat="40.64396711897694" lon="16.117174093362838"><ele>560.6666666666667</ele><time>2026-04-26T07:46:44Z</time></trkpt><trkpt lat="40.64398611697728" lon="16.11707059223458"><ele>561.5</ele><time>2026-04-26T07:46:46Z</time></trkpt><trkpt lat="40.644063176756084" lon="16.11698094536717"><ele>562.3333333333334</ele><time>2026-04-26T07:46:48Z</time></trkpt><trkpt lat="40.64406663536971" lon="16.116891041778057"><ele>563.1666666666666</ele><time>2026-04-26T07:46:50Z</time></trkpt><trkpt lat="40.64406771988778" lon="16.116802543496004"><ele>564.0</ele><time>2026-04-26T07:46:52Z</time></trkpt><trkpt lat="40.644067579086524" lon="16.116708063787897"><ele>564.0</ele><time>2026-04-26T07:46:55Z</time></trkpt><trkpt lat="40.64403929949375" lon="16.116623399644116"><ele>564.0</ele><time>2026-04-26T07:46:58Z</time></trkpt><trkpt lat="40.644010438865934" lon="16.116519486583258"><ele>564.0</ele><time>2026-04-26T07:47:01Z</time></trkpt><trkpt lat="40.64399963483863" lon="16.11643401479945"><ele>564.0</ele><time>2026-04-26T07:47:06Z</time></trkpt><trkpt lat="40.64395061096187" lon="16.11637772514155"><ele>564.0</ele><time>2026-04-26T07:47:09Z</time></trkpt><trkpt lat="40.6439150680089" lon="16.11629542820655"><ele>564.0</ele><time>2026-04-26T07:47:22Z</time></trkpt><trkpt lat="40.6438493418041" lon="16.116273545250042"><ele>564.0</ele><time>2026-04-26T07:47:33Z</time></trkpt><trkpt lat="40.64378173065676" lon="16.11626231691629"><ele>563.2857142857143</ele><time>2026-04-26T07:47:37Z</time></trkpt><trkpt lat="40.64372414756724" lon="16.1162217490492"><ele>562.5714285714286</ele><time>2026-04-26T07:47:40Z</time></trkpt><trkpt lat="40.6436544596239" lon="16.11616360149421"><ele>561.8571428571429</ele><time>2026-04-26T07:47:44Z</time></trkpt><trkpt lat="40.64362839810285" lon="16.116086132202234"><ele>561.1428571428571</ele><time>2026-04-26T07:47:48Z</time></trkpt><trkpt lat="40.643585901053584" lon="16.116018059154268"><ele>560.4285714285714</ele><time>2026-04-26T07:47:51Z</time></trkpt><trkpt lat="40.643584174761955" lon="16.11591693438203"><ele>559.7142857142858</ele><time>2026-04-26T07:47:56Z</time></trkpt><trkpt lat="40.64359533546671" lon="16.115807670086447"><ele>559.0</ele><time>2026-04-26T07:47:59Z</time></trkpt><trkpt lat="40.64358934803926" lon="16.115722935668778"><ele>561.8333333333334</ele><time>2026-04-26T07:48:01Z</time></trkpt><trkpt lat="40.6435865914538" lon="16.115604886493944"><ele>564.6666666666667</ele><time>2026-04-26T07:48:04Z</time></trkpt><trkpt lat="40.64355267007164" lon="16.115526110724733"><ele>567.5</ele><time>2026-04-26T07:48:06Z</time></trkpt><trkpt lat="40.64352156487938" lon="16.11544886398461"><ele>570.3333333333334</ele><time>2026-04-26T07:48:09Z</time></trkpt><trkpt lat="40.643474559734244" lon="16.115329418433358"><ele>573.1666666666666</ele><time>2026-04-26T07:48:12Z</time></trkpt><trkpt lat="40.64342541391561" lon="16.115234241027927"><ele>576.0</ele><time>2026-04-26T07:48:14Z</time></trkpt><trkpt lat="40.643379968694575" lon="16.11515849228255"><ele>576.0</ele><time>2026-04-26T07:48:18Z</time></trkpt><trkpt lat="40.643377766770065" lon="16.115017889820013"><ele>576.0</ele><time>2026-04-26T07:48:21Z</time></trkpt><trkpt lat="40.64337628582946" lon="16.114916673376065"><ele>576.0</ele><time>2026-04-26T07:48:23Z</time></trkpt><trkpt lat="40.64336788089576" lon="16.11481700932289"><ele>576.0</ele><time>2026-04-26T07:48:27Z</time></trkpt><trkpt lat="40.6433257534298" lon="16.114754507254787"><ele>576.0</ele><time>2026-04-26T07:48:29Z</time></trkpt><trkpt lat="40.6432627589846" lon="16.114679344738825"><ele>576.0</ele><time>2026-04-26T07:48:56Z</time></trkpt><trkpt lat="40.64320313816426" lon="16.114605691058557"><ele>578.7142857142858</ele><time>2026-04-26T07:48:59Z</time></trkpt><trkpt lat="40.64315776039959" lon="16.11450590636434"><ele>581.4285714285714</ele><time>2026-04-26T07:49:02Z</time></trkpt><trkpt lat="40.64312167928163" lon="16.114433569143504"><ele>584.1428571428571</ele><time>2026-04-26T07:49:04Z</time></trkpt><trkpt lat="40.64306705102458" lon="16.114360424124452"><ele>586.8571428571429</ele><time>2026-04-26T07:49:06Z</time></trkpt><trkpt lat="40.64313112644765" lon="16.11433052025736"><ele>589.5714285714286</ele><time>2026-04-26T07:50:03Z</time></trkpt><trkpt lat="40.64320753412681" lon="16.114291840844295"><ele>592.2857142857143</ele><time>2026-04-26T07:50:06Z</time></trkpt><trkpt lat="40.64326212675257" lon="16.114248991095177"><ele>595.0</ele><time>2026-04-26T07:50:08Z</time></trkpt><trkpt lat="40.64329055676605" lon="16.11414135493228"><ele>597.0</ele><time>2026-04-26T07:50:11Z</time></trkpt><trkpt lat="40.64331850291141" lon="16.114060496818894"><ele>599.0</ele><time>2026-04-26T07:50:14Z</time></trkpt><trkpt lat="40.64340368679038" lon="16.114014579987856"><ele>601.0</ele><time>2026-04-26T07:50:16Z</time></trkpt><trkpt lat="40.643402999261" lon="16.113928019794425"><ele>603.0</ele><time>2026-04-26T07:50:23Z</time></trkpt><trkpt lat="40.64337136926689" lon="16.113843911732587"><ele>605.0</ele><time>2026-04-26T07:50:25Z</time></trkpt><trkpt lat="40.64334548531543" lon="16.11371837175752"><ele>607.0</ele><time>2026-04-26T07:50:27Z</time></trkpt><trkpt lat="40.643312556695875" lon="16.113590971457477"><ele>607.0</ele><time>2026-04-26T07:50:29Z</time></trkpt><trkpt lat="40.64332425309963" lon="16.11348996008928"><ele>607.0</ele><time>2026-04-26T07:50:31Z</time></trkpt><trkpt lat="40.64335597163755" lon="16.113399932520952"><ele>607.0</ele><time>2026-04-26T07:50:34Z</time></trkpt><trkpt lat="40.64340959830751" lon="16.113327414652716"><ele>607.0</ele><time>2026-04-26T07:50:36Z</time></trkpt><trkpt lat="40.64348168494285" lon="16.113251045367374"><ele>607.0</ele><time>2026-04-26T07:50:38Z</time></trkpt><trkpt lat="40.64357080312498" lon="16.113177100033802"><ele>607.0</ele><time>2026-04-26T07:50:40Z</time></trkpt><trkpt lat="40.643626448676635" lon="16.113066915367906"><ele>603.8571428571428</ele><time>2026-04-26T07:50:42Z</time></trkpt><trkpt lat="40.64366545559253" lon="16.11297512763551"><ele>600.7142857142857</ele><time>2026-04-26T07:50:44Z</time></trkpt><trkpt lat="40.64368814388797" lon="16.11288616068076"><ele>597.5714285714286</ele><time>2026-04-26T07:50:45Z</time></trkpt><trkpt lat="40.64373845332534" lon="16.112778269673697"><ele>594.4285714285713</ele><time>2026-04-26T07:50:47Z</time></trkpt><trkpt lat="40.643753545195935" lon="16.112688482990013"><ele>591.2857142857142</ele><time>2026-04-26T07:50:49Z</time></trkpt><trkpt lat="40.64373220424871" lon="16.11260799480264"><ele>588.1428571428571</ele><time>2026-04-26T07:50:50Z</time></trkpt><trkpt lat="40.64368742329097" lon="16.112543582236373"><ele>585.0</ele><time>2026-04-26T07:50:51Z</time></trkpt><trkpt lat="40.6436415389052" lon="16.11247860982493"><ele>587.3333333333334</ele><time>2026-04-26T07:50:52Z</time></trkpt><trkpt lat="40.64355554800876" lon="16.11240834219681"><ele>589.6666666666666</ele><time>2026-04-26T07:50:53Z</time></trkpt><trkpt lat="40.64348343131469" lon="16.11232056897431"><ele>592.0</ele><time>2026-04-26T07:50:54Z</time></trkpt><trkpt lat="40.643440132687836" lon="16.11222750588609"><ele>594.3333333333333</ele><time>2026-04-26T07:50:55Z</time></trkpt><trkpt lat="40.643368764644" lon="16.11217268120677"><ele>596.6666666666666</ele><time>2026-04-26T07:50:56Z</time></trkpt><trkpt lat="40.6433151142554" lon="16.11211092318308"><ele>599.0</ele><time>2026-04-26T07:50:57Z</time></trkpt><trkpt lat="40.643207162158056" lon="16.112024842675318"><ele>599.0</ele><time>2026-04-26T07:50:59Z</time></trkpt><trkpt lat="40.64312456751746" lon="16.1119498987413"><ele>599.0</ele><time>2026-04-26T07:51:01Z</time></trkpt><trkpt lat="40.64300652863541" lon="16.1119045346664"><ele>599.0</ele><time>2026-04-26T07:51:03Z</time></trkpt><trkpt lat="40.642920270053224" lon="16.111932914271705"><ele>599.0</ele><time>2026-04-26T07:51:05Z</time></trkpt><trkpt lat="40.642942209950945" lon="16.11180785170587"><ele>599.0</ele><time>2026-04-26T07:51:08Z</time></trkpt><trkpt lat="40.64296131371017" lon="16.111723586445493"><ele>599.0</ele><time>2026-04-26T07:51:09Z</time></trkpt><trkpt lat="40.64300440589395" lon="16.11158493772191"><ele>599.0</ele><time>2026-04-26T07:51:11Z</time></trkpt><trkpt lat="40.64303899522691" lon="16.111506413712302"><ele>599.0</ele><time>2026-04-26T07:51:12Z</time></trkpt><trkpt lat="40.64308783596425" lon="16.11136963340679"><ele>599.0</ele><time>2026-04-26T07:51:14Z</time></trkpt><trkpt lat="40.643111728339804" lon="16.11128666408019"><ele>599.0</ele><time>2026-04-26T07:51:15Z</time></trkpt><trkpt lat="40.64315029324406" lon="16.111175431452335"><ele>597.2</ele><time>2026-04-26T07:51:17Z</time></trkpt><trkpt lat="40.643365320020784" lon="16.11124348900812"><ele>595.4</ele><time>2026-04-26T07:51:22Z</time></trkpt><trkpt lat="40.64344627182291" lon="16.111255382288107"><ele>593.6</ele><time>2026-04-26T07:51:23Z</time></trkpt><trkpt lat="40.643512360609954" lon="16.11124983526118"><ele>591.8</ele><time>2026-04-26T07:51:24Z</time></trkpt><trkpt lat="40.64358362397292" lon="16.11124782038035"><ele>590.0</ele><time>2026-04-26T07:51:25Z</time></trkpt><trkpt lat="40.643725352870625" lon="16.111246563570585"><ele>585.8</ele><time>2026-04-26T07:51:27Z</time></trkpt><trkpt lat="40.64383368689444" lon="16.111251927019595"><ele>581.6</ele><time>2026-04-26T07:51:29Z</time></trkpt><trkpt lat="40.64390667227538" lon="16.111209529589065"><ele>577.4</ele><time>2026-04-26T07:51:30Z</time></trkpt><trkpt lat="40.64398058404492" lon="16.111207410354783"><ele>573.2</ele><time>2026-04-26T07:51:31Z</time></trkpt><trkpt lat="40.64410123049073" lon="16.111253401637445"><ele>569.0</ele><time>2026-04-26T07:51:34Z</time></trkpt><trkpt lat="40.64413891472945" lon="16.11133890743934"><ele>569.0</ele><time>2026-04-26T07:51:35Z</time></trkpt><trkpt lat="40.64418866518099" lon="16.111429955895147"><ele>569.0</ele><time>2026-04-26T07:51:37Z</time></trkpt><trkpt lat="40.64438875165342" lon="16.111476110261577"><ele>569.0</ele><time>2026-04-26T07:51:41Z</time></trkpt><trkpt lat="40.64447868065477" lon="16.111505595196125"><ele>569.0</ele><time>2026-04-26T07:51:43Z</time></trkpt><trkpt lat="40.644693511607166" lon="16.111488388453893"><ele>565.4</ele><time>2026-04-26T07:51:47Z</time></trkpt><trkpt lat="40.64476196362653" lon="16.1114735188304"><ele>561.8</ele><time>2026-04-26T07:51:48Z</time></trkpt><trkpt lat="40.64486085226497" lon="16.11149126411965"><ele>558.2</ele><time>2026-04-26T07:51:50Z</time></trkpt><trkpt lat="40.64490018754737" lon="16.111598592562366"><ele>554.6</ele><time>2026-04-26T07:51:53Z</time></trkpt><trkpt lat="40.645006263949035" lon="16.111750873204546"><ele>551.0</ele><time>2026-04-26T07:51:56Z</time></trkpt><trkpt lat="40.6450729050294" lon="16.111796513719728"><ele>550.9999999999999</ele><time>2026-04-26T07:51:57Z</time></trkpt><trkpt lat="40.645122506640455" lon="16.11184968169865"><ele>551.0</ele><time>2026-04-26T07:51:58Z</time></trkpt><trkpt lat="40.64517408893046" lon="16.111898732201887"><ele>551.0</ele><time>2026-04-26T07:51:59Z</time></trkpt><trkpt lat="40.64524189320471" lon="16.111918404659185"><ele>551.0</ele><time>2026-04-26T07:52:00Z</time></trkpt><trkpt lat="40.64529850556033" lon="16.11198115113842"><ele>551.0</ele><time>2026-04-26T07:52:01.001Z</time></trkpt><trkpt lat="40.64537557598363" lon="16.112014477811716"><ele>550.9999999999999</ele><time>2026-04-26T07:52:02.001Z</time></trkpt><trkpt lat="40.64544527326027" lon="16.11203711994625"><ele>551.0</ele><time>2026-04-26T07:52:04.001Z</time></trkpt><trkpt lat="40.645488293313946" lon="16.111973452910934"><ele>548.2</ele><time>2026-04-26T07:52:08Z</time></trkpt><trkpt lat="40.64548247626839" lon="16.111823014488547"><ele>545.4000000000001</ele><time>2026-04-26T07:52:10Z</time></trkpt><trkpt lat="40.6454896602419" lon="16.11173776162553"><ele>542.6</ele><time>2026-04-26T07:52:11Z</time></trkpt><trkpt lat="40.64547964336626" lon="16.111639605147094"><ele>539.8000000000001</ele><time>2026-04-26T07:52:12Z</time></trkpt><trkpt lat="40.6455208760563" lon="16.111540022206547"><ele>537.0</ele><time>2026-04-26T07:52:14Z</time></trkpt><trkpt lat="40.64562723928011" lon="16.111617795451423"><ele>535.0</ele><time>2026-04-26T07:52:17Z</time></trkpt><trkpt lat="40.645707458809774" lon="16.11168746369484"><ele>533.0</ele><time>2026-04-26T07:52:19Z</time></trkpt><trkpt lat="40.6457822565273" lon="16.11173047610153"><ele>531.0</ele><time>2026-04-26T07:52:21Z</time></trkpt><trkpt lat="40.64595835038285" lon="16.111798728235225"><ele>529.0</ele><time>2026-04-26T07:52:25Z</time></trkpt><trkpt lat="40.64604031655591" lon="16.111816502179522"><ele>527.0</ele><time>2026-04-26T07:52:27Z</time></trkpt><trkpt lat="40.64616533780392" lon="16.111857583308204"><ele>526.5</ele><time>2026-04-26T07:52:32Z</time></trkpt><trkpt lat="40.6462585379604" lon="16.111920414843198"><ele>526.0</ele><time>2026-04-26T07:52:38Z</time></trkpt><trkpt lat="40.6463359187164" lon="16.11196751222641"><ele>525.5</ele><time>2026-04-26T07:52:40Z</time></trkpt><trkpt lat="40.646381859395625" lon="16.112034538324288"><ele>525.0</ele><time>2026-04-26T07:52:42Z</time></trkpt><trkpt lat="40.646442833295595" lon="16.112095439165767"><ele>524.5</ele><time>2026-04-26T07:52:47Z</time></trkpt><trkpt lat="40.64647016752" lon="16.11218631607897"><ele>524.0</ele><time>2026-04-26T07:52:49Z</time></trkpt><trkpt lat="40.64655763279822" lon="16.112276313212778"><ele>524.0</ele><time>2026-04-26T07:52:52Z</time></trkpt><trkpt lat="40.64664373129754" lon="16.11234369319065"><ele>524.0</ele><time>2026-04-26T07:52:54Z</time></trkpt><trkpt lat="40.646736636232795" lon="16.112431239016814"><ele>524.0</ele><time>2026-04-26T07:52:56Z</time></trkpt><trkpt lat="40.64683232346251" lon="16.11251907369388"><ele>524.0</ele><time>2026-04-26T07:52:58Z</time></trkpt><trkpt lat="40.64691167562002" lon="16.112589426540975"><ele>524.0</ele><time>2026-04-26T07:53:00Z</time></trkpt><trkpt lat="40.64698718532607" lon="16.112667141161204"><ele>521.1666666666666</ele><time>2026-04-26T07:53:02Z</time></trkpt><trkpt lat="40.64705743602953" lon="16.112710831688123"><ele>518.3333333333333</ele><time>2026-04-26T07:53:03Z</time></trkpt><trkpt lat="40.64714788008914" lon="16.112756560028295"><ele>515.5</ele><time>2026-04-26T07:53:05Z</time></trkpt><trkpt lat="40.64724705250228" lon="16.112824826287373"><ele>512.6666666666666</ele><time>2026-04-26T07:53:07Z</time></trkpt><trkpt lat="40.647308515958336" lon="16.112868755871894"><ele>509.8333333333333</ele><time>2026-04-26T07:53:08Z</time></trkpt><trkpt lat="40.647368240446994" lon="16.112916743065647"><ele>507.0</ele><time>2026-04-26T07:53:09Z</time></trkpt><trkpt lat="40.647426899879676" lon="16.112972262188038"><ele>507.0</ele><time>2026-04-26T07:53:10Z</time></trkpt><trkpt lat="40.64748890241971" lon="16.113075884873172"><ele>507.00000000000006</ele><time>2026-04-26T07:53:12Z</time></trkpt><trkpt lat="40.64756931657435" lon="16.113119602526545"><ele>507.00000000000006</ele><time>2026-04-26T07:53:15Z</time></trkpt><trkpt lat="40.64763828663977" lon="16.113132496231913"><ele>507.0</ele><time>2026-04-26T07:53:16Z</time></trkpt><trkpt lat="40.6477121300758" lon="16.113091047257825"><ele>507.0</ele><time>2026-04-26T07:53:18Z</time></trkpt><trkpt lat="40.64779903220032" lon="16.112984926487815"><ele>504.8333333333333</ele><time>2026-04-26T07:53:20Z</time></trkpt><trkpt lat="40.647911717794756" lon="16.11299253703563"><ele>502.66666666666663</ele><time>2026-04-26T07:53:22Z</time></trkpt><trkpt lat="40.64798086796464" lon="16.11298122415922"><ele>500.5</ele><time>2026-04-26T07:53:23Z</time></trkpt><trkpt lat="40.6480519282117" lon="16.112977027133756"><ele>498.3333333333333</ele><time>2026-04-26T07:53:24Z</time></trkpt><trkpt lat="40.6481232729645" lon="16.112989040613087"><ele>496.16666666666663</ele><time>2026-04-26T07:53:25Z</time></trkpt><trkpt lat="40.64820085158799" lon="16.112918203930978"><ele>494.0</ele><time>2026-04-26T07:53:26Z</time></trkpt><trkpt lat="40.64826678391416" lon="16.112876664229187"><ele>493.99999999999994</ele><time>2026-04-26T07:53:27Z</time></trkpt><trkpt lat="40.64833724117322" lon="16.112844203419208"><ele>494.0</ele><time>2026-04-26T07:53:28Z</time></trkpt><trkpt lat="40.64845079097442" lon="16.112798130617524"><ele>494.0</ele><time>2026-04-26T07:53:30Z</time></trkpt><trkpt lat="40.64851251784831" lon="16.11282799961382"><ele>494.0</ele><time>2026-04-26T07:53:31Z</time></trkpt><trkpt lat="40.64858392877171" lon="16.11289173479542"><ele>493.99999999999994</ele><time>2026-04-26T07:53:32Z</time></trkpt><trkpt lat="40.64864574214039" lon="16.112975409985236"><ele>494.0</ele><time>2026-04-26T07:53:33Z</time></trkpt><trkpt lat="40.64870266261252" lon="16.113046719535475"><ele>493.14285714285717</ele><time>2026-04-26T07:53:34Z</time></trkpt><trkpt lat="40.64875106485721" lon="16.113100263990034"><ele>492.2857142857142</ele><time>2026-04-26T07:53:35Z</time></trkpt><trkpt lat="40.64881781658791" lon="16.11317584055042"><ele>491.4285714285714</ele><time>2026-04-26T07:53:37Z</time></trkpt><trkpt lat="40.6488095880743" lon="16.113259041151544"><ele>490.57142857142856</ele><time>2026-04-26T07:53:40Z</time></trkpt><trkpt lat="40.64877448669701" lon="16.113333602445188"><ele>489.71428571428567</ele><time>2026-04-26T07:53:43Z</time></trkpt><trkpt lat="40.64873276491552" lon="16.113409226845963"><ele>488.8571428571428</ele><time>2026-04-26T07:53:47Z</time></trkpt><trkpt lat="40.64873417112117" lon="16.113509154595825"><ele>487.99999999999994</ele><time>2026-04-26T07:55:36Z</time></trkpt><trkpt lat="40.64868731419419" lon="16.113571675645915"><ele>487.8333333333333</ele><time>2026-04-26T07:56:19Z</time></trkpt><trkpt lat="40.648675795487165" lon="16.1137115482041"><ele>487.66666666666663</ele><time>2026-04-26T07:56:21Z</time></trkpt><trkpt lat="40.64867607881734" lon="16.113832719631212"><ele>487.5</ele><time>2026-04-26T07:56:22Z</time></trkpt><trkpt lat="40.648705822883606" lon="16.113925335670604"><ele>487.33333333333337</ele><time>2026-04-26T07:56:23Z</time></trkpt><trkpt lat="40.64872262161726" lon="16.114013914922634"><ele>487.1666666666667</ele><time>2026-04-26T07:56:24Z</time></trkpt><trkpt lat="40.648741625581216" lon="16.11412001908644"><ele>487.0</ele><time>2026-04-26T07:56:25Z</time></trkpt><trkpt lat="40.648761090254574" lon="16.11423315885746"><ele>486.50000000000006</ele><time>2026-04-26T07:56:26Z</time></trkpt><trkpt lat="40.64877396829676" lon="16.114331941883677"><ele>486.0</ele><time>2026-04-26T07:56:27Z</time></trkpt><trkpt lat="40.648796539970945" lon="16.1144571276944"><ele>485.5</ele><time>2026-04-26T07:56:28Z</time></trkpt><trkpt lat="40.648814567315874" lon="16.1145593337331"><ele>485.0</ele><time>2026-04-26T07:56:29Z</time></trkpt><trkpt lat="40.648836444466774" lon="16.114671868963004"><ele>484.50000000000006</ele><time>2026-04-26T07:56:30Z</time></trkpt><trkpt lat="40.648815140275055" lon="16.11476734760263"><ele>484.0</ele><time>2026-04-26T07:56:31Z</time></trkpt><trkpt lat="40.648785737261306" lon="16.114885020041775"><ele>484.2</ele><time>2026-04-26T07:56:33Z</time></trkpt><trkpt lat="40.648773355249624" lon="16.114998092682153"><ele>484.4</ele><time>2026-04-26T07:56:35Z</time></trkpt><trkpt lat="40.64874080334907" lon="16.115127779551862"><ele>484.6</ele><time>2026-04-26T07:56:37Z</time></trkpt><trkpt lat="40.64873154952078" lon="16.115293016291442"><ele>484.8</ele><time>2026-04-26T07:56:39Z</time></trkpt><trkpt lat="40.64873117386378" lon="16.115408834815106"><ele>485.0</ele><time>2026-04-26T07:56:40Z</time></trkpt><trkpt lat="40.64871964143412" lon="16.115539831849112"><ele>485.00000000000006</ele><time>2026-04-26T07:56:41Z</time></trkpt><trkpt lat="40.64870927869454" lon="16.115666450681346"><ele>485.0</ele><time>2026-04-26T07:56:42Z</time></trkpt><trkpt lat="40.64870755689443" lon="16.11576147212611"><ele>485.00000000000006</ele><time>2026-04-26T07:56:43Z</time></trkpt><trkpt lat="40.64871198365583" lon="16.11584635026148"><ele>485.00000000000006</ele><time>2026-04-26T07:56:44Z</time></trkpt><trkpt lat="40.64871550845837" lon="16.115940251069766"><ele>485.0</ele><time>2026-04-26T07:56:45Z</time></trkpt><trkpt lat="40.64871313964578" lon="16.116023694885097"><ele>485.00000000000006</ele><time>2026-04-26T07:56:46Z</time></trkpt><trkpt lat="40.64869279477476" lon="16.11610610082193"><ele>485.00000000000006</ele><time>2026-04-26T07:56:47Z</time></trkpt><trkpt lat="40.64862689194561" lon="16.11625306669343"><ele>484.99999999999994</ele><time>2026-04-26T07:56:49Z</time></trkpt><trkpt lat="40.64858361414642" lon="16.11631729695822"><ele>485.0</ele><time>2026-04-26T07:56:50Z</time></trkpt><trkpt lat="40.648546285173964" lon="16.116385017715324"><ele>485.0</ele><time>2026-04-26T07:56:51Z</time></trkpt><trkpt lat="40.64853578760947" lon="16.116558372091962"><ele>485.0</ele><time>2026-04-26T07:56:53Z</time></trkpt><trkpt lat="40.648523961885154" lon="16.116649516781926"><ele>484.99999999999994</ele><time>2026-04-26T07:56:54Z</time></trkpt><trkpt lat="40.64851926341659" lon="16.116734760300794"><ele>485.0</ele><time>2026-04-26T07:56:55Z</time></trkpt><trkpt lat="40.64849254811224" lon="16.116816154291552"><ele>484.4</ele><time>2026-04-26T07:56:56Z</time></trkpt><trkpt lat="40.648380583169185" lon="16.116911854883856"><ele>483.8</ele><time>2026-04-26T07:56:58Z</time></trkpt><trkpt lat="40.648290010470376" lon="16.11699809598895"><ele>483.20000000000005</ele><time>2026-04-26T07:57:00Z</time></trkpt><trkpt lat="40.64819602548129" lon="16.117092371415044"><ele>482.6</ele><time>2026-04-26T07:57:02Z</time></trkpt><trkpt lat="40.6481429230835" lon="16.117145637911634"><ele>482.0</ele><time>2026-04-26T07:57:03Z</time></trkpt><trkpt lat="40.648030551511795" lon="16.11720873894649"><ele>482.0</ele><time>2026-04-26T07:57:05Z</time></trkpt><trkpt lat="40.647925353002314" lon="16.117346149350666"><ele>482.00000000000006</ele><time>2026-04-26T07:57:06Z</time></trkpt><trkpt lat="40.64789940919128" lon="16.117461531371937"><ele>482.00000000000006</ele><time>2026-04-26T07:57:07Z</time></trkpt><trkpt lat="40.64789217603976" lon="16.117555188221953"><ele>482.0</ele><time>2026-04-26T07:57:09Z</time></trkpt><trkpt lat="40.64790321610162" lon="16.117655783112276"><ele>482.0</ele><time>2026-04-26T07:57:10Z</time></trkpt><trkpt lat="40.648040055573894" lon="16.11771124767609"><ele>481.49999999999994</ele><time>2026-04-26T07:57:11Z</time></trkpt><trkpt lat="40.648043493378616" lon="16.11781266295089"><ele>481.0</ele><time>2026-04-26T07:57:13Z</time></trkpt><trkpt lat="40.64804591105373" lon="16.117916024239435"><ele>480.5</ele><time>2026-04-26T07:57:18Z</time></trkpt><trkpt lat="40.64803347792185" lon="16.118030465843876"><ele>480.0</ele><time>2026-04-26T07:57:21Z</time></trkpt><trkpt lat="40.647992670376894" lon="16.1181482365065"><ele>479.49999999999994</ele><time>2026-04-26T07:57:23Z</time></trkpt><trkpt lat="40.64796408545915" lon="16.118249773365278"><ele>479.0</ele><time>2026-04-26T07:57:25Z</time></trkpt><trkpt lat="40.64797136518223" lon="16.118354418346343"><ele>479.0</ele><time>2026-04-26T07:57:28Z</time></trkpt><trkpt lat="40.64795919666624" lon="16.11843714827962"><ele>479.0</ele><time>2026-04-26T07:57:30Z</time></trkpt><trkpt lat="40.64793841676879" lon="16.118525120083824"><ele>479.0</ele><time>2026-04-26T07:57:32Z</time></trkpt><trkpt lat="40.647906924079685" lon="16.11862415452549"><ele>479.0</ele><time>2026-04-26T07:57:35Z</time></trkpt><trkpt lat="40.64787650039637" lon="16.118711807133536"><ele>479.0</ele><time>2026-04-26T07:57:37Z</time></trkpt><trkpt lat="40.647850279611234" lon="16.118795215489634"><ele>479.0</ele><time>2026-04-26T07:57:39.001Z</time></trkpt><trkpt lat="40.64778468381829" lon="16.11882443389825"><ele>479.0</ele><time>2026-04-26T07:57:41.001Z</time></trkpt><trkpt lat="40.64773067885947" lon="16.118890743431987"><ele>479.3333333333333</ele><time>2026-04-26T07:57:43.001Z</time></trkpt><trkpt lat="40.6476831092132" lon="16.118961425832886"><ele>479.66666666666663</ele><time>2026-04-26T07:57:45.001Z</time></trkpt><trkpt lat="40.64768002045901" lon="16.119075271813756"><ele>480.0</ele><time>2026-04-26T07:57:47.001Z</time></trkpt><trkpt lat="40.6476874704176" lon="16.119182764442552"><ele>480.33333333333337</ele><time>2026-04-26T07:57:48.001Z</time></trkpt><trkpt lat="40.64769904367757" lon="16.119288971164195"><ele>480.6666666666667</ele><time>2026-04-26T07:57:49.001Z</time></trkpt><trkpt lat="40.6477103944871" lon="16.119414980506722"><ele>481.0</ele><time>2026-04-26T07:57:50.001Z</time></trkpt><trkpt lat="40.647664596084866" lon="16.119563811829064"><ele>481.0</ele><time>2026-04-26T07:57:51.001Z</time></trkpt><trkpt lat="40.647623591528976" lon="16.119698525331142"><ele>481.0</ele><time>2026-04-26T07:57:52.001Z</time></trkpt><trkpt lat="40.6475942133297" lon="16.119834818758306"><ele>481.0</ele><time>2026-04-26T07:57:53.001Z</time></trkpt><trkpt lat="40.64756997084902" lon="16.119920218489533"><ele>481.0</ele><time>2026-04-26T07:57:54.001Z</time></trkpt><trkpt lat="40.64755212110481" lon="16.120058194546505"><ele>481.0</ele><time>2026-04-26T07:57:56.001Z</time></trkpt><trkpt lat="40.64755716540508" lon="16.120182915445387"><ele>481.33333333333337</ele><time>2026-04-26T07:57:58.001Z</time></trkpt><trkpt lat="40.64756979497025" lon="16.120306443830405"><ele>481.6666666666667</ele><time>2026-04-26T07:58:00.001Z</time></trkpt><trkpt lat="40.647614104348584" lon="16.12040059526645"><ele>482.0</ele><time>2026-04-26T07:58:02.001Z</time></trkpt><trkpt lat="40.647636182278454" lon="16.120495114653302"><ele>482.33333333333337</ele><time>2026-04-26T07:58:03.001Z</time></trkpt><trkpt lat="40.647617801051034" lon="16.120637208280943"><ele>482.6666666666667</ele><time>2026-04-26T07:58:05.001Z</time></trkpt><trkpt lat="40.64755687918774" lon="16.120702158374243"><ele>483.0</ele><time>2026-04-26T07:58:06.001Z</time></trkpt><trkpt lat="40.6475220051123" lon="16.12083306379674"><ele>482.3333333333333</ele><time>2026-04-26T07:58:07.001Z</time></trkpt><trkpt lat="40.647500300513684" lon="16.120965266884006"><ele>481.66666666666663</ele><time>2026-04-26T07:58:09.001Z</time></trkpt><trkpt lat="40.647482375611546" lon="16.121066111862397"><ele>481.0</ele><time>2026-04-26T07:58:11.001Z</time></trkpt><trkpt lat="40.6474709678818" lon="16.121155869767392"><ele>480.3333333333333</ele><time>2026-04-26T07:58:16.001Z</time></trkpt><trkpt lat="40.64739718777968" lon="16.121213751029458"><ele>479.66666666666663</ele><time>2026-04-26T07:58:18.001Z</time></trkpt><trkpt lat="40.647328230251745" lon="16.121259661839247"><ele>479.0</ele><time>2026-04-26T07:58:21.001Z</time></trkpt><trkpt lat="40.64720462348895" lon="16.121210462691153"><ele>478.99999999999994</ele><time>2026-04-26T07:58:54Z</time></trkpt><trkpt lat="40.64712029635366" lon="16.12131610503909"><ele>479.0</ele><time>2026-04-26T07:59:01Z</time></trkpt><trkpt lat="40.64707442923685" lon="16.121401100202803"><ele>479.0</ele><time>2026-04-26T07:59:02Z</time></trkpt><trkpt lat="40.64701878186476" lon="16.12151845441329"><ele>479.0</ele><time>2026-04-26T07:59:03Z</time></trkpt><trkpt lat="40.64696247395185" lon="16.12157324741971"><ele>478.99999999999994</ele><time>2026-04-26T07:59:05Z</time></trkpt><trkpt lat="40.646978118273125" lon="16.121667779570455"><ele>479.0</ele><time>2026-04-26T07:59:08Z</time></trkpt><trkpt lat="40.64701545309351" lon="16.12176381186369"><ele>480.2</ele><time>2026-04-26T07:59:11Z</time></trkpt><trkpt lat="40.647011755567895" lon="16.121862201695972"><ele>481.4</ele><time>2026-04-26T07:59:15Z</time></trkpt><trkpt lat="40.647007904167104" lon="16.121945273631027"><ele>482.6</ele><time>2026-04-26T07:59:18Z</time></trkpt><trkpt lat="40.64685599958935" lon="16.122169144695718"><ele>483.8</ele><time>2026-04-26T07:59:26Z</time></trkpt><trkpt lat="40.64683272816617" lon="16.122267268478225"><ele>485.0</ele><time>2026-04-26T07:59:28Z</time></trkpt><trkpt lat="40.64678981212224" lon="16.122335281622977"><ele>482.49999999999994</ele><time>2026-04-26T07:59:31Z</time></trkpt><trkpt lat="40.646751997297955" lon="16.122404608993772"><ele>480.0</ele><time>2026-04-26T07:59:37Z</time></trkpt><trkpt lat="40.64669305409927" lon="16.122469404659913"><ele>477.5</ele><time>2026-04-26T07:59:39Z</time></trkpt><trkpt lat="40.646596644256164" lon="16.122476604895528"><ele>475.0</ele><time>2026-04-26T07:59:41Z</time></trkpt><trkpt lat="40.64650669792515" lon="16.122492708010412"><ele>472.49999999999994</ele><time>2026-04-26T07:59:42Z</time></trkpt><trkpt lat="40.64641652267925" lon="16.12248370927233"><ele>470.0</ele><time>2026-04-26T07:59:43Z</time></trkpt><trkpt lat="40.64634419795915" lon="16.122413469440968"><ele>473.0</ele><time>2026-04-26T07:59:44Z</time></trkpt><trkpt lat="40.64626518154166" lon="16.122388853027527"><ele>476.0</ele><time>2026-04-26T07:59:46.001Z</time></trkpt><trkpt lat="40.64613925150419" lon="16.12232738633319"><ele>479.0</ele><time>2026-04-26T07:59:48.001Z</time></trkpt><trkpt lat="40.64606420508879" lon="16.122263786055893"><ele>482.0</ele><time>2026-04-26T07:59:49.001Z</time></trkpt><trkpt lat="40.64596940859064" lon="16.12218301317491"><ele>485.0</ele><time>2026-04-26T07:59:50.001Z</time></trkpt><trkpt lat="40.6458803321453" lon="16.122054014349363"><ele>485.3333333333333</ele><time>2026-04-26T07:59:51.001Z</time></trkpt><trkpt lat="40.64582146337874" lon="16.121959483640502"><ele>485.66666666666663</ele><time>2026-04-26T07:59:52.001Z</time></trkpt><trkpt lat="40.645763767236545" lon="16.12191800128135"><ele>486.0</ele><time>2026-04-26T07:59:53.001Z</time></trkpt><trkpt lat="40.645672323756735" lon="16.12188289359898"><ele>486.33333333333337</ele><time>2026-04-26T07:59:55.001Z</time></trkpt><trkpt lat="40.64560637153327" lon="16.12188858910374"><ele>486.6666666666667</ele><time>2026-04-26T07:59:56.001Z</time></trkpt><trkpt lat="40.64553654784566" lon="16.12191820086797"><ele>487.0</ele><time>2026-04-26T07:59:57.001Z</time></trkpt><trkpt lat="40.6454386040099" lon="16.12196802795924"><ele>487.00000000000006</ele><time>2026-04-26T07:59:59.001Z</time></trkpt><trkpt lat="40.64535218612834" lon="16.122001476546416"><ele>487.0</ele><time>2026-04-26T08:00:01.001Z</time></trkpt><trkpt lat="40.64526495019148" lon="16.122052300610505"><ele>487.0</ele><time>2026-04-26T08:00:03.001Z</time></trkpt><trkpt lat="40.64518984100001" lon="16.12209572815813"><ele>487.0</ele><time>2026-04-26T08:00:05.001Z</time></trkpt><trkpt lat="40.6451267604312" lon="16.121985237159265"><ele>487.00000000000006</ele><time>2026-04-26T08:00:07.001Z</time></trkpt><trkpt lat="40.645091099656845" lon="16.121906279596722"><ele>487.0</ele><time>2026-04-26T08:00:09.001Z</time></trkpt><trkpt lat="40.64471878132115" lon="16.121713927288944"><ele>486.00000000000006</ele><time>2026-04-26T08:00:12.001Z</time></trkpt><trkpt lat="40.644611494019564" lon="16.121735494189497"><ele>485.0</ele><time>2026-04-26T08:00:14.001Z</time></trkpt><trkpt lat="40.64454987369907" lon="16.12170576259676"><ele>484.0</ele><time>2026-04-26T08:00:18.001Z</time></trkpt><trkpt lat="40.64446512690398" lon="16.12170550340869"><ele>483.0</ele><time>2026-04-26T08:00:26.001Z</time></trkpt><trkpt lat="40.64438133609854" lon="16.12172898802094"><ele>482.00000000000006</ele><time>2026-04-26T08:00:29.001Z</time></trkpt><trkpt lat="40.64432906653526" lon="16.12178188715703"><ele>481.0</ele><time>2026-04-26T08:00:30Z</time></trkpt><trkpt lat="40.644265835278354" lon="16.121788491717318"><ele>480.6</ele><time>2026-04-26T08:00:32Z</time></trkpt><trkpt lat="40.644172658571016" lon="16.121770381148306"><ele>480.20000000000005</ele><time>2026-04-26T08:00:35Z</time></trkpt><trkpt lat="40.644053837502454" lon="16.121828977206437"><ele>479.79999999999995</ele><time>2026-04-26T08:00:37Z</time></trkpt><trkpt lat="40.643962422940994" lon="16.1218228617523"><ele>479.4</ele><time>2026-04-26T08:00:38Z</time></trkpt><trkpt lat="40.64385891054279" lon="16.121813053633023"><ele>479.0</ele><time>2026-04-26T08:00:39Z</time></trkpt><trkpt lat="40.64375606083563" lon="16.121806510466573"><ele>478.99999999999994</ele><time>2026-04-26T08:00:40Z</time></trkpt><trkpt lat="40.64383008347805" lon="16.121739270023987"><ele>479.0</ele><time>2026-04-26T08:00:44Z</time></trkpt><trkpt lat="40.643770086485745" lon="16.12178775785144"><ele>479.0</ele><time>2026-04-26T08:00:49Z</time></trkpt><trkpt lat="40.64375767714135" lon="16.121883830293694"><ele>479.0</ele><time>2026-04-26T08:01:39Z</time></trkpt><trkpt lat="40.643690711656184" lon="16.121850863372007"><ele>478.99999999999994</ele><time>2026-04-26T08:01:47Z</time></trkpt><trkpt lat="40.64362397853566" lon="16.12179863772542"><ele>479.0</ele><time>2026-04-26T08:01:50Z</time></trkpt><trkpt lat="40.64351780760089" lon="16.121719745634216"><ele>479.6</ele><time>2026-04-26T08:01:52Z</time></trkpt><trkpt lat="40.643472651823664" lon="16.12164239539442"><ele>480.2</ele><time>2026-04-26T08:01:53Z</time></trkpt><trkpt lat="40.6434360712996" lon="16.12155571595292"><ele>480.80000000000007</ele><time>2026-04-26T08:01:55Z</time></trkpt><trkpt lat="40.643361756885035" lon="16.12163441826825"><ele>481.40000000000003</ele><time>2026-04-26T08:01:57Z</time></trkpt><trkpt lat="40.643341784812975" lon="16.12171609247149"><ele>482.0</ele><time>2026-04-26T08:01:58Z</time></trkpt><trkpt lat="40.64331495928925" lon="16.12190425977849"><ele>481.99999999999994</ele><time>2026-04-26T08:02:00Z</time></trkpt><trkpt lat="40.64331345027904" lon="16.122002928288726"><ele>482.0</ele><time>2026-04-26T08:02:02Z</time></trkpt><trkpt lat="40.64332791964598" lon="16.122109718640708"><ele>482.0</ele><time>2026-04-26T08:02:07Z</time></trkpt><trkpt lat="40.64336889215297" lon="16.122207309763297"><ele>482.0</ele><time>2026-04-26T08:02:11Z</time></trkpt><trkpt lat="40.64331482009081" lon="16.12230058704769"><ele>481.99999999999994</ele><time>2026-04-26T08:02:14Z</time></trkpt><trkpt lat="40.64329590516231" lon="16.122387836654987"><ele>482.0</ele><time>2026-04-26T08:02:27.001Z</time></trkpt><trkpt lat="40.64322144340383" lon="16.12239015049673"><ele>481.99999999999994</ele><time>2026-04-26T08:02:29.001Z</time></trkpt><trkpt lat="40.6431513023053" lon="16.122322457917647"><ele>482.0</ele><time>2026-04-26T08:02:34.001Z</time></trkpt><trkpt lat="40.64314117388043" lon="16.122238196926823"><ele>482.0</ele><time>2026-04-26T08:02:37Z</time></trkpt><trkpt lat="40.643082199513245" lon="16.122267705243722"><ele>482.0</ele><time>2026-04-26T08:02:45Z</time></trkpt><trkpt lat="40.6430047491772" lon="16.122215708760397"><ele>481.99999999999994</ele><time>2026-04-26T08:02:51Z</time></trkpt><trkpt lat="40.642938808511005" lon="16.122243911977748"><ele>482.0</ele><time>2026-04-26T08:02:53Z</time></trkpt><trkpt lat="40.64290158085227" lon="16.12239241221425"><ele>483.8333333333333</ele><time>2026-04-26T08:02:55Z</time></trkpt><trkpt lat="40.6428923968163" lon="16.12250777736908"><ele>485.66666666666663</ele><time>2026-04-26T08:02:57Z</time></trkpt><trkpt lat="40.642930536482424" lon="16.122635131416388"><ele>487.5</ele><time>2026-04-26T08:02:59Z</time></trkpt><trkpt lat="40.64290224901411" lon="16.122741702392926"><ele>489.33333333333337</ele><time>2026-04-26T08:03:01Z</time></trkpt><trkpt lat="40.64286636295132" lon="16.12281653031059"><ele>491.1666666666667</ele><time>2026-04-26T08:03:04Z</time></trkpt><trkpt lat="40.64277015087172" lon="16.12278256964731"><ele>493.0</ele><time>2026-04-26T08:03:06Z</time></trkpt><trkpt lat="40.64270087713035" lon="16.122687927441813"><ele>496.00000000000006</ele><time>2026-04-26T08:03:08Z</time></trkpt><trkpt lat="40.642643921314495" lon="16.122634872848543"><ele>499.0</ele><time>2026-04-26T08:03:10Z</time></trkpt><trkpt lat="40.64254684736906" lon="16.12261293885897"><ele>502.0</ele><time>2026-04-26T08:03:13Z</time></trkpt><trkpt lat="40.642460677718525" lon="16.122648364275324"><ele>505.0</ele><time>2026-04-26T08:03:15Z</time></trkpt><trkpt lat="40.64242136092301" lon="16.122750849451123"><ele>508.00000000000006</ele><time>2026-04-26T08:03:17Z</time></trkpt><trkpt lat="40.64241551780237" lon="16.12287878909689"><ele>511.0</ele><time>2026-04-26T08:03:20Z</time></trkpt><trkpt lat="40.64238023176188" lon="16.122971138798118"><ele>511.0</ele><time>2026-04-26T08:03:23Z</time></trkpt><trkpt lat="40.64240371994688" lon="16.123050480212274"><ele>511.0</ele><time>2026-04-26T08:03:24Z</time></trkpt><trkpt lat="40.64237153801406" lon="16.123153786355317"><ele>511.0</ele><time>2026-04-26T08:03:26Z</time></trkpt><trkpt lat="40.64234275219152" lon="16.12324208578803"><ele>511.0</ele><time>2026-04-26T08:03:28Z</time></trkpt><trkpt lat="40.642275404424005" lon="16.123274204576866"><ele>511.0</ele><time>2026-04-26T08:03:32Z</time></trkpt><trkpt lat="40.64221278528531" lon="16.12329048442053"><ele>511.0</ele><time>2026-04-26T08:03:33Z</time></trkpt><trkpt lat="40.64221941288858" lon="16.123391201226255"><ele>511.0</ele><time>2026-04-26T08:03:36Z</time></trkpt><trkpt lat="40.64220210266505" lon="16.123501562600314"><ele>513.75</ele><time>2026-04-26T08:03:39Z</time></trkpt><trkpt lat="40.64224040008925" lon="16.123621284284845"><ele>516.5</ele><time>2026-04-26T08:03:42Z</time></trkpt><trkpt lat="40.642207130260864" lon="16.123701374176452"><ele>519.25</ele><time>2026-04-26T08:03:44Z</time></trkpt><trkpt lat="40.6421987139981" lon="16.123945713519937"><ele>522.0</ele><time>2026-04-26T08:04:25Z</time></trkpt><trkpt lat="40.64219780275436" lon="16.12409645354839"><ele>522.0</ele><time>2026-04-26T08:04:27Z</time></trkpt><trkpt lat="40.64220941449209" lon="16.124280878091874"><ele>522.0</ele><time>2026-04-26T08:04:28.001Z</time></trkpt><trkpt lat="40.642244689428594" lon="16.124414107864677"><ele>522.0</ele><time>2026-04-26T08:04:29.001Z</time></trkpt><trkpt lat="40.64227806484407" lon="16.124504781985245"><ele>522.0</ele><time>2026-04-26T08:04:30.001Z</time></trkpt><trkpt lat="40.64231939963714" lon="16.124577766731388"><ele>522.0</ele><time>2026-04-26T08:04:31.001Z</time></trkpt><trkpt lat="40.64232692893339" lon="16.12471260796988"><ele>522.0</ele><time>2026-04-26T08:04:33.001Z</time></trkpt><trkpt lat="40.64234114415712" lon="16.124857357292782"><ele>522.0</ele><time>2026-04-26T08:04:35.001Z</time></trkpt><trkpt lat="40.64239818692752" lon="16.12491807870128"><ele>522.0</ele><time>2026-04-26T08:04:36.001Z</time></trkpt><trkpt lat="40.64251627555354" lon="16.12496487728429"><ele>522.0</ele><time>2026-04-26T08:04:38.001Z</time></trkpt><trkpt lat="40.64259331571905" lon="16.124990052629713"><ele>522.0</ele><time>2026-04-26T08:04:39.001Z</time></trkpt><trkpt lat="40.64269291272825" lon="16.12502278654569"><ele>522.5</ele><time>2026-04-26T08:04:40.001Z</time></trkpt><trkpt lat="40.64277731299472" lon="16.125072299424396"><ele>523.0</ele><time>2026-04-26T08:04:41.001Z</time></trkpt><trkpt lat="40.64286172664101" lon="16.12511324024223"><ele>523.5</ele><time>2026-04-26T08:04:42Z</time></trkpt><trkpt lat="40.642932118461694" lon="16.125148228107516"><ele>524.0</ele><time>2026-04-26T08:04:43Z</time></trkpt><trkpt lat="40.643015505344536" lon="16.125202165293725"><ele>524.5</ele><time>2026-04-26T08:04:45Z</time></trkpt><trkpt lat="40.6430823351877" lon="16.12524078093889"><ele>525.0</ele><time>2026-04-26T08:04:47Z</time></trkpt><trkpt lat="40.64318119467655" lon="16.125277883396542"><ele>525.4</ele><time>2026-04-26T08:04:49Z</time></trkpt><trkpt lat="40.64326845363593" lon="16.125372440210125"><ele>525.8</ele><time>2026-04-26T08:04:51Z</time></trkpt><trkpt lat="40.64336693243999" lon="16.125468181079775"><ele>526.2</ele><time>2026-04-26T08:04:53Z</time></trkpt><trkpt lat="40.64348369781841" lon="16.12548491902389"><ele>526.6</ele><time>2026-04-26T08:04:55Z</time></trkpt><trkpt lat="40.64352284736907" lon="16.1254043422457"><ele>527.0</ele><time>2026-04-26T08:04:56Z</time></trkpt><trkpt lat="40.643533718015945" lon="16.12525827712862"><ele>527.0000000000001</ele><time>2026-04-26T08:04:57Z</time></trkpt><trkpt lat="40.643542390442875" lon="16.12517574912057"><ele>527.0</ele><time>2026-04-26T08:04:58Z</time></trkpt><trkpt lat="40.64358920446327" lon="16.125092001773737"><ele>527.0</ele><time>2026-04-26T08:04:59Z</time></trkpt><trkpt lat="40.64362348736943" lon="16.124994751422022"><ele>527.0</ele><time>2026-04-26T08:05:00Z</time></trkpt><trkpt lat="40.64363740868892" lon="16.124902945592556"><ele>527.0</ele><time>2026-04-26T08:05:01Z</time></trkpt><trkpt lat="40.64365010390421" lon="16.124820671100373"><ele>527.0000000000001</ele><time>2026-04-26T08:05:02Z</time></trkpt><trkpt lat="40.64367892767437" lon="16.12474414515207"><ele>527.0</ele><time>2026-04-26T08:05:03Z</time></trkpt><trkpt lat="40.64371977245911" lon="16.12467206727735"><ele>524.6</ele><time>2026-04-26T08:05:04Z</time></trkpt><trkpt lat="40.64373855670243" lon="16.124527752059397"><ele>522.2</ele><time>2026-04-26T08:05:06Z</time></trkpt><trkpt lat="40.64378029308647" lon="16.12443920494981"><ele>519.8</ele><time>2026-04-26T08:05:08Z</time></trkpt><trkpt lat="40.643868023494896" lon="16.124455210689916"><ele>517.4</ele><time>2026-04-26T08:05:10Z</time></trkpt><trkpt lat="40.643949255037896" lon="16.12446684772434"><ele>515.0</ele><time>2026-04-26T08:05:11Z</time></trkpt><trkpt lat="40.64401748893046" lon="16.124338545223683"><ele>515.0</ele><time>2026-04-26T08:05:13Z</time></trkpt><trkpt lat="40.644030453549895" lon="16.124230453468595"><ele>515.0</ele><time>2026-04-26T08:05:14Z</time></trkpt><trkpt lat="40.64405125275645" lon="16.124119269698728"><ele>515.0</ele><time>2026-04-26T08:05:15Z</time></trkpt><trkpt lat="40.64411310956807" lon="16.124033775453356"><ele>515.0</ele><time>2026-04-26T08:05:17Z</time></trkpt><trkpt lat="40.6441814384107" lon="16.124001585086873"><ele>515.0</ele><time>2026-04-26T08:05:18Z</time></trkpt><trkpt lat="40.64424754279963" lon="16.123984866214762"><ele>515.0</ele><time>2026-04-26T08:05:19Z</time></trkpt><trkpt lat="40.64431220927089" lon="16.1240589548202"><ele>515.0</ele><time>2026-04-26T08:05:21Z</time></trkpt><trkpt lat="40.644284197517074" lon="16.124138047943006"><ele>515.0</ele><time>2026-04-26T08:05:22Z</time></trkpt><trkpt lat="40.644277391907856" lon="16.12422271157915"><ele>515.0</ele><time>2026-04-26T08:05:23Z</time></trkpt><trkpt lat="40.64431494704242" lon="16.124344636206263"><ele>515.0</ele><time>2026-04-26T08:05:25Z</time></trkpt><trkpt lat="40.64435757557369" lon="16.124455782266608"><ele>515.0</ele><time>2026-04-26T08:05:27Z</time></trkpt><trkpt lat="40.64437008240449" lon="16.124538567040055"><ele>515.0</ele><time>2026-04-26T08:05:29Z</time></trkpt><trkpt lat="40.6443604165164" lon="16.12463250189101"><ele>515.0</ele><time>2026-04-26T08:05:31Z</time></trkpt><trkpt lat="40.6444027544655" lon="16.12472062051624"><ele>515.0</ele><time>2026-04-26T08:05:34Z</time></trkpt><trkpt lat="40.64433127788086" lon="16.124780019649336"><ele>515.0</ele><time>2026-04-26T08:05:36Z</time></trkpt><trkpt lat="40.644264154598254" lon="16.124851571904436"><ele>515.0</ele><time>2026-04-26T08:05:39Z</time></trkpt><trkpt lat="40.64423313291757" lon="16.124992511696846"><ele>515.0</ele><time>2026-04-26T08:05:42Z</time></trkpt><trkpt lat="40.64427174566801" lon="16.125094046742408"><ele>515.0</ele><time>2026-04-26T08:05:43Z</time></trkpt><trkpt lat="40.64433395339157" lon="16.125260714563673"><ele>514.0</ele><time>2026-04-26T08:05:44Z</time></trkpt><trkpt lat="40.64441954618581" lon="16.12533859026289"><ele>513.0</ele><time>2026-04-26T08:05:46Z</time></trkpt><trkpt lat="40.64448798899423" lon="16.12539837925695"><ele>512.0</ele><time>2026-04-26T08:05:49Z</time></trkpt><trkpt lat="40.64453843571685" lon="16.125453939643503"><ele>511.0</ele><time>2026-04-26T08:05:51Z</time></trkpt><trkpt lat="40.64465146221385" lon="16.125499711590603"><ele>510.0</ele><time>2026-04-26T08:05:55Z</time></trkpt><trkpt lat="40.64473651162501" lon="16.125452943771084"><ele>510.0</ele><time>2026-04-26T08:05:57Z</time></trkpt><trkpt lat="40.644795167809406" lon="16.1253806544557"><ele>510.0</ele><time>2026-04-26T08:05:59Z</time></trkpt><trkpt lat="40.644892060807315" lon="16.125329629072727"><ele>510.0</ele><time>2026-04-26T08:06:01Z</time></trkpt><trkpt lat="40.6449614977638" lon="16.12529377683162"><ele>510.0</ele><time>2026-04-26T08:06:02Z</time></trkpt><trkpt lat="40.64504416910437" lon="16.125196552411804"><ele>510.0</ele><time>2026-04-26T08:06:04Z</time></trkpt><trkpt lat="40.6450981276873" lon="16.125146390433613"><ele>510.0</ele><time>2026-04-26T08:06:06Z</time></trkpt><trkpt lat="40.645134846610425" lon="16.125039580676773"><ele>510.0</ele><time>2026-04-26T08:06:09Z</time></trkpt><trkpt lat="40.64519173405935" lon="16.124933137228282"><ele>510.0</ele><time>2026-04-26T08:06:27.001Z</time></trkpt><trkpt lat="40.64524050577574" lon="16.124831117859298"><ele>510.0</ele><time>2026-04-26T08:06:29.001Z</time></trkpt><trkpt lat="40.645302398815254" lon="16.124735478323558"><ele>510.0</ele><time>2026-04-26T08:06:31.001Z</time></trkpt><trkpt lat="40.64537304672499" lon="16.124586969403765"><ele>510.0</ele><time>2026-04-26T08:06:33.001Z</time></trkpt><trkpt lat="40.64540317021082" lon="16.124507138798393"><ele>505.6</ele><time>2026-04-26T08:06:34.001Z</time></trkpt><trkpt lat="40.64544941347352" lon="16.12439555174718"><ele>501.2</ele><time>2026-04-26T08:06:36.001Z</time></trkpt><trkpt lat="40.64550780045737" lon="16.124243419415222"><ele>496.79999999999995</ele><time>2026-04-26T08:06:38.001Z</time></trkpt><trkpt lat="40.64558229006657" lon="16.124132490820607"><ele>492.4</ele><time>2026-04-26T08:06:40.001Z</time></trkpt><trkpt lat="40.64565657248444" lon="16.124150632603293"><ele>488.0</ele><time>2026-04-26T08:06:42.001Z</time></trkpt><trkpt lat="40.6457073347022" lon="16.12409199102583"><ele>486.4</ele><time>2026-04-26T08:06:49Z</time></trkpt><trkpt lat="40.645752681963685" lon="16.124008224486044"><ele>484.79999999999995</ele><time>2026-04-26T08:06:54Z</time></trkpt><trkpt lat="40.64584195351232" lon="16.12397294400455"><ele>483.2</ele><time>2026-04-26T08:07:00Z</time></trkpt><trkpt lat="40.64593203748992" lon="16.123936722651738"><ele>481.6</ele><time>2026-04-26T08:07:03Z</time></trkpt><trkpt lat="40.64601370461062" lon="16.12389915473175"><ele>480.0</ele><time>2026-04-26T08:07:05Z</time></trkpt><trkpt lat="40.64614488294541" lon="16.12389785664456"><ele>477.6666666666667</ele><time>2026-04-26T08:07:11Z</time></trkpt><trkpt lat="40.64618499365197" lon="16.12383011159566"><ele>475.33333333333337</ele><time>2026-04-26T08:07:13Z</time></trkpt><trkpt lat="40.646244850893616" lon="16.12374720623547"><ele>473.0</ele><time>2026-04-26T08:07:15Z</time></trkpt><trkpt lat="40.64631038391685" lon="16.12368031952113"><ele>470.6666666666667</ele><time>2026-04-26T08:07:18Z</time></trkpt><trkpt lat="40.646373544526334" lon="16.123713146473207"><ele>468.33333333333337</ele><time>2026-04-26T08:07:23Z</time></trkpt><trkpt lat="40.64647640400802" lon="16.123729174669396"><ele>466.0</ele><time>2026-04-26T08:07:26Z</time></trkpt><trkpt lat="40.64650120715593" lon="16.12381011136803"><ele>466.0</ele><time>2026-04-26T08:07:28Z</time></trkpt><trkpt lat="40.646574501352866" lon="16.123851836624993"><ele>466.0</ele><time>2026-04-26T08:07:30Z</time></trkpt><trkpt lat="40.64665317463941" lon="16.12386253929331"><ele>466.0</ele><time>2026-04-26T08:07:31Z</time></trkpt><trkpt lat="40.646706981428274" lon="16.123917732641477"><ele>466.0</ele><time>2026-04-26T08:07:34Z</time></trkpt><trkpt lat="40.646913193516745" lon="16.123843281641253"><ele>466.0</ele><time>2026-04-26T08:07:41Z</time></trkpt><trkpt lat="40.6469883032819" lon="16.12377795108489"><ele>465.83333333333337</ele><time>2026-04-26T08:07:44Z</time></trkpt><trkpt lat="40.64699596886615" lon="16.12369528003883"><ele>465.6666666666667</ele><time>2026-04-26T08:07:48Z</time></trkpt><trkpt lat="40.64700993554596" lon="16.12358260273906"><ele>465.5</ele><time>2026-04-26T08:08:04Z</time></trkpt><trkpt lat="40.64710440653724" lon="16.12349159954573"><ele>465.33333333333337</ele><time>2026-04-26T08:09:12Z</time></trkpt><trkpt lat="40.647116785713" lon="16.123410055353137"><ele>465.1666666666667</ele><time>2026-04-26T08:09:16Z</time></trkpt><trkpt lat="40.647149864465824" lon="16.123337047028183"><ele>465.0</ele><time>2026-04-26T08:09:24Z</time></trkpt><trkpt lat="40.64722516828536" lon="16.123300769589296"><ele>465.0</ele><time>2026-04-26T08:09:27Z</time></trkpt><trkpt lat="40.64731417846544" lon="16.12325270089199"><ele>465.0</ele><time>2026-04-26T08:09:29Z</time></trkpt><trkpt lat="40.647410927070204" lon="16.123218244179967"><ele>465.0</ele><time>2026-04-26T08:09:31Z</time></trkpt><trkpt lat="40.647471932330525" lon="16.123164800961916"><ele>465.0</ele><time>2026-04-26T08:09:33Z</time></trkpt><trkpt lat="40.64750588420241" lon="16.123092440149698"><ele>465.0</ele><time>2026-04-26T08:09:38Z</time></trkpt><trkpt lat="40.64745342335656" lon="16.123022293065215"><ele>465.0</ele><time>2026-04-26T08:09:41Z</time></trkpt><trkpt lat="40.64742121484874" lon="16.12291506119239"><ele>464.75</ele><time>2026-04-26T08:09:43Z</time></trkpt><trkpt lat="40.647407559171775" lon="16.122750904545082"><ele>464.5</ele><time>2026-04-26T08:09:44Z</time></trkpt><trkpt lat="40.64742103614757" lon="16.122619919722705"><ele>464.25</ele><time>2026-04-26T08:09:45Z</time></trkpt><trkpt lat="40.64745531445466" lon="16.12249184485148"><ele>464.0</ele><time>2026-04-26T08:09:47Z</time></trkpt><trkpt lat="40.64739256315585" lon="16.122340201248374"><ele>464.8333333333333</ele><time>2026-04-26T08:09:49Z</time></trkpt><trkpt lat="40.64734717659077" lon="16.122258161661772"><ele>465.66666666666663</ele><time>2026-04-26T08:09:51Z</time></trkpt><trkpt lat="40.64736991721537" lon="16.122143890318945"><ele>466.5</ele><time>2026-04-26T08:09:53Z</time></trkpt><trkpt lat="40.64743423564073" lon="16.122135047304983"><ele>467.33333333333337</ele><time>2026-04-26T08:09:55Z</time></trkpt><trkpt lat="40.6474730658268" lon="16.122059761846216"><ele>468.1666666666667</ele><time>2026-04-26T08:10:01Z</time></trkpt><trkpt lat="40.64750342154348" lon="16.121983695740244"><ele>469.0</ele><time>2026-04-26T08:10:07Z</time></trkpt><trkpt lat="40.64760891438331" lon="16.122027047643094"><ele>469.0</ele><time>2026-04-26T08:10:10Z</time></trkpt><trkpt lat="40.647670979753634" lon="16.121913699902315"><ele>469.0</ele><time>2026-04-26T08:10:12Z</time></trkpt><trkpt lat="40.64769683734901" lon="16.12182824668869"><ele>469.0</ele><time>2026-04-26T08:10:13Z</time></trkpt><trkpt lat="40.64776159250807" lon="16.121722986715202"><ele>469.0</ele><time>2026-04-26T08:10:46.001Z</time></trkpt><trkpt lat="40.64778139862227" lon="16.12160829294665"><ele>469.0</ele><time>2026-04-26T08:10:49.001Z</time></trkpt><trkpt lat="40.647869762728355" lon="16.121460986475252"><ele>471.0</ele><time>2026-04-26T08:11:00Z</time></trkpt><trkpt lat="40.64793065011798" lon="16.121392360922478"><ele>473.0</ele><time>2026-04-26T08:11:03Z</time></trkpt><trkpt lat="40.64799769422503" lon="16.121480371081486"><ele>475.0</ele><time>2026-04-26T08:11:22Z</time></trkpt><trkpt lat="40.64796839360208" lon="16.121564986815592"><ele>477.0</ele><time>2026-04-26T08:11:25Z</time></trkpt><trkpt lat="40.648025828850216" lon="16.121704207201216"><ele>479.0</ele><time>2026-04-26T08:11:27Z</time></trkpt><trkpt lat="40.648111096380354" lon="16.121761347673257"><ele>479.2</ele><time>2026-04-26T08:11:29Z</time></trkpt><trkpt lat="40.64819741531762" lon="16.121780034128108"><ele>479.4</ele><time>2026-04-26T08:11:31Z</time></trkpt><trkpt lat="40.648285117299785" lon="16.12178472358052"><ele>479.6</ele><time>2026-04-26T08:11:33Z</time></trkpt><trkpt lat="40.648401556903856" lon="16.121755965584146"><ele>479.8</ele><time>2026-04-26T08:11:35Z</time></trkpt><trkpt lat="40.648469667636576" lon="16.1217482293423"><ele>480.0</ele><time>2026-04-26T08:11:36Z</time></trkpt><trkpt lat="40.648560005215415" lon="16.121727835310185"><ele>480.0</ele><time>2026-04-26T08:11:38Z</time></trkpt><trkpt lat="40.64862496638956" lon="16.12164100563203"><ele>480.0</ele><time>2026-04-26T08:11:41Z</time></trkpt><trkpt lat="40.64870646188101" lon="16.12162995376056"><ele>480.0</ele><time>2026-04-26T08:11:44Z</time></trkpt><trkpt lat="40.64877470529961" lon="16.12153552771055"><ele>480.0</ele><time>2026-04-26T08:11:46Z</time></trkpt><trkpt lat="40.648835808037795" lon="16.121440315821832"><ele>480.0</ele><time>2026-04-26T08:11:48Z</time></trkpt><trkpt lat="40.64888473630204" lon="16.121257313348476"><ele>484.0</ele><time>2026-04-26T08:11:50Z</time></trkpt><trkpt lat="40.64889134717764" lon="16.121170920614784"><ele>488.0</ele><time>2026-04-26T08:11:51Z</time></trkpt><trkpt lat="40.64894341206817" lon="16.121047533632673"><ele>492.0</ele><time>2026-04-26T08:11:53Z</time></trkpt><trkpt lat="40.648974781196635" lon="16.120914200537175"><ele>496.0</ele><time>2026-04-26T08:11:55Z</time></trkpt><trkpt lat="40.64896387982731" lon="16.120823893985836"><ele>500.0</ele><time>2026-04-26T08:11:56Z</time></trkpt><trkpt lat="40.64897381511673" lon="16.12073495889456"><ele>504.0</ele><time>2026-04-26T08:11:57Z</time></trkpt><trkpt lat="40.64899418501562" lon="16.120597187812407"><ele>504.0</ele><time>2026-04-26T08:11:59Z</time></trkpt><trkpt lat="40.64905997385481" lon="16.120597389513105"><ele>504.0</ele><time>2026-04-26T08:12:02Z</time></trkpt><trkpt lat="40.6490343311074" lon="16.12046848302233"><ele>504.0</ele><time>2026-04-26T08:12:42.001Z</time></trkpt><trkpt lat="40.649039796046814" lon="16.120315086237397"><ele>504.0</ele><time>2026-04-26T08:12:44.001Z</time></trkpt><trkpt lat="40.64906689443458" lon="16.120199159105507"><ele>504.0</ele><time>2026-04-26T08:12:46.001Z</time></trkpt><trkpt lat="40.64912940106624" lon="16.120080555271237"><ele>504.0</ele><time>2026-04-26T08:12:48.001Z</time></trkpt><trkpt lat="40.64919134812527" lon="16.119953408267836"><ele>504.0</ele><time>2026-04-26T08:12:50.001Z</time></trkpt><trkpt lat="40.649235971544776" lon="16.119812609663143"><ele>504.0</ele><time>2026-04-26T08:12:52.001Z</time></trkpt><trkpt lat="40.64925218994048" lon="16.11969015374548"><ele>504.0</ele><time>2026-04-26T08:12:54.001Z</time></trkpt><trkpt lat="40.64920850223015" lon="16.1195861919507"><ele>504.0</ele><time>2026-04-26T08:12:56.001Z</time></trkpt><trkpt lat="40.64909772236488" lon="16.11960266732647"><ele>503.4</ele><time>2026-04-26T08:12:59.001Z</time></trkpt><trkpt lat="40.64903011744103" lon="16.119635162387382"><ele>502.79999999999995</ele><time>2026-04-26T08:13:00.001Z</time></trkpt><trkpt lat="40.64890962414883" lon="16.11963387726265"><ele>502.20000000000005</ele><time>2026-04-26T08:13:02.001Z</time></trkpt><trkpt lat="40.6487957757657" lon="16.119671706803558"><ele>501.6</ele><time>2026-04-26T08:13:04.001Z</time></trkpt><trkpt lat="40.64870568957347" lon="16.11963151105193"><ele>501.0</ele><time>2026-04-26T08:13:06Z</time></trkpt><trkpt lat="40.64862603894322" lon="16.119597433255684"><ele>498.0</ele><time>2026-04-26T08:13:08Z</time></trkpt><trkpt lat="40.64859079837751" lon="16.119479838747623"><ele>495.0</ele><time>2026-04-26T08:13:10Z</time></trkpt><trkpt lat="40.64855165679114" lon="16.11938828490706"><ele>492.0</ele><time>2026-04-26T08:13:12Z</time></trkpt><trkpt lat="40.648529000167315" lon="16.119284368961146"><ele>489.0</ele><time>2026-04-26T08:13:14Z</time></trkpt><trkpt lat="40.64848755692435" lon="16.11918175641176"><ele>486.0</ele><time>2026-04-26T08:13:16Z</time></trkpt><trkpt lat="40.64853642645739" lon="16.119277508946652"><ele>483.0</ele><time>2026-04-26T08:13:21Z</time></trkpt><trkpt lat="40.64862377554572" lon="16.11926582883901"><ele>485.8333333333333</ele><time>2026-04-26T08:13:23Z</time></trkpt><trkpt lat="40.64869931744055" lon="16.119207463473884"><ele>488.66666666666663</ele><time>2026-04-26T08:13:25Z</time></trkpt><trkpt lat="40.648780776526124" lon="16.119196512499382"><ele>491.5</ele><time>2026-04-26T08:13:27Z</time></trkpt><trkpt lat="40.64884985976746" lon="16.119110002012153"><ele>494.3333333333333</ele><time>2026-04-26T08:13:29Z</time></trkpt><trkpt lat="40.64884583765209" lon="16.11900823575186"><ele>497.16666666666663</ele><time>2026-04-26T08:13:30Z</time></trkpt><trkpt lat="40.64890516848567" lon="16.11893380935336"><ele>500.0</ele><time>2026-04-26T08:13:32Z</time></trkpt><trkpt lat="40.64901351343225" lon="16.118928088895352"><ele>500.0</ele><time>2026-04-26T08:13:34Z</time></trkpt><trkpt lat="40.64912757693348" lon="16.118884119465136"><ele>500.0</ele><time>2026-04-26T08:13:36Z</time></trkpt><trkpt lat="40.649224743244176" lon="16.118847916498197"><ele>500.0</ele><time>2026-04-26T08:13:38Z</time></trkpt><trkpt lat="40.649269942279915" lon="16.11891882384772"><ele>500.0</ele><time>2026-04-26T08:13:39Z</time></trkpt><trkpt lat="40.64934118521718" lon="16.118932146979024"><ele>500.0</ele><time>2026-04-26T08:13:40Z</time></trkpt><trkpt lat="40.649466787114335" lon="16.118947056898808"><ele>502.99999999999994</ele><time>2026-04-26T08:13:42Z</time></trkpt><trkpt lat="40.64954475350025" lon="16.11893614947443"><ele>506.0</ele><time>2026-04-26T08:13:43Z</time></trkpt><trkpt lat="40.64962632863961" lon="16.118910789438388"><ele>509.0</ele><time>2026-04-26T08:13:44Z</time></trkpt><trkpt lat="40.64968659151317" lon="16.118881560937375"><ele>512.0</ele><time>2026-04-26T08:13:45Z</time></trkpt><trkpt lat="40.6497359729204" lon="16.118829186969837"><ele>515.0</ele><time>2026-04-26T08:13:46Z</time></trkpt><trkpt lat="40.64980450590179" lon="16.118735213508046"><ele>518.0</ele><time>2026-04-26T08:13:47Z</time></trkpt><trkpt lat="40.64983051403313" lon="16.118613841380128"><ele>518.0</ele><time>2026-04-26T08:13:48Z</time></trkpt><trkpt lat="40.649875164280154" lon="16.1185026118"><ele>518.0</ele><time>2026-04-26T08:13:50Z</time></trkpt><trkpt lat="40.64999494248576" lon="16.118470723555973"><ele>518.0</ele><time>2026-04-26T08:13:52Z</time></trkpt><trkpt lat="40.650071435448055" lon="16.118433191674328"><ele>518.0</ele><time>2026-04-26T08:13:53Z</time></trkpt><trkpt lat="40.65014083692204" lon="16.11840229424267"><ele>518.0</ele><time>2026-04-26T08:13:54Z</time></trkpt><trkpt lat="40.65022660201249" lon="16.118370484339767"><ele>519.1666666666666</ele><time>2026-04-26T08:13:55Z</time></trkpt><trkpt lat="40.65031263516148" lon="16.11834652133358"><ele>520.3333333333333</ele><time>2026-04-26T08:13:56Z</time></trkpt><trkpt lat="40.650429900472545" lon="16.11831287090095"><ele>521.5</ele><time>2026-04-26T08:13:57Z</time></trkpt><trkpt lat="40.650509196486716" lon="16.118278279866423"><ele>522.6666666666666</ele><time>2026-04-26T08:13:58Z</time></trkpt><trkpt lat="40.65057067553959" lon="16.118235557540817"><ele>523.8333333333334</ele><time>2026-04-26T08:13:59Z</time></trkpt><trkpt lat="40.650633146684854" lon="16.1181736492439"><ele>525.0</ele><time>2026-04-26T08:14:00Z</time></trkpt><trkpt lat="40.65068420269351" lon="16.118109034028755"><ele>526.6</ele><time>2026-04-26T08:14:01Z</time></trkpt><trkpt lat="40.65075167157314" lon="16.11799203985941"><ele>528.2</ele><time>2026-04-26T08:14:03Z</time></trkpt><trkpt lat="40.65081103033891" lon="16.117886870360955"><ele>529.8</ele><time>2026-04-26T08:14:05Z</time></trkpt><trkpt lat="40.650901276626755" lon="16.117742028365033"><ele>531.4</ele><time>2026-04-26T08:14:07Z</time></trkpt><trkpt lat="40.65096069974721" lon="16.117662338733858"><ele>533.0</ele><time>2026-04-26T08:14:08Z</time></trkpt><trkpt lat="40.65099362624436" lon="16.11757143713183"><ele>533.0</ele><time>2026-04-26T08:14:09Z</time></trkpt><trkpt lat="40.65101870155224" lon="16.117478235396202"><ele>533.0</ele><time>2026-04-26T08:14:10Z</time></trkpt><trkpt lat="40.6510694613243" lon="16.11735179755036"><ele>533.0</ele><time>2026-04-26T08:14:12Z</time></trkpt><trkpt lat="40.65118180073531" lon="16.117380068805673"><ele>533.0</ele><time>2026-04-26T08:14:14Z</time></trkpt><trkpt lat="40.65127459305326" lon="16.117376156656086"><ele>533.0</ele><time>2026-04-26T08:14:15Z</time></trkpt><trkpt lat="40.65135882270294" lon="16.117373888895994"><ele>534.4</ele><time>2026-04-26T08:14:16Z</time></trkpt><trkpt lat="40.65145113975756" lon="16.117348317859634"><ele>535.8</ele><time>2026-04-26T08:14:17Z</time></trkpt><trkpt lat="40.65154589378642" lon="16.117310000394568"><ele>537.2</ele><time>2026-04-26T08:14:18Z</time></trkpt><trkpt lat="40.65165808465204" lon="16.11728557302572"><ele>538.6</ele><time>2026-04-26T08:14:19Z</time></trkpt><trkpt lat="40.65176005061316" lon="16.117268275222035"><ele>540.0</ele><time>2026-04-26T08:14:20Z</time></trkpt><trkpt lat="40.651838322570434" lon="16.117261326965284"><ele>540.0</ele><time>2026-04-26T08:14:21Z</time></trkpt><trkpt lat="40.65190657278143" lon="16.1172597215824"><ele>540.0</ele><time>2026-04-26T08:14:22Z</time></trkpt><trkpt lat="40.65197436032574" lon="16.117243375572777"><ele>540.0</ele><time>2026-04-26T08:14:23Z</time></trkpt><trkpt lat="40.652062732708714" lon="16.11723346171674"><ele>540.0</ele><time>2026-04-26T08:14:24.001Z</time></trkpt><trkpt lat="40.65216191292609" lon="16.117226272905366"><ele>540.0</ele><time>2026-04-26T08:14:25.001Z</time></trkpt><trkpt lat="40.65223602609258" lon="16.117192493873524"><ele>540.0</ele><time>2026-04-26T08:14:26.001Z</time></trkpt><trkpt lat="40.652290130040456" lon="16.11712401602692"><ele>542.8</ele><time>2026-04-26T08:14:27.001Z</time></trkpt><trkpt lat="40.652350162397354" lon="16.117071618630167"><ele>545.6</ele><time>2026-04-26T08:14:28.001Z</time></trkpt><trkpt lat="40.6524556908943" lon="16.117004785304367"><ele>548.4</ele><time>2026-04-26T08:14:30.001Z</time></trkpt><trkpt lat="40.65252634394313" lon="16.116942189982183"><ele>551.2</ele><time>2026-04-26T08:14:31.001Z</time></trkpt><trkpt lat="40.65260569924143" lon="16.11687089442725"><ele>554.0</ele><time>2026-04-26T08:14:32.001Z</time></trkpt><trkpt lat="40.65269068102022" lon="16.116794543848066"><ele>554.0</ele><time>2026-04-26T08:14:33.001Z</time></trkpt><trkpt lat="40.65277501545528" lon="16.116718774860487"><ele>554.0</ele><time>2026-04-26T08:14:34.001Z</time></trkpt><trkpt lat="40.65285306574142" lon="16.11664521317656"><ele>554.0</ele><time>2026-04-26T08:14:35.001Z</time></trkpt><trkpt lat="40.65293491628241" lon="16.11656783576613"><ele>554.0</ele><time>2026-04-26T08:14:36.001Z</time></trkpt><trkpt lat="40.6530193465536" lon="16.11649050870334"><ele>554.0</ele><time>2026-04-26T08:14:37.001Z</time></trkpt><trkpt lat="40.65311146211776" lon="16.116411752122776"><ele>557.2</ele><time>2026-04-26T08:14:38.001Z</time></trkpt><trkpt lat="40.653206345699694" lon="16.116347582459152"><ele>560.4</ele><time>2026-04-26T08:14:39.001Z</time></trkpt><trkpt lat="40.653297022295014" lon="16.11629229106456"><ele>563.6</ele><time>2026-04-26T08:14:40.001Z</time></trkpt><trkpt lat="40.65337181030456" lon="16.11623290124352"><ele>566.8</ele><time>2026-04-26T08:14:41.001Z</time></trkpt><trkpt lat="40.653451814303494" lon="16.116226248388838"><ele>570.0</ele><time>2026-04-26T08:14:42.001Z</time></trkpt><trkpt lat="40.653529151654176" lon="16.11627076735893"><ele>570.0</ele><time>2026-04-26T08:14:43.001Z</time></trkpt><trkpt lat="40.65361138654811" lon="16.116309023232994"><ele>570.0</ele><time>2026-04-26T08:14:44.001Z</time></trkpt><trkpt lat="40.65366624598137" lon="16.11636858044268"><ele>570.0</ele><time>2026-04-26T08:14:45.001Z</time></trkpt><trkpt lat="40.65373363223375" lon="16.116373644674802"><ele>570.0</ele><time>2026-04-26T08:14:50.001Z</time></trkpt><trkpt lat="40.653746405096776" lon="16.116536137360548"><ele>570.0</ele><time>2026-04-26T08:14:53.001Z</time></trkpt><trkpt lat="40.653768161068875" lon="16.116673569037385"><ele>572.75</ele><time>2026-04-26T08:14:54.001Z</time></trkpt><trkpt lat="40.653788746950134" lon="16.116810711602753"><ele>575.5</ele><time>2026-04-26T08:14:55.001Z</time></trkpt><trkpt lat="40.65381355405518" lon="16.116963021129088"><ele>578.25</ele><time>2026-04-26T08:14:56.001Z</time></trkpt><trkpt lat="40.653840133657454" lon="16.117125412250026"><ele>581.0</ele><time>2026-04-26T08:14:57.001Z</time></trkpt><trkpt lat="40.65386110465738" lon="16.11728175981615"><ele>580.25</ele><time>2026-04-26T08:14:58.001Z</time></trkpt><trkpt lat="40.653879373145806" lon="16.117455882094095"><ele>579.5</ele><time>2026-04-26T08:14:59.001Z</time></trkpt><trkpt lat="40.65392209438834" lon="16.117650225546633"><ele>578.75</ele><time>2026-04-26T08:15:00.001Z</time></trkpt><trkpt lat="40.65393540333713" lon="16.11783070399956"><ele>578.0</ele><time>2026-04-26T08:15:01.001Z</time></trkpt><trkpt lat="40.653969197901695" lon="16.117995015387447"><ele>578.0</ele><time>2026-04-26T08:15:02.001Z</time></trkpt><trkpt lat="40.65398941686952" lon="16.11813428050975"><ele>578.0</ele><time>2026-04-26T08:15:03.001Z</time></trkpt><trkpt lat="40.65400659107406" lon="16.118263904167765"><ele>578.0</ele><time>2026-04-26T08:15:04.001Z</time></trkpt><trkpt lat="40.654025613265105" lon="16.118387170776277"><ele>578.0</ele><time>2026-04-26T08:15:05.001Z</time></trkpt><trkpt lat="40.65405377249426" lon="16.11848733366831"><ele>578.0</ele><time>2026-04-26T08:15:06.001Z</time></trkpt><trkpt lat="40.65409268305888" lon="16.118614537849194"><ele>577.4</ele><time>2026-04-26T08:15:07.001Z</time></trkpt><trkpt lat="40.65414698421006" lon="16.11871761720431"><ele>576.8</ele><time>2026-04-26T08:15:08.001Z</time></trkpt><trkpt lat="40.654201343894286" lon="16.11882716645705"><ele>576.2</ele><time>2026-04-26T08:15:09.001Z</time></trkpt><trkpt lat="40.654267790840834" lon="16.118929029202466"><ele>575.6</ele><time>2026-04-26T08:15:10.001Z</time></trkpt><trkpt lat="40.654316381271464" lon="16.119055330880357"><ele>575.0</ele><time>2026-04-26T08:15:11.001Z</time></trkpt><trkpt lat="40.65437596399336" lon="16.119175123362474"><ele>574.8</ele><time>2026-04-26T08:15:12Z</time></trkpt><trkpt lat="40.65443548721827" lon="16.119287667592726"><ele>574.6</ele><time>2026-04-26T08:15:13Z</time></trkpt><trkpt lat="40.6544895971283" lon="16.119405897653483"><ele>574.4</ele><time>2026-04-26T08:15:14Z</time></trkpt><trkpt lat="40.65455216381791" lon="16.11952064792492"><ele>574.2</ele><time>2026-04-26T08:15:15Z</time></trkpt><trkpt lat="40.65461819576858" lon="16.119631275013614"><ele>574.0</ele><time>2026-04-26T08:15:16Z</time></trkpt><trkpt lat="40.65465468101307" lon="16.119739362870522"><ele>576.6</ele><time>2026-04-26T08:15:17Z</time></trkpt><trkpt lat="40.65469591807795" lon="16.119836621034867"><ele>579.2</ele><time>2026-04-26T08:15:18Z</time></trkpt><trkpt lat="40.65472462400849" lon="16.11993967463476"><ele>581.8000000000001</ele><time>2026-04-26T08:15:19Z</time></trkpt><trkpt lat="40.654746325513216" lon="16.12006700836779"><ele>584.4</ele><time>2026-04-26T08:15:20Z</time></trkpt><trkpt lat="40.65478005838455" lon="16.120191144100634"><ele>587.0</ele><time>2026-04-26T08:15:21Z</time></trkpt><trkpt lat="40.65479226378628" lon="16.120325267207726"><ele>587.0</ele><time>2026-04-26T08:15:22Z</time></trkpt><trkpt lat="40.65480953312233" lon="16.12045551500483"><ele>587.0</ele><time>2026-04-26T08:15:23Z</time></trkpt><trkpt lat="40.65482866048536" lon="16.120571015257543"><ele>587.0</ele><time>2026-04-26T08:15:24Z</time></trkpt><trkpt lat="40.65483708339773" lon="16.120658764704658"><ele>587.0</ele><time>2026-04-26T08:15:25Z</time></trkpt><trkpt lat="40.65485923091202" lon="16.120792414049703"><ele>587.0</ele><time>2026-04-26T08:15:27Z</time></trkpt><trkpt lat="40.65487199130355" lon="16.120879181093265"><ele>587.0</ele><time>2026-04-26T08:15:29Z</time></trkpt><trkpt lat="40.6548737644067" lon="16.120987459936305"><ele>587.0</ele><time>2026-04-26T08:15:35Z</time></trkpt><trkpt lat="40.654949340726205" lon="16.120981648911048"><ele>587.0</ele><time>2026-04-26T08:15:37Z</time></trkpt><trkpt lat="40.65500157938863" lon="16.120891423027462"><ele>587.0</ele><time>2026-04-26T08:15:41Z</time></trkpt><trkpt lat="40.65506036325064" lon="16.120854113263004"><ele>587.0</ele><time>2026-04-26T08:15:44Z</time></trkpt><trkpt lat="40.655116741038206" lon="16.12078639734924"><ele>587.0</ele><time>2026-04-26T08:15:46Z</time></trkpt><trkpt lat="40.6551990825022" lon="16.120696505975896"><ele>587.0</ele><time>2026-04-26T08:15:48Z</time></trkpt><trkpt lat="40.655268562777415" lon="16.120583116958244"><ele>589.8000000000001</ele><time>2026-04-26T08:15:50Z</time></trkpt><trkpt lat="40.65537279224008" lon="16.120464103942467"><ele>592.6</ele><time>2026-04-26T08:15:52Z</time></trkpt><trkpt lat="40.65541407347549" lon="16.120374691632726"><ele>595.4000000000001</ele><time>2026-04-26T08:15:53Z</time></trkpt><trkpt lat="40.655467262464114" lon="16.120304108751462"><ele>598.2</ele><time>2026-04-26T08:15:54Z</time></trkpt><trkpt lat="40.655521606431385" lon="16.120209384196343"><ele>601.0</ele><time>2026-04-26T08:15:55Z</time></trkpt><trkpt lat="40.65557468657137" lon="16.120104516703552"><ele>601.0</ele><time>2026-04-26T08:15:56Z</time></trkpt><trkpt lat="40.655655748369654" lon="16.12000767612181"><ele>601.0</ele><time>2026-04-26T08:15:57Z</time></trkpt><trkpt lat="40.65573854408495" lon="16.119872844706745"><ele>601.0</ele><time>2026-04-26T08:15:58Z</time></trkpt><trkpt lat="40.65582916877091" lon="16.11975124641825"><ele>601.0</ele><time>2026-04-26T08:15:59Z</time></trkpt><trkpt lat="40.65589677948276" lon="16.11961925123488"><ele>600.0</ele><time>2026-04-26T08:16:00Z</time></trkpt><trkpt lat="40.655985677525386" lon="16.119456691352585"><ele>599.0</ele><time>2026-04-26T08:16:01Z</time></trkpt><trkpt lat="40.656063007603706" lon="16.119314620734517"><ele>598.0</ele><time>2026-04-26T08:16:02Z</time></trkpt><trkpt lat="40.65614129691379" lon="16.119233693985603"><ele>597.0</ele><time>2026-04-26T08:16:03Z</time></trkpt><trkpt lat="40.65623316179291" lon="16.1191691480313"><ele>599.5</ele><time>2026-04-26T08:16:04Z</time></trkpt><trkpt lat="40.656337381190276" lon="16.11909435137252"><ele>602.0</ele><time>2026-04-26T08:16:05Z</time></trkpt><trkpt lat="40.65644594112889" lon="16.11905587722025"><ele>604.5</ele><time>2026-04-26T08:16:06Z</time></trkpt><trkpt lat="40.65654331704041" lon="16.1189720861114"><ele>607.0</ele><time>2026-04-26T08:16:07Z</time></trkpt><trkpt lat="40.656629506881664" lon="16.118855596867732"><ele>607.0</ele><time>2026-04-26T08:16:08Z</time></trkpt><trkpt lat="40.65670192112913" lon="16.118735449744175"><ele>607.0</ele><time>2026-04-26T08:16:09Z</time></trkpt><trkpt lat="40.656774018434724" lon="16.11859913558499"><ele>607.0</ele><time>2026-04-26T08:16:10Z</time></trkpt><trkpt lat="40.65684369521473" lon="16.11844719172936"><ele>607.0</ele><time>2026-04-26T08:16:11Z</time></trkpt><trkpt lat="40.65692023816071" lon="16.118299408101038"><ele>610.8000000000001</ele><time>2026-04-26T08:16:12Z</time></trkpt><trkpt lat="40.65698258479662" lon="16.118166201067154"><ele>614.6</ele><time>2026-04-26T08:16:13Z</time></trkpt><trkpt lat="40.65704925516366" lon="16.11803698185282"><ele>618.4000000000001</ele><time>2026-04-26T08:16:14Z</time></trkpt><trkpt lat="40.65711327303297" lon="16.117963788037592"><ele>622.2</ele><time>2026-04-26T08:16:15Z</time></trkpt><trkpt lat="40.65718591539021" lon="16.117940456478557"><ele>626.0</ele><time>2026-04-26T08:16:17Z</time></trkpt><trkpt lat="40.657266023022565" lon="16.117885805382684"><ele>626.0</ele><time>2026-04-26T08:16:20Z</time></trkpt><trkpt lat="40.657355378844855" lon="16.1178419437012"><ele>626.0</ele><time>2026-04-26T08:16:22Z</time></trkpt><trkpt lat="40.657354484486504" lon="16.1176665038356"><ele>626.0</ele><time>2026-04-26T08:16:23Z</time></trkpt><trkpt lat="40.65740136691569" lon="16.11758925154421"><ele>626.0</ele><time>2026-04-26T08:16:25Z</time></trkpt><trkpt lat="40.65744498628501" lon="16.11752838317322"><ele>626.0</ele><time>2026-04-26T08:16:26Z</time></trkpt><trkpt lat="40.65753257239897" lon="16.11741521953272"><ele>626.1666666666666</ele><time>2026-04-26T08:16:28Z</time></trkpt><trkpt lat="40.6575743380025" lon="16.117351796411775"><ele>626.3333333333333</ele><time>2026-04-26T08:16:31Z</time></trkpt><trkpt lat="40.65762805710369" lon="16.117301907000183"><ele>626.5</ele><time>2026-04-26T08:16:34Z</time></trkpt><trkpt lat="40.65764314685954" lon="16.117214686891632"><ele>626.6666666666666</ele><time>2026-04-26T08:16:36.001Z</time></trkpt><trkpt lat="40.657687059043184" lon="16.11714891441454"><ele>626.8333333333334</ele><time>2026-04-26T08:16:38.001Z</time></trkpt><trkpt lat="40.65772306943495" lon="16.116957526929006"><ele>627.0</ele><time>2026-04-26T08:16:41.001Z</time></trkpt><trkpt lat="40.65773855040778" lon="16.116793745648543"><ele>627.0</ele><time>2026-04-26T08:16:42.001Z</time></trkpt><trkpt lat="40.65777010871314" lon="16.116662514177936"><ele>627.0</ele><time>2026-04-26T08:16:43.001Z</time></trkpt><trkpt lat="40.65780298247579" lon="16.116556568438032"><ele>627.0</ele><time>2026-04-26T08:16:44.001Z</time></trkpt><trkpt lat="40.65784044937147" lon="16.116428936777094"><ele>627.0</ele><time>2026-04-26T08:16:46.001Z</time></trkpt><trkpt lat="40.6581016948071" lon="16.116478075735735"><ele>629.6666666666666</ele><time>2026-04-26T08:16:48.001Z</time></trkpt><trkpt lat="40.658183032067654" lon="16.116396675755322"><ele>632.3333333333334</ele><time>2026-04-26T08:16:50.001Z</time></trkpt><trkpt lat="40.658268643294264" lon="16.116275836633864"><ele>635.0</ele><time>2026-04-26T08:16:52.001Z</time></trkpt><trkpt lat="40.65834042610661" lon="16.11623915486223"><ele>637.6666666666667</ele><time>2026-04-26T08:16:54.001Z</time></trkpt><trkpt lat="40.6583901231704" lon="16.116174558141964"><ele>640.3333333333334</ele><time>2026-04-26T08:16:57.001Z</time></trkpt><trkpt lat="40.65844951403864" lon="16.116121784420823"><ele>643.0</ele><time>2026-04-26T08:16:59.001Z</time></trkpt><trkpt lat="40.658573733881525" lon="16.11598437527263"><ele>642.5999999999999</ele><time>2026-04-26T08:17:01.001Z</time></trkpt><trkpt lat="40.6586536239035" lon="16.11588266279027"><ele>642.1999999999999</ele><time>2026-04-26T08:17:02.001Z</time></trkpt><trkpt lat="40.658729592589" lon="16.115873018442233"><ele>641.8</ele><time>2026-04-26T08:17:03.001Z</time></trkpt><trkpt lat="40.65879533226347" lon="16.115803445563042"><ele>641.4</ele><time>2026-04-26T08:17:06.001Z</time></trkpt><trkpt lat="40.65885838366194" lon="16.115745088008463"><ele>641.0</ele><time>2026-04-26T08:17:07.001Z</time></trkpt><trkpt lat="40.65877844116329" lon="16.115608428197906"><ele>640.5</ele><time>2026-04-26T08:17:08.001Z</time></trkpt><trkpt lat="40.65875666848159" lon="16.115521813767696"><ele>640.0</ele><time>2026-04-26T08:17:10.001Z</time></trkpt><trkpt lat="40.65865664266511" lon="16.115484893501428"><ele>639.5</ele><time>2026-04-26T08:17:14.001Z</time></trkpt><trkpt lat="40.65865492443317" lon="16.11539394289167"><ele>639.0</ele><time>2026-04-26T08:17:15.001Z</time></trkpt><trkpt lat="40.65907084239465" lon="16.115199344678775"><ele>639.0</ele><time>2026-04-26T08:17:16.001Z</time></trkpt><trkpt lat="40.65911486250903" lon="16.115095462643545"><ele>639.0</ele><time>2026-04-26T08:17:17.001Z</time></trkpt><trkpt lat="40.659170501596115" lon="16.114999946071798"><ele>639.0</ele><time>2026-04-26T08:17:18Z</time></trkpt><trkpt lat="40.659222817570004" lon="16.114894974100196"><ele>639.0</ele><time>2026-04-26T08:17:19Z</time></trkpt><trkpt lat="40.65926988774255" lon="16.1148053305969"><ele>639.0</ele><time>2026-04-26T08:17:20Z</time></trkpt><trkpt lat="40.659314253613324" lon="16.11472266926877"><ele>639.0</ele><time>2026-04-26T08:17:21Z</time></trkpt><trkpt lat="40.6593452147741" lon="16.114646311278545"><ele>639.0</ele><time>2026-04-26T08:17:22Z</time></trkpt><trkpt lat="40.6593880886763" lon="16.114555001809013"><ele>639.0</ele><time>2026-04-26T08:17:25Z</time></trkpt><trkpt lat="40.659449197491455" lon="16.11445417514488"><ele>639.0</ele><time>2026-04-26T08:17:27Z</time></trkpt><trkpt lat="40.65948451333183" lon="16.11434437627715"><ele>639.0</ele><time>2026-04-26T08:17:29Z</time></trkpt><trkpt lat="40.659530344453046" lon="16.114233073925906"><ele>639.0</ele><time>2026-04-26T08:17:31Z</time></trkpt><trkpt lat="40.65956161637969" lon="16.11416020164947"><ele>639.0</ele><time>2026-04-26T08:17:32Z</time></trkpt><trkpt lat="40.65958373582677" lon="16.11407415515985"><ele>637.1428571428572</ele><time>2026-04-26T08:17:33Z</time></trkpt><trkpt lat="40.65961539974898" lon="16.113994790461206"><ele>635.2857142857143</ele><time>2026-04-26T08:17:34Z</time></trkpt><trkpt lat="40.65965089012869" lon="16.113921370556305"><ele>633.4285714285714</ele><time>2026-04-26T08:17:35Z</time></trkpt><trkpt lat="40.65970193582645" lon="16.113868058652965"><ele>631.5714285714287</ele><time>2026-04-26T08:17:36Z</time></trkpt><trkpt lat="40.6597618633361" lon="16.113821898894276"><ele>629.7142857142858</ele><time>2026-04-26T08:17:37Z</time></trkpt><trkpt lat="40.65981890166343" lon="16.113756385768987"><ele>627.8571428571429</ele><time>2026-04-26T08:17:38Z</time></trkpt><trkpt lat="40.65987651744865" lon="16.113688233624973"><ele>626.0</ele><time>2026-04-26T08:17:39Z</time></trkpt><trkpt lat="40.65993518801278" lon="16.113616138267467"><ele>626.0</ele><time>2026-04-26T08:17:40Z</time></trkpt><trkpt lat="40.66000232896483" lon="16.113543231956395"><ele>626.0</ele><time>2026-04-26T08:17:42Z</time></trkpt><trkpt lat="40.66010439776494" lon="16.11342558412611"><ele>626.0</ele><time>2026-04-26T08:17:44Z</time></trkpt><trkpt lat="40.660152555089226" lon="16.113371678324793"><ele>626.0</ele><time>2026-04-26T08:17:45Z</time></trkpt><trkpt lat="40.66020707395831" lon="16.113322277220792"><ele>626.0</ele><time>2026-04-26T08:17:46Z</time></trkpt><trkpt lat="40.66026141456495" lon="16.113271912146292"><ele>626.0</ele><time>2026-04-26T08:17:47Z</time></trkpt><trkpt lat="40.660328215365126" lon="16.113242615484683"><ele>624.8</ele><time>2026-04-26T08:17:48Z</time></trkpt><trkpt lat="40.66040011216713" lon="16.11320042306978"><ele>623.6</ele><time>2026-04-26T08:17:49Z</time></trkpt><trkpt lat="40.66047271533637" lon="16.113154936239347"><ele>622.4</ele><time>2026-04-26T08:17:50Z</time></trkpt><trkpt lat="40.66058014042638" lon="16.113083405102334"><ele>621.2</ele><time>2026-04-26T08:17:52Z</time></trkpt><trkpt lat="40.66068220721982" lon="16.11302510502324"><ele>620.0</ele><time>2026-04-26T08:17:54Z</time></trkpt><trkpt lat="40.66078902650264" lon="16.112959458968433"><ele>620.0</ele><time>2026-04-26T08:17:56Z</time></trkpt><trkpt lat="40.660839393441634" lon="16.11290922483452"><ele>620.0</ele><time>2026-04-26T08:17:57Z</time></trkpt><trkpt lat="40.66090183776653" lon="16.112807882098338"><ele>620.0</ele><time>2026-04-26T08:17:59Z</time></trkpt><trkpt lat="40.660972062131385" lon="16.112741128728402"><ele>620.0</ele><time>2026-04-26T08:18:01Z</time></trkpt><trkpt lat="40.6610112299151" lon="16.112654776198926"><ele>620.0</ele><time>2026-04-26T08:18:03Z</time></trkpt><trkpt lat="40.66106283799549" lon="16.11259788811615"><ele>620.0</ele><time>2026-04-26T08:18:05Z</time></trkpt><trkpt lat="40.66111147515696" lon="16.11251402694073"><ele>620.0</ele><time>2026-04-26T08:18:07Z</time></trkpt><trkpt lat="40.66117482312047" lon="16.11239898288603"><ele>620.0</ele><time>2026-04-26T08:18:09Z</time></trkpt><trkpt lat="40.66123390783226" lon="16.112315113777264"><ele>620.0</ele><time>2026-04-26T08:18:12Z</time></trkpt><trkpt lat="40.66128703264412" lon="16.112232582776922"><ele>620.0</ele><time>2026-04-26T08:18:14Z</time></trkpt><trkpt lat="40.661353695819294" lon="16.11213983464833"><ele>620.0</ele><time>2026-04-26T08:18:16Z</time></trkpt><trkpt lat="40.661430862725936" lon="16.112063444885734"><ele>620.0</ele><time>2026-04-26T08:18:18Z</time></trkpt><trkpt lat="40.66149404589673" lon="16.112022559448803"><ele>620.0</ele><time>2026-04-26T08:18:20Z</time></trkpt><trkpt lat="40.66156615297002" lon="16.11196237711068"><ele>620.0</ele><time>2026-04-26T08:18:22Z</time></trkpt><trkpt lat="40.66166204206064" lon="16.11187272920883"><ele>620.0</ele><time>2026-04-26T08:18:24Z</time></trkpt><trkpt lat="40.66174065402592" lon="16.111794832064675"><ele>620.0</ele><time>2026-04-26T08:18:26Z</time></trkpt><trkpt lat="40.661834698397584" lon="16.111722390681248"><ele>620.0</ele><time>2026-04-26T08:18:28Z</time></trkpt><trkpt lat="40.66188847471588" lon="16.111675995096746"><ele>620.0</ele><time>2026-04-26T08:18:29Z</time></trkpt><trkpt lat="40.66199233799579" lon="16.1115744408101"><ele>620.0</ele><time>2026-04-26T08:18:31Z</time></trkpt><trkpt lat="40.66204868741144" lon="16.111507661690844"><ele>620.0</ele><time>2026-04-26T08:18:32Z</time></trkpt><trkpt lat="40.66210750231937" lon="16.11145582850453"><ele>620.0</ele><time>2026-04-26T08:18:33Z</time></trkpt><trkpt lat="40.66217267716455" lon="16.111382965738066"><ele>620.0</ele><time>2026-04-26T08:18:34Z</time></trkpt><trkpt lat="40.66222172296145" lon="16.111326599888237"><ele>618.8333333333333</ele><time>2026-04-26T08:18:35Z</time></trkpt><trkpt lat="40.662289402049964" lon="16.11127562505641"><ele>617.6666666666666</ele><time>2026-04-26T08:18:36Z</time></trkpt><trkpt lat="40.66237297929398" lon="16.111235324990986"><ele>616.5</ele><time>2026-04-26T08:18:37Z</time></trkpt><trkpt lat="40.662453193920506" lon="16.111190205067043"><ele>615.3333333333334</ele><time>2026-04-26T08:18:38Z</time></trkpt><trkpt lat="40.66251697117549" lon="16.111147036196257"><ele>614.1666666666667</ele><time>2026-04-26T08:18:39Z</time></trkpt><trkpt lat="40.66260088408443" lon="16.111084228861056"><ele>613.0</ele><time>2026-04-26T08:18:40Z</time></trkpt><trkpt lat="40.66268886611942" lon="16.111034181897555"><ele>613.0</ele><time>2026-04-26T08:18:41Z</time></trkpt><trkpt lat="40.66277320413904" lon="16.11097342943842"><ele>613.0</ele><time>2026-04-26T08:18:42Z</time></trkpt><trkpt lat="40.662854001701724" lon="16.110913330873192"><ele>613.0</ele><time>2026-04-26T08:18:43Z</time></trkpt><trkpt lat="40.66291796423009" lon="16.110862150023323"><ele>613.0</ele><time>2026-04-26T08:18:44Z</time></trkpt><trkpt lat="40.662988313770924" lon="16.110810915990406"><ele>613.0</ele><time>2026-04-26T08:18:45Z</time></trkpt><trkpt lat="40.66305430094463" lon="16.110758688614553"><ele>613.0</ele><time>2026-04-26T08:18:46Z</time></trkpt><trkpt lat="40.66316284042765" lon="16.110671980258864"><ele>611.1666666666667</ele><time>2026-04-26T08:18:48Z</time></trkpt><trkpt lat="40.66322561149314" lon="16.110623267868984"><ele>609.3333333333334</ele><time>2026-04-26T08:18:49Z</time></trkpt><trkpt lat="40.663281172814315" lon="16.110578430329124"><ele>607.5</ele><time>2026-04-26T08:18:50Z</time></trkpt><trkpt lat="40.66332478032062" lon="16.110517198251316"><ele>605.6666666666666</ele><time>2026-04-26T08:18:51Z</time></trkpt><trkpt lat="40.66340548161837" lon="16.11040281649874"><ele>603.8333333333333</ele><time>2026-04-26T08:18:53Z</time></trkpt><trkpt lat="40.663448938612085" lon="16.110319755554634"><ele>602.0</ele><time>2026-04-26T08:18:54Z</time></trkpt><trkpt lat="40.66349850720208" lon="16.11026599267387"><ele>602.0</ele><time>2026-04-26T08:18:55Z</time></trkpt><trkpt lat="40.66355292221113" lon="16.11021375089217"><ele>602.0</ele><time>2026-04-26T08:18:56Z</time></trkpt><trkpt lat="40.66361201039357" lon="16.110160353141616"><ele>602.0</ele><time>2026-04-26T08:18:57Z</time></trkpt><trkpt lat="40.663658673229456" lon="16.110097179083013"><ele>602.0</ele><time>2026-04-26T08:18:58Z</time></trkpt><trkpt lat="40.66369599662651" lon="16.11003031263259"><ele>602.0</ele><time>2026-04-26T08:18:59Z</time></trkpt><trkpt lat="40.663754804007866" lon="16.10993099175647"><ele>602.0</ele><time>2026-04-26T08:19:01Z</time></trkpt><trkpt lat="40.663839315394526" lon="16.10979706352088"><ele>599.0</ele><time>2026-04-26T08:19:03.001Z</time></trkpt><trkpt lat="40.66388849256454" lon="16.10971512709507"><ele>596.0</ele><time>2026-04-26T08:19:04.001Z</time></trkpt><trkpt lat="40.66394925683185" lon="16.10962034671794"><ele>593.0</ele><time>2026-04-26T08:19:05.001Z</time></trkpt><trkpt lat="40.664023367532586" lon="16.109517086144297"><ele>590.0</ele><time>2026-04-26T08:19:06.001Z</time></trkpt><trkpt lat="40.66407654785158" lon="16.109450288276552"><ele>587.0</ele><time>2026-04-26T08:19:07.001Z</time></trkpt><trkpt lat="40.66412455677874" lon="16.10935185870115"><ele>584.0</ele><time>2026-04-26T08:19:08.001Z</time></trkpt><trkpt lat="40.66416413263116" lon="16.109285923455463"><ele>584.0</ele><time>2026-04-26T08:19:09.001Z</time></trkpt><trkpt lat="40.66422872993317" lon="16.109154954040367"><ele>584.0</ele><time>2026-04-26T08:19:11.001Z</time></trkpt><trkpt lat="40.664291116462785" lon="16.109076050665493"><ele>584.0</ele><time>2026-04-26T08:19:13.001Z</time></trkpt><trkpt lat="40.664375826891636" lon="16.109044976435047"><ele>584.0</ele><time>2026-04-26T08:19:15.001Z</time></trkpt><trkpt lat="40.66444533637302" lon="16.10898594506251"><ele>584.0</ele><time>2026-04-26T08:19:17.001Z</time></trkpt><trkpt lat="40.66447910600766" lon="16.1088833303385"><ele>582.0</ele><time>2026-04-26T08:19:20.001Z</time></trkpt><trkpt lat="40.66454189004861" lon="16.108784083709004"><ele>580.0</ele><time>2026-04-26T08:19:23.001Z</time></trkpt><trkpt lat="40.66462251022193" lon="16.108691200098143"><ele>578.0</ele><time>2026-04-26T08:19:25Z</time></trkpt><trkpt lat="40.664678613693575" lon="16.10859826006285"><ele>576.0</ele><time>2026-04-26T08:19:26Z</time></trkpt><trkpt lat="40.664741592510524" lon="16.10853009464603"><ele>574.0</ele><time>2026-04-26T08:19:27Z</time></trkpt><trkpt lat="40.66479930874483" lon="16.1084556010355"><ele>574.0</ele><time>2026-04-26T08:19:28Z</time></trkpt><trkpt lat="40.66484418242502" lon="16.108392260653833"><ele>574.0</ele><time>2026-04-26T08:19:29Z</time></trkpt><trkpt lat="40.664896813193856" lon="16.108307287297336"><ele>574.0</ele><time>2026-04-26T08:19:30Z</time></trkpt><trkpt lat="40.664972408878576" lon="16.108189678509227"><ele>574.0</ele><time>2026-04-26T08:19:32Z</time></trkpt><trkpt lat="40.665007518082064" lon="16.108111066583884"><ele>574.0</ele><time>2026-04-26T08:19:33Z</time></trkpt><trkpt lat="40.6650784746227" lon="16.108005935943808"><ele>574.0</ele><time>2026-04-26T08:19:34Z</time></trkpt><trkpt lat="40.665129826367576" lon="16.107836746644992"><ele>573.8333333333334</ele><time>2026-04-26T08:19:35Z</time></trkpt><trkpt lat="40.66518161797543" lon="16.107748331356856"><ele>573.6666666666667</ele><time>2026-04-26T08:19:36Z</time></trkpt><trkpt lat="40.66523144989789" lon="16.107677001384936"><ele>573.5</ele><time>2026-04-26T08:19:37Z</time></trkpt><trkpt lat="40.66526774802031" lon="16.107592126051962"><ele>573.3333333333334</ele><time>2026-04-26T08:19:38Z</time></trkpt><trkpt lat="40.66529874679177" lon="16.107503594325706"><ele>573.1666666666666</ele><time>2026-04-26T08:19:39Z</time></trkpt><trkpt lat="40.66533572755108" lon="16.107374194791273"><ele>573.0</ele><time>2026-04-26T08:19:40Z</time></trkpt><trkpt lat="40.66536537463726" lon="16.107276157343428"><ele>570.3333333333334</ele><time>2026-04-26T08:19:41Z</time></trkpt><trkpt lat="40.66540571912131" lon="16.107135351966114"><ele>567.6666666666666</ele><time>2026-04-26T08:19:43Z</time></trkpt><trkpt lat="40.66539943426575" lon="16.107041568826915"><ele>565.0</ele><time>2026-04-26T08:19:44Z</time></trkpt><trkpt lat="40.665388629803445" lon="16.106959376047936"><ele>562.3333333333333</ele><time>2026-04-26T08:19:45Z</time></trkpt><trkpt lat="40.66536460897913" lon="16.10687051996037"><ele>559.6666666666666</ele><time>2026-04-26T08:19:46Z</time></trkpt><trkpt lat="40.665328109505666" lon="16.10679862483303"><ele>557.0</ele><time>2026-04-26T08:19:48Z</time></trkpt><trkpt lat="40.665347332307086" lon="16.106674515558158"><ele>557.0</ele><time>2026-04-26T08:19:51Z</time></trkpt><trkpt lat="40.66542875838925" lon="16.10667420585015"><ele>557.0</ele><time>2026-04-26T08:19:57Z</time></trkpt><trkpt lat="40.665471634622186" lon="16.10658177742"><ele>557.0</ele><time>2026-04-26T08:20:00Z</time></trkpt><trkpt lat="40.66550123795035" lon="16.106494567244592"><ele>557.0</ele><time>2026-04-26T08:20:03Z</time></trkpt><trkpt lat="40.66552079281846" lon="16.10638048026096"><ele>557.0</ele><time>2026-04-26T08:20:16Z</time></trkpt><trkpt lat="40.66557820668416" lon="16.106235005035906"><ele>557.0</ele><time>2026-04-26T08:20:18Z</time></trkpt><trkpt lat="40.66560460005497" lon="16.10615664003223"><ele>556.6666666666666</ele><time>2026-04-26T08:20:19Z</time></trkpt><trkpt lat="40.66562810223656" lon="16.10605395779803"><ele>556.3333333333333</ele><time>2026-04-26T08:20:20Z</time></trkpt><trkpt lat="40.665655186690444" lon="16.105958722086786"><ele>556.0</ele><time>2026-04-26T08:20:21Z</time></trkpt><trkpt lat="40.66568701315675" lon="16.105863725543134"><ele>555.6666666666666</ele><time>2026-04-26T08:20:22Z</time></trkpt><trkpt lat="40.665728039159404" lon="16.105752929184955"><ele>555.3333333333334</ele><time>2026-04-26T08:20:23Z</time></trkpt><trkpt lat="40.66576819014518" lon="16.1056474917878"><ele>555.0</ele><time>2026-04-26T08:20:24Z</time></trkpt><trkpt lat="40.66579218226957" lon="16.10556509210214"><ele>554.3333333333334</ele><time>2026-04-26T08:20:25Z</time></trkpt><trkpt lat="40.66580892810363" lon="16.105465486827054"><ele>553.6666666666666</ele><time>2026-04-26T08:20:26Z</time></trkpt><trkpt lat="40.6658195373537" lon="16.10535397532524"><ele>553.0</ele><time>2026-04-26T08:20:27Z</time></trkpt><trkpt lat="40.66582146449388" lon="16.1052398280129"><ele>552.3333333333333</ele><time>2026-04-26T08:20:28Z</time></trkpt><trkpt lat="40.66583527108753" lon="16.10511532599073"><ele>551.6666666666666</ele><time>2026-04-26T08:20:29Z</time></trkpt><trkpt lat="40.665839375019964" lon="16.10501049861222"><ele>551.0</ele><time>2026-04-26T08:20:30Z</time></trkpt><trkpt lat="40.66588492669771" lon="16.104917810442153"><ele>550.8333333333333</ele><time>2026-04-26T08:20:31Z</time></trkpt><trkpt lat="40.665930935772934" lon="16.10482994368191"><ele>550.6666666666666</ele><time>2026-04-26T08:20:32Z</time></trkpt><trkpt lat="40.66597544623972" lon="16.104713399925327"><ele>550.5</ele><time>2026-04-26T08:20:33Z</time></trkpt><trkpt lat="40.6660175350241" lon="16.104612020006787"><ele>550.3333333333334</ele><time>2026-04-26T08:20:34Z</time></trkpt><trkpt lat="40.666049581322795" lon="16.10449987002432"><ele>550.1666666666667</ele><time>2026-04-26T08:20:35Z</time></trkpt><trkpt lat="40.66608952688733" lon="16.104418860165868"><ele>550.0</ele><time>2026-04-26T08:20:36Z</time></trkpt><trkpt lat="40.666132828060164" lon="16.10433858994654"><ele>548.8333333333334</ele><time>2026-04-26T08:20:37Z</time></trkpt><trkpt lat="40.666174121250386" lon="16.10426603337815"><ele>547.6666666666667</ele><time>2026-04-26T08:20:38Z</time></trkpt><trkpt lat="40.66621176319466" lon="16.104162858409648"><ele>546.5</ele><time>2026-04-26T08:20:40Z</time></trkpt><trkpt lat="40.666263232031675" lon="16.10407220764022"><ele>545.3333333333334</ele><time>2026-04-26T08:20:43Z</time></trkpt><trkpt lat="40.66630998015069" lon="16.10399226723371"><ele>544.1666666666666</ele><time>2026-04-26T08:20:45Z</time></trkpt><trkpt lat="40.66635942167942" lon="16.103891079597044"><ele>543.0</ele><time>2026-04-26T08:20:47Z</time></trkpt><trkpt lat="40.66640084055113" lon="16.10379875338389"><ele>543.0</ele><time>2026-04-26T08:20:50Z</time></trkpt><trkpt lat="40.66642518843819" lon="16.10370677765173"><ele>543.0</ele><time>2026-04-26T08:20:52Z</time></trkpt><trkpt lat="40.66658070671123" lon="16.103347949323595"><ele>543.0</ele><time>2026-04-26T08:20:54Z</time></trkpt><trkpt lat="40.66660441325147" lon="16.103245332226095"><ele>542.4</ele><time>2026-04-26T08:20:55Z</time></trkpt><trkpt lat="40.666635074991554" lon="16.103116443381232"><ele>541.8</ele><time>2026-04-26T08:20:56Z</time></trkpt><trkpt lat="40.66665742739506" lon="16.103004848775246"><ele>541.2</ele><time>2026-04-26T08:20:57Z</time></trkpt><trkpt lat="40.66666450812009" lon="16.102913003636083"><ele>540.6</ele><time>2026-04-26T08:20:58Z</time></trkpt><trkpt lat="40.66670180099693" lon="16.10274379788182"><ele>540.0</ele><time>2026-04-26T08:21:00Z</time></trkpt><trkpt lat="40.66671980703885" lon="16.102646992550124"><ele>540.0</ele><time>2026-04-26T08:21:01Z</time></trkpt><trkpt lat="40.66673957843022" lon="16.10254383767055"><ele>540.0</ele><time>2026-04-26T08:21:02Z</time></trkpt><trkpt lat="40.666744357146435" lon="16.102450392598747"><ele>540.0</ele><time>2026-04-26T08:21:03Z</time></trkpt><trkpt lat="40.66676368831163" lon="16.102355092822222"><ele>540.0</ele><time>2026-04-26T08:21:04Z</time></trkpt><trkpt lat="40.666783996404774" lon="16.102260505714604"><ele>540.0</ele><time>2026-04-26T08:21:05Z</time></trkpt><trkpt lat="40.66682002134463" lon="16.10218525975904"><ele>540.0</ele><time>2026-04-26T08:21:06Z</time></trkpt><trkpt lat="40.66687774578041" lon="16.102054177578196"><ele>539.0</ele><time>2026-04-26T08:21:08Z</time></trkpt><trkpt lat="40.66692011065044" lon="16.101962392793805"><ele>538.0</ele><time>2026-04-26T08:21:09Z</time></trkpt><trkpt lat="40.66696429074582" lon="16.101897267435714"><ele>537.0</ele><time>2026-04-26T08:21:10Z</time></trkpt><trkpt lat="40.667023383214385" lon="16.101864655106795"><ele>536.0</ele><time>2026-04-26T08:21:11Z</time></trkpt><trkpt lat="40.66708134691166" lon="16.10174843663861"><ele>535.0</ele><time>2026-04-26T08:21:13Z</time></trkpt><trkpt lat="40.66715147487476" lon="16.10164169155435"><ele>534.0</ele><time>2026-04-26T08:21:15Z</time></trkpt><trkpt lat="40.66717053766757" lon="16.1017607743881"><ele>531.6</ele><time>2026-04-26T08:21:18Z</time></trkpt><trkpt lat="40.66725261859914" lon="16.101843657315193"><ele>529.2</ele><time>2026-04-26T08:21:22Z</time></trkpt><trkpt lat="40.66730737460684" lon="16.101907795344967"><ele>526.8000000000001</ele><time>2026-04-26T08:21:25Z</time></trkpt><trkpt lat="40.66737626187906" lon="16.101999506030875"><ele>524.4</ele><time>2026-04-26T08:21:27Z</time></trkpt><trkpt lat="40.667448760807275" lon="16.102088423754537"><ele>522.0</ele><time>2026-04-26T08:21:28Z</time></trkpt><trkpt lat="40.66754742392222" lon="16.102193986990088"><ele>522.0</ele><time>2026-04-26T08:21:29Z</time></trkpt><trkpt lat="40.667612919395566" lon="16.102278664476163"><ele>522.0</ele><time>2026-04-26T08:21:30Z</time></trkpt><trkpt lat="40.66766812873742" lon="16.10233589804727"><ele>522.0</ele><time>2026-04-26T08:21:31Z</time></trkpt><trkpt lat="40.66772332916324" lon="16.102393592749195"><ele>522.0</ele><time>2026-04-26T08:21:32Z</time></trkpt><trkpt lat="40.66778158788831" lon="16.102441435831896"><ele>522.0</ele><time>2026-04-26T08:21:33Z</time></trkpt><trkpt lat="40.66783953869542" lon="16.102514159556037"><ele>522.0</ele><time>2026-04-26T08:21:34Z</time></trkpt><trkpt lat="40.66789906110548" lon="16.102582405656296"><ele>521.2</ele><time>2026-04-26T08:21:35Z</time></trkpt><trkpt lat="40.667960764376424" lon="16.102649452819104"><ele>520.4000000000001</ele><time>2026-04-26T08:21:36Z</time></trkpt><trkpt lat="40.66803849076704" lon="16.102739902511818"><ele>519.5999999999999</ele><time>2026-04-26T08:21:38Z</time></trkpt><trkpt lat="40.668100044777965" lon="16.102817081213622"><ele>518.8</ele><time>2026-04-26T08:21:40Z</time></trkpt><trkpt lat="40.66817357572173" lon="16.10291534645907"><ele>518.0</ele><time>2026-04-26T08:21:42Z</time></trkpt><trkpt lat="40.66825618582785" lon="16.103006390546575"><ele>518.0</ele><time>2026-04-26T08:21:44Z</time></trkpt><trkpt lat="40.66834596657718" lon="16.103110244709335"><ele>518.0</ele><time>2026-04-26T08:21:46Z</time></trkpt><trkpt lat="40.668400546882715" lon="16.1031754305428"><ele>518.0</ele><time>2026-04-26T08:21:47Z</time></trkpt><trkpt lat="40.66847029156146" lon="16.1032875283467"><ele>518.0</ele><time>2026-04-26T08:21:49Z</time></trkpt><trkpt lat="40.66854573643289" lon="16.10338714726956"><ele>518.0</ele><time>2026-04-26T08:21:51Z</time></trkpt><trkpt lat="40.66860394676365" lon="16.103458939992056"><ele>514.0</ele><time>2026-04-26T08:21:52Z</time></trkpt><trkpt lat="40.66867215132352" lon="16.10351803786127"><ele>510.0</ele><time>2026-04-26T08:21:53Z</time></trkpt><trkpt lat="40.66874346652288" lon="16.103595394467384"><ele>506.0</ele><time>2026-04-26T08:21:54Z</time></trkpt><trkpt lat="40.66882522900801" lon="16.10367677144736"><ele>502.0</ele><time>2026-04-26T08:21:55Z</time></trkpt><trkpt lat="40.66888062179869" lon="16.1037394411071"><ele>497.99999999999994</ele><time>2026-04-26T08:21:56Z</time></trkpt><trkpt lat="40.66893216543435" lon="16.103797399330354"><ele>494.0</ele><time>2026-04-26T08:21:57Z</time></trkpt><trkpt lat="40.66899149136616" lon="16.103870152667785"><ele>494.0</ele><time>2026-04-26T08:21:58Z</time></trkpt><trkpt lat="40.66908095018373" lon="16.10396466177227"><ele>494.0</ele><time>2026-04-26T08:22:00Z</time></trkpt><trkpt lat="40.66916815125711" lon="16.10406300216628"><ele>494.0</ele><time>2026-04-26T08:22:02Z</time></trkpt><trkpt lat="40.66927338852014" lon="16.104151558864153"><ele>494.0</ele><time>2026-04-26T08:22:04Z</time></trkpt><trkpt lat="40.66935795797205" lon="16.104251967778207"><ele>490.66666666666663</ele><time>2026-04-26T08:22:06Z</time></trkpt><trkpt lat="40.66946567032386" lon="16.104281256496876"><ele>487.3333333333333</ele><time>2026-04-26T08:22:08Z</time></trkpt><trkpt lat="40.669512530402734" lon="16.104353746250727"><ele>484.0</ele><time>2026-04-26T08:22:09Z</time></trkpt><trkpt lat="40.66954861719514" lon="16.10442235740534"><ele>480.66666666666663</ele><time>2026-04-26T08:22:10Z</time></trkpt><trkpt lat="40.66958884549398" lon="16.10449128244398"><ele>477.3333333333333</ele><time>2026-04-26T08:22:11Z</time></trkpt><trkpt lat="40.669660110867234" lon="16.10455590003961"><ele>474.0</ele><time>2026-04-26T08:22:13Z</time></trkpt><trkpt lat="40.669732490610286" lon="16.10451323365675"><ele>473.99999999999994</ele><time>2026-04-26T08:22:16Z</time></trkpt><trkpt lat="40.66974710048012" lon="16.104386455065512"><ele>474.0</ele><time>2026-04-26T08:22:19Z</time></trkpt><trkpt lat="40.669774706342324" lon="16.10430686053437"><ele>473.99999999999994</ele><time>2026-04-26T08:22:21Z</time></trkpt><trkpt lat="40.66980304731874" lon="16.104216802435765"><ele>473.99999999999994</ele><time>2026-04-26T08:22:23Z</time></trkpt><trkpt lat="40.66982296821171" lon="16.10413671421024"><ele>474.0</ele><time>2026-04-26T08:22:24Z</time></trkpt><trkpt lat="40.66984242687346" lon="16.104057021805314"><ele>473.99999999999994</ele><time>2026-04-26T08:22:27Z</time></trkpt><trkpt lat="40.66987109029796" lon="16.103952616043824"><ele>473.99999999999994</ele><time>2026-04-26T08:22:29Z</time></trkpt><trkpt lat="40.669896653695744" lon="16.103872730456292"><ele>473.8333333333333</ele><time>2026-04-26T08:22:32Z</time></trkpt><trkpt lat="40.669943063344704" lon="16.103771709036497"><ele>473.66666666666663</ele><time>2026-04-26T08:22:34Z</time></trkpt><trkpt lat="40.66995578362479" lon="16.10367603252189"><ele>473.5</ele><time>2026-04-26T08:22:36Z</time></trkpt><trkpt lat="40.66997118197265" lon="16.103542734832065"><ele>473.3333333333333</ele><time>2026-04-26T08:22:40Z</time></trkpt><trkpt lat="40.66996452090712" lon="16.103458384743135"><ele>473.16666666666663</ele><time>2026-04-26T08:22:42Z</time></trkpt><trkpt lat="40.669931262200215" lon="16.103376390307364"><ele>473.0</ele><time>2026-04-26T08:22:46Z</time></trkpt><trkpt lat="40.670063867800145" lon="16.103354537146455"><ele>472.99999999999994</ele><time>2026-04-26T08:22:52Z</time></trkpt><trkpt lat="40.67012947899415" lon="16.10329941032003"><ele>473.0</ele><time>2026-04-26T08:22:54Z</time></trkpt><trkpt lat="40.67019789275846" lon="16.103231291093643"><ele>473.0</ele><time>2026-04-26T08:22:56Z</time></trkpt><trkpt lat="40.670254550817944" lon="16.103167282110068"><ele>473.0</ele><time>2026-04-26T08:22:58Z</time></trkpt><trkpt lat="40.670340684203154" lon="16.1031924502153"><ele>472.99999999999994</ele><time>2026-04-26T08:23:02Z</time></trkpt><trkpt lat="40.670409644848974" lon="16.103190364311175"><ele>473.0</ele><time>2026-04-26T08:23:04Z</time></trkpt><trkpt lat="40.670464768483896" lon="16.103143772797342"><ele>470.8333333333333</ele><time>2026-04-26T08:23:06Z</time></trkpt><trkpt lat="40.67052956923173" lon="16.103154175339903"><ele>468.66666666666663</ele><time>2026-04-26T08:23:08Z</time></trkpt><trkpt lat="40.670588159031354" lon="16.10311298519963"><ele>466.5</ele><time>2026-04-26T08:23:12Z</time></trkpt><trkpt lat="40.67060693352322" lon="16.10302955441929"><ele>464.33333333333337</ele><time>2026-04-26T08:23:15Z</time></trkpt><trkpt lat="40.670607812670916" lon="16.102944322442333"><ele>462.1666666666667</ele><time>2026-04-26T08:23:18Z</time></trkpt><trkpt lat="40.67067592422742" lon="16.10288151481102"><ele>460.0</ele><time>2026-04-26T08:23:21Z</time></trkpt><trkpt lat="40.67076894466123" lon="16.102810935937793"><ele>459.99999999999994</ele><time>2026-04-26T08:23:25Z</time></trkpt><trkpt lat="40.6708163351422" lon="16.10274452316751"><ele>460.0</ele><time>2026-04-26T08:23:28Z</time></trkpt><trkpt lat="40.670867792117356" lon="16.10266902936865"><ele>459.99999999999994</ele><time>2026-04-26T08:23:30Z</time></trkpt><trkpt lat="40.67094327113224" lon="16.10268530931077"><ele>459.99999999999994</ele><time>2026-04-26T08:23:32Z</time></trkpt><trkpt lat="40.671000399388966" lon="16.10259366634555"><ele>460.0</ele><time>2026-04-26T08:23:35Z</time></trkpt><trkpt lat="40.67106500961126" lon="16.10257708553613"><ele>459.99999999999994</ele><time>2026-04-26T08:23:46Z</time></trkpt><trkpt lat="40.67112448176185" lon="16.102624018601333"><ele>459.99999999999994</ele><time>2026-04-26T08:23:51Z</time></trkpt><trkpt lat="40.67109555784858" lon="16.102526274436187"><ele>460.00000000000006</ele><time>2026-04-26T08:24:10Z</time></trkpt><trkpt lat="40.67104033264197" lon="16.102481950455623"><ele>460.0</ele><time>2026-04-26T08:24:13Z</time></trkpt><trkpt lat="40.6709824160579" lon="16.102429201716685"><ele>460.0</ele><time>2026-04-26T08:24:15Z</time></trkpt><trkpt lat="40.670898389643675" lon="16.102391891923837"><ele>460.0</ele><time>2026-04-26T08:24:17Z</time></trkpt><trkpt lat="40.67084842655337" lon="16.102295261085356"><ele>460.00000000000006</ele><time>2026-04-26T08:24:19Z</time></trkpt><trkpt lat="40.6707969754869" lon="16.102246144775624"><ele>460.0</ele><time>2026-04-26T08:24:21Z</time></trkpt><trkpt lat="40.670809816083235" lon="16.10214948494102"><ele>460.83333333333337</ele><time>2026-04-26T08:24:26Z</time></trkpt><trkpt lat="40.670789726779915" lon="16.102000373418473"><ele>461.6666666666667</ele><time>2026-04-26T08:24:28Z</time></trkpt><trkpt lat="40.670788825508474" lon="16.101855791852433"><ele>462.5</ele><time>2026-04-26T08:24:30Z</time></trkpt><trkpt lat="40.67080107684949" lon="16.101768028701347"><ele>463.33333333333337</ele><time>2026-04-26T08:24:31Z</time></trkpt><trkpt lat="40.67078993340065" lon="16.101662937465992"><ele>464.1666666666667</ele><time>2026-04-26T08:24:33Z</time></trkpt><trkpt lat="40.670771797079894" lon="16.10157236147814"><ele>465.0</ele><time>2026-04-26T08:24:34Z</time></trkpt><trkpt lat="40.670759441834555" lon="16.101436249944882"><ele>465.8333333333333</ele><time>2026-04-26T08:24:35Z</time></trkpt><trkpt lat="40.67073704704915" lon="16.10135561948266"><ele>466.66666666666663</ele><time>2026-04-26T08:24:36Z</time></trkpt><trkpt lat="40.670704509410726" lon="16.101272584830955"><ele>467.5</ele><time>2026-04-26T08:24:37Z</time></trkpt><trkpt lat="40.67066780980877" lon="16.101178779323146"><ele>468.3333333333333</ele><time>2026-04-26T08:24:38Z</time></trkpt><trkpt lat="40.67064832330108" lon="16.10109706972005"><ele>469.16666666666663</ele><time>2026-04-26T08:24:39Z</time></trkpt><trkpt lat="40.67057126318108" lon="16.100976553322624"><ele>470.0</ele><time>2026-04-26T08:24:41Z</time></trkpt><trkpt lat="40.670628486508754" lon="16.100941054025075"><ele>469.99999999999994</ele><time>2026-04-26T08:24:43Z</time></trkpt><trkpt lat="40.6707433608395" lon="16.100922801379863"><ele>470.0</ele><time>2026-04-26T08:24:45Z</time></trkpt><trkpt lat="40.67080999935803" lon="16.100831658351535"><ele>470.0</ele><time>2026-04-26T08:24:47Z</time></trkpt><trkpt lat="40.67087363236248" lon="16.100749948740383"><ele>470.0</ele><time>2026-04-26T08:24:49Z</time></trkpt><trkpt lat="40.67090848834892" lon="16.100650751119947"><ele>469.99999999999994</ele><time>2026-04-26T08:24:51Z</time></trkpt><trkpt lat="40.67097249380218" lon="16.100631240250266"><ele>470.0</ele><time>2026-04-26T08:24:56Z</time></trkpt><trkpt lat="40.671036422787886" lon="16.10068102649534"><ele>467.75</ele><time>2026-04-26T08:25:01Z</time></trkpt><trkpt lat="40.67109352335808" lon="16.100725188351515"><ele>465.5</ele><time>2026-04-26T08:25:06Z</time></trkpt><trkpt lat="40.67133723327775" lon="16.100722973739817"><ele>463.25</ele><time>2026-04-26T08:25:16Z</time></trkpt><trkpt lat="40.67138593978116" lon="16.100639986133356"><ele>461.0</ele><time>2026-04-26T08:25:18Z</time></trkpt><trkpt lat="40.671427826603534" lon="16.100562229909762"><ele>458.20000000000005</ele><time>2026-04-26T08:25:20Z</time></trkpt><trkpt lat="40.67137176923152" lon="16.100304041886087"><ele>455.40000000000003</ele><time>2026-04-26T08:25:29Z</time></trkpt><trkpt lat="40.67143165962402" lon="16.10021829309978"><ele>452.6</ele><time>2026-04-26T08:25:33Z</time></trkpt><trkpt lat="40.67141409823246" lon="16.10012080626253"><ele>449.8</ele><time>2026-04-26T08:25:37Z</time></trkpt><trkpt lat="40.67142468691301" lon="16.100025194214982"><ele>447.0</ele><time>2026-04-26T08:25:41Z</time></trkpt><trkpt lat="40.67132765152128" lon="16.09996050777538"><ele>446.1666666666667</ele><time>2026-04-26T08:25:43Z</time></trkpt><trkpt lat="40.67126848507538" lon="16.099891568264432"><ele>445.33333333333337</ele><time>2026-04-26T08:25:45Z</time></trkpt><trkpt lat="40.6712857390867" lon="16.099783630355915"><ele>444.5</ele><time>2026-04-26T08:25:48Z</time></trkpt><trkpt lat="40.67128765842191" lon="16.099664242882103"><ele>443.6666666666667</ele><time>2026-04-26T08:25:51Z</time></trkpt><trkpt lat="40.67137053388009" lon="16.099654954110772"><ele>442.83333333333337</ele><time>2026-04-26T08:25:55Z</time></trkpt><trkpt lat="40.671398471792564" lon="16.099751374689337"><ele>442.0</ele><time>2026-04-26T08:25:58Z</time></trkpt><trkpt lat="40.67143546915005" lon="16.09982337183168"><ele>442.00000000000006</ele><time>2026-04-26T08:26:01Z</time></trkpt><trkpt lat="40.671509835546274" lon="16.099877100211128"><ele>442.0</ele><time>2026-04-26T08:26:05Z</time></trkpt><trkpt lat="40.671580257765896" lon="16.099958098278556"><ele>442.0</ele><time>2026-04-26T08:26:07Z</time></trkpt><trkpt lat="40.67166556708359" lon="16.099938784673085"><ele>442.0</ele><time>2026-04-26T08:26:09Z</time></trkpt><trkpt lat="40.67173000877413" lon="16.09994161317908"><ele>442.00000000000006</ele><time>2026-04-26T08:26:13Z</time></trkpt><trkpt lat="40.67179568544941" lon="16.099993146466225"><ele>442.0</ele><time>2026-04-26T08:26:15Z</time></trkpt><trkpt lat="40.671895419766564" lon="16.099934665280806"><ele>439.33333333333337</ele><time>2026-04-26T08:26:19Z</time></trkpt><trkpt lat="40.6719714884996" lon="16.09999787876202"><ele>436.6666666666667</ele><time>2026-04-26T08:26:22Z</time></trkpt><trkpt lat="40.672033704082814" lon="16.100064762996563"><ele>434.0</ele><time>2026-04-26T08:26:25Z</time></trkpt><trkpt lat="40.67210121947595" lon="16.10008725812321"><ele>431.33333333333337</ele><time>2026-04-26T08:26:27Z</time></trkpt><trkpt lat="40.67216981063232" lon="16.100140233994384"><ele>428.6666666666667</ele><time>2026-04-26T08:26:31Z</time></trkpt><trkpt lat="40.67224818207535" lon="16.100239927521788"><ele>426.0</ele><time>2026-04-26T08:26:35Z</time></trkpt><trkpt lat="40.67232372381496" lon="16.100293963137695"><ele>426.0</ele><time>2026-04-26T08:26:38Z</time></trkpt><trkpt lat="40.67240301181711" lon="16.100348831735065"><ele>426.0</ele><time>2026-04-26T08:26:40Z</time></trkpt><trkpt lat="40.67246422507661" lon="16.1003753550502"><ele>426.0</ele><time>2026-04-26T08:26:44Z</time></trkpt><trkpt lat="40.672519588098446" lon="16.10041498726052"><ele>426.0</ele><time>2026-04-26T08:26:48Z</time></trkpt><trkpt lat="40.67258740415625" lon="16.10049353436615"><ele>426.0</ele><time>2026-04-26T08:26:52Z</time></trkpt><trkpt lat="40.67263817916805" lon="16.100584577693073"><ele>426.0</ele><time>2026-04-26T08:26:56Z</time></trkpt><trkpt lat="40.67266188042115" lon="16.100674811780788"><ele>425.8</ele><time>2026-04-26T08:26:59Z</time></trkpt><trkpt lat="40.6728004583652" lon="16.100623755865016"><ele>425.6</ele><time>2026-04-26T08:27:29Z</time></trkpt><trkpt lat="40.672820617316795" lon="16.100504183748956"><ele>425.4</ele><time>2026-04-26T08:27:32Z</time></trkpt><trkpt lat="40.67281506198082" lon="16.10039379064992"><ele>425.2</ele><time>2026-04-26T08:27:35Z</time></trkpt><trkpt lat="40.67280556108282" lon="16.100304380798192"><ele>425.0</ele><time>2026-04-26T08:27:38Z</time></trkpt><trkpt lat="40.67284837289925" lon="16.100208470477455"><ele>424.99999999999994</ele><time>2026-04-26T08:28:41Z</time></trkpt><trkpt lat="40.67291026587955" lon="16.100123462122035"><ele>425.0</ele><time>2026-04-26T08:28:44Z</time></trkpt><trkpt lat="40.67292041417501" lon="16.10003136408352"><ele>425.0</ele><time>2026-04-26T08:28:47Z</time></trkpt><trkpt lat="40.67284038588142" lon="16.099979465112916"><ele>425.0</ele><time>2026-04-26T08:28:49Z</time></trkpt><trkpt lat="40.672801939237516" lon="16.099902248707934"><ele>424.99999999999994</ele><time>2026-04-26T08:28:52Z</time></trkpt><trkpt lat="40.67277930152244" lon="16.09978833194438"><ele>425.0</ele><time>2026-04-26T08:28:57Z</time></trkpt><trkpt lat="40.67272974731136" lon="16.099690870924913"><ele>425.3333333333333</ele><time>2026-04-26T08:28:59Z</time></trkpt><trkpt lat="40.67274023946" lon="16.09959138628078"><ele>425.66666666666663</ele><time>2026-04-26T08:29:04Z</time></trkpt><trkpt lat="40.67275819998565" lon="16.09949047362536"><ele>426.0</ele><time>2026-04-26T08:29:06Z</time></trkpt><trkpt lat="40.67271258190405" lon="16.099406809387656"><ele>426.33333333333337</ele><time>2026-04-26T08:29:09Z</time></trkpt><trkpt lat="40.672647285937344" lon="16.099396123204965"><ele>426.6666666666667</ele><time>2026-04-26T08:29:11Z</time></trkpt><trkpt lat="40.672552263443755" lon="16.099372190047507"><ele>427.0</ele><time>2026-04-26T08:29:15Z</time></trkpt><trkpt lat="40.672484218831656" lon="16.09929452852045"><ele>427.0</ele><time>2026-04-26T08:29:18Z</time></trkpt><trkpt lat="40.67245381430118" lon="16.09919240712189"><ele>427.0</ele><time>2026-04-26T08:29:22Z</time></trkpt><trkpt lat="40.6723845466933" lon="16.099173486462803"><ele>427.0</ele><time>2026-04-26T08:29:24Z</time></trkpt><trkpt lat="40.67231741046523" lon="16.09915933054482"><ele>427.0</ele><time>2026-04-26T08:29:42Z</time></trkpt><trkpt lat="40.6722482026432" lon="16.099126518714495"><ele>427.0</ele><time>2026-04-26T08:29:46Z</time></trkpt><trkpt lat="40.67218608900414" lon="16.099075277113158"><ele>427.0</ele><time>2026-04-26T08:29:49Z</time></trkpt><trkpt lat="40.672161789172655" lon="16.098985546903315"><ele>427.0</ele><time>2026-04-26T08:29:52Z</time></trkpt><trkpt lat="40.67208024572046" lon="16.098944257526274"><ele>427.0</ele><time>2026-04-26T08:29:55Z</time></trkpt><trkpt lat="40.672015382784444" lon="16.098948610138052"><ele>427.0</ele><time>2026-04-26T08:29:57Z</time></trkpt><trkpt lat="40.67201497091183" lon="16.099031980194585"><ele>427.0</ele><time>2026-04-26T08:30:00Z</time></trkpt><trkpt lat="40.67197181997204" lon="16.099096115118215"><ele>427.0</ele><time>2026-04-26T08:30:03Z</time></trkpt><trkpt lat="40.6719172495613" lon="16.09914396396316"><ele>427.0</ele><time>2026-04-26T08:30:07Z</time></trkpt><trkpt lat="40.671821822206006" lon="16.099121521887046"><ele>427.0</ele><time>2026-04-26T08:30:09Z</time></trkpt><trkpt lat="40.6717360090497" lon="16.099072360157045"><ele>427.0</ele><time>2026-04-26T08:30:15Z</time></trkpt><trkpt lat="40.67164795264944" lon="16.099084169871503"><ele>428.33333333333337</ele><time>2026-04-26T08:30:17Z</time></trkpt><trkpt lat="40.67158084762726" lon="16.0990973042325"><ele>429.6666666666667</ele><time>2026-04-26T08:30:19Z</time></trkpt><trkpt lat="40.67149055584186" lon="16.09911830300386"><ele>431.0</ele><time>2026-04-26T08:30:21Z</time></trkpt><trkpt lat="40.67139898381464" lon="16.09907521631323"><ele>432.33333333333337</ele><time>2026-04-26T08:30:23Z</time></trkpt><trkpt lat="40.671334804046325" lon="16.09910977447538"><ele>433.6666666666667</ele><time>2026-04-26T08:30:25Z</time></trkpt><trkpt lat="40.671273684443776" lon="16.099048865678768"><ele>435.0</ele><time>2026-04-26T08:30:29Z</time></trkpt><trkpt lat="40.671226071412754" lon="16.098961458357927"><ele>435.00000000000006</ele><time>2026-04-26T08:30:32Z</time></trkpt><trkpt lat="40.67115196363801" lon="16.09894732515747"><ele>435.0</ele><time>2026-04-26T08:30:33Z</time></trkpt><trkpt lat="40.671082869508716" lon="16.098972546930842"><ele>435.0</ele><time>2026-04-26T08:30:35Z</time></trkpt><trkpt lat="40.67100440819419" lon="16.098964146681176"><ele>435.0</ele><time>2026-04-26T08:30:39Z</time></trkpt><trkpt lat="40.67092702531609" lon="16.098927859800423"><ele>435.0</ele><time>2026-04-26T08:30:44Z</time></trkpt><trkpt lat="40.67086294937252" lon="16.098904222770305"><ele>435.00000000000006</ele><time>2026-04-26T08:30:46Z</time></trkpt><trkpt lat="40.670859399731384" lon="16.09881490467128"><ele>435.0</ele><time>2026-04-26T08:30:50Z</time></trkpt><trkpt lat="40.67084877439777" lon="16.0987252515335"><ele>437.0</ele><time>2026-04-26T08:30:52Z</time></trkpt><trkpt lat="40.67077729828308" lon="16.098675415092607"><ele>439.0</ele><time>2026-04-26T08:30:54Z</time></trkpt><trkpt lat="40.670719323226784" lon="16.098626687192112"><ele>441.0</ele><time>2026-04-26T08:30:56Z</time></trkpt><trkpt lat="40.6707825036892" lon="16.098507531794386"><ele>443.0</ele><time>2026-04-26T08:30:59Z</time></trkpt><trkpt lat="40.67079562072355" lon="16.098423778780994"><ele>445.0</ele><time>2026-04-26T08:31:01Z</time></trkpt><trkpt lat="40.67085161388164" lon="16.098383726203163"><ele>447.0</ele><time>2026-04-26T08:31:04Z</time></trkpt><trkpt lat="40.67084384363122" lon="16.098278966620573"><ele>446.3333333333333</ele><time>2026-04-26T08:31:06Z</time></trkpt><trkpt lat="40.67084936350943" lon="16.098192823581854"><ele>445.66666666666663</ele><time>2026-04-26T08:31:08Z</time></trkpt><trkpt lat="40.670778505362385" lon="16.098150049985914"><ele>445.0</ele><time>2026-04-26T08:31:10Z</time></trkpt><trkpt lat="40.67066601936987" lon="16.09806885410417"><ele>444.3333333333333</ele><time>2026-04-26T08:31:17Z</time></trkpt><trkpt lat="40.670647692922145" lon="16.097974202929134"><ele>443.66666666666663</ele><time>2026-04-26T08:31:21Z</time></trkpt><trkpt lat="40.67060698928867" lon="16.09786849154525"><ele>443.0</ele><time>2026-04-26T08:31:24Z</time></trkpt><trkpt lat="40.670616864295745" lon="16.097757720098553"><ele>442.99999999999994</ele><time>2026-04-26T08:31:26Z</time></trkpt><trkpt lat="40.670579359709656" lon="16.097646650311315"><ele>443.0</ele><time>2026-04-26T08:31:28Z</time></trkpt><trkpt lat="40.67058058549941" lon="16.097546665528956"><ele>443.0</ele><time>2026-04-26T08:31:33Z</time></trkpt><trkpt lat="40.67058505142316" lon="16.097430674809402"><ele>443.0</ele><time>2026-04-26T08:31:36Z</time></trkpt><trkpt lat="40.670607410187515" lon="16.0973275965329"><ele>442.99999999999994</ele><time>2026-04-26T08:31:39Z</time></trkpt><trkpt lat="40.670665207486735" lon="16.097245902673897"><ele>443.0</ele><time>2026-04-26T08:31:50Z</time></trkpt><trkpt lat="40.67061203495822" lon="16.097177729012714"><ele>442.49999999999994</ele><time>2026-04-26T08:32:00Z</time></trkpt><trkpt lat="40.670512669473254" lon="16.097144663703844"><ele>442.0</ele><time>2026-04-26T08:32:02Z</time></trkpt><trkpt lat="40.670494969916625" lon="16.09704545508031"><ele>441.5</ele><time>2026-04-26T08:32:05Z</time></trkpt><trkpt lat="40.670463651542015" lon="16.096966467985215"><ele>441.0</ele><time>2026-04-26T08:32:07Z</time></trkpt><trkpt lat="40.67041191403751" lon="16.096911035324773"><ele>440.49999999999994</ele><time>2026-04-26T08:32:09Z</time></trkpt><trkpt lat="40.67033673890708" lon="16.096850074897816"><ele>440.0</ele><time>2026-04-26T08:32:12Z</time></trkpt><trkpt lat="40.6702646280901" lon="16.096818962389623"><ele>442.99999999999994</ele><time>2026-04-26T08:32:14Z</time></trkpt><trkpt lat="40.67019573545264" lon="16.09679084522792"><ele>446.0</ele><time>2026-04-26T08:32:15Z</time></trkpt><trkpt lat="40.670117242128285" lon="16.09671285020643"><ele>449.0</ele><time>2026-04-26T08:32:18Z</time></trkpt><trkpt lat="40.670043480619434" lon="16.0967341110455"><ele>452.0</ele><time>2026-04-26T08:32:21Z</time></trkpt><trkpt lat="40.66996795337647" lon="16.096808421606102"><ele>454.99999999999994</ele><time>2026-04-26T08:32:23Z</time></trkpt><trkpt lat="40.669866413642886" lon="16.096796263109955"><ele>458.0</ele><time>2026-04-26T08:32:25Z</time></trkpt><trkpt lat="40.669784866707545" lon="16.096792116736587"><ele>457.99999999999994</ele><time>2026-04-26T08:32:27Z</time></trkpt><trkpt lat="40.66968071006425" lon="16.096856369069876"><ele>458.0</ele><time>2026-04-26T08:32:29Z</time></trkpt><trkpt lat="40.6696203131105" lon="16.09691030239602"><ele>458.0</ele><time>2026-04-26T08:32:30Z</time></trkpt><trkpt lat="40.66957688933224" lon="16.096984231631197"><ele>458.0</ele><time>2026-04-26T08:32:31Z</time></trkpt><trkpt lat="40.669512441191074" lon="16.097039081038677"><ele>457.99999999999994</ele><time>2026-04-26T08:33:18Z</time></trkpt><trkpt lat="40.669451550827674" lon="16.096989573621553"><ele>458.0</ele><time>2026-04-26T08:33:21Z</time></trkpt><trkpt lat="40.66944037292751" lon="16.0967575696196"><ele>457.99999999999994</ele><time>2026-04-26T08:33:28Z</time></trkpt><trkpt lat="40.66949103660423" lon="16.0966621457259"><ele>458.0</ele><time>2026-04-26T08:33:31Z</time></trkpt><trkpt lat="40.66948837466326" lon="16.096542559446934"><ele>458.0</ele><time>2026-04-26T08:33:35Z</time></trkpt><trkpt lat="40.669484745201565" lon="16.096403499101342"><ele>458.0</ele><time>2026-04-26T08:33:37Z</time></trkpt><trkpt lat="40.669501396437106" lon="16.09631730111747"><ele>457.99999999999994</ele><time>2026-04-26T08:33:40Z</time></trkpt><trkpt lat="40.66946003641156" lon="16.09623929664702"><ele>458.0</ele><time>2026-04-26T08:33:42Z</time></trkpt><trkpt lat="40.66940573070199" lon="16.096183371694874"><ele>463.75</ele><time>2026-04-26T08:33:44Z</time></trkpt><trkpt lat="40.669310388005435" lon="16.096099386866022"><ele>469.5</ele><time>2026-04-26T08:33:46Z</time></trkpt><trkpt lat="40.66920070315619" lon="16.096048689167795"><ele>475.25</ele><time>2026-04-26T08:33:49Z</time></trkpt><trkpt lat="40.669129398913434" lon="16.0960887219256"><ele>481.0</ele><time>2026-04-26T08:33:51Z</time></trkpt><trkpt lat="40.66897151293498" lon="16.096064993862722"><ele>481.0</ele><time>2026-04-26T08:33:56Z</time></trkpt><trkpt lat="40.668843933032335" lon="16.096136187548684"><ele>481.0</ele><time>2026-04-26T08:33:58Z</time></trkpt><trkpt lat="40.66876229695606" lon="16.09617536515729"><ele>481.0</ele><time>2026-04-26T08:34:01Z</time></trkpt><trkpt lat="40.66868780214433" lon="16.09619754148288"><ele>481.0</ele><time>2026-04-26T08:34:03Z</time></trkpt><trkpt lat="40.66863386713718" lon="16.096256902716892"><ele>481.0</ele><time>2026-04-26T08:34:05Z</time></trkpt><trkpt lat="40.668565158650686" lon="16.09614831498492"><ele>485.00000000000006</ele><time>2026-04-26T08:34:08.999Z</time></trkpt><trkpt lat="40.668539908031576" lon="16.096062862168242"><ele>489.0</ele><time>2026-04-26T08:34:10.999Z</time></trkpt><trkpt lat="40.668516966167964" lon="16.0959749996489"><ele>493.0</ele><time>2026-04-26T08:34:12.999Z</time></trkpt><trkpt lat="40.66849867634759" lon="16.09589272985527"><ele>497.0</ele><time>2026-04-26T08:34:14.999Z</time></trkpt><trkpt lat="40.66841203699922" lon="16.09585061682462"><ele>501.00000000000006</ele><time>2026-04-26T08:34:16.999Z</time></trkpt><trkpt lat="40.668368728733405" lon="16.095769742739563"><ele>505.0</ele><time>2026-04-26T08:34:18.999Z</time></trkpt><trkpt lat="40.66826577298111" lon="16.09575301752316"><ele>505.00000000000006</ele><time>2026-04-26T08:34:21Z</time></trkpt><trkpt lat="40.6681892231659" lon="16.09570576722209"><ele>505.0</ele><time>2026-04-26T08:34:23Z</time></trkpt><trkpt lat="40.66810709677409" lon="16.095706241599224"><ele>505.0</ele><time>2026-04-26T08:34:25Z</time></trkpt><trkpt lat="40.66800270499652" lon="16.09572849457412"><ele>505.0</ele><time>2026-04-26T08:34:28Z</time></trkpt><trkpt lat="40.66793584052909" lon="16.095725803135913"><ele>505.00000000000006</ele><time>2026-04-26T08:34:30Z</time></trkpt><trkpt lat="40.667868642041704" lon="16.095771054806203"><ele>505.0</ele><time>2026-04-26T08:34:32Z</time></trkpt><trkpt lat="40.66781429936812" lon="16.095814318246923"><ele>505.83333333333337</ele><time>2026-04-26T08:34:33Z</time></trkpt><trkpt lat="40.66784345274674" lon="16.095953877847506"><ele>506.6666666666667</ele><time>2026-04-26T08:34:36Z</time></trkpt><trkpt lat="40.667783915314565" lon="16.095993404007935"><ele>507.5</ele><time>2026-04-26T08:34:40Z</time></trkpt><trkpt lat="40.66783635326741" lon="16.096055704013704"><ele>508.33333333333337</ele><time>2026-04-26T08:34:54Z</time></trkpt><trkpt lat="40.667838687234095" lon="16.096151758026505"><ele>509.1666666666667</ele><time>2026-04-26T08:34:57Z</time></trkpt><trkpt lat="40.66785482287452" lon="16.096277772915908"><ele>510.0</ele><time>2026-04-26T08:34:59Z</time></trkpt><trkpt lat="40.66789210082113" lon="16.09636690520371"><ele>510.0</ele><time>2026-04-26T08:35:01Z</time></trkpt><trkpt lat="40.66794880986446" lon="16.096453097870462"><ele>510.00000000000006</ele><time>2026-04-26T08:35:03Z</time></trkpt><trkpt lat="40.668011828172034" lon="16.096470979870983"><ele>510.0</ele><time>2026-04-26T08:35:04Z</time></trkpt><trkpt lat="40.66808031761537" lon="16.096483932127246"><ele>510.0</ele><time>2026-04-26T08:35:05Z</time></trkpt><trkpt lat="40.66814417232226" lon="16.096489784695457"><ele>510.00000000000006</ele><time>2026-04-26T08:35:06Z</time></trkpt><trkpt lat="40.66821815879975" lon="16.096528349247752"><ele>510.0</ele><time>2026-04-26T08:35:07Z</time></trkpt><trkpt lat="40.66828460945291" lon="16.09656286935872"><ele>510.0</ele><time>2026-04-26T08:35:08Z</time></trkpt><trkpt lat="40.668350285679985" lon="16.096598306035006"><ele>510.3333333333333</ele><time>2026-04-26T08:35:09Z</time></trkpt><trkpt lat="40.66839101550152" lon="16.09668459817984"><ele>510.66666666666663</ele><time>2026-04-26T08:35:11Z</time></trkpt><trkpt lat="40.66838659417182" lon="16.09684233932809"><ele>511.0</ele><time>2026-04-26T08:35:13Z</time></trkpt><trkpt lat="40.66837065098563" lon="16.096923271135246"><ele>511.3333333333333</ele><time>2026-04-26T08:35:14Z</time></trkpt><trkpt lat="40.66836594064582" lon="16.09700923504377"><ele>511.66666666666663</ele><time>2026-04-26T08:35:15Z</time></trkpt><trkpt lat="40.66835489415551" lon="16.097105018866426"><ele>512.0</ele><time>2026-04-26T08:35:16Z</time></trkpt><trkpt lat="40.66833648150252" lon="16.097197995764063"><ele>511.99999999999994</ele><time>2026-04-26T08:35:17Z</time></trkpt><trkpt lat="40.66828459488937" lon="16.0973252767173"><ele>512.0</ele><time>2026-04-26T08:35:19Z</time></trkpt><trkpt lat="40.66824604998682" lon="16.097406490950117"><ele>512.0</ele><time>2026-04-26T08:35:20Z</time></trkpt><trkpt lat="40.66823231802039" lon="16.09749971727934"><ele>512.0</ele><time>2026-04-26T08:35:21Z</time></trkpt><trkpt lat="40.668216206970044" lon="16.09758251426223"><ele>511.99999999999994</ele><time>2026-04-26T08:35:22Z</time></trkpt><trkpt lat="40.66819366082867" lon="16.097670436685874"><ele>512.0</ele><time>2026-04-26T08:35:24Z</time></trkpt><trkpt lat="40.668142004638234" lon="16.097719262598222"><ele>505.0</ele><time>2026-04-26T08:35:26Z</time></trkpt></trkseg><trkseg><trkpt lat="40.66426594578547" lon="16.099799951605714"><ele>600.0</ele><time>2026-04-26T08:39:45.001Z</time></trkpt><trkpt lat="40.66419694514809" lon="16.09979638705173"><ele>600.0</ele><time>2026-04-26T08:39:46.001Z</time></trkpt><trkpt lat="40.664076334081415" lon="16.0998307614215"><ele>600.0</ele><time>2026-04-26T08:39:48.001Z</time></trkpt><trkpt lat="40.664009357268604" lon="16.099854304773494"><ele>600.0</ele><time>2026-04-26T08:39:49.001Z</time></trkpt><trkpt lat="40.66389931856141" lon="16.099918578906344"><ele>600.0</ele><time>2026-04-26T08:39:51.001Z</time></trkpt><trkpt lat="40.663831039432345" lon="16.099966873636383"><ele>599.4</ele><time>2026-04-26T08:39:53.001Z</time></trkpt><trkpt lat="40.663749632384835" lon="16.10004427488238"><ele>598.8</ele><time>2026-04-26T08:39:55.001Z</time></trkpt><trkpt lat="40.66370608081149" lon="16.100170451724424"><ele>598.2</ele><time>2026-04-26T08:39:56.001Z</time></trkpt><trkpt lat="40.66367571879843" lon="16.100277547053828"><ele>597.6</ele><time>2026-04-26T08:39:57.001Z</time></trkpt><trkpt lat="40.66364384526784" lon="16.1003857831098"><ele>597.0</ele><time>2026-04-26T08:39:58.001Z</time></trkpt><trkpt lat="40.66360088733499" lon="16.10046714282546"><ele>599.8333333333334</ele><time>2026-04-26T08:39:59.001Z</time></trkpt><trkpt lat="40.663555962371234" lon="16.10055415983439"><ele>602.6666666666666</ele><time>2026-04-26T08:40:00.001Z</time></trkpt><trkpt lat="40.663502837563264" lon="16.100645822138087"><ele>605.5</ele><time>2026-04-26T08:40:01.001Z</time></trkpt><trkpt lat="40.66344297877873" lon="16.10072793160547"><ele>608.3333333333333</ele><time>2026-04-26T08:40:02.001Z</time></trkpt><trkpt lat="40.66338573642326" lon="16.10078886041022"><ele>611.1666666666666</ele><time>2026-04-26T08:40:03.001Z</time></trkpt><trkpt lat="40.663322377149036" lon="16.10082629582638"><ele>614.0</ele><time>2026-04-26T08:40:04.001Z</time></trkpt><trkpt lat="40.66326132893362" lon="16.100857942484062"><ele>614.0</ele><time>2026-04-26T08:40:05.001Z</time></trkpt><trkpt lat="40.66318356610204" lon="16.100782067269883"><ele>614.0</ele><time>2026-04-26T08:40:07.001Z</time></trkpt><trkpt lat="40.66311194700493" lon="16.100665861675797"><ele>614.0</ele><time>2026-04-26T08:40:09.001Z</time></trkpt><trkpt lat="40.663029474121956" lon="16.100551415556385"><ele>614.0</ele><time>2026-04-26T08:40:11.001Z</time></trkpt><trkpt lat="40.6629547854379" lon="16.10050239180631"><ele>614.0</ele><time>2026-04-26T08:40:12.001Z</time></trkpt><trkpt lat="40.66286243736942" lon="16.100473127999344"><ele>614.0</ele><time>2026-04-26T08:40:13.001Z</time></trkpt><trkpt lat="40.662793425985576" lon="16.100430856019415"><ele>614.0</ele><time>2026-04-26T08:40:14.001Z</time></trkpt><trkpt lat="40.66273055470015" lon="16.100396731114145"><ele>614.0</ele><time>2026-04-26T08:40:15.001Z</time></trkpt><trkpt lat="40.662682019867844" lon="16.100320016698394"><ele>614.0</ele><time>2026-04-26T08:40:16.001Z</time></trkpt><trkpt lat="40.66264454847632" lon="16.100235912838425"><ele>614.0</ele><time>2026-04-26T08:40:17.001Z</time></trkpt><trkpt lat="40.6626038143457" lon="16.100123908040693"><ele>614.0</ele><time>2026-04-26T08:40:18.001Z</time></trkpt><trkpt lat="40.66256123467914" lon="16.10005434476261"><ele>619.5</ele><time>2026-04-26T08:40:19.001Z</time></trkpt><trkpt lat="40.662440886419276" lon="16.099962682844133"><ele>625.0</ele><time>2026-04-26T08:40:21.001Z</time></trkpt><trkpt lat="40.6623792040704" lon="16.099933221207355"><ele>630.5</ele><time>2026-04-26T08:40:22.001Z</time></trkpt><trkpt lat="40.66231366236228" lon="16.09989717006929"><ele>636.0</ele><time>2026-04-26T08:40:23.001Z</time></trkpt><trkpt lat="40.66224859347035" lon="16.09990944969176"><ele>641.5</ele><time>2026-04-26T08:40:24Z</time></trkpt><trkpt lat="40.66218602305323" lon="16.099889342426756"><ele>647.0</ele><time>2026-04-26T08:40:25Z</time></trkpt><trkpt lat="40.66212057428721" lon="16.09988479388625"><ele>649.6</ele><time>2026-04-26T08:40:26Z</time></trkpt><trkpt lat="40.6619733351703" lon="16.099899934183963"><ele>652.2</ele><time>2026-04-26T08:40:28Z</time></trkpt><trkpt lat="40.661873674637796" lon="16.09995606268896"><ele>654.8</ele><time>2026-04-26T08:40:30Z</time></trkpt><trkpt lat="40.66179706702114" lon="16.10002896506267"><ele>657.4</ele><time>2026-04-26T08:40:31Z</time></trkpt><trkpt lat="40.66173705345175" lon="16.10009186230239"><ele>660.0</ele><time>2026-04-26T08:40:32Z</time></trkpt><trkpt lat="40.661679448881074" lon="16.100147709874637"><ele>663.4</ele><time>2026-04-26T08:40:33Z</time></trkpt><trkpt lat="40.66162787238569" lon="16.100218384261982"><ele>666.8</ele><time>2026-04-26T08:40:34Z</time></trkpt><trkpt lat="40.661556871232094" lon="16.100260709066628"><ele>670.2</ele><time>2026-04-26T08:40:35Z</time></trkpt><trkpt lat="40.6614542602457" lon="16.10025025165881"><ele>673.6</ele><time>2026-04-26T08:40:37Z</time></trkpt><trkpt lat="40.66146400866083" lon="16.100094192584443"><ele>677.0</ele><time>2026-04-26T08:40:39Z</time></trkpt><trkpt lat="40.66150866345227" lon="16.10001317107785"><ele>677.0</ele><time>2026-04-26T08:40:40Z</time></trkpt><trkpt lat="40.661555055266625" lon="16.099934086285835"><ele>677.0</ele><time>2026-04-26T08:40:41Z</time></trkpt><trkpt lat="40.66158384079229" lon="16.099774653259576"><ele>677.0</ele><time>2026-04-26T08:40:43Z</time></trkpt><trkpt lat="40.66158866265091" lon="16.099663463094323"><ele>677.0</ele><time>2026-04-26T08:40:45Z</time></trkpt><trkpt lat="40.661634647567595" lon="16.099601566594295"><ele>677.0</ele><time>2026-04-26T08:40:53Z</time></trkpt><trkpt lat="40.66170444370766" lon="16.09952995508555"><ele>677.0</ele><time>2026-04-26T08:40:57Z</time></trkpt><trkpt lat="40.66175477406262" lon="16.099478589469623"><ele>676.4000000000001</ele><time>2026-04-26T08:40:59Z</time></trkpt><trkpt lat="40.66179942572715" lon="16.099389016569706"><ele>675.8000000000001</ele><time>2026-04-26T08:41:01Z</time></trkpt><trkpt lat="40.6618397960622" lon="16.09931876779296"><ele>675.2</ele><time>2026-04-26T08:41:03Z</time></trkpt><trkpt lat="40.66190709988097" lon="16.09917635514414"><ele>674.6</ele><time>2026-04-26T08:41:05Z</time></trkpt><trkpt lat="40.66195628840111" lon="16.099099399923908"><ele>674.0</ele><time>2026-04-26T08:41:07Z</time></trkpt><trkpt lat="40.662101988772186" lon="16.099067922316358"><ele>674.0</ele><time>2026-04-26T08:41:14Z</time></trkpt><trkpt lat="40.66217984123191" lon="16.098998959032308"><ele>674.0</ele><time>2026-04-26T08:41:20Z</time></trkpt><trkpt lat="40.66223938425155" lon="16.098959761007748"><ele>674.0</ele><time>2026-04-26T08:41:21Z</time></trkpt><trkpt lat="40.66231257848992" lon="16.09890350135584"><ele>674.0</ele><time>2026-04-26T08:41:23Z</time></trkpt><trkpt lat="40.66237414848051" lon="16.09882921464392"><ele>674.0</ele><time>2026-04-26T08:41:27Z</time></trkpt><trkpt lat="40.66250388354658" lon="16.098808156447433"><ele>674.0</ele><time>2026-04-26T08:41:33Z</time></trkpt><trkpt lat="40.66257092450783" lon="16.098783478778763"><ele>674.0</ele><time>2026-04-26T08:41:35Z</time></trkpt><trkpt lat="40.662759289145214" lon="16.09873523463068"><ele>674.0</ele><time>2026-04-26T08:41:42Z</time></trkpt><trkpt lat="40.66283127854997" lon="16.098697321920373"><ele>674.0</ele><time>2026-04-26T08:41:44Z</time></trkpt><trkpt lat="40.66290458690592" lon="16.098709306739735"><ele>674.0</ele><time>2026-04-26T08:41:48Z</time></trkpt><trkpt lat="40.662959670926725" lon="16.09876850689992"><ele>667.8000000000001</ele><time>2026-04-26T08:41:52Z</time></trkpt><trkpt lat="40.663020012713254" lon="16.09881221208563"><ele>661.6</ele><time>2026-04-26T08:41:54Z</time></trkpt><trkpt lat="40.663098887562995" lon="16.098737992537792"><ele>655.4</ele><time>2026-04-26T08:41:57Z</time></trkpt><trkpt lat="40.66318884749519" lon="16.098631112701245"><ele>649.2</ele><time>2026-04-26T08:41:59Z</time></trkpt><trkpt lat="40.66324510570754" lon="16.09856632151803"><ele>643.0</ele><time>2026-04-26T08:42:02Z</time></trkpt><trkpt lat="40.663252112657894" lon="16.098441977336762"><ele>643.0</ele><time>2026-04-26T08:42:04Z</time></trkpt><trkpt lat="40.66325008704217" lon="16.098301898703482"><ele>643.0</ele><time>2026-04-26T08:42:07Z</time></trkpt><trkpt lat="40.663270031151775" lon="16.098218686834436"><ele>643.0</ele><time>2026-04-26T08:42:08Z</time></trkpt><trkpt lat="40.66341878895081" lon="16.098218327152075"><ele>643.0</ele><time>2026-04-26T08:42:14.001Z</time></trkpt><trkpt lat="40.66356514258149" lon="16.098204230206022"><ele>641.8333333333334</ele><time>2026-04-26T08:42:16.001Z</time></trkpt><trkpt lat="40.663600768657254" lon="16.09812008435027"><ele>640.6666666666667</ele><time>2026-04-26T08:42:18.001Z</time></trkpt><trkpt lat="40.663616311737044" lon="16.097996218352105"><ele>639.5</ele><time>2026-04-26T08:42:19.001Z</time></trkpt><trkpt lat="40.66357303660873" lon="16.097878423042484"><ele>638.3333333333334</ele><time>2026-04-26T08:42:20.001Z</time></trkpt><trkpt lat="40.66357810787017" lon="16.097788650349262"><ele>637.1666666666666</ele><time>2026-04-26T08:42:22.001Z</time></trkpt><trkpt lat="40.66366635004124" lon="16.097701531427592"><ele>636.0</ele><time>2026-04-26T08:42:24.001Z</time></trkpt><trkpt lat="40.663716966022136" lon="16.097595958552745"><ele>636.0</ele><time>2026-04-26T08:42:25.001Z</time></trkpt><trkpt lat="40.66376437677953" lon="16.09748285127888"><ele>636.0</ele><time>2026-04-26T08:42:26.001Z</time></trkpt><trkpt lat="40.66377247480988" lon="16.097363407402753"><ele>636.0</ele><time>2026-04-26T08:42:27.001Z</time></trkpt><trkpt lat="40.66370670662805" lon="16.09726742329908"><ele>636.0</ele><time>2026-04-26T08:42:29.001Z</time></trkpt><trkpt lat="40.66360587606661" lon="16.09727689833246"><ele>636.0</ele><time>2026-04-26T08:42:31Z</time></trkpt><trkpt lat="40.663668277449815" lon="16.09729391873427"><ele>637.8333333333334</ele><time>2026-04-26T08:42:34Z</time></trkpt><trkpt lat="40.663680451860635" lon="16.097206526834107"><ele>639.6666666666666</ele><time>2026-04-26T08:42:37Z</time></trkpt><trkpt lat="40.66374018954781" lon="16.097159020584606"><ele>641.5</ele><time>2026-04-26T08:42:40Z</time></trkpt><trkpt lat="40.66379286091569" lon="16.097099025247505"><ele>643.3333333333333</ele><time>2026-04-26T08:42:45Z</time></trkpt><trkpt lat="40.663745514920706" lon="16.096970500495946"><ele>645.1666666666666</ele><time>2026-04-26T08:42:48Z</time></trkpt><trkpt lat="40.6637855248677" lon="16.096891376090944"><ele>647.0</ele><time>2026-04-26T08:42:50Z</time></trkpt><trkpt lat="40.663813738401146" lon="16.09681709931366"><ele>647.0</ele><time>2026-04-26T08:42:52Z</time></trkpt><trkpt lat="40.66381151530932" lon="16.09669128110118"><ele>647.0</ele><time>2026-04-26T08:42:54Z</time></trkpt><trkpt lat="40.66380558190709" lon="16.09659149062891"><ele>647.0</ele><time>2026-04-26T08:42:57Z</time></trkpt><trkpt lat="40.66374289091009" lon="16.09650968120059"><ele>647.0</ele><time>2026-04-26T08:42:59Z</time></trkpt><trkpt lat="40.663691647869605" lon="16.096456906382507"><ele>647.0</ele><time>2026-04-26T08:43:02Z</time></trkpt><trkpt lat="40.66362049812263" lon="16.096478272540494"><ele>647.0</ele><time>2026-04-26T08:43:06Z</time></trkpt><trkpt lat="40.66358794995194" lon="16.09640654396189"><ele>651.3333333333333</ele><time>2026-04-26T08:43:08Z</time></trkpt><trkpt lat="40.66351184285733" lon="16.096359605596295"><ele>655.6666666666666</ele><time>2026-04-26T08:43:11Z</time></trkpt><trkpt lat="40.66343317411172" lon="16.096351181324604"><ele>660.0</ele><time>2026-04-26T08:44:22.001Z</time></trkpt><trkpt lat="40.66337021449788" lon="16.09629950936522"><ele>664.3333333333334</ele><time>2026-04-26T08:44:24.001Z</time></trkpt><trkpt lat="40.663306006075075" lon="16.096271919937713"><ele>668.6666666666667</ele><time>2026-04-26T08:44:25.001Z</time></trkpt><trkpt lat="40.66323435213325" lon="16.09622960965948"><ele>673.0</ele><time>2026-04-26T08:44:27.001Z</time></trkpt><trkpt lat="40.66312086682846" lon="16.0962237991172"><ele>673.0</ele><time>2026-04-26T08:44:29.001Z</time></trkpt><trkpt lat="40.66303585529613" lon="16.09621813036617"><ele>673.0</ele><time>2026-04-26T08:44:31.001Z</time></trkpt><trkpt lat="40.66294426269952" lon="16.096192626521447"><ele>673.0</ele><time>2026-04-26T08:44:33.001Z</time></trkpt><trkpt lat="40.6628749779369" lon="16.09615807479825"><ele>673.0</ele><time>2026-04-26T08:44:35.001Z</time></trkpt><trkpt lat="40.66283198729333" lon="16.096091877995324"><ele>673.0</ele><time>2026-04-26T08:44:37Z</time></trkpt><trkpt lat="40.66278192876358" lon="16.09599637994169"><ele>673.0</ele><time>2026-04-26T08:44:39Z</time></trkpt><trkpt lat="40.66270880042215" lon="16.095861270453344"><ele>675.5</ele><time>2026-04-26T08:44:41Z</time></trkpt><trkpt lat="40.662647793148395" lon="16.09580841503142"><ele>678.0</ele><time>2026-04-26T08:44:42Z</time></trkpt><trkpt lat="40.662567748301704" lon="16.095743248749056"><ele>680.5</ele><time>2026-04-26T08:44:45Z</time></trkpt><trkpt lat="40.662547653486335" lon="16.09566157064533"><ele>683.0</ele><time>2026-04-26T08:44:47Z</time></trkpt><trkpt lat="40.662563013323364" lon="16.095535230396106"><ele>685.5</ele><time>2026-04-26T08:44:50Z</time></trkpt><trkpt lat="40.662540171305906" lon="16.095411751065235"><ele>688.0</ele><time>2026-04-26T08:44:52Z</time></trkpt><trkpt lat="40.66252191925322" lon="16.095327808124416"><ele>688.0</ele><time>2026-04-26T08:44:53Z</time></trkpt><trkpt lat="40.66249499350268" lon="16.095241696373986"><ele>688.0</ele><time>2026-04-26T08:44:54Z</time></trkpt><trkpt lat="40.66246314472864" lon="16.095098195624434"><ele>688.0</ele><time>2026-04-26T08:44:56Z</time></trkpt><trkpt lat="40.66241942965875" lon="16.09495478381838"><ele>688.0</ele><time>2026-04-26T08:44:58Z</time></trkpt><trkpt lat="40.66237779039842" lon="16.09488590861088"><ele>688.0</ele><time>2026-04-26T08:44:59Z</time></trkpt><trkpt lat="40.66233328426149" lon="16.094803814819183"><ele>688.0</ele><time>2026-04-26T08:45:00Z</time></trkpt><trkpt lat="40.66229454292614" lon="16.09472746873961"><ele>686.8333333333334</ele><time>2026-04-26T08:45:01Z</time></trkpt><trkpt lat="40.662239185583964" lon="16.09457926300701"><ele>685.6666666666667</ele><time>2026-04-26T08:45:03Z</time></trkpt><trkpt lat="40.662215126333" lon="16.09449862351303"><ele>684.5</ele><time>2026-04-26T08:45:04Z</time></trkpt><trkpt lat="40.662188233128994" lon="16.09441613433918"><ele>683.3333333333334</ele><time>2026-04-26T08:45:05Z</time></trkpt><trkpt lat="40.662156206182786" lon="16.094333178314006"><ele>682.1666666666666</ele><time>2026-04-26T08:45:06Z</time></trkpt><trkpt lat="40.66213375647895" lon="16.094254437798504"><ele>681.0</ele><time>2026-04-26T08:45:07Z</time></trkpt><trkpt lat="40.66210269607727" lon="16.094177730103798"><ele>681.0</ele><time>2026-04-26T08:45:08Z</time></trkpt><trkpt lat="40.66206954707623" lon="16.094099612151297"><ele>681.0</ele><time>2026-04-26T08:45:09Z</time></trkpt><trkpt lat="40.6620348816616" lon="16.094029028995607"><ele>681.0</ele><time>2026-04-26T08:45:10Z</time></trkpt><trkpt lat="40.661991225802325" lon="16.093887484388482"><ele>681.0</ele><time>2026-04-26T08:45:12Z</time></trkpt><trkpt lat="40.66192664617085" lon="16.09383990067188"><ele>681.0</ele><time>2026-04-26T08:45:14Z</time></trkpt><trkpt lat="40.661842620309955" lon="16.093904772997"><ele>681.0</ele><time>2026-04-26T08:45:16Z</time></trkpt><trkpt lat="40.661782058315694" lon="16.09393649659185"><ele>685.5999999999999</ele><time>2026-04-26T08:45:38Z</time></trkpt><trkpt lat="40.66180269655457" lon="16.093803909919238"><ele>690.2</ele><time>2026-04-26T08:45:40Z</time></trkpt><trkpt lat="40.66181687813225" lon="16.09370292339126"><ele>694.8</ele><time>2026-04-26T08:45:41Z</time></trkpt><trkpt lat="40.66186231236149" lon="16.09356199641364"><ele>699.4000000000001</ele><time>2026-04-26T08:45:43Z</time></trkpt><trkpt lat="40.661893955185754" lon="16.093415440994505"><ele>704.0</ele><time>2026-04-26T08:45:45Z</time></trkpt><trkpt lat="40.66190891700081" lon="16.09329913224937"><ele>702.4000000000001</ele><time>2026-04-26T08:45:47Z</time></trkpt><trkpt lat="40.661913068511474" lon="16.093175986922027"><ele>700.8</ele><time>2026-04-26T08:45:49Z</time></trkpt><trkpt lat="40.66190795291544" lon="16.093020954949964"><ele>699.2</ele><time>2026-04-26T08:45:51Z</time></trkpt><trkpt lat="40.661880975660274" lon="16.09288114474397"><ele>697.5999999999999</ele><time>2026-04-26T08:45:53Z</time></trkpt><trkpt lat="40.66185888977186" lon="16.092757430016153"><ele>696.0</ele><time>2026-04-26T08:45:55Z</time></trkpt><trkpt lat="40.66184108169657" lon="16.09262990381414"><ele>696.0</ele><time>2026-04-26T08:45:57Z</time></trkpt><trkpt lat="40.66182528382112" lon="16.092536110835074"><ele>696.0</ele><time>2026-04-26T08:45:58Z</time></trkpt><trkpt lat="40.66180808420501" lon="16.09244944755882"><ele>696.0</ele><time>2026-04-26T08:45:59Z</time></trkpt><trkpt lat="40.66178405453533" lon="16.09235837703848"><ele>696.0</ele><time>2026-04-26T08:46:00.001Z</time></trkpt><trkpt lat="40.66175408622837" lon="16.092211029497694"><ele>696.0</ele><time>2026-04-26T08:46:02.001Z</time></trkpt><trkpt lat="40.6617252481441" lon="16.09213509638461"><ele>696.0</ele><time>2026-04-26T08:46:03.001Z</time></trkpt><trkpt lat="40.66169126931026" lon="16.09205827257077"><ele>694.3333333333334</ele><time>2026-04-26T08:46:04.001Z</time></trkpt><trkpt lat="40.661655445390046" lon="16.091974116554272"><ele>692.6666666666666</ele><time>2026-04-26T08:46:05.001Z</time></trkpt><trkpt lat="40.66161986804779" lon="16.09187727910475"><ele>691.0</ele><time>2026-04-26T08:46:06.001Z</time></trkpt><trkpt lat="40.66158128606923" lon="16.091784245982616"><ele>689.3333333333333</ele><time>2026-04-26T08:46:07.001Z</time></trkpt><trkpt lat="40.66154490598058" lon="16.091689932373576"><ele>687.6666666666666</ele><time>2026-04-26T08:46:08.001Z</time></trkpt><trkpt lat="40.661510620287004" lon="16.09160008369664"><ele>686.0</ele><time>2026-04-26T08:46:09.001Z</time></trkpt><trkpt lat="40.66148284579497" lon="16.091514140519063"><ele>685.1666666666666</ele><time>2026-04-26T08:46:10.001Z</time></trkpt><trkpt lat="40.661459854968086" lon="16.091423884239298"><ele>684.3333333333333</ele><time>2026-04-26T08:46:11.001Z</time></trkpt><trkpt lat="40.66143261402812" lon="16.091339543359602"><ele>683.5</ele><time>2026-04-26T08:46:12.001Z</time></trkpt><trkpt lat="40.66141703685853" lon="16.091204280790564"><ele>682.6666666666666</ele><time>2026-04-26T08:46:14.001Z</time></trkpt><trkpt lat="40.66140671979421" lon="16.09109939481461"><ele>681.8333333333334</ele><time>2026-04-26T08:46:16.001Z</time></trkpt><trkpt lat="40.66142937536748" lon="16.091013400713273"><ele>681.0</ele><time>2026-04-26T08:46:19.001Z</time></trkpt><trkpt lat="40.66150292338553" lon="16.091050435018698"><ele>681.0</ele><time>2026-04-26T08:46:23.001Z</time></trkpt><trkpt lat="40.66156831231769" lon="16.091130476605723"><ele>681.0</ele><time>2026-04-26T08:46:25.001Z</time></trkpt><trkpt lat="40.66166047458818" lon="16.091178642275327"><ele>681.0</ele><time>2026-04-26T08:46:27.001Z</time></trkpt><trkpt lat="40.66173728765845" lon="16.09120719211213"><ele>681.0</ele><time>2026-04-26T08:46:29.001Z</time></trkpt><trkpt lat="40.66183456783303" lon="16.09123496566941"><ele>681.0</ele><time>2026-04-26T08:46:31.001Z</time></trkpt><trkpt lat="40.661904028540874" lon="16.09124542207258"><ele>681.0</ele><time>2026-04-26T08:46:33.001Z</time></trkpt><trkpt lat="40.661950854037755" lon="16.091164068463662"><ele>677.4</ele><time>2026-04-26T08:46:35.001Z</time></trkpt><trkpt lat="40.66199181606961" lon="16.091020993540123"><ele>673.8</ele><time>2026-04-26T08:46:37.001Z</time></trkpt><trkpt lat="40.66201450325804" lon="16.090906560929238"><ele>670.1999999999999</ele><time>2026-04-26T08:46:39.001Z</time></trkpt><trkpt lat="40.66203157595224" lon="16.09079713074581"><ele>666.5999999999999</ele><time>2026-04-26T08:46:41.001Z</time></trkpt><trkpt lat="40.66204333019376" lon="16.090653093975554"><ele>663.0</ele><time>2026-04-26T08:47:04Z</time></trkpt><trkpt lat="40.66205369689425" lon="16.090552964107182"><ele>662.8571428571428</ele><time>2026-04-26T08:47:05Z</time></trkpt><trkpt lat="40.66205879703191" lon="16.090425431389136"><ele>662.7142857142857</ele><time>2026-04-26T08:47:06Z</time></trkpt><trkpt lat="40.6620544608421" lon="16.090324041813695"><ele>662.5714285714286</ele><time>2026-04-26T08:47:07Z</time></trkpt><trkpt lat="40.662070340623636" lon="16.090238535258905"><ele>662.4285714285713</ele><time>2026-04-26T08:47:08Z</time></trkpt><trkpt lat="40.66208856945879" lon="16.09015457116644"><ele>662.2857142857142</ele><time>2026-04-26T08:47:09Z</time></trkpt><trkpt lat="40.66209998054572" lon="16.090064212725057"><ele>662.1428571428571</ele><time>2026-04-26T08:47:10Z</time></trkpt><trkpt lat="40.662097635651264" lon="16.089975575913293"><ele>662.0</ele><time>2026-04-26T08:47:11Z</time></trkpt><trkpt lat="40.66209844451391" lon="16.089852429723678"><ele>662.0</ele><time>2026-04-26T08:47:13Z</time></trkpt><trkpt lat="40.6620725394688" lon="16.08974400870215"><ele>662.0</ele><time>2026-04-26T08:47:15Z</time></trkpt><trkpt lat="40.661969509372916" lon="16.089685276606815"><ele>662.0</ele><time>2026-04-26T08:47:17Z</time></trkpt><trkpt lat="40.66189327365623" lon="16.08967838408657"><ele>662.0</ele><time>2026-04-26T08:47:18Z</time></trkpt><trkpt lat="40.66182267648238" lon="16.0896881633472"><ele>662.0</ele><time>2026-04-26T08:47:19Z</time></trkpt><trkpt lat="40.661750706437076" lon="16.08964030509353"><ele>662.0</ele><time>2026-04-26T08:47:21Z</time></trkpt><trkpt lat="40.66170754887556" lon="16.089511826452036"><ele>664.8</ele><time>2026-04-26T08:47:23Z</time></trkpt><trkpt lat="40.661667065077104" lon="16.089446097123936"><ele>667.6</ele><time>2026-04-26T08:47:25Z</time></trkpt><trkpt lat="40.66162375603913" lon="16.08936804782063"><ele>670.4</ele><time>2026-04-26T08:47:28Z</time></trkpt><trkpt lat="40.66149944395274" lon="16.089350613355304"><ele>673.1999999999999</ele><time>2026-04-26T08:48:18.001Z</time></trkpt><trkpt lat="40.66139356108524" lon="16.089366725490144"><ele>676.0</ele><time>2026-04-26T08:48:19.001Z</time></trkpt><trkpt lat="40.66131878238928" lon="16.089429526502315"><ele>676.0</ele><time>2026-04-26T08:48:20.001Z</time></trkpt><trkpt lat="40.66125736440504" lon="16.089407215505222"><ele>676.0</ele><time>2026-04-26T08:48:23.001Z</time></trkpt><trkpt lat="40.66128880903581" lon="16.0893263761447"><ele>676.0</ele><time>2026-04-26T08:53:45Z</time></trkpt><trkpt lat="40.66137798885586" lon="16.089261935403695"><ele>676.0</ele><time>2026-04-26T08:53:47Z</time></trkpt><trkpt lat="40.66144802417974" lon="16.089199198065096"><ele>676.0</ele><time>2026-04-26T08:53:48Z</time></trkpt><trkpt lat="40.66151944117319" lon="16.08915895910323"><ele>676.0</ele><time>2026-04-26T08:53:49Z</time></trkpt><trkpt lat="40.66159368875689" lon="16.089119663580362"><ele>674.6666666666667</ele><time>2026-04-26T08:53:50Z</time></trkpt><trkpt lat="40.66166712764263" lon="16.089072954629618"><ele>673.3333333333334</ele><time>2026-04-26T08:53:51Z</time></trkpt><trkpt lat="40.66174479637359" lon="16.0890081512009"><ele>672.0</ele><time>2026-04-26T08:53:52Z</time></trkpt><trkpt lat="40.661810906079936" lon="16.0889439854526"><ele>670.6666666666666</ele><time>2026-04-26T08:53:53Z</time></trkpt><trkpt lat="40.661866995776634" lon="16.0888759245725"><ele>669.3333333333333</ele><time>2026-04-26T08:53:54Z</time></trkpt><trkpt lat="40.66192782421627" lon="16.088809640407167"><ele>668.0</ele><time>2026-04-26T08:53:55Z</time></trkpt><trkpt lat="40.66199223813402" lon="16.088747606690653"><ele>666.8</ele><time>2026-04-26T08:53:56Z</time></trkpt><trkpt lat="40.66204513434795" lon="16.088665795644395"><ele>665.5999999999999</ele><time>2026-04-26T08:53:57Z</time></trkpt><trkpt lat="40.66210094084774" lon="16.08858828785012"><ele>664.4000000000001</ele><time>2026-04-26T08:53:58Z</time></trkpt><trkpt lat="40.66215518655349" lon="16.088488442447254"><ele>663.2</ele><time>2026-04-26T08:53:59Z</time></trkpt><trkpt lat="40.66223893410161" lon="16.088396857690274"><ele>662.0</ele><time>2026-04-26T08:54:01Z</time></trkpt><trkpt lat="40.66232430222607" lon="16.088262205413958"><ele>661.0</ele><time>2026-04-26T08:54:03Z</time></trkpt><trkpt lat="40.66237126626003" lon="16.08818060646013"><ele>660.0</ele><time>2026-04-26T08:54:04Z</time></trkpt><trkpt lat="40.66242471239906" lon="16.08810078789154"><ele>659.0</ele><time>2026-04-26T08:54:05Z</time></trkpt><trkpt lat="40.662486957819425" lon="16.088025285688758"><ele>658.0</ele><time>2026-04-26T08:54:06Z</time></trkpt><trkpt lat="40.662549796518114" lon="16.08794552322621"><ele>657.0</ele><time>2026-04-26T08:54:07Z</time></trkpt><trkpt lat="40.66261252421538" lon="16.087871035621383"><ele>656.0</ele><time>2026-04-26T08:54:08Z</time></trkpt><trkpt lat="40.662661993232646" lon="16.087802253884792"><ele>655.9999999999999</ele><time>2026-04-26T08:54:09Z</time></trkpt><trkpt lat="40.662697021072105" lon="16.087719913486918"><ele>656.0</ele><time>2026-04-26T08:54:10Z</time></trkpt><trkpt lat="40.66272453194224" lon="16.08764339125852"><ele>656.0</ele><time>2026-04-26T08:54:11Z</time></trkpt><trkpt lat="40.662760863713345" lon="16.08756740623889"><ele>656.0</ele><time>2026-04-26T08:54:12Z</time></trkpt><trkpt lat="40.66278909346846" lon="16.087472233230063"><ele>656.0</ele><time>2026-04-26T08:54:13Z</time></trkpt><trkpt lat="40.66281829602712" lon="16.087367920524162"><ele>655.9999999999999</ele><time>2026-04-26T08:54:14Z</time></trkpt><trkpt lat="40.662847133263206" lon="16.087290129538623"><ele>656.0</ele><time>2026-04-26T08:54:15Z</time></trkpt><trkpt lat="40.66286586406827" lon="16.08720630625471"><ele>652.8333333333333</ele><time>2026-04-26T08:54:16Z</time></trkpt><trkpt lat="40.66288446170788" lon="16.087123148844547"><ele>649.6666666666666</ele><time>2026-04-26T08:54:17Z</time></trkpt><trkpt lat="40.66293269134913" lon="16.086977469509712"><ele>646.5</ele><time>2026-04-26T08:54:19Z</time></trkpt><trkpt lat="40.66298000369932" lon="16.086904765662457"><ele>643.3333333333334</ele><time>2026-04-26T08:54:20Z</time></trkpt><trkpt lat="40.66302414431986" lon="16.086834374139567"><ele>640.1666666666667</ele><time>2026-04-26T08:54:21Z</time></trkpt><trkpt lat="40.66309106278028" lon="16.086734079007016"><ele>637.0</ele><time>2026-04-26T08:54:23Z</time></trkpt><trkpt lat="40.66317756883694" lon="16.08663112315957"><ele>634.6</ele><time>2026-04-26T08:54:25Z</time></trkpt><trkpt lat="40.663223780985525" lon="16.086571630533555"><ele>632.2</ele><time>2026-04-26T08:54:26Z</time></trkpt><trkpt lat="40.66327660929036" lon="16.08643974477368"><ele>629.8</ele><time>2026-04-26T08:54:28Z</time></trkpt><trkpt lat="40.663333509142014" lon="16.086340249112713"><ele>627.4</ele><time>2026-04-26T08:54:30Z</time></trkpt><trkpt lat="40.66341824474117" lon="16.086242597471248"><ele>625.0</ele><time>2026-04-26T08:54:32Z</time></trkpt><trkpt lat="40.66348435842185" lon="16.086130759270763"><ele>625.0</ele><time>2026-04-26T08:54:34Z</time></trkpt><trkpt lat="40.6635723302076" lon="16.08607236377928"><ele>625.0</ele><time>2026-04-26T08:54:36Z</time></trkpt><trkpt lat="40.66364693107377" lon="16.085971696267475"><ele>625.0</ele><time>2026-04-26T08:54:38Z</time></trkpt><trkpt lat="40.66372211584873" lon="16.085869916012133"><ele>625.0</ele><time>2026-04-26T08:54:40Z</time></trkpt><trkpt lat="40.663795742984796" lon="16.08578304962637"><ele>625.0</ele><time>2026-04-26T08:54:42Z</time></trkpt><trkpt lat="40.663823787358346" lon="16.08570521373124"><ele>621.4</ele><time>2026-04-26T08:54:43Z</time></trkpt><trkpt lat="40.66391648015783" lon="16.085613015112077"><ele>617.8</ele><time>2026-04-26T08:54:45Z</time></trkpt><trkpt lat="40.66398777668299" lon="16.085532176738596"><ele>614.2</ele><time>2026-04-26T08:54:47.001Z</time></trkpt><trkpt lat="40.664036277902845" lon="16.085427640840255"><ele>610.6</ele><time>2026-04-26T08:56:22Z</time></trkpt><trkpt lat="40.66410775019871" lon="16.085386926877543"><ele>607.0</ele><time>2026-04-26T08:56:24Z</time></trkpt><trkpt lat="40.66421537451531" lon="16.085356996664725"><ele>607.0</ele><time>2026-04-26T08:56:26Z</time></trkpt><trkpt lat="40.66431046636348" lon="16.085290689967927"><ele>607.0</ele><time>2026-04-26T08:56:28Z</time></trkpt><trkpt lat="40.66438488994381" lon="16.085213592071018"><ele>607.0</ele><time>2026-04-26T08:56:30Z</time></trkpt><trkpt lat="40.66443747281346" lon="16.085098230967933"><ele>607.0</ele><time>2026-04-26T08:56:32Z</time></trkpt><trkpt lat="40.66445325765579" lon="16.085014503621153"><ele>607.0</ele><time>2026-04-26T08:56:33Z</time></trkpt><trkpt lat="40.66451000006177" lon="16.084890518782235"><ele>602.8333333333334</ele><time>2026-04-26T08:56:35Z</time></trkpt><trkpt lat="40.66455801830096" lon="16.084827994237834"><ele>598.6666666666667</ele><time>2026-04-26T08:56:36Z</time></trkpt><trkpt lat="40.66458307414155" lon="16.08475003755628"><ele>594.5</ele><time>2026-04-26T08:56:37Z</time></trkpt><trkpt lat="40.66462283764728" lon="16.084680715820884"><ele>590.3333333333334</ele><time>2026-04-26T08:56:38Z</time></trkpt><trkpt lat="40.664673980213294" lon="16.084548721048048"><ele>586.1666666666666</ele><time>2026-04-26T08:56:40Z</time></trkpt><trkpt lat="40.66477478096155" lon="16.08445763707393"><ele>582.0</ele><time>2026-04-26T08:56:42Z</time></trkpt><trkpt lat="40.664859364079106" lon="16.08442706667135"><ele>582.0</ele><time>2026-04-26T08:56:44Z</time></trkpt><trkpt lat="40.66494343461233" lon="16.08435685697721"><ele>582.0</ele><time>2026-04-26T08:56:46Z</time></trkpt><trkpt lat="40.664986002071075" lon="16.084208240550822"><ele>582.0</ele><time>2026-04-26T08:56:48Z</time></trkpt><trkpt lat="40.665018216190724" lon="16.084134254616586"><ele>582.0</ele><time>2026-04-26T08:56:49Z</time></trkpt><trkpt lat="40.66506435072783" lon="16.084022797938253"><ele>582.0</ele><time>2026-04-26T08:56:51Z</time></trkpt><trkpt lat="40.66514739778845" lon="16.08398618279386"><ele>580.2</ele><time>2026-04-26T08:56:53Z</time></trkpt><trkpt lat="40.665196762216326" lon="16.083863762156493"><ele>578.4000000000001</ele><time>2026-04-26T08:56:55Z</time></trkpt><trkpt lat="40.665241982428775" lon="16.0837117354212"><ele>576.5999999999999</ele><time>2026-04-26T08:56:57Z</time></trkpt><trkpt lat="40.66527792894217" lon="16.08358340305498"><ele>574.8</ele><time>2026-04-26T08:56:59Z</time></trkpt><trkpt lat="40.66535762180359" lon="16.0834807959123"><ele>573.0</ele><time>2026-04-26T08:57:01Z</time></trkpt><trkpt lat="40.66542832857289" lon="16.083394862363402"><ele>568.0</ele><time>2026-04-26T08:57:03Z</time></trkpt><trkpt lat="40.665510739015254" lon="16.083384531432287"><ele>563.0</ele><time>2026-04-26T08:57:06Z</time></trkpt><trkpt lat="40.66558574432884" lon="16.08349168013543"><ele>558.0</ele><time>2026-04-26T08:57:08Z</time></trkpt><trkpt lat="40.66585055312184" lon="16.08346428112996"><ele>558.0</ele><time>2026-04-26T08:57:13.999Z</time></trkpt><trkpt lat="40.665911435311145" lon="16.083428462291106"><ele>558.0</ele><time>2026-04-26T08:57:14.999Z</time></trkpt><trkpt lat="40.66597125590032" lon="16.083394266770032"><ele>558.0</ele><time>2026-04-26T08:57:15.999Z</time></trkpt><trkpt lat="40.66608241387717" lon="16.08334688779351"><ele>558.0</ele><time>2026-04-26T08:57:17.999Z</time></trkpt><trkpt lat="40.666178022700805" lon="16.0832667405515"><ele>558.0</ele><time>2026-04-26T08:57:19.999Z</time></trkpt><trkpt lat="40.66624602428084" lon="16.08323048095828"><ele>558.0</ele><time>2026-04-26T08:57:20.999Z</time></trkpt><trkpt lat="40.66632590232297" lon="16.08316953057195"><ele>549.5</ele><time>2026-04-26T08:57:22.999Z</time></trkpt><trkpt lat="40.6663573840633" lon="16.083018769113476"><ele>541.0</ele><time>2026-04-26T08:57:24.999Z</time></trkpt><trkpt lat="40.666397816615756" lon="16.082848914153438"><ele>532.5</ele><time>2026-04-26T08:57:26.999Z</time></trkpt><trkpt lat="40.66642928383181" lon="16.082708211793513"><ele>524.0</ele><time>2026-04-26T08:57:28.999Z</time></trkpt><trkpt lat="40.66645381707138" lon="16.08258025696203"><ele>524.0</ele><time>2026-04-26T08:57:30.999Z</time></trkpt><trkpt lat="40.66647337781303" lon="16.082451362311055"><ele>524.0</ele><time>2026-04-26T08:57:32.999Z</time></trkpt><trkpt lat="40.66652844796306" lon="16.0823522170052"><ele>524.0</ele><time>2026-04-26T08:57:34.999Z</time></trkpt><trkpt lat="40.666591308559106" lon="16.082284940263133"><ele>524.0</ele><time>2026-04-26T08:57:37.999Z</time></trkpt><trkpt lat="40.66677502489607" lon="16.082312892773686"><ele>524.2</ele><time>2026-04-26T08:57:42Z</time></trkpt><trkpt lat="40.66688557643763" lon="16.082350698123836"><ele>524.4</ele><time>2026-04-26T08:57:44Z</time></trkpt><trkpt lat="40.666961604381534" lon="16.082360678189314"><ele>524.6</ele><time>2026-04-26T08:57:45Z</time></trkpt><trkpt lat="40.667045815128965" lon="16.082438820040945"><ele>524.8</ele><time>2026-04-26T08:57:47Z</time></trkpt><trkpt lat="40.6671052104042" lon="16.08255576775769"><ele>525.0</ele><time>2026-04-26T08:57:49Z</time></trkpt><trkpt lat="40.66716116101064" lon="16.082673379968487"><ele>521.8333333333334</ele><time>2026-04-26T08:57:51Z</time></trkpt><trkpt lat="40.66721524487163" lon="16.082765176689136"><ele>518.6666666666666</ele><time>2026-04-26T08:57:53Z</time></trkpt><trkpt lat="40.66726694604519" lon="16.082863090062197"><ele>515.5</ele><time>2026-04-26T08:57:55Z</time></trkpt><trkpt lat="40.66734211670653" lon="16.082866315829676"><ele>512.3333333333333</ele><time>2026-04-26T08:57:58Z</time></trkpt><trkpt lat="40.66740108074531" lon="16.082808204041214"><ele>509.16666666666663</ele><time>2026-04-26T08:58:04Z</time></trkpt><trkpt lat="40.66745164904271" lon="16.082748335209825"><ele>506.0</ele><time>2026-04-26T08:58:06Z</time></trkpt><trkpt lat="40.66753436065202" lon="16.08269272572672"><ele>505.99999999999994</ele><time>2026-04-26T08:58:08Z</time></trkpt><trkpt lat="40.66755081137566" lon="16.082590248329844"><ele>506.0</ele><time>2026-04-26T08:58:10Z</time></trkpt><trkpt lat="40.667495962164125" lon="16.08249510745203"><ele>506.0</ele><time>2026-04-26T08:58:14Z</time></trkpt><trkpt lat="40.66744576678903" lon="16.0823884614469"><ele>506.0</ele><time>2026-04-26T08:58:16Z</time></trkpt><trkpt lat="40.66736192576387" lon="16.082346240975895"><ele>505.99999999999994</ele><time>2026-04-26T08:58:18Z</time></trkpt><trkpt lat="40.6673119110829" lon="16.082260362063867"><ele>506.0</ele><time>2026-04-26T08:58:20Z</time></trkpt><trkpt lat="40.6673365152407" lon="16.082149368987807"><ele>507.8571428571429</ele><time>2026-04-26T08:58:22Z</time></trkpt><trkpt lat="40.66732654437223" lon="16.082065663333285"><ele>509.7142857142857</ele><time>2026-04-26T08:58:25Z</time></trkpt><trkpt lat="40.66729235232525" lon="16.081971980319814"><ele>511.57142857142856</ele><time>2026-04-26T08:58:30Z</time></trkpt><trkpt lat="40.66723071183221" lon="16.081905801019925"><ele>513.4285714285714</ele><time>2026-04-26T08:58:33Z</time></trkpt><trkpt lat="40.6672062902773" lon="16.081800599836573"><ele>515.2857142857142</ele><time>2026-04-26T08:58:38Z</time></trkpt><trkpt lat="40.6672146570398" lon="16.081705126615777"><ele>517.1428571428571</ele><time>2026-04-26T08:58:40Z</time></trkpt><trkpt lat="40.66723286715255" lon="16.081618398392596"><ele>519.0</ele><time>2026-04-26T08:58:54Z</time></trkpt><trkpt lat="40.667245536962845" lon="16.081504445708426"><ele>520.1666666666666</ele><time>2026-04-26T08:58:58Z</time></trkpt><trkpt lat="40.66727944197237" lon="16.08142910963549"><ele>521.3333333333334</ele><time>2026-04-26T08:59:00Z</time></trkpt><trkpt lat="40.6672209730156" lon="16.0813854208013"><ele>522.5</ele><time>2026-04-26T08:59:03Z</time></trkpt><trkpt lat="40.66714896066727" lon="16.08135711117509"><ele>523.6666666666667</ele><time>2026-04-26T08:59:05Z</time></trkpt><trkpt lat="40.66705007143175" lon="16.08136569261866"><ele>524.8333333333334</ele><time>2026-04-26T08:59:07Z</time></trkpt><trkpt lat="40.66697561946237" lon="16.081410519693733"><ele>526.0</ele><time>2026-04-26T08:59:10Z</time></trkpt><trkpt lat="40.66691790708867" lon="16.08148502092785"><ele>528.0</ele><time>2026-04-26T08:59:12Z</time></trkpt><trkpt lat="40.66683672448571" lon="16.081480700783192"><ele>530.0</ele><time>2026-04-26T08:59:15Z</time></trkpt><trkpt lat="40.66677096458197" lon="16.08153535595303"><ele>532.0</ele><time>2026-04-26T08:59:17Z</time></trkpt><trkpt lat="40.66670676753766" lon="16.081517883725716"><ele>534.0</ele><time>2026-04-26T08:59:19Z</time></trkpt><trkpt lat="40.66660807527516" lon="16.081508670347823"><ele>536.0</ele><time>2026-04-26T08:59:21Z</time></trkpt><trkpt lat="40.666530754549" lon="16.081544120606832"><ele>538.0</ele><time>2026-04-26T08:59:23Z</time></trkpt><trkpt lat="40.66645260987809" lon="16.08149557698007"><ele>538.0</ele><time>2026-04-26T08:59:25Z</time></trkpt><trkpt lat="40.666368307189835" lon="16.081453422934036"><ele>538.0</ele><time>2026-04-26T08:59:27Z</time></trkpt><trkpt lat="40.6662816784293" lon="16.081436192895726"><ele>538.0</ele><time>2026-04-26T08:59:29Z</time></trkpt><trkpt lat="40.66622814991249" lon="16.08136358570082"><ele>538.0</ele><time>2026-04-26T08:59:43Z</time></trkpt><trkpt lat="40.6662023261652" lon="16.08127936942748"><ele>538.0</ele><time>2026-04-26T08:59:47Z</time></trkpt><trkpt lat="40.66605235272412" lon="16.081117253654572"><ele>539.4285714285714</ele><time>2026-04-26T08:59:57Z</time></trkpt><trkpt lat="40.66605047194724" lon="16.081028089558053"><ele>540.8571428571429</ele><time>2026-04-26T09:00:09Z</time></trkpt><trkpt lat="40.66602988036864" lon="16.080937844811963"><ele>542.2857142857143</ele><time>2026-04-26T09:00:12Z</time></trkpt><trkpt lat="40.66594737895463" lon="16.080915943103545"><ele>543.7142857142858</ele><time>2026-04-26T09:00:19Z</time></trkpt><trkpt lat="40.66587737281038" lon="16.080903384693098"><ele>545.1428571428571</ele><time>2026-04-26T09:00:22Z</time></trkpt><trkpt lat="40.665811799624365" lon="16.080873133043156"><ele>546.5714285714287</ele><time>2026-04-26T09:00:24Z</time></trkpt><trkpt lat="40.665763508703314" lon="16.08079023551666"><ele>548.0</ele><time>2026-04-26T09:00:28Z</time></trkpt><trkpt lat="40.66573584903055" lon="16.08071151844819"><ele>551.5</ele><time>2026-04-26T09:00:31Z</time></trkpt><trkpt lat="40.66576907024858" lon="16.080632483621564"><ele>555.0</ele><time>2026-04-26T09:00:40Z</time></trkpt><trkpt lat="40.66578077544309" lon="16.08049935429163"><ele>558.5</ele><time>2026-04-26T09:00:42Z</time></trkpt><trkpt lat="40.665783054880386" lon="16.080398944218466"><ele>562.0</ele><time>2026-04-26T09:00:44Z</time></trkpt><trkpt lat="40.66575050790702" lon="16.080323698149684"><ele>565.5</ele><time>2026-04-26T09:00:46Z</time></trkpt><trkpt lat="40.66564099794853" lon="16.080331001275656"><ele>569.0</ele><time>2026-04-26T09:00:48Z</time></trkpt><trkpt lat="40.66557335181576" lon="16.080311710095103"><ele>569.0</ele><time>2026-04-26T09:00:49Z</time></trkpt><trkpt lat="40.665511994894025" lon="16.08025789752478"><ele>569.0</ele><time>2026-04-26T09:00:51Z</time></trkpt><trkpt lat="40.66538695176786" lon="16.080303160453752"><ele>569.0</ele><time>2026-04-26T09:00:54.001Z</time></trkpt><trkpt lat="40.66530101771448" lon="16.08032537761424"><ele>569.0</ele><time>2026-04-26T09:00:56.001Z</time></trkpt><trkpt lat="40.66523047283813" lon="16.080286624599797"><ele>569.0</ele><time>2026-04-26T09:00:58.001Z</time></trkpt><trkpt lat="40.66518350823597" lon="16.080186526430825"><ele>569.0</ele><time>2026-04-26T09:01:02.001Z</time></trkpt><trkpt lat="40.665184091558544" lon="16.080067180845088"><ele>569.0</ele><time>2026-04-26T09:01:05.001Z</time></trkpt><trkpt lat="40.66527879368633" lon="16.080056205905525"><ele>569.0</ele><time>2026-04-26T09:01:08.001Z</time></trkpt><trkpt lat="40.66534848067807" lon="16.079996231108446"><ele>569.0</ele><time>2026-04-26T09:01:10.001Z</time></trkpt><trkpt lat="40.66536818962959" lon="16.079907232755428"><ele>569.0</ele><time>2026-04-26T09:01:13.001Z</time></trkpt><trkpt lat="40.665304317239034" lon="16.079840231978725"><ele>569.0</ele><time>2026-04-26T09:01:14.001Z</time></trkpt><trkpt lat="40.66523364906286" lon="16.079737196041588"><ele>576.0</ele><time>2026-04-26T09:01:16.001Z</time></trkpt><trkpt lat="40.665165016034514" lon="16.079656950711676"><ele>583.0</ele><time>2026-04-26T09:01:18.001Z</time></trkpt><trkpt lat="40.665096545399464" lon="16.079652078737503"><ele>590.0</ele><time>2026-04-26T09:01:20.001Z</time></trkpt><trkpt lat="40.664966742113705" lon="16.0796471836506"><ele>597.0</ele><time>2026-04-26T09:01:22.001Z</time></trkpt><trkpt lat="40.664836192658555" lon="16.079694655848535"><ele>604.0</ele><time>2026-04-26T09:01:24Z</time></trkpt><trkpt lat="40.66477081649305" lon="16.07971540666203"><ele>604.0</ele><time>2026-04-26T09:01:25Z</time></trkpt><trkpt lat="40.664688741789554" lon="16.07980435939276"><ele>604.0</ele><time>2026-04-26T09:01:27Z</time></trkpt><trkpt lat="40.66462481231693" lon="16.079831978097147"><ele>604.0</ele><time>2026-04-26T09:01:30Z</time></trkpt><trkpt lat="40.66455965572967" lon="16.079790059632877"><ele>604.0</ele><time>2026-04-26T09:01:33Z</time></trkpt><trkpt lat="40.66461933168067" lon="16.079718891547408"><ele>604.0</ele><time>2026-04-26T09:01:35Z</time></trkpt><trkpt lat="40.664622339689295" lon="16.079623299126787"><ele>604.0</ele><time>2026-04-26T09:01:36Z</time></trkpt><trkpt lat="40.664637527223306" lon="16.07945921073288"><ele>604.0</ele><time>2026-04-26T09:01:38Z</time></trkpt><trkpt lat="40.6646665497128" lon="16.079379985330288"><ele>604.0</ele><time>2026-04-26T09:01:41Z</time></trkpt><trkpt lat="40.66467271685353" lon="16.079272964972937"><ele>604.0</ele><time>2026-04-26T09:01:43Z</time></trkpt><trkpt lat="40.66461773860425" lon="16.079186427148244"><ele>604.0</ele><time>2026-04-26T09:01:44Z</time></trkpt><trkpt lat="40.6646349496236" lon="16.079069406300878"><ele>604.0</ele><time>2026-04-26T09:01:46Z</time></trkpt><trkpt lat="40.66470641419718" lon="16.07898357528378"><ele>604.0</ele><time>2026-04-26T09:01:48Z</time></trkpt><trkpt lat="40.66474943707115" lon="16.07886897007717"><ele>607.0</ele><time>2026-04-26T09:01:50Z</time></trkpt><trkpt lat="40.664804022401334" lon="16.07882269704083"><ele>610.0</ele><time>2026-04-26T09:01:52Z</time></trkpt><trkpt lat="40.664833244366974" lon="16.078716428547903"><ele>613.0</ele><time>2026-04-26T09:01:54Z</time></trkpt><trkpt lat="40.66490646431767" lon="16.078611129217833"><ele>616.0</ele><time>2026-04-26T09:01:56Z</time></trkpt><trkpt lat="40.66497077762209" lon="16.078572423072366"><ele>619.0</ele><time>2026-04-26T09:01:58Z</time></trkpt><trkpt lat="40.665042956071865" lon="16.078503446232634"><ele>622.0</ele><time>2026-04-26T09:02:02Z</time></trkpt><trkpt lat="40.66511516110273" lon="16.078401085109324"><ele>623.4</ele><time>2026-04-26T09:02:04Z</time></trkpt><trkpt lat="40.66516500445945" lon="16.078236901412854"><ele>624.8000000000001</ele><time>2026-04-26T09:02:06Z</time></trkpt><trkpt lat="40.66512922579106" lon="16.07812225723912"><ele>626.2</ele><time>2026-04-26T09:02:08Z</time></trkpt><trkpt lat="40.66505323692951" lon="16.078118695323173"><ele>627.6</ele><time>2026-04-26T09:02:10Z</time></trkpt><trkpt lat="40.664973692978926" lon="16.078101554908645"><ele>629.0</ele><time>2026-04-26T09:02:12Z</time></trkpt><trkpt lat="40.665003074963906" lon="16.078005243349654"><ele>629.0</ele><time>2026-04-26T09:02:15Z</time></trkpt><trkpt lat="40.664946290567876" lon="16.077917548380302"><ele>629.0</ele><time>2026-04-26T09:02:17Z</time></trkpt><trkpt lat="40.66486863836672" lon="16.077828056748878"><ele>629.0</ele><time>2026-04-26T09:02:19Z</time></trkpt><trkpt lat="40.66489477632914" lon="16.077708507207664"><ele>629.0</ele><time>2026-04-26T09:02:22Z</time></trkpt><trkpt lat="40.664921867433" lon="16.077557345044973"><ele>629.0</ele><time>2026-04-26T09:02:25Z</time></trkpt><trkpt lat="40.66495677994664" lon="16.07746926061772"><ele>628.3333333333333</ele><time>2026-04-26T09:02:28Z</time></trkpt><trkpt lat="40.66499797925052" lon="16.07738911517475"><ele>627.6666666666666</ele><time>2026-04-26T09:02:31Z</time></trkpt><trkpt lat="40.66500686418141" lon="16.0772965486273"><ele>627.0</ele><time>2026-04-26T09:02:33.001Z</time></trkpt><trkpt lat="40.665060723528825" lon="16.077240107807928"><ele>626.3333333333334</ele><time>2026-04-26T09:02:35.001Z</time></trkpt><trkpt lat="40.66506964723539" lon="16.07714087666676"><ele>625.6666666666667</ele><time>2026-04-26T09:02:38.001Z</time></trkpt><trkpt lat="40.6650058509096" lon="16.077052526091702"><ele>625.0</ele><time>2026-04-26T09:02:43.001Z</time></trkpt><trkpt lat="40.66491147084877" lon="16.076960810081186"><ele>625.0</ele><time>2026-04-26T09:02:45.001Z</time></trkpt><trkpt lat="40.664804090567614" lon="16.07695135636754"><ele>625.0</ele><time>2026-04-26T09:02:47.001Z</time></trkpt><trkpt lat="40.66470710912274" lon="16.07700579798534"><ele>625.0</ele><time>2026-04-26T09:02:49.001Z</time></trkpt><trkpt lat="40.6646211238193" lon="16.077070732931432"><ele>625.0</ele><time>2026-04-26T09:02:51.001Z</time></trkpt><trkpt lat="40.664566493780555" lon="16.077143304830347"><ele>625.0</ele><time>2026-04-26T09:02:52.001Z</time></trkpt><trkpt lat="40.66449245083547" lon="16.0772945657322"><ele>627.5</ele><time>2026-04-26T09:02:54.001Z</time></trkpt><trkpt lat="40.664396850524646" lon="16.077345312873923"><ele>630.0</ele><time>2026-04-26T09:02:56.001Z</time></trkpt><trkpt lat="40.66433050845241" lon="16.077279314451207"><ele>632.5</ele><time>2026-04-26T09:02:58.001Z</time></trkpt><trkpt lat="40.664323432676774" lon="16.07719626577598"><ele>635.0</ele><time>2026-04-26T09:02:59.001Z</time></trkpt><trkpt lat="40.66423082785793" lon="16.077148552762466"><ele>637.5</ele><time>2026-04-26T09:03:01.001Z</time></trkpt><trkpt lat="40.66416519072893" lon="16.077097929951137"><ele>640.0</ele><time>2026-04-26T09:03:03.001Z</time></trkpt><trkpt lat="40.664078817896026" lon="16.077115498606094"><ele>640.0</ele><time>2026-04-26T09:03:04.001Z</time></trkpt><trkpt lat="40.66399725758841" lon="16.07709524348772"><ele>640.0</ele><time>2026-04-26T09:03:07.001Z</time></trkpt><trkpt lat="40.663888230386824" lon="16.077056071880534"><ele>640.0</ele><time>2026-04-26T09:03:10.001Z</time></trkpt><trkpt lat="40.66378845144996" lon="16.07698261964697"><ele>640.0</ele><time>2026-04-26T09:03:12.001Z</time></trkpt><trkpt lat="40.663632449023524" lon="16.076892879023593"><ele>644.0</ele><time>2026-04-26T09:03:14.001Z</time></trkpt><trkpt lat="40.663560868720836" lon="16.07686010991798"><ele>648.0</ele><time>2026-04-26T09:03:15.001Z</time></trkpt><trkpt lat="40.66346086354867" lon="16.07680946362957"><ele>652.0</ele><time>2026-04-26T09:03:17.001Z</time></trkpt><trkpt lat="40.66335940642306" lon="16.07682828288607"><ele>656.0</ele><time>2026-04-26T09:03:19.001Z</time></trkpt><trkpt lat="40.663270343091014" lon="16.07681763597432"><ele>660.0</ele><time>2026-04-26T09:03:21.001Z</time></trkpt><trkpt lat="40.66318332708387" lon="16.076837561278314"><ele>660.0</ele><time>2026-04-26T09:03:23.001Z</time></trkpt><trkpt lat="40.663100116420615" lon="16.076852767226242"><ele>660.0</ele><time>2026-04-26T09:03:24.001Z</time></trkpt><trkpt lat="40.66302999003512" lon="16.076877776367407"><ele>660.0</ele><time>2026-04-26T09:03:25.001Z</time></trkpt><trkpt lat="40.66296062601338" lon="16.07691966571022"><ele>660.0</ele><time>2026-04-26T09:03:26.001Z</time></trkpt><trkpt lat="40.66289100684265" lon="16.076954461244934"><ele>660.0</ele><time>2026-04-26T09:03:27.001Z</time></trkpt><trkpt lat="40.66279592016986" lon="16.077037548453387"><ele>660.0</ele><time>2026-04-26T09:03:29.001Z</time></trkpt><trkpt lat="40.66270327051406" lon="16.077047896309093"><ele>664.2</ele><time>2026-04-26T09:03:31.001Z</time></trkpt><trkpt lat="40.66259934883163" lon="16.077011982858764"><ele>668.4</ele><time>2026-04-26T09:03:33.001Z</time></trkpt><trkpt lat="40.66250692267722" lon="16.077111589666803"><ele>672.5999999999999</ele><time>2026-04-26T09:03:35.001Z</time></trkpt><trkpt lat="40.66245028600656" lon="16.077164265735984"><ele>676.8</ele><time>2026-04-26T09:03:37.001Z</time></trkpt><trkpt lat="40.66234911920119" lon="16.077196059284052"><ele>681.0</ele><time>2026-04-26T09:03:39.001Z</time></trkpt><trkpt lat="40.66228192676019" lon="16.077201683823642"><ele>681.0</ele><time>2026-04-26T09:03:41.001Z</time></trkpt><trkpt lat="40.66219851547195" lon="16.07715035590051"><ele>681.0</ele><time>2026-04-26T09:03:43.001Z</time></trkpt><trkpt lat="40.66213700700039" lon="16.07701134738524"><ele>681.0</ele><time>2026-04-26T09:03:45.001Z</time></trkpt><trkpt lat="40.66212149081524" lon="16.076917087568052"><ele>681.0</ele><time>2026-04-26T09:03:46.001Z</time></trkpt><trkpt lat="40.66203687160794" lon="16.076830789827213"><ele>681.0</ele><time>2026-04-26T09:03:48.001Z</time></trkpt><trkpt lat="40.66196520628001" lon="16.076770990822382"><ele>680.5999999999999</ele><time>2026-04-26T09:03:49.001Z</time></trkpt><trkpt lat="40.661872333596584" lon="16.07672898868301"><ele>680.2</ele><time>2026-04-26T09:03:50.001Z</time></trkpt><trkpt lat="40.66179413781966" lon="16.076686263928003"><ele>679.8</ele><time>2026-04-26T09:03:51.001Z</time></trkpt><trkpt lat="40.66171490688861" lon="16.076615106558197"><ele>679.4000000000001</ele><time>2026-04-26T09:03:53Z</time></trkpt><trkpt lat="40.661719707571486" lon="16.07651123767848"><ele>679.0</ele><time>2026-04-26T09:03:55Z</time></trkpt><trkpt lat="40.66166610951319" lon="16.076335726151996"><ele>681.6666666666667</ele><time>2026-04-26T09:03:57Z</time></trkpt><trkpt lat="40.66160487569019" lon="16.076252285054192"><ele>684.3333333333334</ele><time>2026-04-26T09:03:58Z</time></trkpt><trkpt lat="40.661583605796736" lon="16.076142110387394"><ele>687.0</ele><time>2026-04-26T09:04:00Z</time></trkpt><trkpt lat="40.66157122598539" lon="16.076000759573585"><ele>689.6666666666666</ele><time>2026-04-26T09:04:02Z</time></trkpt><trkpt lat="40.661507672135144" lon="16.07591694709853"><ele>692.3333333333333</ele><time>2026-04-26T09:04:03Z</time></trkpt><trkpt lat="40.66145584040264" lon="16.07585457390415"><ele>695.0</ele><time>2026-04-26T09:04:04Z</time></trkpt><trkpt lat="40.66144762936219" lon="16.075746286028636"><ele>695.8333333333333</ele><time>2026-04-26T09:04:07Z</time></trkpt><trkpt lat="40.66139077841328" lon="16.07564801055388"><ele>696.6666666666666</ele><time>2026-04-26T09:04:09Z</time></trkpt><trkpt lat="40.66131872430726" lon="16.075564894892842"><ele>697.5</ele><time>2026-04-26T09:04:11Z</time></trkpt><trkpt lat="40.66123540390787" lon="16.07553191319857"><ele>698.3333333333334</ele><time>2026-04-26T09:04:13Z</time></trkpt><trkpt lat="40.661171984403026" lon="16.075505769003847"><ele>699.1666666666667</ele><time>2026-04-26T09:04:14Z</time></trkpt><trkpt lat="40.661119757225514" lon="16.07545734110379"><ele>700.0</ele><time>2026-04-26T09:04:15Z</time></trkpt><trkpt lat="40.66108352374048" lon="16.075367841855883"><ele>701.8333333333334</ele><time>2026-04-26T09:04:16Z</time></trkpt><trkpt lat="40.661053181489756" lon="16.075278152781213"><ele>703.6666666666667</ele><time>2026-04-26T09:04:17Z</time></trkpt><trkpt lat="40.66100525908526" lon="16.07521528937656"><ele>705.5</ele><time>2026-04-26T09:04:18Z</time></trkpt><trkpt lat="40.66095816260858" lon="16.075159554869508"><ele>707.3333333333334</ele><time>2026-04-26T09:04:20Z</time></trkpt><trkpt lat="40.660938389781755" lon="16.075037203611195"><ele>709.1666666666666</ele><time>2026-04-26T09:04:22Z</time></trkpt><trkpt lat="40.66093608744115" lon="16.07485848628818"><ele>711.0</ele><time>2026-04-26T09:04:24Z</time></trkpt><trkpt lat="40.66090749516878" lon="16.074739661725662"><ele>713.5</ele><time>2026-04-26T09:04:25Z</time></trkpt><trkpt lat="40.660890691014785" lon="16.074619874685272"><ele>716.0</ele><time>2026-04-26T09:04:26Z</time></trkpt><trkpt lat="40.66087793350969" lon="16.07453616888776"><ele>718.5</ele><time>2026-04-26T09:04:27Z</time></trkpt><trkpt lat="40.660916128905725" lon="16.07444549999812"><ele>721.0</ele><time>2026-04-26T09:04:29Z</time></trkpt><trkpt lat="40.66100085662195" lon="16.074344568024337"><ele>723.5</ele><time>2026-04-26T09:04:31Z</time></trkpt><trkpt lat="40.66105862835495" lon="16.07424878123301"><ele>726.0</ele><time>2026-04-26T09:04:34.001Z</time></trkpt><trkpt lat="40.661074181955186" lon="16.07411459667603"><ele>724.8333333333334</ele><time>2026-04-26T09:04:36.001Z</time></trkpt><trkpt lat="40.66111850997211" lon="16.073982984563212"><ele>723.6666666666666</ele><time>2026-04-26T09:04:38.001Z</time></trkpt><trkpt lat="40.661073297485046" lon="16.073888566971608"><ele>722.5</ele><time>2026-04-26T09:04:39.001Z</time></trkpt><trkpt lat="40.66103456815468" lon="16.0738045489253"><ele>721.3333333333333</ele><time>2026-04-26T09:04:41.001Z</time></trkpt><trkpt lat="40.66104243349178" lon="16.07369607911558"><ele>720.1666666666666</ele><time>2026-04-26T09:04:44.001Z</time></trkpt><trkpt lat="40.66105539954715" lon="16.07360380929679"><ele>719.0</ele><time>2026-04-26T09:04:45.001Z</time></trkpt><trkpt lat="40.661022900925644" lon="16.073490165732952"><ele>723.8000000000001</ele><time>2026-04-26T09:04:47.001Z</time></trkpt><trkpt lat="40.660921916457404" lon="16.07353121192237"><ele>728.6</ele><time>2026-04-26T09:04:54.001Z</time></trkpt><trkpt lat="40.66081133522921" lon="16.07354782252523"><ele>733.4</ele><time>2026-04-26T09:04:57.001Z</time></trkpt><trkpt lat="40.660761023580314" lon="16.073599326543718"><ele>738.2</ele><time>2026-04-26T09:04:58.001Z</time></trkpt><trkpt lat="40.66065918449307" lon="16.073646825838946"><ele>743.0</ele><time>2026-04-26T09:05:00.001Z</time></trkpt><trkpt lat="40.660567894762416" lon="16.073642357233442"><ele>743.0</ele><time>2026-04-26T09:05:02.001Z</time></trkpt><trkpt lat="40.66045691688058" lon="16.073582328073112"><ele>743.0</ele><time>2026-04-26T09:05:04.001Z</time></trkpt><trkpt lat="40.66034746026608" lon="16.073524708442882"><ele>743.0</ele><time>2026-04-26T09:05:06.001Z</time></trkpt><trkpt lat="40.66027976905973" lon="16.07351040739198"><ele>743.0</ele><time>2026-04-26T09:05:08.001Z</time></trkpt><trkpt lat="40.66020215311233" lon="16.07355770647524"><ele>743.0</ele><time>2026-04-26T09:05:11.001Z</time></trkpt><trkpt lat="40.66015493426836" lon="16.073641085076165"><ele>742.5714285714286</ele><time>2026-04-26T09:05:12.001Z</time></trkpt><trkpt lat="40.66011718436798" lon="16.073729783927554"><ele>742.1428571428571</ele><time>2026-04-26T09:05:13.001Z</time></trkpt><trkpt lat="40.6600662665147" lon="16.07378561354034"><ele>741.7142857142857</ele><time>2026-04-26T09:05:14.001Z</time></trkpt><trkpt lat="40.66000798032991" lon="16.073839216407013"><ele>741.2857142857142</ele><time>2026-04-26T09:05:15.001Z</time></trkpt><trkpt lat="40.65995287819139" lon="16.073908015737494"><ele>740.8571428571429</ele><time>2026-04-26T09:05:16.001Z</time></trkpt><trkpt lat="40.659900270294514" lon="16.07397871373083"><ele>740.4285714285713</ele><time>2026-04-26T09:05:17.001Z</time></trkpt><trkpt lat="40.6598500958547" lon="16.074040179797617"><ele>740.0</ele><time>2026-04-26T09:05:18.001Z</time></trkpt><trkpt lat="40.65979784488474" lon="16.0741180396679"><ele>737.2</ele><time>2026-04-26T09:05:20.001Z</time></trkpt><trkpt lat="40.65976779903562" lon="16.074249524879708"><ele>734.4</ele><time>2026-04-26T09:07:04Z</time></trkpt><trkpt lat="40.65972083938078" lon="16.074353307474436"><ele>731.5999999999999</ele><time>2026-04-26T09:07:05Z</time></trkpt><trkpt lat="40.65966642161802" lon="16.074478589757312"><ele>728.8</ele><time>2026-04-26T09:07:06Z</time></trkpt><trkpt lat="40.65961386475653" lon="16.07460872487374"><ele>726.0</ele><time>2026-04-26T09:07:07Z</time></trkpt><trkpt lat="40.65955635290362" lon="16.0747282989507"><ele>726.0</ele><time>2026-04-26T09:07:08Z</time></trkpt><trkpt lat="40.65951775286651" lon="16.074851412544824"><ele>726.0</ele><time>2026-04-26T09:07:09Z</time></trkpt><trkpt lat="40.659475512271726" lon="16.07498791282985"><ele>726.0</ele><time>2026-04-26T09:07:10Z</time></trkpt><trkpt lat="40.659439708170105" lon="16.07514049313018"><ele>726.0</ele><time>2026-04-26T09:07:11Z</time></trkpt><trkpt lat="40.659398513490565" lon="16.07528897154088"><ele>722.25</ele><time>2026-04-26T09:07:12Z</time></trkpt><trkpt lat="40.659359116826764" lon="16.07542951208004"><ele>718.5</ele><time>2026-04-26T09:07:13Z</time></trkpt><trkpt lat="40.65932418225521" lon="16.075569671749772"><ele>714.75</ele><time>2026-04-26T09:07:14Z</time></trkpt><trkpt lat="40.65928144461984" lon="16.07570186410517"><ele>711.0</ele><time>2026-04-26T09:07:15Z</time></trkpt><trkpt lat="40.659235599928046" lon="16.075841959723327"><ele>709.25</ele><time>2026-04-26T09:07:16Z</time></trkpt><trkpt lat="40.659192932859305" lon="16.075982221610328"><ele>707.5</ele><time>2026-04-26T09:07:17Z</time></trkpt><trkpt lat="40.659156682280795" lon="16.076144038436865"><ele>705.75</ele><time>2026-04-26T09:07:18Z</time></trkpt><trkpt lat="40.659119004201806" lon="16.076302320305093"><ele>704.0</ele><time>2026-04-26T09:07:19Z</time></trkpt><trkpt lat="40.659094182434984" lon="16.076470197496317"><ele>703.0</ele><time>2026-04-26T09:07:20Z</time></trkpt><trkpt lat="40.659076457933594" lon="16.076629437738603"><ele>702.0</ele><time>2026-04-26T09:07:21Z</time></trkpt><trkpt lat="40.65907723366684" lon="16.07680523493077"><ele>701.0</ele><time>2026-04-26T09:07:22Z</time></trkpt><trkpt lat="40.65909542834856" lon="16.07697964587004"><ele>700.0</ele><time>2026-04-26T09:07:23Z</time></trkpt><trkpt lat="40.65910868841379" lon="16.07716884344776"><ele>700.0</ele><time>2026-04-26T09:07:24Z</time></trkpt><trkpt lat="40.65912679894319" lon="16.077358876892692"><ele>700.0</ele><time>2026-04-26T09:07:25Z</time></trkpt><trkpt lat="40.65914405688455" lon="16.07753996407414"><ele>700.0</ele><time>2026-04-26T09:07:26Z</time></trkpt><trkpt lat="40.65917579572812" lon="16.077724807046792"><ele>700.0</ele><time>2026-04-26T09:07:27Z</time></trkpt><trkpt lat="40.65918565936898" lon="16.07790842886569"><ele>699.25</ele><time>2026-04-26T09:07:28Z</time></trkpt><trkpt lat="40.65920778637696" lon="16.07810286209393"><ele>698.5</ele><time>2026-04-26T09:07:29Z</time></trkpt><trkpt lat="40.65922989166403" lon="16.078289261438446"><ele>697.75</ele><time>2026-04-26T09:07:30Z</time></trkpt><trkpt lat="40.659261604744714" lon="16.07846830556558"><ele>697.0</ele><time>2026-04-26T09:07:31Z</time></trkpt><trkpt lat="40.65932451315631" lon="16.078642839362814"><ele>695.75</ele><time>2026-04-26T09:07:32Z</time></trkpt><trkpt lat="40.659384670906306" lon="16.078809297858136"><ele>694.5</ele><time>2026-04-26T09:07:33Z</time></trkpt><trkpt lat="40.65944130376752" lon="16.078979903483276"><ele>693.25</ele><time>2026-04-26T09:07:34Z</time></trkpt><trkpt lat="40.65948941141666" lon="16.079165968904448"><ele>692.0</ele><time>2026-04-26T09:07:35Z</time></trkpt><trkpt lat="40.65954556297871" lon="16.07934379806178"><ele>690.0</ele><time>2026-04-26T09:07:36Z</time></trkpt><trkpt lat="40.659588657575085" lon="16.07951475620905"><ele>688.0</ele><time>2026-04-26T09:07:37Z</time></trkpt><trkpt lat="40.659621381666504" lon="16.079698207514458"><ele>686.0</ele><time>2026-04-26T09:07:38Z</time></trkpt><trkpt lat="40.65965927410813" lon="16.07987926155748"><ele>684.0</ele><time>2026-04-26T09:07:39Z</time></trkpt><trkpt lat="40.659661168585664" lon="16.080083696558766"><ele>684.0</ele><time>2026-04-26T09:07:40Z</time></trkpt><trkpt lat="40.65969686489801" lon="16.080279346575487"><ele>684.0</ele><time>2026-04-26T09:07:41Z</time></trkpt><trkpt lat="40.65970959477511" lon="16.080447094417806"><ele>684.0</ele><time>2026-04-26T09:07:41.999Z</time></trkpt><trkpt lat="40.65971890692171" lon="16.08059992194226"><ele>684.0</ele><time>2026-04-26T09:07:42.999Z</time></trkpt><trkpt lat="40.659727022957284" lon="16.08075321747788"><ele>683.0</ele><time>2026-04-26T09:07:43.999Z</time></trkpt><trkpt lat="40.65972002196353" lon="16.080926265588882"><ele>682.0</ele><time>2026-04-26T09:07:44.999Z</time></trkpt><trkpt lat="40.659704567090216" lon="16.081125543906715"><ele>681.0</ele><time>2026-04-26T09:07:45.999Z</time></trkpt><trkpt lat="40.65966995550581" lon="16.08132755750301"><ele>680.0</ele><time>2026-04-26T09:07:46.999Z</time></trkpt><trkpt lat="40.65964292304604" lon="16.081542036249413"><ele>678.6666666666666</ele><time>2026-04-26T09:07:47.999Z</time></trkpt><trkpt lat="40.659627461181536" lon="16.081770878316284"><ele>677.3333333333334</ele><time>2026-04-26T09:07:48.999Z</time></trkpt><trkpt lat="40.6596226875174" lon="16.08200549892663"><ele>676.0</ele><time>2026-04-26T09:07:49.999Z</time></trkpt><trkpt lat="40.65961948023485" lon="16.082227215802938"><ele>675.6666666666667</ele><time>2026-04-26T09:07:50.999Z</time></trkpt><trkpt lat="40.6596284158807" lon="16.082444733512183"><ele>675.3333333333334</ele><time>2026-04-26T09:07:51.999Z</time></trkpt><trkpt lat="40.65964560715831" lon="16.082670075437587"><ele>675.0</ele><time>2026-04-26T09:07:52.999Z</time></trkpt><trkpt lat="40.65966835253452" lon="16.082892549461175"><ele>675.0</ele><time>2026-04-26T09:07:54Z</time></trkpt><trkpt lat="40.65968594018028" lon="16.08310899486718"><ele>675.0</ele><time>2026-04-26T09:07:55Z</time></trkpt><trkpt lat="40.65970929606666" lon="16.083324839916035"><ele>675.0</ele><time>2026-04-26T09:07:56Z</time></trkpt><trkpt lat="40.65972689752742" lon="16.0835510005748"><ele>675.0</ele><time>2026-04-26T09:07:57Z</time></trkpt><trkpt lat="40.6597408802304" lon="16.083778822516198"><ele>675.0</ele><time>2026-04-26T09:07:58Z</time></trkpt><trkpt lat="40.65975694492603" lon="16.084009549688147"><ele>675.0</ele><time>2026-04-26T09:07:59Z</time></trkpt><trkpt lat="40.65977290438534" lon="16.084241583330115"><ele>674.6666666666666</ele><time>2026-04-26T09:08:00Z</time></trkpt><trkpt lat="40.6597838865946" lon="16.084472174462284"><ele>674.3333333333333</ele><time>2026-04-26T09:08:01Z</time></trkpt><trkpt lat="40.65977877815957" lon="16.0846916969982"><ele>674.0</ele><time>2026-04-26T09:08:02Z</time></trkpt><trkpt lat="40.65977579874089" lon="16.0849127785637"><ele>674.0</ele><time>2026-04-26T09:08:03Z</time></trkpt><trkpt lat="40.65978394817675" lon="16.085130565926576"><ele>674.0</ele><time>2026-04-26T09:08:04Z</time></trkpt><trkpt lat="40.65979099301166" lon="16.085346142578146"><ele>674.0</ele><time>2026-04-26T09:08:05Z</time></trkpt><trkpt lat="40.65979430540649" lon="16.085549563449725"><ele>674.0</ele><time>2026-04-26T09:08:06Z</time></trkpt><trkpt lat="40.6598109225808" lon="16.08575165048354"><ele>674.0</ele><time>2026-04-26T09:08:07Z</time></trkpt><trkpt lat="40.65983792881944" lon="16.08596197451759"><ele>674.0</ele><time>2026-04-26T09:08:08Z</time></trkpt><trkpt lat="40.659867051265095" lon="16.086155333132574"><ele>673.75</ele><time>2026-04-26T09:08:09Z</time></trkpt><trkpt lat="40.65990644991837" lon="16.086332941179155"><ele>673.5</ele><time>2026-04-26T09:08:10Z</time></trkpt><trkpt lat="40.65994628251074" lon="16.08650096828825"><ele>673.25</ele><time>2026-04-26T09:08:11Z</time></trkpt><trkpt lat="40.660006452677315" lon="16.08667041935624"><ele>673.0</ele><time>2026-04-26T09:08:12Z</time></trkpt><trkpt lat="40.66005386188412" lon="16.086843330208378"><ele>673.0</ele><time>2026-04-26T09:08:13Z</time></trkpt><trkpt lat="40.660106536486566" lon="16.087022938387666"><ele>673.0</ele><time>2026-04-26T09:08:14Z</time></trkpt><trkpt lat="40.660164577881034" lon="16.087188026565077"><ele>673.0</ele><time>2026-04-26T09:08:15Z</time></trkpt><trkpt lat="40.66020399854344" lon="16.08730233547822"><ele>673.0</ele><time>2026-04-26T09:08:16Z</time></trkpt><trkpt lat="40.660234547880954" lon="16.087386951790645"><ele>674.0</ele><time>2026-04-26T09:08:17Z</time></trkpt><trkpt lat="40.66025793441948" lon="16.087494657422095"><ele>675.0</ele><time>2026-04-26T09:08:18Z</time></trkpt><trkpt lat="40.660284472024706" lon="16.087630242323094"><ele>676.0</ele><time>2026-04-26T09:08:19Z</time></trkpt><trkpt lat="40.66031756436295" lon="16.08778733564917"><ele>677.0</ele><time>2026-04-26T09:08:20Z</time></trkpt><trkpt lat="40.660352733686715" lon="16.087973472511962"><ele>675.6666666666666</ele><time>2026-04-26T09:08:21Z</time></trkpt><trkpt lat="40.66040237445275" lon="16.088172736717947"><ele>674.3333333333334</ele><time>2026-04-26T09:08:22Z</time></trkpt><trkpt lat="40.66045787061023" lon="16.088382002086888"><ele>673.0</ele><time>2026-04-26T09:08:23Z</time></trkpt><trkpt lat="40.6605198758587" lon="16.08860512566759"><ele>673.0</ele><time>2026-04-26T09:08:24Z</time></trkpt><trkpt lat="40.6605768136258" lon="16.08881482204441"><ele>673.0</ele><time>2026-04-26T09:08:25Z</time></trkpt><trkpt lat="40.660633639304535" lon="16.089017803715997"><ele>673.0</ele><time>2026-04-26T09:08:26Z</time></trkpt><trkpt lat="40.66068634985983" lon="16.089217125533445"><ele>674.5</ele><time>2026-04-26T09:08:27Z</time></trkpt><trkpt lat="40.66072201377635" lon="16.089415392279474"><ele>676.0</ele><time>2026-04-26T09:08:28Z</time></trkpt><trkpt lat="40.66074126517546" lon="16.08960786715251"><ele>677.5</ele><time>2026-04-26T09:08:29Z</time></trkpt><trkpt lat="40.6607441828002" lon="16.089786952893746"><ele>679.0</ele><time>2026-04-26T09:08:30Z</time></trkpt><trkpt lat="40.660727506529966" lon="16.089950094083346"><ele>681.25</ele><time>2026-04-26T09:08:31Z</time></trkpt><trkpt lat="40.6606766566575" lon="16.090112876092956"><ele>683.5</ele><time>2026-04-26T09:08:32Z</time></trkpt><trkpt lat="40.66062131009486" lon="16.090272029731327"><ele>685.75</ele><time>2026-04-26T09:08:33Z</time></trkpt><trkpt lat="40.660528653306166" lon="16.090391062001448"><ele>688.0</ele><time>2026-04-26T09:08:34Z</time></trkpt><trkpt lat="40.66042770066051" lon="16.090507760491064"><ele>688.0</ele><time>2026-04-26T09:08:35Z</time></trkpt><trkpt lat="40.660325481117525" lon="16.0905978748038"><ele>688.0</ele><time>2026-04-26T09:08:36Z</time></trkpt><trkpt lat="40.66021427579476" lon="16.090672731397497"><ele>688.0</ele><time>2026-04-26T09:08:37Z</time></trkpt><trkpt lat="40.6600977813697" lon="16.090747125169322"><ele>688.0</ele><time>2026-04-26T09:08:38Z</time></trkpt><trkpt lat="40.65998299318329" lon="16.090840183218504"><ele>688.5</ele><time>2026-04-26T09:08:39Z</time></trkpt><trkpt lat="40.65985804395882" lon="16.09093649728708"><ele>689.0</ele><time>2026-04-26T09:08:40Z</time></trkpt><trkpt lat="40.65974003491712" lon="16.09105041318495"><ele>689.5</ele><time>2026-04-26T09:08:41Z</time></trkpt><trkpt lat="40.6596413913429" lon="16.091177728249367"><ele>690.0</ele><time>2026-04-26T09:08:42Z</time></trkpt><trkpt lat="40.65953931543541" lon="16.091305947060285"><ele>689.5</ele><time>2026-04-26T09:08:43Z</time></trkpt><trkpt lat="40.659441099217226" lon="16.091439043127103"><ele>689.0</ele><time>2026-04-26T09:08:44Z</time></trkpt><trkpt lat="40.659383329160825" lon="16.09157624239375"><ele>688.5</ele><time>2026-04-26T09:08:45Z</time></trkpt><trkpt lat="40.659335370524644" lon="16.091697425453187"><ele>688.0</ele><time>2026-04-26T09:08:46Z</time></trkpt><trkpt lat="40.65931492933567" lon="16.09182625758844"><ele>688.0</ele><time>2026-04-26T09:08:47Z</time></trkpt><trkpt lat="40.65932573640006" lon="16.09197545200685"><ele>688.0</ele><time>2026-04-26T09:08:48Z</time></trkpt><trkpt lat="40.65935410967902" lon="16.09212827191548"><ele>688.0</ele><time>2026-04-26T09:08:49Z</time></trkpt><trkpt lat="40.659393820000915" lon="16.092280308441598"><ele>688.0</ele><time>2026-04-26T09:08:50Z</time></trkpt><trkpt lat="40.65945165185254" lon="16.09243868071058"><ele>693.25</ele><time>2026-04-26T09:08:51Z</time></trkpt><trkpt lat="40.65952507907241" lon="16.09258698061136"><ele>698.5</ele><time>2026-04-26T09:08:52Z</time></trkpt><trkpt lat="40.65960566674467" lon="16.092731914056426"><ele>703.75</ele><time>2026-04-26T09:08:53Z</time></trkpt><trkpt lat="40.659688597225" lon="16.09285900755531"><ele>709.0</ele><time>2026-04-26T09:08:54Z</time></trkpt><trkpt lat="40.659757034063674" lon="16.09296794727709"><ele>709.0</ele><time>2026-04-26T09:08:55Z</time></trkpt><trkpt lat="40.65980121838871" lon="16.093069772359367"><ele>709.0</ele><time>2026-04-26T09:08:56Z</time></trkpt><trkpt lat="40.659828711522614" lon="16.09316696458101"><ele>709.0</ele><time>2026-04-26T09:08:57Z</time></trkpt><trkpt lat="40.659863745231476" lon="16.093274182568038"><ele>709.0</ele><time>2026-04-26T09:08:58Z</time></trkpt><trkpt lat="40.659903606000775" lon="16.093398240122767"><ele>709.0</ele><time>2026-04-26T09:08:59Z</time></trkpt><trkpt lat="40.65995220325456" lon="16.09353357507832"><ele>709.0</ele><time>2026-04-26T09:09:00Z</time></trkpt><trkpt lat="40.65998705034091" lon="16.09368249776001"><ele>709.0</ele><time>2026-04-26T09:09:01Z</time></trkpt><trkpt lat="40.660002851767" lon="16.09384111628158"><ele>709.0</ele><time>2026-04-26T09:09:02Z</time></trkpt><trkpt lat="40.6600016504887" lon="16.094009870731426"><ele>709.0</ele><time>2026-04-26T09:09:03Z</time></trkpt><trkpt lat="40.6599783080287" lon="16.094182715179418"><ele>709.0</ele><time>2026-04-26T09:09:04Z</time></trkpt><trkpt lat="40.65992912464434" lon="16.094354559185426"><ele>709.0</ele><time>2026-04-26T09:09:05Z</time></trkpt><trkpt lat="40.65990065092997" lon="16.094531978194038"><ele>709.0</ele><time>2026-04-26T09:09:06Z</time></trkpt><trkpt lat="40.6598591330737" lon="16.094686012389655"><ele>709.0</ele><time>2026-04-26T09:09:07Z</time></trkpt><trkpt lat="40.65983049836084" lon="16.09484739082032"><ele>710.5</ele><time>2026-04-26T09:09:08Z</time></trkpt><trkpt lat="40.65981009262271" lon="16.095002200529393"><ele>712.0</ele><time>2026-04-26T09:09:09Z</time></trkpt><trkpt lat="40.659826808361586" lon="16.095157551634095"><ele>713.5</ele><time>2026-04-26T09:09:10Z</time></trkpt><trkpt lat="40.65985877846037" lon="16.09532250386226"><ele>715.0</ele><time>2026-04-26T09:09:11Z</time></trkpt><trkpt lat="40.659891010732366" lon="16.095478555357108"><ele>715.0</ele><time>2026-04-26T09:09:12Z</time></trkpt><trkpt lat="40.65993189579925" lon="16.09562547145893"><ele>715.0</ele><time>2026-04-26T09:09:13Z</time></trkpt><trkpt lat="40.659984084306124" lon="16.095768113718442"><ele>715.0</ele><time>2026-04-26T09:09:14Z</time></trkpt><trkpt lat="40.66005392678426" lon="16.095915447383767"><ele>715.0</ele><time>2026-04-26T09:09:15Z</time></trkpt><trkpt lat="40.66013334462296" lon="16.09606422584698"><ele>715.25</ele><time>2026-04-26T09:09:16Z</time></trkpt><trkpt lat="40.66020685644417" lon="16.096213241279603"><ele>715.5</ele><time>2026-04-26T09:09:17Z</time></trkpt><trkpt lat="40.660264612150335" lon="16.09638008485119"><ele>715.75</ele><time>2026-04-26T09:09:18Z</time></trkpt><trkpt lat="40.66030663247715" lon="16.096560134249152"><ele>716.0</ele><time>2026-04-26T09:09:19Z</time></trkpt><trkpt lat="40.66034632185151" lon="16.096748115956732"><ele>715.0</ele><time>2026-04-26T09:09:20Z</time></trkpt><trkpt lat="40.66037718916998" lon="16.096935101261035"><ele>714.0</ele><time>2026-04-26T09:09:21Z</time></trkpt><trkpt lat="40.66040643371565" lon="16.097100109958745"><ele>713.0</ele><time>2026-04-26T09:09:22Z</time></trkpt><trkpt lat="40.66042527510055" lon="16.09723090835115"><ele>712.0</ele><time>2026-04-26T09:09:23Z</time></trkpt><trkpt lat="40.66043488615537" lon="16.097329521275622"><ele>712.0</ele><time>2026-04-26T09:09:24Z</time></trkpt><trkpt lat="40.66036946201885" lon="16.097348006058997"><ele>712.0</ele><time>2026-04-26T09:09:27Z</time></trkpt><trkpt lat="40.66031904293007" lon="16.097226148910767"><ele>712.0</ele><time>2026-04-26T09:09:29Z</time></trkpt><trkpt lat="40.660265635293655" lon="16.09717009795451"><ele>712.0</ele><time>2026-04-26T09:09:30Z</time></trkpt><trkpt lat="40.660151389620616" lon="16.097056515793042"><ele>712.0</ele><time>2026-04-26T09:09:32Z</time></trkpt><trkpt lat="40.660081723548636" lon="16.09698577537655"><ele>711.4000000000001</ele><time>2026-04-26T09:09:33Z</time></trkpt><trkpt lat="40.66001663912024" lon="16.09691814184374"><ele>710.8000000000001</ele><time>2026-04-26T09:09:34Z</time></trkpt><trkpt lat="40.65995895331308" lon="16.096864143695132"><ele>710.2</ele><time>2026-04-26T09:09:35Z</time></trkpt><trkpt lat="40.65985700148679" lon="16.0968125571246"><ele>709.6</ele><time>2026-04-26T09:09:37Z</time></trkpt><trkpt lat="40.6597363451609" lon="16.096821681757202"><ele>709.0</ele><time>2026-04-26T09:09:39Z</time></trkpt><trkpt lat="40.65967267693745" lon="16.096870635500387"><ele>709.0</ele><time>2026-04-26T09:09:40Z</time></trkpt><trkpt lat="40.65959354877839" lon="16.09694052781245"><ele>709.0</ele><time>2026-04-26T09:09:41Z</time></trkpt><trkpt lat="40.65949525650425" lon="16.097011143714585"><ele>709.0</ele><time>2026-04-26T09:09:42Z</time></trkpt><trkpt lat="40.659412895557594" lon="16.097042117693118"><ele>709.0</ele><time>2026-04-26T09:09:43Z</time></trkpt><trkpt lat="40.65934507984325" lon="16.097036192729266"><ele>709.0</ele><time>2026-04-26T09:09:51Z</time></trkpt><trkpt lat="40.65929677649445" lon="16.096977488558778"><ele>709.0</ele><time>2026-04-26T09:09:53Z</time></trkpt><trkpt lat="40.65920057204626" lon="16.096919695310863"><ele>705.8333333333334</ele><time>2026-04-26T09:09:56Z</time></trkpt><trkpt lat="40.65914062549225" lon="16.096877408086968"><ele>702.6666666666667</ele><time>2026-04-26T09:09:58Z</time></trkpt><trkpt lat="40.659064496637136" lon="16.096818997926302"><ele>699.5</ele><time>2026-04-26T09:10:00Z</time></trkpt><trkpt lat="40.65902576148" lon="16.0967308921956"><ele>696.3333333333334</ele><time>2026-04-26T09:10:04Z</time></trkpt><trkpt lat="40.658976354806796" lon="16.096662979611903"><ele>693.1666666666666</ele><time>2026-04-26T09:10:07Z</time></trkpt><trkpt lat="40.65894006907111" lon="16.096572500650556"><ele>690.0</ele><time>2026-04-26T09:10:11Z</time></trkpt><trkpt lat="40.65883732272235" lon="16.096519973622023"><ele>690.0</ele><time>2026-04-26T09:10:13Z</time></trkpt><trkpt lat="40.658762123204056" lon="16.09647455249497"><ele>690.0</ele><time>2026-04-26T09:10:16Z</time></trkpt><trkpt lat="40.6587058146535" lon="16.096370154978977"><ele>690.0</ele><time>2026-04-26T09:10:18Z</time></trkpt><trkpt lat="40.65863591604755" lon="16.096262705493213"><ele>690.0</ele><time>2026-04-26T09:10:20Z</time></trkpt><trkpt lat="40.658596353324086" lon="16.096159374050774"><ele>690.0</ele><time>2026-04-26T09:10:23Z</time></trkpt><trkpt lat="40.65853084092395" lon="16.09607829908154"><ele>685.0</ele><time>2026-04-26T09:10:25Z</time></trkpt><trkpt lat="40.65843736056014" lon="16.09603329552432"><ele>680.0</ele><time>2026-04-26T09:10:27Z</time></trkpt><trkpt lat="40.65836733934018" lon="16.0959990611729"><ele>675.0</ele><time>2026-04-26T09:10:29Z</time></trkpt><trkpt lat="40.658318274699646" lon="16.095945355518083"><ele>670.0</ele><time>2026-04-26T09:10:31Z</time></trkpt><trkpt lat="40.658243328482214" lon="16.09587691675053"><ele>665.0</ele><time>2026-04-26T09:10:33Z</time></trkpt><trkpt lat="40.658181394960415" lon="16.095812237932027"><ele>660.0</ele><time>2026-04-26T09:10:35Z</time></trkpt><trkpt lat="40.65810539722229" lon="16.095820770683606"><ele>660.0</ele><time>2026-04-26T09:10:37Z</time></trkpt><trkpt lat="40.65803933842401" lon="16.09581332308932"><ele>660.0</ele><time>2026-04-26T09:10:39Z</time></trkpt><trkpt lat="40.65796782285513" lon="16.095837117370348"><ele>660.0</ele><time>2026-04-26T09:10:42Z</time></trkpt><trkpt lat="40.657905095373636" lon="16.09587554296533"><ele>660.0</ele><time>2026-04-26T09:10:45Z</time></trkpt><trkpt lat="40.657822363576464" lon="16.095941384361893"><ele>660.0</ele><time>2026-04-26T09:10:47Z</time></trkpt><trkpt lat="40.657733232763505" lon="16.095990863829368"><ele>660.0</ele><time>2026-04-26T09:10:49Z</time></trkpt><trkpt lat="40.65769108818683" lon="16.095903711938764"><ele>657.0</ele><time>2026-04-26T09:10:52Z</time></trkpt><trkpt lat="40.65762278127169" lon="16.095830152904295"><ele>654.0</ele><time>2026-04-26T09:10:54Z</time></trkpt><trkpt lat="40.65755251121628" lon="16.095855428706766"><ele>651.0</ele><time>2026-04-26T09:10:56Z</time></trkpt><trkpt lat="40.657452006594305" lon="16.095913290386214"><ele>648.0</ele><time>2026-04-26T09:10:58Z</time></trkpt><trkpt lat="40.65739434709519" lon="16.09594935869145"><ele>645.0</ele><time>2026-04-26T09:11:00Z</time></trkpt><trkpt lat="40.65731096047909" lon="16.095863594366183"><ele>642.0</ele><time>2026-04-26T09:11:03Z</time></trkpt><trkpt lat="40.657291720044526" lon="16.09577126724824"><ele>640.4285714285713</ele><time>2026-04-26T09:11:07Z</time></trkpt><trkpt lat="40.657334674821165" lon="16.095687059114475"><ele>638.8571428571429</ele><time>2026-04-26T09:11:11Z</time></trkpt><trkpt lat="40.65735124741218" lon="16.095599152324944"><ele>637.2857142857142</ele><time>2026-04-26T09:11:13Z</time></trkpt><trkpt lat="40.657314095433584" lon="16.095503438026746"><ele>635.7142857142857</ele><time>2026-04-26T09:11:15Z</time></trkpt><trkpt lat="40.65731613400587" lon="16.095416973962962"><ele>634.1428571428571</ele><time>2026-04-26T09:11:17Z</time></trkpt><trkpt lat="40.657332747318264" lon="16.095316905487312"><ele>632.5714285714286</ele><time>2026-04-26T09:11:24Z</time></trkpt><trkpt lat="40.6573065412058" lon="16.09523389850373"><ele>631.0</ele><time>2026-04-26T09:11:30Z</time></trkpt><trkpt lat="40.65725812197963" lon="16.095157278686937"><ele>631.0</ele><time>2026-04-26T09:11:33Z</time></trkpt><trkpt lat="40.65720604476781" lon="16.095107565665128"><ele>631.0</ele><time>2026-04-26T09:11:36Z</time></trkpt><trkpt lat="40.657147943886855" lon="16.09506226664015"><ele>631.0</ele><time>2026-04-26T09:11:37Z</time></trkpt><trkpt lat="40.65708213047246" lon="16.095006399855258"><ele>631.0</ele><time>2026-04-26T09:11:39Z</time></trkpt><trkpt lat="40.65706028902578" lon="16.094898023153345"><ele>631.0</ele><time>2026-04-26T09:11:42Z</time></trkpt><trkpt lat="40.657076845223656" lon="16.09480799853459"><ele>631.0</ele><time>2026-04-26T09:11:46Z</time></trkpt><trkpt lat="40.65704624717419" lon="16.094708256371412"><ele>631.0</ele><time>2026-04-26T09:11:49Z</time></trkpt><trkpt lat="40.65703853997095" lon="16.09461276890755"><ele>631.6666666666667</ele><time>2026-04-26T09:11:53Z</time></trkpt><trkpt lat="40.6570062764301" lon="16.094520270356185"><ele>632.3333333333334</ele><time>2026-04-26T09:11:56Z</time></trkpt><trkpt lat="40.65697711056734" lon="16.094439749311714"><ele>633.0</ele><time>2026-04-26T09:11:58Z</time></trkpt><trkpt lat="40.65693580386264" lon="16.09432451353079"><ele>633.6666666666666</ele><time>2026-04-26T09:12:01Z</time></trkpt><trkpt lat="40.656864975490805" lon="16.094264614509534"><ele>634.3333333333333</ele><time>2026-04-26T09:12:03Z</time></trkpt><trkpt lat="40.656849097629355" lon="16.094164517150105"><ele>635.0</ele><time>2026-04-26T09:12:05Z</time></trkpt><trkpt lat="40.656813063737474" lon="16.094051947078366"><ele>631.6666666666666</ele><time>2026-04-26T09:12:08Z</time></trkpt><trkpt lat="40.65674073162476" lon="16.09397963284942"><ele>628.3333333333333</ele><time>2026-04-26T09:12:10Z</time></trkpt><trkpt lat="40.656729406246" lon="16.09386373541502"><ele>625.0</ele><time>2026-04-26T09:12:13Z</time></trkpt><trkpt lat="40.65675221495046" lon="16.09375783747968"><ele>621.6666666666666</ele><time>2026-04-26T09:12:15Z</time></trkpt><trkpt lat="40.65667502028366" lon="16.09367932266188"><ele>618.3333333333334</ele><time>2026-04-26T09:12:19Z</time></trkpt><trkpt lat="40.65663910584178" lon="16.09361045049778"><ele>615.0</ele><time>2026-04-26T09:12:23Z</time></trkpt><trkpt lat="40.6566033643536" lon="16.09350477011347"><ele>615.0</ele><time>2026-04-26T09:12:26Z</time></trkpt><trkpt lat="40.65657692039507" lon="16.09342770457954"><ele>615.0</ele><time>2026-04-26T09:12:28Z</time></trkpt><trkpt lat="40.656457223819" lon="16.093403961548308"><ele>615.0</ele><time>2026-04-26T09:12:30Z</time></trkpt><trkpt lat="40.65642076864641" lon="16.093322883360546"><ele>615.0</ele><time>2026-04-26T09:12:33Z</time></trkpt><trkpt lat="40.656406535153344" lon="16.093235948748813"><ele>615.0</ele><time>2026-04-26T09:12:36Z</time></trkpt><trkpt lat="40.656341734873266" lon="16.093160335645592"><ele>615.0</ele><time>2026-04-26T09:12:40Z</time></trkpt><trkpt lat="40.656231062841584" lon="16.09317739761939"><ele>615.1666666666666</ele><time>2026-04-26T09:12:42Z</time></trkpt><trkpt lat="40.656145061941714" lon="16.09319847430958"><ele>615.3333333333334</ele><time>2026-04-26T09:12:45Z</time></trkpt><trkpt lat="40.65607809412694" lon="16.09324498175293"><ele>615.5</ele><time>2026-04-26T09:12:47Z</time></trkpt><trkpt lat="40.656006001277255" lon="16.093299929428717"><ele>615.6666666666667</ele><time>2026-04-26T09:12:49Z</time></trkpt><trkpt lat="40.6559115370477" lon="16.093321231028426"><ele>615.8333333333334</ele><time>2026-04-26T09:12:52Z</time></trkpt><trkpt lat="40.655851937329224" lon="16.09336804140741"><ele>616.0</ele><time>2026-04-26T09:12:54Z</time></trkpt><trkpt lat="40.65576320299407" lon="16.093447564355262"><ele>612.0</ele><time>2026-04-26T09:12:59Z</time></trkpt><trkpt lat="40.655687739166744" lon="16.093499559538373"><ele>608.0</ele><time>2026-04-26T09:13:01Z</time></trkpt><trkpt lat="40.655583395867716" lon="16.093489886706813"><ele>604.0</ele><time>2026-04-26T09:13:04Z</time></trkpt><trkpt lat="40.65550966857918" lon="16.093443724871726"><ele>600.0</ele><time>2026-04-26T09:13:07Z</time></trkpt><trkpt lat="40.6554251112541" lon="16.093438929765185"><ele>596.0</ele><time>2026-04-26T09:13:09Z</time></trkpt><trkpt lat="40.65535511991203" lon="16.093441033109535"><ele>592.0</ele><time>2026-04-26T09:13:11Z</time></trkpt><trkpt lat="40.65529062894035" lon="16.09341822244156"><ele>588.6666666666667</ele><time>2026-04-26T09:13:12Z</time></trkpt><trkpt lat="40.655192692817764" lon="16.093396044004205"><ele>585.3333333333334</ele><time>2026-04-26T09:13:14Z</time></trkpt><trkpt lat="40.65512173194876" lon="16.0934027596146"><ele>582.0</ele><time>2026-04-26T09:13:18Z</time></trkpt><trkpt lat="40.655052227843406" lon="16.093450745205114"><ele>578.6666666666666</ele><time>2026-04-26T09:13:21Z</time></trkpt><trkpt lat="40.654969114974975" lon="16.093441061812968"><ele>575.3333333333333</ele><time>2026-04-26T09:13:24Z</time></trkpt><trkpt lat="40.654895820544226" lon="16.093454645066455"><ele>572.0</ele><time>2026-04-26T09:13:26Z</time></trkpt><trkpt lat="40.654809612727774" lon="16.093456138345708"><ele>572.0</ele><time>2026-04-26T09:13:29Z</time></trkpt><trkpt lat="40.65473088487023" lon="16.09338745392803"><ele>572.0</ele><time>2026-04-26T09:13:32Z</time></trkpt><trkpt lat="40.654644018215684" lon="16.09334082962791"><ele>572.0</ele><time>2026-04-26T09:13:34Z</time></trkpt><trkpt lat="40.654568489852636" lon="16.093334592350384"><ele>572.0</ele><time>2026-04-26T09:13:37Z</time></trkpt><trkpt lat="40.65447810614495" lon="16.093340484219684"><ele>572.0</ele><time>2026-04-26T09:13:40.001Z</time></trkpt><trkpt lat="40.65441447680595" lon="16.093243360088348"><ele>571.0</ele><time>2026-04-26T09:13:43.001Z</time></trkpt><trkpt lat="40.65441905692119" lon="16.093106310601495"><ele>570.0</ele><time>2026-04-26T09:13:47.001Z</time></trkpt><trkpt lat="40.654489555685814" lon="16.093094908415658"><ele>569.0</ele><time>2026-04-26T09:13:52.001Z</time></trkpt><trkpt lat="40.654519519389254" lon="16.092949732960548"><ele>568.0</ele><time>2026-04-26T09:13:54.001Z</time></trkpt><trkpt lat="40.65449863641038" lon="16.09284095851478"><ele>567.0</ele><time>2026-04-26T09:13:56.001Z</time></trkpt><trkpt lat="40.65447336974432" lon="16.092762748813122"><ele>566.0</ele><time>2026-04-26T09:13:57.001Z</time></trkpt><trkpt lat="40.65450639542794" lon="16.09264204107071"><ele>566.0</ele><time>2026-04-26T09:13:58.001Z</time></trkpt><trkpt lat="40.65452686212257" lon="16.092473909564166"><ele>566.0</ele><time>2026-04-26T09:13:59.001Z</time></trkpt><trkpt lat="40.65456938602897" lon="16.092395674927623"><ele>566.0</ele><time>2026-04-26T09:14:01.001Z</time></trkpt><trkpt lat="40.65463988197369" lon="16.092325901331836"><ele>566.0</ele><time>2026-04-26T09:14:02.001Z</time></trkpt><trkpt lat="40.65469023258344" lon="16.092223160736165"><ele>566.0</ele><time>2026-04-26T09:14:03.001Z</time></trkpt><trkpt lat="40.65472899514045" lon="16.092156756026714"><ele>566.0</ele><time>2026-04-26T09:14:04.001Z</time></trkpt><trkpt lat="40.65477847814606" lon="16.092103440893613"><ele>565.6</ele><time>2026-04-26T09:14:05.001Z</time></trkpt><trkpt lat="40.654852840913385" lon="16.092066800996964"><ele>565.2</ele><time>2026-04-26T09:14:07.001Z</time></trkpt><trkpt lat="40.654905001446785" lon="16.09194549372417"><ele>564.8</ele><time>2026-04-26T09:14:09Z</time></trkpt><trkpt lat="40.654956297293964" lon="16.091834896681178"><ele>564.4</ele><time>2026-04-26T09:14:10Z</time></trkpt><trkpt lat="40.65503429251776" lon="16.091752631765807"><ele>564.0</ele><time>2026-04-26T09:14:13Z</time></trkpt><trkpt lat="40.65505948069231" lon="16.091668691777674"><ele>565.1666666666666</ele><time>2026-04-26T09:14:14Z</time></trkpt><trkpt lat="40.65511367944383" lon="16.091566072902218"><ele>566.3333333333334</ele><time>2026-04-26T09:14:16Z</time></trkpt><trkpt lat="40.65519953130119" lon="16.091469850358028"><ele>567.5</ele><time>2026-04-26T09:14:18Z</time></trkpt><trkpt lat="40.6552361275752" lon="16.09139517846489"><ele>568.6666666666667</ele><time>2026-04-26T09:14:19Z</time></trkpt><trkpt lat="40.65526300833346" lon="16.091317466134637"><ele>569.8333333333334</ele><time>2026-04-26T09:14:20Z</time></trkpt><trkpt lat="40.65529429190947" lon="16.09119277560127"><ele>571.0</ele><time>2026-04-26T09:14:22Z</time></trkpt><trkpt lat="40.655326875959375" lon="16.091056574014196"><ele>573.2</ele><time>2026-04-26T09:14:25Z</time></trkpt><trkpt lat="40.655338422839684" lon="16.09093769260239"><ele>575.4000000000001</ele><time>2026-04-26T09:14:27Z</time></trkpt><trkpt lat="40.65532372687855" lon="16.09078677573825"><ele>577.6</ele><time>2026-04-26T09:14:29Z</time></trkpt><trkpt lat="40.655296074455826" lon="16.090689834861735"><ele>579.8000000000001</ele><time>2026-04-26T09:14:30Z</time></trkpt><trkpt lat="40.655308578372555" lon="16.090551294413252"><ele>582.0</ele><time>2026-04-26T09:14:32Z</time></trkpt><trkpt lat="40.655286380949256" lon="16.090464225073095"><ele>582.8000000000001</ele><time>2026-04-26T09:14:34Z</time></trkpt><trkpt lat="40.65530561721713" lon="16.09033765980455"><ele>583.6</ele><time>2026-04-26T09:14:36Z</time></trkpt><trkpt lat="40.65530609907576" lon="16.090238064739943"><ele>584.4000000000001</ele><time>2026-04-26T09:14:38Z</time></trkpt><trkpt lat="40.65533286811526" lon="16.09009218197338"><ele>585.2</ele><time>2026-04-26T09:14:40Z</time></trkpt><trkpt lat="40.655330249972195" lon="16.089978625713588"><ele>586.0</ele><time>2026-04-26T09:14:42Z</time></trkpt><trkpt lat="40.65536426110796" lon="16.08983236920543"><ele>584.2</ele><time>2026-04-26T09:14:44Z</time></trkpt><trkpt lat="40.65540887430984" lon="16.089750537478373"><ele>582.4000000000001</ele><time>2026-04-26T09:14:45Z</time></trkpt><trkpt lat="40.65546183266098" lon="16.089664322823594"><ele>580.6</ele><time>2026-04-26T09:14:47Z</time></trkpt><trkpt lat="40.65555193175655" lon="16.08965987933973"><ele>578.8000000000001</ele><time>2026-04-26T09:14:50Z</time></trkpt><trkpt lat="40.65561178803052" lon="16.08972315158057"><ele>577.0</ele><time>2026-04-26T09:14:51Z</time></trkpt><trkpt lat="40.65565209562335" lon="16.08956245411172"><ele>577.0</ele><time>2026-04-26T09:14:58Z</time></trkpt><trkpt lat="40.65568898392274" lon="16.089439754080892"><ele>577.0</ele><time>2026-04-26T09:15:01Z</time></trkpt><trkpt lat="40.65571413177172" lon="16.08929880738312"><ele>577.0</ele><time>2026-04-26T09:15:04Z</time></trkpt><trkpt lat="40.6557439114966" lon="16.089141976795148"><ele>577.0</ele><time>2026-04-26T09:15:05Z</time></trkpt><trkpt lat="40.65589287870744" lon="16.089044864129836"><ele>578.5</ele><time>2026-04-26T09:15:11Z</time></trkpt><trkpt lat="40.65589860960883" lon="16.088930125686943"><ele>580.0</ele><time>2026-04-26T09:15:12Z</time></trkpt><trkpt lat="40.65587730020691" lon="16.088819033994668"><ele>581.5</ele><time>2026-04-26T09:15:14Z</time></trkpt><trkpt lat="40.65568714206532" lon="16.08867581605529"><ele>583.0</ele><time>2026-04-26T09:15:17Z</time></trkpt><trkpt lat="40.65559540318513" lon="16.088663100298277"><ele>583.0</ele><time>2026-04-26T09:15:18Z</time></trkpt><trkpt lat="40.655514351896" lon="16.08864405605294"><ele>583.0</ele><time>2026-04-26T09:15:19Z</time></trkpt><trkpt lat="40.65552481490155" lon="16.0885589187825"><ele>583.0</ele><time>2026-04-26T09:15:21Z</time></trkpt><trkpt lat="40.65549373521757" lon="16.088478758252155"><ele>583.0</ele><time>2026-04-26T09:15:23Z</time></trkpt><trkpt lat="40.65546198816465" lon="16.08839371090129"><ele>583.0</ele><time>2026-04-26T09:15:25Z</time></trkpt><trkpt lat="40.65536951471276" lon="16.088327322913184"><ele>583.0</ele><time>2026-04-26T09:15:27Z</time></trkpt><trkpt lat="40.65528945481619" lon="16.08837129132907"><ele>588.0</ele><time>2026-04-26T09:15:29Z</time></trkpt><trkpt lat="40.655220683100424" lon="16.088338993649288"><ele>593.0</ele><time>2026-04-26T09:15:32Z</time></trkpt><trkpt lat="40.655175981784005" lon="16.08823434474993"><ele>598.0</ele><time>2026-04-26T09:15:33Z</time></trkpt><trkpt lat="40.65512362060841" lon="16.088125078049067"><ele>603.0</ele><time>2026-04-26T09:15:34Z</time></trkpt><trkpt lat="40.65506156603741" lon="16.088049222014472"><ele>608.0</ele><time>2026-04-26T09:15:35Z</time></trkpt><trkpt lat="40.65496402486205" lon="16.08799993286435"><ele>608.8</ele><time>2026-04-26T09:15:37Z</time></trkpt><trkpt lat="40.65485511355207" lon="16.08803228280498"><ele>609.5999999999999</ele><time>2026-04-26T09:15:39Z</time></trkpt><trkpt lat="40.65469635238984" lon="16.08802329838745"><ele>610.4000000000001</ele><time>2026-04-26T09:15:41Z</time></trkpt><trkpt lat="40.65462925166487" lon="16.08799970179509"><ele>611.2</ele><time>2026-04-26T09:15:42Z</time></trkpt><trkpt lat="40.654549365044254" lon="16.088006710758812"><ele>612.0</ele><time>2026-04-26T09:15:43Z</time></trkpt><trkpt lat="40.65446039577597" lon="16.088032244351833"><ele>616.1428571428571</ele><time>2026-04-26T09:15:44Z</time></trkpt><trkpt lat="40.65439523576932" lon="16.08801289913929"><ele>620.2857142857143</ele><time>2026-04-26T09:15:45Z</time></trkpt><trkpt lat="40.654366073068616" lon="16.088087555271823"><ele>624.4285714285714</ele><time>2026-04-26T09:15:46Z</time></trkpt><trkpt lat="40.65429354317792" lon="16.088058100720627"><ele>628.5714285714286</ele><time>2026-04-26T09:15:48Z</time></trkpt><trkpt lat="40.654241279622575" lon="16.08798612654788"><ele>632.7142857142857</ele><time>2026-04-26T09:15:49Z</time></trkpt><trkpt lat="40.65422430730645" lon="16.087865071688935"><ele>636.8571428571429</ele><time>2026-04-26T09:15:50Z</time></trkpt><trkpt lat="40.654220646091446" lon="16.087774554008668"><ele>641.0</ele><time>2026-04-26T09:15:51Z</time></trkpt><trkpt lat="40.65420131487765" lon="16.087691354323564"><ele>641.0</ele><time>2026-04-26T09:15:52Z</time></trkpt><trkpt lat="40.654166376122646" lon="16.08761881501088"><ele>641.0</ele><time>2026-04-26T09:15:53Z</time></trkpt><trkpt lat="40.65410091564006" lon="16.087500852704252"><ele>641.0</ele><time>2026-04-26T09:15:55Z</time></trkpt><trkpt lat="40.65402886902876" lon="16.087379086258377"><ele>641.0</ele><time>2026-04-26T09:15:57Z</time></trkpt><trkpt lat="40.65396680407641" lon="16.087304868269015"><ele>641.0</ele><time>2026-04-26T09:15:58Z</time></trkpt><trkpt lat="40.653937361748376" lon="16.08720413502409"><ele>641.0</ele><time>2026-04-26T09:15:59Z</time></trkpt><trkpt lat="40.65388089074653" lon="16.087104715927197"><ele>641.0</ele><time>2026-04-26T09:16:01Z</time></trkpt><trkpt lat="40.653789239290006" lon="16.087059133278238"><ele>641.0</ele><time>2026-04-26T09:16:03Z</time></trkpt><trkpt lat="40.653727010158796" lon="16.087076145401326"><ele>641.0</ele><time>2026-04-26T09:16:04Z</time></trkpt><trkpt lat="40.653668899284845" lon="16.08713209533973"><ele>641.0</ele><time>2026-04-26T09:16:05Z</time></trkpt><trkpt lat="40.65360440602393" lon="16.08718615413178"><ele>641.0</ele><time>2026-04-26T09:16:06Z</time></trkpt><trkpt lat="40.65351765125016" lon="16.087191618733403"><ele>650.0</ele><time>2026-04-26T09:16:07Z</time></trkpt><trkpt lat="40.65344351916285" lon="16.08722432614034"><ele>659.0</ele><time>2026-04-26T09:16:08Z</time></trkpt><trkpt lat="40.65331861536252" lon="16.087261254715525"><ele>668.0</ele><time>2026-04-26T09:16:10Z</time></trkpt><trkpt lat="40.653253804128546" lon="16.08719633381034"><ele>677.0</ele><time>2026-04-26T09:16:12Z</time></trkpt><trkpt lat="40.653193585883606" lon="16.086981645268068"><ele>677.0</ele><time>2026-04-26T09:16:14Z</time></trkpt><trkpt lat="40.65313641482219" lon="16.086895702259596"><ele>677.0</ele><time>2026-04-26T09:16:15Z</time></trkpt><trkpt lat="40.6531060660556" lon="16.086806833496222"><ele>677.0</ele><time>2026-04-26T09:16:16Z</time></trkpt><trkpt lat="40.65306633929346" lon="16.086676785242457"><ele>677.0</ele><time>2026-04-26T09:16:18Z</time></trkpt><trkpt lat="40.65304715555844" lon="16.086589962197046"><ele>677.0</ele><time>2026-04-26T09:16:21Z</time></trkpt><trkpt lat="40.65295748215923" lon="16.086500102789092"><ele>677.0</ele><time>2026-04-26T09:16:23Z</time></trkpt><trkpt lat="40.65287770077711" lon="16.086392940568302"><ele>678.6</ele><time>2026-04-26T09:16:25Z</time></trkpt><trkpt lat="40.65277156978692" lon="16.086294820755274"><ele>680.2</ele><time>2026-04-26T09:16:27Z</time></trkpt><trkpt lat="40.65270771627007" lon="16.086238504068966"><ele>681.8</ele><time>2026-04-26T09:16:28Z</time></trkpt><trkpt lat="40.65263498221588" lon="16.08616458574978"><ele>683.4</ele><time>2026-04-26T09:16:29Z</time></trkpt><trkpt lat="40.65255324841398" lon="16.086129838608574"><ele>685.0</ele><time>2026-04-26T09:16:30Z</time></trkpt><trkpt lat="40.652503441544205" lon="16.08603755101598"><ele>685.0</ele><time>2026-04-26T09:16:31Z</time></trkpt><trkpt lat="40.65244956939932" lon="16.085960073433235"><ele>685.0</ele><time>2026-04-26T09:16:32Z</time></trkpt><trkpt lat="40.652389855392" lon="16.08586816622055"><ele>685.0</ele><time>2026-04-26T09:16:33Z</time></trkpt><trkpt lat="40.65238170441481" lon="16.085759345330867"><ele>685.0</ele><time>2026-04-26T09:16:34Z</time></trkpt><trkpt lat="40.65239444466538" lon="16.085667931383682"><ele>685.0</ele><time>2026-04-26T09:16:35Z</time></trkpt><trkpt lat="40.65236678454642" lon="16.085581196414225"><ele>685.0</ele><time>2026-04-26T09:16:36Z</time></trkpt><trkpt lat="40.6523577998801" lon="16.085483448527874"><ele>685.5</ele><time>2026-04-26T09:16:37Z</time></trkpt><trkpt lat="40.65233927798424" lon="16.08538960658891"><ele>686.0</ele><time>2026-04-26T09:16:38Z</time></trkpt><trkpt lat="40.65231461853154" lon="16.085301489992197"><ele>686.5</ele><time>2026-04-26T09:16:39Z</time></trkpt><trkpt lat="40.65225927302338" lon="16.085234466409123"><ele>687.0</ele><time>2026-04-26T09:16:40Z</time></trkpt><trkpt lat="40.65219262427686" lon="16.085186034429324"><ele>687.5</ele><time>2026-04-26T09:16:41Z</time></trkpt><trkpt lat="40.65214338957243" lon="16.085116375780274"><ele>688.0</ele><time>2026-04-26T09:16:42Z</time></trkpt><trkpt lat="40.65211427819501" lon="16.0849898276642"><ele>687.3333333333334</ele><time>2026-04-26T09:16:43Z</time></trkpt><trkpt lat="40.65210323462054" lon="16.08489493040658"><ele>686.6666666666667</ele><time>2026-04-26T09:16:44Z</time></trkpt><trkpt lat="40.652054886933634" lon="16.084832613650715"><ele>686.0</ele><time>2026-04-26T09:16:45Z</time></trkpt><trkpt lat="40.65197038644797" lon="16.084731764273727"><ele>685.3333333333334</ele><time>2026-04-26T09:16:47Z</time></trkpt><trkpt lat="40.651909813689755" lon="16.08467964753088"><ele>684.6666666666666</ele><time>2026-04-26T09:16:48Z</time></trkpt><trkpt lat="40.65185294815606" lon="16.084542970530958"><ele>684.0</ele><time>2026-04-26T09:16:50Z</time></trkpt><trkpt lat="40.65179414221036" lon="16.084491743335416"><ele>685.3333333333334</ele><time>2026-04-26T09:16:51Z</time></trkpt><trkpt lat="40.65172389039788" lon="16.084452112012407"><ele>686.6666666666666</ele><time>2026-04-26T09:16:52Z</time></trkpt><trkpt lat="40.65166859505819" lon="16.08439604606969"><ele>688.0</ele><time>2026-04-26T09:16:53Z</time></trkpt><trkpt lat="40.65158616117339" lon="16.084323882698545"><ele>689.3333333333333</ele><time>2026-04-26T09:16:54Z</time></trkpt><trkpt lat="40.65151185866369" lon="16.084277935587764"><ele>690.6666666666666</ele><time>2026-04-26T09:16:55Z</time></trkpt><trkpt lat="40.65146015576482" lon="16.08422784106557"><ele>692.0</ele><time>2026-04-26T09:16:56Z</time></trkpt><trkpt lat="40.65139529567852" lon="16.084195207454567"><ele>692.0</ele><time>2026-04-26T09:16:57Z</time></trkpt><trkpt lat="40.65131130854449" lon="16.0841790650217"><ele>692.0</ele><time>2026-04-26T09:16:58Z</time></trkpt><trkpt lat="40.651242576302906" lon="16.084162965332197"><ele>692.0</ele><time>2026-04-26T09:16:59Z</time></trkpt><trkpt lat="40.65116774543433" lon="16.08412375594854"><ele>692.0</ele><time>2026-04-26T09:17:00Z</time></trkpt><trkpt lat="40.65110415764794" lon="16.084076114593433"><ele>692.0</ele><time>2026-04-26T09:17:01Z</time></trkpt><trkpt lat="40.65107100590491" lon="16.08394777124848"><ele>692.0</ele><time>2026-04-26T09:17:03Z</time></trkpt><trkpt lat="40.65110484219605" lon="16.083877230161995"><ele>690.4000000000001</ele><time>2026-04-26T09:17:04Z</time></trkpt><trkpt lat="40.65113694423383" lon="16.08377758549404"><ele>688.8000000000001</ele><time>2026-04-26T09:17:05Z</time></trkpt><trkpt lat="40.65114701634976" lon="16.08367762685138"><ele>687.2</ele><time>2026-04-26T09:17:06Z</time></trkpt><trkpt lat="40.65115418448939" lon="16.083503076818257"><ele>685.6</ele><time>2026-04-26T09:17:08Z</time></trkpt><trkpt lat="40.65114331980024" lon="16.083366322012214"><ele>684.0</ele><time>2026-04-26T09:17:09Z</time></trkpt><trkpt lat="40.65111565577365" lon="16.08325965111918"><ele>687.5</ele><time>2026-04-26T09:17:10Z</time></trkpt><trkpt lat="40.65108222453355" lon="16.083160714231482"><ele>691.0</ele><time>2026-04-26T09:17:11Z</time></trkpt><trkpt lat="40.651041458275046" lon="16.083064789414422"><ele>694.5</ele><time>2026-04-26T09:17:12Z</time></trkpt><trkpt lat="40.651019592701005" lon="16.082965058247222"><ele>698.0</ele><time>2026-04-26T09:17:13Z</time></trkpt><trkpt lat="40.65097718673735" lon="16.082853165315"><ele>701.5</ele><time>2026-04-26T09:17:14Z</time></trkpt><trkpt lat="40.65094853906675" lon="16.082729767301764"><ele>705.0</ele><time>2026-04-26T09:17:15Z</time></trkpt><trkpt lat="40.65091847017232" lon="16.08260207489421"><ele>705.0</ele><time>2026-04-26T09:17:16Z</time></trkpt><trkpt lat="40.650890956044364" lon="16.08249316570377"><ele>705.0</ele><time>2026-04-26T09:17:17Z</time></trkpt><trkpt lat="40.65086234137385" lon="16.08238293341769"><ele>705.0</ele><time>2026-04-26T09:17:18Z</time></trkpt><trkpt lat="40.650831169695984" lon="16.08229401373681"><ele>705.0</ele><time>2026-04-26T09:17:19Z</time></trkpt><trkpt lat="40.65083258159948" lon="16.082201824720848"><ele>705.0</ele><time>2026-04-26T09:17:22Z</time></trkpt><trkpt lat="40.65077604714075" lon="16.08212992630824"><ele>705.0</ele><time>2026-04-26T09:17:25Z</time></trkpt><trkpt lat="40.65076024376857" lon="16.08204179015023"><ele>704.6666666666666</ele><time>2026-04-26T09:17:26Z</time></trkpt><trkpt lat="40.650703263122416" lon="16.081963340567516"><ele>704.3333333333334</ele><time>2026-04-26T09:17:27Z</time></trkpt><trkpt lat="40.65063396104443" lon="16.081888092850296"><ele>704.0</ele><time>2026-04-26T09:17:28Z</time></trkpt><trkpt lat="40.6505776772349" lon="16.081835611438045"><ele>703.6666666666667</ele><time>2026-04-26T09:17:29Z</time></trkpt><trkpt lat="40.65049134255198" lon="16.081776656670623"><ele>703.3333333333334</ele><time>2026-04-26T09:17:30Z</time></trkpt><trkpt lat="40.6503921705963" lon="16.081716221170385"><ele>703.0</ele><time>2026-04-26T09:17:31Z</time></trkpt><trkpt lat="40.650300842094374" lon="16.08170552676667"><ele>705.2</ele><time>2026-04-26T09:17:33Z</time></trkpt><trkpt lat="40.650204316525475" lon="16.0816197560565"><ele>707.4</ele><time>2026-04-26T09:17:35Z</time></trkpt><trkpt lat="40.65014270144814" lon="16.081487172654217"><ele>709.6</ele><time>2026-04-26T09:17:37Z</time></trkpt><trkpt lat="40.65014303195694" lon="16.08140193415025"><ele>711.8000000000001</ele><time>2026-04-26T09:17:39Z</time></trkpt><trkpt lat="40.650124230930246" lon="16.081244460484214"><ele>714.0</ele><time>2026-04-26T09:17:41Z</time></trkpt><trkpt lat="40.65016237281353" lon="16.081117230966207"><ele>714.0</ele><time>2026-04-26T09:17:43Z</time></trkpt><trkpt lat="40.65021188922356" lon="16.08097739861289"><ele>714.0</ele><time>2026-04-26T09:17:45Z</time></trkpt><trkpt lat="40.650225722252024" lon="16.080830778737383"><ele>714.0</ele><time>2026-04-26T09:17:47Z</time></trkpt><trkpt lat="40.65020082384807" lon="16.080723319577846"><ele>714.0</ele><time>2026-04-26T09:17:49Z</time></trkpt><trkpt lat="40.650294732055016" lon="16.08063208160524"><ele>714.0</ele><time>2026-04-26T09:17:52Z</time></trkpt><trkpt lat="40.65035901011958" lon="16.08058134109437"><ele>710.8000000000001</ele><time>2026-04-26T09:17:54Z</time></trkpt><trkpt lat="40.650413049825104" lon="16.080467941607672"><ele>707.6</ele><time>2026-04-26T09:17:56Z</time></trkpt><trkpt lat="40.650388182863516" lon="16.080318759351897"><ele>704.4</ele><time>2026-04-26T09:17:58Z</time></trkpt><trkpt lat="40.650359637659996" lon="16.080235848143765"><ele>701.2</ele><time>2026-04-26T09:17:59Z</time></trkpt><trkpt lat="40.65037873398144" lon="16.080071272028746"><ele>698.0</ele><time>2026-04-26T09:18:01Z</time></trkpt><trkpt lat="40.650404368268084" lon="16.07999021060846"><ele>702.4</ele><time>2026-04-26T09:18:03Z</time></trkpt><trkpt lat="40.65037812478949" lon="16.07987976820139"><ele>706.8</ele><time>2026-04-26T09:18:08Z</time></trkpt><trkpt lat="40.65033352667357" lon="16.079793958026485"><ele>711.2</ele><time>2026-04-26T09:18:10Z</time></trkpt><trkpt lat="40.6503473310576" lon="16.079661590471222"><ele>715.6</ele><time>2026-04-26T09:18:12Z</time></trkpt><trkpt lat="40.650472613160545" lon="16.07960636125579"><ele>720.0</ele><time>2026-04-26T09:18:18Z</time></trkpt><trkpt lat="40.65053255665449" lon="16.07957983525888"><ele>720.0</ele><time>2026-04-26T09:18:19Z</time></trkpt><trkpt lat="40.650766596907786" lon="16.07957882849935"><ele>720.0</ele><time>2026-04-26T09:18:26Z</time></trkpt><trkpt lat="40.65086320706" lon="16.079573774931816"><ele>720.0</ele><time>2026-04-26T09:18:28Z</time></trkpt><trkpt lat="40.6509629825119" lon="16.079565266717054"><ele>720.0</ele><time>2026-04-26T09:18:31Z</time></trkpt><trkpt lat="40.651064300564286" lon="16.079521342246075"><ele>720.0</ele><time>2026-04-26T09:18:34Z</time></trkpt><trkpt lat="40.65110597742661" lon="16.079593812450593"><ele>720.0</ele><time>2026-04-26T09:18:38Z</time></trkpt><trkpt lat="40.651139096030874" lon="16.07968446646652"><ele>720.0</ele><time>2026-04-26T09:18:41Z</time></trkpt><trkpt lat="40.651193999101444" lon="16.079770348211813"><ele>720.0</ele><time>2026-04-26T09:18:43Z</time></trkpt><trkpt lat="40.651215868879355" lon="16.07985750065298"><ele>720.0</ele><time>2026-04-26T09:18:45Z</time></trkpt><trkpt lat="40.651274726890215" lon="16.079931520860708"><ele>720.0</ele><time>2026-04-26T09:18:48Z</time></trkpt><trkpt lat="40.65129931129712" lon="16.080062407217756"><ele>714.4</ele><time>2026-04-26T09:18:51Z</time></trkpt><trkpt lat="40.651384393391716" lon="16.080124858259932"><ele>708.8</ele><time>2026-04-26T09:18:53Z</time></trkpt><trkpt lat="40.651503001135005" lon="16.080171167613766"><ele>703.2</ele><time>2026-04-26T09:18:55Z</time></trkpt><trkpt lat="40.651541545274114" lon="16.08023791184366"><ele>697.6</ele><time>2026-04-26T09:19:00Z</time></trkpt><trkpt lat="40.651610123244666" lon="16.08032455041714"><ele>692.0</ele><time>2026-04-26T09:19:02Z</time></trkpt><trkpt lat="40.65173960439988" lon="16.080401201917674"><ele>692.0</ele><time>2026-04-26T09:19:04Z</time></trkpt><trkpt lat="40.65182024071329" lon="16.080434524446126"><ele>692.0</ele><time>2026-04-26T09:19:05Z</time></trkpt><trkpt lat="40.65189352450734" lon="16.080422139327585"><ele>692.0</ele><time>2026-04-26T09:19:06Z</time></trkpt><trkpt lat="40.65196731913158" lon="16.08040629919041"><ele>692.0</ele><time>2026-04-26T09:19:08Z</time></trkpt><trkpt lat="40.6520557386407" lon="16.080378282852017"><ele>692.0</ele><time>2026-04-26T09:19:10Z</time></trkpt><trkpt lat="40.652119627776166" lon="16.080418136730515"><ele>692.0</ele><time>2026-04-26T09:19:11Z</time></trkpt><trkpt lat="40.65223093821573" lon="16.080422869535862"><ele>694.0</ele><time>2026-04-26T09:19:13Z</time></trkpt><trkpt lat="40.652322472136966" lon="16.080406020469066"><ele>696.0</ele><time>2026-04-26T09:19:14Z</time></trkpt><trkpt lat="40.65253570598665" lon="16.080399834937072"><ele>698.0</ele><time>2026-04-26T09:19:18Z</time></trkpt><trkpt lat="40.652644062963645" lon="16.080287406792266"><ele>700.0</ele><time>2026-04-26T09:19:20Z</time></trkpt><trkpt lat="40.65269580071353" lon="16.080143355983477"><ele>700.0</ele><time>2026-04-26T09:19:21Z</time></trkpt><trkpt lat="40.65272159475229" lon="16.08004696715099"><ele>700.0</ele><time>2026-04-26T09:19:22Z</time></trkpt><trkpt lat="40.65277090658971" lon="16.079958361034517"><ele>700.0</ele><time>2026-04-26T09:19:23Z</time></trkpt><trkpt lat="40.65287116141394" lon="16.079881919780547"><ele>700.0</ele><time>2026-04-26T09:19:25Z</time></trkpt><trkpt lat="40.65298391950201" lon="16.079848494047184"><ele>700.0</ele><time>2026-04-26T09:19:27Z</time></trkpt><trkpt lat="40.65306413162002" lon="16.079769094475655"><ele>700.6</ele><time>2026-04-26T09:19:29Z</time></trkpt><trkpt lat="40.65314671100131" lon="16.07968436011907"><ele>701.2</ele><time>2026-04-26T09:19:31Z</time></trkpt><trkpt lat="40.65324063465876" lon="16.079680369799643"><ele>701.8</ele><time>2026-04-26T09:19:34Z</time></trkpt><trkpt lat="40.6533498581631" lon="16.079681729318473"><ele>702.4</ele><time>2026-04-26T09:19:36Z</time></trkpt><trkpt lat="40.65343374836725" lon="16.079687452116186"><ele>703.0</ele><time>2026-04-26T09:19:38Z</time></trkpt><trkpt lat="40.65351678513019" lon="16.079562745128083"><ele>703.0</ele><time>2026-04-26T09:19:40Z</time></trkpt><trkpt lat="40.653611964234145" lon="16.079523573665863"><ele>703.0</ele><time>2026-04-26T09:19:42Z</time></trkpt><trkpt lat="40.65369433264562" lon="16.079522806471868"><ele>703.0</ele><time>2026-04-26T09:19:45Z</time></trkpt><trkpt lat="40.65374077598021" lon="16.079438881550853"><ele>703.0</ele><time>2026-04-26T09:19:47Z</time></trkpt><trkpt lat="40.65378042241745" lon="16.079316941766592"><ele>703.0</ele><time>2026-04-26T09:19:49Z</time></trkpt><trkpt lat="40.65381362086502" lon="16.079232097226246"><ele>703.0</ele><time>2026-04-26T09:19:51Z</time></trkpt><trkpt lat="40.65388910640061" lon="16.079176866198516"><ele>701.8571428571429</ele><time>2026-04-26T09:19:53Z</time></trkpt><trkpt lat="40.65394872657307" lon="16.079146736719224"><ele>700.7142857142858</ele><time>2026-04-26T09:19:55Z</time></trkpt><trkpt lat="40.6540008756181" lon="16.079071522672916"><ele>699.5714285714287</ele><time>2026-04-26T09:19:57Z</time></trkpt><trkpt lat="40.654027017240736" lon="16.078995665406854"><ele>698.4285714285714</ele><time>2026-04-26T09:19:59Z</time></trkpt><trkpt lat="40.65399248877846" lon="16.07888291646195"><ele>697.2857142857143</ele><time>2026-04-26T09:20:02Z</time></trkpt><trkpt lat="40.65400316094074" lon="16.078795269087955"><ele>696.1428571428572</ele><time>2026-04-26T09:20:04Z</time></trkpt><trkpt lat="40.654060007292536" lon="16.078736728269977"><ele>695.0</ele><time>2026-04-26T09:20:07Z</time></trkpt><trkpt lat="40.65414723997839" lon="16.07877829122783"><ele>695.0</ele><time>2026-04-26T09:20:10Z</time></trkpt><trkpt lat="40.65420069175739" lon="16.078853965085063"><ele>695.0</ele><time>2026-04-26T09:20:12Z</time></trkpt><trkpt lat="40.65427026603075" lon="16.078912129390034"><ele>695.0</ele><time>2026-04-26T09:20:14Z</time></trkpt><trkpt lat="40.65431717040621" lon="16.078986149454998"><ele>695.0</ele><time>2026-04-26T09:20:16Z</time></trkpt><trkpt lat="40.65432373689829" lon="16.079108361748663"><ele>695.0</ele><time>2026-04-26T09:20:18Z</time></trkpt><trkpt lat="40.65431319637205" lon="16.079227635400386"><ele>695.0</ele><time>2026-04-26T09:20:20Z</time></trkpt><trkpt lat="40.65436957372524" lon="16.07926539298444"><ele>688.6</ele><time>2026-04-26T09:20:22Z</time></trkpt><trkpt lat="40.6544787546424" lon="16.07930225612671"><ele>682.2</ele><time>2026-04-26T09:20:24Z</time></trkpt><trkpt lat="40.65454851730035" lon="16.079300030601814"><ele>675.8</ele><time>2026-04-26T09:20:25Z</time></trkpt><trkpt lat="40.654632962353716" lon="16.079281696874432"><ele>669.4</ele><time>2026-04-26T09:20:26Z</time></trkpt><trkpt lat="40.65471952014209" lon="16.07922230627265"><ele>663.0</ele><time>2026-04-26T09:20:27Z</time></trkpt><trkpt lat="40.654806171348866" lon="16.079192187645333"><ele>662.9999999999999</ele><time>2026-04-26T09:20:28Z</time></trkpt><trkpt lat="40.65487837351702" lon="16.079168174242117"><ele>663.0</ele><time>2026-04-26T09:20:29Z</time></trkpt><trkpt lat="40.654951008112704" lon="16.079145789919252"><ele>663.0</ele><time>2026-04-26T09:20:30Z</time></trkpt><trkpt lat="40.65501871921686" lon="16.0790905688571"><ele>663.0</ele><time>2026-04-26T09:20:31Z</time></trkpt><trkpt lat="40.65508450206263" lon="16.079060496378293"><ele>663.0</ele><time>2026-04-26T09:20:32Z</time></trkpt><trkpt lat="40.65514731933428" lon="16.079027515084363"><ele>662.9999999999999</ele><time>2026-04-26T09:20:33Z</time></trkpt><trkpt lat="40.65521424307119" lon="16.078964135701792"><ele>663.0</ele><time>2026-04-26T09:20:34Z</time></trkpt><trkpt lat="40.65527893323603" lon="16.078935224973403"><ele>660.0</ele><time>2026-04-26T09:20:35Z</time></trkpt><trkpt lat="40.65535469579103" lon="16.07893704687515"><ele>657.0</ele><time>2026-04-26T09:20:36Z</time></trkpt><trkpt lat="40.65542241764948" lon="16.07893048585122"><ele>654.0</ele><time>2026-04-26T09:20:37Z</time></trkpt><trkpt lat="40.65543310291446" lon="16.07884575213004"><ele>651.0</ele><time>2026-04-26T09:20:39Z</time></trkpt><trkpt lat="40.655456270980636" lon="16.078688309397425"><ele>648.0</ele><time>2026-04-26T09:20:41Z</time></trkpt><trkpt lat="40.6555202454889" lon="16.078656532487425"><ele>645.0</ele><time>2026-04-26T09:20:43Z</time></trkpt><trkpt lat="40.6556533968597" lon="16.0786503598616"><ele>645.0</ele><time>2026-04-26T09:20:49Z</time></trkpt><trkpt lat="40.65568337125863" lon="16.07854886813868"><ele>645.0</ele><time>2026-04-26T09:20:51Z</time></trkpt><trkpt lat="40.65573407035674" lon="16.078470515430944"><ele>645.0</ele><time>2026-04-26T09:20:54Z</time></trkpt><trkpt lat="40.655797541990474" lon="16.07844245876041"><ele>645.0</ele><time>2026-04-26T09:20:58Z</time></trkpt><trkpt lat="40.65583573197526" lon="16.078351801469818"><ele>645.0</ele><time>2026-04-26T09:21:06Z</time></trkpt><trkpt lat="40.65583346922095" lon="16.078195750895855"><ele>645.0</ele><time>2026-04-26T09:21:08Z</time></trkpt><trkpt lat="40.65581550500309" lon="16.07809796774659"><ele>646.5</ele><time>2026-04-26T09:21:09Z</time></trkpt><trkpt lat="40.65575879004304" lon="16.077966058447846"><ele>648.0</ele><time>2026-04-26T09:21:11Z</time></trkpt><trkpt lat="40.65563828729097" lon="16.07781951876052"><ele>649.5</ele><time>2026-04-26T09:21:13Z</time></trkpt><trkpt lat="40.65554017096697" lon="16.07769749824359"><ele>651.0</ele><time>2026-04-26T09:21:15Z</time></trkpt><trkpt lat="40.65549201267337" lon="16.077625293870152"><ele>651.0</ele><time>2026-04-26T09:21:16Z</time></trkpt><trkpt lat="40.6554492941461" lon="16.07753814241605"><ele>651.0</ele><time>2026-04-26T09:21:17Z</time></trkpt><trkpt lat="40.655393726593005" lon="16.0774442150787"><ele>651.0</ele><time>2026-04-26T09:21:18Z</time></trkpt><trkpt lat="40.65535675742493" lon="16.077365871943016"><ele>651.0</ele><time>2026-04-26T09:21:19Z</time></trkpt><trkpt lat="40.655329294890414" lon="16.07726800287361"><ele>651.0</ele><time>2026-04-26T09:21:20Z</time></trkpt><trkpt lat="40.65525000889655" lon="16.077162840382865"><ele>651.0</ele><time>2026-04-26T09:21:22Z</time></trkpt><trkpt lat="40.6551745715942" lon="16.077081431636962"><ele>654.6666666666666</ele><time>2026-04-26T09:21:23Z</time></trkpt><trkpt lat="40.655101440761555" lon="16.077023882784367"><ele>658.3333333333334</ele><time>2026-04-26T09:21:24Z</time></trkpt><trkpt lat="40.655051508631644" lon="16.076961925352585"><ele>662.0</ele><time>2026-04-26T09:21:25Z</time></trkpt><trkpt lat="40.655044917882456" lon="16.076850512943512"><ele>665.6666666666667</ele><time>2026-04-26T09:21:27Z</time></trkpt><trkpt lat="40.65508250148458" lon="16.07670742674191"><ele>669.3333333333334</ele><time>2026-04-26T09:21:29Z</time></trkpt><trkpt lat="40.65512637078407" lon="16.07661407589314"><ele>673.0</ele><time>2026-04-26T09:21:31Z</time></trkpt><trkpt lat="40.65523539606373" lon="16.076652979172657"><ele>669.8333333333334</ele><time>2026-04-26T09:21:33Z</time></trkpt><trkpt lat="40.6553082938406" lon="16.076676025885437"><ele>666.6666666666667</ele><time>2026-04-26T09:21:36Z</time></trkpt><trkpt lat="40.65538805273276" lon="16.076632488123742"><ele>663.5</ele><time>2026-04-26T09:21:38Z</time></trkpt><trkpt lat="40.655463448698534" lon="16.0765515887517"><ele>660.3333333333334</ele><time>2026-04-26T09:21:40Z</time></trkpt><trkpt lat="40.6554689823343" lon="16.076433408876216"><ele>657.1666666666666</ele><time>2026-04-26T09:21:42Z</time></trkpt><trkpt lat="40.655426288207195" lon="16.07632645592723"><ele>654.0</ele><time>2026-04-26T09:21:44Z</time></trkpt><trkpt lat="40.65536819051171" lon="16.076283814097625"><ele>658.4000000000001</ele><time>2026-04-26T09:21:45Z</time></trkpt><trkpt lat="40.6552547926909" lon="16.07621672583222"><ele>662.8</ele><time>2026-04-26T09:21:47Z</time></trkpt><trkpt lat="40.65516731835788" lon="16.07615288719629"><ele>667.2</ele><time>2026-04-26T09:21:49Z</time></trkpt><trkpt lat="40.65513307486679" lon="16.07605513893523"><ele>671.5999999999999</ele><time>2026-04-26T09:21:51Z</time></trkpt><trkpt lat="40.655144994502365" lon="16.075940834709492"><ele>676.0</ele><time>2026-04-26T09:21:52Z</time></trkpt><trkpt lat="40.655192495541996" lon="16.07582629523826"><ele>675.5999999999999</ele><time>2026-04-26T09:21:54Z</time></trkpt><trkpt lat="40.655247126182644" lon="16.07575398431724"><ele>675.2</ele><time>2026-04-26T09:21:57Z</time></trkpt><trkpt lat="40.6552167654164" lon="16.07561913445048"><ele>674.8</ele><time>2026-04-26T09:21:59Z</time></trkpt><trkpt lat="40.655148557950035" lon="16.075531030949776"><ele>674.4000000000001</ele><time>2026-04-26T09:22:01Z</time></trkpt><trkpt lat="40.655078065204506" lon="16.075462052480006"><ele>674.0</ele><time>2026-04-26T09:22:03Z</time></trkpt><trkpt lat="40.654986824800716" lon="16.075373993207805"><ele>674.0</ele><time>2026-04-26T09:22:05Z</time></trkpt><trkpt lat="40.65489756606763" lon="16.075344470269656"><ele>674.0</ele><time>2026-04-26T09:22:06Z</time></trkpt><trkpt lat="40.65481485265157" lon="16.075336692309182"><ele>674.0</ele><time>2026-04-26T09:22:07Z</time></trkpt><trkpt lat="40.65474295996248" lon="16.075333439163682"><ele>674.0</ele><time>2026-04-26T09:22:08Z</time></trkpt><trkpt lat="40.65467425956751" lon="16.075291604823118"><ele>674.0</ele><time>2026-04-26T09:22:11Z</time></trkpt><trkpt lat="40.654564309777776" lon="16.075339800094085"><ele>674.0</ele><time>2026-04-26T09:22:13Z</time></trkpt><trkpt lat="40.65451964661948" lon="16.07540993017612"><ele>674.0</ele><time>2026-04-26T09:22:14Z</time></trkpt><trkpt lat="40.654470467337056" lon="16.07548128520836"><ele>674.0</ele><time>2026-04-26T09:22:15Z</time></trkpt><trkpt lat="40.654392162312696" lon="16.075539243435216"><ele>674.0</ele><time>2026-04-26T09:22:17Z</time></trkpt><trkpt lat="40.654304045673136" lon="16.075562827670748"><ele>674.0</ele><time>2026-04-26T09:22:19Z</time></trkpt><trkpt lat="40.6541733490457" lon="16.075515085553693"><ele>674.0</ele><time>2026-04-26T09:22:21Z</time></trkpt><trkpt lat="40.65407928785398" lon="16.07549848340026"><ele>678.6666666666666</ele><time>2026-04-26T09:22:22Z</time></trkpt><trkpt lat="40.65400748745572" lon="16.07547893904377"><ele>683.3333333333333</ele><time>2026-04-26T09:22:23Z</time></trkpt><trkpt lat="40.65392461528005" lon="16.07546872873334"><ele>688.0</ele><time>2026-04-26T09:22:24Z</time></trkpt><trkpt lat="40.653827016186405" lon="16.075468242264446"><ele>692.6666666666666</ele><time>2026-04-26T09:22:25Z</time></trkpt><trkpt lat="40.65374662932956" lon="16.075482808961553"><ele>697.3333333333334</ele><time>2026-04-26T09:22:26Z</time></trkpt><trkpt lat="40.65366014847371" lon="16.0754025559552"><ele>702.0</ele><time>2026-04-26T09:22:28Z</time></trkpt><trkpt lat="40.65360552060976" lon="16.075347068500587"><ele>705.2</ele><time>2026-04-26T09:22:29Z</time></trkpt><trkpt lat="40.65351304746944" lon="16.075328645949174"><ele>708.4000000000001</ele><time>2026-04-26T09:22:30Z</time></trkpt><trkpt lat="40.653440566279535" lon="16.075301784468778"><ele>711.5999999999999</ele><time>2026-04-26T09:22:31Z</time></trkpt><trkpt lat="40.65337902509214" lon="16.075261066288977"><ele>714.8</ele><time>2026-04-26T09:22:32Z</time></trkpt><trkpt lat="40.653292052754665" lon="16.075146428112735"><ele>718.0</ele><time>2026-04-26T09:22:34Z</time></trkpt><trkpt lat="40.653180773827835" lon="16.074997475301853"><ele>717.0</ele><time>2026-04-26T09:22:36Z</time></trkpt><trkpt lat="40.65312054400806" lon="16.07493167607222"><ele>716.0</ele><time>2026-04-26T09:22:37Z</time></trkpt><trkpt lat="40.65315668784775" lon="16.074833612164753"><ele>715.0</ele><time>2026-04-26T09:22:41Z</time></trkpt><trkpt lat="40.653250619534376" lon="16.0747608778688"><ele>714.0</ele><time>2026-04-26T09:22:43Z</time></trkpt><trkpt lat="40.65330240514662" lon="16.07468148189862"><ele>713.0</ele><time>2026-04-26T09:22:44Z</time></trkpt><trkpt lat="40.653358708991014" lon="16.074638905302916"><ele>712.0</ele><time>2026-04-26T09:22:45Z</time></trkpt><trkpt lat="40.65341345438308" lon="16.074597852899398"><ele>712.0</ele><time>2026-04-26T09:22:46Z</time></trkpt><trkpt lat="40.653519140541334" lon="16.0745605537981"><ele>712.0</ele><time>2026-04-26T09:22:48Z</time></trkpt><trkpt lat="40.653636069707346" lon="16.07451484967158"><ele>712.0</ele><time>2026-04-26T09:22:50Z</time></trkpt><trkpt lat="40.653697802008885" lon="16.07448605995485"><ele>712.0</ele><time>2026-04-26T09:22:51Z</time></trkpt><trkpt lat="40.653758399425016" lon="16.07440479779077"><ele>712.0</ele><time>2026-04-26T09:22:53Z</time></trkpt><trkpt lat="40.65388838066497" lon="16.074406933992943"><ele>709.5</ele><time>2026-04-26T09:22:56Z</time></trkpt><trkpt lat="40.65395053907841" lon="16.07442401637633"><ele>707.0</ele><time>2026-04-26T09:22:57Z</time></trkpt><trkpt lat="40.65404816619132" lon="16.074395930809384"><ele>704.5</ele><time>2026-04-26T09:22:59Z</time></trkpt><trkpt lat="40.65415759789012" lon="16.074383818169714"><ele>702.0</ele><time>2026-04-26T09:23:01Z</time></trkpt><trkpt lat="40.65425109462342" lon="16.074434380219376"><ele>699.5</ele><time>2026-04-26T09:23:03Z</time></trkpt><trkpt lat="40.6543152216319" lon="16.07447620563377"><ele>697.0</ele><time>2026-04-26T09:23:05Z</time></trkpt><trkpt lat="40.65436452666374" lon="16.07453913730274"><ele>697.0</ele><time>2026-04-26T09:23:08Z</time></trkpt><trkpt lat="40.654410439617976" lon="16.07460300112606"><ele>697.0</ele><time>2026-04-26T09:23:11Z</time></trkpt><trkpt lat="40.65447047257256" lon="16.074683730643713"><ele>697.0</ele><time>2026-04-26T09:23:14Z</time></trkpt><trkpt lat="40.65448550157138" lon="16.07478610813769"><ele>697.0</ele><time>2026-04-26T09:23:17Z</time></trkpt><trkpt lat="40.654532623737765" lon="16.074881607418718"><ele>697.0</ele><time>2026-04-26T09:23:22Z</time></trkpt><trkpt lat="40.65461393623528" lon="16.074897889684202"><ele>697.0</ele><time>2026-04-26T09:23:24Z</time></trkpt><trkpt lat="40.65468365069726" lon="16.07480339867198"><ele>691.4000000000001</ele><time>2026-04-26T09:23:27Z</time></trkpt><trkpt lat="40.65483373997753" lon="16.074805371633182"><ele>685.8000000000001</ele><time>2026-04-26T09:24:49Z</time></trkpt><trkpt lat="40.654915458080886" lon="16.07475545557799"><ele>680.2</ele><time>2026-04-26T09:24:52Z</time></trkpt><trkpt lat="40.65502415016313" lon="16.07473393361712"><ele>674.6</ele><time>2026-04-26T09:24:57Z</time></trkpt><trkpt lat="40.65505685168635" lon="16.074642399696586"><ele>669.0</ele><time>2026-04-26T09:25:00Z</time></trkpt><trkpt lat="40.655057686289105" lon="16.074526711276437"><ele>669.0</ele><time>2026-04-26T09:25:03Z</time></trkpt><trkpt lat="40.655109386865036" lon="16.07444707492269"><ele>669.0</ele><time>2026-04-26T09:25:05Z</time></trkpt><trkpt lat="40.65517477053843" lon="16.074332573087453"><ele>669.0</ele><time>2026-04-26T09:25:07Z</time></trkpt><trkpt lat="40.65524630778868" lon="16.07422778033983"><ele>669.0</ele><time>2026-04-26T09:25:09Z</time></trkpt><trkpt lat="40.65529904312118" lon="16.07411903787799"><ele>669.0</ele><time>2026-04-26T09:25:11Z</time></trkpt><trkpt lat="40.65533525834235" lon="16.07400275237126"><ele>668.0</ele><time>2026-04-26T09:25:13Z</time></trkpt><trkpt lat="40.65533753374775" lon="16.073911306395516"><ele>667.0</ele><time>2026-04-26T09:25:15Z</time></trkpt><trkpt lat="40.655358895277836" lon="16.073794495983577"><ele>666.0</ele><time>2026-04-26T09:25:18Z</time></trkpt><trkpt lat="40.655341079175194" lon="16.0736936572489"><ele>665.0</ele><time>2026-04-26T09:25:20Z</time></trkpt><trkpt lat="40.655309836017516" lon="16.073611491084094"><ele>664.0</ele><time>2026-04-26T09:25:22Z</time></trkpt><trkpt lat="40.65522413010672" lon="16.07353318187368"><ele>663.0</ele><time>2026-04-26T09:25:24Z</time></trkpt><trkpt lat="40.65516146351653" lon="16.07349003048717"><ele>663.0</ele><time>2026-04-26T09:25:25Z</time></trkpt><trkpt lat="40.655090337344404" lon="16.07341676283755"><ele>663.0</ele><time>2026-04-26T09:25:27Z</time></trkpt><trkpt lat="40.65507804523768" lon="16.07333249874001"><ele>663.0</ele><time>2026-04-26T09:25:28Z</time></trkpt><trkpt lat="40.65499327847114" lon="16.07329209855246"><ele>663.0</ele><time>2026-04-26T09:25:29Z</time></trkpt><trkpt lat="40.65491540880969" lon="16.07326729835221"><ele>663.0</ele><time>2026-04-26T09:25:30Z</time></trkpt><trkpt lat="40.654853560669046" lon="16.073203464414764"><ele>663.0</ele><time>2026-04-26T09:25:31Z</time></trkpt><trkpt lat="40.65478061316198" lon="16.073172091293397"><ele>663.4</ele><time>2026-04-26T09:25:32Z</time></trkpt><trkpt lat="40.65466253312065" lon="16.073123599286024"><ele>663.8</ele><time>2026-04-26T09:25:34Z</time></trkpt><trkpt lat="40.65459226954511" lon="16.073061608774154"><ele>664.2</ele><time>2026-04-26T09:25:35Z</time></trkpt><trkpt lat="40.65453826784059" lon="16.073008959826655"><ele>664.6</ele><time>2026-04-26T09:25:37Z</time></trkpt><trkpt lat="40.65442207111396" lon="16.072905323478334"><ele>665.0</ele><time>2026-04-26T09:25:48Z</time></trkpt><trkpt lat="40.654339471873634" lon="16.07285097790742"><ele>667.8333333333333</ele><time>2026-04-26T09:25:50Z</time></trkpt><trkpt lat="40.65425103517746" lon="16.072858517395698"><ele>670.6666666666666</ele><time>2026-04-26T09:25:52Z</time></trkpt><trkpt lat="40.654187733920324" lon="16.072913624598662"><ele>673.5</ele><time>2026-04-26T09:25:54Z</time></trkpt><trkpt lat="40.654117652587175" lon="16.07281750373716"><ele>676.3333333333334</ele><time>2026-04-26T09:25:57Z</time></trkpt><trkpt lat="40.654010371470754" lon="16.07280487846282"><ele>679.1666666666667</ele><time>2026-04-26T09:25:58Z</time></trkpt><trkpt lat="40.65394800898593" lon="16.07276727370906"><ele>682.0</ele><time>2026-04-26T09:25:59Z</time></trkpt><trkpt lat="40.65382804238407" lon="16.07271808865859"><ele>682.0</ele><time>2026-04-26T09:26:01Z</time></trkpt><trkpt lat="40.65371018621917" lon="16.07272340062333"><ele>682.0</ele><time>2026-04-26T09:26:03Z</time></trkpt><trkpt lat="40.65363678193009" lon="16.072732880823185"><ele>682.0</ele><time>2026-04-26T09:26:04Z</time></trkpt><trkpt lat="40.65356573573463" lon="16.072761871364257"><ele>682.0</ele><time>2026-04-26T09:26:05Z</time></trkpt><trkpt lat="40.653491035764574" lon="16.072756983806432"><ele>682.0</ele><time>2026-04-26T09:26:06Z</time></trkpt><trkpt lat="40.65342567516397" lon="16.072811785681445"><ele>682.0</ele><time>2026-04-26T09:26:07Z</time></trkpt><trkpt lat="40.65338023089048" lon="16.072879502708254"><ele>684.2</ele><time>2026-04-26T09:26:08Z</time></trkpt><trkpt lat="40.653301369875585" lon="16.072919748918885"><ele>686.4000000000001</ele><time>2026-04-26T09:26:10Z</time></trkpt><trkpt lat="40.65318898241548" lon="16.072912150871463"><ele>688.5999999999999</ele><time>2026-04-26T09:26:12Z</time></trkpt><trkpt lat="40.65308732916201" lon="16.072846034629126"><ele>690.8</ele><time>2026-04-26T09:26:14Z</time></trkpt><trkpt lat="40.652970479221494" lon="16.07287596832095"><ele>693.0</ele><time>2026-04-26T09:26:19Z</time></trkpt><trkpt lat="40.65288678581001" lon="16.072898778840134"><ele>693.0</ele><time>2026-04-26T09:26:23Z</time></trkpt><trkpt lat="40.65282449949935" lon="16.072953763252453"><ele>693.0</ele><time>2026-04-26T09:26:25Z</time></trkpt><trkpt lat="40.65274732726977" lon="16.07297827327272"><ele>693.0</ele><time>2026-04-26T09:26:28Z</time></trkpt><trkpt lat="40.65264085987452" lon="16.07303970665821"><ele>693.0</ele><time>2026-04-26T09:26:29Z</time></trkpt><trkpt lat="40.65254378449656" lon="16.073141589914044"><ele>693.0</ele><time>2026-04-26T09:26:30Z</time></trkpt><trkpt lat="40.65247450821858" lon="16.073203135660634"><ele>696.3333333333334</ele><time>2026-04-26T09:26:31Z</time></trkpt><trkpt lat="40.652432911838055" lon="16.073268567754543"><ele>699.6666666666666</ele><time>2026-04-26T09:26:32Z</time></trkpt><trkpt lat="40.65237245582663" lon="16.073317815924668"><ele>703.0</ele><time>2026-04-26T09:26:33Z</time></trkpt><trkpt lat="40.65231711083173" lon="16.073358433120813"><ele>706.3333333333333</ele><time>2026-04-26T09:26:34Z</time></trkpt><trkpt lat="40.65221925443065" lon="16.073419406161456"><ele>709.6666666666666</ele><time>2026-04-26T09:26:36Z</time></trkpt><trkpt lat="40.65214314771871" lon="16.07355363997833"><ele>713.0</ele><time>2026-04-26T09:26:38Z</time></trkpt><trkpt lat="40.65210978809183" lon="16.073625335632244"><ele>714.2</ele><time>2026-04-26T09:26:39Z</time></trkpt><trkpt lat="40.652068960896074" lon="16.073718473277815"><ele>715.4</ele><time>2026-04-26T09:26:41Z</time></trkpt><trkpt lat="40.65195964948928" lon="16.0737799324889"><ele>716.6</ele><time>2026-04-26T09:26:43Z</time></trkpt><trkpt lat="40.65186567647724" lon="16.073784776316"><ele>717.8000000000001</ele><time>2026-04-26T09:26:45Z</time></trkpt><trkpt lat="40.65177728139841" lon="16.0738108382237"><ele>719.0</ele><time>2026-04-26T09:26:46Z</time></trkpt><trkpt lat="40.65171273389316" lon="16.073827615673494"><ele>722.1666666666666</ele><time>2026-04-26T09:26:47Z</time></trkpt><trkpt lat="40.651651319960116" lon="16.07386220923623"><ele>725.3333333333333</ele><time>2026-04-26T09:26:48Z</time></trkpt><trkpt lat="40.65159201466249" lon="16.07393739651364"><ele>728.5</ele><time>2026-04-26T09:26:49Z</time></trkpt><trkpt lat="40.65150336295744" lon="16.073968814397055"><ele>731.6666666666666</ele><time>2026-04-26T09:26:51Z</time></trkpt><trkpt lat="40.651462287884506" lon="16.073872512302877"><ele>734.8333333333334</ele><time>2026-04-26T09:31:09.999Z</time></trkpt><trkpt lat="40.651449575148305" lon="16.07373449143405"><ele>738.0</ele><time>2026-04-26T09:31:12.999Z</time></trkpt><trkpt lat="40.65141101109899" lon="16.073630925005503"><ele>738.0</ele><time>2026-04-26T09:31:14.999Z</time></trkpt><trkpt lat="40.65135175771132" lon="16.07359804864425"><ele>738.0</ele><time>2026-04-26T09:31:16.999Z</time></trkpt><trkpt lat="40.651249966680616" lon="16.073577848227966"><ele>738.0</ele><time>2026-04-26T09:31:18.999Z</time></trkpt><trkpt lat="40.65117151888935" lon="16.073566731796202"><ele>738.0</ele><time>2026-04-26T09:31:19.999Z</time></trkpt><trkpt lat="40.65106411816703" lon="16.07353493911411"><ele>738.0</ele><time>2026-04-26T09:31:21.999Z</time></trkpt><trkpt lat="40.650994639788905" lon="16.07360511375601"><ele>738.0</ele><time>2026-04-26T09:31:23.999Z</time></trkpt><trkpt lat="40.650878169026896" lon="16.073607738715463"><ele>739.0</ele><time>2026-04-26T09:31:25.999Z</time></trkpt><trkpt lat="40.65076437261189" lon="16.073645322939445"><ele>740.0</ele><time>2026-04-26T09:31:27.999Z</time></trkpt><trkpt lat="40.65071551431058" lon="16.073702553452673"><ele>741.0</ele><time>2026-04-26T09:31:28.999Z</time></trkpt><trkpt lat="40.65067384518877" lon="16.073767288226474"><ele>742.0</ele><time>2026-04-26T09:31:29.999Z</time></trkpt><trkpt lat="40.65061261670065" lon="16.073796520744814"><ele>743.0</ele><time>2026-04-26T09:31:31.999Z</time></trkpt><trkpt lat="40.650537660152615" lon="16.07383975121931"><ele>744.0</ele><time>2026-04-26T09:31:33.999Z</time></trkpt><trkpt lat="40.65049335941465" lon="16.073761091489086"><ele>744.0</ele><time>2026-04-26T09:31:36Z</time></trkpt><trkpt lat="40.65042765297255" lon="16.07374786561826"><ele>744.0</ele><time>2026-04-26T09:31:37Z</time></trkpt><trkpt lat="40.650334320801406" lon="16.07375642132237"><ele>744.0</ele><time>2026-04-26T09:31:39Z</time></trkpt><trkpt lat="40.65026966108406" lon="16.073716818315752"><ele>744.0</ele><time>2026-04-26T09:31:41Z</time></trkpt><trkpt lat="40.6501925442603" lon="16.073687470743696"><ele>744.0</ele><time>2026-04-26T09:31:43Z</time></trkpt><trkpt lat="40.650173490941356" lon="16.073554901271496"><ele>744.0</ele><time>2026-04-26T09:31:45Z</time></trkpt><trkpt lat="40.65018753717477" lon="16.073458399810153"><ele>744.0</ele><time>2026-04-26T09:31:46Z</time></trkpt><trkpt lat="40.65014928421563" lon="16.073361206086467"><ele>744.0</ele><time>2026-04-26T09:31:48Z</time></trkpt><trkpt lat="40.650092831264374" lon="16.073289736971407"><ele>744.0</ele><time>2026-04-26T09:31:50Z</time></trkpt><trkpt lat="40.65002858224655" lon="16.07318715730702"><ele>744.0</ele><time>2026-04-26T09:31:52Z</time></trkpt><trkpt lat="40.649965076385385" lon="16.07312501196775"><ele>744.0</ele><time>2026-04-26T09:31:54Z</time></trkpt><trkpt lat="40.64988017824198" lon="16.073165899733596"><ele>744.0</ele><time>2026-04-26T09:31:56Z</time></trkpt><trkpt lat="40.64974981032147" lon="16.073180051473244"><ele>744.0</ele><time>2026-04-26T09:31:58Z</time></trkpt><trkpt lat="40.6496798633217" lon="16.07318469346973"><ele>744.0</ele><time>2026-04-26T09:32:00Z</time></trkpt><trkpt lat="40.64963680567119" lon="16.07310009769763"><ele>744.0</ele><time>2026-04-26T09:32:02Z</time></trkpt><trkpt lat="40.64961168633271" lon="16.072956299472978"><ele>744.0</ele><time>2026-04-26T09:32:04Z</time></trkpt><trkpt lat="40.64961992335237" lon="16.07280177531213"><ele>744.0</ele><time>2026-04-26T09:32:06Z</time></trkpt><trkpt lat="40.64957226865484" lon="16.072730550595978"><ele>744.0</ele><time>2026-04-26T09:32:07Z</time></trkpt><trkpt lat="40.64956805559639" lon="16.07263685619086"><ele>744.0</ele><time>2026-04-26T09:32:08Z</time></trkpt><trkpt lat="40.64953472808624" lon="16.072533258304716"><ele>744.0</ele><time>2026-04-26T09:32:09Z</time></trkpt><trkpt lat="40.649495074972144" lon="16.072432777601993"><ele>744.0</ele><time>2026-04-26T09:32:10Z</time></trkpt><trkpt lat="40.64943490519216" lon="16.072369000787916"><ele>744.0</ele><time>2026-04-26T09:32:11Z</time></trkpt><trkpt lat="40.64934832858112" lon="16.072326314936014"><ele>744.0</ele><time>2026-04-26T09:32:12Z</time></trkpt><trkpt lat="40.64929727752572" lon="16.072197187600178"><ele>745.6</ele><time>2026-04-26T09:32:14Z</time></trkpt><trkpt lat="40.64925938853385" lon="16.072121732694107"><ele>747.2</ele><time>2026-04-26T09:32:16Z</time></trkpt><trkpt lat="40.649187168492105" lon="16.07203177707962"><ele>748.8000000000001</ele><time>2026-04-26T09:32:18Z</time></trkpt><trkpt lat="40.64913400631116" lon="16.07198449588762"><ele>750.4000000000001</ele><time>2026-04-26T09:32:20Z</time></trkpt><trkpt lat="40.648967465092014" lon="16.071927714223442"><ele>752.0</ele><time>2026-04-26T09:32:22Z</time></trkpt><trkpt lat="40.648881797354946" lon="16.071891797227533"><ele>752.0</ele><time>2026-04-26T09:32:23Z</time></trkpt><trkpt lat="40.6488118318036" lon="16.07184065428782"><ele>752.0</ele><time>2026-04-26T09:32:24Z</time></trkpt><trkpt lat="40.64874740261066" lon="16.071754453593474"><ele>752.0</ele><time>2026-04-26T09:32:25Z</time></trkpt><trkpt lat="40.64869166430397" lon="16.071666902950902"><ele>752.0</ele><time>2026-04-26T09:32:26Z</time></trkpt><trkpt lat="40.64861713885648" lon="16.071602064210452"><ele>752.0</ele><time>2026-04-26T09:32:27Z</time></trkpt><trkpt lat="40.648524900361814" lon="16.07153331153014"><ele>753.5</ele><time>2026-04-26T09:32:28Z</time></trkpt><trkpt lat="40.64845465190146" lon="16.071469169988678"><ele>755.0</ele><time>2026-04-26T09:32:29Z</time></trkpt><trkpt lat="40.648379656556486" lon="16.0714207476029"><ele>756.5</ele><time>2026-04-26T09:32:30Z</time></trkpt><trkpt lat="40.64828209838074" lon="16.07138800922258"><ele>758.0</ele><time>2026-04-26T09:32:31Z</time></trkpt><trkpt lat="40.64820916670737" lon="16.071351155049964"><ele>759.5</ele><time>2026-04-26T09:32:32Z</time></trkpt><trkpt lat="40.648126922635555" lon="16.071306332210323"><ele>761.0</ele><time>2026-04-26T09:32:33Z</time></trkpt><trkpt lat="40.64805017671741" lon="16.071286458596454"><ele>761.0</ele><time>2026-04-26T09:32:34Z</time></trkpt><trkpt lat="40.647989913894925" lon="16.071232792973777"><ele>761.0</ele><time>2026-04-26T09:32:35Z</time></trkpt><trkpt lat="40.647962552059575" lon="16.0711539786194"><ele>761.0</ele><time>2026-04-26T09:32:36Z</time></trkpt><trkpt lat="40.64797279863703" lon="16.07096084475882"><ele>761.0</ele><time>2026-04-26T09:32:38Z</time></trkpt><trkpt lat="40.64796736530362" lon="16.070860426163684"><ele>761.0</ele><time>2026-04-26T09:32:39Z</time></trkpt><trkpt lat="40.647934291304345" lon="16.070784191969118"><ele>761.0</ele><time>2026-04-26T09:32:40Z</time></trkpt><trkpt lat="40.6478559188827" lon="16.070716711032958"><ele>762.6666666666666</ele><time>2026-04-26T09:32:42Z</time></trkpt><trkpt lat="40.64780391876817" lon="16.07066420445127"><ele>764.3333333333333</ele><time>2026-04-26T09:33:05Z</time></trkpt><trkpt lat="40.64789634229208" lon="16.070618588574888"><ele>766.0</ele><time>2026-04-26T09:33:08Z</time></trkpt><trkpt lat="40.647973666739745" lon="16.070592203718146"><ele>767.6666666666666</ele><time>2026-04-26T09:33:09Z</time></trkpt><trkpt lat="40.648056605937725" lon="16.070583465175112"><ele>769.3333333333334</ele><time>2026-04-26T09:33:10Z</time></trkpt><trkpt lat="40.648142572305524" lon="16.07058926992824"><ele>771.0</ele><time>2026-04-26T09:33:11Z</time></trkpt><trkpt lat="40.64818589991358" lon="16.07049247500182"><ele>771.0</ele><time>2026-04-26T09:33:12Z</time></trkpt><trkpt lat="40.6482524404787" lon="16.07032657595704"><ele>771.0</ele><time>2026-04-26T09:33:13Z</time></trkpt><trkpt lat="40.6483195201212" lon="16.070266603068728"><ele>771.0</ele><time>2026-04-26T09:33:14Z</time></trkpt><trkpt lat="40.64839950507989" lon="16.07021049980394"><ele>771.0</ele><time>2026-04-26T09:33:15Z</time></trkpt><trkpt lat="40.64848838305481" lon="16.070158336716204"><ele>771.0</ele><time>2026-04-26T09:33:16Z</time></trkpt><trkpt lat="40.64854460841133" lon="16.07009164336114"><ele>771.0</ele><time>2026-04-26T09:33:17Z</time></trkpt><trkpt lat="40.648598555160554" lon="16.069972937067202"><ele>771.0</ele><time>2026-04-26T09:33:19Z</time></trkpt><trkpt lat="40.6486969566624" lon="16.069899638771233"><ele>771.0</ele><time>2026-04-26T09:33:21Z</time></trkpt><trkpt lat="40.648752352451766" lon="16.069824788030797"><ele>771.0</ele><time>2026-04-26T09:33:22Z</time></trkpt><trkpt lat="40.648840863142816" lon="16.069850492786056"><ele>771.0</ele><time>2026-04-26T09:33:25Z</time></trkpt><trkpt lat="40.64885610910567" lon="16.069983613458362"><ele>769.4</ele><time>2026-04-26T09:33:27Z</time></trkpt><trkpt lat="40.64897925831499" lon="16.07007290221368"><ele>767.8</ele><time>2026-04-26T09:33:29Z</time></trkpt><trkpt lat="40.64903980946173" lon="16.070113257452736"><ele>766.1999999999999</ele><time>2026-04-26T09:33:30Z</time></trkpt><trkpt lat="40.649136261998294" lon="16.07014269199098"><ele>764.5999999999999</ele><time>2026-04-26T09:33:31Z</time></trkpt><trkpt lat="40.64925963013172" lon="16.070173521956708"><ele>763.0</ele><time>2026-04-26T09:33:33Z</time></trkpt><trkpt lat="40.64932548037414" lon="16.070192030737516"><ele>763.0</ele><time>2026-04-26T09:33:34Z</time></trkpt><trkpt lat="40.649396449674725" lon="16.07021482455809"><ele>763.0</ele><time>2026-04-26T09:33:35Z</time></trkpt><trkpt lat="40.6494750027226" lon="16.070244714515713"><ele>763.0</ele><time>2026-04-26T09:33:36Z</time></trkpt><trkpt lat="40.64953214276948" lon="16.07028189008103"><ele>763.0</ele><time>2026-04-26T09:33:37Z</time></trkpt><trkpt lat="40.64966321233006" lon="16.070322400318087"><ele>763.0</ele><time>2026-04-26T09:33:39Z</time></trkpt><trkpt lat="40.649787230928816" lon="16.07033025655651"><ele>761.8333333333334</ele><time>2026-04-26T09:33:41Z</time></trkpt><trkpt lat="40.649861932854776" lon="16.070307948493934"><ele>760.6666666666667</ele><time>2026-04-26T09:33:42Z</time></trkpt><trkpt lat="40.649928031916744" lon="16.0703133941832"><ele>759.5</ele><time>2026-04-26T09:33:43Z</time></trkpt><trkpt lat="40.649991760959004" lon="16.070298802824546"><ele>758.3333333333334</ele><time>2026-04-26T09:33:44Z</time></trkpt><trkpt lat="40.65005261552185" lon="16.0702736791035"><ele>757.1666666666666</ele><time>2026-04-26T09:33:45Z</time></trkpt><trkpt lat="40.650199633956476" lon="16.070264098807368"><ele>756.0</ele><time>2026-04-26T09:33:47Z</time></trkpt><trkpt lat="40.65027631148935" lon="16.0702837625456"><ele>754.5714285714286</ele><time>2026-04-26T09:33:48Z</time></trkpt><trkpt lat="40.65034014728829" lon="16.070317322457896"><ele>753.1428571428571</ele><time>2026-04-26T09:33:49Z</time></trkpt><trkpt lat="40.65041541174981" lon="16.070339658380476"><ele>751.7142857142858</ele><time>2026-04-26T09:33:50Z</time></trkpt><trkpt lat="40.6504873235974" lon="16.070362475002003"><ele>750.2857142857142</ele><time>2026-04-26T09:33:51Z</time></trkpt><trkpt lat="40.650552973524846" lon="16.070397994335096"><ele>748.8571428571429</ele><time>2026-04-26T09:33:52Z</time></trkpt><trkpt lat="40.650610128047795" lon="16.07044600556669"><ele>747.4285714285714</ele><time>2026-04-26T09:33:53Z</time></trkpt><trkpt lat="40.65066426883205" lon="16.070496245422635"><ele>746.0</ele><time>2026-04-26T09:33:54Z</time></trkpt><trkpt lat="40.65073276508468" lon="16.070538117885548"><ele>746.0</ele><time>2026-04-26T09:33:55Z</time></trkpt><trkpt lat="40.650816930782135" lon="16.070540059162354"><ele>746.0</ele><time>2026-04-26T09:33:56Z</time></trkpt><trkpt lat="40.65089355666376" lon="16.070534133770156"><ele>746.0</ele><time>2026-04-26T09:33:57Z</time></trkpt><trkpt lat="40.650979847831344" lon="16.070554583264116"><ele>746.0</ele><time>2026-04-26T09:33:58Z</time></trkpt><trkpt lat="40.65107199952276" lon="16.070569012005866"><ele>746.0</ele><time>2026-04-26T09:33:59Z</time></trkpt><trkpt lat="40.651158767157376" lon="16.07058298514339"><ele>746.0</ele><time>2026-04-26T09:34:00Z</time></trkpt><trkpt lat="40.65123939861764" lon="16.070561357158006"><ele>744.8333333333333</ele><time>2026-04-26T09:34:01Z</time></trkpt><trkpt lat="40.65130226742728" lon="16.070550095668427"><ele>743.6666666666666</ele><time>2026-04-26T09:34:02Z</time></trkpt><trkpt lat="40.65141276973934" lon="16.070549700203674"><ele>742.5</ele><time>2026-04-26T09:34:04Z</time></trkpt><trkpt lat="40.65149354820591" lon="16.07058606915559"><ele>741.3333333333334</ele><time>2026-04-26T09:34:05Z</time></trkpt><trkpt lat="40.65157371462918" lon="16.070579455893228"><ele>740.1666666666667</ele><time>2026-04-26T09:34:06Z</time></trkpt><trkpt lat="40.651661584995324" lon="16.0705874372146"><ele>739.0</ele><time>2026-04-26T09:34:07Z</time></trkpt><trkpt lat="40.65173735974746" lon="16.070594976353327"><ele>739.0</ele><time>2026-04-26T09:34:08Z</time></trkpt><trkpt lat="40.65181335741138" lon="16.07056873499783"><ele>739.0</ele><time>2026-04-26T09:34:09Z</time></trkpt><trkpt lat="40.65189359499123" lon="16.070545238425506"><ele>739.0</ele><time>2026-04-26T09:34:10Z</time></trkpt><trkpt lat="40.65198628540101" lon="16.0705199706911"><ele>739.0</ele><time>2026-04-26T09:34:11Z</time></trkpt><trkpt lat="40.652063568752894" lon="16.0705021681499"><ele>739.0</ele><time>2026-04-26T09:34:12Z</time></trkpt><trkpt lat="40.65215533652873" lon="16.070454629062155"><ele>739.0</ele><time>2026-04-26T09:34:13Z</time></trkpt><trkpt lat="40.652262782083795" lon="16.070413474875906"><ele>737.4000000000001</ele><time>2026-04-26T09:34:14Z</time></trkpt><trkpt lat="40.65234755564741" lon="16.07037334664173"><ele>735.8</ele><time>2026-04-26T09:34:15Z</time></trkpt><trkpt lat="40.65241877553886" lon="16.070359786979918"><ele>734.2</ele><time>2026-04-26T09:34:16Z</time></trkpt><trkpt lat="40.65257332749571" lon="16.070329878480116"><ele>732.5999999999999</ele><time>2026-04-26T09:34:18Z</time></trkpt><trkpt lat="40.65265191447191" lon="16.070305158500478"><ele>731.0</ele><time>2026-04-26T09:34:19Z</time></trkpt><trkpt lat="40.652725586100644" lon="16.07025528641363"><ele>729.0</ele><time>2026-04-26T09:34:20Z</time></trkpt><trkpt lat="40.65281184915341" lon="16.070222918286444"><ele>727.0</ele><time>2026-04-26T09:34:21Z</time></trkpt><trkpt lat="40.652910459161305" lon="16.07017846580465"><ele>725.0</ele><time>2026-04-26T09:34:22Z</time></trkpt><trkpt lat="40.65299782100475" lon="16.07012956873355"><ele>723.0</ele><time>2026-04-26T09:34:23Z</time></trkpt><trkpt lat="40.65306853560439" lon="16.070012371350145"><ele>721.0</ele><time>2026-04-26T09:34:25Z</time></trkpt><trkpt lat="40.65299846452363" lon="16.069890866062508"><ele>721.0</ele><time>2026-04-26T09:34:28Z</time></trkpt><trkpt lat="40.652949823958465" lon="16.069801811381403"><ele>721.0</ele><time>2026-04-26T09:34:29Z</time></trkpt><trkpt lat="40.65288888597446" lon="16.069715320478004"><ele>721.0</ele><time>2026-04-26T09:34:30Z</time></trkpt><trkpt lat="40.652853844920664" lon="16.069581578178624"><ele>721.0</ele><time>2026-04-26T09:34:31Z</time></trkpt><trkpt lat="40.6528128659628" lon="16.069479322484987"><ele>721.0</ele><time>2026-04-26T09:34:32Z</time></trkpt><trkpt lat="40.65274914989369" lon="16.06939895573585"><ele>724.0</ele><time>2026-04-26T09:34:33Z</time></trkpt><trkpt lat="40.65268998538463" lon="16.069331674795468"><ele>727.0</ele><time>2026-04-26T09:34:34Z</time></trkpt><trkpt lat="40.652629930512795" lon="16.069302844825447"><ele>730.0</ele><time>2026-04-26T09:34:35Z</time></trkpt><trkpt lat="40.652519858727246" lon="16.069315831636217"><ele>733.0</ele><time>2026-04-26T09:34:36Z</time></trkpt><trkpt lat="40.652417518819476" lon="16.06932934573252"><ele>736.0</ele><time>2026-04-26T09:34:37Z</time></trkpt><trkpt lat="40.652315983313066" lon="16.069364136404335"><ele>736.0</ele><time>2026-04-26T09:34:38Z</time></trkpt><trkpt lat="40.652210939661735" lon="16.0693754113687"><ele>736.0</ele><time>2026-04-26T09:34:39Z</time></trkpt><trkpt lat="40.65214412655876" lon="16.06935912071922"><ele>736.0</ele><time>2026-04-26T09:34:40Z</time></trkpt><trkpt lat="40.6520636941467" lon="16.06936746604946"><ele>736.0</ele><time>2026-04-26T09:34:41Z</time></trkpt><trkpt lat="40.651965397586245" lon="16.06932807729402"><ele>736.0</ele><time>2026-04-26T09:34:42Z</time></trkpt><trkpt lat="40.65185963146439" lon="16.069303817909518"><ele>737.8</ele><time>2026-04-26T09:34:43.001Z</time></trkpt><trkpt lat="40.6517757774116" lon="16.06930803232777"><ele>739.5999999999999</ele><time>2026-04-26T09:34:44.001Z</time></trkpt><trkpt lat="40.6517090559254" lon="16.06929436827841"><ele>741.4</ele><time>2026-04-26T09:34:45.001Z</time></trkpt><trkpt lat="40.651632983354965" lon="16.069145747535508"><ele>743.2</ele><time>2026-04-26T09:34:47.001Z</time></trkpt><trkpt lat="40.65157531983249" lon="16.069080328200386"><ele>745.0</ele><time>2026-04-26T09:34:48.001Z</time></trkpt><trkpt lat="40.651496195468795" lon="16.0690191775012"><ele>745.0</ele><time>2026-04-26T09:34:49.001Z</time></trkpt><trkpt lat="40.6514238281564" lon="16.068985121774013"><ele>745.0</ele><time>2026-04-26T09:34:50.001Z</time></trkpt><trkpt lat="40.65136282533645" lon="16.068956308789954"><ele>745.0</ele><time>2026-04-26T09:34:51.001Z</time></trkpt><trkpt lat="40.65121195197566" lon="16.068923822174973"><ele>745.0</ele><time>2026-04-26T09:34:53.001Z</time></trkpt><trkpt lat="40.65103885231721" lon="16.068997902433082"><ele>749.4</ele><time>2026-04-26T09:34:55.001Z</time></trkpt><trkpt lat="40.65090084768504" lon="16.068962084147973"><ele>753.8</ele><time>2026-04-26T09:34:57.001Z</time></trkpt><trkpt lat="40.65083033936996" lon="16.068909154709623"><ele>758.2</ele><time>2026-04-26T09:34:58.001Z</time></trkpt><trkpt lat="40.65071851753403" lon="16.068873323182487"><ele>762.6</ele><time>2026-04-26T09:34:59.001Z</time></trkpt><trkpt lat="40.65063577570316" lon="16.068832060765143"><ele>767.0</ele><time>2026-04-26T09:35:00Z</time></trkpt><trkpt lat="40.65055544119466" lon="16.0688244307535"><ele>767.0</ele><time>2026-04-26T09:35:01Z</time></trkpt><trkpt lat="40.65047027718625" lon="16.068824347637968"><ele>767.0</ele><time>2026-04-26T09:35:02Z</time></trkpt><trkpt lat="40.65040975750962" lon="16.06878205582711"><ele>767.0</ele><time>2026-04-26T09:35:03Z</time></trkpt><trkpt lat="40.65035022762949" lon="16.068724799172116"><ele>767.0</ele><time>2026-04-26T09:35:04Z</time></trkpt><trkpt lat="40.650276423744096" lon="16.068700219419295"><ele>767.0</ele><time>2026-04-26T09:35:05Z</time></trkpt><trkpt lat="40.65016656403334" lon="16.06868350039877"><ele>767.0</ele><time>2026-04-26T09:35:06Z</time></trkpt><trkpt lat="40.65008935261405" lon="16.068670048893974"><ele>769.6</ele><time>2026-04-26T09:35:07Z</time></trkpt><trkpt lat="40.64994155634657" lon="16.068665605563044"><ele>772.2</ele><time>2026-04-26T09:35:08Z</time></trkpt><trkpt lat="40.64984372975092" lon="16.068656025958955"><ele>774.8</ele><time>2026-04-26T09:35:09Z</time></trkpt><trkpt lat="40.6497539525121" lon="16.068628976696832"><ele>777.4</ele><time>2026-04-26T09:35:10Z</time></trkpt><trkpt lat="40.64967550517313" lon="16.068602287439862"><ele>780.0</ele><time>2026-04-26T09:35:11Z</time></trkpt><trkpt lat="40.64960920245754" lon="16.068587264845743"><ele>780.0</ele><time>2026-04-26T09:35:12Z</time></trkpt><trkpt lat="40.64952824706238" lon="16.06858134801207"><ele>780.0</ele><time>2026-04-26T09:35:13Z</time></trkpt><trkpt lat="40.64945544290145" lon="16.068615682629467"><ele>780.0</ele><time>2026-04-26T09:35:14Z</time></trkpt><trkpt lat="40.64937949432999" lon="16.068618618162166"><ele>780.0</ele><time>2026-04-26T09:35:15Z</time></trkpt><trkpt lat="40.64929458972917" lon="16.06859262740259"><ele>780.0</ele><time>2026-04-26T09:35:16Z</time></trkpt><trkpt lat="40.64922367434748" lon="16.068567661782403"><ele>780.0</ele><time>2026-04-26T09:35:17Z</time></trkpt><trkpt lat="40.64914787985982" lon="16.068528474781747"><ele>781.5</ele><time>2026-04-26T09:35:18Z</time></trkpt><trkpt lat="40.6491179018586" lon="16.068437216044373"><ele>783.0</ele><time>2026-04-26T09:35:19Z</time></trkpt><trkpt lat="40.64912767246201" lon="16.06832945504934"><ele>784.5</ele><time>2026-04-26T09:35:20Z</time></trkpt><trkpt lat="40.64914802623015" lon="16.06825021564031"><ele>786.0</ele><time>2026-04-26T09:35:21Z</time></trkpt><trkpt lat="40.64914130127552" lon="16.06814730495871"><ele>787.5</ele><time>2026-04-26T09:35:22Z</time></trkpt><trkpt lat="40.64910960163115" lon="16.06801273154095"><ele>789.0</ele><time>2026-04-26T09:35:23Z</time></trkpt><trkpt lat="40.64903557443003" lon="16.067905062883973"><ele>789.0</ele><time>2026-04-26T09:35:24Z</time></trkpt><trkpt lat="40.649009739034796" lon="16.067814548112842"><ele>789.0</ele><time>2026-04-26T09:35:25Z</time></trkpt><trkpt lat="40.64896469834554" lon="16.067730184896753"><ele>789.0</ele><time>2026-04-26T09:35:26Z</time></trkpt><trkpt lat="40.648914710936545" lon="16.067653767132704"><ele>789.0</ele><time>2026-04-26T09:35:27Z</time></trkpt><trkpt lat="40.64884088490153" lon="16.06758101313429"><ele>789.0</ele><time>2026-04-26T09:35:28Z</time></trkpt><trkpt lat="40.6487210715877" lon="16.06756142158089"><ele>789.0</ele><time>2026-04-26T09:35:29Z</time></trkpt><trkpt lat="40.648654455881804" lon="16.06753119753079"><ele>792.2</ele><time>2026-04-26T09:35:30Z</time></trkpt><trkpt lat="40.648581685010164" lon="16.06752035522709"><ele>795.4000000000001</ele><time>2026-04-26T09:35:31Z</time></trkpt><trkpt lat="40.64849760072969" lon="16.067594376684283"><ele>798.6</ele><time>2026-04-26T09:35:32Z</time></trkpt><trkpt lat="40.64835130689367" lon="16.067597267523343"><ele>801.8</ele><time>2026-04-26T09:35:33Z</time></trkpt><trkpt lat="40.64825112574056" lon="16.06761095156017"><ele>805.0</ele><time>2026-04-26T09:35:34Z</time></trkpt><trkpt lat="40.648129185468385" lon="16.067646170408693"><ele>804.9999999999999</ele><time>2026-04-26T09:35:35Z</time></trkpt><trkpt lat="40.648036030072966" lon="16.067624797544234"><ele>805.0</ele><time>2026-04-26T09:35:36Z</time></trkpt><trkpt lat="40.64796257030941" lon="16.067609137189304"><ele>805.0</ele><time>2026-04-26T09:35:37Z</time></trkpt><trkpt lat="40.64789756390518" lon="16.067556687344553"><ele>805.0</ele><time>2026-04-26T09:35:38Z</time></trkpt><trkpt lat="40.64784565863908" lon="16.0674700012066"><ele>804.9999999999999</ele><time>2026-04-26T09:35:39Z</time></trkpt><trkpt lat="40.64780527550038" lon="16.067394603557126"><ele>805.0</ele><time>2026-04-26T09:35:40Z</time></trkpt><trkpt lat="40.64776923983906" lon="16.06730233269022"><ele>805.1666666666666</ele><time>2026-04-26T09:35:41Z</time></trkpt><trkpt lat="40.64773009213738" lon="16.06719874704758"><ele>805.3333333333333</ele><time>2026-04-26T09:35:42Z</time></trkpt><trkpt lat="40.64767985640413" lon="16.06709614377626"><ele>805.5</ele><time>2026-04-26T09:35:43Z</time></trkpt><trkpt lat="40.647639932674885" lon="16.06700988272667"><ele>805.6666666666667</ele><time>2026-04-26T09:35:44Z</time></trkpt><trkpt lat="40.64761942541976" lon="16.06691810130128"><ele>805.8333333333334</ele><time>2026-04-26T09:35:45Z</time></trkpt><trkpt lat="40.64760417383139" lon="16.066829115559816"><ele>806.0</ele><time>2026-04-26T09:35:46Z</time></trkpt><trkpt lat="40.64760190242927" lon="16.06674448707621"><ele>806.0000000000001</ele><time>2026-04-26T09:35:47Z</time></trkpt><trkpt lat="40.647570797386614" lon="16.066661836938863"><ele>806.0</ele><time>2026-04-26T09:35:48Z</time></trkpt><trkpt lat="40.64758015920561" lon="16.066545922981906"><ele>806.0</ele><time>2026-04-26T09:35:49Z</time></trkpt><trkpt lat="40.64758414130985" lon="16.066431336767543"><ele>806.0</ele><time>2026-04-26T09:35:50Z</time></trkpt><trkpt lat="40.64757684407665" lon="16.066319825986973"><ele>806.0000000000001</ele><time>2026-04-26T09:35:51Z</time></trkpt><trkpt lat="40.64755328281596" lon="16.06622555140377"><ele>806.0</ele><time>2026-04-26T09:35:52Z</time></trkpt><trkpt lat="40.64752632691755" lon="16.06614318989586"><ele>804.8571428571429</ele><time>2026-04-26T09:35:53Z</time></trkpt><trkpt lat="40.647494977647234" lon="16.066069591773573"><ele>803.7142857142857</ele><time>2026-04-26T09:35:54Z</time></trkpt><trkpt lat="40.64746190719557" lon="16.06599571645852"><ele>802.5714285714286</ele><time>2026-04-26T09:35:55Z</time></trkpt><trkpt lat="40.647418232050704" lon="16.065934554345386"><ele>801.4285714285714</ele><time>2026-04-26T09:35:56Z</time></trkpt><trkpt lat="40.647385534458124" lon="16.065851821479495"><ele>800.2857142857142</ele><time>2026-04-26T09:35:57Z</time></trkpt><trkpt lat="40.64736468798338" lon="16.06575824271099"><ele>799.1428571428571</ele><time>2026-04-26T09:35:58Z</time></trkpt><trkpt lat="40.647366159983356" lon="16.06563896455721"><ele>798.0</ele><time>2026-04-26T09:35:59Z</time></trkpt><trkpt lat="40.64737845199878" lon="16.065495409824788"><ele>797.3333333333334</ele><time>2026-04-26T09:36:00Z</time></trkpt><trkpt lat="40.64735820770718" lon="16.065369985262958"><ele>796.6666666666667</ele><time>2026-04-26T09:36:01Z</time></trkpt><trkpt lat="40.6473539960813" lon="16.0652667210962"><ele>796.0</ele><time>2026-04-26T09:36:02Z</time></trkpt><trkpt lat="40.647385242478244" lon="16.065169582435995"><ele>795.3333333333334</ele><time>2026-04-26T09:36:03Z</time></trkpt><trkpt lat="40.64741356458056" lon="16.065069648664977"><ele>794.6666666666667</ele><time>2026-04-26T09:36:04Z</time></trkpt><trkpt lat="40.64742873252501" lon="16.064976090742466"><ele>794.0</ele><time>2026-04-26T09:36:05Z</time></trkpt><trkpt lat="40.64741150335425" lon="16.06485316543931"><ele>793.0</ele><time>2026-04-26T09:36:06Z</time></trkpt><trkpt lat="40.647392124224424" lon="16.06474374271125"><ele>792.0</ele><time>2026-04-26T09:36:07Z</time></trkpt><trkpt lat="40.64738663702594" lon="16.064647246387427"><ele>791.0</ele><time>2026-04-26T09:36:08Z</time></trkpt><trkpt lat="40.64738401063936" lon="16.06449132457276"><ele>790.0</ele><time>2026-04-26T09:36:10Z</time></trkpt><trkpt lat="40.6473932328235" lon="16.064382368987452"><ele>789.0</ele><time>2026-04-26T09:36:13Z</time></trkpt><trkpt lat="40.64742078558646" lon="16.06426127251327"><ele>789.0</ele><time>2026-04-26T09:36:15Z</time></trkpt><trkpt lat="40.64742297798923" lon="16.064175885829744"><ele>789.0</ele><time>2026-04-26T09:36:16Z</time></trkpt><trkpt lat="40.647400313886216" lon="16.064019072488758"><ele>789.0</ele><time>2026-04-26T09:36:18Z</time></trkpt><trkpt lat="40.64734369707772" lon="16.063957644942747"><ele>789.0</ele><time>2026-04-26T09:36:20.001Z</time></trkpt><trkpt lat="40.647278492686546" lon="16.064001972696627"><ele>789.0</ele><time>2026-04-26T09:36:26.001Z</time></trkpt><trkpt lat="40.64722188086224" lon="16.06396087306191"><ele>789.0</ele><time>2026-04-26T09:36:27.001Z</time></trkpt><trkpt lat="40.6471914465713" lon="16.063835108520284"><ele>789.0</ele><time>2026-04-26T09:36:28.001Z</time></trkpt><trkpt lat="40.64711285922685" lon="16.063696792727566"><ele>789.0</ele><time>2026-04-26T09:36:30.001Z</time></trkpt><trkpt lat="40.64704352032494" lon="16.063669024421216"><ele>789.0</ele><time>2026-04-26T09:36:31.001Z</time></trkpt><trkpt lat="40.64696076742788" lon="16.063667000234023"><ele>789.0</ele><time>2026-04-26T09:36:32.001Z</time></trkpt><trkpt lat="40.64686955461259" lon="16.06368568082344"><ele>789.0</ele><time>2026-04-26T09:36:33.001Z</time></trkpt><trkpt lat="40.64680497059928" lon="16.06365366223257"><ele>789.0</ele><time>2026-04-26T09:36:34.001Z</time></trkpt><trkpt lat="40.64670145463209" lon="16.063498920546323"><ele>793.0</ele><time>2026-04-26T09:36:36.001Z</time></trkpt><trkpt lat="40.646615943714316" lon="16.063384250797103"><ele>797.0</ele><time>2026-04-26T09:36:38.001Z</time></trkpt><trkpt lat="40.646529103787536" lon="16.06330040615866"><ele>801.0</ele><time>2026-04-26T09:36:39.001Z</time></trkpt><trkpt lat="40.64636715599041" lon="16.0632590720526"><ele>805.0</ele><time>2026-04-26T09:36:40.001Z</time></trkpt><trkpt lat="40.646279633943834" lon="16.063222736957908"><ele>805.6</ele><time>2026-04-26T09:36:41.001Z</time></trkpt><trkpt lat="40.64621004404402" lon="16.06313412043109"><ele>806.2</ele><time>2026-04-26T09:36:43.001Z</time></trkpt><trkpt lat="40.64613295470762" lon="16.06313135722414"><ele>806.8</ele><time>2026-04-26T09:36:52.001Z</time></trkpt><trkpt lat="40.64604296291814" lon="16.063222546833277"><ele>807.4</ele><time>2026-04-26T09:36:54.001Z</time></trkpt><trkpt lat="40.64598935265903" lon="16.063316079276944"><ele>808.0</ele><time>2026-04-26T09:36:55.001Z</time></trkpt><trkpt lat="40.64592895378098" lon="16.06348559304454"><ele>810.8</ele><time>2026-04-26T09:36:56.001Z</time></trkpt><trkpt lat="40.645862565827464" lon="16.063589308347456"><ele>813.5999999999999</ele><time>2026-04-26T09:36:58.001Z</time></trkpt><trkpt lat="40.64588974624553" lon="16.063503492508772"><ele>816.4000000000001</ele><time>2026-04-26T09:37:00.001Z</time></trkpt><trkpt lat="40.645827843921765" lon="16.063528088444073"><ele>819.2</ele><time>2026-04-26T09:37:01.001Z</time></trkpt><trkpt lat="40.64581635299238" lon="16.063627405791554"><ele>822.0</ele><time>2026-04-26T09:37:02.001Z</time></trkpt><trkpt lat="40.64568036770123" lon="16.063698869176452"><ele>822.0</ele><time>2026-04-26T09:37:04.001Z</time></trkpt><trkpt lat="40.64552534813018" lon="16.063744994121574"><ele>822.0</ele><time>2026-04-26T09:37:07.001Z</time></trkpt><trkpt lat="40.64544819362664" lon="16.06389046556268"><ele>822.0</ele><time>2026-04-26T09:37:09.001Z</time></trkpt><trkpt lat="40.64539275778743" lon="16.063943993050554"><ele>822.0</ele><time>2026-04-26T09:37:11.001Z</time></trkpt><trkpt lat="40.64533069540817" lon="16.06402029242677"><ele>822.0</ele><time>2026-04-26T09:37:13.001Z</time></trkpt><trkpt lat="40.645283753791965" lon="16.06408470099755"><ele>826.6</ele><time>2026-04-26T09:37:16.001Z</time></trkpt><trkpt lat="40.64520564100398" lon="16.064129005670388"><ele>831.2</ele><time>2026-04-26T09:37:18.001Z</time></trkpt><trkpt lat="40.64521395442851" lon="16.064214332596872"><ele>835.8</ele><time>2026-04-26T09:37:20.001Z</time></trkpt><trkpt lat="40.64513834367412" lon="16.064239756503888"><ele>840.4</ele><time>2026-04-26T09:37:23.001Z</time></trkpt><trkpt lat="40.645029432930336" lon="16.06427254735747"><ele>845.0</ele><time>2026-04-26T09:37:26Z</time></trkpt><trkpt lat="40.644798882032454" lon="16.06428266623171"><ele>845.0000000000001</ele><time>2026-04-26T09:37:27Z</time></trkpt><trkpt lat="40.644853724544895" lon="16.06422883814736"><ele>845.0</ele><time>2026-04-26T09:37:28Z</time></trkpt><trkpt lat="40.644763476590015" lon="16.064255562496353"><ele>845.0</ele><time>2026-04-26T09:37:29Z</time></trkpt><trkpt lat="40.64468125586592" lon="16.064271631259015"><ele>845.0</ele><time>2026-04-26T09:37:30Z</time></trkpt><trkpt lat="40.64463875232068" lon="16.064371699184676"><ele>845.0000000000001</ele><time>2026-04-26T09:37:31Z</time></trkpt><trkpt lat="40.644581863859095" lon="16.06443078604245"><ele>845.0</ele><time>2026-04-26T09:37:32Z</time></trkpt><trkpt lat="40.64453642447212" lon="16.064356288761815"><ele>845.0</ele><time>2026-04-26T09:37:34Z</time></trkpt><trkpt lat="40.64447781105899" lon="16.064291719400977"><ele>845.0</ele><time>2026-04-26T09:37:36Z</time></trkpt><trkpt lat="40.644494377853256" lon="16.064166408290404"><ele>845.0</ele><time>2026-04-26T09:37:37Z</time></trkpt><trkpt lat="40.644455965414586" lon="16.06400104643654"><ele>845.0</ele><time>2026-04-26T09:37:39Z</time></trkpt><trkpt lat="40.64439151305426" lon="16.063962097439042"><ele>845.0</ele><time>2026-04-26T09:37:41Z</time></trkpt><trkpt lat="40.64432569497176" lon="16.063903926695545"><ele>849.6</ele><time>2026-04-26T09:37:42Z</time></trkpt><trkpt lat="40.64424132196874" lon="16.063863146188144"><ele>854.2</ele><time>2026-04-26T09:37:43Z</time></trkpt><trkpt lat="40.644178451052646" lon="16.06380537879106"><ele>858.8</ele><time>2026-04-26T09:37:44Z</time></trkpt><trkpt lat="40.64409357466346" lon="16.063757710051405"><ele>863.4</ele><time>2026-04-26T09:37:45Z</time></trkpt><trkpt lat="40.64401261933727" lon="16.063728714479108"><ele>868.0</ele><time>2026-04-26T09:37:46Z</time></trkpt><trkpt lat="40.64401933454807" lon="16.063576838375585"><ele>867.9999999999999</ele><time>2026-04-26T09:37:48Z</time></trkpt><trkpt lat="40.64404410241425" lon="16.063459189862005"><ele>868.0</ele><time>2026-04-26T09:37:49Z</time></trkpt><trkpt lat="40.64406026292102" lon="16.063340694789165"><ele>868.0</ele><time>2026-04-26T09:37:51Z</time></trkpt><trkpt lat="40.64402942938426" lon="16.063264611544597"><ele>868.0</ele><time>2026-04-26T09:37:53Z</time></trkpt><trkpt lat="40.644027713260115" lon="16.06317829197238"><ele>867.9999999999999</ele><time>2026-04-26T09:37:59Z</time></trkpt><trkpt lat="40.64393576034285" lon="16.06306315282963"><ele>868.0</ele><time>2026-04-26T09:38:01Z</time></trkpt><trkpt lat="40.64389713341295" lon="16.062980316247565"><ele>866.1666666666666</ele><time>2026-04-26T09:38:02Z</time></trkpt><trkpt lat="40.643857642601574" lon="16.06289785923547"><ele>864.3333333333333</ele><time>2026-04-26T09:38:04Z</time></trkpt><trkpt lat="40.6437892130476" lon="16.062834666034988"><ele>862.5</ele><time>2026-04-26T09:38:06Z</time></trkpt><trkpt lat="40.64374171090234" lon="16.062689098641037"><ele>860.6666666666667</ele><time>2026-04-26T09:38:09Z</time></trkpt><trkpt lat="40.643685310353746" lon="16.06259824625237"><ele>858.8333333333334</ele><time>2026-04-26T09:38:10Z</time></trkpt><trkpt lat="40.64365172800862" lon="16.06250051733861"><ele>857.0</ele><time>2026-04-26T09:38:11Z</time></trkpt><trkpt lat="40.64361805631078" lon="16.062397860289586"><ele>862.2</ele><time>2026-04-26T09:38:12Z</time></trkpt><trkpt lat="40.64359486753934" lon="16.062289439147996"><ele>867.4000000000001</ele><time>2026-04-26T09:38:13Z</time></trkpt><trkpt lat="40.64358130868581" lon="16.062169291473833"><ele>872.5999999999999</ele><time>2026-04-26T09:38:14Z</time></trkpt><trkpt lat="40.64359356348673" lon="16.06203612284523"><ele>877.8</ele><time>2026-04-26T09:38:15Z</time></trkpt><trkpt lat="40.64359242437445" lon="16.061921137547206"><ele>883.0</ele><time>2026-04-26T09:38:16Z</time></trkpt><trkpt lat="40.643610350578086" lon="16.06178569520768"><ele>883.0</ele><time>2026-04-26T09:38:17Z</time></trkpt><trkpt lat="40.64363156859884" lon="16.061651413799886"><ele>883.0</ele><time>2026-04-26T09:38:18Z</time></trkpt><trkpt lat="40.64365185881698" lon="16.061509870245192"><ele>883.0</ele><time>2026-04-26T09:38:19Z</time></trkpt><trkpt lat="40.643669079345614" lon="16.061383817652708"><ele>883.0</ele><time>2026-04-26T09:38:20Z</time></trkpt><trkpt lat="40.64368290647949" lon="16.06127064375209"><ele>883.0</ele><time>2026-04-26T09:38:21Z</time></trkpt><trkpt lat="40.64369195733612" lon="16.0611797342537"><ele>883.0</ele><time>2026-04-26T09:38:22Z</time></trkpt><trkpt lat="40.64370565229152" lon="16.06106398740167"><ele>883.0</ele><time>2026-04-26T09:38:24Z</time></trkpt><trkpt lat="40.643752339446095" lon="16.06099533115942"><ele>883.0</ele><time>2026-04-26T09:38:26Z</time></trkpt><trkpt lat="40.643914534585775" lon="16.060988466688134"><ele>883.0</ele><time>2026-04-26T09:38:28Z</time></trkpt><trkpt lat="40.64403549949507" lon="16.0610392519557"><ele>883.0</ele><time>2026-04-26T09:38:30Z</time></trkpt><trkpt lat="40.64417701977434" lon="16.061126751651702"><ele>883.0</ele><time>2026-04-26T09:38:31Z</time></trkpt><trkpt lat="40.6443177426956" lon="16.061150847020066"><ele>883.0</ele><time>2026-04-26T09:38:32.001Z</time></trkpt><trkpt lat="40.64446767623654" lon="16.061097684501956"><ele>883.0</ele><time>2026-04-26T09:38:33.001Z</time></trkpt><trkpt lat="40.6445822387207" lon="16.061072177270958"><ele>883.0</ele><time>2026-04-26T09:38:34.001Z</time></trkpt><trkpt lat="40.64468167779183" lon="16.06106085962631"><ele>882.5999999999999</ele><time>2026-04-26T09:38:35.001Z</time></trkpt><trkpt lat="40.644788139454405" lon="16.061037310678067"><ele>882.1999999999999</ele><time>2026-04-26T09:38:36.001Z</time></trkpt><trkpt lat="40.644890997135036" lon="16.0610113311252"><ele>881.8</ele><time>2026-04-26T09:38:37.001Z</time></trkpt><trkpt lat="40.64498409414034" lon="16.060950023043418"><ele>881.4</ele><time>2026-04-26T09:38:38.001Z</time></trkpt><trkpt lat="40.645063467822965" lon="16.06086580949367"><ele>881.0</ele><time>2026-04-26T09:38:39.001Z</time></trkpt><trkpt lat="40.64514074742907" lon="16.06072969146211"><ele>881.0</ele><time>2026-04-26T09:38:40.001Z</time></trkpt><trkpt lat="40.64521949524543" lon="16.060615996276592"><ele>880.9999999999999</ele><time>2026-04-26T09:38:41.001Z</time></trkpt><trkpt lat="40.645243607668796" lon="16.06048307146947"><ele>880.9999999999999</ele><time>2026-04-26T09:38:43.001Z</time></trkpt><trkpt lat="40.64526654759064" lon="16.060381646334818"><ele>881.0</ele><time>2026-04-26T09:38:44.001Z</time></trkpt><trkpt lat="40.64530283754353" lon="16.06027790863222"><ele>881.0</ele><time>2026-04-26T09:38:45.001Z</time></trkpt><trkpt lat="40.645337855452894" lon="16.06015512927297"><ele>881.0000000000001</ele><time>2026-04-26T09:38:46.001Z</time></trkpt><trkpt lat="40.64536516386496" lon="16.060055685808265"><ele>881.0</ele><time>2026-04-26T09:38:47.001Z</time></trkpt><trkpt lat="40.645387822460414" lon="16.059969811462032"><ele>881.0</ele><time>2026-04-26T09:38:48.001Z</time></trkpt><trkpt lat="40.645417780312044" lon="16.05984752931558"><ele>881.0</ele><time>2026-04-26T09:38:50.001Z</time></trkpt><trkpt lat="40.64533244481437" lon="16.05983238093075"><ele>881.0000000000001</ele><time>2026-04-26T09:38:53.001Z</time></trkpt><trkpt lat="40.645309366387096" lon="16.05994203867945"><ele>881.0</ele><time>2026-04-26T09:38:54.001Z</time></trkpt><trkpt lat="40.645214836327504" lon="16.05995401694433"><ele>881.0</ele><time>2026-04-26T09:38:56.001Z</time></trkpt><trkpt lat="40.645119728991155" lon="16.05995697628859"><ele>880.9999999999999</ele><time>2026-04-26T09:38:57.001Z</time></trkpt><trkpt lat="40.64503835110591" lon="16.059915488566155"><ele>880.9999999999999</ele><time>2026-04-26T09:38:58.001Z</time></trkpt><trkpt lat="40.644938225521635" lon="16.05987296294284"><ele>881.0</ele><time>2026-04-26T09:38:59.001Z</time></trkpt><trkpt lat="40.644824507518095" lon="16.05983976602977"><ele>881.0</ele><time>2026-04-26T09:39:00.001Z</time></trkpt><trkpt lat="40.64468533162667" lon="16.059837855916108"><ele>881.8</ele><time>2026-04-26T09:39:02.001Z</time></trkpt><trkpt lat="40.644570687922915" lon="16.05984314634303"><ele>882.5999999999999</ele><time>2026-04-26T09:39:03.001Z</time></trkpt><trkpt lat="40.64448142890363" lon="16.05986394396677"><ele>883.4</ele><time>2026-04-26T09:39:04.001Z</time></trkpt><trkpt lat="40.644366567459244" lon="16.05991036441534"><ele>884.2</ele><time>2026-04-26T09:39:06.001Z</time></trkpt><trkpt lat="40.64429900164027" lon="16.059911833089206"><ele>885.0</ele><time>2026-04-26T09:39:07.001Z</time></trkpt><trkpt lat="40.64424043364414" lon="16.059868613742577"><ele>885.0</ele><time>2026-04-26T09:39:08.001Z</time></trkpt><trkpt lat="40.64418125626102" lon="16.05983365200813"><ele>885.0</ele><time>2026-04-26T09:39:10.001Z</time></trkpt><trkpt lat="40.64412522232113" lon="16.059758013115438"><ele>885.0</ele><time>2026-04-26T09:39:13.001Z</time></trkpt><trkpt lat="40.64401129908867" lon="16.05966933625611"><ele>885.0</ele><time>2026-04-26T09:39:15.001Z</time></trkpt><trkpt lat="40.6439346124903" lon="16.059629553202374"><ele>885.0</ele><time>2026-04-26T09:39:16.001Z</time></trkpt><trkpt lat="40.643862323386514" lon="16.05960660249384"><ele>885.0</ele><time>2026-04-26T09:39:17.001Z</time></trkpt><trkpt lat="40.64380234570363" lon="16.05957471294469"><ele>885.0</ele><time>2026-04-26T09:39:18.001Z</time></trkpt><trkpt lat="40.643740883866876" lon="16.059548745162374"><ele>885.0</ele><time>2026-04-26T09:39:19.001Z</time></trkpt><trkpt lat="40.64361245193814" lon="16.059564847305303"><ele>885.0</ele><time>2026-04-26T09:39:21.001Z</time></trkpt><trkpt lat="40.643548780909086" lon="16.05960266467639"><ele>885.0</ele><time>2026-04-26T09:39:22.001Z</time></trkpt><trkpt lat="40.64346925316182" lon="16.0596323901269"><ele>885.0</ele><time>2026-04-26T09:39:23.001Z</time></trkpt><trkpt lat="40.64339457152229" lon="16.05965436516339"><ele>885.0</ele><time>2026-04-26T09:39:24.001Z</time></trkpt><trkpt lat="40.643320448558136" lon="16.059676843156705"><ele>888.5</ele><time>2026-04-26T09:39:25.001Z</time></trkpt><trkpt lat="40.64324729790809" lon="16.059696444176787"><ele>892.0</ele><time>2026-04-26T09:39:26.001Z</time></trkpt><trkpt lat="40.6431746521196" lon="16.05973421686147"><ele>895.5</ele><time>2026-04-26T09:39:27.001Z</time></trkpt><trkpt lat="40.64312618343859" lon="16.059787357398967"><ele>899.0</ele><time>2026-04-26T09:39:28.001Z</time></trkpt><trkpt lat="40.64305183723923" lon="16.05981639607584"><ele>902.5</ele><time>2026-04-26T09:39:29Z</time></trkpt><trkpt lat="40.64297154827548" lon="16.05988806469241"><ele>906.0</ele><time>2026-04-26T09:39:31Z</time></trkpt><trkpt lat="40.642868097450005" lon="16.059948642051175"><ele>904.9999999999999</ele><time>2026-04-26T09:39:33Z</time></trkpt><trkpt lat="40.64280455726443" lon="16.05999152999742"><ele>904.0</ele><time>2026-04-26T09:39:34Z</time></trkpt><trkpt lat="40.64274151293172" lon="16.059994152500114"><ele>902.9999999999999</ele><time>2026-04-26T09:39:35Z</time></trkpt><trkpt lat="40.642669140428175" lon="16.059908334737784"><ele>901.9999999999999</ele><time>2026-04-26T09:39:36Z</time></trkpt><trkpt lat="40.64260738581985" lon="16.059891357795927"><ele>901.0</ele><time>2026-04-26T09:39:37Z</time></trkpt><trkpt lat="40.642531752519666" lon="16.05994338693234"><ele>899.9999999999999</ele><time>2026-04-26T09:39:38Z</time></trkpt><trkpt lat="40.64247344361822" lon="16.059988315496845"><ele>898.9999999999999</ele><time>2026-04-26T09:39:39Z</time></trkpt><trkpt lat="40.642352282981186" lon="16.060102097711784"><ele>902.1666666666667</ele><time>2026-04-26T09:39:40Z</time></trkpt><trkpt lat="40.642261863683544" lon="16.060141898717465"><ele>905.3333333333334</ele><time>2026-04-26T09:39:41Z</time></trkpt><trkpt lat="40.64220833569027" lon="16.06018708431992"><ele>908.5</ele><time>2026-04-26T09:39:42Z</time></trkpt><trkpt lat="40.6421443266375" lon="16.060124421913763"><ele>911.6666666666667</ele><time>2026-04-26T09:39:44Z</time></trkpt><trkpt lat="40.642172483412274" lon="16.060020004554705"><ele>914.8333333333334</ele><time>2026-04-26T09:39:45Z</time></trkpt><trkpt lat="40.642163071809044" lon="16.05986963623347"><ele>918.0</ele><time>2026-04-26T09:39:47Z</time></trkpt><trkpt lat="40.64213878083649" lon="16.059788205443255"><ele>918.5</ele><time>2026-04-26T09:39:48Z</time></trkpt><trkpt lat="40.64207533314753" lon="16.059780104334244"><ele>919.0</ele><time>2026-04-26T09:39:52Z</time></trkpt><trkpt lat="40.642039241071195" lon="16.059848328013008"><ele>919.5</ele><time>2026-04-26T09:39:55Z</time></trkpt><trkpt lat="40.6419978077201" lon="16.05994116337207"><ele>920.0</ele><time>2026-04-26T09:40:11Z</time></trkpt><trkpt lat="40.64193680688449" lon="16.060037382994487"><ele>920.5</ele><time>2026-04-26T09:41:30Z</time></trkpt><trkpt lat="40.64188452016096" lon="16.060176234113012"><ele>921.0</ele><time>2026-04-26T09:41:32Z</time></trkpt><trkpt lat="40.641855992566775" lon="16.060298518098108"><ele>921.0</ele><time>2026-04-26T09:41:34Z</time></trkpt><trkpt lat="40.64182133845314" lon="16.060413750120848"><ele>920.9999999999999</ele><time>2026-04-26T09:41:35Z</time></trkpt><trkpt lat="40.64185776854137" lon="16.060542787398752"><ele>920.9999999999999</ele><time>2026-04-26T09:41:36Z</time></trkpt><trkpt lat="40.64186745654233" lon="16.06063196724837"><ele>921.0</ele><time>2026-04-26T09:41:37Z</time></trkpt><trkpt lat="40.64188566897022" lon="16.06075077267374"><ele>921.0</ele><time>2026-04-26T09:41:39Z</time></trkpt><trkpt lat="40.641911803871594" lon="16.060910872605564"><ele>922.8333333333334</ele><time>2026-04-26T09:41:41Z</time></trkpt><trkpt lat="40.641885239963536" lon="16.061020534792934"><ele>924.6666666666667</ele><time>2026-04-26T09:41:43Z</time></trkpt><trkpt lat="40.64182769331227" lon="16.061073332186446"><ele>926.5</ele><time>2026-04-26T09:41:44Z</time></trkpt><trkpt lat="40.64178515805145" lon="16.061153374207212"><ele>928.3333333333334</ele><time>2026-04-26T09:41:45Z</time></trkpt><trkpt lat="40.64175504413346" lon="16.061256812655216"><ele>930.1666666666667</ele><time>2026-04-26T09:41:46Z</time></trkpt><trkpt lat="40.641731996308884" lon="16.06134261333386"><ele>932.0</ele><time>2026-04-26T09:41:47Z</time></trkpt><trkpt lat="40.64171897372013" lon="16.061439997469236"><ele>932.0000000000001</ele><time>2026-04-26T09:41:48Z</time></trkpt><trkpt lat="40.64171840575671" lon="16.06157931445807"><ele>932.0</ele><time>2026-04-26T09:41:49Z</time></trkpt><trkpt lat="40.64172197289568" lon="16.06167382948543"><ele>932.0</ele><time>2026-04-26T09:41:50Z</time></trkpt><trkpt lat="40.64173457229156" lon="16.06178418889729"><ele>932.0</ele><time>2026-04-26T09:41:51Z</time></trkpt><trkpt lat="40.64175244691988" lon="16.06186727062742"><ele>932.0000000000001</ele><time>2026-04-26T09:41:52Z</time></trkpt><trkpt lat="40.64176861694879" lon="16.062012799537182"><ele>932.0</ele><time>2026-04-26T09:41:54Z</time></trkpt><trkpt lat="40.6417463402813" lon="16.062189131864"><ele>932.2</ele><time>2026-04-26T09:41:56Z</time></trkpt><trkpt lat="40.641771915295465" lon="16.062328852158434"><ele>932.4000000000001</ele><time>2026-04-26T09:41:58Z</time></trkpt><trkpt lat="40.641705827523644" lon="16.062425824160602"><ele>932.5999999999999</ele><time>2026-04-26T09:42:02Z</time></trkpt><trkpt lat="40.641656668384734" lon="16.062489559238"><ele>932.8</ele><time>2026-04-26T09:42:04Z</time></trkpt><trkpt lat="40.64162434168512" lon="16.06260565214636"><ele>933.0</ele><time>2026-04-26T09:42:07Z</time></trkpt><trkpt lat="40.64157934501741" lon="16.063050662834275"><ele>933.2</ele><time>2026-04-26T09:42:09Z</time></trkpt><trkpt lat="40.6415814210849" lon="16.063137317576604"><ele>933.4</ele><time>2026-04-26T09:42:10Z</time></trkpt><trkpt lat="40.64161572389751" lon="16.063273124667003"><ele>933.6000000000001</ele><time>2026-04-26T09:42:12Z</time></trkpt><trkpt lat="40.6416972963713" lon="16.063309914391468"><ele>933.8000000000001</ele><time>2026-04-26T09:42:13Z</time></trkpt><trkpt lat="40.64175160626901" lon="16.06343816698569"><ele>934.0</ele><time>2026-04-26T09:42:16Z</time></trkpt><trkpt lat="40.641809941099396" lon="16.06352809777124"><ele>933.3333333333333</ele><time>2026-04-26T09:42:18Z</time></trkpt><trkpt lat="40.64185576279044" lon="16.063591169785443"><ele>932.6666666666666</ele><time>2026-04-26T09:42:21Z</time></trkpt><trkpt lat="40.64194758008358" lon="16.063640699946475"><ele>932.0</ele><time>2026-04-26T09:42:23Z</time></trkpt><trkpt lat="40.642024664431574" lon="16.06372682309484"><ele>931.3333333333333</ele><time>2026-04-26T09:42:25Z</time></trkpt><trkpt lat="40.64205405039283" lon="16.063823022569935"><ele>930.6666666666666</ele><time>2026-04-26T09:42:28Z</time></trkpt><trkpt lat="40.64211464805666" lon="16.063893948712032"><ele>930.0</ele><time>2026-04-26T09:42:33Z</time></trkpt><trkpt lat="40.6421275576245" lon="16.06400332238935"><ele>926.4</ele><time>2026-04-26T09:42:35Z</time></trkpt><trkpt lat="40.64219526801283" lon="16.064067418508472"><ele>922.8</ele><time>2026-04-26T09:42:36Z</time></trkpt><trkpt lat="40.64224542534766" lon="16.064133250781005"><ele>919.2</ele><time>2026-04-26T09:42:37Z</time></trkpt><trkpt lat="40.64232136155967" lon="16.064252215721822"><ele>915.6</ele><time>2026-04-26T09:42:39Z</time></trkpt><trkpt lat="40.642352160518534" lon="16.064385908460732"><ele>912.0</ele><time>2026-04-26T09:42:41Z</time></trkpt><trkpt lat="40.642421042316215" lon="16.06450263274933"><ele>912.0</ele><time>2026-04-26T09:42:43Z</time></trkpt><trkpt lat="40.6424960941229" lon="16.064589992776813"><ele>912.0</ele><time>2026-04-26T09:42:44Z</time></trkpt><trkpt lat="40.64250456763389" lon="16.064684829413608"><ele>912.0</ele><time>2026-04-26T09:42:46Z</time></trkpt><trkpt lat="40.64250809942782" lon="16.064768032309203"><ele>912.0</ele><time>2026-04-26T09:42:47Z</time></trkpt><trkpt lat="40.64252759432514" lon="16.0649093019267"><ele>912.0</ele><time>2026-04-26T09:42:49Z</time></trkpt><trkpt lat="40.64257539265387" lon="16.06504780220842"><ele>909.1666666666666</ele><time>2026-04-26T09:42:51Z</time></trkpt><trkpt lat="40.64258522471259" lon="16.06513597367627"><ele>906.3333333333333</ele><time>2026-04-26T09:42:52Z</time></trkpt><trkpt lat="40.64261954832455" lon="16.065265686610523"><ele>903.5</ele><time>2026-04-26T09:42:54Z</time></trkpt><trkpt lat="40.64264663759758" lon="16.065369093653448"><ele>900.6666666666666</ele><time>2026-04-26T09:42:56Z</time></trkpt><trkpt lat="40.64259965760344" lon="16.06546106389509"><ele>897.8333333333333</ele><time>2026-04-26T09:42:58Z</time></trkpt><trkpt lat="40.642657214933976" lon="16.06554743806775"><ele>895.0</ele><time>2026-04-26T09:43:00Z</time></trkpt><trkpt lat="40.64272912532372" lon="16.065645239269863"><ele>895.0</ele><time>2026-04-26T09:43:02Z</time></trkpt><trkpt lat="40.64275406015797" lon="16.065724258949142"><ele>895.0</ele><time>2026-04-26T09:43:08Z</time></trkpt><trkpt lat="40.64273578765724" lon="16.065838394414104"><ele>895.0</ele><time>2026-04-26T09:43:17Z</time></trkpt><trkpt lat="40.64272270872736" lon="16.065929448938824"><ele>895.0</ele><time>2026-04-26T09:43:19Z</time></trkpt><trkpt lat="40.64272447732305" lon="16.06601778367802"><ele>895.0</ele><time>2026-04-26T09:43:20Z</time></trkpt><trkpt lat="40.64279263927463" lon="16.066032060780604"><ele>895.0</ele><time>2026-04-26T09:43:21Z</time></trkpt><trkpt lat="40.642776420312074" lon="16.06593135439714"><ele>895.0</ele><time>2026-04-26T09:43:26Z</time></trkpt><trkpt lat="40.64281279418667" lon="16.06582875968971"><ele>892.8333333333333</ele><time>2026-04-26T09:43:29Z</time></trkpt><trkpt lat="40.64281206528963" lon="16.065741657026955"><ele>890.6666666666666</ele><time>2026-04-26T09:43:31Z</time></trkpt><trkpt lat="40.642885665978525" lon="16.0656249620219"><ele>888.5</ele><time>2026-04-26T09:43:33Z</time></trkpt><trkpt lat="40.64291446593535" lon="16.065528890198554"><ele>886.3333333333333</ele><time>2026-04-26T09:43:35Z</time></trkpt><trkpt lat="40.64298799122264" lon="16.06563012817416"><ele>884.1666666666666</ele><time>2026-04-26T09:43:37Z</time></trkpt><trkpt lat="40.64305552472069" lon="16.0656789184762"><ele>882.0</ele><time>2026-04-26T09:43:39Z</time></trkpt><trkpt lat="40.64312154619091" lon="16.065727395501458"><ele>880.5</ele><time>2026-04-26T09:43:41Z</time></trkpt><trkpt lat="40.643185939298" lon="16.06587755053167"><ele>879.0</ele><time>2026-04-26T09:43:43Z</time></trkpt><trkpt lat="40.64311639013591" lon="16.0658549744188"><ele>877.5</ele><time>2026-04-26T09:43:47Z</time></trkpt><trkpt lat="40.64305047844444" lon="16.065874287798028"><ele>876.0</ele><time>2026-04-26T09:43:49Z</time></trkpt><trkpt lat="40.643088586005774" lon="16.066014210883306"><ele>874.5</ele><time>2026-04-26T09:43:51Z</time></trkpt><trkpt lat="40.643120553781934" lon="16.0660902152823"><ele>873.0</ele><time>2026-04-26T09:43:53Z</time></trkpt><trkpt lat="40.64311170767932" lon="16.06617884094517"><ele>872.9999999999999</ele><time>2026-04-26T09:43:56Z</time></trkpt><trkpt lat="40.643105209627855" lon="16.066264228435696"><ele>873.0</ele><time>2026-04-26T09:43:58Z</time></trkpt><trkpt lat="40.64306959403348" lon="16.06635309205581"><ele>873.0</ele><time>2026-04-26T09:44:00Z</time></trkpt><trkpt lat="40.64301910678335" lon="16.066417522675675"><ele>873.0</ele><time>2026-04-26T09:44:07Z</time></trkpt><trkpt lat="40.64303329239371" lon="16.06651404747244"><ele>873.0</ele><time>2026-04-26T09:44:09Z</time></trkpt><trkpt lat="40.64309575992871" lon="16.06652809796963"><ele>872.9999999999999</ele><time>2026-04-26T09:44:11Z</time></trkpt><trkpt lat="40.64314176069866" lon="16.066457556970114"><ele>873.0</ele><time>2026-04-26T09:44:13Z</time></trkpt><trkpt lat="40.64315419548031" lon="16.066372063376047"><ele>873.0</ele><time>2026-04-26T09:44:15Z</time></trkpt><trkpt lat="40.643194055263955" lon="16.066272524683704"><ele>873.0</ele><time>2026-04-26T09:44:20Z</time></trkpt><trkpt lat="40.64319248779744" lon="16.06617803541425"><ele>873.0</ele><time>2026-04-26T09:44:24Z</time></trkpt><trkpt lat="40.64320198448878" lon="16.06606310716196"><ele>873.0</ele><time>2026-04-26T09:44:27Z</time></trkpt><trkpt lat="40.643140508183166" lon="16.06601314860366"><ele>873.0</ele><time>2026-04-26T09:44:30Z</time></trkpt><trkpt lat="40.643117598818485" lon="16.06613200831752"><ele>873.0</ele><time>2026-04-26T09:44:33Z</time></trkpt><trkpt lat="40.64312126669505" lon="16.06626525479729"><ele>873.0</ele><time>2026-04-26T09:44:35Z</time></trkpt><trkpt lat="40.64321250277394" lon="16.066357914150167"><ele>873.0</ele><time>2026-04-26T09:44:38Z</time></trkpt><trkpt lat="40.643278510906526" lon="16.06647278385482"><ele>873.0</ele><time>2026-04-26T09:44:40Z</time></trkpt><trkpt lat="40.64330206636175" lon="16.066576852725582"><ele>873.0</ele><time>2026-04-26T09:44:41Z</time></trkpt><trkpt lat="40.643352280834804" lon="16.066636987744193"><ele>873.0</ele><time>2026-04-26T09:44:43Z</time></trkpt><trkpt lat="40.6434194009127" lon="16.06669353435111"><ele>871.0</ele><time>2026-04-26T09:44:45Z</time></trkpt><trkpt lat="40.64350691582262" lon="16.066706241036684"><ele>869.0</ele><time>2026-04-26T09:44:47Z</time></trkpt><trkpt lat="40.643589453531995" lon="16.066740951335564"><ele>867.0</ele><time>2026-04-26T09:44:49Z</time></trkpt><trkpt lat="40.6436617758921" lon="16.066782711350708"><ele>865.0</ele><time>2026-04-26T09:44:52Z</time></trkpt><trkpt lat="40.64369660212979" lon="16.06688670353141"><ele>863.0</ele><time>2026-04-26T09:44:55Z</time></trkpt><trkpt lat="40.64375927494956" lon="16.066898774979595"><ele>861.0</ele><time>2026-04-26T09:44:58Z</time></trkpt><trkpt lat="40.643853815855316" lon="16.066936735818988"><ele>858.5999999999999</ele><time>2026-04-26T09:45:00Z</time></trkpt><trkpt lat="40.643945583125344" lon="16.06699668987461"><ele>856.1999999999999</ele><time>2026-04-26T09:45:02Z</time></trkpt><trkpt lat="40.644102812266034" lon="16.06708143522857"><ele>853.8</ele><time>2026-04-26T09:45:04Z</time></trkpt><trkpt lat="40.644163289188874" lon="16.06715775586107"><ele>851.4000000000001</ele><time>2026-04-26T09:45:05Z</time></trkpt><trkpt lat="40.6442277104443" lon="16.06716909472171"><ele>849.0</ele><time>2026-04-26T09:45:06Z</time></trkpt><trkpt lat="40.644256839050286" lon="16.067257068785047"><ele>849.0</ele><time>2026-04-26T09:45:08Z</time></trkpt><trkpt lat="40.64426181935345" lon="16.067341061434707"><ele>849.0</ele><time>2026-04-26T09:45:11Z</time></trkpt><trkpt lat="40.6442893627811" lon="16.067419528232588"><ele>849.0</ele><time>2026-04-26T09:45:15Z</time></trkpt><trkpt lat="40.64421922740627" lon="16.067413960088473"><ele>849.0</ele><time>2026-04-26T09:45:17Z</time></trkpt><trkpt lat="40.644160351055284" lon="16.067455596385653"><ele>849.0</ele><time>2026-04-26T09:45:20Z</time></trkpt><trkpt lat="40.64410779221096" lon="16.067521477308787"><ele>849.0</ele><time>2026-04-26T09:45:22Z</time></trkpt><trkpt lat="40.64399092095028" lon="16.067545881203564"><ele>849.8000000000001</ele><time>2026-04-26T09:45:24Z</time></trkpt><trkpt lat="40.64392793534932" lon="16.067567742899236"><ele>850.6</ele><time>2026-04-26T09:45:29Z</time></trkpt><trkpt lat="40.64375109363126" lon="16.067648526223945"><ele>851.4</ele><time>2026-04-26T09:45:32Z</time></trkpt><trkpt lat="40.64367147511096" lon="16.067651251576248"><ele>852.2</ele><time>2026-04-26T09:45:35Z</time></trkpt><trkpt lat="40.643594011175566" lon="16.06768138287357"><ele>853.0</ele><time>2026-04-26T09:45:37Z</time></trkpt><trkpt lat="40.643492517024555" lon="16.067662432911547"><ele>853.0</ele><time>2026-04-26T09:45:38Z</time></trkpt><trkpt lat="40.643388360369784" lon="16.0676844492543"><ele>853.0</ele><time>2026-04-26T09:45:39Z</time></trkpt><trkpt lat="40.64328595328052" lon="16.06767848614669"><ele>853.0</ele><time>2026-04-26T09:45:40Z</time></trkpt><trkpt lat="40.643161618628966" lon="16.067786762301484"><ele>853.0</ele><time>2026-04-26T09:45:41Z</time></trkpt><trkpt lat="40.643093822708416" lon="16.06785441436405"><ele>853.0</ele><time>2026-04-26T09:45:42Z</time></trkpt><trkpt lat="40.64309813812645" lon="16.0679897989922"><ele>853.0</ele><time>2026-04-26T09:45:44Z</time></trkpt><trkpt lat="40.643125409958735" lon="16.06813010003985"><ele>853.0</ele><time>2026-04-26T09:45:46Z</time></trkpt><trkpt lat="40.64315786388279" lon="16.06823364165823"><ele>853.0</ele><time>2026-04-26T09:45:47Z</time></trkpt><trkpt lat="40.64316190294758" lon="16.068324160741085"><ele>853.0</ele><time>2026-04-26T09:45:48Z</time></trkpt><trkpt lat="40.643144600255916" lon="16.068467174184928"><ele>853.0</ele><time>2026-04-26T09:45:50Z</time></trkpt><trkpt lat="40.64318653342732" lon="16.068555400683536"><ele>853.1666666666666</ele><time>2026-04-26T09:45:51Z</time></trkpt><trkpt lat="40.64326562471345" lon="16.06859856496149"><ele>853.3333333333333</ele><time>2026-04-26T09:45:53Z</time></trkpt><trkpt lat="40.643279224698475" lon="16.068727705375792"><ele>853.5</ele><time>2026-04-26T09:45:55Z</time></trkpt><trkpt lat="40.64333454039718" lon="16.06882079771258"><ele>853.6666666666667</ele><time>2026-04-26T09:45:56Z</time></trkpt><trkpt lat="40.64339346333511" lon="16.068900669704774"><ele>853.8333333333334</ele><time>2026-04-26T09:45:57Z</time></trkpt><trkpt lat="40.64345947431415" lon="16.068971407522852"><ele>854.0</ele><time>2026-04-26T09:45:58Z</time></trkpt><trkpt lat="40.6435289272583" lon="16.069044581025"><ele>855.0</ele><time>2026-04-26T09:45:59Z</time></trkpt><trkpt lat="40.64360007763049" lon="16.06915846203572"><ele>856.0000000000001</ele><time>2026-04-26T09:46:01Z</time></trkpt><trkpt lat="40.64367566469698" lon="16.069293823529705"><ele>857.0000000000001</ele><time>2026-04-26T09:46:03Z</time></trkpt><trkpt lat="40.64373102346094" lon="16.06936846885381"><ele>858.0</ele><time>2026-04-26T09:46:04Z</time></trkpt><trkpt lat="40.64380258209927" lon="16.06948386061359"><ele>859.0</ele><time>2026-04-26T09:46:06Z</time></trkpt><trkpt lat="40.643867699468295" lon="16.06952070238115"><ele>854.25</ele><time>2026-04-26T09:46:08Z</time></trkpt><trkpt lat="40.643957659636925" lon="16.069536988082348"><ele>849.5</ele><time>2026-04-26T09:46:10Z</time></trkpt><trkpt lat="40.643982326569855" lon="16.069663098031345"><ele>844.75</ele><time>2026-04-26T09:46:12Z</time></trkpt><trkpt lat="40.64398663253071" lon="16.069769953183037"><ele>840.0</ele><time>2026-04-26T09:46:15Z</time></trkpt><trkpt lat="40.64399140067683" lon="16.070005457951147"><ele>839.8333333333334</ele><time>2026-04-26T09:46:18Z</time></trkpt><trkpt lat="40.6440107788666" lon="16.070103745770165"><ele>839.6666666666667</ele><time>2026-04-26T09:46:19Z</time></trkpt><trkpt lat="40.64400408306965" lon="16.070212560828345"><ele>839.5</ele><time>2026-04-26T09:46:20Z</time></trkpt><trkpt lat="40.64395681292546" lon="16.070315655983386"><ele>839.3333333333334</ele><time>2026-04-26T09:46:22Z</time></trkpt><trkpt lat="40.64387564497957" lon="16.07035735655909"><ele>839.1666666666667</ele><time>2026-04-26T09:46:24Z</time></trkpt><trkpt lat="40.643800806644144" lon="16.070379069645195"><ele>839.0</ele><time>2026-04-26T09:46:25Z</time></trkpt><trkpt lat="40.64371746264073" lon="16.07043752410105"><ele>839.0000000000001</ele><time>2026-04-26T09:46:26Z</time></trkpt><trkpt lat="40.64368743931313" lon="16.070575366775277"><ele>839.0</ele><time>2026-04-26T09:46:27Z</time></trkpt><trkpt lat="40.64364331428633" lon="16.070659465738466"><ele>839.0</ele><time>2026-04-26T09:46:29Z</time></trkpt><trkpt lat="40.64364735317712" lon="16.070776551286446"><ele>839.0</ele><time>2026-04-26T09:46:31Z</time></trkpt><trkpt lat="40.643710174933396" lon="16.07081507506739"><ele>839.0000000000001</ele><time>2026-04-26T09:46:32Z</time></trkpt><trkpt lat="40.64376600365514" lon="16.07087031786086"><ele>839.0</ele><time>2026-04-26T09:46:33Z</time></trkpt><trkpt lat="40.643880396578844" lon="16.07088403883753"><ele>838.6</ele><time>2026-04-26T09:46:35Z</time></trkpt><trkpt lat="40.64396799867897" lon="16.070866651087464"><ele>838.2</ele><time>2026-04-26T09:46:36Z</time></trkpt><trkpt lat="40.64404508950259" lon="16.07088263998021"><ele>837.8000000000001</ele><time>2026-04-26T09:46:38Z</time></trkpt><trkpt lat="40.6440923302283" lon="16.070977922540408"><ele>837.4000000000001</ele><time>2026-04-26T09:46:41Z</time></trkpt><trkpt lat="40.644102364501705" lon="16.071094594054756"><ele>837.0</ele><time>2026-04-26T09:46:45Z</time></trkpt><trkpt lat="40.6441320106254" lon="16.071231645862543"><ele>837.0</ele><time>2026-04-26T09:46:47Z</time></trkpt><trkpt lat="40.644169561830346" lon="16.07132896025655"><ele>837.0</ele><time>2026-04-26T09:46:48Z</time></trkpt><trkpt lat="40.64421703936271" lon="16.07150463366446"><ele>837.0</ele><time>2026-04-26T09:46:50Z</time></trkpt><trkpt lat="40.64422756564756" lon="16.071599315088427"><ele>837.0</ele><time>2026-04-26T09:46:51Z</time></trkpt><trkpt lat="40.64422790039446" lon="16.07170428951949"><ele>837.0</ele><time>2026-04-26T09:46:52Z</time></trkpt><trkpt lat="40.64422274830634" lon="16.071799189189477"><ele>837.0</ele><time>2026-04-26T09:46:53Z</time></trkpt><trkpt lat="40.644226430229494" lon="16.07190016816691"><ele>838.1666666666666</ele><time>2026-04-26T09:46:54Z</time></trkpt><trkpt lat="40.64415473451261" lon="16.072028982960532"><ele>839.3333333333333</ele><time>2026-04-26T09:46:56Z</time></trkpt><trkpt lat="40.64412793358417" lon="16.072111358373775"><ele>840.5</ele><time>2026-04-26T09:46:57Z</time></trkpt><trkpt lat="40.644137297629975" lon="16.07222786248302"><ele>841.6666666666666</ele><time>2026-04-26T09:46:58Z</time></trkpt><trkpt lat="40.64419339096462" lon="16.07233247163116"><ele>842.8333333333333</ele><time>2026-04-26T09:46:59Z</time></trkpt><trkpt lat="40.64424939075243" lon="16.07239414508308"><ele>844.0</ele><time>2026-04-26T09:47:00Z</time></trkpt><trkpt lat="40.64432326026517" lon="16.072445406366263"><ele>843.6666666666666</ele><time>2026-04-26T09:47:01Z</time></trkpt><trkpt lat="40.64439414782382" lon="16.072501958151463"><ele>843.3333333333333</ele><time>2026-04-26T09:47:02Z</time></trkpt><trkpt lat="40.64444813738042" lon="16.07254854478297"><ele>843.0</ele><time>2026-04-26T09:47:03Z</time></trkpt><trkpt lat="40.64452262228346" lon="16.072617945849675"><ele>842.6666666666667</ele><time>2026-04-26T09:47:05Z</time></trkpt><trkpt lat="40.64458049828191" lon="16.072713517707122"><ele>842.3333333333334</ele><time>2026-04-26T09:47:07Z</time></trkpt><trkpt lat="40.64458341199517" lon="16.07283153298257"><ele>842.0</ele><time>2026-04-26T09:47:10Z</time></trkpt><trkpt lat="40.64461833505301" lon="16.0729128592646"><ele>842.0</ele><time>2026-04-26T09:47:12Z</time></trkpt><trkpt lat="40.64467409292701" lon="16.072990668630897"><ele>842.0</ele><time>2026-04-26T09:47:15Z</time></trkpt><trkpt lat="40.64466221730711" lon="16.07308739094471"><ele>842.0</ele><time>2026-04-26T09:47:18Z</time></trkpt><trkpt lat="40.644779768469434" lon="16.07313133030343"><ele>842.0</ele><time>2026-04-26T09:47:20Z</time></trkpt><trkpt lat="40.64482617991235" lon="16.073251728345376"><ele>842.0</ele><time>2026-04-26T09:47:22Z</time></trkpt><trkpt lat="40.64491809402325" lon="16.07331051749001"><ele>843.0</ele><time>2026-04-26T09:47:24Z</time></trkpt><trkpt lat="40.644975260155576" lon="16.073367315633618"><ele>844.0</ele><time>2026-04-26T09:47:26Z</time></trkpt><trkpt lat="40.645490856022576" lon="16.073605648322772"><ele>840.4000000000001</ele><time>2026-04-26T09:47:28Z</time></trkpt><trkpt lat="40.64560548047151" lon="16.07364418553272"><ele>836.8</ele><time>2026-04-26T09:47:30Z</time></trkpt><trkpt lat="40.64564142747894" lon="16.07354036908242"><ele>833.2</ele><time>2026-04-26T09:47:31Z</time></trkpt><trkpt lat="40.64570151900349" lon="16.07346612176994"><ele>829.5999999999999</ele><time>2026-04-26T09:47:33Z</time></trkpt><trkpt lat="40.64580754836542" lon="16.073434224257014"><ele>826.0</ele><time>2026-04-26T09:47:35Z</time></trkpt><trkpt lat="40.64590303727543" lon="16.073425736671044"><ele>825.9999999999999</ele><time>2026-04-26T09:47:38Z</time></trkpt><trkpt lat="40.64598901557594" lon="16.07348243812219"><ele>826.0</ele><time>2026-04-26T09:47:40Z</time></trkpt><trkpt lat="40.646088281021456" lon="16.07354142710812"><ele>826.0</ele><time>2026-04-26T09:47:42Z</time></trkpt><trkpt lat="40.64615393777962" lon="16.073583817897816"><ele>826.0</ele><time>2026-04-26T09:47:45Z</time></trkpt><trkpt lat="40.64624404779458" lon="16.07364760871612"><ele>825.9999999999999</ele><time>2026-04-26T09:47:47Z</time></trkpt><trkpt lat="40.646306041391426" lon="16.073665254526475"><ele>826.0</ele><time>2026-04-26T09:47:49Z</time></trkpt><trkpt lat="40.64632532972154" lon="16.073762379498035"><ele>822.1666666666666</ele><time>2026-04-26T09:47:53Z</time></trkpt><trkpt lat="40.64635923884405" lon="16.073864847646476"><ele>818.3333333333333</ele><time>2026-04-26T09:47:55Z</time></trkpt><trkpt lat="40.64642135698398" lon="16.073904514919864"><ele>814.5</ele><time>2026-04-26T09:47:57Z</time></trkpt><trkpt lat="40.64643777374099" lon="16.073998642467675"><ele>810.6666666666667</ele><time>2026-04-26T09:47:59Z</time></trkpt><trkpt lat="40.646497590490014" lon="16.074073197943996"><ele>806.8333333333334</ele><time>2026-04-26T09:48:01Z</time></trkpt><trkpt lat="40.646545515199726" lon="16.07416481458389"><ele>803.0</ele><time>2026-04-26T09:48:03Z</time></trkpt><trkpt lat="40.646551005520244" lon="16.074265744202663"><ele>803.0</ele><time>2026-04-26T09:48:05Z</time></trkpt><trkpt lat="40.64650241825595" lon="16.074394615081943"><ele>803.0</ele><time>2026-04-26T09:48:10Z</time></trkpt><trkpt lat="40.646452894338466" lon="16.07450674203374"><ele>803.0</ele><time>2026-04-26T09:48:11Z</time></trkpt><trkpt lat="40.646371426741496" lon="16.074593585977727"><ele>803.0</ele><time>2026-04-26T09:48:12Z</time></trkpt><trkpt lat="40.646317838046535" lon="16.074657951349543"><ele>803.0</ele><time>2026-04-26T09:48:13Z</time></trkpt><trkpt lat="40.646179419528714" lon="16.074734509645385"><ele>806.5999999999999</ele><time>2026-04-26T09:48:15Z</time></trkpt><trkpt lat="40.64609531540942" lon="16.074763315514456"><ele>810.1999999999999</ele><time>2026-04-26T09:48:16Z</time></trkpt><trkpt lat="40.645999748059126" lon="16.074829643046613"><ele>813.8</ele><time>2026-04-26T09:48:17Z</time></trkpt><trkpt lat="40.64592833585736" lon="16.074875414558214"><ele>817.4</ele><time>2026-04-26T09:48:18Z</time></trkpt><trkpt lat="40.64583820197883" lon="16.0749320000205"><ele>821.0</ele><time>2026-04-26T09:48:19Z</time></trkpt><trkpt lat="40.64574715474654" lon="16.07498987552661"><ele>821.0</ele><time>2026-04-26T09:48:20Z</time></trkpt><trkpt lat="40.64566148881804" lon="16.07503074990429"><ele>821.0</ele><time>2026-04-26T09:48:21Z</time></trkpt><trkpt lat="40.64555755436762" lon="16.075057707199807"><ele>821.0</ele><time>2026-04-26T09:48:22Z</time></trkpt><trkpt lat="40.64546508579718" lon="16.0750929839489"><ele>821.0</ele><time>2026-04-26T09:48:23Z</time></trkpt><trkpt lat="40.645397471361285" lon="16.075129299555588"><ele>821.0</ele><time>2026-04-26T09:48:24Z</time></trkpt><trkpt lat="40.64533020332498" lon="16.07520797885213"><ele>823.0000000000001</ele><time>2026-04-26T09:48:26Z</time></trkpt><trkpt lat="40.64525949759258" lon="16.075300153206875"><ele>825.0</ele><time>2026-04-26T09:48:28Z</time></trkpt><trkpt lat="40.64520617111892" lon="16.075383071128257"><ele>827.0</ele><time>2026-04-26T09:48:32Z</time></trkpt><trkpt lat="40.64514307410472" lon="16.075404983321494"><ele>829.0</ele><time>2026-04-26T09:48:34Z</time></trkpt><trkpt lat="40.645067587119634" lon="16.075400322713882"><ele>831.0000000000001</ele><time>2026-04-26T09:48:36Z</time></trkpt><trkpt lat="40.64497814764656" lon="16.075446149411892"><ele>833.0</ele><time>2026-04-26T09:48:38Z</time></trkpt><trkpt lat="40.644903965187616" lon="16.075417441358184"><ele>833.0</ele><time>2026-04-26T09:48:39Z</time></trkpt><trkpt lat="40.64478116744914" lon="16.075459421578284"><ele>833.0</ele><time>2026-04-26T09:48:41Z</time></trkpt><trkpt lat="40.64472147602255" lon="16.07549048157505"><ele>833.0</ele><time>2026-04-26T09:48:42Z</time></trkpt><trkpt lat="40.64467300445844" lon="16.075556953093386"><ele>833.0</ele><time>2026-04-26T09:48:43Z</time></trkpt><trkpt lat="40.6445875107693" lon="16.07563322862108"><ele>833.0</ele><time>2026-04-26T09:48:45Z</time></trkpt><trkpt lat="40.644515708983306" lon="16.075706876578373"><ele>830.8571428571429</ele><time>2026-04-26T09:48:47Z</time></trkpt><trkpt lat="40.64445386870678" lon="16.075722997277754"><ele>828.7142857142858</ele><time>2026-04-26T09:48:49Z</time></trkpt><trkpt lat="40.64438468894027" lon="16.07571502831868"><ele>826.5714285714286</ele><time>2026-04-26T09:48:51Z</time></trkpt><trkpt lat="40.6443153677673" lon="16.07575976158421"><ele>824.4285714285714</ele><time>2026-04-26T09:48:57Z</time></trkpt><trkpt lat="40.64425025167209" lon="16.075774564951672"><ele>822.2857142857143</ele><time>2026-04-26T09:49:05Z</time></trkpt><trkpt lat="40.64419330815188" lon="16.07581247091271"><ele>820.1428571428571</ele><time>2026-04-26T09:50:13Z</time></trkpt><trkpt lat="40.64411257994934" lon="16.075829816591323"><ele>818.0</ele><time>2026-04-26T09:50:15Z</time></trkpt><trkpt lat="40.64402894622787" lon="16.075907184726105"><ele>815.8333333333334</ele><time>2026-04-26T09:50:18Z</time></trkpt><trkpt lat="40.64398851935755" lon="16.07601777795689"><ele>813.6666666666667</ele><time>2026-04-26T09:50:20Z</time></trkpt><trkpt lat="40.6439197337174" lon="16.076039828618146"><ele>811.5</ele><time>2026-04-26T09:50:22Z</time></trkpt><trkpt lat="40.64384929352279" lon="16.076057831311896"><ele>809.3333333333333</ele><time>2026-04-26T09:50:25Z</time></trkpt><trkpt lat="40.643772165813225" lon="16.07606557977323"><ele>807.1666666666666</ele><time>2026-04-26T09:50:27Z</time></trkpt><trkpt lat="40.643707205508356" lon="16.076029424160517"><ele>805.0</ele><time>2026-04-26T09:50:30Z</time></trkpt><trkpt lat="40.643666750985616" lon="16.075950568334747"><ele>803.6</ele><time>2026-04-26T09:50:32Z</time></trkpt><trkpt lat="40.64363017887223" lon="16.075854085671768"><ele>802.2</ele><time>2026-04-26T09:50:34Z</time></trkpt><trkpt lat="40.64357548059584" lon="16.075810930021348"><ele>800.8</ele><time>2026-04-26T09:50:37Z</time></trkpt><trkpt lat="40.64357354571672" lon="16.07568187368722"><ele>799.4</ele><time>2026-04-26T09:50:39Z</time></trkpt><trkpt lat="40.64343744230291" lon="16.075636248754986"><ele>798.0</ele><time>2026-04-26T09:50:41Z</time></trkpt><trkpt lat="40.64345954715788" lon="16.075472147975486"><ele>798.0</ele><time>2026-04-26T09:50:43Z</time></trkpt><trkpt lat="40.64347805949396" lon="16.075305735269964"><ele>798.0</ele><time>2026-04-26T09:50:44Z</time></trkpt><trkpt lat="40.643415999654025" lon="16.07518357041337"><ele>798.0</ele><time>2026-04-26T09:50:45Z</time></trkpt><trkpt lat="40.643363741970376" lon="16.075081120460933"><ele>798.0</ele><time>2026-04-26T09:50:46Z</time></trkpt><trkpt lat="40.643274881777884" lon="16.0749920830303"><ele>798.0</ele><time>2026-04-26T09:50:47Z</time></trkpt><trkpt lat="40.64323982716765" lon="16.074902822621503"><ele>801.5999999999999</ele><time>2026-04-26T09:50:48Z</time></trkpt><trkpt lat="40.64320181744657" lon="16.074788767469883"><ele>805.1999999999999</ele><time>2026-04-26T09:50:49Z</time></trkpt><trkpt lat="40.6432292525477" lon="16.074666253046136"><ele>808.8</ele><time>2026-04-26T09:50:50Z</time></trkpt><trkpt lat="40.6431986131605" lon="16.074572673331907"><ele>812.4</ele><time>2026-04-26T09:50:51Z</time></trkpt><trkpt lat="40.643248602535444" lon="16.07444563209629"><ele>816.0</ele><time>2026-04-26T09:50:53Z</time></trkpt><trkpt lat="40.64335149545061" lon="16.07439137331472"><ele>816.0</ele><time>2026-04-26T09:50:55Z</time></trkpt><trkpt lat="40.643470913012465" lon="16.074314379646015"><ele>816.0</ele><time>2026-04-26T09:50:57Z</time></trkpt><trkpt lat="40.64356230625599" lon="16.074305865954738"><ele>816.0</ele><time>2026-04-26T09:50:59Z</time></trkpt><trkpt lat="40.64363289506356" lon="16.074223155912016"><ele>816.0</ele><time>2026-04-26T09:51:00Z</time></trkpt><trkpt lat="40.64367565343321" lon="16.074131577300246"><ele>816.0</ele><time>2026-04-26T09:51:01Z</time></trkpt><trkpt lat="40.64367489262916" lon="16.073979553045685"><ele>818.8333333333334</ele><time>2026-04-26T09:51:03Z</time></trkpt><trkpt lat="40.64363124411872" lon="16.07389086011919"><ele>821.6666666666667</ele><time>2026-04-26T09:51:05Z</time></trkpt><trkpt lat="40.64359311043508" lon="16.07377977231699"><ele>824.5</ele><time>2026-04-26T09:51:07Z</time></trkpt><trkpt lat="40.64357276129469" lon="16.07368068112171"><ele>827.3333333333334</ele><time>2026-04-26T09:51:08Z</time></trkpt><trkpt lat="40.64349362191124" lon="16.07364131182639"><ele>830.1666666666667</ele><time>2026-04-26T09:51:10Z</time></trkpt><trkpt lat="40.64344569336425" lon="16.073550859723884"><ele>833.0</ele><time>2026-04-26T09:51:15Z</time></trkpt><trkpt lat="40.64336394179705" lon="16.073532111791984"><ele>833.0000000000001</ele><time>2026-04-26T09:51:17Z</time></trkpt><trkpt lat="40.643318682031826" lon="16.0735981836594"><ele>833.0</ele><time>2026-04-26T09:51:19Z</time></trkpt><trkpt lat="40.6432577819149" lon="16.073675317979585"><ele>833.0</ele><time>2026-04-26T09:51:22Z</time></trkpt><trkpt lat="40.64317291412668" lon="16.07370986193652"><ele>833.0</ele><time>2026-04-26T09:51:25Z</time></trkpt><trkpt lat="40.64310962895602" lon="16.073730281757413"><ele>833.0000000000001</ele><time>2026-04-26T09:51:27Z</time></trkpt><trkpt lat="40.64304962404854" lon="16.073778461993818"><ele>833.0</ele><time>2026-04-26T09:51:30Z</time></trkpt><trkpt lat="40.642953326260624" lon="16.073818386720728"><ele>833.0</ele><time>2026-04-26T09:51:33Z</time></trkpt><trkpt lat="40.642886554689085" lon="16.073733329503444"><ele>833.0</ele><time>2026-04-26T09:51:37Z</time></trkpt><trkpt lat="40.64278224482339" lon="16.07357229933474"><ele>833.0</ele><time>2026-04-26T09:51:39Z</time></trkpt><trkpt lat="40.64273749804632" lon="16.07349162755232"><ele>833.0</ele><time>2026-04-26T09:51:40Z</time></trkpt><trkpt lat="40.64268368658616" lon="16.073391465668532"><ele>833.0</ele><time>2026-04-26T09:51:42Z</time></trkpt><trkpt lat="40.64265123035992" lon="16.07331563577927"><ele>833.0000000000001</ele><time>2026-04-26T09:51:44Z</time></trkpt><trkpt lat="40.64261551577522" lon="16.073203664832388"><ele>833.0</ele><time>2026-04-26T09:51:46Z</time></trkpt><trkpt lat="40.642560849248135" lon="16.07306226582088"><ele>833.0</ele><time>2026-04-26T09:51:48Z</time></trkpt><trkpt lat="40.64249356585244" lon="16.073004158928608"><ele>833.0</ele><time>2026-04-26T09:51:49Z</time></trkpt><trkpt lat="40.64245644449675" lon="16.072934136266102"><ele>833.0000000000001</ele><time>2026-04-26T09:51:50Z</time></trkpt><trkpt lat="40.64241275516973" lon="16.072836695697983"><ele>833.0</ele><time>2026-04-26T09:51:52Z</time></trkpt><trkpt lat="40.6424595648263" lon="16.072753142969074"><ele>833.0000000000001</ele><time>2026-04-26T09:51:54Z</time></trkpt><trkpt lat="40.6423797171749" lon="16.072746441499408"><ele>833.0</ele><time>2026-04-26T09:51:56Z</time></trkpt><trkpt lat="40.64228208467304" lon="16.072699216148425"><ele>833.0</ele><time>2026-04-26T09:51:57Z</time></trkpt><trkpt lat="40.64222938887698" lon="16.072649938477415"><ele>833.0</ele><time>2026-04-26T09:51:59Z</time></trkpt><trkpt lat="40.642159177165844" lon="16.072664907063636"><ele>833.0000000000001</ele><time>2026-04-26T09:52:00Z</time></trkpt><trkpt lat="40.64216263318374" lon="16.072557962710267"><ele>833.0</ele><time>2026-04-26T09:52:03Z</time></trkpt><trkpt lat="40.642103538335235" lon="16.072511824059877"><ele>833.0</ele><time>2026-04-26T09:52:06Z</time></trkpt><trkpt lat="40.64205952366664" lon="16.07243711461429"><ele>833.0</ele><time>2026-04-26T09:52:09Z</time></trkpt><trkpt lat="40.64189210315566" lon="16.072484042473082"><ele>833.0</ele><time>2026-04-26T09:52:11Z</time></trkpt><trkpt lat="40.641790736613" lon="16.072591723442226"><ele>833.0</ele><time>2026-04-26T09:52:12Z</time></trkpt><trkpt lat="40.64166769805087" lon="16.072632863443687"><ele>833.0</ele><time>2026-04-26T09:52:15Z</time></trkpt><trkpt lat="40.64162816147739" lon="16.072743117677884"><ele>833.0</ele><time>2026-04-26T09:52:16Z</time></trkpt><trkpt lat="40.64164602086641" lon="16.07284534466363"><ele>833.0</ele><time>2026-04-26T09:52:18Z</time></trkpt><trkpt lat="40.64155854931614" lon="16.0729215962495"><ele>833.0</ele><time>2026-04-26T09:52:21Z</time></trkpt><trkpt lat="40.641496293899856" lon="16.072985529508696"><ele>833.0</ele><time>2026-04-26T09:52:24Z</time></trkpt><trkpt lat="40.64141378730725" lon="16.07310443313904"><ele>833.0000000000001</ele><time>2026-04-26T09:52:26Z</time></trkpt><trkpt lat="40.641375598704364" lon="16.073189098473918"><ele>833.0</ele><time>2026-04-26T09:52:27Z</time></trkpt><trkpt lat="40.641325003054305" lon="16.073313846005085"><ele>833.0</ele><time>2026-04-26T09:52:29Z</time></trkpt><trkpt lat="40.6413271003412" lon="16.07341715532706"><ele>833.0</ele><time>2026-04-26T09:52:30Z</time></trkpt><trkpt lat="40.641304841409664" lon="16.07353646320151"><ele>833.0000000000001</ele><time>2026-04-26T09:52:32Z</time></trkpt><trkpt lat="40.641228888720605" lon="16.073567200499614"><ele>833.0</ele><time>2026-04-26T09:52:35Z</time></trkpt><trkpt lat="40.64114309923611" lon="16.073525378070673"><ele>834.5000000000001</ele><time>2026-04-26T09:52:37Z</time></trkpt><trkpt lat="40.641076604668676" lon="16.073487551486323"><ele>836.0</ele><time>2026-04-26T09:52:38Z</time></trkpt><trkpt lat="40.641000416649035" lon="16.073562276252034"><ele>837.5</ele><time>2026-04-26T09:52:40Z</time></trkpt><trkpt lat="40.641069695153966" lon="16.07359845411052"><ele>839.0</ele><time>2026-04-26T09:52:42Z</time></trkpt><trkpt lat="40.64100226334718" lon="16.073687344093976"><ele>840.5000000000001</ele><time>2026-04-26T09:52:44Z</time></trkpt><trkpt lat="40.64093838860279" lon="16.073726249190173"><ele>842.0</ele><time>2026-04-26T09:52:45Z</time></trkpt><trkpt lat="40.640981672465166" lon="16.073865192910365"><ele>842.0</ele><time>2026-04-26T09:52:47Z</time></trkpt><trkpt lat="40.640983768180824" lon="16.073991120518418"><ele>842.0</ele><time>2026-04-26T09:52:50Z</time></trkpt><trkpt lat="40.64097893669285" lon="16.074134779964428"><ele>842.0</ele><time>2026-04-26T09:52:52Z</time></trkpt><trkpt lat="40.64091649440518" lon="16.074079850550508"><ele>842.0</ele><time>2026-04-26T09:52:55Z</time></trkpt><trkpt lat="40.640782680130656" lon="16.073983090969314"><ele>842.0</ele><time>2026-04-26T09:52:57Z</time></trkpt><trkpt lat="40.64068190469306" lon="16.073892907838555"><ele>842.0</ele><time>2026-04-26T09:52:59Z</time></trkpt><trkpt lat="40.64057973265964" lon="16.073849711598097"><ele>842.0</ele><time>2026-04-26T09:53:01Z</time></trkpt><trkpt lat="40.64043531690517" lon="16.074051185625528"><ele>842.0</ele><time>2026-04-26T09:53:03Z</time></trkpt><trkpt lat="40.64043797248897" lon="16.074183435969587"><ele>842.0</ele><time>2026-04-26T09:53:04Z</time></trkpt><trkpt lat="40.6404104416611" lon="16.074298717460465"><ele>842.6666666666667</ele><time>2026-04-26T09:53:05Z</time></trkpt><trkpt lat="40.640363964416125" lon="16.074408164108654"><ele>843.3333333333334</ele><time>2026-04-26T09:53:07Z</time></trkpt><trkpt lat="40.64033933785515" lon="16.07451425322656"><ele>844.0</ele><time>2026-04-26T09:53:09Z</time></trkpt><trkpt lat="40.64025381684372" lon="16.07450312613884"><ele>844.6666666666667</ele><time>2026-04-26T09:53:11Z</time></trkpt><trkpt lat="40.64017920167269" lon="16.07450832003324"><ele>845.3333333333334</ele><time>2026-04-26T09:53:12Z</time></trkpt><trkpt lat="40.6401447943595" lon="16.07458321138148"><ele>846.0</ele><time>2026-04-26T09:53:13Z</time></trkpt><trkpt lat="40.640171862570526" lon="16.07477223957983"><ele>846.0</ele><time>2026-04-26T09:53:15Z</time></trkpt><trkpt lat="40.64023939126987" lon="16.07482963849477"><ele>846.0</ele><time>2026-04-26T09:53:16Z</time></trkpt><trkpt lat="40.6403479697292" lon="16.074900075459553"><ele>846.0</ele><time>2026-04-26T09:53:18Z</time></trkpt><trkpt lat="40.640384484452696" lon="16.074976502858096"><ele>846.0</ele><time>2026-04-26T09:53:20Z</time></trkpt><trkpt lat="40.640345552376964" lon="16.07487894359883"><ele>846.0</ele><time>2026-04-26T09:54:27Z</time></trkpt><trkpt lat="40.64040179193062" lon="16.07494000289284"><ele>846.0</ele><time>2026-04-26T09:55:29Z</time></trkpt><trkpt lat="40.640425745799554" lon="16.075026462034746"><ele>846.6666666666666</ele><time>2026-04-26T09:59:54Z</time></trkpt><trkpt lat="40.640357024817845" lon="16.075072898936302"><ele>847.3333333333333</ele><time>2026-04-26T10:01:42Z</time></trkpt><trkpt lat="40.640288905515" lon="16.075118537736927"><ele>848.0</ele><time>2026-04-26T10:02:16.001Z</time></trkpt><trkpt lat="40.640238591365524" lon="16.075180220688466"><ele>848.6666666666666</ele><time>2026-04-26T10:02:18Z</time></trkpt><trkpt lat="40.64014539786162" lon="16.075221824697124"><ele>849.3333333333333</ele><time>2026-04-26T10:02:33Z</time></trkpt><trkpt lat="40.64011289585627" lon="16.075320668917175"><ele>850.0</ele><time>2026-04-26T10:02:34Z</time></trkpt><trkpt lat="40.64003984072458" lon="16.075458163289884"><ele>852.4999999999999</ele><time>2026-04-26T10:02:36Z</time></trkpt><trkpt lat="40.64005639722206" lon="16.075550838301705"><ele>855.0</ele><time>2026-04-26T10:02:37Z</time></trkpt><trkpt lat="40.64004627424865" lon="16.07564789000171"><ele>857.5</ele><time>2026-04-26T10:02:39Z</time></trkpt><trkpt lat="40.639961880513816" lon="16.075658398107056"><ele>860.0</ele><time>2026-04-26T10:02:41Z</time></trkpt><trkpt lat="40.63984467968721" lon="16.07565958957564"><ele>862.4999999999999</ele><time>2026-04-26T10:02:44Z</time></trkpt><trkpt lat="40.639768820358604" lon="16.07566525638079"><ele>865.0</ele><time>2026-04-26T10:02:45.001Z</time></trkpt><trkpt lat="40.63969566341971" lon="16.075686054334213"><ele>864.9999999999999</ele><time>2026-04-26T10:02:46.001Z</time></trkpt><trkpt lat="40.639623860419704" lon="16.075722909597246"><ele>865.0</ele><time>2026-04-26T10:02:47.001Z</time></trkpt><trkpt lat="40.6395640520191" lon="16.07576340186028"><ele>865.0</ele><time>2026-04-26T10:02:48.001Z</time></trkpt><trkpt lat="40.6395297111393" lon="16.075864843941893"><ele>865.0</ele><time>2026-04-26T10:02:50.001Z</time></trkpt><trkpt lat="40.639563175622285" lon="16.07598653439864"><ele>864.9999999999999</ele><time>2026-04-26T10:02:52.001Z</time></trkpt><trkpt lat="40.63946667809346" lon="16.076062180041983"><ele>865.0</ele><time>2026-04-26T10:02:55.001Z</time></trkpt><trkpt lat="40.63932922572328" lon="16.076029582438462"><ele>864.1666666666666</ele><time>2026-04-26T10:03:00.001Z</time></trkpt><trkpt lat="40.639264495520834" lon="16.07600110064298"><ele>863.3333333333333</ele><time>2026-04-26T10:03:01.001Z</time></trkpt><trkpt lat="40.639180229799045" lon="16.075938642746394"><ele>862.5</ele><time>2026-04-26T10:03:03.001Z</time></trkpt><trkpt lat="40.63906963253352" lon="16.075969334053816"><ele>861.6666666666667</ele><time>2026-04-26T10:03:06.001Z</time></trkpt><trkpt lat="40.639003559426904" lon="16.07601270092439"><ele>860.8333333333334</ele><time>2026-04-26T10:03:07.001Z</time></trkpt><trkpt lat="40.63892055915124" lon="16.076056832258832"><ele>860.0</ele><time>2026-04-26T10:03:08.001Z</time></trkpt><trkpt lat="40.63887022305909" lon="16.0761211204595"><ele>860.0000000000001</ele><time>2026-04-26T10:03:09.001Z</time></trkpt><trkpt lat="40.63880692672447" lon="16.076178762023623"><ele>860.0</ele><time>2026-04-26T10:03:11.001Z</time></trkpt><trkpt lat="40.63868449944297" lon="16.076278097793264"><ele>860.0</ele><time>2026-04-26T10:03:12.001Z</time></trkpt><trkpt lat="40.6386099189274" lon="16.07635114848263"><ele>860.0</ele><time>2026-04-26T10:03:13.001Z</time></trkpt><trkpt lat="40.63856651734525" lon="16.076412268996915"><ele>860.0000000000001</ele><time>2026-04-26T10:03:17.001Z</time></trkpt><trkpt lat="40.63855044351924" lon="16.07649565078813"><ele>860.0</ele><time>2026-04-26T10:03:25.001Z</time></trkpt><trkpt lat="40.638561425851925" lon="16.076401794177684"><ele>859.1428571428571</ele><time>2026-04-26T10:06:25.001Z</time></trkpt><trkpt lat="40.63859676812172" lon="16.076332455921342"><ele>858.2857142857143</ele><time>2026-04-26T10:06:42.001Z</time></trkpt><trkpt lat="40.63854269923644" lon="16.076388439438524"><ele>857.4285714285714</ele><time>2026-04-26T10:07:05.001Z</time></trkpt><trkpt lat="40.63848228734691" lon="16.076432568175033"><ele>856.5714285714286</ele><time>2026-04-26T10:07:13.001Z</time></trkpt><trkpt lat="40.638515678038154" lon="16.076516607295208"><ele>855.7142857142858</ele><time>2026-04-26T10:07:39.001Z</time></trkpt><trkpt lat="40.638526563059536" lon="16.0764337774607"><ele>854.8571428571429</ele><time>2026-04-26T10:12:57.997Z</time></trkpt><trkpt lat="40.63858264091278" lon="16.07639425255298"><ele>854.0</ele><time>2026-04-26T10:13:05.998Z</time></trkpt><trkpt lat="40.638548725897444" lon="16.076320758372933"><ele>854.0</ele><time>2026-04-26T10:13:33.999Z</time></trkpt><trkpt lat="40.63851354646173" lon="16.07639294995702"><ele>854.0</ele><time>2026-04-26T10:13:39.999Z</time></trkpt><trkpt lat="40.63853411617624" lon="16.076526079355446"><ele>854.0</ele><time>2026-04-26T10:14:37Z</time></trkpt><trkpt lat="40.63853271449116" lon="16.076440079567558"><ele>854.0</ele><time>2026-04-26T10:16:13Z</time></trkpt><trkpt lat="40.638584161892204" lon="16.07638859330776"><ele>854.0</ele><time>2026-04-26T10:16:20Z</time></trkpt><trkpt lat="40.63857559952769" lon="16.07647860166651"><ele>854.0</ele><time>2026-04-26T10:16:57.001Z</time></trkpt><trkpt lat="40.63850303367597" lon="16.076526966980555"><ele>854.0</ele><time>2026-04-26T10:18:50.001Z</time></trkpt><trkpt lat="40.638428412075406" lon="16.07656874459235"><ele>854.0</ele><time>2026-04-26T10:18:52.001Z</time></trkpt><trkpt lat="40.63832333576552" lon="16.076602521714403"><ele>854.0000000000001</ele><time>2026-04-26T10:18:54.001Z</time></trkpt><trkpt lat="40.63821920650412" lon="16.07669294725974"><ele>854.0000000000001</ele><time>2026-04-26T10:18:56.001Z</time></trkpt><trkpt lat="40.63816056872263" lon="16.07675541956764"><ele>854.0</ele><time>2026-04-26T10:18:57.001Z</time></trkpt><trkpt lat="40.63811223621063" lon="16.076830134734966"><ele>854.0</ele><time>2026-04-26T10:18:58.001Z</time></trkpt><trkpt lat="40.63806018974371" lon="16.07694965346761"><ele>854.4000000000001</ele><time>2026-04-26T10:19:00.001Z</time></trkpt><trkpt lat="40.63801605335282" lon="16.07705254190741"><ele>854.8000000000001</ele><time>2026-04-26T10:19:02.001Z</time></trkpt><trkpt lat="40.63796964914913" lon="16.07711241791786"><ele>855.1999999999999</ele><time>2026-04-26T10:19:03.001Z</time></trkpt><trkpt lat="40.63789855332385" lon="16.07724617617925"><ele>855.5999999999999</ele><time>2026-04-26T10:19:05.001Z</time></trkpt><trkpt lat="40.63785768581321" lon="16.077370687126525"><ele>856.0</ele><time>2026-04-26T10:19:07.001Z</time></trkpt><trkpt lat="40.63779867026804" lon="16.077510562663765"><ele>854.3333333333333</ele><time>2026-04-26T10:19:09.001Z</time></trkpt><trkpt lat="40.637741459830046" lon="16.077598072424454"><ele>852.6666666666666</ele><time>2026-04-26T10:19:10.001Z</time></trkpt><trkpt lat="40.637709525477966" lon="16.07769357114215"><ele>851.0</ele><time>2026-04-26T10:19:11.001Z</time></trkpt><trkpt lat="40.6376520697027" lon="16.077770855222354"><ele>849.3333333333333</ele><time>2026-04-26T10:19:12.001Z</time></trkpt><trkpt lat="40.637616744787756" lon="16.077856895144404"><ele>847.6666666666666</ele><time>2026-04-26T10:19:13.001Z</time></trkpt><trkpt lat="40.63755437400799" lon="16.077929300950753"><ele>846.0</ele><time>2026-04-26T10:19:14.001Z</time></trkpt><trkpt lat="40.63751895734203" lon="16.077999750429814"><ele>846.0</ele><time>2026-04-26T10:19:15.001Z</time></trkpt><trkpt lat="40.63747964267712" lon="16.07807630876458"><ele>846.0</ele><time>2026-04-26T10:19:18.001Z</time></trkpt><trkpt lat="40.63747845408463" lon="16.078167128735636"><ele>846.0</ele><time>2026-04-26T10:19:27.001Z</time></trkpt><trkpt lat="40.637539030873064" lon="16.078189745553537"><ele>846.0</ele><time>2026-04-26T10:19:29.001Z</time></trkpt><trkpt lat="40.637604023686556" lon="16.078016331675652"><ele>846.0</ele><time>2026-04-26T10:19:31.001Z</time></trkpt><trkpt lat="40.6376500563718" lon="16.0778814495825"><ele>846.0</ele><time>2026-04-26T10:19:32.001Z</time></trkpt><trkpt lat="40.63769161741944" lon="16.077815574176824"><ele>846.0</ele><time>2026-04-26T10:19:33.001Z</time></trkpt><trkpt lat="40.63775714429588" lon="16.077711044454595"><ele>846.0</ele><time>2026-04-26T10:19:34.001Z</time></trkpt><trkpt lat="40.63782995904395" lon="16.077607732765745"><ele>846.0</ele><time>2026-04-26T10:19:35.001Z</time></trkpt><trkpt lat="40.637860650855444" lon="16.077472702315205"><ele>846.0</ele><time>2026-04-26T10:19:36.001Z</time></trkpt><trkpt lat="40.637906955761075" lon="16.077386775474356"><ele>847.6666666666666</ele><time>2026-04-26T10:19:37.001Z</time></trkpt><trkpt lat="40.63796976712013" lon="16.077280979351386"><ele>849.3333333333333</ele><time>2026-04-26T10:19:39.001Z</time></trkpt><trkpt lat="40.63800914451583" lon="16.07718188469652"><ele>851.0</ele><time>2026-04-26T10:19:41.001Z</time></trkpt><trkpt lat="40.63811461252598" lon="16.077125402156465"><ele>852.6666666666666</ele><time>2026-04-26T10:19:43.001Z</time></trkpt><trkpt lat="40.63819748680505" lon="16.07712094882451"><ele>854.3333333333333</ele><time>2026-04-26T10:19:46.001Z</time></trkpt><trkpt lat="40.63823088539215" lon="16.077193880689048"><ele>856.0</ele><time>2026-04-26T10:19:53.001Z</time></trkpt><trkpt lat="40.63830458224365" lon="16.077300717046192"><ele>855.9999999999999</ele><time>2026-04-26T10:19:57.001Z</time></trkpt><trkpt lat="40.63833134565585" lon="16.077377034739875"><ele>856.0</ele><time>2026-04-26T10:20:00.001Z</time></trkpt><trkpt lat="40.63839537751005" lon="16.07747111887345"><ele>856.0</ele><time>2026-04-26T10:20:02.001Z</time></trkpt><trkpt lat="40.63844167656703" lon="16.077578831033165"><ele>856.0</ele><time>2026-04-26T10:20:04.001Z</time></trkpt><trkpt lat="40.63848647609976" lon="16.077683375663188"><ele>855.9999999999999</ele><time>2026-04-26T10:20:07.001Z</time></trkpt><trkpt lat="40.63854055023062" lon="16.07778117713881"><ele>856.0</ele><time>2026-04-26T10:20:09.001Z</time></trkpt><trkpt lat="40.63857098485665" lon="16.077868351759136"><ele>855.1666666666666</ele><time>2026-04-26T10:20:11.001Z</time></trkpt><trkpt lat="40.638548062086464" lon="16.077971139761114"><ele>854.3333333333333</ele><time>2026-04-26T10:20:13.001Z</time></trkpt><trkpt lat="40.63858850240594" lon="16.078039869388427"><ele>853.5</ele><time>2026-04-26T10:20:14.001Z</time></trkpt><trkpt lat="40.638639354614625" lon="16.078137147172814"><ele>852.6666666666667</ele><time>2026-04-26T10:20:16.001Z</time></trkpt><trkpt lat="40.63868059666982" lon="16.07820584474055"><ele>851.8333333333334</ele><time>2026-04-26T10:20:18.001Z</time></trkpt><trkpt lat="40.638736103407254" lon="16.078248821388367"><ele>851.0</ele><time>2026-04-26T10:20:20.001Z</time></trkpt><trkpt lat="40.63880422919784" lon="16.078390474275146"><ele>845.0000000000001</ele><time>2026-04-26T10:20:22.001Z</time></trkpt><trkpt lat="40.638872788731305" lon="16.078447004854286"><ele>839.0</ele><time>2026-04-26T10:20:23.001Z</time></trkpt><trkpt lat="40.63891505716245" lon="16.078520459172154"><ele>833.0</ele><time>2026-04-26T10:20:24.001Z</time></trkpt><trkpt lat="40.638927742741956" lon="16.0786226903565"><ele>827.0</ele><time>2026-04-26T10:20:25.001Z</time></trkpt><trkpt lat="40.63901944818474" lon="16.078645890534645"><ele>821.0000000000001</ele><time>2026-04-26T10:20:27.001Z</time></trkpt><trkpt lat="40.639071888980716" lon="16.078698205913394"><ele>815.0</ele><time>2026-04-26T10:20:28.001Z</time></trkpt><trkpt lat="40.63913562478355" lon="16.07875528178414"><ele>815.0000000000001</ele><time>2026-04-26T10:20:29.001Z</time></trkpt><trkpt lat="40.63920610754635" lon="16.07882757892903"><ele>815.0</ele><time>2026-04-26T10:20:30.001Z</time></trkpt><trkpt lat="40.639263770174765" lon="16.078897588588937"><ele>815.0</ele><time>2026-04-26T10:20:31.001Z</time></trkpt><trkpt lat="40.63932352448369" lon="16.0789488723365"><ele>815.0</ele><time>2026-04-26T10:20:32.001Z</time></trkpt><trkpt lat="40.63938751093739" lon="16.079000792446546"><ele>815.0000000000001</ele><time>2026-04-26T10:20:33.001Z</time></trkpt><trkpt lat="40.639444921473434" lon="16.079066249021526"><ele>815.0</ele><time>2026-04-26T10:20:35.001Z</time></trkpt><trkpt lat="40.63950121849583" lon="16.079117702639383"><ele>808.0</ele><time>2026-04-26T10:20:37.001Z</time></trkpt><trkpt lat="40.639594274921045" lon="16.07920503433151"><ele>801.0</ele><time>2026-04-26T10:20:40.001Z</time></trkpt><trkpt lat="40.639676088256536" lon="16.079259488139588"><ele>794.0</ele><time>2026-04-26T10:20:42.001Z</time></trkpt><trkpt lat="40.639766867560596" lon="16.07930992634441"><ele>787.0</ele><time>2026-04-26T10:20:44.001Z</time></trkpt><trkpt lat="40.63983097334901" lon="16.079368469278243"><ele>780.0</ele><time>2026-04-26T10:20:46.001Z</time></trkpt><trkpt lat="40.639937696615334" lon="16.07934624398975"><ele>780.0</ele><time>2026-04-26T10:20:49.001Z</time></trkpt><trkpt lat="40.63998251858505" lon="16.079273521344604"><ele>780.0</ele><time>2026-04-26T10:20:51.001Z</time></trkpt><trkpt lat="40.64002714381181" lon="16.079161445631087"><ele>780.0</ele><time>2026-04-26T10:20:54.001Z</time></trkpt><trkpt lat="40.64010123079454" lon="16.07910730069534"><ele>780.0</ele><time>2026-04-26T10:20:57.001Z</time></trkpt><trkpt lat="40.640141271688" lon="16.079026460241586"><ele>780.0</ele><time>2026-04-26T10:20:58.001Z</time></trkpt><trkpt lat="40.64021702994084" lon="16.078978769409648"><ele>780.0</ele><time>2026-04-26T10:21:00.001Z</time></trkpt><trkpt lat="40.64028341204328" lon="16.078950304204227"><ele>780.4</ele><time>2026-04-26T10:21:01.001Z</time></trkpt><trkpt lat="40.64038274795095" lon="16.078858189233944"><ele>780.8</ele><time>2026-04-26T10:21:03.001Z</time></trkpt><trkpt lat="40.640444381859275" lon="16.07874589405726"><ele>781.2</ele><time>2026-04-26T10:21:05.001Z</time></trkpt><trkpt lat="40.640485483271796" lon="16.078629469515562"><ele>781.6</ele><time>2026-04-26T10:21:07.001Z</time></trkpt><trkpt lat="40.6405119164983" lon="16.078548251862532"><ele>782.0</ele><time>2026-04-26T10:21:10.001Z</time></trkpt><trkpt lat="40.640621527572314" lon="16.078545956003655"><ele>782.0</ele><time>2026-04-26T10:21:19.001Z</time></trkpt><trkpt lat="40.64075785954874" lon="16.07851659251407"><ele>782.0</ele><time>2026-04-26T10:21:21.001Z</time></trkpt><trkpt lat="40.64084120568959" lon="16.07848670795699"><ele>782.0</ele><time>2026-04-26T10:21:22.001Z</time></trkpt><trkpt lat="40.64090981546417" lon="16.078454593260904"><ele>782.0</ele><time>2026-04-26T10:21:23.001Z</time></trkpt><trkpt lat="40.64098735202474" lon="16.078327818455772"><ele>782.0</ele><time>2026-04-26T10:21:25.001Z</time></trkpt><trkpt lat="40.64101631684081" lon="16.078222324386132"><ele>783.6666666666667</ele><time>2026-04-26T10:21:26.001Z</time></trkpt><trkpt lat="40.64106853164011" lon="16.078166467429906"><ele>785.3333333333334</ele><time>2026-04-26T10:21:27.001Z</time></trkpt><trkpt lat="40.64114812492425" lon="16.07810750241242"><ele>787.0</ele><time>2026-04-26T10:21:29.001Z</time></trkpt><trkpt lat="40.641217332655245" lon="16.078100289105723"><ele>788.6666666666667</ele><time>2026-04-26T10:21:31.001Z</time></trkpt><trkpt lat="40.64129017308437" lon="16.078094097372436"><ele>790.3333333333334</ele><time>2026-04-26T10:21:32.001Z</time></trkpt><trkpt lat="40.64138001032824" lon="16.07807916775305"><ele>792.0</ele><time>2026-04-26T10:21:34.001Z</time></trkpt><trkpt lat="40.641464810927566" lon="16.07802844071509"><ele>792.0</ele><time>2026-04-26T10:21:36.001Z</time></trkpt><trkpt lat="40.64153307178171" lon="16.077930079996058"><ele>792.0</ele><time>2026-04-26T10:21:39.001Z</time></trkpt><trkpt lat="40.641538893217955" lon="16.07782846345624"><ele>792.0</ele><time>2026-04-26T10:21:41.001Z</time></trkpt><trkpt lat="40.64161212604594" lon="16.077735705214735"><ele>792.0</ele><time>2026-04-26T10:21:44.001Z</time></trkpt><trkpt lat="40.64168321678568" lon="16.077621214002807"><ele>792.0</ele><time>2026-04-26T10:21:46.001Z</time></trkpt><trkpt lat="40.64176773093941" lon="16.07751924725804"><ele>789.6</ele><time>2026-04-26T10:21:48.001Z</time></trkpt><trkpt lat="40.64183534753507" lon="16.077417678470862"><ele>787.2</ele><time>2026-04-26T10:21:50.001Z</time></trkpt><trkpt lat="40.641923218250646" lon="16.07734817795028"><ele>784.8</ele><time>2026-04-26T10:21:52.001Z</time></trkpt><trkpt lat="40.64200174082707" lon="16.077426889847256"><ele>782.4</ele><time>2026-04-26T10:21:56.001Z</time></trkpt><trkpt lat="40.64204108425852" lon="16.077502531760317"><ele>780.0</ele><time>2026-04-26T10:21:58.001Z</time></trkpt><trkpt lat="40.642127270939284" lon="16.077518001222085"><ele>780.0</ele><time>2026-04-26T10:22:02.001Z</time></trkpt><trkpt lat="40.64220214557017" lon="16.077471217904712"><ele>780.0</ele><time>2026-04-26T10:22:04.001Z</time></trkpt><trkpt lat="40.64229643733616" lon="16.077501232216896"><ele>780.0</ele><time>2026-04-26T10:22:07.001Z</time></trkpt><trkpt lat="40.64237778133467" lon="16.077467735417468"><ele>780.0</ele><time>2026-04-26T10:22:10.001Z</time></trkpt><trkpt lat="40.642451483273575" lon="16.077413523957823"><ele>780.0</ele><time>2026-04-26T10:22:13.001Z</time></trkpt><trkpt lat="40.64251144705391" lon="16.0773641100119"><ele>780.0</ele><time>2026-04-26T10:22:16.001Z</time></trkpt><trkpt lat="40.642532249790904" lon="16.077267103452243"><ele>780.0</ele><time>2026-04-26T10:22:19.001Z</time></trkpt><trkpt lat="40.642576545540784" lon="16.07720052044812"><ele>780.0</ele><time>2026-04-26T10:22:22.001Z</time></trkpt><trkpt lat="40.64264637004738" lon="16.077197288873485"><ele>780.0</ele><time>2026-04-26T10:22:24.001Z</time></trkpt><trkpt lat="40.642762853879624" lon="16.077173430114634"><ele>780.0</ele><time>2026-04-26T10:22:26.001Z</time></trkpt><trkpt lat="40.64288865387684" lon="16.077244590099774"><ele>780.0</ele><time>2026-04-26T10:22:29.001Z</time></trkpt><trkpt lat="40.64296021089421" lon="16.07730248998507"><ele>778.3333333333334</ele><time>2026-04-26T10:22:33.001Z</time></trkpt><trkpt lat="40.64300996538428" lon="16.077355645286076"><ele>776.6666666666667</ele><time>2026-04-26T10:22:35.001Z</time></trkpt><trkpt lat="40.64309519339938" lon="16.07736449472596"><ele>775.0</ele><time>2026-04-26T10:22:37.001Z</time></trkpt><trkpt lat="40.64316039695462" lon="16.07731761405267"><ele>773.3333333333334</ele><time>2026-04-26T10:22:38.001Z</time></trkpt><trkpt lat="40.64321948956444" lon="16.07726561579592"><ele>771.6666666666667</ele><time>2026-04-26T10:22:39.001Z</time></trkpt><trkpt lat="40.64327913625511" lon="16.07721891629569"><ele>770.0</ele><time>2026-04-26T10:22:40.001Z</time></trkpt><trkpt lat="40.6434090284878" lon="16.07714831655591"><ele>770.0000000000001</ele><time>2026-04-26T10:22:42.001Z</time></trkpt><trkpt lat="40.64349950014251" lon="16.07708966202393"><ele>770.0</ele><time>2026-04-26T10:22:44.001Z</time></trkpt><trkpt lat="40.6435790610538" lon="16.076991241732628"><ele>770.0</ele><time>2026-04-26T10:22:46.001Z</time></trkpt><trkpt lat="40.64366135723063" lon="16.07698338816001"><ele>770.0</ele><time>2026-04-26T10:22:49.001Z</time></trkpt><trkpt lat="40.64373470261082" lon="16.076979870300956"><ele>770.0000000000001</ele><time>2026-04-26T10:22:50.001Z</time></trkpt><trkpt lat="40.64379382935962" lon="16.076948206018425"><ele>770.0</ele><time>2026-04-26T10:22:52.001Z</time></trkpt><trkpt lat="40.6438078606485" lon="16.076851778530067"><ele>774.3333333333334</ele><time>2026-04-26T10:22:54.001Z</time></trkpt><trkpt lat="40.64385143734444" lon="16.076785237350396"><ele>778.6666666666667</ele><time>2026-04-26T10:22:55.001Z</time></trkpt><trkpt lat="40.64392407841199" lon="16.076790818163865"><ele>783.0</ele><time>2026-04-26T10:22:58.001Z</time></trkpt><trkpt lat="40.6439957599554" lon="16.07677630544561"><ele>787.3333333333333</ele><time>2026-04-26T10:22:59.001Z</time></trkpt><trkpt lat="40.64407661608432" lon="16.07692747996673"><ele>791.6666666666666</ele><time>2026-04-26T10:23:00.001Z</time></trkpt><trkpt lat="40.644129704201426" lon="16.07701462711649"><ele>796.0</ele><time>2026-04-26T10:23:01.001Z</time></trkpt><trkpt lat="40.64418732119196" lon="16.07705874693019"><ele>795.9999999999999</ele><time>2026-04-26T10:23:02.001Z</time></trkpt><trkpt lat="40.64417075056374" lon="16.07716034500126"><ele>796.0</ele><time>2026-04-26T10:23:07.001Z</time></trkpt><trkpt lat="40.64420419873851" lon="16.07728274210781"><ele>796.0</ele><time>2026-04-26T10:23:11.001Z</time></trkpt><trkpt lat="40.6442603819029" lon="16.077343924431023"><ele>796.0</ele><time>2026-04-26T10:23:14.001Z</time></trkpt><trkpt lat="40.6443193557768" lon="16.07741989726251"><ele>795.9999999999999</ele><time>2026-04-26T10:23:15.001Z</time></trkpt><trkpt lat="40.6443518038748" lon="16.07754160086944"><ele>796.0</ele><time>2026-04-26T10:23:18.001Z</time></trkpt><trkpt lat="40.64437134761776" lon="16.07763568618539"><ele>794.3333333333333</ele><time>2026-04-26T10:23:20.001Z</time></trkpt><trkpt lat="40.64430991346149" lon="16.077668089641293"><ele>792.6666666666666</ele><time>2026-04-26T10:23:24.001Z</time></trkpt><trkpt lat="40.6442790790208" lon="16.077809498221562"><ele>791.0</ele><time>2026-04-26T10:23:27.001Z</time></trkpt><trkpt lat="40.6442627986907" lon="16.07789471882879"><ele>789.3333333333333</ele><time>2026-04-26T10:23:29.001Z</time></trkpt><trkpt lat="40.64419375843561" lon="16.077985038486155"><ele>787.6666666666666</ele><time>2026-04-26T10:23:31.001Z</time></trkpt><trkpt lat="40.644167996434426" lon="16.078084458016377"><ele>786.0</ele><time>2026-04-26T10:23:33.001Z</time></trkpt><trkpt lat="40.64408572312892" lon="16.078165759589016"><ele>783.8333333333334</ele><time>2026-04-26T10:23:36.001Z</time></trkpt><trkpt lat="40.64404015948465" lon="16.078279205062028"><ele>781.6666666666667</ele><time>2026-04-26T10:23:39.001Z</time></trkpt><trkpt lat="40.643961371726554" lon="16.078327909577876"><ele>779.5</ele><time>2026-04-26T10:23:41.001Z</time></trkpt><trkpt lat="40.643927777975996" lon="16.07840312469945"><ele>777.3333333333334</ele><time>2026-04-26T10:23:42.001Z</time></trkpt><trkpt lat="40.643886143202515" lon="16.078471901846136"><ele>775.1666666666667</ele><time>2026-04-26T10:23:43.001Z</time></trkpt><trkpt lat="40.64377950358748" lon="16.07857139374138"><ele>773.0</ele><time>2026-04-26T10:23:45.001Z</time></trkpt><trkpt lat="40.64372450199622" lon="16.078654492299876"><ele>773.0000000000001</ele><time>2026-04-26T10:23:48.001Z</time></trkpt><trkpt lat="40.64366495715079" lon="16.078728945214316"><ele>773.0</ele><time>2026-04-26T10:23:51.001Z</time></trkpt><trkpt lat="40.64358776096312" lon="16.078796492622175"><ele>773.0</ele><time>2026-04-26T10:23:53.001Z</time></trkpt><trkpt lat="40.6435216131693" lon="16.078859270059557"><ele>773.0</ele><time>2026-04-26T10:23:55.001Z</time></trkpt><trkpt lat="40.6434413274639" lon="16.078907262197205"><ele>773.0000000000001</ele><time>2026-04-26T10:23:57.001Z</time></trkpt><trkpt lat="40.643373644245514" lon="16.078965026960454"><ele>773.0</ele><time>2026-04-26T10:24:00.001Z</time></trkpt><trkpt lat="40.64328816844801" lon="16.07899630516107"><ele>768.2</ele><time>2026-04-26T10:24:02.001Z</time></trkpt><trkpt lat="40.64319988676119" lon="16.079038079247084"><ele>763.4</ele><time>2026-04-26T10:24:04.001Z</time></trkpt><trkpt lat="40.643121939082505" lon="16.079069644427506"><ele>758.6</ele><time>2026-04-26T10:24:06.001Z</time></trkpt><trkpt lat="40.64304359669273" lon="16.079127914060603"><ele>753.8000000000001</ele><time>2026-04-26T10:24:08.001Z</time></trkpt><trkpt lat="40.64296080282948" lon="16.079185042577592"><ele>749.0</ele><time>2026-04-26T10:24:10.001Z</time></trkpt><trkpt lat="40.64284527489284" lon="16.0792201126398"><ele>746.0</ele><time>2026-04-26T10:24:13.001Z</time></trkpt><trkpt lat="40.6427719162535" lon="16.079277549059764"><ele>743.0</ele><time>2026-04-26T10:24:15.001Z</time></trkpt><trkpt lat="40.64271173838577" lon="16.07938740998332"><ele>740.0</ele><time>2026-04-26T10:24:17.001Z</time></trkpt><trkpt lat="40.64267689758679" lon="16.079510298702658"><ele>737.0</ele><time>2026-04-26T10:24:19.001Z</time></trkpt><trkpt lat="40.642655879698445" lon="16.079658281945864"><ele>734.0</ele><time>2026-04-26T10:24:21.001Z</time></trkpt><trkpt lat="40.64266753487516" lon="16.079787937873633"><ele>734.0</ele><time>2026-04-26T10:24:23.001Z</time></trkpt><trkpt lat="40.6426998352019" lon="16.07986184003382"><ele>734.0</ele><time>2026-04-26T10:24:24.001Z</time></trkpt><trkpt lat="40.6427499507779" lon="16.07995303528558"><ele>734.0</ele><time>2026-04-26T10:24:26.001Z</time></trkpt><trkpt lat="40.64276344176705" lon="16.080039144935295"><ele>734.0</ele><time>2026-04-26T10:24:29.001Z</time></trkpt><trkpt lat="40.64276386198988" lon="16.080159324367408"><ele>734.0</ele><time>2026-04-26T10:24:35.001Z</time></trkpt><trkpt lat="40.64275134147821" lon="16.08024815853952"><ele>734.0</ele><time>2026-04-26T10:24:41.001Z</time></trkpt><trkpt lat="40.64271719267753" lon="16.08034460676842"><ele>730.8000000000001</ele><time>2026-04-26T10:24:43.001Z</time></trkpt><trkpt lat="40.64263938579542" lon="16.08040796017576"><ele>727.6</ele><time>2026-04-26T10:24:46.001Z</time></trkpt><trkpt lat="40.64257923576762" lon="16.080443639332977"><ele>724.4</ele><time>2026-04-26T10:24:48.001Z</time></trkpt><trkpt lat="40.642584403837425" lon="16.080586964303176"><ele>721.2</ele><time>2026-04-26T10:24:50.001Z</time></trkpt><trkpt lat="40.642545517693605" lon="16.080720777041194"><ele>718.0</ele><time>2026-04-26T10:24:53.001Z</time></trkpt><trkpt lat="40.64249877034836" lon="16.080844775948893"><ele>717.2</ele><time>2026-04-26T10:24:55.001Z</time></trkpt><trkpt lat="40.642384865292605" lon="16.08092938889769"><ele>716.4</ele><time>2026-04-26T10:24:57.001Z</time></trkpt><trkpt lat="40.642346433783324" lon="16.081029618863926"><ele>715.6</ele><time>2026-04-26T10:25:00.001Z</time></trkpt><trkpt lat="40.64235145325916" lon="16.08116734428178"><ele>714.8000000000001</ele><time>2026-04-26T10:25:02.001Z</time></trkpt><trkpt lat="40.64235746014828" lon="16.08125828525672"><ele>714.0</ele><time>2026-04-26T10:25:04.001Z</time></trkpt><trkpt lat="40.642355001803075" lon="16.081341814334934"><ele>714.0</ele><time>2026-04-26T10:25:07.001Z</time></trkpt><trkpt lat="40.642347196272866" lon="16.081494046947554"><ele>714.0</ele><time>2026-04-26T10:25:09.001Z</time></trkpt><trkpt lat="40.642317402931255" lon="16.081600308316478"><ele>714.0</ele><time>2026-04-26T10:25:12.001Z</time></trkpt><trkpt lat="40.64229081261052" lon="16.081682284512677"><ele>714.0</ele><time>2026-04-26T10:25:14.001Z</time></trkpt><trkpt lat="40.64230894659202" lon="16.081769580812843"><ele>714.0</ele><time>2026-04-26T10:25:15.001Z</time></trkpt><trkpt lat="40.64233069039665" lon="16.0818576764727"><ele>714.0</ele><time>2026-04-26T10:25:17.001Z</time></trkpt><trkpt lat="40.642300227501806" lon="16.081938137417612"><ele>714.1666666666666</ele><time>2026-04-26T10:25:18.001Z</time></trkpt><trkpt lat="40.642275161338866" lon="16.082051302010225"><ele>714.3333333333334</ele><time>2026-04-26T10:25:20.001Z</time></trkpt><trkpt lat="40.642279956823224" lon="16.0821799551607"><ele>714.5</ele><time>2026-04-26T10:25:22.001Z</time></trkpt><trkpt lat="40.6422685078284" lon="16.082302213842855"><ele>714.6666666666667</ele><time>2026-04-26T10:25:24.001Z</time></trkpt><trkpt lat="40.64226454442662" lon="16.082386637901532"><ele>714.8333333333334</ele><time>2026-04-26T10:25:26.001Z</time></trkpt><trkpt lat="40.64230158578418" lon="16.082504453746314"><ele>715.0</ele><time>2026-04-26T10:25:28.001Z</time></trkpt><trkpt lat="40.64232968155043" lon="16.08259375100482"><ele>714.6666666666667</ele><time>2026-04-26T10:25:33.001Z</time></trkpt><trkpt lat="40.64233717608" lon="16.082697467231128"><ele>714.3333333333334</ele><time>2026-04-26T10:25:35.001Z</time></trkpt><trkpt lat="40.64230224131445" lon="16.082786799004538"><ele>714.0</ele><time>2026-04-26T10:25:37.001Z</time></trkpt><trkpt lat="40.642250027877246" lon="16.082881511674113"><ele>713.6666666666666</ele><time>2026-04-26T10:25:40Z</time></trkpt><trkpt lat="40.64220499738907" lon="16.08296099358593"><ele>713.3333333333333</ele><time>2026-04-26T10:25:42Z</time></trkpt><trkpt lat="40.642216785088934" lon="16.083056474971485"><ele>713.0</ele><time>2026-04-26T10:25:44Z</time></trkpt><trkpt lat="40.64222044522287" lon="16.083199406427873"><ele>712.0</ele><time>2026-04-26T10:25:46Z</time></trkpt><trkpt lat="40.64225511480935" lon="16.083279852875737"><ele>711.0</ele><time>2026-04-26T10:25:48Z</time></trkpt><trkpt lat="40.64220155929733" lon="16.08334253189367"><ele>710.0</ele><time>2026-04-26T10:25:51Z</time></trkpt><trkpt lat="40.64214275191032" lon="16.08339323558936"><ele>709.0</ele><time>2026-04-26T10:25:53Z</time></trkpt><trkpt lat="40.64208649799417" lon="16.083451080154916"><ele>708.0</ele><time>2026-04-26T10:25:55Z</time></trkpt><trkpt lat="40.642024098300304" lon="16.0835416511086"><ele>707.0</ele><time>2026-04-26T10:25:57Z</time></trkpt><trkpt lat="40.641989092106655" lon="16.083643846875276"><ele>707.0</ele><time>2026-04-26T10:25:59Z</time></trkpt><trkpt lat="40.64196395675823" lon="16.083755846933016"><ele>707.0</ele><time>2026-04-26T10:26:01Z</time></trkpt><trkpt lat="40.641978659804565" lon="16.08383659326192"><ele>707.0</ele><time>2026-04-26T10:26:07Z</time></trkpt><trkpt lat="40.64205055852065" lon="16.083897300919247"><ele>707.0</ele><time>2026-04-26T10:26:10Z</time></trkpt><trkpt lat="40.64207096980155" lon="16.0840120443932"><ele>707.0</ele><time>2026-04-26T10:26:12Z</time></trkpt><trkpt lat="40.642066750765956" lon="16.08409518105329"><ele>707.0</ele><time>2026-04-26T10:26:14Z</time></trkpt><trkpt lat="40.642101967056426" lon="16.084219931245354"><ele>705.6666666666666</ele><time>2026-04-26T10:26:17Z</time></trkpt><trkpt lat="40.642150106875114" lon="16.084310791109417"><ele>704.3333333333333</ele><time>2026-04-26T10:26:20Z</time></trkpt><trkpt lat="40.64219835211061" lon="16.08438310279415"><ele>703.0</ele><time>2026-04-26T10:26:22Z</time></trkpt><trkpt lat="40.64221368516454" lon="16.084470670798982"><ele>701.6666666666666</ele><time>2026-04-26T10:26:28Z</time></trkpt><trkpt lat="40.64214797023973" lon="16.084555657266346"><ele>700.3333333333334</ele><time>2026-04-26T10:26:31Z</time></trkpt><trkpt lat="40.642102581744886" lon="16.08461481864168"><ele>699.0</ele><time>2026-04-26T10:26:33Z</time></trkpt><trkpt lat="40.64204889423786" lon="16.084706288695685"><ele>699.0</ele><time>2026-04-26T10:26:35Z</time></trkpt><trkpt lat="40.64198125184878" lon="16.08468388299561"><ele>699.0</ele><time>2026-04-26T10:26:37Z</time></trkpt><trkpt lat="40.641892948285246" lon="16.08471353557485"><ele>699.0</ele><time>2026-04-26T10:26:40Z</time></trkpt><trkpt lat="40.64182862901934" lon="16.084736584416795"><ele>699.0</ele><time>2026-04-26T10:26:43Z</time></trkpt><trkpt lat="40.64176750726586" lon="16.08477582097178"><ele>699.0</ele><time>2026-04-26T10:26:49Z</time></trkpt><trkpt lat="40.64180952934697" lon="16.084872043658226"><ele>699.0</ele><time>2026-04-26T10:26:52Z</time></trkpt><trkpt lat="40.641851319190884" lon="16.084997888531756"><ele>699.6</ele><time>2026-04-26T10:26:53Z</time></trkpt><trkpt lat="40.64184180536304" lon="16.085107376368416"><ele>700.2</ele><time>2026-04-26T10:26:54Z</time></trkpt><trkpt lat="40.6418755912134" lon="16.085215547693377"><ele>700.8000000000001</ele><time>2026-04-26T10:26:55Z</time></trkpt><trkpt lat="40.64187792920691" lon="16.08532424424738"><ele>701.4000000000001</ele><time>2026-04-26T10:26:57Z</time></trkpt><trkpt lat="40.641952479568516" lon="16.085485488324153"><ele>702.0</ele><time>2026-04-26T10:26:59Z</time></trkpt><trkpt lat="40.642054165188306" lon="16.085589847843433"><ele>702.0</ele><time>2026-04-26T10:27:01Z</time></trkpt><trkpt lat="40.6420748642121" lon="16.085685739177467"><ele>702.0</ele><time>2026-04-26T10:27:03Z</time></trkpt><trkpt lat="40.64209891983687" lon="16.085785611107518"><ele>702.0</ele><time>2026-04-26T10:27:05Z</time></trkpt><trkpt lat="40.64215232524846" lon="16.08588760337649"><ele>702.0</ele><time>2026-04-26T10:27:07Z</time></trkpt><trkpt lat="40.64221198947941" lon="16.086014170432062"><ele>702.0</ele><time>2026-04-26T10:27:10Z</time></trkpt><trkpt lat="40.64226958330068" lon="16.08610342364251"><ele>702.0</ele><time>2026-04-26T10:27:13Z</time></trkpt><trkpt lat="40.642324189786216" lon="16.08617195668899"><ele>702.0</ele><time>2026-04-26T10:27:16Z</time></trkpt><trkpt lat="40.64240043588329" lon="16.086243123348606"><ele>702.0</ele><time>2026-04-26T10:27:18Z</time></trkpt><trkpt lat="40.642485220229425" lon="16.086284288565686"><ele>702.0</ele><time>2026-04-26T10:27:20Z</time></trkpt><trkpt lat="40.642583991934885" lon="16.086413797866545"><ele>702.0</ele><time>2026-04-26T10:27:21Z</time></trkpt><trkpt lat="40.642600283048886" lon="16.086519618133256"><ele>702.0</ele><time>2026-04-26T10:27:23Z</time></trkpt><trkpt lat="40.64266691088614" lon="16.086560394079594"><ele>702.0</ele><time>2026-04-26T10:27:26Z</time></trkpt><trkpt lat="40.642789671229075" lon="16.086607806095593"><ele>702.0</ele><time>2026-04-26T10:27:29Z</time></trkpt><trkpt lat="40.642831439896554" lon="16.08670759552075"><ele>702.0</ele><time>2026-04-26T10:27:31Z</time></trkpt><trkpt lat="40.64305374958739" lon="16.086800236502512"><ele>702.4000000000001</ele><time>2026-04-26T10:27:41Z</time></trkpt><trkpt lat="40.643146822196236" lon="16.086837943816544"><ele>702.8000000000001</ele><time>2026-04-26T10:27:47Z</time></trkpt><trkpt lat="40.643243414874135" lon="16.086907395958267"><ele>703.2</ele><time>2026-04-26T10:27:49Z</time></trkpt><trkpt lat="40.6433115403824" lon="16.087008459296204"><ele>703.6</ele><time>2026-04-26T10:27:53Z</time></trkpt><trkpt lat="40.643414485572876" lon="16.08709593657856"><ele>704.0</ele><time>2026-04-26T10:27:56Z</time></trkpt><trkpt lat="40.643502928764825" lon="16.0871128863136"><ele>704.0</ele><time>2026-04-26T10:27:58Z</time></trkpt><trkpt lat="40.64358586770499" lon="16.087146260670593"><ele>704.0</ele><time>2026-04-26T10:28:00Z</time></trkpt><trkpt lat="40.64367283825989" lon="16.08723646514202"><ele>704.0</ele><time>2026-04-26T10:28:03Z</time></trkpt><trkpt lat="40.6437740371981" lon="16.087300080419023"><ele>704.0</ele><time>2026-04-26T10:28:05Z</time></trkpt><trkpt lat="40.64384129151024" lon="16.08728541018952"><ele>704.0</ele><time>2026-04-26T10:28:06Z</time></trkpt><trkpt lat="40.64391210750199" lon="16.087290416953284"><ele>704.0</ele><time>2026-04-26T10:28:09Z</time></trkpt><trkpt lat="40.64396315651982" lon="16.087345265812594"><ele>701.6666666666666</ele><time>2026-04-26T10:28:11Z</time></trkpt><trkpt lat="40.64404579344021" lon="16.08737041520441"><ele>699.3333333333333</ele><time>2026-04-26T10:28:58Z</time></trkpt><trkpt lat="40.64410548235897" lon="16.08743669998404"><ele>697.0</ele><time>2026-04-26T10:29:04Z</time></trkpt><trkpt lat="40.644182423252545" lon="16.08746739897149"><ele>694.6666666666666</ele><time>2026-04-26T10:29:09Z</time></trkpt><trkpt lat="40.644252185376054" lon="16.087535704037506"><ele>692.3333333333334</ele><time>2026-04-26T10:29:14Z</time></trkpt><trkpt lat="40.64432908264327" lon="16.087564353767803"><ele>690.0</ele><time>2026-04-26T10:29:16Z</time></trkpt><trkpt lat="40.64442013386547" lon="16.08747578371046"><ele>690.0</ele><time>2026-04-26T10:29:18Z</time></trkpt><trkpt lat="40.64449422592857" lon="16.08744909085369"><ele>690.0</ele><time>2026-04-26T10:29:27Z</time></trkpt><trkpt lat="40.64456564802257" lon="16.08743136530563"><ele>690.0</ele><time>2026-04-26T10:29:29Z</time></trkpt><trkpt lat="40.644620650819114" lon="16.087385917340008"><ele>690.0</ele><time>2026-04-26T10:29:32Z</time></trkpt><trkpt lat="40.64466420073252" lon="16.08745272573196"><ele>690.0</ele><time>2026-04-26T10:29:36Z</time></trkpt><trkpt lat="40.64472124398685" lon="16.087515793689654"><ele>690.0</ele><time>2026-04-26T10:29:40Z</time></trkpt><trkpt lat="40.64478299100265" lon="16.087481703432104"><ele>690.0</ele><time>2026-04-26T10:29:43Z</time></trkpt><trkpt lat="40.644870298859345" lon="16.08743485542907"><ele>690.0</ele><time>2026-04-26T10:29:46Z</time></trkpt><trkpt lat="40.644930179654615" lon="16.087397024431063"><ele>690.0</ele><time>2026-04-26T10:29:48Z</time></trkpt><trkpt lat="40.64499697519988" lon="16.087405178430835"><ele>690.0</ele><time>2026-04-26T10:29:50Z</time></trkpt><trkpt lat="40.64506818311487" lon="16.087401940428723"><ele>690.0</ele><time>2026-04-26T10:29:52Z</time></trkpt><trkpt lat="40.6451397029577" lon="16.08739388502162"><ele>690.0</ele><time>2026-04-26T10:29:54Z</time></trkpt><trkpt lat="40.6451951463281" lon="16.0874379274714"><ele>690.0</ele><time>2026-04-26T10:29:57Z</time></trkpt><trkpt lat="40.64525148272142" lon="16.087524800049305"><ele>690.0</ele><time>2026-04-26T10:29:59Z</time></trkpt><trkpt lat="40.64530623748431" lon="16.087639397708525"><ele>690.1666666666666</ele><time>2026-04-26T10:30:02Z</time></trkpt><trkpt lat="40.645368451567194" lon="16.08766814269505"><ele>690.3333333333334</ele><time>2026-04-26T10:30:03Z</time></trkpt><trkpt lat="40.645485732139974" lon="16.08768390573921"><ele>690.5</ele><time>2026-04-26T10:30:05Z</time></trkpt><trkpt lat="40.645545490666485" lon="16.087724737170635"><ele>690.6666666666667</ele><time>2026-04-26T10:30:09Z</time></trkpt><trkpt lat="40.64561141222619" lon="16.087756342175663"><ele>690.8333333333334</ele><time>2026-04-26T10:30:10Z</time></trkpt><trkpt lat="40.64566361154146" lon="16.087815762450735"><ele>691.0</ele><time>2026-04-26T10:30:12Z</time></trkpt><trkpt lat="40.64576524466431" lon="16.08789090014602"><ele>691.0</ele><time>2026-04-26T10:30:14Z</time></trkpt><trkpt lat="40.64583345374735" lon="16.087955881748062"><ele>691.0</ele><time>2026-04-26T10:30:16Z</time></trkpt><trkpt lat="40.64588712216521" lon="16.088006202354205"><ele>691.0</ele><time>2026-04-26T10:30:19Z</time></trkpt><trkpt lat="40.645948411403076" lon="16.088099116094746"><ele>691.0</ele><time>2026-04-26T10:30:22Z</time></trkpt><trkpt lat="40.64598630879531" lon="16.08818048864859"><ele>691.0</ele><time>2026-04-26T10:30:23Z</time></trkpt><trkpt lat="40.64604340253844" lon="16.088299889583915"><ele>691.0</ele><time>2026-04-26T10:30:25Z</time></trkpt><trkpt lat="40.64612917203667" lon="16.088310119314837"><ele>693.4</ele><time>2026-04-26T10:30:27Z</time></trkpt><trkpt lat="40.64621363684923" lon="16.088372145481046"><ele>695.8</ele><time>2026-04-26T10:30:30Z</time></trkpt><trkpt lat="40.64629767101086" lon="16.088445146882727"><ele>698.1999999999999</ele><time>2026-04-26T10:30:32Z</time></trkpt><trkpt lat="40.64637468411173" lon="16.088460553229368"><ele>700.5999999999999</ele><time>2026-04-26T10:30:34Z</time></trkpt><trkpt lat="40.646449576242915" lon="16.088481179002184"><ele>703.0</ele><time>2026-04-26T10:30:36Z</time></trkpt><trkpt lat="40.64644671515545" lon="16.08863287715373"><ele>703.0</ele><time>2026-04-26T10:30:38Z</time></trkpt><trkpt lat="40.64645311898493" lon="16.088727534608843"><ele>703.0</ele><time>2026-04-26T10:30:39Z</time></trkpt><trkpt lat="40.646461737626794" lon="16.088843919863923"><ele>703.0</ele><time>2026-04-26T10:30:40Z</time></trkpt><trkpt lat="40.64646554161401" lon="16.088940707118496"><ele>703.0</ele><time>2026-04-26T10:30:42Z</time></trkpt><trkpt lat="40.6465853299694" lon="16.08899143095875"><ele>703.0</ele><time>2026-04-26T10:30:44Z</time></trkpt><trkpt lat="40.64665043524316" lon="16.08897813167419"><ele>703.0</ele><time>2026-04-26T10:30:45Z</time></trkpt><trkpt lat="40.64677428572642" lon="16.08891773824081"><ele>703.0</ele><time>2026-04-26T10:30:47Z</time></trkpt><trkpt lat="40.646833165386745" lon="16.088852061836562"><ele>703.0</ele><time>2026-04-26T10:30:48Z</time></trkpt><trkpt lat="40.646894946070006" lon="16.08875872578933"><ele>703.0</ele><time>2026-04-26T10:30:50Z</time></trkpt><trkpt lat="40.646932009148486" lon="16.088615342119706"><ele>703.0</ele><time>2026-04-26T10:30:52Z</time></trkpt><trkpt lat="40.64703387035524" lon="16.08851854663915"><ele>703.0</ele><time>2026-04-26T10:30:54Z</time></trkpt><trkpt lat="40.64707334383095" lon="16.088444817349142"><ele>705.0</ele><time>2026-04-26T10:30:55Z</time></trkpt><trkpt lat="40.64706767702627" lon="16.08835690034651"><ele>707.0</ele><time>2026-04-26T10:30:56Z</time></trkpt><trkpt lat="40.64707065647616" lon="16.088260490073473"><ele>709.0</ele><time>2026-04-26T10:30:57Z</time></trkpt><trkpt lat="40.64707360829095" lon="16.088162745699496"><ele>711.0</ele><time>2026-04-26T10:30:58Z</time></trkpt><trkpt lat="40.64708542939111" lon="16.08808118368842"><ele>713.0</ele><time>2026-04-26T10:30:59Z</time></trkpt><trkpt lat="40.647130063004404" lon="16.088013402824355"><ele>715.0</ele><time>2026-04-26T10:31:00Z</time></trkpt><trkpt lat="40.64724322215423" lon="16.087925573672905"><ele>717.5714285714286</ele><time>2026-04-26T10:31:02Z</time></trkpt><trkpt lat="40.647308128202255" lon="16.087875126703825"><ele>720.1428571428571</ele><time>2026-04-26T10:31:03Z</time></trkpt><trkpt lat="40.64733774236489" lon="16.08778503108845"><ele>722.7142857142857</ele><time>2026-04-26T10:31:04Z</time></trkpt><trkpt lat="40.647359553025794" lon="16.08767070338235"><ele>725.2857142857142</ele><time>2026-04-26T10:31:05Z</time></trkpt><trkpt lat="40.6473886432029" lon="16.087593530691528"><ele>727.8571428571429</ele><time>2026-04-26T10:31:06Z</time></trkpt><trkpt lat="40.64741064477537" lon="16.087509071765478"><ele>730.4285714285713</ele><time>2026-04-26T10:31:07Z</time></trkpt><trkpt lat="40.64747334564669" lon="16.08745348438102"><ele>733.0</ele><time>2026-04-26T10:31:09Z</time></trkpt><trkpt lat="40.64757785365293" lon="16.087418038208618"><ele>735.3333333333334</ele><time>2026-04-26T10:31:11Z</time></trkpt><trkpt lat="40.64767501468663" lon="16.08733803023521"><ele>737.6666666666667</ele><time>2026-04-26T10:31:13Z</time></trkpt><trkpt lat="40.64772611109676" lon="16.087285914825635"><ele>740.0</ele><time>2026-04-26T10:31:14Z</time></trkpt><trkpt lat="40.64778471869438" lon="16.08723471737952"><ele>742.3333333333334</ele><time>2026-04-26T10:31:15Z</time></trkpt><trkpt lat="40.64784142413181" lon="16.087184317199917"><ele>744.6666666666666</ele><time>2026-04-26T10:31:16Z</time></trkpt><trkpt lat="40.64791298275007" lon="16.087121709216333"><ele>747.0</ele><time>2026-04-26T10:31:17Z</time></trkpt><trkpt lat="40.64798075253053" lon="16.08706578460899"><ele>749.8</ele><time>2026-04-26T10:31:18Z</time></trkpt><trkpt lat="40.6480624284585" lon="16.087025797339795"><ele>752.6</ele><time>2026-04-26T10:31:19Z</time></trkpt><trkpt lat="40.64818859849261" lon="16.0870009988889"><ele>755.4</ele><time>2026-04-26T10:31:21Z</time></trkpt><trkpt lat="40.64825824629769" lon="16.086997251579508"><ele>758.1999999999999</ele><time>2026-04-26T10:31:22Z</time></trkpt><trkpt lat="40.648325284895044" lon="16.086852201730384"><ele>761.0</ele><time>2026-04-26T10:31:25Z</time></trkpt><trkpt lat="40.64834716529985" lon="16.086759255225253"><ele>761.0</ele><time>2026-04-26T10:31:26Z</time></trkpt><trkpt lat="40.648397746098766" lon="16.086674351499056"><ele>761.0</ele><time>2026-04-26T10:31:27Z</time></trkpt><trkpt lat="40.648478335475666" lon="16.086628490815514"><ele>761.0</ele><time>2026-04-26T10:31:32Z</time></trkpt><trkpt lat="40.648559507987954" lon="16.086666127911027"><ele>761.0</ele><time>2026-04-26T10:31:34Z</time></trkpt><trkpt lat="40.64864974272968" lon="16.086674435133343"><ele>761.0</ele><time>2026-04-26T10:31:36Z</time></trkpt><trkpt lat="40.64873615613509" lon="16.086733946303244"><ele>761.0</ele><time>2026-04-26T10:31:38Z</time></trkpt><trkpt lat="40.648797819336096" lon="16.08675420007644"><ele>760.5</ele><time>2026-04-26T10:31:39Z</time></trkpt><trkpt lat="40.648911689500544" lon="16.0867986405805"><ele>760.0</ele><time>2026-04-26T10:31:41Z</time></trkpt><trkpt lat="40.64896505121167" lon="16.086862802638848"><ele>759.5</ele><time>2026-04-26T10:31:42Z</time></trkpt><trkpt lat="40.64902726344401" lon="16.08691399294008"><ele>759.0</ele><time>2026-04-26T10:31:43Z</time></trkpt><trkpt lat="40.649083306786416" lon="16.086963785107123"><ele>758.5</ele><time>2026-04-26T10:31:44Z</time></trkpt><trkpt lat="40.64912404744142" lon="16.08702939782255"><ele>758.0</ele><time>2026-04-26T10:31:45Z</time></trkpt><trkpt lat="40.64918858564744" lon="16.087167712685872"><ele>758.0</ele><time>2026-04-26T10:31:47Z</time></trkpt><trkpt lat="40.649274151544084" lon="16.087269845203505"><ele>758.0</ele><time>2026-04-26T10:31:49Z</time></trkpt><trkpt lat="40.64935627773496" lon="16.08741688197126"><ele>758.0</ele><time>2026-04-26T10:31:51Z</time></trkpt><trkpt lat="40.64940713071169" lon="16.08747871251884"><ele>758.0</ele><time>2026-04-26T10:31:52Z</time></trkpt><trkpt lat="40.6494824679327" lon="16.087583395245606"><ele>758.0</ele><time>2026-04-26T10:31:54Z</time></trkpt><trkpt lat="40.649545613949876" lon="16.08756415198056"><ele>754.5999999999999</ele><time>2026-04-26T10:31:56Z</time></trkpt><trkpt lat="40.64962562198445" lon="16.087660260737096"><ele>751.1999999999999</ele><time>2026-04-26T10:31:59Z</time></trkpt><trkpt lat="40.64972732820584" lon="16.08770555297114"><ele>747.8</ele><time>2026-04-26T10:32:03Z</time></trkpt><trkpt lat="40.6498267662653" lon="16.087739550453758"><ele>744.4</ele><time>2026-04-26T10:32:07Z</time></trkpt><trkpt lat="40.64992410180168" lon="16.087764633767218"><ele>741.0</ele><time>2026-04-26T10:32:10Z</time></trkpt><trkpt lat="40.65001441321393" lon="16.087748819723377"><ele>741.0</ele><time>2026-04-26T10:32:12Z</time></trkpt><trkpt lat="40.650102109853016" lon="16.087738505691206"><ele>741.0</ele><time>2026-04-26T10:32:15Z</time></trkpt><trkpt lat="40.650175576273156" lon="16.087721861035764"><ele>741.0</ele><time>2026-04-26T10:32:18Z</time></trkpt><trkpt lat="40.65008109122484" lon="16.087717265679547"><ele>741.0</ele><time>2026-04-26T10:32:23Z</time></trkpt><trkpt lat="40.650051043853686" lon="16.087845187734853"><ele>741.0</ele><time>2026-04-26T10:32:25Z</time></trkpt><trkpt lat="40.650057279340906" lon="16.087951514630813"><ele>741.0</ele><time>2026-04-26T10:32:26Z</time></trkpt><trkpt lat="40.650097227289244" lon="16.088103837090767"><ele>741.0</ele><time>2026-04-26T10:32:28Z</time></trkpt><trkpt lat="40.65015798268013" lon="16.088193531901556"><ele>741.0</ele><time>2026-04-26T10:32:30Z</time></trkpt><trkpt lat="40.65024986449006" lon="16.08816166988784"><ele>741.0</ele><time>2026-04-26T10:32:32Z</time></trkpt><trkpt lat="40.65029634381486" lon="16.088236239354092"><ele>741.0</ele><time>2026-04-26T10:32:37Z</time></trkpt><trkpt lat="40.650254106713554" lon="16.088305198352842"><ele>741.0</ele><time>2026-04-26T10:32:41Z</time></trkpt><trkpt lat="40.650198892808376" lon="16.088360864252813"><ele>741.0</ele><time>2026-04-26T10:32:44Z</time></trkpt><trkpt lat="40.65017612051084" lon="16.088459245123964"><ele>740.3333333333334</ele><time>2026-04-26T10:32:48Z</time></trkpt><trkpt lat="40.65014831101479" lon="16.08853524638297"><ele>739.6666666666666</ele><time>2026-04-26T10:32:51Z</time></trkpt><trkpt lat="40.650083853577634" lon="16.08855375447672"><ele>739.0</ele><time>2026-04-26T10:32:57Z</time></trkpt><trkpt lat="40.65001354827066" lon="16.088544461846002"><ele>738.3333333333333</ele><time>2026-04-26T10:32:58Z</time></trkpt><trkpt lat="40.64991854545266" lon="16.088518409601317"><ele>737.6666666666666</ele><time>2026-04-26T10:33:03Z</time></trkpt><trkpt lat="40.649862688862704" lon="16.088558803402172"><ele>737.0</ele><time>2026-04-26T10:33:04Z</time></trkpt><trkpt lat="40.64976206482441" lon="16.08864847388029"><ele>737.0</ele><time>2026-04-26T10:33:05Z</time></trkpt><trkpt lat="40.64967878297563" lon="16.088740660248614"><ele>737.0</ele><time>2026-04-26T10:33:07Z</time></trkpt><trkpt lat="40.6496928410759" lon="16.088858993028797"><ele>737.0</ele><time>2026-04-26T10:33:10Z</time></trkpt><trkpt lat="40.6497285695313" lon="16.088945469467816"><ele>737.0</ele><time>2026-04-26T10:33:14Z</time></trkpt><trkpt lat="40.649811916137494" lon="16.089006396117547"><ele>737.0</ele><time>2026-04-26T10:33:25Z</time></trkpt><trkpt lat="40.64986619941949" lon="16.089069385769765"><ele>737.0</ele><time>2026-04-26T10:33:28Z</time></trkpt><trkpt lat="40.64995907727721" lon="16.089097321565703"><ele>732.2</ele><time>2026-04-26T10:33:30Z</time></trkpt><trkpt lat="40.650052985962844" lon="16.08911121336289"><ele>727.4000000000001</ele><time>2026-04-26T10:33:32Z</time></trkpt><trkpt lat="40.65015427007852" lon="16.089099661680887"><ele>722.5999999999999</ele><time>2026-04-26T10:33:34Z</time></trkpt><trkpt lat="40.65027411439957" lon="16.089112161894445"><ele>717.8</ele><time>2026-04-26T10:33:36Z</time></trkpt><trkpt lat="40.6503407343491" lon="16.0891501207427"><ele>713.0</ele><time>2026-04-26T10:33:38Z</time></trkpt><trkpt lat="40.6503900264948" lon="16.089204584164516"><ele>711.8333333333333</ele><time>2026-04-26T10:33:40Z</time></trkpt><trkpt lat="40.65040568241609" lon="16.089290371158178"><ele>710.6666666666666</ele><time>2026-04-26T10:33:45Z</time></trkpt><trkpt lat="40.65045304195752" lon="16.089371757911042"><ele>709.5</ele><time>2026-04-26T10:33:47Z</time></trkpt><trkpt lat="40.65050650444223" lon="16.089417937353534"><ele>708.3333333333334</ele><time>2026-04-26T10:33:48Z</time></trkpt><trkpt lat="40.65055302858153" lon="16.089528139343322"><ele>707.1666666666667</ele><time>2026-04-26T10:33:50Z</time></trkpt><trkpt lat="40.65062282344298" lon="16.089680654103294"><ele>706.0</ele><time>2026-04-26T10:33:52Z</time></trkpt><trkpt lat="40.65066428628947" lon="16.08976283910871"><ele>706.0</ele><time>2026-04-26T10:33:53Z</time></trkpt><trkpt lat="40.650732176509266" lon="16.089889779635485"><ele>706.0</ele><time>2026-04-26T10:33:55Z</time></trkpt><trkpt lat="40.65078523829815" lon="16.089947139062485"><ele>706.0</ele><time>2026-04-26T10:33:57Z</time></trkpt><trkpt lat="40.65076646470875" lon="16.090040793683592"><ele>706.0</ele><time>2026-04-26T10:34:04Z</time></trkpt><trkpt lat="40.650734512141284" lon="16.090156011022593"><ele>706.0</ele><time>2026-04-26T10:34:07Z</time></trkpt><trkpt lat="40.65065982020164" lon="16.090186867272465"><ele>706.0</ele><time>2026-04-26T10:34:09Z</time></trkpt><trkpt lat="40.65058104359134" lon="16.09023874162714"><ele>702.6666666666667</ele><time>2026-04-26T10:34:15Z</time></trkpt><trkpt lat="40.650492363851725" lon="16.09021976533257"><ele>699.3333333333334</ele><time>2026-04-26T10:34:17Z</time></trkpt><trkpt lat="40.65042829147427" lon="16.09022249677132"><ele>696.0</ele><time>2026-04-26T10:34:19Z</time></trkpt><trkpt lat="40.65033473475277" lon="16.09024906932175"><ele>692.6666666666666</ele><time>2026-04-26T10:34:21Z</time></trkpt><trkpt lat="40.650254312416465" lon="16.090270508325215"><ele>689.3333333333333</ele><time>2026-04-26T10:34:23Z</time></trkpt><trkpt lat="40.650185189158975" lon="16.090316166926687"><ele>686.0</ele><time>2026-04-26T10:34:25Z</time></trkpt><trkpt lat="40.650121646883775" lon="16.090324036721874"><ele>686.0</ele><time>2026-04-26T10:34:27Z</time></trkpt><trkpt lat="40.65004228100673" lon="16.090432020392637"><ele>686.0</ele><time>2026-04-26T10:34:31Z</time></trkpt><trkpt lat="40.650039355044804" lon="16.090583333337253"><ele>686.0</ele><time>2026-04-26T10:34:33Z</time></trkpt><trkpt lat="40.649986136053464" lon="16.090732483377277"><ele>686.0</ele><time>2026-04-26T10:34:35Z</time></trkpt><trkpt lat="40.6499898352441" lon="16.090852221491623"><ele>686.0</ele><time>2026-04-26T10:34:36Z</time></trkpt><trkpt lat="40.6500057116564" lon="16.090981732972374"><ele>681.4</ele><time>2026-04-26T10:34:38Z</time></trkpt><trkpt lat="40.650040206855394" lon="16.091071483733966"><ele>676.8</ele><time>2026-04-26T10:34:39Z</time></trkpt><trkpt lat="40.650169835035676" lon="16.091171651273545"><ele>672.1999999999999</ele><time>2026-04-26T10:34:41Z</time></trkpt><trkpt lat="40.65026753901989" lon="16.09111648012606"><ele>667.5999999999999</ele><time>2026-04-26T10:34:42Z</time></trkpt><trkpt lat="40.65034295431066" lon="16.09110979417832"><ele>663.0</ele><time>2026-04-26T10:34:43Z</time></trkpt><trkpt lat="40.650426217695546" lon="16.09123454094861"><ele>662.8571428571428</ele><time>2026-04-26T10:34:45Z</time></trkpt><trkpt lat="40.6504662466351" lon="16.09131081479831"><ele>662.7142857142857</ele><time>2026-04-26T10:34:46Z</time></trkpt><trkpt lat="40.6505139580881" lon="16.091391847653743"><ele>662.5714285714286</ele><time>2026-04-26T10:34:47Z</time></trkpt><trkpt lat="40.65056111167499" lon="16.09145596347617"><ele>662.4285714285713</ele><time>2026-04-26T10:34:48Z</time></trkpt><trkpt lat="40.650606105478836" lon="16.091529395905876"><ele>662.2857142857142</ele><time>2026-04-26T10:34:49Z</time></trkpt><trkpt lat="40.650661802714076" lon="16.091591188446916"><ele>662.1428571428571</ele><time>2026-04-26T10:34:50Z</time></trkpt><trkpt lat="40.650728420866926" lon="16.091648755133477"><ele>662.0</ele><time>2026-04-26T10:34:51Z</time></trkpt><trkpt lat="40.650820581797085" lon="16.091674859963994"><ele>659.0</ele><time>2026-04-26T10:34:53Z</time></trkpt><trkpt lat="40.650892384507316" lon="16.09167387597636"><ele>656.0</ele><time>2026-04-26T10:34:55Z</time></trkpt><trkpt lat="40.650996457821655" lon="16.091800371895356"><ele>653.0</ele><time>2026-04-26T10:34:57Z</time></trkpt><trkpt lat="40.651121814864936" lon="16.09186997083324"><ele>650.0</ele><time>2026-04-26T10:34:59Z</time></trkpt><trkpt lat="40.65123675639708" lon="16.091845402571774"><ele>647.4</ele><time>2026-04-26T10:35:01Z</time></trkpt><trkpt lat="40.65134511854516" lon="16.09178642004356"><ele>644.8</ele><time>2026-04-26T10:35:03Z</time></trkpt><trkpt lat="40.651408721159974" lon="16.09180845122426"><ele>642.2</ele><time>2026-04-26T10:35:04Z</time></trkpt><trkpt lat="40.65147247641959" lon="16.09182597499474"><ele>639.6</ele><time>2026-04-26T10:35:05Z</time></trkpt><trkpt lat="40.65156520881569" lon="16.091906561000755"><ele>637.0</ele><time>2026-04-26T10:35:07Z</time></trkpt><trkpt lat="40.65160169616195" lon="16.092023090816046"><ele>637.0</ele><time>2026-04-26T10:35:08Z</time></trkpt><trkpt lat="40.65162743096825" lon="16.092129867543314"><ele>637.0</ele><time>2026-04-26T10:35:09Z</time></trkpt><trkpt lat="40.65164681123839" lon="16.092212734094723"><ele>637.0</ele><time>2026-04-26T10:35:10Z</time></trkpt><trkpt lat="40.651655331493274" lon="16.092305304811646"><ele>637.0</ele><time>2026-04-26T10:35:11Z</time></trkpt><trkpt lat="40.651609583771574" lon="16.092390044123004"><ele>637.0</ele><time>2026-04-26T10:35:13Z</time></trkpt><trkpt lat="40.65156293815952" lon="16.092455868651776"><ele>637.0</ele><time>2026-04-26T10:35:14Z</time></trkpt><trkpt lat="40.651457449150705" lon="16.09253293078733"><ele>636.6666666666667</ele><time>2026-04-26T10:35:16Z</time></trkpt><trkpt lat="40.65137803035526" lon="16.092547315818035"><ele>636.3333333333334</ele><time>2026-04-26T10:35:17Z</time></trkpt><trkpt lat="40.65128454952736" lon="16.092590787860054"><ele>636.0</ele><time>2026-04-26T10:35:18Z</time></trkpt><trkpt lat="40.651206321621416" lon="16.09265078977096"><ele>635.6666666666666</ele><time>2026-04-26T10:35:19Z</time></trkpt><trkpt lat="40.6511542040405" lon="16.092724947028582"><ele>635.3333333333333</ele><time>2026-04-26T10:35:20Z</time></trkpt><trkpt lat="40.65109405545873" lon="16.092775324878943"><ele>635.0</ele><time>2026-04-26T10:35:21Z</time></trkpt><trkpt lat="40.65104501660982" lon="16.09284057139596"><ele>635.0</ele><time>2026-04-26T10:35:22Z</time></trkpt><trkpt lat="40.65095926309164" lon="16.092881381611956"><ele>635.0</ele><time>2026-04-26T10:35:23Z</time></trkpt><trkpt lat="40.650882337253506" lon="16.09293052416444"><ele>635.0</ele><time>2026-04-26T10:35:24Z</time></trkpt><trkpt lat="40.650819016657316" lon="16.092951616946003"><ele>635.0</ele><time>2026-04-26T10:35:25Z</time></trkpt><trkpt lat="40.65075721424127" lon="16.092986405325153"><ele>635.0</ele><time>2026-04-26T10:35:26Z</time></trkpt><trkpt lat="40.650698394189455" lon="16.093115219681675"><ele>635.0</ele><time>2026-04-26T10:35:28Z</time></trkpt><trkpt lat="40.6507151162087" lon="16.09322045002118"><ele>631.6666666666666</ele><time>2026-04-26T10:35:29Z</time></trkpt><trkpt lat="40.650755534938995" lon="16.093317130049208"><ele>628.3333333333333</ele><time>2026-04-26T10:35:30Z</time></trkpt><trkpt lat="40.650794319815596" lon="16.093431363115354"><ele>625.0</ele><time>2026-04-26T10:35:31Z</time></trkpt><trkpt lat="40.650822411924146" lon="16.09353803097388"><ele>621.6666666666666</ele><time>2026-04-26T10:35:32Z</time></trkpt><trkpt lat="40.6508638208529" lon="16.093669840297682"><ele>618.3333333333334</ele><time>2026-04-26T10:35:34Z</time></trkpt><trkpt lat="40.650851287856725" lon="16.09375578476858"><ele>615.0</ele><time>2026-04-26T10:35:35Z</time></trkpt><trkpt lat="40.650867237937284" lon="16.093899174111822"><ele>615.0</ele><time>2026-04-26T10:35:37Z</time></trkpt><trkpt lat="40.65084134820452" lon="16.093983252978127"><ele>615.0</ele><time>2026-04-26T10:35:38Z</time></trkpt><trkpt lat="40.65082849043115" lon="16.094070204147943"><ele>615.0</ele><time>2026-04-26T10:35:39Z</time></trkpt><trkpt lat="40.650829224059784" lon="16.094180218689296"><ele>615.0</ele><time>2026-04-26T10:35:40Z</time></trkpt><trkpt lat="40.65084991078915" lon="16.094289194378884"><ele>615.0</ele><time>2026-04-26T10:35:41Z</time></trkpt><trkpt lat="40.6508786847225" lon="16.094447402204324"><ele>615.0</ele><time>2026-04-26T10:35:43Z</time></trkpt><trkpt lat="40.650881560748076" lon="16.094563967663703"><ele>613.0</ele><time>2026-04-26T10:35:45Z</time></trkpt><trkpt lat="40.65092401436921" lon="16.09468213221187"><ele>611.0</ele><time>2026-04-26T10:35:47Z</time></trkpt><trkpt lat="40.650907515127834" lon="16.09479250140979"><ele>609.0</ele><time>2026-04-26T10:35:49Z</time></trkpt><trkpt lat="40.650875368414646" lon="16.094876132445577"><ele>607.0</ele><time>2026-04-26T10:35:50Z</time></trkpt><trkpt lat="40.6508342909363" lon="16.09495157159135"><ele>605.0</ele><time>2026-04-26T10:35:51Z</time></trkpt><trkpt lat="40.650791473629106" lon="16.095092818549166"><ele>603.0</ele><time>2026-04-26T10:35:52Z</time></trkpt><trkpt lat="40.65074182139046" lon="16.095205248963023"><ele>599.4</ele><time>2026-04-26T10:35:53Z</time></trkpt><trkpt lat="40.65070167212491" lon="16.095299246442583"><ele>595.8</ele><time>2026-04-26T10:35:54Z</time></trkpt><trkpt lat="40.65064141615427" lon="16.095354177542788"><ele>592.2</ele><time>2026-04-26T10:35:58Z</time></trkpt><trkpt lat="40.650601906908264" lon="16.095481251362855"><ele>588.6</ele><time>2026-04-26T10:36:00Z</time></trkpt><trkpt lat="40.650547075112954" lon="16.09558285194782"><ele>585.0</ele><time>2026-04-26T10:36:02Z</time></trkpt><trkpt lat="40.65044650052513" lon="16.09567742702763"><ele>585.0</ele><time>2026-04-26T10:36:04Z</time></trkpt><trkpt lat="40.65035305174597" lon="16.095708215295367"><ele>585.0</ele><time>2026-04-26T10:36:06Z</time></trkpt><trkpt lat="40.65028973683446" lon="16.09566639120679"><ele>585.0</ele><time>2026-04-26T10:36:08Z</time></trkpt><trkpt lat="40.65022117736319" lon="16.095658605348884"><ele>585.0</ele><time>2026-04-26T10:36:10Z</time></trkpt><trkpt lat="40.65014656320828" lon="16.095630006632852"><ele>585.0</ele><time>2026-04-26T10:36:12Z</time></trkpt><trkpt lat="40.650072940485266" lon="16.095599862698027"><ele>585.0</ele><time>2026-04-26T10:36:14Z</time></trkpt><trkpt lat="40.649975133661165" lon="16.095647716996666"><ele>586.6666666666666</ele><time>2026-04-26T10:36:16Z</time></trkpt><trkpt lat="40.64989052700879" lon="16.095655419183064"><ele>588.3333333333334</ele><time>2026-04-26T10:36:18Z</time></trkpt><trkpt lat="40.64982458730853" lon="16.09567668927798"><ele>590.0</ele><time>2026-04-26T10:36:19Z</time></trkpt><trkpt lat="40.649723180258064" lon="16.095717929158152"><ele>591.6666666666667</ele><time>2026-04-26T10:36:21Z</time></trkpt><trkpt lat="40.64963326506467" lon="16.095694088824523"><ele>593.3333333333334</ele><time>2026-04-26T10:36:23Z</time></trkpt><trkpt lat="40.649546954807974" lon="16.095684341952747"><ele>595.0</ele><time>2026-04-26T10:36:25Z</time></trkpt><trkpt lat="40.649465136374324" lon="16.09572665587032"><ele>592.0</ele><time>2026-04-26T10:36:26Z</time></trkpt><trkpt lat="40.64941817735373" lon="16.095797593803493"><ele>589.0</ele><time>2026-04-26T10:36:28Z</time></trkpt><trkpt lat="40.64939324712444" lon="16.095897368167968"><ele>586.0</ele><time>2026-04-26T10:36:30Z</time></trkpt><trkpt lat="40.649465602997225" lon="16.096011725059814"><ele>583.0</ele><time>2026-04-26T10:36:32Z</time></trkpt><trkpt lat="40.64952957214501" lon="16.096031506203726"><ele>580.0</ele><time>2026-04-26T10:36:33Z</time></trkpt><trkpt lat="40.64959447842103" lon="16.096141777710283"><ele>577.0</ele><time>2026-04-26T10:36:36Z</time></trkpt><trkpt lat="40.64951501927453" lon="16.09616925143438"><ele>574.8333333333334</ele><time>2026-04-26T10:36:43Z</time></trkpt><trkpt lat="40.64944424571201" lon="16.09614141419648"><ele>572.6666666666667</ele><time>2026-04-26T10:36:45Z</time></trkpt><trkpt lat="40.64935819103363" lon="16.09612523932481"><ele>570.5</ele><time>2026-04-26T10:36:48Z</time></trkpt><trkpt lat="40.64932988388529" lon="16.09621928131071"><ele>568.3333333333334</ele><time>2026-04-26T10:36:52Z</time></trkpt><trkpt lat="40.64937975521041" lon="16.096276649241734"><ele>566.1666666666666</ele><time>2026-04-26T10:36:55Z</time></trkpt><trkpt lat="40.64934021769799" lon="16.096348204866114"><ele>564.0</ele><time>2026-04-26T10:37:00Z</time></trkpt><trkpt lat="40.64927841367372" lon="16.096421404184078"><ele>564.0</ele><time>2026-04-26T10:37:02Z</time></trkpt><trkpt lat="40.64920053433662" lon="16.096424546596683"><ele>564.0</ele><time>2026-04-26T10:37:05Z</time></trkpt><trkpt lat="40.649139991315444" lon="16.09652313515294"><ele>564.0</ele><time>2026-04-26T10:37:07Z</time></trkpt><trkpt lat="40.649125728757845" lon="16.096634972812787"><ele>564.0</ele><time>2026-04-26T10:37:09Z</time></trkpt><trkpt lat="40.6490564127587" lon="16.096697717151986"><ele>564.0</ele><time>2026-04-26T10:37:14Z</time></trkpt><trkpt lat="40.64902783642383" lon="16.09678003508197"><ele>564.0</ele><time>2026-04-26T10:37:17Z</time></trkpt><trkpt lat="40.649035206338425" lon="16.0968765951868"><ele>561.5714285714286</ele><time>2026-04-26T10:37:20Z</time></trkpt><trkpt lat="40.64898680278472" lon="16.096946110026554"><ele>559.1428571428571</ele><time>2026-04-26T10:37:24Z</time></trkpt><trkpt lat="40.64892848958037" lon="16.096985400404122"><ele>556.7142857142857</ele><time>2026-04-26T10:37:28Z</time></trkpt><trkpt lat="40.648984257632044" lon="16.097039011496097"><ele>554.2857142857142</ele><time>2026-04-26T10:37:32Z</time></trkpt><trkpt lat="40.648991957417095" lon="16.09712470346338"><ele>551.8571428571428</ele><time>2026-04-26T10:37:35Z</time></trkpt><trkpt lat="40.64903744515511" lon="16.09718420973115"><ele>549.4285714285714</ele><time>2026-04-26T10:37:38Z</time></trkpt><trkpt lat="40.64911288760783" lon="16.097176562150235"><ele>547.0</ele><time>2026-04-26T10:37:41Z</time></trkpt><trkpt lat="40.64917106241844" lon="16.09714474222815"><ele>547.0</ele><time>2026-04-26T10:37:42Z</time></trkpt><trkpt lat="40.64929916636048" lon="16.097091990056885"><ele>547.0</ele><time>2026-04-26T10:37:44Z</time></trkpt><trkpt lat="40.64937557621735" lon="16.09706081486972"><ele>547.0</ele><time>2026-04-26T10:37:45Z</time></trkpt><trkpt lat="40.64943597473162" lon="16.097019292059702"><ele>547.0</ele><time>2026-04-26T10:37:47Z</time></trkpt><trkpt lat="40.649493801686404" lon="16.096982419579195"><ele>547.0</ele><time>2026-04-26T10:37:49Z</time></trkpt><trkpt lat="40.649567659074656" lon="16.096960451581154"><ele>547.0</ele><time>2026-04-26T10:37:51Z</time></trkpt><trkpt lat="40.649643592439965" lon="16.096950389130846"><ele>547.6</ele><time>2026-04-26T10:37:53Z</time></trkpt><trkpt lat="40.64974502267508" lon="16.097022006674788"><ele>548.2</ele><time>2026-04-26T10:37:56Z</time></trkpt><trkpt lat="40.64979394906221" lon="16.097122632731786"><ele>548.8</ele><time>2026-04-26T10:37:58Z</time></trkpt><trkpt lat="40.649870082730466" lon="16.09715606736653"><ele>549.4</ele><time>2026-04-26T10:38:00Z</time></trkpt><trkpt lat="40.649936502969176" lon="16.097195493927263"><ele>550.0</ele><time>2026-04-26T10:38:02Z</time></trkpt><trkpt lat="40.6500385859434" lon="16.0972117171703"><ele>550.0</ele><time>2026-04-26T10:38:05Z</time></trkpt><trkpt lat="40.65004501402723" lon="16.097309915095448"><ele>550.0</ele><time>2026-04-26T10:38:07Z</time></trkpt><trkpt lat="40.6500844174589" lon="16.097385100377608"><ele>550.0</ele><time>2026-04-26T10:38:11Z</time></trkpt><trkpt lat="40.65003544957882" lon="16.097445557916895"><ele>550.0</ele><time>2026-04-26T10:38:13Z</time></trkpt><trkpt lat="40.65001312657882" lon="16.097566655295186"><ele>550.0</ele><time>2026-04-26T10:38:15Z</time></trkpt><trkpt lat="40.65001592272305" lon="16.097673099089047"><ele>550.0</ele><time>2026-04-26T10:38:17Z</time></trkpt><trkpt lat="40.649997474858175" lon="16.097783285633028"><ele>546.6</ele><time>2026-04-26T10:38:21Z</time></trkpt><trkpt lat="40.64995670182897" lon="16.097851063776275"><ele>543.2</ele><time>2026-04-26T10:38:23Z</time></trkpt><trkpt lat="40.64995193909782" lon="16.098080049496165"><ele>539.8</ele><time>2026-04-26T10:38:24Z</time></trkpt><trkpt lat="40.64995072055427" lon="16.09818958453739"><ele>536.4</ele><time>2026-04-26T10:38:25Z</time></trkpt><trkpt lat="40.649937431157745" lon="16.098282739493555"><ele>533.0</ele><time>2026-04-26T10:38:26Z</time></trkpt><trkpt lat="40.649909966681285" lon="16.098436677069035"><ele>532.8333333333333</ele><time>2026-04-26T10:38:28Z</time></trkpt><trkpt lat="40.649895243611674" lon="16.09851831415077"><ele>532.6666666666666</ele><time>2026-04-26T10:38:29Z</time></trkpt><trkpt lat="40.64989283775404" lon="16.098651131734666"><ele>532.5</ele><time>2026-04-26T10:38:30Z</time></trkpt><trkpt lat="40.64988586697573" lon="16.09873384906803"><ele>532.3333333333334</ele><time>2026-04-26T10:38:31Z</time></trkpt><trkpt lat="40.64982969008347" lon="16.098774890094784"><ele>532.1666666666667</ele><time>2026-04-26T10:38:33Z</time></trkpt><trkpt lat="40.649818082843645" lon="16.098857390364557"><ele>532.0</ele><time>2026-04-26T10:38:35Z</time></trkpt><trkpt lat="40.64976983775688" lon="16.099035498209133"><ele>532.2</ele><time>2026-04-26T10:38:37Z</time></trkpt><trkpt lat="40.649719634894204" lon="16.099120776217454"><ele>532.4000000000001</ele><time>2026-04-26T10:38:38Z</time></trkpt><trkpt lat="40.649647930310294" lon="16.099220855585145"><ele>532.5999999999999</ele><time>2026-04-26T10:38:39Z</time></trkpt><trkpt lat="40.64960778346823" lon="16.099362832340077"><ele>532.8</ele><time>2026-04-26T10:38:41Z</time></trkpt><trkpt lat="40.64958085677788" lon="16.09947805715168"><ele>533.0</ele><time>2026-04-26T10:38:43Z</time></trkpt><trkpt lat="40.64959576108266" lon="16.099569001616818"><ele>533.0</ele><time>2026-04-26T10:38:44Z</time></trkpt><trkpt lat="40.64964005168901" lon="16.09969789150077"><ele>533.0</ele><time>2026-04-26T10:38:45Z</time></trkpt><trkpt lat="40.64958507843518" lon="16.099808354087205"><ele>533.0</ele><time>2026-04-26T10:38:47Z</time></trkpt><trkpt lat="40.64952370713817" lon="16.099950855113768"><ele>533.0</ele><time>2026-04-26T10:38:49Z</time></trkpt><trkpt lat="40.649499684148665" lon="16.10013495142294"><ele>531.8333333333333</ele><time>2026-04-26T10:38:51Z</time></trkpt><trkpt lat="40.64947564620117" lon="16.100239429507035"><ele>530.6666666666666</ele><time>2026-04-26T10:38:52Z</time></trkpt><trkpt lat="40.649457616663305" lon="16.100350472392766"><ele>529.5</ele><time>2026-04-26T10:38:54Z</time></trkpt><trkpt lat="40.64946189318436" lon="16.100462007728265"><ele>528.3333333333334</ele><time>2026-04-26T10:38:55Z</time></trkpt><trkpt lat="40.64946669356654" lon="16.100545290527645"><ele>527.1666666666667</ele><time>2026-04-26T10:38:56Z</time></trkpt><trkpt lat="40.64943355224002" lon="16.1006190565892"><ele>526.0</ele><time>2026-04-26T10:38:58Z</time></trkpt><trkpt lat="40.64940885834964" lon="16.10070868267234"><ele>528.6</ele><time>2026-04-26T10:38:59Z</time></trkpt><trkpt lat="40.64936223066002" lon="16.100864231573368"><ele>531.2</ele><time>2026-04-26T10:39:01Z</time></trkpt><trkpt lat="40.64933586896403" lon="16.101005070049958"><ele>533.8</ele><time>2026-04-26T10:39:02Z</time></trkpt><trkpt lat="40.64929404154724" lon="16.101077696683227"><ele>536.4</ele><time>2026-04-26T10:39:03Z</time></trkpt><trkpt lat="40.64921887670395" lon="16.101201666817154"><ele>539.0</ele><time>2026-04-26T10:39:05Z</time></trkpt><trkpt lat="40.64919248007398" lon="16.10129106845826"><ele>539.0</ele><time>2026-04-26T10:39:06Z</time></trkpt><trkpt lat="40.649136734288724" lon="16.101405405148256"><ele>539.0</ele><time>2026-04-26T10:39:07Z</time></trkpt><trkpt lat="40.64912035037978" lon="16.101499256422915"><ele>539.0</ele><time>2026-04-26T10:39:08Z</time></trkpt><trkpt lat="40.64912474000823" lon="16.10163340038993"><ele>539.0</ele><time>2026-04-26T10:39:09Z</time></trkpt><trkpt lat="40.6491353507086" lon="16.10175851303257"><ele>539.0</ele><time>2026-04-26T10:39:10Z</time></trkpt><trkpt lat="40.649072579580775" lon="16.101895579709755"><ele>538.5</ele><time>2026-04-26T10:39:12Z</time></trkpt><trkpt lat="40.649023981536494" lon="16.10197949347093"><ele>538.0</ele><time>2026-04-26T10:39:13Z</time></trkpt><trkpt lat="40.64898314176592" lon="16.10211121219683"><ele>537.5</ele><time>2026-04-26T10:39:15Z</time></trkpt><trkpt lat="40.648969402804234" lon="16.102261953488043"><ele>537.0</ele><time>2026-04-26T10:39:16Z</time></trkpt><trkpt lat="40.64894316839838" lon="16.10248512610215"><ele>537.0</ele><time>2026-04-26T10:39:17Z</time></trkpt><trkpt lat="40.64898374870972" lon="16.10264913417276"><ele>537.0</ele><time>2026-04-26T10:39:18Z</time></trkpt><trkpt lat="40.648979265653146" lon="16.10274425463409"><ele>537.0</ele><time>2026-04-26T10:39:19Z</time></trkpt><trkpt lat="40.64893216489235" lon="16.102865724012723"><ele>537.0</ele><time>2026-04-26T10:39:21Z</time></trkpt><trkpt lat="40.64889244519615" lon="16.102976559016142"><ele>537.0</ele><time>2026-04-26T10:39:22Z</time></trkpt><trkpt lat="40.648843716847885" lon="16.10303197577044"><ele>537.0</ele><time>2026-04-26T10:39:23Z</time></trkpt><trkpt lat="40.648757561885496" lon="16.103157628817428"><ele>537.0</ele><time>2026-04-26T10:39:25Z</time></trkpt><trkpt lat="40.64867792341629" lon="16.103229045908208"><ele>537.0</ele><time>2026-04-26T10:39:27Z</time></trkpt><trkpt lat="40.648618098660634" lon="16.103258556782187"><ele>537.0</ele><time>2026-04-26T10:39:28Z</time></trkpt><trkpt lat="40.6485524013418" lon="16.103320561870984"><ele>537.0</ele><time>2026-04-26T10:39:29Z</time></trkpt><trkpt lat="40.6484912190747" lon="16.103370416708984"><ele>537.0</ele><time>2026-04-26T10:39:30Z</time></trkpt><trkpt lat="40.64841661770493" lon="16.1034065130579"><ele>541.8333333333334</ele><time>2026-04-26T10:39:31Z</time></trkpt><trkpt lat="40.648355704754096" lon="16.103441710225148"><ele>546.6666666666666</ele><time>2026-04-26T10:39:32Z</time></trkpt><trkpt lat="40.648290773621675" lon="16.103459100605445"><ele>551.5</ele><time>2026-04-26T10:39:33Z</time></trkpt><trkpt lat="40.64826902311696" lon="16.103332392930295"><ele>556.3333333333333</ele><time>2026-04-26T10:39:39Z</time></trkpt><trkpt lat="40.64824531698809" lon="16.10319872690381"><ele>561.1666666666666</ele><time>2026-04-26T10:39:42Z</time></trkpt><trkpt lat="40.648269380330454" lon="16.103114477433483"><ele>566.0</ele><time>2026-04-26T10:39:43Z</time></trkpt><trkpt lat="40.648290311155684" lon="16.103007025917123"><ele>569.5</ele><time>2026-04-26T10:39:44Z</time></trkpt><trkpt lat="40.648268387133385" lon="16.10284737442878"><ele>573.0</ele><time>2026-04-26T10:39:45Z</time></trkpt><trkpt lat="40.64825796796607" lon="16.102664791697578"><ele>576.5</ele><time>2026-04-26T10:39:46Z</time></trkpt><trkpt lat="40.648264661272" lon="16.102519659555234"><ele>580.0</ele><time>2026-04-26T10:39:47Z</time></trkpt><trkpt lat="40.648255445009724" lon="16.10237069615902"><ele>581.8333333333334</ele><time>2026-04-26T10:39:48Z</time></trkpt><trkpt lat="40.64824062617064" lon="16.10228497086611"><ele>583.6666666666667</ele><time>2026-04-26T10:39:49Z</time></trkpt><trkpt lat="40.64820403066881" lon="16.102187526499304"><ele>585.5</ele><time>2026-04-26T10:39:50Z</time></trkpt><trkpt lat="40.64815092371134" lon="16.102105036231343"><ele>587.3333333333334</ele><time>2026-04-26T10:39:51Z</time></trkpt><trkpt lat="40.648076160961125" lon="16.10204372412471"><ele>589.1666666666666</ele><time>2026-04-26T10:39:53Z</time></trkpt><trkpt lat="40.64799255031412" lon="16.10202287696616"><ele>591.0</ele><time>2026-04-26T10:39:55Z</time></trkpt><trkpt lat="40.64786424456352" lon="16.102189217761328"><ele>597.0</ele><time>2026-04-26T10:40:04Z</time></trkpt><trkpt lat="40.64778787865274" lon="16.102258182873147"><ele>603.0</ele><time>2026-04-26T10:40:05Z</time></trkpt><trkpt lat="40.64772748056611" lon="16.102301641616673"><ele>609.0</ele><time>2026-04-26T10:40:06Z</time></trkpt><trkpt lat="40.64766076959256" lon="16.102332673626183"><ele>615.0</ele><time>2026-04-26T10:40:07Z</time></trkpt><trkpt lat="40.6475453082901" lon="16.102308517183705"><ele>621.0</ele><time>2026-04-26T10:40:09Z</time></trkpt><trkpt lat="40.647458209140815" lon="16.10228173730236"><ele>627.0</ele><time>2026-04-26T10:40:10Z</time></trkpt><trkpt lat="40.64734206990345" lon="16.10227519328484"><ele>627.0</ele><time>2026-04-26T10:40:12Z</time></trkpt><trkpt lat="40.64725883348897" lon="16.102266239701056"><ele>627.0</ele><time>2026-04-26T10:40:13Z</time></trkpt><trkpt lat="40.64717804591597" lon="16.102268347081907"><ele>627.0</ele><time>2026-04-26T10:40:14Z</time></trkpt><trkpt lat="40.64707352154971" lon="16.10228754515239"><ele>627.0</ele><time>2026-04-26T10:40:16Z</time></trkpt><trkpt lat="40.64698294783531" lon="16.10229147186906"><ele>627.0</ele><time>2026-04-26T10:40:17Z</time></trkpt><trkpt lat="40.64689799213782" lon="16.102269455341283"><ele>627.0</ele><time>2026-04-26T10:40:18Z</time></trkpt><trkpt lat="40.646814674316275" lon="16.102220036020455"><ele>630.75</ele><time>2026-04-26T10:40:19Z</time></trkpt><trkpt lat="40.64670914492774" lon="16.1022397086878"><ele>634.5</ele><time>2026-04-26T10:40:21Z</time></trkpt><trkpt lat="40.64661865939609" lon="16.102213851635245"><ele>638.25</ele><time>2026-04-26T10:40:23Z</time></trkpt><trkpt lat="40.646501461695316" lon="16.102150688520027"><ele>642.0</ele><time>2026-04-26T10:40:25Z</time></trkpt><trkpt lat="40.64645643360611" lon="16.10199023422071"><ele>642.0</ele><time>2026-04-26T10:40:27Z</time></trkpt><trkpt lat="40.646489041587344" lon="16.10180486691107"><ele>642.0</ele><time>2026-04-26T10:40:28Z</time></trkpt><trkpt lat="40.646435532514616" lon="16.10171309868123"><ele>642.0</ele><time>2026-04-26T10:40:29Z</time></trkpt><trkpt lat="40.646353641839596" lon="16.10163461047584"><ele>642.0</ele><time>2026-04-26T10:40:30Z</time></trkpt><trkpt lat="40.64629232107717" lon="16.101567561689645"><ele>642.0</ele><time>2026-04-26T10:40:31Z</time></trkpt><trkpt lat="40.646212977491786" lon="16.101468744561327"><ele>641.5714285714286</ele><time>2026-04-26T10:40:33Z</time></trkpt><trkpt lat="40.646149947065545" lon="16.101439075984064"><ele>641.1428571428571</ele><time>2026-04-26T10:40:34Z</time></trkpt><trkpt lat="40.6461024838167" lon="16.101336257609045"><ele>640.7142857142858</ele><time>2026-04-26T10:40:36Z</time></trkpt><trkpt lat="40.64602203035557" lon="16.10130817954213"><ele>640.2857142857142</ele><time>2026-04-26T10:40:39Z</time></trkpt><trkpt lat="40.64596070023583" lon="16.10133958120446"><ele>639.8571428571429</ele><time>2026-04-26T10:40:40Z</time></trkpt><trkpt lat="40.64590504191861" lon="16.101378607094492"><ele>639.4285714285714</ele><time>2026-04-26T10:40:41Z</time></trkpt><trkpt lat="40.64585877885973" lon="16.10144385702247"><ele>639.0</ele><time>2026-04-26T10:40:42Z</time></trkpt><trkpt lat="40.64578060539239" lon="16.10150604614961"><ele>639.8333333333334</ele><time>2026-04-26T10:40:43Z</time></trkpt><trkpt lat="40.64566579022966" lon="16.101520963755505"><ele>640.6666666666666</ele><time>2026-04-26T10:40:44Z</time></trkpt><trkpt lat="40.645586117455935" lon="16.101517786619816"><ele>641.5</ele><time>2026-04-26T10:40:45Z</time></trkpt><trkpt lat="40.6454996929136" lon="16.101552385981762"><ele>642.3333333333333</ele><time>2026-04-26T10:40:46Z</time></trkpt><trkpt lat="40.645425570003155" lon="16.101581956538954"><ele>643.1666666666666</ele><time>2026-04-26T10:40:47Z</time></trkpt><trkpt lat="40.64535185865056" lon="16.101615104988166"><ele>644.0</ele><time>2026-04-26T10:40:48Z</time></trkpt><trkpt lat="40.64525237405937" lon="16.10164318765177"><ele>644.4000000000001</ele><time>2026-04-26T10:40:49Z</time></trkpt><trkpt lat="40.645152520024574" lon="16.10164879681254"><ele>644.8</ele><time>2026-04-26T10:40:50Z</time></trkpt><trkpt lat="40.645048158537584" lon="16.101676449814914"><ele>645.2</ele><time>2026-04-26T10:40:51Z</time></trkpt><trkpt lat="40.64494737441193" lon="16.10170852590473"><ele>645.5999999999999</ele><time>2026-04-26T10:40:52Z</time></trkpt><trkpt lat="40.64487886742848" lon="16.101720942806637"><ele>646.0</ele><time>2026-04-26T10:40:53Z</time></trkpt><trkpt lat="40.64475338009038" lon="16.10175411168906"><ele>646.0</ele><time>2026-04-26T10:40:55Z</time></trkpt><trkpt lat="40.64465512692436" lon="16.10181037947912"><ele>646.0</ele><time>2026-04-26T10:40:56Z</time></trkpt><trkpt lat="40.644569474436324" lon="16.1018431450881"><ele>646.0</ele><time>2026-04-26T10:40:57Z</time></trkpt><trkpt lat="40.64448098363951" lon="16.10187486816446"><ele>646.0</ele><time>2026-04-26T10:40:58Z</time></trkpt><trkpt lat="40.644391145290975" lon="16.10191063819121"><ele>646.0</ele><time>2026-04-26T10:40:59Z</time></trkpt><trkpt lat="40.644302426331784" lon="16.101978256120262"><ele>647.0</ele><time>2026-04-26T10:41:00Z</time></trkpt><trkpt lat="40.64421235199856" lon="16.10205496696896"><ele>648.0</ele><time>2026-04-26T10:41:01Z</time></trkpt><trkpt lat="40.64413128019848" lon="16.102130500616468"><ele>649.0</ele><time>2026-04-26T10:41:02Z</time></trkpt><trkpt lat="40.64405135037221" lon="16.102177545644984"><ele>650.0</ele><time>2026-04-26T10:41:03Z</time></trkpt><trkpt lat="40.643951210327906" lon="16.10225541153822"><ele>651.0</ele><time>2026-04-26T10:41:04Z</time></trkpt><trkpt lat="40.64386396520774" lon="16.10229140790309"><ele>651.0</ele><time>2026-04-26T10:41:05Z</time></trkpt><trkpt lat="40.643757950116175" lon="16.10237697789154"><ele>651.0</ele><time>2026-04-26T10:41:06Z</time></trkpt><trkpt lat="40.643652862493596" lon="16.10244187678167"><ele>651.0</ele><time>2026-04-26T10:41:07Z</time></trkpt><trkpt lat="40.64354679591536" lon="16.102513044804567"><ele>651.0</ele><time>2026-04-26T10:41:08Z</time></trkpt><trkpt lat="40.64343946842243" lon="16.10259962462618"><ele>653.8</ele><time>2026-04-26T10:41:09Z</time></trkpt><trkpt lat="40.64334807561278" lon="16.10266540691522"><ele>656.5999999999999</ele><time>2026-04-26T10:41:10Z</time></trkpt><trkpt lat="40.64326817067602" lon="16.102735209095812"><ele>659.4</ele><time>2026-04-26T10:41:11Z</time></trkpt><trkpt lat="40.643218093534806" lon="16.102812176600242"><ele>662.2</ele><time>2026-04-26T10:41:12Z</time></trkpt><trkpt lat="40.64318023132528" lon="16.10297332576523"><ele>665.0</ele><time>2026-04-26T10:41:14Z</time></trkpt><trkpt lat="40.643049381535214" lon="16.103076339175775"><ele>665.0</ele><time>2026-04-26T10:41:16Z</time></trkpt><trkpt lat="40.64293756359329" lon="16.103094905870268"><ele>665.0</ele><time>2026-04-26T10:41:17Z</time></trkpt><trkpt lat="40.64281195470438" lon="16.10311014609315"><ele>665.0</ele><time>2026-04-26T10:41:18Z</time></trkpt><trkpt lat="40.642666276208914" lon="16.103109590861038"><ele>665.0</ele><time>2026-04-26T10:41:19Z</time></trkpt><trkpt lat="40.64252117311793" lon="16.103147993391147"><ele>666.6</ele><time>2026-04-26T10:41:20Z</time></trkpt><trkpt lat="40.64238686058188" lon="16.103148601424657"><ele>668.2</ele><time>2026-04-26T10:41:21Z</time></trkpt><trkpt lat="40.642284194180526" lon="16.10315678381065"><ele>669.8</ele><time>2026-04-26T10:41:22Z</time></trkpt><trkpt lat="40.64219138333451" lon="16.103149319427004"><ele>671.4</ele><time>2026-04-26T10:41:23Z</time></trkpt><trkpt lat="40.64210849400753" lon="16.103138202033566"><ele>673.0</ele><time>2026-04-26T10:41:24Z</time></trkpt><trkpt lat="40.642043928876696" lon="16.10311824177992"><ele>676.2</ele><time>2026-04-26T10:41:25Z</time></trkpt><trkpt lat="40.64195741651627" lon="16.103073132974632"><ele>679.4</ele><time>2026-04-26T10:41:26Z</time></trkpt><trkpt lat="40.641864031150334" lon="16.102992999987094"><ele>682.6</ele><time>2026-04-26T10:41:27Z</time></trkpt><trkpt lat="40.64177210549769" lon="16.102928664845205"><ele>685.8000000000001</ele><time>2026-04-26T10:41:28Z</time></trkpt><trkpt lat="40.64168784118454" lon="16.10286451334108"><ele>689.0</ele><time>2026-04-26T10:41:29Z</time></trkpt><trkpt lat="40.641613967846254" lon="16.10278557854716"><ele>689.0</ele><time>2026-04-26T10:41:30Z</time></trkpt><trkpt lat="40.64155808486497" lon="16.102720836904368"><ele>689.0</ele><time>2026-04-26T10:41:31Z</time></trkpt><trkpt lat="40.641496736263875" lon="16.102653531025453"><ele>689.0</ele><time>2026-04-26T10:41:32Z</time></trkpt><trkpt lat="40.64142497139035" lon="16.102600138739145"><ele>689.0</ele><time>2026-04-26T10:41:33Z</time></trkpt><trkpt lat="40.64132879648911" lon="16.102538485038913"><ele>689.0</ele><time>2026-04-26T10:41:34Z</time></trkpt><trkpt lat="40.641224191799715" lon="16.102446245797427"><ele>690.0</ele><time>2026-04-26T10:41:35Z</time></trkpt><trkpt lat="40.64110020276882" lon="16.102358228007336"><ele>691.0</ele><time>2026-04-26T10:41:36Z</time></trkpt><trkpt lat="40.640961486312214" lon="16.102286949737373"><ele>692.0</ele><time>2026-04-26T10:41:37Z</time></trkpt><trkpt lat="40.640818588540185" lon="16.102182458588185"><ele>692.0</ele><time>2026-04-26T10:41:38Z</time></trkpt><trkpt lat="40.640670122887485" lon="16.102078739152716"><ele>692.0</ele><time>2026-04-26T10:41:39Z</time></trkpt><trkpt lat="40.640523683218056" lon="16.101976396864387"><ele>692.0</ele><time>2026-04-26T10:41:40Z</time></trkpt><trkpt lat="40.64038319651685" lon="16.101885189816727"><ele>697.3333333333333</ele><time>2026-04-26T10:41:41Z</time></trkpt><trkpt lat="40.64024287992633" lon="16.101796368364308"><ele>702.6666666666666</ele><time>2026-04-26T10:41:42Z</time></trkpt><trkpt lat="40.64010476868468" lon="16.101688233909524"><ele>708.0</ele><time>2026-04-26T10:41:43Z</time></trkpt><trkpt lat="40.63996384374272" lon="16.101597726424746"><ele>706.0</ele><time>2026-04-26T10:41:44Z</time></trkpt><trkpt lat="40.63982388424208" lon="16.101508387839456"><ele>704.0</ele><time>2026-04-26T10:41:45Z</time></trkpt><trkpt lat="40.63968718590931" lon="16.101422022337072"><ele>702.0</ele><time>2026-04-26T10:41:46Z</time></trkpt><trkpt lat="40.639550716767815" lon="16.10133722066237"><ele>705.75</ele><time>2026-04-26T10:41:47Z</time></trkpt><trkpt lat="40.639417742120926" lon="16.101273275638118"><ele>709.5</ele><time>2026-04-26T10:41:48Z</time></trkpt><trkpt lat="40.63929248226606" lon="16.101193925020304"><ele>713.25</ele><time>2026-04-26T10:41:49Z</time></trkpt><trkpt lat="40.63917194191817" lon="16.101125676530444"><ele>717.0</ele><time>2026-04-26T10:41:50Z</time></trkpt><trkpt lat="40.63904817874705" lon="16.101076621487053"><ele>717.0</ele><time>2026-04-26T10:41:51Z</time></trkpt><trkpt lat="40.638924963541825" lon="16.101052895844408"><ele>717.0</ele><time>2026-04-26T10:41:52Z</time></trkpt><trkpt lat="40.638817165541674" lon="16.101008440601728"><ele>717.0</ele><time>2026-04-26T10:41:53Z</time></trkpt><trkpt lat="40.638723610387686" lon="16.10098161492699"><ele>717.0</ele><time>2026-04-26T10:41:54Z</time></trkpt><trkpt lat="40.63863180941613" lon="16.100953154202614"><ele>717.0</ele><time>2026-04-26T10:41:55Z</time></trkpt><trkpt lat="40.63854233467605" lon="16.100923470946938"><ele>718.8</ele><time>2026-04-26T10:41:56Z</time></trkpt><trkpt lat="40.638448171915904" lon="16.10089955351722"><ele>720.6</ele><time>2026-04-26T10:41:57Z</time></trkpt><trkpt lat="40.638350441758604" lon="16.100856868852595"><ele>722.4</ele><time>2026-04-26T10:41:58Z</time></trkpt><trkpt lat="40.638233652047845" lon="16.10079474398898"><ele>724.1999999999999</ele><time>2026-04-26T10:41:59Z</time></trkpt><trkpt lat="40.63811201668626" lon="16.10076382660873"><ele>726.0</ele><time>2026-04-26T10:42:00Z</time></trkpt><trkpt lat="40.638000616716326" lon="16.10071282108681"><ele>726.1666666666666</ele><time>2026-04-26T10:42:01Z</time></trkpt><trkpt lat="40.63790302854003" lon="16.10068237489459"><ele>726.3333333333334</ele><time>2026-04-26T10:42:02Z</time></trkpt><trkpt lat="40.63784260203857" lon="16.10063938071038"><ele>726.5</ele><time>2026-04-26T10:42:03Z</time></trkpt><trkpt lat="40.63775767185006" lon="16.10062799938474"><ele>726.6666666666667</ele><time>2026-04-26T10:42:05Z</time></trkpt><trkpt lat="40.63781889507685" lon="16.100662191932418"><ele>726.8333333333334</ele><time>2026-04-26T10:42:13Z</time></trkpt><trkpt lat="40.637871791693236" lon="16.100745512803954"><ele>727.0</ele><time>2026-04-26T10:42:15Z</time></trkpt><trkpt lat="40.63781779776403" lon="16.100681333253636"><ele>732.3333333333334</ele><time>2026-04-26T10:42:23Z</time></trkpt><trkpt lat="40.63773606557586" lon="16.100654853844183"><ele>737.6666666666666</ele><time>2026-04-26T10:42:25Z</time></trkpt><trkpt lat="40.637643663714485" lon="16.10057819509489"><ele>743.0</ele><time>2026-04-26T10:42:28Z</time></trkpt><trkpt lat="40.63735167060727" lon="16.100438602694265"><ele>743.0</ele><time>2026-04-26T10:42:30Z</time></trkpt><trkpt lat="40.637283428669534" lon="16.10042141934015"><ele>743.0</ele><time>2026-04-26T10:42:31Z</time></trkpt><trkpt lat="40.63719109818156" lon="16.10042299958837"><ele>743.0</ele><time>2026-04-26T10:42:32Z</time></trkpt><trkpt lat="40.637112186320515" lon="16.100406259371503"><ele>743.0</ele><time>2026-04-26T10:42:33Z</time></trkpt><trkpt lat="40.63705673689209" lon="16.100358169918874"><ele>743.0</ele><time>2026-04-26T10:42:34Z</time></trkpt><trkpt lat="40.63697407769434" lon="16.100294399563126"><ele>743.0</ele><time>2026-04-26T10:42:36Z</time></trkpt><trkpt lat="40.63686769365861" lon="16.100271132503785"><ele>747.5</ele><time>2026-04-26T10:42:38Z</time></trkpt><trkpt lat="40.63674506844041" lon="16.100198708225022"><ele>752.0</ele><time>2026-04-26T10:42:40Z</time></trkpt><trkpt lat="40.63665259147742" lon="16.100181292172074"><ele>756.5</ele><time>2026-04-26T10:42:41Z</time></trkpt><trkpt lat="40.63650712456397" lon="16.100127379677946"><ele>761.0</ele><time>2026-04-26T10:42:42Z</time></trkpt><trkpt lat="40.63634645170105" lon="16.10010274305714"><ele>761.0</ele><time>2026-04-26T10:42:43Z</time></trkpt><trkpt lat="40.63621885486459" lon="16.100096636890054"><ele>761.0</ele><time>2026-04-26T10:42:44Z</time></trkpt><trkpt lat="40.636085144089705" lon="16.100103848875392"><ele>761.0</ele><time>2026-04-26T10:42:45Z</time></trkpt><trkpt lat="40.63597161239849" lon="16.100072619641097"><ele>761.0</ele><time>2026-04-26T10:42:46Z</time></trkpt><trkpt lat="40.63588787950773" lon="16.100042255642126"><ele>764.1999999999999</ele><time>2026-04-26T10:42:47Z</time></trkpt><trkpt lat="40.6357777613872" lon="16.0999758391198"><ele>767.4</ele><time>2026-04-26T10:42:48Z</time></trkpt><trkpt lat="40.63568720289372" lon="16.09991505745873"><ele>770.6</ele><time>2026-04-26T10:42:49Z</time></trkpt><trkpt lat="40.63561886444546" lon="16.099856209520063"><ele>773.8</ele><time>2026-04-26T10:42:50Z</time></trkpt><trkpt lat="40.63554698576037" lon="16.09979524870713"><ele>777.0</ele><time>2026-04-26T10:42:51Z</time></trkpt><trkpt lat="40.63549958612915" lon="16.099627961861273"><ele>778.0</ele><time>2026-04-26T10:42:53Z</time></trkpt><trkpt lat="40.635441753013176" lon="16.09953316141035"><ele>779.0</ele><time>2026-04-26T10:42:54Z</time></trkpt><trkpt lat="40.635372350353165" lon="16.099416528557015"><ele>780.0</ele><time>2026-04-26T10:42:55Z</time></trkpt><trkpt lat="40.63530370974607" lon="16.09929187086501"><ele>781.0</ele><time>2026-04-26T10:42:56Z</time></trkpt><trkpt lat="40.63523651605585" lon="16.099159816851678"><ele>782.0</ele><time>2026-04-26T10:42:57Z</time></trkpt><trkpt lat="40.6351799452046" lon="16.099020465012504"><ele>782.6</ele><time>2026-04-26T10:42:58Z</time></trkpt><trkpt lat="40.635142924008285" lon="16.09890793311959"><ele>783.2</ele><time>2026-04-26T10:42:59Z</time></trkpt><trkpt lat="40.63512012920501" lon="16.09882212005076"><ele>783.8</ele><time>2026-04-26T10:43:00Z</time></trkpt><trkpt lat="40.63508814697363" lon="16.09866363877078"><ele>784.4</ele><time>2026-04-26T10:43:02Z</time></trkpt><trkpt lat="40.635077600791" lon="16.09856095706286"><ele>785.0</ele><time>2026-04-26T10:43:03Z</time></trkpt><trkpt lat="40.635065616299855" lon="16.09844022155182"><ele>785.0</ele><time>2026-04-26T10:43:04Z</time></trkpt><trkpt lat="40.63503814383787" lon="16.098312309844616"><ele>785.0</ele><time>2026-04-26T10:43:05Z</time></trkpt><trkpt lat="40.635048214600246" lon="16.098167971273266"><ele>785.0</ele><time>2026-04-26T10:43:06Z</time></trkpt><trkpt lat="40.63502231134236" lon="16.098037528106094"><ele>785.0</ele><time>2026-04-26T10:43:07Z</time></trkpt><trkpt lat="40.63498093321605" lon="16.097905804864276"><ele>785.0</ele><time>2026-04-26T10:43:08Z</time></trkpt><trkpt lat="40.63493335707752" lon="16.09777883536526"><ele>785.8</ele><time>2026-04-26T10:43:09Z</time></trkpt><trkpt lat="40.63485678379101" lon="16.097661170055037"><ele>786.6</ele><time>2026-04-26T10:43:10Z</time></trkpt><trkpt lat="40.63479830911892" lon="16.097547231174776"><ele>787.4000000000001</ele><time>2026-04-26T10:43:11Z</time></trkpt><trkpt lat="40.634794577270945" lon="16.09744922828678"><ele>788.2</ele><time>2026-04-26T10:43:12Z</time></trkpt><trkpt lat="40.634787883675635" lon="16.09735860017608"><ele>789.0</ele><time>2026-04-26T10:43:13Z</time></trkpt><trkpt lat="40.634787235538234" lon="16.097244150859147"><ele>789.0</ele><time>2026-04-26T10:43:14Z</time></trkpt><trkpt lat="40.63482677682377" lon="16.097129616863917"><ele>789.0</ele><time>2026-04-26T10:43:15Z</time></trkpt><trkpt lat="40.634840448113074" lon="16.097007132808837"><ele>789.0</ele><time>2026-04-26T10:43:16Z</time></trkpt><trkpt lat="40.63485515987683" lon="16.09688245852165"><ele>789.0</ele><time>2026-04-26T10:43:17Z</time></trkpt><trkpt lat="40.634898274265645" lon="16.096731710791705"><ele>789.0</ele><time>2026-04-26T10:43:18Z</time></trkpt><trkpt lat="40.63492060462776" lon="16.09657837793928"><ele>788.75</ele><time>2026-04-26T10:43:19Z</time></trkpt><trkpt lat="40.63491843435763" lon="16.09641819900816"><ele>788.5</ele><time>2026-04-26T10:43:20Z</time></trkpt><trkpt lat="40.63491023316399" lon="16.096241849318616"><ele>788.25</ele><time>2026-04-26T10:43:21Z</time></trkpt><trkpt lat="40.634911127647634" lon="16.096067278110503"><ele>788.0</ele><time>2026-04-26T10:43:22Z</time></trkpt><trkpt lat="40.6348892878141" lon="16.095872824087355"><ele>788.5</ele><time>2026-04-26T10:43:23Z</time></trkpt><trkpt lat="40.63485619562052" lon="16.0956784525143"><ele>789.0</ele><time>2026-04-26T10:43:24Z</time></trkpt><trkpt lat="40.634787415507994" lon="16.095500527505244"><ele>789.5</ele><time>2026-04-26T10:43:25Z</time></trkpt><trkpt lat="40.63472005591818" lon="16.095357790313614"><ele>790.0</ele><time>2026-04-26T10:43:26Z</time></trkpt><trkpt lat="40.634654149030375" lon="16.095244121592245"><ele>790.0</ele><time>2026-04-26T10:43:27Z</time></trkpt><trkpt lat="40.63458844158314" lon="16.095146888586257"><ele>790.0</ele><time>2026-04-26T10:43:28Z</time></trkpt><trkpt lat="40.6345198211865" lon="16.095049849166568"><ele>790.0</ele><time>2026-04-26T10:43:29Z</time></trkpt><trkpt lat="40.63442927309828" lon="16.094947085951276"><ele>790.0</ele><time>2026-04-26T10:43:30Z</time></trkpt><trkpt lat="40.63432648327267" lon="16.09484619642342"><ele>790.0</ele><time>2026-04-26T10:43:31Z</time></trkpt><trkpt lat="40.634209215479586" lon="16.09475921468841"><ele>790.0</ele><time>2026-04-26T10:43:32Z</time></trkpt><trkpt lat="40.634091636488314" lon="16.094686347765577"><ele>790.0</ele><time>2026-04-26T10:43:33Z</time></trkpt><trkpt lat="40.63400914054574" lon="16.094585053125925"><ele>790.0</ele><time>2026-04-26T10:43:34Z</time></trkpt><trkpt lat="40.63394383380897" lon="16.09448224129441"><ele>790.0</ele><time>2026-04-26T10:43:35Z</time></trkpt><trkpt lat="40.63387127844327" lon="16.09436172835711"><ele>790.0</ele><time>2026-04-26T10:43:36Z</time></trkpt><trkpt lat="40.633792040587636" lon="16.0942299564419"><ele>790.0</ele><time>2026-04-26T10:43:37Z</time></trkpt><trkpt lat="40.633693191209375" lon="16.094081176854235"><ele>790.0</ele><time>2026-04-26T10:43:38Z</time></trkpt><trkpt lat="40.63361622191802" lon="16.093917263387485"><ele>790.0</ele><time>2026-04-26T10:43:39Z</time></trkpt><trkpt lat="40.63353006158761" lon="16.093765612843107"><ele>792.5</ele><time>2026-04-26T10:43:40Z</time></trkpt><trkpt lat="40.633449980024565" lon="16.093615826252766"><ele>795.0</ele><time>2026-04-26T10:43:41Z</time></trkpt><trkpt lat="40.63337765309792" lon="16.09346921009775"><ele>797.5</ele><time>2026-04-26T10:43:42Z</time></trkpt><trkpt lat="40.633299736196385" lon="16.09335084478644"><ele>800.0</ele><time>2026-04-26T10:43:43Z</time></trkpt><trkpt lat="40.63321987255349" lon="16.09323835604053"><ele>799.8333333333334</ele><time>2026-04-26T10:43:44Z</time></trkpt><trkpt lat="40.633136668487325" lon="16.093156293113417"><ele>799.6666666666667</ele><time>2026-04-26T10:43:45Z</time></trkpt><trkpt lat="40.633059864744055" lon="16.093100262724807"><ele>799.5</ele><time>2026-04-26T10:43:46Z</time></trkpt><trkpt lat="40.63298465158996" lon="16.093047457317894"><ele>799.3333333333333</ele><time>2026-04-26T10:43:47Z</time></trkpt><trkpt lat="40.63292029500739" lon="16.093004459479655"><ele>799.1666666666666</ele><time>2026-04-26T10:43:48Z</time></trkpt><trkpt lat="40.63285713566039" lon="16.092962264582823"><ele>799.0</ele><time>2026-04-26T10:43:49Z</time></trkpt><trkpt lat="40.63279397425071" lon="16.092893555450946"><ele>799.0</ele><time>2026-04-26T10:43:50Z</time></trkpt><trkpt lat="40.632698148164444" lon="16.09286642605906"><ele>799.0</ele><time>2026-04-26T10:43:51Z</time></trkpt><trkpt lat="40.63260652410336" lon="16.092808219091904"><ele>799.0</ele><time>2026-04-26T10:43:52Z</time></trkpt><trkpt lat="40.632517116626644" lon="16.092708707176534"><ele>799.0</ele><time>2026-04-26T10:43:53Z</time></trkpt><trkpt lat="40.632404742372614" lon="16.09263959893101"><ele>799.0</ele><time>2026-04-26T10:43:54Z</time></trkpt><trkpt lat="40.632291819561026" lon="16.09254915397112"><ele>799.0</ele><time>2026-04-26T10:43:55Z</time></trkpt><trkpt lat="40.632179820096226" lon="16.092471492043014"><ele>799.0</ele><time>2026-04-26T10:43:56Z</time></trkpt><trkpt lat="40.63207557229459" lon="16.092400161279027"><ele>799.0</ele><time>2026-04-26T10:43:57Z</time></trkpt><trkpt lat="40.63198149377194" lon="16.092339688838006"><ele>799.0</ele><time>2026-04-26T10:43:58Z</time></trkpt><trkpt lat="40.63188811140796" lon="16.092275208197055"><ele>797.4000000000001</ele><time>2026-04-26T10:43:59Z</time></trkpt><trkpt lat="40.63179963669838" lon="16.09220811499033"><ele>795.8</ele><time>2026-04-26T10:44:00Z</time></trkpt><trkpt lat="40.63172213914648" lon="16.09213743388045"><ele>794.2</ele><time>2026-04-26T10:44:01Z</time></trkpt><trkpt lat="40.63164287536136" lon="16.09204882486925"><ele>792.5999999999999</ele><time>2026-04-26T10:44:02Z</time></trkpt><trkpt lat="40.631577903605304" lon="16.091934240135025"><ele>791.0</ele><time>2026-04-26T10:44:03Z</time></trkpt><trkpt lat="40.631528124219614" lon="16.09179141321316"><ele>791.0</ele><time>2026-04-26T10:44:04Z</time></trkpt><trkpt lat="40.631469669951045" lon="16.09165225710365"><ele>791.0</ele><time>2026-04-26T10:44:05Z</time></trkpt><trkpt lat="40.63141813365549" lon="16.09152342333789"><ele>791.0</ele><time>2026-04-26T10:44:06Z</time></trkpt><trkpt lat="40.6313752079728" lon="16.091399958958366"><ele>791.0</ele><time>2026-04-26T10:44:07Z</time></trkpt><trkpt lat="40.631336119151385" lon="16.09128867946709"><ele>791.0</ele><time>2026-04-26T10:44:08Z</time></trkpt><trkpt lat="40.631310024355514" lon="16.09117997579911"><ele>791.1999999999999</ele><time>2026-04-26T10:44:09Z</time></trkpt><trkpt lat="40.631266918078474" lon="16.091077198520782"><ele>791.4</ele><time>2026-04-26T10:44:10Z</time></trkpt><trkpt lat="40.63120045610813" lon="16.09100801426543"><ele>791.6</ele><time>2026-04-26T10:44:11Z</time></trkpt><trkpt lat="40.63113572915083" lon="16.090934284631558"><ele>791.8</ele><time>2026-04-26T10:44:12Z</time></trkpt><trkpt lat="40.63102947076857" lon="16.09094580269421"><ele>792.0</ele><time>2026-04-26T10:44:13Z</time></trkpt><trkpt lat="40.63094088661051" lon="16.09094945390892"><ele>789.2</ele><time>2026-04-26T10:44:14Z</time></trkpt><trkpt lat="40.63085756012394" lon="16.090967580684183"><ele>786.4000000000001</ele><time>2026-04-26T10:44:15Z</time></trkpt><trkpt lat="40.630759207544486" lon="16.090994197908557"><ele>783.5999999999999</ele><time>2026-04-26T10:44:16Z</time></trkpt><trkpt lat="40.63066942398698" lon="16.091025465876402"><ele>780.8</ele><time>2026-04-26T10:44:17Z</time></trkpt><trkpt lat="40.63057890678014" lon="16.09104844555851"><ele>778.0</ele><time>2026-04-26T10:44:18Z</time></trkpt><trkpt lat="40.630496078651866" lon="16.091073349941656"><ele>778.0</ele><time>2026-04-26T10:44:19Z</time></trkpt><trkpt lat="40.63042294946573" lon="16.09109020059873"><ele>778.0</ele><time>2026-04-26T10:44:20Z</time></trkpt><trkpt lat="40.63033635124392" lon="16.091110785078893"><ele>778.0</ele><time>2026-04-26T10:44:22Z</time></trkpt><trkpt lat="40.630235704635396" lon="16.09111629543009"><ele>778.0</ele><time>2026-04-26T10:44:24Z</time></trkpt><trkpt lat="40.63011194549699" lon="16.091115050826676"><ele>778.0</ele><time>2026-04-26T10:44:26Z</time></trkpt><trkpt lat="40.63004785314772" lon="16.09111467356153"><ele>776.5999999999999</ele><time>2026-04-26T10:44:27Z</time></trkpt><trkpt lat="40.6299873684318" lon="16.09103892414507"><ele>775.1999999999999</ele><time>2026-04-26T10:44:29Z</time></trkpt><trkpt lat="40.62994401675329" lon="16.090930512120824"><ele>773.8</ele><time>2026-04-26T10:44:31Z</time></trkpt><trkpt lat="40.62980550691385" lon="16.09089017203809"><ele>772.4</ele><time>2026-04-26T10:44:33Z</time></trkpt><trkpt lat="40.6297106725725" lon="16.090883817608375"><ele>771.0</ele><time>2026-04-26T10:44:34Z</time></trkpt><trkpt lat="40.629614230256706" lon="16.090862915048312"><ele>771.0</ele><time>2026-04-26T10:44:35Z</time></trkpt><trkpt lat="40.6295100515613" lon="16.09082572493921"><ele>771.0</ele><time>2026-04-26T10:44:36Z</time></trkpt><trkpt lat="40.62939215733654" lon="16.09079942772105"><ele>771.0</ele><time>2026-04-26T10:44:37Z</time></trkpt><trkpt lat="40.629268944259316" lon="16.09077618457154"><ele>771.0</ele><time>2026-04-26T10:44:38Z</time></trkpt><trkpt lat="40.629152366393534" lon="16.09074870556052"><ele>767.8</ele><time>2026-04-26T10:44:39Z</time></trkpt><trkpt lat="40.62902850397845" lon="16.09070641657527"><ele>764.5999999999999</ele><time>2026-04-26T10:44:40Z</time></trkpt><trkpt lat="40.628911290822835" lon="16.090685659172276"><ele>761.4</ele><time>2026-04-26T10:44:41Z</time></trkpt><trkpt lat="40.62882536705116" lon="16.090657177233926"><ele>758.2</ele><time>2026-04-26T10:44:42Z</time></trkpt><trkpt lat="40.62875400337195" lon="16.0906323744223"><ele>755.0</ele><time>2026-04-26T10:44:43Z</time></trkpt><trkpt lat="40.628671809324715" lon="16.090621851430715"><ele>755.4</ele><time>2026-04-26T10:44:44Z</time></trkpt><trkpt lat="40.628579362746855" lon="16.090597336844127"><ele>755.8</ele><time>2026-04-26T10:44:45Z</time></trkpt><trkpt lat="40.62847650817253" lon="16.090556864873463"><ele>756.2</ele><time>2026-04-26T10:44:46Z</time></trkpt><trkpt lat="40.62836725904704" lon="16.090527627463945"><ele>756.6</ele><time>2026-04-26T10:44:47Z</time></trkpt><trkpt lat="40.62825802254856" lon="16.09050908252477"><ele>757.0</ele><time>2026-04-26T10:44:48Z</time></trkpt><trkpt lat="40.6281458571423" lon="16.090485946102902"><ele>757.0</ele><time>2026-04-26T10:44:49Z</time></trkpt><trkpt lat="40.62804281211579" lon="16.090455621389957"><ele>757.0</ele><time>2026-04-26T10:44:50Z</time></trkpt><trkpt lat="40.62792432940968" lon="16.090425894294572"><ele>757.0</ele><time>2026-04-26T10:44:51Z</time></trkpt><trkpt lat="40.62780505432379" lon="16.090403742964508"><ele>757.0</ele><time>2026-04-26T10:44:52Z</time></trkpt><trkpt lat="40.62768163350991" lon="16.09040266882619"><ele>754.5</ele><time>2026-04-26T10:44:53Z</time></trkpt><trkpt lat="40.62756590093667" lon="16.09044805088948"><ele>752.0</ele><time>2026-04-26T10:44:54Z</time></trkpt><trkpt lat="40.627448455234486" lon="16.090498796554392"><ele>749.5</ele><time>2026-04-26T10:44:55Z</time></trkpt><trkpt lat="40.62734429603737" lon="16.09057791170423"><ele>747.0</ele><time>2026-04-26T10:44:56Z</time></trkpt><trkpt lat="40.627247218190085" lon="16.090664870351077"><ele>747.0</ele><time>2026-04-26T10:44:57Z</time></trkpt><trkpt lat="40.62715182917704" lon="16.090746952389175"><ele>747.0</ele><time>2026-04-26T10:44:58Z</time></trkpt><trkpt lat="40.627056439044324" lon="16.09082742656776"><ele>747.0</ele><time>2026-04-26T10:44:59Z</time></trkpt><trkpt lat="40.62696030019326" lon="16.09090972243943"><ele>747.0</ele><time>2026-04-26T10:45:00Z</time></trkpt><trkpt lat="40.626857301833766" lon="16.09098719739498"><ele>745.5</ele><time>2026-04-26T10:45:01Z</time></trkpt><trkpt lat="40.626752550740235" lon="16.09107410891933"><ele>744.0</ele><time>2026-04-26T10:45:02Z</time></trkpt><trkpt lat="40.62665175795353" lon="16.091159755485723"><ele>742.5</ele><time>2026-04-26T10:45:03Z</time></trkpt><trkpt lat="40.62655736703648" lon="16.091245601698677"><ele>741.0</ele><time>2026-04-26T10:45:04Z</time></trkpt><trkpt lat="40.626464569758085" lon="16.09134570093185"><ele>741.0</ele><time>2026-04-26T10:45:05Z</time></trkpt><trkpt lat="40.62638727553699" lon="16.09145652219795"><ele>741.0</ele><time>2026-04-26T10:45:06Z</time></trkpt><trkpt lat="40.626333927647735" lon="16.09159625550863"><ele>741.0</ele><time>2026-04-26T10:45:07Z</time></trkpt><trkpt lat="40.626265451035586" lon="16.09172906050968"><ele>741.0</ele><time>2026-04-26T10:45:08Z</time></trkpt><trkpt lat="40.62622228221322" lon="16.091879164965487"><ele>741.0</ele><time>2026-04-26T10:45:09Z</time></trkpt><trkpt lat="40.626170213294444" lon="16.092021636629784"><ele>741.0</ele><time>2026-04-26T10:45:10Z</time></trkpt><trkpt lat="40.62611140149848" lon="16.09216431548513"><ele>741.0</ele><time>2026-04-26T10:45:11Z</time></trkpt><trkpt lat="40.62604675443668" lon="16.092299838312588"><ele>741.0</ele><time>2026-04-26T10:45:12Z</time></trkpt><trkpt lat="40.6259692753177" lon="16.092424607430278"><ele>741.75</ele><time>2026-04-26T10:45:13Z</time></trkpt><trkpt lat="40.62586939150392" lon="16.09252765758185"><ele>742.5</ele><time>2026-04-26T10:45:14Z</time></trkpt><trkpt lat="40.62576770397885" lon="16.0926158146874"><ele>743.25</ele><time>2026-04-26T10:45:15Z</time></trkpt><trkpt lat="40.62565941872609" lon="16.092674951820666"><ele>744.0</ele><time>2026-04-26T10:45:16Z</time></trkpt><trkpt lat="40.62556962713942" lon="16.09273016899329"><ele>744.0</ele><time>2026-04-26T10:45:17Z</time></trkpt><trkpt lat="40.62548303040725" lon="16.092780043121547"><ele>744.0</ele><time>2026-04-26T10:45:18Z</time></trkpt><trkpt lat="40.62539477263729" lon="16.092827456631582"><ele>744.0</ele><time>2026-04-26T10:45:19Z</time></trkpt><trkpt lat="40.62531076905631" lon="16.09291367999041"><ele>744.0</ele><time>2026-04-26T10:45:20Z</time></trkpt><trkpt lat="40.62521607732436" lon="16.092987838917704"><ele>744.0</ele><time>2026-04-26T10:45:21Z</time></trkpt><trkpt lat="40.62510879779447" lon="16.093052342951246"><ele>743.75</ele><time>2026-04-26T10:45:22Z</time></trkpt><trkpt lat="40.62500511015797" lon="16.093123961200746"><ele>743.5</ele><time>2026-04-26T10:45:23Z</time></trkpt><trkpt lat="40.62491655800984" lon="16.093226293585985"><ele>743.25</ele><time>2026-04-26T10:45:24Z</time></trkpt><trkpt lat="40.6248423164958" lon="16.093344340291296"><ele>743.0</ele><time>2026-04-26T10:45:25Z</time></trkpt><trkpt lat="40.62476336692117" lon="16.09345433530809"><ele>743.0</ele><time>2026-04-26T10:45:26Z</time></trkpt><trkpt lat="40.62469289468734" lon="16.09359476834435"><ele>743.0</ele><time>2026-04-26T10:45:27Z</time></trkpt><trkpt lat="40.6246311802855" lon="16.093736210997537"><ele>743.0</ele><time>2026-04-26T10:45:28Z</time></trkpt><trkpt lat="40.62457937201428" lon="16.093891251477917"><ele>743.0</ele><time>2026-04-26T10:45:29Z</time></trkpt><trkpt lat="40.62453994815163" lon="16.09406080047615"><ele>745.0</ele><time>2026-04-26T10:45:30Z</time></trkpt><trkpt lat="40.62450493248077" lon="16.094225609363097"><ele>747.0</ele><time>2026-04-26T10:45:31Z</time></trkpt><trkpt lat="40.624475065362546" lon="16.09438974242764"><ele>749.0</ele><time>2026-04-26T10:45:32Z</time></trkpt><trkpt lat="40.62444691094649" lon="16.09457807546494"><ele>751.0</ele><time>2026-04-26T10:45:33Z</time></trkpt><trkpt lat="40.6244297408337" lon="16.094749939454204"><ele>751.0</ele><time>2026-04-26T10:45:34Z</time></trkpt><trkpt lat="40.62441372006276" lon="16.09490618982821"><ele>751.0</ele><time>2026-04-26T10:45:35Z</time></trkpt><trkpt lat="40.6243934154044" lon="16.09505674955631"><ele>751.0</ele><time>2026-04-26T10:45:36Z</time></trkpt><trkpt lat="40.624359827217326" lon="16.095207479093016"><ele>751.0</ele><time>2026-04-26T10:45:37Z</time></trkpt><trkpt lat="40.62430588315859" lon="16.095339500879057"><ele>749.5</ele><time>2026-04-26T10:45:38Z</time></trkpt><trkpt lat="40.62425020804913" lon="16.095488614393638"><ele>748.0</ele><time>2026-04-26T10:45:39Z</time></trkpt><trkpt lat="40.624180595897826" lon="16.095629984948232"><ele>746.5</ele><time>2026-04-26T10:45:40Z</time></trkpt><trkpt lat="40.624099609445224" lon="16.095777116110902"><ele>745.0</ele><time>2026-04-26T10:45:41Z</time></trkpt><trkpt lat="40.62401053842825" lon="16.095907793485363"><ele>744.5</ele><time>2026-04-26T10:45:42Z</time></trkpt><trkpt lat="40.62391163921942" lon="16.09603455111714"><ele>744.0</ele><time>2026-04-26T10:45:43Z</time></trkpt><trkpt lat="40.6238064496742" lon="16.09616096085169"><ele>743.5</ele><time>2026-04-26T10:45:44Z</time></trkpt><trkpt lat="40.6237040474418" lon="16.09626755584871"><ele>743.0</ele><time>2026-04-26T10:45:45Z</time></trkpt><trkpt lat="40.62360300529515" lon="16.096395700811396"><ele>743.0</ele><time>2026-04-26T10:45:46Z</time></trkpt><trkpt lat="40.62349534692289" lon="16.09653156942709"><ele>743.0</ele><time>2026-04-26T10:45:47Z</time></trkpt><trkpt lat="40.62339254977229" lon="16.096661303164264"><ele>743.0</ele><time>2026-04-26T10:45:48Z</time></trkpt><trkpt lat="40.62328974412606" lon="16.09679104748315"><ele>743.0</ele><time>2026-04-26T10:45:49Z</time></trkpt><trkpt lat="40.623188919975405" lon="16.09691829111004"><ele>742.0</ele><time>2026-04-26T10:45:50Z</time></trkpt><trkpt lat="40.62308749282848" lon="16.097046295742683"><ele>741.0</ele><time>2026-04-26T10:45:51Z</time></trkpt><trkpt lat="40.62298623486321" lon="16.0971740869592"><ele>740.0</ele><time>2026-04-26T10:45:52Z</time></trkpt><trkpt lat="40.6228881508743" lon="16.09729787227488"><ele>739.0</ele><time>2026-04-26T10:45:53Z</time></trkpt><trkpt lat="40.62278688844093" lon="16.09742729334748"><ele>739.0</ele><time>2026-04-26T10:45:54Z</time></trkpt><trkpt lat="40.62268915679794" lon="16.097553642353496"><ele>739.0</ele><time>2026-04-26T10:45:55Z</time></trkpt><trkpt lat="40.62257909894849" lon="16.097673911541182"><ele>739.0</ele><time>2026-04-26T10:45:56Z</time></trkpt><trkpt lat="40.622486433643736" lon="16.097821572237912"><ele>739.0</ele><time>2026-04-26T10:45:57Z</time></trkpt><trkpt lat="40.62240081381403" lon="16.09797822882051"><ele>739.0</ele><time>2026-04-26T10:45:58Z</time></trkpt><trkpt lat="40.62231722763964" lon="16.098139686635392"><ele>739.0</ele><time>2026-04-26T10:45:59Z</time></trkpt><trkpt lat="40.622232237205324" lon="16.098300809812724"><ele>739.0</ele><time>2026-04-26T10:46:00Z</time></trkpt><trkpt lat="40.62215259240524" lon="16.098468483961547"><ele>739.0</ele><time>2026-04-26T10:46:01Z</time></trkpt><trkpt lat="40.62207233701675" lon="16.09861986189418"><ele>737.5</ele><time>2026-04-26T10:46:02Z</time></trkpt><trkpt lat="40.62199737564298" lon="16.09875732480459"><ele>736.0</ele><time>2026-04-26T10:46:03Z</time></trkpt><trkpt lat="40.6219259492976" lon="16.098904999889417"><ele>734.5</ele><time>2026-04-26T10:46:04Z</time></trkpt><trkpt lat="40.62186263874202" lon="16.09905496899793"><ele>733.0</ele><time>2026-04-26T10:46:05Z</time></trkpt><trkpt lat="40.621812405734275" lon="16.099214851607893"><ele>732.25</ele><time>2026-04-26T10:46:06Z</time></trkpt><trkpt lat="40.62179403400632" lon="16.099389402159602"><ele>731.5</ele><time>2026-04-26T10:46:07Z</time></trkpt><trkpt lat="40.62180790659559" lon="16.099557966420484"><ele>730.75</ele><time>2026-04-26T10:46:08Z</time></trkpt><trkpt lat="40.62185410521261" lon="16.099725612194728"><ele>730.0</ele><time>2026-04-26T10:46:09Z</time></trkpt><trkpt lat="40.62188957171137" lon="16.099871636633054"><ele>730.2</ele><time>2026-04-26T10:46:10Z</time></trkpt><trkpt lat="40.62191757691187" lon="16.100014038544213"><ele>730.4</ele><time>2026-04-26T10:46:11Z</time></trkpt><trkpt lat="40.621946076155524" lon="16.100148806537913"><ele>730.5999999999999</ele><time>2026-04-26T10:46:12Z</time></trkpt><trkpt lat="40.62196761622695" lon="16.10028012929121"><ele>730.8</ele><time>2026-04-26T10:46:13Z</time></trkpt><trkpt lat="40.621998506440754" lon="16.100403747566304"><ele>731.0</ele><time>2026-04-26T10:46:14Z</time></trkpt><trkpt lat="40.62202341537014" lon="16.100520804329005"><ele>731.0</ele><time>2026-04-26T10:46:15Z</time></trkpt><trkpt lat="40.62204463439783" lon="16.100633756313076"><ele>731.0</ele><time>2026-04-26T10:46:16Z</time></trkpt><trkpt lat="40.62206420475554" lon="16.10074242408003"><ele>731.0</ele><time>2026-04-26T10:46:17Z</time></trkpt><trkpt lat="40.6220719980565" lon="16.10082843322959"><ele>731.0</ele><time>2026-04-26T10:46:18Z</time></trkpt><trkpt lat="40.62210654408668" lon="16.100910731446856"><ele>731.0</ele><time>2026-04-26T10:46:20Z</time></trkpt><trkpt lat="40.6219904713003" lon="16.100983991025828"><ele>731.0</ele><time>2026-04-26T10:46:21Z</time></trkpt><trkpt lat="40.62191963956239" lon="16.10103843129158"><ele>731.0</ele><time>2026-04-26T10:46:22Z</time></trkpt><trkpt lat="40.621844203722965" lon="16.10110728010402"><ele>731.0</ele><time>2026-04-26T10:46:23Z</time></trkpt><trkpt lat="40.62175905055885" lon="16.10117695020856"><ele>731.0</ele><time>2026-04-26T10:46:24Z</time></trkpt><trkpt lat="40.62165343045396" lon="16.101221194201983"><ele>731.0</ele><time>2026-04-26T10:46:25Z</time></trkpt><trkpt lat="40.62154355718054" lon="16.10126410884593"><ele>731.0</ele><time>2026-04-26T10:46:26Z</time></trkpt><trkpt lat="40.62143709981036" lon="16.101307280237585"><ele>731.0</ele><time>2026-04-26T10:46:27Z</time></trkpt><trkpt lat="40.62133240972364" lon="16.101330897745207"><ele>731.0</ele><time>2026-04-26T10:46:28Z</time></trkpt><trkpt lat="40.62122527670977" lon="16.101330014543667"><ele>731.0</ele><time>2026-04-26T10:46:29Z</time></trkpt><trkpt lat="40.62113243850488" lon="16.10134135998524"><ele>731.0</ele><time>2026-04-26T10:46:30Z</time></trkpt><trkpt lat="40.62102840360983" lon="16.101352509828935"><ele>731.0</ele><time>2026-04-26T10:46:31Z</time></trkpt><trkpt lat="40.62091742777281" lon="16.101353770941575"><ele>731.5999999999999</ele><time>2026-04-26T10:46:32Z</time></trkpt><trkpt lat="40.62081218372185" lon="16.101392913720566"><ele>732.2</ele><time>2026-04-26T10:46:33Z</time></trkpt><trkpt lat="40.62070661538576" lon="16.10147278975295"><ele>732.8</ele><time>2026-04-26T10:46:34Z</time></trkpt><trkpt lat="40.620609515151685" lon="16.10153836946003"><ele>733.4000000000001</ele><time>2026-04-26T10:46:35Z</time></trkpt><trkpt lat="40.62052018062694" lon="16.101605010983622"><ele>734.0</ele><time>2026-04-26T10:46:36Z</time></trkpt><trkpt lat="40.62044055950138" lon="16.10166700790364"><ele>731.6666666666666</ele><time>2026-04-26T10:46:37Z</time></trkpt><trkpt lat="40.62036505022115" lon="16.101718808530148"><ele>729.3333333333333</ele><time>2026-04-26T10:46:38Z</time></trkpt><trkpt lat="40.62029500485265" lon="16.101772240340246"><ele>727.0</ele><time>2026-04-26T10:46:39Z</time></trkpt><trkpt lat="40.620231789744246" lon="16.10182170622784"><ele>724.6666666666666</ele><time>2026-04-26T10:46:40Z</time></trkpt><trkpt lat="40.62016989411078" lon="16.1018641904366"><ele>722.3333333333334</ele><time>2026-04-26T10:46:41Z</time></trkpt><trkpt lat="40.62011218579938" lon="16.101916584876697"><ele>720.0</ele><time>2026-04-26T10:46:42Z</time></trkpt><trkpt lat="40.62004853100855" lon="16.10197641741002"><ele>720.0</ele><time>2026-04-26T10:46:43Z</time></trkpt><trkpt lat="40.61997628589858" lon="16.102033298329204"><ele>720.0</ele><time>2026-04-26T10:46:44Z</time></trkpt><trkpt lat="40.619917981997865" lon="16.10210058947549"><ele>720.0</ele><time>2026-04-26T10:46:45Z</time></trkpt><trkpt lat="40.61984771686783" lon="16.102169241597633"><ele>720.0</ele><time>2026-04-26T10:46:46Z</time></trkpt><trkpt lat="40.61977902563635" lon="16.10223685422705"><ele>720.0</ele><time>2026-04-26T10:46:47Z</time></trkpt><trkpt lat="40.619708035036275" lon="16.102327092997438"><ele>720.0</ele><time>2026-04-26T10:46:48Z</time></trkpt><trkpt lat="40.619626007309506" lon="16.102421957130108"><ele>719.2</ele><time>2026-04-26T10:46:49Z</time></trkpt><trkpt lat="40.61954292858757" lon="16.102521450166698"><ele>718.4</ele><time>2026-04-26T10:46:50Z</time></trkpt><trkpt lat="40.61945408619747" lon="16.102584263695622"><ele>717.5999999999999</ele><time>2026-04-26T10:46:51Z</time></trkpt><trkpt lat="40.61935812161627" lon="16.10266622919136"><ele>716.8</ele><time>2026-04-26T10:46:52Z</time></trkpt><trkpt lat="40.619261633380944" lon="16.10275358083592"><ele>716.0</ele><time>2026-04-26T10:46:53Z</time></trkpt><trkpt lat="40.61917782030617" lon="16.10283665676535"><ele>716.0</ele><time>2026-04-26T10:46:54Z</time></trkpt><trkpt lat="40.619085018449454" lon="16.10291723826953"><ele>716.0</ele><time>2026-04-26T10:46:55Z</time></trkpt><trkpt lat="40.61898919902571" lon="16.102985607727252"><ele>716.0</ele><time>2026-04-26T10:46:56Z</time></trkpt><trkpt lat="40.61888412015483" lon="16.103065118477563"><ele>716.0</ele><time>2026-04-26T10:46:57Z</time></trkpt><trkpt lat="40.618759456514844" lon="16.10314080182302"><ele>715.75</ele><time>2026-04-26T10:46:58Z</time></trkpt><trkpt lat="40.618625728050006" lon="16.10319716203157"><ele>715.5</ele><time>2026-04-26T10:46:59Z</time></trkpt><trkpt lat="40.61851387034779" lon="16.103255199786098"><ele>715.25</ele><time>2026-04-26T10:47:00Z</time></trkpt><trkpt lat="40.618400438997696" lon="16.103291794529664"><ele>715.0</ele><time>2026-04-26T10:47:01Z</time></trkpt><trkpt lat="40.61829371417256" lon="16.10334022423848"><ele>712.5</ele><time>2026-04-26T10:47:02Z</time></trkpt><trkpt lat="40.61817002045278" lon="16.10339078854376"><ele>710.0</ele><time>2026-04-26T10:47:03Z</time></trkpt><trkpt lat="40.61805686720154" lon="16.103429896475618"><ele>707.5</ele><time>2026-04-26T10:47:04Z</time></trkpt><trkpt lat="40.61794009828545" lon="16.103494117944056"><ele>705.0</ele><time>2026-04-26T10:47:05Z</time></trkpt><trkpt lat="40.617828994991726" lon="16.103519929256688"><ele>704.3333333333334</ele><time>2026-04-26T10:47:06Z</time></trkpt><trkpt lat="40.617728990559996" lon="16.10351073250902"><ele>703.6666666666666</ele><time>2026-04-26T10:47:07Z</time></trkpt><trkpt lat="40.61763663150656" lon="16.103506119376167"><ele>703.0</ele><time>2026-04-26T10:47:08Z</time></trkpt><trkpt lat="40.61754404408639" lon="16.10348245890099"><ele>702.3333333333333</ele><time>2026-04-26T10:47:09Z</time></trkpt><trkpt lat="40.61747086835378" lon="16.103444870879603"><ele>701.6666666666666</ele><time>2026-04-26T10:47:10Z</time></trkpt><trkpt lat="40.61739282727979" lon="16.1034246715857"><ele>701.0</ele><time>2026-04-26T10:47:11Z</time></trkpt><trkpt lat="40.61730414258909" lon="16.10340128547118"><ele>701.0</ele><time>2026-04-26T10:47:12Z</time></trkpt><trkpt lat="40.61720223034843" lon="16.10336863589064"><ele>701.0</ele><time>2026-04-26T10:47:13Z</time></trkpt><trkpt lat="40.617102122907006" lon="16.10332597079116"><ele>701.0</ele><time>2026-04-26T10:47:14Z</time></trkpt><trkpt lat="40.61699815859835" lon="16.10330788045104"><ele>701.0</ele><time>2026-04-26T10:47:15Z</time></trkpt><trkpt lat="40.616900394691484" lon="16.103297608974763"><ele>701.0</ele><time>2026-04-26T10:47:16Z</time></trkpt><trkpt lat="40.61679296499489" lon="16.103303747244606"><ele>699.0</ele><time>2026-04-26T10:47:17Z</time></trkpt><trkpt lat="40.616693314236045" lon="16.103319927250507"><ele>697.0</ele><time>2026-04-26T10:47:18Z</time></trkpt><trkpt lat="40.616583665603756" lon="16.10335653889415"><ele>695.0</ele><time>2026-04-26T10:47:19Z</time></trkpt><trkpt lat="40.6164687014819" lon="16.10338603916135"><ele>693.0</ele><time>2026-04-26T10:47:20Z</time></trkpt><trkpt lat="40.61635282517642" lon="16.103426246578085"><ele>693.0</ele><time>2026-04-26T10:47:21Z</time></trkpt><trkpt lat="40.61624687477517" lon="16.103463892531153"><ele>693.0</ele><time>2026-04-26T10:47:22Z</time></trkpt><trkpt lat="40.61615650827252" lon="16.103521360922446"><ele>693.0</ele><time>2026-04-26T10:47:23Z</time></trkpt><trkpt lat="40.6160783935723" lon="16.103555289002372"><ele>693.0</ele><time>2026-04-26T10:47:24Z</time></trkpt><trkpt lat="40.61598803800999" lon="16.103583229278478"><ele>693.0</ele><time>2026-04-26T10:47:25Z</time></trkpt><trkpt lat="40.615898909754506" lon="16.103618600635734"><ele>691.4</ele><time>2026-04-26T10:47:26Z</time></trkpt><trkpt lat="40.61581098718819" lon="16.103675648323883"><ele>689.8</ele><time>2026-04-26T10:47:27Z</time></trkpt><trkpt lat="40.615725936003884" lon="16.10373590465007"><ele>688.2</ele><time>2026-04-26T10:47:28Z</time></trkpt><trkpt lat="40.61562746667833" lon="16.10380224315076"><ele>686.6</ele><time>2026-04-26T10:47:29Z</time></trkpt><trkpt lat="40.615526834260436" lon="16.1038900786867"><ele>685.0</ele><time>2026-04-26T10:47:30Z</time></trkpt><trkpt lat="40.61542364380406" lon="16.103971061660957"><ele>683.75</ele><time>2026-04-26T10:47:31Z</time></trkpt><trkpt lat="40.615314101601996" lon="16.10404309785057"><ele>682.5</ele><time>2026-04-26T10:47:32Z</time></trkpt><trkpt lat="40.615200582501686" lon="16.104104241199835"><ele>681.25</ele><time>2026-04-26T10:47:33Z</time></trkpt><trkpt lat="40.615092504518955" lon="16.10412824009898"><ele>680.0</ele><time>2026-04-26T10:47:34Z</time></trkpt><trkpt lat="40.61500050355618" lon="16.104186215939833"><ele>680.0</ele><time>2026-04-26T10:47:35Z</time></trkpt><trkpt lat="40.61491806470429" lon="16.10424274784354"><ele>680.0</ele><time>2026-04-26T10:47:36Z</time></trkpt><trkpt lat="40.614854127028735" lon="16.1042963678387"><ele>680.0</ele><time>2026-04-26T10:47:37Z</time></trkpt><trkpt lat="40.6147711927981" lon="16.104391304709782"><ele>680.0</ele><time>2026-04-26T10:47:39Z</time></trkpt><trkpt lat="40.614694331715405" lon="16.104529603778747"><ele>680.0</ele><time>2026-04-26T10:47:41Z</time></trkpt><trkpt lat="40.61464149166466" lon="16.10461985850642"><ele>680.0</ele><time>2026-04-26T10:47:42Z</time></trkpt><trkpt lat="40.61458989866472" lon="16.104707983154945"><ele>680.0</ele><time>2026-04-26T10:47:43Z</time></trkpt><trkpt lat="40.61454698140732" lon="16.104781289045757"><ele>680.0</ele><time>2026-04-26T10:47:44Z</time></trkpt><trkpt lat="40.61450500018459" lon="16.10485348261696"><ele>680.0</ele><time>2026-04-26T10:47:45Z</time></trkpt><trkpt lat="40.61444460831875" lon="16.104951251727666"><ele>680.0</ele><time>2026-04-26T10:47:47Z</time></trkpt><trkpt lat="40.614386981675246" lon="16.105040056081698"><ele>680.0</ele><time>2026-04-26T10:47:49Z</time></trkpt><trkpt lat="40.61434299524752" lon="16.10511910218101"><ele>678.6</ele><time>2026-04-26T10:47:51Z</time></trkpt><trkpt lat="40.61426853140625" lon="16.105253421575245"><ele>677.2</ele><time>2026-04-26T10:47:53Z</time></trkpt><trkpt lat="40.61422639528202" lon="16.105329614557"><ele>675.8</ele><time>2026-04-26T10:47:54Z</time></trkpt><trkpt lat="40.614146703833555" lon="16.105471252207675"><ele>674.4</ele><time>2026-04-26T10:47:56Z</time></trkpt><trkpt lat="40.61409477600354" lon="16.105558748950944"><ele>673.0</ele><time>2026-04-26T10:47:57Z</time></trkpt><trkpt lat="40.614053722100316" lon="16.105627923404022"><ele>673.0</ele><time>2026-04-26T10:47:58Z</time></trkpt><trkpt lat="40.6140122566068" lon="16.105697791496002"><ele>673.0</ele><time>2026-04-26T10:47:59Z</time></trkpt><trkpt lat="40.613969531760226" lon="16.105769781603765"><ele>673.0</ele><time>2026-04-26T10:48:00Z</time></trkpt><trkpt lat="40.613927764026485" lon="16.105840110182026"><ele>673.0</ele><time>2026-04-26T10:48:01Z</time></trkpt><trkpt lat="40.61386077174601" lon="16.105955140592613"><ele>673.0</ele><time>2026-04-26T10:48:03Z</time></trkpt><trkpt lat="40.61379088939703" lon="16.106072776925128"><ele>673.0</ele><time>2026-04-26T10:48:05Z</time></trkpt><trkpt lat="40.61374588447913" lon="16.10614517101154"><ele>672.0</ele><time>2026-04-26T10:48:06Z</time></trkpt><trkpt lat="40.61370399534536" lon="16.106207875494835"><ele>671.0</ele><time>2026-04-26T10:48:07Z</time></trkpt><trkpt lat="40.613645635020504" lon="16.106279918862008"><ele>670.0</ele><time>2026-04-26T10:48:09Z</time></trkpt><trkpt lat="40.61356002532038" lon="16.106322939015467"><ele>669.0</ele><time>2026-04-26T10:48:12Z</time></trkpt><trkpt lat="40.61350387346069" lon="16.10638100882536"><ele>668.0</ele><time>2026-04-26T10:48:13Z</time></trkpt><trkpt lat="40.613431950557754" lon="16.10643587705173"><ele>667.0</ele><time>2026-04-26T10:48:17Z</time></trkpt><trkpt lat="40.613450775548515" lon="16.106516500007405"><ele>665.0</ele><time>2026-04-26T10:48:20Z</time></trkpt><trkpt lat="40.613418637779304" lon="16.106610163347653"><ele>663.0</ele><time>2026-04-26T10:48:22Z</time></trkpt><trkpt lat="40.61340022380206" lon="16.106737384862754"><ele>661.0</ele><time>2026-04-26T10:48:25Z</time></trkpt><trkpt lat="40.6134204307076" lon="16.10682079991235"><ele>659.0</ele><time>2026-04-26T10:48:30Z</time></trkpt><trkpt lat="40.61311111317767" lon="16.10677764834647"><ele>659.0</ele><time>2026-04-26T10:48:31Z</time></trkpt><trkpt lat="40.613046179737566" lon="16.10682150504581"><ele>659.0</ele><time>2026-04-26T10:48:34Z</time></trkpt><trkpt lat="40.61303114591676" lon="16.10690485388143"><ele>659.0</ele><time>2026-04-26T10:48:35Z</time></trkpt><trkpt lat="40.61299274147476" lon="16.10697234117144"><ele>659.0</ele><time>2026-04-26T10:48:40Z</time></trkpt><trkpt lat="40.61301124691999" lon="16.107060745672293"><ele>659.0</ele><time>2026-04-26T10:48:44Z</time></trkpt><trkpt lat="40.61302619385193" lon="16.10715022164219"><ele>659.0</ele><time>2026-04-26T10:48:49Z</time></trkpt><trkpt lat="40.61298458812006" lon="16.10705446335926"><ele>659.0</ele><time>2026-04-26T10:48:53Z</time></trkpt><trkpt lat="40.6129407853112" lon="16.10698384473644"><ele>659.0</ele><time>2026-04-26T10:48:57Z</time></trkpt><trkpt lat="40.612887488060295" lon="16.10703373494032"><ele>659.0</ele><time>2026-04-26T10:49:01Z</time></trkpt><trkpt lat="40.612956112859656" lon="16.10709705154186"><ele>659.0</ele><time>2026-04-26T10:49:13Z</time></trkpt><trkpt lat="40.61295627512609" lon="16.10699054390611"><ele>659.0</ele><time>2026-04-26T10:49:29Z</time></trkpt><trkpt lat="40.6129669281616" lon="16.106902072236895"><ele>659.0</ele><time>2026-04-26T10:49:31Z</time></trkpt><trkpt lat="40.61292134695909" lon="16.106804112241726"><ele>659.0</ele><time>2026-04-26T10:49:39Z</time></trkpt><trkpt lat="40.61295508605933" lon="16.10671386761062"><ele>659.0</ele><time>2026-04-26T10:49:50Z</time></trkpt><trkpt lat="40.612913540296134" lon="16.106642665581383"><ele>659.0</ele><time>2026-04-26T10:50:02Z</time></trkpt><trkpt lat="40.61285545030442" lon="16.10669172989958"><ele>659.0</ele><time>2026-04-26T10:50:05Z</time></trkpt><trkpt lat="40.612794713762625" lon="16.10679975113124"><ele>659.0</ele><time>2026-04-26T10:50:07Z</time></trkpt><trkpt lat="40.61278764412729" lon="16.106900424788243"><ele>659.0</ele><time>2026-04-26T10:50:08Z</time></trkpt><trkpt lat="40.61279658753625" lon="16.10717522468579"><ele>657.0</ele><time>2026-04-26T10:50:15Z</time></trkpt><trkpt lat="40.6127713608882" lon="16.107282426692677"><ele>655.0</ele><time>2026-04-26T10:50:16Z</time></trkpt><trkpt lat="40.61283932566774" lon="16.10743755534973"><ele>653.0</ele><time>2026-04-26T10:50:17Z</time></trkpt><trkpt lat="40.61288217822082" lon="16.107568797597292"><ele>651.0</ele><time>2026-04-26T10:50:18Z</time></trkpt><trkpt lat="40.61287608529852" lon="16.107681597727783"><ele>649.0</ele><time>2026-04-26T10:50:19Z</time></trkpt><trkpt lat="40.61285160598646" lon="16.10779930010683"><ele>646.6</ele><time>2026-04-26T10:50:20Z</time></trkpt><trkpt lat="40.612822221095115" lon="16.107917921839928"><ele>644.2</ele><time>2026-04-26T10:50:21Z</time></trkpt><trkpt lat="40.61278298266625" lon="16.108040556422583"><ele>641.8000000000001</ele><time>2026-04-26T10:50:22Z</time></trkpt><trkpt lat="40.61273409113275" lon="16.108164329498038"><ele>639.4000000000001</ele><time>2026-04-26T10:50:23Z</time></trkpt><trkpt lat="40.612677050289086" lon="16.108274583628234"><ele>637.0</ele><time>2026-04-26T10:50:24Z</time></trkpt><trkpt lat="40.612618961790794" lon="16.10837165348558"><ele>635.4</ele><time>2026-04-26T10:50:25Z</time></trkpt><trkpt lat="40.61256903819864" lon="16.10847559985034"><ele>633.8000000000001</ele><time>2026-04-26T10:50:26Z</time></trkpt><trkpt lat="40.61251807265555" lon="16.108581123352067"><ele>632.2</ele><time>2026-04-26T10:50:27Z</time></trkpt><trkpt lat="40.61246400582611" lon="16.108684110241473"><ele>630.6</ele><time>2026-04-26T10:50:28Z</time></trkpt><trkpt lat="40.612404938657846" lon="16.108788202189572"><ele>629.0</ele><time>2026-04-26T10:50:29Z</time></trkpt><trkpt lat="40.61233642454604" lon="16.108893664019337"><ele>629.0</ele><time>2026-04-26T10:50:30Z</time></trkpt><trkpt lat="40.61226459106671" lon="16.108997858250316"><ele>629.0</ele><time>2026-04-26T10:50:31Z</time></trkpt><trkpt lat="40.612187790152085" lon="16.109104617553236"><ele>629.0</ele><time>2026-04-26T10:50:32Z</time></trkpt><trkpt lat="40.612115364040456" lon="16.1092233446358"><ele>629.0</ele><time>2026-04-26T10:50:33Z</time></trkpt><trkpt lat="40.6120438128517" lon="16.10932289978984"><ele>629.0</ele><time>2026-04-26T10:50:34Z</time></trkpt><trkpt lat="40.61198126852956" lon="16.109425855341506"><ele>625.6</ele><time>2026-04-26T10:50:35Z</time></trkpt><trkpt lat="40.61192628516902" lon="16.109525368382048"><ele>622.2</ele><time>2026-04-26T10:50:36Z</time></trkpt><trkpt lat="40.611869076785844" lon="16.109627356550625"><ele>618.8000000000001</ele><time>2026-04-26T10:50:37Z</time></trkpt><trkpt lat="40.61180061936407" lon="16.10972771679517"><ele>615.4</ele><time>2026-04-26T10:50:38Z</time></trkpt><trkpt lat="40.61173947070628" lon="16.109851447704337"><ele>612.0</ele><time>2026-04-26T10:50:39Z</time></trkpt><trkpt lat="40.61168274947355" lon="16.109990877503396"><ele>611.6</ele><time>2026-04-26T10:50:40Z</time></trkpt><trkpt lat="40.61163639138849" lon="16.110131391211567"><ele>611.2</ele><time>2026-04-26T10:50:41Z</time></trkpt><trkpt lat="40.611584365649726" lon="16.11025151724341"><ele>610.8</ele><time>2026-04-26T10:50:42Z</time></trkpt><trkpt lat="40.61153216976359" lon="16.110363348232084"><ele>610.4</ele><time>2026-04-26T10:50:43Z</time></trkpt><trkpt lat="40.6114613363599" lon="16.110470970088524"><ele>610.0</ele><time>2026-04-26T10:50:44Z</time></trkpt><trkpt lat="40.6113802559358" lon="16.110585142132223"><ele>610.0</ele><time>2026-04-26T10:50:45Z</time></trkpt><trkpt lat="40.61129769946935" lon="16.110681595213347"><ele>610.0</ele><time>2026-04-26T10:50:46Z</time></trkpt><trkpt lat="40.611215497365585" lon="16.1107559007797"><ele>610.0</ele><time>2026-04-26T10:50:47Z</time></trkpt><trkpt lat="40.61113196861041" lon="16.110855592356206"><ele>610.0</ele><time>2026-04-26T10:50:48Z</time></trkpt><trkpt lat="40.61107495948242" lon="16.110934973557434"><ele>610.0</ele><time>2026-04-26T10:50:49Z</time></trkpt><trkpt lat="40.611017415815596" lon="16.111013959943744"><ele>607.8</ele><time>2026-04-26T10:50:50Z</time></trkpt><trkpt lat="40.61093775229353" lon="16.11107360213299"><ele>605.6</ele><time>2026-04-26T10:50:51Z</time></trkpt><trkpt lat="40.61085958939316" lon="16.111128291313065"><ele>603.4</ele><time>2026-04-26T10:50:52Z</time></trkpt><trkpt lat="40.610778460030964" lon="16.111171245554015"><ele>601.2</ele><time>2026-04-26T10:50:53Z</time></trkpt><trkpt lat="40.61069061298802" lon="16.111255373728586"><ele>599.0</ele><time>2026-04-26T10:50:54Z</time></trkpt><trkpt lat="40.61058554767545" lon="16.111320429666378"><ele>599.0</ele><time>2026-04-26T10:50:55Z</time></trkpt><trkpt lat="40.6104732439994" lon="16.111377569332994"><ele>599.0</ele><time>2026-04-26T10:50:56Z</time></trkpt><trkpt lat="40.61036441866567" lon="16.11143307288777"><ele>599.0</ele><time>2026-04-26T10:50:57Z</time></trkpt><trkpt lat="40.61025470075703" lon="16.111481830601637"><ele>599.0</ele><time>2026-04-26T10:50:58Z</time></trkpt><trkpt lat="40.610148970622575" lon="16.111528612098365"><ele>597.6</ele><time>2026-04-26T10:50:59Z</time></trkpt><trkpt lat="40.6100466363582" lon="16.111594604885052"><ele>596.2</ele><time>2026-04-26T10:51:00Z</time></trkpt><trkpt lat="40.60995982415299" lon="16.111647340649874"><ele>594.8000000000001</ele><time>2026-04-26T10:51:01Z</time></trkpt><trkpt lat="40.60988180024479" lon="16.111690425802575"><ele>593.4</ele><time>2026-04-26T10:51:02Z</time></trkpt><trkpt lat="40.609814620169836" lon="16.11175253694656"><ele>592.0</ele><time>2026-04-26T10:51:03Z</time></trkpt><trkpt lat="40.60976988347628" lon="16.111849164439082"><ele>592.0</ele><time>2026-04-26T10:51:04Z</time></trkpt><trkpt lat="40.60974769777545" lon="16.111960988206768"><ele>592.0</ele><time>2026-04-26T10:51:05Z</time></trkpt><trkpt lat="40.609713656331" lon="16.112059850878413"><ele>592.0</ele><time>2026-04-26T10:51:06Z</time></trkpt><trkpt lat="40.609597136646805" lon="16.11215115312216"><ele>592.0</ele><time>2026-04-26T10:51:08Z</time></trkpt><trkpt lat="40.60951602688232" lon="16.11214768934035"><ele>592.0</ele><time>2026-04-26T10:51:09Z</time></trkpt><trkpt lat="40.609420341150376" lon="16.1121831586083"><ele>590.5</ele><time>2026-04-26T10:51:10Z</time></trkpt><trkpt lat="40.60932943985421" lon="16.11221796563194"><ele>589.0</ele><time>2026-04-26T10:51:11Z</time></trkpt><trkpt lat="40.609264834384334" lon="16.112293158377316"><ele>587.5</ele><time>2026-04-26T10:51:12Z</time></trkpt><trkpt lat="40.60918304754931" lon="16.112367715458227"><ele>586.0</ele><time>2026-04-26T10:51:13Z</time></trkpt><trkpt lat="40.6091129231631" lon="16.112441445584814"><ele>584.5</ele><time>2026-04-26T10:51:14Z</time></trkpt><trkpt lat="40.609058829989394" lon="16.11251542368947"><ele>583.0</ele><time>2026-04-26T10:51:15Z</time></trkpt><trkpt lat="40.609002348817285" lon="16.112595076247853"><ele>581.8</ele><time>2026-04-26T10:51:16Z</time></trkpt><trkpt lat="40.60893468901752" lon="16.112681968428202"><ele>580.5999999999999</ele><time>2026-04-26T10:51:17Z</time></trkpt><trkpt lat="40.608860936743326" lon="16.112771128246518"><ele>579.4000000000001</ele><time>2026-04-26T10:51:18Z</time></trkpt><trkpt lat="40.60877201855995" lon="16.112857078482698"><ele>578.2</ele><time>2026-04-26T10:51:19Z</time></trkpt><trkpt lat="40.60866955402823" lon="16.11291834777852"><ele>577.0</ele><time>2026-04-26T10:51:20Z</time></trkpt><trkpt lat="40.60856482544621" lon="16.112982407052684"><ele>576.25</ele><time>2026-04-26T10:51:21Z</time></trkpt><trkpt lat="40.60846223569285" lon="16.11305285979726"><ele>575.5</ele><time>2026-04-26T10:51:22Z</time></trkpt><trkpt lat="40.60836029462173" lon="16.113128112692873"><ele>574.75</ele><time>2026-04-26T10:51:23Z</time></trkpt><trkpt lat="40.60825273230482" lon="16.113206635829542"><ele>574.0</ele><time>2026-04-26T10:51:24Z</time></trkpt><trkpt lat="40.60814297232383" lon="16.113279350881736"><ele>573.0</ele><time>2026-04-26T10:51:25Z</time></trkpt><trkpt lat="40.60802416850615" lon="16.11335015973209"><ele>572.0</ele><time>2026-04-26T10:51:26Z</time></trkpt><trkpt lat="40.6079026584497" lon="16.113406081944085"><ele>571.0</ele><time>2026-04-26T10:51:27Z</time></trkpt><trkpt lat="40.60778017745132" lon="16.113456721049754"><ele>570.0</ele><time>2026-04-26T10:51:28Z</time></trkpt><trkpt lat="40.60766582208519" lon="16.11352556519802"><ele>569.5</ele><time>2026-04-26T10:51:29Z</time></trkpt><trkpt lat="40.60755162470537" lon="16.113598308351307"><ele>569.0</ele><time>2026-04-26T10:51:30Z</time></trkpt><trkpt lat="40.60743700311696" lon="16.113664151925683"><ele>568.5</ele><time>2026-04-26T10:51:31Z</time></trkpt><trkpt lat="40.607321230546674" lon="16.11373865902715"><ele>568.0</ele><time>2026-04-26T10:51:32Z</time></trkpt><trkpt lat="40.60720209231935" lon="16.113811858209566"><ele>568.0</ele><time>2026-04-26T10:51:33Z</time></trkpt><trkpt lat="40.607094424158824" lon="16.11387523867902"><ele>568.0</ele><time>2026-04-26T10:51:34Z</time></trkpt><trkpt lat="40.60699722441365" lon="16.113940983429284"><ele>568.0</ele><time>2026-04-26T10:51:35Z</time></trkpt><trkpt lat="40.6068852241771" lon="16.1139945344196"><ele>568.0</ele><time>2026-04-26T10:51:36Z</time></trkpt><trkpt lat="40.60677189835075" lon="16.114049907450138"><ele>566.75</ele><time>2026-04-26T10:51:37Z</time></trkpt><trkpt lat="40.60665553935306" lon="16.114102291629358"><ele>565.5</ele><time>2026-04-26T10:51:38Z</time></trkpt><trkpt lat="40.60653033876403" lon="16.114162187562727"><ele>564.25</ele><time>2026-04-26T10:51:39Z</time></trkpt><trkpt lat="40.60640146322371" lon="16.11422203445272"><ele>563.0</ele><time>2026-04-26T10:51:40Z</time></trkpt><trkpt lat="40.60626803160615" lon="16.11426818645906"><ele>561.25</ele><time>2026-04-26T10:51:41Z</time></trkpt><trkpt lat="40.606127084844026" lon="16.114298853669634"><ele>559.5</ele><time>2026-04-26T10:51:42Z</time></trkpt><trkpt lat="40.60598327359324" lon="16.114350405527933"><ele>557.75</ele><time>2026-04-26T10:51:43Z</time></trkpt><trkpt lat="40.60585428916236" lon="16.11438619584954"><ele>556.0</ele><time>2026-04-26T10:51:44Z</time></trkpt><trkpt lat="40.60573891840098" lon="16.114421576246592"><ele>556.0</ele><time>2026-04-26T10:51:45Z</time></trkpt><trkpt lat="40.60563076916494" lon="16.114452827152938"><ele>556.0</ele><time>2026-04-26T10:51:46Z</time></trkpt><trkpt lat="40.60552959351572" lon="16.114488082752683"><ele>556.0</ele><time>2026-04-26T10:51:47Z</time></trkpt><trkpt lat="40.60543165479623" lon="16.114511125259096"><ele>556.0</ele><time>2026-04-26T10:51:48Z</time></trkpt><trkpt lat="40.605336429204996" lon="16.114534754731295"><ele>556.0</ele><time>2026-04-26T10:51:49Z</time></trkpt><trkpt lat="40.605239854319" lon="16.114536038771398"><ele>555.3333333333334</ele><time>2026-04-26T10:51:50Z</time></trkpt><trkpt lat="40.605166191728" lon="16.114529105827526"><ele>554.6666666666667</ele><time>2026-04-26T10:51:51Z</time></trkpt><trkpt lat="40.60508320928721" lon="16.114503322559013"><ele>554.0</ele><time>2026-04-26T10:51:53Z</time></trkpt><trkpt lat="40.605011923267966" lon="16.114479020383463"><ele>553.3333333333334</ele><time>2026-04-26T10:51:55Z</time></trkpt><trkpt lat="40.60493076813943" lon="16.114452417365225"><ele>552.6666666666666</ele><time>2026-04-26T10:51:57Z</time></trkpt><trkpt lat="40.60481819659175" lon="16.11441643142531"><ele>552.0</ele><time>2026-04-26T10:52:00Z</time></trkpt><trkpt lat="40.60474891393559" lon="16.114395032649764"><ele>552.0</ele><time>2026-04-26T10:52:02Z</time></trkpt><trkpt lat="40.60470761151963" lon="16.11454576266411"><ele>552.0</ele><time>2026-04-26T10:52:03Z</time></trkpt><trkpt lat="40.604636915597304" lon="16.114590735208424"><ele>552.0</ele><time>2026-04-26T10:52:06Z</time></trkpt><trkpt lat="40.60452242787038" lon="16.114578525207463"><ele>552.0</ele><time>2026-04-26T10:52:09Z</time></trkpt><trkpt lat="40.60444810139689" lon="16.114543835838063"><ele>552.0</ele><time>2026-04-26T10:52:13Z</time></trkpt><trkpt lat="40.60439367429225" lon="16.114493805685463"><ele>551.2</ele><time>2026-04-26T10:52:15Z</time></trkpt><trkpt lat="40.604310839445866" lon="16.114466763550244"><ele>550.4000000000001</ele><time>2026-04-26T10:52:17Z</time></trkpt><trkpt lat="40.604229108091275" lon="16.11444547163471"><ele>549.5999999999999</ele><time>2026-04-26T10:52:19Z</time></trkpt><trkpt lat="40.60413545028654" lon="16.114432806119275"><ele>548.8</ele><time>2026-04-26T10:52:21Z</time></trkpt><trkpt lat="40.604056820224066" lon="16.11440605300665"><ele>548.0</ele><time>2026-04-26T10:52:22Z</time></trkpt><trkpt lat="40.603965405117684" lon="16.114316022883095"><ele>548.0</ele><time>2026-04-26T10:52:24Z</time></trkpt><trkpt lat="40.60388905552898" lon="16.114268083831"><ele>548.0</ele><time>2026-04-26T10:52:26Z</time></trkpt><trkpt lat="40.60380004540324" lon="16.114247051418783"><ele>548.0</ele><time>2026-04-26T10:52:29Z</time></trkpt><trkpt lat="40.60371359948347" lon="16.114230831041514"><ele>548.0</ele><time>2026-04-26T10:52:31Z</time></trkpt><trkpt lat="40.60358188812725" lon="16.11422362238984"><ele>548.0</ele><time>2026-04-26T10:52:33Z</time></trkpt><trkpt lat="40.60351080350067" lon="16.114229012933187"><ele>548.1999999999999</ele><time>2026-04-26T10:52:35Z</time></trkpt><trkpt lat="40.60344439651382" lon="16.11422605920102"><ele>548.4</ele><time>2026-04-26T10:52:38Z</time></trkpt><trkpt lat="40.60336513879178" lon="16.11418329941425"><ele>548.5999999999999</ele><time>2026-04-26T10:52:41Z</time></trkpt><trkpt lat="40.60326526965514" lon="16.11421320114737"><ele>548.8</ele><time>2026-04-26T10:52:43Z</time></trkpt><trkpt lat="40.603185431256826" lon="16.114318203752344"><ele>549.0</ele><time>2026-04-26T10:52:45Z</time></trkpt><trkpt lat="40.60308172731173" lon="16.114366611049597"><ele>549.0</ele><time>2026-04-26T10:52:47Z</time></trkpt><trkpt lat="40.60301795151415" lon="16.114410095578425"><ele>549.0</ele><time>2026-04-26T10:52:48Z</time></trkpt><trkpt lat="40.60291351706465" lon="16.114495878250256"><ele>549.0</ele><time>2026-04-26T10:52:50Z</time></trkpt><trkpt lat="40.602819499417485" lon="16.114535219634195"><ele>549.0</ele><time>2026-04-26T10:52:52Z</time></trkpt><trkpt lat="40.602713897740216" lon="16.114548696448637"><ele>549.0</ele><time>2026-04-26T10:52:54Z</time></trkpt><trkpt lat="40.60264709235712" lon="16.114646800464875"><ele>548.4</ele><time>2026-04-26T10:52:56Z</time></trkpt><trkpt lat="40.602563953896976" lon="16.11463686667529"><ele>547.8</ele><time>2026-04-26T10:52:59Z</time></trkpt><trkpt lat="40.60248381668925" lon="16.11464300814674"><ele>547.2</ele><time>2026-04-26T10:53:01Z</time></trkpt><trkpt lat="40.60237490780034" lon="16.11464697217498"><ele>546.6</ele><time>2026-04-26T10:53:03Z</time></trkpt><trkpt lat="40.602288030317595" lon="16.114653345993343"><ele>546.0</ele><time>2026-04-26T10:53:05Z</time></trkpt><trkpt lat="40.60221075303909" lon="16.114742521287553"><ele>546.0</ele><time>2026-04-26T10:53:07Z</time></trkpt><trkpt lat="40.60214880665084" lon="16.114787008566996"><ele>546.0</ele><time>2026-04-26T10:53:08Z</time></trkpt><trkpt lat="40.602068287845526" lon="16.114834520673597"><ele>546.0</ele><time>2026-04-26T10:53:09Z</time></trkpt><trkpt lat="40.602002993917324" lon="16.114847569056256"><ele>546.0</ele><time>2026-04-26T10:53:10Z</time></trkpt><trkpt lat="40.60191440671677" lon="16.11485455466529"><ele>546.0</ele><time>2026-04-26T10:53:12Z</time></trkpt><trkpt lat="40.601832320717804" lon="16.114930478429397"><ele>546.0</ele><time>2026-04-26T10:53:14Z</time></trkpt><trkpt lat="40.601792687803645" lon="16.115004606588077"><ele>548.2</ele><time>2026-04-26T10:53:15Z</time></trkpt><trkpt lat="40.601738086844726" lon="16.115070692907704"><ele>550.4000000000001</ele><time>2026-04-26T10:53:17Z</time></trkpt><trkpt lat="40.60160881334851" lon="16.115120549899252"><ele>552.6</ele><time>2026-04-26T10:53:20Z</time></trkpt><trkpt lat="40.60150956798633" lon="16.11514419524109"><ele>554.8000000000001</ele><time>2026-04-26T10:53:22Z</time></trkpt><trkpt lat="40.60143538997866" lon="16.115186958827728"><ele>557.0</ele><time>2026-04-26T10:53:23Z</time></trkpt><trkpt lat="40.60132054573104" lon="16.115192820709144"><ele>557.0</ele><time>2026-04-26T10:53:25Z</time></trkpt><trkpt lat="40.60123824609188" lon="16.115302308752156"><ele>557.0</ele><time>2026-04-26T10:53:27Z</time></trkpt><trkpt lat="40.60114814887309" lon="16.11532208907929"><ele>557.0</ele><time>2026-04-26T10:53:29Z</time></trkpt><trkpt lat="40.60106025612232" lon="16.115379914799984"><ele>557.0</ele><time>2026-04-26T10:53:31Z</time></trkpt><trkpt lat="40.601033907051644" lon="16.11546150609668"><ele>557.0</ele><time>2026-04-26T10:53:32Z</time></trkpt><trkpt lat="40.600941882983776" lon="16.11556019654968"><ele>554.6666666666666</ele><time>2026-04-26T10:53:34Z</time></trkpt><trkpt lat="40.600892512911884" lon="16.115615697130647"><ele>552.3333333333333</ele><time>2026-04-26T10:53:35Z</time></trkpt><trkpt lat="40.60085102903224" lon="16.115687581499788"><ele>550.0</ele><time>2026-04-26T10:53:36Z</time></trkpt><trkpt lat="40.60078751348465" lon="16.115819115360253"><ele>547.6666666666666</ele><time>2026-04-26T10:53:38Z</time></trkpt><trkpt lat="40.60077597251024" lon="16.115906548020696"><ele>545.3333333333334</ele><time>2026-04-26T10:53:39Z</time></trkpt><trkpt lat="40.600718776389094" lon="16.115990440354008"><ele>543.0</ele><time>2026-04-26T10:53:41Z</time></trkpt><trkpt lat="40.60068535279528" lon="16.11606740220721"><ele>543.0</ele><time>2026-04-26T10:53:42Z</time></trkpt><trkpt lat="40.60060860929833" lon="16.116156142864966"><ele>543.0</ele><time>2026-04-26T10:53:45Z</time></trkpt><trkpt lat="40.600586706982796" lon="16.116234347078276"><ele>543.0</ele><time>2026-04-26T10:53:46Z</time></trkpt><trkpt lat="40.60052591694613" lon="16.116344682288076"><ele>543.0</ele><time>2026-04-26T10:53:48Z</time></trkpt><trkpt lat="40.600488711109975" lon="16.11641332452604"><ele>543.0</ele><time>2026-04-26T10:53:49Z</time></trkpt><trkpt lat="40.60043976918566" lon="16.116475736945006"><ele>543.0</ele><time>2026-04-26T10:53:50Z</time></trkpt><trkpt lat="40.60041244903639" lon="16.116564705825635"><ele>541.4</ele><time>2026-04-26T10:53:51Z</time></trkpt><trkpt lat="40.60035602289124" lon="16.11665792165204"><ele>539.8</ele><time>2026-04-26T10:53:53Z</time></trkpt><trkpt lat="40.60031155173676" lon="16.116727731598743"><ele>538.2</ele><time>2026-04-26T10:53:54Z</time></trkpt><trkpt lat="40.6002269162166" lon="16.116794599835334"><ele>536.6</ele><time>2026-04-26T10:53:58Z</time></trkpt><trkpt lat="40.600148693607366" lon="16.11684223436505"><ele>535.0</ele><time>2026-04-26T10:54:01Z</time></trkpt><trkpt lat="40.59990419275043" lon="16.117020654502948"><ele>533.8333333333334</ele><time>2026-04-26T10:54:03Z</time></trkpt><trkpt lat="40.599823892308365" lon="16.117069505265878"><ele>532.6666666666667</ele><time>2026-04-26T10:54:05Z</time></trkpt><trkpt lat="40.59971552524736" lon="16.117093039240427"><ele>531.5</ele><time>2026-04-26T10:54:07Z</time></trkpt><trkpt lat="40.599641110853355" lon="16.117069591943405"><ele>530.3333333333334</ele><time>2026-04-26T10:54:09Z</time></trkpt><trkpt lat="40.59957187590916" lon="16.117041033141067"><ele>529.1666666666666</ele><time>2026-04-26T10:54:11Z</time></trkpt><trkpt lat="40.59949192000795" lon="16.11699767841948"><ele>528.0</ele><time>2026-04-26T10:54:13Z</time></trkpt><trkpt lat="40.5993443558219" lon="16.11705479976087"><ele>526.0</ele><time>2026-04-26T10:54:20Z</time></trkpt><trkpt lat="40.599312680792124" lon="16.116970308649595"><ele>524.0</ele><time>2026-04-26T10:54:23Z</time></trkpt><trkpt lat="40.59924317517157" lon="16.11694388185999"><ele>522.0</ele><time>2026-04-26T10:54:25Z</time></trkpt><trkpt lat="40.599178885307126" lon="16.11695106480336"><ele>520.0</ele><time>2026-04-26T10:54:26Z</time></trkpt><trkpt lat="40.59909519009617" lon="16.117004372406335"><ele>518.0</ele><time>2026-04-26T10:54:30Z</time></trkpt><trkpt lat="40.59901208857191" lon="16.116993157671192"><ele>516.0</ele><time>2026-04-26T10:54:33Z</time></trkpt><trkpt lat="40.598949304239696" lon="16.117050466577464"><ele>516.0</ele><time>2026-04-26T10:54:36Z</time></trkpt><trkpt lat="40.59887485622263" lon="16.117116883647615"><ele>516.0</ele><time>2026-04-26T10:54:38Z</time></trkpt><trkpt lat="40.59881104756431" lon="16.117158827104483"><ele>516.0</ele><time>2026-04-26T10:54:40Z</time></trkpt><trkpt lat="40.598734504089556" lon="16.11716939671576"><ele>516.0</ele><time>2026-04-26T10:54:42Z</time></trkpt><trkpt lat="40.59864664759263" lon="16.11725355785195"><ele>516.0</ele><time>2026-04-26T10:54:44Z</time></trkpt><trkpt lat="40.598582179648666" lon="16.117277465341882"><ele>516.0</ele><time>2026-04-26T10:54:45Z</time></trkpt><trkpt lat="40.598493853157194" lon="16.117284750139895"><ele>513.6666666666666</ele><time>2026-04-26T10:54:47Z</time></trkpt><trkpt lat="40.598415662269026" lon="16.117291355668335"><ele>511.33333333333337</ele><time>2026-04-26T10:54:51Z</time></trkpt><trkpt lat="40.5983393876877" lon="16.117247534141185"><ele>509.0</ele><time>2026-04-26T10:54:53Z</time></trkpt><trkpt lat="40.59827973594441" lon="16.117220307929173"><ele>506.6666666666667</ele><time>2026-04-26T10:54:54Z</time></trkpt><trkpt lat="40.59819141175548" lon="16.11716643213165"><ele>504.33333333333337</ele><time>2026-04-26T10:54:57Z</time></trkpt><trkpt lat="40.59811024089205" lon="16.117178371058085"><ele>502.0</ele><time>2026-04-26T10:55:00Z</time></trkpt><trkpt lat="40.59800979971117" lon="16.11724991361549"><ele>501.99999999999994</ele><time>2026-04-26T10:55:02Z</time></trkpt><trkpt lat="40.59794162452992" lon="16.117302045827923"><ele>502.0</ele><time>2026-04-26T10:55:04Z</time></trkpt><trkpt lat="40.59789660128818" lon="16.117381156933444"><ele>501.99999999999994</ele><time>2026-04-26T10:55:06Z</time></trkpt><trkpt lat="40.59787914473367" lon="16.117463478493047"><ele>501.99999999999994</ele><time>2026-04-26T10:55:08Z</time></trkpt><trkpt lat="40.597801147693644" lon="16.117486744549705"><ele>502.0</ele><time>2026-04-26T10:55:10Z</time></trkpt><trkpt lat="40.59773289447365" lon="16.117538351671108"><ele>501.99999999999994</ele><time>2026-04-26T10:55:12Z</time></trkpt><trkpt lat="40.59768231649155" lon="16.117590872719255"><ele>501.99999999999994</ele><time>2026-04-26T10:55:14Z</time></trkpt><trkpt lat="40.59760754185268" lon="16.117621130983864"><ele>500.0</ele><time>2026-04-26T10:55:16Z</time></trkpt><trkpt lat="40.59753124785282" lon="16.117615203438774"><ele>498.00000000000006</ele><time>2026-04-26T10:55:17Z</time></trkpt><trkpt lat="40.59742872189617" lon="16.11761145910047"><ele>496.00000000000006</ele><time>2026-04-26T10:55:18Z</time></trkpt><trkpt lat="40.5973078537895" lon="16.117609687309116"><ele>494.0</ele><time>2026-04-26T10:55:19Z</time></trkpt><trkpt lat="40.597191439114155" lon="16.11763083371644"><ele>492.0</ele><time>2026-04-26T10:55:20Z</time></trkpt><trkpt lat="40.59708187620326" lon="16.117679589768294"><ele>489.75</ele><time>2026-04-26T10:55:21Z</time></trkpt><trkpt lat="40.59696893687881" lon="16.117749445033542"><ele>487.5</ele><time>2026-04-26T10:55:22Z</time></trkpt><trkpt lat="40.59683328010873" lon="16.11784639783298"><ele>485.25</ele><time>2026-04-26T10:55:23Z</time></trkpt><trkpt lat="40.596705842354474" lon="16.117929024250024"><ele>483.0</ele><time>2026-04-26T10:55:24Z</time></trkpt><trkpt lat="40.5965938378155" lon="16.117993071347335"><ele>483.0</ele><time>2026-04-26T10:55:25Z</time></trkpt><trkpt lat="40.596470877321025" lon="16.118045699437847"><ele>483.0</ele><time>2026-04-26T10:55:26Z</time></trkpt><trkpt lat="40.596348067684325" lon="16.11812031227752"><ele>483.0</ele><time>2026-04-26T10:55:27Z</time></trkpt><trkpt lat="40.59621799384014" lon="16.118200137500036"><ele>483.0</ele><time>2026-04-26T10:55:28Z</time></trkpt><trkpt lat="40.59609609041693" lon="16.118307094705266"><ele>485.0</ele><time>2026-04-26T10:55:29Z</time></trkpt><trkpt lat="40.5959795529493" lon="16.118389770728353"><ele>486.99999999999994</ele><time>2026-04-26T10:55:30Z</time></trkpt><trkpt lat="40.59589076609265" lon="16.118448315787422"><ele>488.99999999999994</ele><time>2026-04-26T10:55:31Z</time></trkpt><trkpt lat="40.59583981616793" lon="16.11849910201653"><ele>491.0</ele><time>2026-04-26T10:55:32Z</time></trkpt><trkpt lat="40.59578366233244" lon="16.118554369970543"><ele>493.0</ele><time>2026-04-26T10:55:33Z</time></trkpt><trkpt lat="40.595679662974405" lon="16.118587342912733"><ele>493.0</ele><time>2026-04-26T10:55:34Z</time></trkpt><trkpt lat="40.59554786781137" lon="16.118638485484297"><ele>493.0</ele><time>2026-04-26T10:55:35Z</time></trkpt><trkpt lat="40.59544247685699" lon="16.118720855926025"><ele>493.0</ele><time>2026-04-26T10:55:36Z</time></trkpt><trkpt lat="40.59535600435443" lon="16.11883024437581"><ele>493.0</ele><time>2026-04-26T10:55:37Z</time></trkpt><trkpt lat="40.59527575037841" lon="16.11894573116843"><ele>492.25</ele><time>2026-04-26T10:55:38Z</time></trkpt><trkpt lat="40.595190762225094" lon="16.119089965863726"><ele>491.5</ele><time>2026-04-26T10:55:39Z</time></trkpt><trkpt lat="40.59508900913517" lon="16.119228673040396"><ele>490.75</ele><time>2026-04-26T10:55:40Z</time></trkpt><trkpt lat="40.59497272262195" lon="16.119368294245664"><ele>490.0</ele><time>2026-04-26T10:55:41Z</time></trkpt><trkpt lat="40.5948414384527" lon="16.119516464959013"><ele>490.0</ele><time>2026-04-26T10:55:42Z</time></trkpt><trkpt lat="40.59471673618727" lon="16.119642808300185"><ele>490.0</ele><time>2026-04-26T10:55:43Z</time></trkpt><trkpt lat="40.594615464345715" lon="16.119762726680225"><ele>490.0</ele><time>2026-04-26T10:55:44Z</time></trkpt><trkpt lat="40.5945389157163" lon="16.119849491322174"><ele>490.0</ele><time>2026-04-26T10:55:45Z</time></trkpt><trkpt lat="40.59446523186621" lon="16.119975315361334"><ele>489.75</ele><time>2026-04-26T10:55:46Z</time></trkpt><trkpt lat="40.594377950415065" lon="16.12011562126283"><ele>489.5</ele><time>2026-04-26T10:55:47Z</time></trkpt><trkpt lat="40.59427630331343" lon="16.12026879475866"><ele>489.25</ele><time>2026-04-26T10:55:48Z</time></trkpt><trkpt lat="40.59417352401468" lon="16.120389356614847"><ele>489.0</ele><time>2026-04-26T10:55:49Z</time></trkpt><trkpt lat="40.59406817342062" lon="16.1204794272987"><ele>489.0</ele><time>2026-04-26T10:55:50Z</time></trkpt><trkpt lat="40.593961348335775" lon="16.120530552387976"><ele>489.0</ele><time>2026-04-26T10:55:51Z</time></trkpt><trkpt lat="40.59385839365321" lon="16.12056185198635"><ele>489.0</ele><time>2026-04-26T10:55:52Z</time></trkpt><trkpt lat="40.59374351433856" lon="16.12058105789644"><ele>489.0</ele><time>2026-04-26T10:55:53Z</time></trkpt><trkpt lat="40.59361913964692" lon="16.120575977753553"><ele>488.5</ele><time>2026-04-26T10:55:54Z</time></trkpt><trkpt lat="40.593473651166995" lon="16.12058844785834"><ele>488.0</ele><time>2026-04-26T10:55:55Z</time></trkpt><trkpt lat="40.5933242597439" lon="16.120588386903023"><ele>487.5</ele><time>2026-04-26T10:55:56Z</time></trkpt><trkpt lat="40.59317160915709" lon="16.120606396702726"><ele>487.0</ele><time>2026-04-26T10:55:57Z</time></trkpt><trkpt lat="40.59304950350673" lon="16.120620132743195"><ele>487.0</ele><time>2026-04-26T10:55:58Z</time></trkpt><trkpt lat="40.592911480326286" lon="16.120628497855936"><ele>487.0</ele><time>2026-04-26T10:55:59Z</time></trkpt><trkpt lat="40.592756027438256" lon="16.12063751068816"><ele>487.0</ele><time>2026-04-26T10:56:00Z</time></trkpt><trkpt lat="40.59264310723508" lon="16.120607089493625"><ele>487.0</ele><time>2026-04-26T10:56:01Z</time></trkpt><trkpt lat="40.59257753189111" lon="16.1205717144328"><ele>486.8571428571429</ele><time>2026-04-26T10:56:02Z</time></trkpt><trkpt lat="40.592511918385675" lon="16.120578619153804"><ele>486.71428571428567</ele><time>2026-04-26T10:56:03Z</time></trkpt><trkpt lat="40.59244910078297" lon="16.1205950717744"><ele>486.57142857142856</ele><time>2026-04-26T10:56:04Z</time></trkpt><trkpt lat="40.592392594141636" lon="16.12065068342509"><ele>486.42857142857144</ele><time>2026-04-26T10:56:05Z</time></trkpt><trkpt lat="40.59232920705185" lon="16.12072906210348"><ele>486.28571428571433</ele><time>2026-04-26T10:56:07Z</time></trkpt><trkpt lat="40.5922566683202" lon="16.120723271449595"><ele>486.1428571428571</ele><time>2026-04-26T10:56:09Z</time></trkpt><trkpt lat="40.59219675894973" lon="16.120788117195346"><ele>486.0</ele><time>2026-04-26T10:56:10Z</time></trkpt><trkpt lat="40.59215861554161" lon="16.120871965940623"><ele>485.1666666666667</ele><time>2026-04-26T10:56:12Z</time></trkpt><trkpt lat="40.592124149409926" lon="16.12095283225282"><ele>484.33333333333337</ele><time>2026-04-26T10:56:15Z</time></trkpt><trkpt lat="40.592090104145676" lon="16.121050650001703"><ele>483.5</ele><time>2026-04-26T10:56:17Z</time></trkpt><trkpt lat="40.59204252786587" lon="16.121138749001283"><ele>482.6666666666667</ele><time>2026-04-26T10:56:19Z</time></trkpt><trkpt lat="40.591960631978104" lon="16.121179393473014"><ele>481.83333333333337</ele><time>2026-04-26T10:56:22Z</time></trkpt><trkpt lat="40.591914685161754" lon="16.121276564309408"><ele>481.0</ele><time>2026-04-26T10:56:24Z</time></trkpt><trkpt lat="40.59184593683212" lon="16.12131586227917"><ele>481.00000000000006</ele><time>2026-04-26T10:56:26Z</time></trkpt><trkpt lat="40.59176706867551" lon="16.121345001892326"><ele>481.0</ele><time>2026-04-26T10:56:29Z</time></trkpt><trkpt lat="40.59170206023976" lon="16.121380603489627"><ele>481.0</ele><time>2026-04-26T10:56:31Z</time></trkpt><trkpt lat="40.59162164291811" lon="16.121424354872556"><ele>481.0</ele><time>2026-04-26T10:56:34Z</time></trkpt><trkpt lat="40.591545647592774" lon="16.121495397278522"><ele>481.00000000000006</ele><time>2026-04-26T10:56:37Z</time></trkpt><trkpt lat="40.59147311514918" lon="16.121565155622427"><ele>481.0</ele><time>2026-04-26T10:56:39Z</time></trkpt><trkpt lat="40.5914013799089" lon="16.12159119474967"><ele>482.33333333333337</ele><time>2026-04-26T10:56:41Z</time></trkpt><trkpt lat="40.5913146404651" lon="16.121607519277813"><ele>483.6666666666667</ele><time>2026-04-26T10:56:43Z</time></trkpt><trkpt lat="40.591228907224185" lon="16.121596504648448"><ele>485.0</ele><time>2026-04-26T10:56:46Z</time></trkpt><trkpt lat="40.5911511249001" lon="16.1216163945424"><ele>486.33333333333337</ele><time>2026-04-26T10:56:48Z</time></trkpt><trkpt lat="40.59105181176533" lon="16.121648529256383"><ele>487.6666666666667</ele><time>2026-04-26T10:56:49.999Z</time></trkpt><trkpt lat="40.59098641009206" lon="16.12162543572647"><ele>489.0</ele><time>2026-04-26T10:56:54Z</time></trkpt><trkpt lat="40.590990549377004" lon="16.12153957676131"><ele>485.14285714285717</ele><time>2026-04-26T10:56:57Z</time></trkpt><trkpt lat="40.59100700880218" lon="16.12145543538091"><ele>481.28571428571433</ele><time>2026-04-26T10:56:59Z</time></trkpt><trkpt lat="40.5909879752151" lon="16.121369107310915"><ele>477.42857142857144</ele><time>2026-04-26T10:57:01Z</time></trkpt><trkpt lat="40.59093233616808" lon="16.121292042094275"><ele>473.57142857142856</ele><time>2026-04-26T10:57:04Z</time></trkpt><trkpt lat="40.590887068280644" lon="16.121232228733497"><ele>469.7142857142857</ele><time>2026-04-26T10:57:07Z</time></trkpt><trkpt lat="40.590863543738834" lon="16.121127290995005"><ele>465.8571428571429</ele><time>2026-04-26T10:57:15Z</time></trkpt><trkpt lat="40.59085751252098" lon="16.12103387449031"><ele>462.0</ele><time>2026-04-26T10:57:18Z</time></trkpt><trkpt lat="40.590858768910955" lon="16.12093770192044"><ele>462.0</ele><time>2026-04-26T10:57:24Z</time></trkpt><trkpt lat="40.590846393562884" lon="16.12083914030437"><ele>462.0</ele><time>2026-04-26T10:57:27Z</time></trkpt><trkpt lat="40.590833934235185" lon="16.120757299264064"><ele>462.0</ele><time>2026-04-26T10:57:32Z</time></trkpt><trkpt lat="40.59074202285832" lon="16.120707814265046"><ele>462.0</ele><time>2026-04-26T10:57:35Z</time></trkpt><trkpt lat="40.59066658190352" lon="16.12068564877189"><ele>462.0</ele><time>2026-04-26T10:57:38Z</time></trkpt><trkpt lat="40.59059446791556" lon="16.120676158982228"><ele>462.0</ele><time>2026-04-26T10:57:41Z</time></trkpt><trkpt lat="40.59052575435402" lon="16.120662312422155"><ele>458.8333333333333</ele><time>2026-04-26T10:57:43Z</time></trkpt><trkpt lat="40.59045604046228" lon="16.120614537775083"><ele>455.66666666666663</ele><time>2026-04-26T10:57:46Z</time></trkpt><trkpt lat="40.59037088709384" lon="16.120611270745293"><ele>452.5</ele><time>2026-04-26T10:57:50Z</time></trkpt><trkpt lat="40.59031247281114" lon="16.120555388432514"><ele>449.3333333333333</ele><time>2026-04-26T10:57:53Z</time></trkpt><trkpt lat="40.590187728603574" lon="16.120530563813205"><ele>446.16666666666663</ele><time>2026-04-26T10:57:56Z</time></trkpt><trkpt lat="40.59012289116078" lon="16.120491746996198"><ele>443.0</ele><time>2026-04-26T10:57:59Z</time></trkpt><trkpt lat="40.58999966811266" lon="16.1204543321973"><ele>439.99999999999994</ele><time>2026-04-26T10:58:01Z</time></trkpt><trkpt lat="40.589926744213436" lon="16.120507058514427"><ele>437.0</ele><time>2026-04-26T10:58:03Z</time></trkpt><trkpt lat="40.589845413589536" lon="16.12052934550933"><ele>434.0</ele><time>2026-04-26T10:58:05Z</time></trkpt><trkpt lat="40.58977362676176" lon="16.12054226708363"><ele>431.0</ele><time>2026-04-26T10:58:07Z</time></trkpt><trkpt lat="40.589707333173436" lon="16.12053057769585"><ele>427.99999999999994</ele><time>2026-04-26T10:58:09Z</time></trkpt><trkpt lat="40.58962905151321" lon="16.120508704709124"><ele>425.0</ele><time>2026-04-26T10:58:11Z</time></trkpt><trkpt lat="40.58955434593339" lon="16.120551415457065"><ele>424.1428571428571</ele><time>2026-04-26T10:58:14Z</time></trkpt><trkpt lat="40.589494993378565" lon="16.12060741802956"><ele>423.2857142857143</ele><time>2026-04-26T10:58:16Z</time></trkpt><trkpt lat="40.58941976727983" lon="16.120652452839362"><ele>422.42857142857144</ele><time>2026-04-26T10:58:19Z</time></trkpt><trkpt lat="40.589397671478295" lon="16.120731035665713"><ele>421.57142857142856</ele><time>2026-04-26T10:58:21Z</time></trkpt><trkpt lat="40.589347846760155" lon="16.120787639169503"><ele>420.7142857142857</ele><time>2026-04-26T10:58:25Z</time></trkpt><trkpt lat="40.58930639500003" lon="16.120868088909923"><ele>419.85714285714283</ele><time>2026-04-26T10:58:28Z</time></trkpt><trkpt lat="40.589266950744104" lon="16.120951629545015"><ele>419.0</ele><time>2026-04-26T10:58:31Z</time></trkpt><trkpt lat="40.589203902175214" lon="16.120964703610706"><ele>418.99999999999994</ele><time>2026-04-26T10:58:34Z</time></trkpt><trkpt lat="40.58912158295274" lon="16.12097972620864"><ele>419.0</ele><time>2026-04-26T10:58:38Z</time></trkpt><trkpt lat="40.589055918872596" lon="16.121010098482934"><ele>419.0</ele><time>2026-04-26T10:58:42Z</time></trkpt><trkpt lat="40.58899129290249" lon="16.121041940849103"><ele>419.0</ele><time>2026-04-26T10:58:46Z</time></trkpt><trkpt lat="40.58890643752707" lon="16.12101650542809"><ele>418.99999999999994</ele><time>2026-04-26T11:03:00.999Z</time></trkpt><trkpt lat="40.58884575987028" lon="16.120956082892537"><ele>419.0</ele><time>2026-04-26T11:03:04.999Z</time></trkpt><trkpt lat="40.58880978735462" lon="16.120859328006457"><ele>418.99999999999994</ele><time>2026-04-26T11:03:07.999Z</time></trkpt><trkpt lat="40.58882186171444" lon="16.12076378336245"><ele>419.0</ele><time>2026-04-26T11:03:12.997Z</time></trkpt><trkpt lat="40.5887705865776" lon="16.12069997995046"><ele>419.0</ele><time>2026-04-26T11:03:22.997Z</time></trkpt><trkpt lat="40.58871322597252" lon="16.120656152748158"><ele>419.0</ele><time>2026-04-26T11:03:28.998Z</time></trkpt><trkpt lat="40.588637655138434" lon="16.12068324150263"><ele>419.0</ele><time>2026-04-26T11:03:32.998Z</time></trkpt><trkpt lat="40.58858092683762" lon="16.12075029370056"><ele>418.99999999999994</ele><time>2026-04-26T11:03:36.998Z</time></trkpt><trkpt lat="40.58852886520341" lon="16.12083072372393"><ele>419.0</ele><time>2026-04-26T11:03:40.998Z</time></trkpt><trkpt lat="40.58850475754636" lon="16.120953677279672"><ele>415.66666666666663</ele><time>2026-04-26T11:03:43.998Z</time></trkpt><trkpt lat="40.58843398400016" lon="16.12103367045491"><ele>412.3333333333333</ele><time>2026-04-26T11:03:45.999Z</time></trkpt><trkpt lat="40.58837889046191" lon="16.121094672336092"><ele>409.0</ele><time>2026-04-26T11:03:47.999Z</time></trkpt><trkpt lat="40.58836165310967" lon="16.121216757872027"><ele>405.66666666666663</ele><time>2026-04-26T11:03:50.999Z</time></trkpt><trkpt lat="40.58837631109926" lon="16.12132941478714"><ele>402.3333333333333</ele><time>2026-04-26T11:03:52.999Z</time></trkpt><trkpt lat="40.58841390190506" lon="16.12142509227443"><ele>399.0</ele><time>2026-04-26T11:03:54.999Z</time></trkpt><trkpt lat="40.5884666971148" lon="16.121474060785246"><ele>399.0</ele><time>2026-04-26T11:03:55.999Z</time></trkpt><trkpt lat="40.58854313766006" lon="16.12153495051709"><ele>399.0</ele><time>2026-04-26T11:03:56.999Z</time></trkpt><trkpt lat="40.588612069453475" lon="16.12156898515243"><ele>399.0</ele><time>2026-04-26T11:03:57.999Z</time></trkpt><trkpt lat="40.58870575530348" lon="16.121621210398857"><ele>399.0</ele><time>2026-04-26T11:03:59.999Z</time></trkpt><trkpt lat="40.58879569489582" lon="16.121587983258365"><ele>399.0</ele><time>2026-04-26T11:04:01.999Z</time></trkpt><trkpt lat="40.58886028212054" lon="16.121581255284667"><ele>399.0</ele><time>2026-04-26T11:04:02.999Z</time></trkpt><trkpt lat="40.588936696612365" lon="16.121616885612976"><ele>400.4</ele><time>2026-04-26T11:04:03.999Z</time></trkpt><trkpt lat="40.58901156489305" lon="16.1217137324322"><ele>401.79999999999995</ele><time>2026-04-26T11:04:04.999Z</time></trkpt><trkpt lat="40.589070431076976" lon="16.121798740527925"><ele>403.20000000000005</ele><time>2026-04-26T11:04:05.999Z</time></trkpt><trkpt lat="40.589111900692146" lon="16.121905071228536"><ele>404.6</ele><time>2026-04-26T11:04:06.999Z</time></trkpt><trkpt lat="40.58913705698887" lon="16.122053204815092"><ele>406.0</ele><time>2026-04-26T11:04:08.999Z</time></trkpt><trkpt lat="40.58914751640252" lon="16.122143459371472"><ele>406.00000000000006</ele><time>2026-04-26T11:04:09.999Z</time></trkpt><trkpt lat="40.589140074701135" lon="16.12224960747286"><ele>406.0</ele><time>2026-04-26T11:04:10.999Z</time></trkpt><trkpt lat="40.58914629361131" lon="16.12234424067587"><ele>406.0</ele><time>2026-04-26T11:04:11.999Z</time></trkpt><trkpt lat="40.58907164568293" lon="16.12240133454376"><ele>406.0</ele><time>2026-04-26T11:04:22.999Z</time></trkpt><trkpt lat="40.58900493987267" lon="16.122497679167157"><ele>406.00000000000006</ele><time>2026-04-26T11:04:25.999Z</time></trkpt><trkpt lat="40.58896695467651" lon="16.122598329617155"><ele>406.0</ele><time>2026-04-26T11:04:29.999Z</time></trkpt><trkpt lat="40.58892777672749" lon="16.12271274489988"><ele>403.8</ele><time>2026-04-26T11:04:32.999Z</time></trkpt><trkpt lat="40.588855117614415" lon="16.12275356211676"><ele>401.6</ele><time>2026-04-26T11:04:34.999Z</time></trkpt><trkpt lat="40.58874010369871" lon="16.122751767584926"><ele>399.4</ele><time>2026-04-26T11:04:36.999Z</time></trkpt><trkpt lat="40.588663068831245" lon="16.122865207605958"><ele>397.2</ele><time>2026-04-26T11:04:38.999Z</time></trkpt><trkpt lat="40.58861678872187" lon="16.12296104526984"><ele>395.0</ele><time>2026-04-26T11:04:39.999Z</time></trkpt><trkpt lat="40.58858771470123" lon="16.123081291792342"><ele>390.2</ele><time>2026-04-26T11:04:40.999Z</time></trkpt><trkpt lat="40.58854088688898" lon="16.123193572002478"><ele>385.4</ele><time>2026-04-26T11:04:41.999Z</time></trkpt><trkpt lat="40.58848021527599" lon="16.123291134665763"><ele>380.6</ele><time>2026-04-26T11:04:42.999Z</time></trkpt><trkpt lat="40.588423968770776" lon="16.123349565698344"><ele>375.8</ele><time>2026-04-26T11:04:43.999Z</time></trkpt><trkpt lat="40.588374944337595" lon="16.123443137443108"><ele>371.0</ele><time>2026-04-26T11:04:45.999Z</time></trkpt><trkpt lat="40.588387382364076" lon="16.123591306838176"><ele>371.0</ele><time>2026-04-26T11:04:47.999Z</time></trkpt><trkpt lat="40.58839679416123" lon="16.123696475159893"><ele>371.0</ele><time>2026-04-26T11:04:48.999Z</time></trkpt><trkpt lat="40.58841295806548" lon="16.123792236909146"><ele>371.0</ele><time>2026-04-26T11:04:49.999Z</time></trkpt><trkpt lat="40.588428027688984" lon="16.123874012975726"><ele>371.0</ele><time>2026-04-26T11:04:50.999Z</time></trkpt><trkpt lat="40.58844064413548" lon="16.12398009003843"><ele>371.0</ele><time>2026-04-26T11:04:51.999Z</time></trkpt><trkpt lat="40.58846026835404" lon="16.124091930226633"><ele>371.0</ele><time>2026-04-26T11:04:52.999Z</time></trkpt><trkpt lat="40.58846103616855" lon="16.124175718675204"><ele>371.0</ele><time>2026-04-26T11:04:53.999Z</time></trkpt><trkpt lat="40.588433550827645" lon="16.12426116599487"><ele>371.0</ele><time>2026-04-26T11:04:54.999Z</time></trkpt><trkpt lat="40.58839239076696" lon="16.124360984591824"><ele>371.0</ele><time>2026-04-26T11:04:55.999Z</time></trkpt><trkpt lat="40.58834766477644" lon="16.124470005709554"><ele>371.0</ele><time>2026-04-26T11:04:56.999Z</time></trkpt><trkpt lat="40.588319038171214" lon="16.124568256174605"><ele>371.0</ele><time>2026-04-26T11:04:57.999Z</time></trkpt><trkpt lat="40.588315324015454" lon="16.12465464908508"><ele>371.0</ele><time>2026-04-26T11:04:58.999Z</time></trkpt><trkpt lat="40.58833128355834" lon="16.124750358020762"><ele>371.0</ele><time>2026-04-26T11:04:59.999Z</time></trkpt><trkpt lat="40.58835280316651" lon="16.124876145984423"><ele>371.0</ele><time>2026-04-26T11:05:00.999Z</time></trkpt><trkpt lat="40.58837138258856" lon="16.125000795381624"><ele>371.0</ele><time>2026-04-26T11:05:01.999Z</time></trkpt><trkpt lat="40.58839455329991" lon="16.125113640259343"><ele>371.0</ele><time>2026-04-26T11:05:02.999Z</time></trkpt><trkpt lat="40.588425168488634" lon="16.125217288672317"><ele>371.0</ele><time>2026-04-26T11:05:03.999Z</time></trkpt><trkpt lat="40.588460584985896" lon="16.125315109770398"><ele>371.0</ele><time>2026-04-26T11:05:04.999Z</time></trkpt><trkpt lat="40.588498328390784" lon="16.125407992388173"><ele>371.0</ele><time>2026-04-26T11:05:05.999Z</time></trkpt><trkpt lat="40.588534361386586" lon="16.12549540227381"><ele>371.0</ele><time>2026-04-26T11:05:06.999Z</time></trkpt><trkpt lat="40.58850527808493" lon="16.125602833988445"><ele>371.0</ele><time>2026-04-26T11:05:07.999Z</time></trkpt><trkpt lat="40.58855024748603" lon="16.125689406784513"><ele>371.0</ele><time>2026-04-26T11:05:09.999Z</time></trkpt><trkpt lat="40.58859659435928" lon="16.12585583381748"><ele>371.0</ele><time>2026-04-26T11:05:11.999Z</time></trkpt><trkpt lat="40.58862861411893" lon="16.125955589777114"><ele>371.0</ele><time>2026-04-26T11:05:12.999Z</time></trkpt><trkpt lat="40.588659396239635" lon="16.126071511086234"><ele>371.0</ele><time>2026-04-26T11:05:14Z</time></trkpt><trkpt lat="40.58869468869341" lon="16.12619496965246"><ele>371.0</ele><time>2026-04-26T11:05:15Z</time></trkpt><trkpt lat="40.58873084810423" lon="16.126323284023545"><ele>371.0</ele><time>2026-04-26T11:05:16Z</time></trkpt><trkpt lat="40.588775780619024" lon="16.126444628507574"><ele>373.0</ele><time>2026-04-26T11:05:16.998Z</time></trkpt><trkpt lat="40.58883455321343" lon="16.126561530093277"><ele>375.0</ele><time>2026-04-26T11:05:17.998Z</time></trkpt><trkpt lat="40.58890868184666" lon="16.126651826504194"><ele>377.0</ele><time>2026-04-26T11:05:18.998Z</time></trkpt><trkpt lat="40.58895480364518" lon="16.126753937630937"><ele>379.0</ele><time>2026-04-26T11:05:19.998Z</time></trkpt><trkpt lat="40.58899546207135" lon="16.126831034141446"><ele>381.0</ele><time>2026-04-26T11:05:20.998Z</time></trkpt><trkpt lat="40.589054908295275" lon="16.126882920401"><ele>383.0</ele><time>2026-04-26T11:05:21.998Z</time></trkpt><trkpt lat="40.58918604025179" lon="16.126855354999968"><ele>383.0</ele><time>2026-04-26T11:05:23.999Z</time></trkpt><trkpt lat="40.58927550610331" lon="16.126829106247133"><ele>383.0</ele><time>2026-04-26T11:05:24.999Z</time></trkpt><trkpt lat="40.58936204460451" lon="16.12675559186063"><ele>383.0</ele><time>2026-04-26T11:05:25.999Z</time></trkpt><trkpt lat="40.58946014913886" lon="16.126706602348232"><ele>383.0</ele><time>2026-04-26T11:05:26.999Z</time></trkpt><trkpt lat="40.58955319149968" lon="16.126661757865044"><ele>383.0</ele><time>2026-04-26T11:05:27.999Z</time></trkpt><trkpt lat="40.58963319365817" lon="16.126597920343993"><ele>385.59999999999997</ele><time>2026-04-26T11:05:28.999Z</time></trkpt><trkpt lat="40.58971378895996" lon="16.126502272900424"><ele>388.2</ele><time>2026-04-26T11:05:29.999Z</time></trkpt><trkpt lat="40.589788302199594" lon="16.126408527858835"><ele>390.8</ele><time>2026-04-26T11:05:30.999Z</time></trkpt><trkpt lat="40.58987469787511" lon="16.126323746761624"><ele>393.4</ele><time>2026-04-26T11:05:31.999Z</time></trkpt><trkpt lat="40.58996332261935" lon="16.126223243020842"><ele>396.0</ele><time>2026-04-26T11:05:32.999Z</time></trkpt><trkpt lat="40.59002744894624" lon="16.126124368393306"><ele>396.0</ele><time>2026-04-26T11:05:33.999Z</time></trkpt><trkpt lat="40.59007729603722" lon="16.126023680098857"><ele>396.0</ele><time>2026-04-26T11:05:34.999Z</time></trkpt><trkpt lat="40.59013629651122" lon="16.125935571440408"><ele>396.0</ele><time>2026-04-26T11:05:35.999Z</time></trkpt><trkpt lat="40.59020826382631" lon="16.125824829135233"><ele>396.0</ele><time>2026-04-26T11:05:36.999Z</time></trkpt><trkpt lat="40.59028727977731" lon="16.125739016130964"><ele>396.0</ele><time>2026-04-26T11:05:37.999Z</time></trkpt><trkpt lat="40.59035822998055" lon="16.12567958860136"><ele>396.8</ele><time>2026-04-26T11:05:38.999Z</time></trkpt><trkpt lat="40.59042656338727" lon="16.125653561793214"><ele>397.6</ele><time>2026-04-26T11:05:40.999Z</time></trkpt><trkpt lat="40.59048570699983" lon="16.125599329599567"><ele>398.4</ele><time>2026-04-26T11:05:43.999Z</time></trkpt><trkpt lat="40.59050869562616" lon="16.125488425240597"><ele>399.2</ele><time>2026-04-26T11:05:45.999Z</time></trkpt><trkpt lat="40.59054319337031" lon="16.12532291863857"><ele>400.0</ele><time>2026-04-26T11:05:47.999Z</time></trkpt><trkpt lat="40.590553431082455" lon="16.124996165936132"><ele>400.0</ele><time>2026-04-26T11:05:48.999Z</time></trkpt><trkpt lat="40.59061387530407" lon="16.124921438215793"><ele>400.0</ele><time>2026-04-26T11:05:49.999Z</time></trkpt><trkpt lat="40.59067138995888" lon="16.124834713021126"><ele>400.0</ele><time>2026-04-26T11:05:52Z</time></trkpt><trkpt lat="40.590845265012746" lon="16.124671494594047"><ele>400.0</ele><time>2026-04-26T11:05:53Z</time></trkpt><trkpt lat="40.5909541026751" lon="16.12461979544489"><ele>395.5</ele><time>2026-04-26T11:05:55Z</time></trkpt><trkpt lat="40.591350451745036" lon="16.124503148202624"><ele>391.0</ele><time>2026-04-26T11:05:57Z</time></trkpt><trkpt lat="40.591650230339944" lon="16.124942665851318"><ele>400.33333333333337</ele><time>2026-04-26T11:06:09Z</time></trkpt><trkpt lat="40.591735911533824" lon="16.124867408222105"><ele>409.66666666666663</ele><time>2026-04-26T11:06:11Z</time></trkpt><trkpt lat="40.5916637472317" lon="16.124440737641635"><ele>419.0</ele><time>2026-04-26T11:06:12Z</time></trkpt><trkpt lat="40.59176785248466" lon="16.124380795024692"><ele>419.0</ele><time>2026-04-26T11:06:14Z</time></trkpt><trkpt lat="40.59185148473577" lon="16.124322775448462"><ele>419.0</ele><time>2026-04-26T11:06:16Z</time></trkpt><trkpt lat="40.59193696716176" lon="16.124260293981465"><ele>419.0</ele><time>2026-04-26T11:06:18Z</time></trkpt><trkpt lat="40.59196443569025" lon="16.124165912557164"><ele>419.0</ele><time>2026-04-26T11:06:23Z</time></trkpt><trkpt lat="40.592455314904875" lon="16.124570864607836"><ele>415.6</ele><time>2026-04-26T11:06:27Z</time></trkpt><trkpt lat="40.5925397625093" lon="16.124467758419225"><ele>412.2</ele><time>2026-04-26T11:06:29Z</time></trkpt><trkpt lat="40.592585315647135" lon="16.124379105237047"><ele>408.8</ele><time>2026-04-26T11:06:30Z</time></trkpt><trkpt lat="40.59262894421335" lon="16.124292367519207"><ele>405.40000000000003</ele><time>2026-04-26T11:06:31Z</time></trkpt><trkpt lat="40.59270795071032" lon="16.1241814055498"><ele>402.0</ele><time>2026-04-26T11:06:33Z</time></trkpt><trkpt lat="40.59280537191812" lon="16.124120315897386"><ele>404.20000000000005</ele><time>2026-04-26T11:06:35Z</time></trkpt><trkpt lat="40.5928672071893" lon="16.124081293483965"><ele>406.4</ele><time>2026-04-26T11:06:36Z</time></trkpt><trkpt lat="40.59300493655781" lon="16.12410549279921"><ele>408.6</ele><time>2026-04-26T11:06:38Z</time></trkpt><trkpt lat="40.593106558157146" lon="16.12409814592685"><ele>410.79999999999995</ele><time>2026-04-26T11:06:40Z</time></trkpt><trkpt lat="40.59316815176885" lon="16.12403242800241"><ele>413.0</ele><time>2026-04-26T11:06:41Z</time></trkpt><trkpt lat="40.59321624033819" lon="16.123966981439704"><ele>412.99999999999994</ele><time>2026-04-26T11:06:42Z</time></trkpt><trkpt lat="40.59325579528817" lon="16.12384850694313"><ele>413.0</ele><time>2026-04-26T11:06:43Z</time></trkpt><trkpt lat="40.593293807339535" lon="16.123757240632816"><ele>413.0</ele><time>2026-04-26T11:06:44Z</time></trkpt><trkpt lat="40.59334145276149" lon="16.123692799060574"><ele>413.0</ele><time>2026-04-26T11:06:45Z</time></trkpt><trkpt lat="40.59340768917708" lon="16.12365101645432"><ele>412.99999999999994</ele><time>2026-04-26T11:06:46Z</time></trkpt><trkpt lat="40.59348886906704" lon="16.12361700017981"><ele>413.0</ele><time>2026-04-26T11:06:48Z</time></trkpt><trkpt lat="40.593559391726664" lon="16.123660743196666"><ele>412.99999999999994</ele><time>2026-04-26T11:06:51Z</time></trkpt><trkpt lat="40.593627611923736" lon="16.12366730781112"><ele>413.0</ele><time>2026-04-26T11:06:53Z</time></trkpt><trkpt lat="40.59373224532206" lon="16.123682874712724"><ele>413.0</ele><time>2026-04-26T11:06:55Z</time></trkpt><trkpt lat="40.59382049040589" lon="16.123707719932472"><ele>413.0</ele><time>2026-04-26T11:06:58Z</time></trkpt><trkpt lat="40.59390579935743" lon="16.12370588167967"><ele>412.99999999999994</ele><time>2026-04-26T11:07:01Z</time></trkpt><trkpt lat="40.59396629010492" lon="16.12373530480298"><ele>413.0</ele><time>2026-04-26T11:07:05Z</time></trkpt><trkpt lat="40.59405611242606" lon="16.123724239430796"><ele>410.79999999999995</ele><time>2026-04-26T11:07:08.001Z</time></trkpt><trkpt lat="40.5941673633158" lon="16.123739761423305"><ele>408.6</ele><time>2026-04-26T11:07:10.001Z</time></trkpt><trkpt lat="40.59428249823102" lon="16.12377180393136"><ele>406.4</ele><time>2026-04-26T11:07:12.001Z</time></trkpt><trkpt lat="40.5943682461347" lon="16.123727811362205"><ele>404.20000000000005</ele><time>2026-04-26T11:07:14.001Z</time></trkpt><trkpt lat="40.59446194012823" lon="16.12368097639302"><ele>402.0</ele><time>2026-04-26T11:07:16.001Z</time></trkpt><trkpt lat="40.59459191181484" lon="16.12370035491774"><ele>402.0</ele><time>2026-04-26T11:07:18.001Z</time></trkpt><trkpt lat="40.594660299180525" lon="16.123705120257036"><ele>402.0</ele><time>2026-04-26T11:07:19.001Z</time></trkpt><trkpt lat="40.5947867732384" lon="16.123684037094886"><ele>402.0</ele><time>2026-04-26T11:07:21.001Z</time></trkpt><trkpt lat="40.59488759234938" lon="16.123759982356514"><ele>402.0</ele><time>2026-04-26T11:07:23Z</time></trkpt><trkpt lat="40.59493839749521" lon="16.12383721221769"><ele>402.0</ele><time>2026-04-26T11:07:24Z</time></trkpt><trkpt lat="40.5950037030475" lon="16.12389244115474"><ele>402.0</ele><time>2026-04-26T11:07:25Z</time></trkpt><trkpt lat="40.59507329603572" lon="16.123940829603"><ele>402.0</ele><time>2026-04-26T11:07:26Z</time></trkpt><trkpt lat="40.59514240530719" lon="16.123959194039763"><ele>402.0</ele><time>2026-04-26T11:07:27Z</time></trkpt><trkpt lat="40.595207606078475" lon="16.123973346051216"><ele>402.0</ele><time>2026-04-26T11:07:28Z</time></trkpt><trkpt lat="40.59527837210765" lon="16.12397508603164"><ele>402.0</ele><time>2026-04-26T11:07:29Z</time></trkpt><trkpt lat="40.595362617359434" lon="16.123976210674634"><ele>402.0</ele><time>2026-04-26T11:07:30Z</time></trkpt><trkpt lat="40.59543446283499" lon="16.123983723510324"><ele>402.0</ele><time>2026-04-26T11:07:31Z</time></trkpt><trkpt lat="40.59550024762493" lon="16.123996301329566"><ele>401.1666666666667</ele><time>2026-04-26T11:07:32Z</time></trkpt><trkpt lat="40.59561537463651" lon="16.12402629744216"><ele>400.33333333333337</ele><time>2026-04-26T11:07:34Z</time></trkpt><trkpt lat="40.59570903620854" lon="16.124001796131303"><ele>399.5</ele><time>2026-04-26T11:07:36Z</time></trkpt><trkpt lat="40.59577554372779" lon="16.124011902412445"><ele>398.6666666666667</ele><time>2026-04-26T11:07:38Z</time></trkpt><trkpt lat="40.59584114114919" lon="16.12403546671196"><ele>397.83333333333337</ele><time>2026-04-26T11:07:40Z</time></trkpt><trkpt lat="40.595921766093056" lon="16.12404019731961"><ele>397.0</ele><time>2026-04-26T11:07:42Z</time></trkpt><trkpt lat="40.59600598899771" lon="16.124006049153888"><ele>397.00000000000006</ele><time>2026-04-26T11:07:44Z</time></trkpt><trkpt lat="40.596068689818246" lon="16.123934825070624"><ele>397.0</ele><time>2026-04-26T11:07:46Z</time></trkpt><trkpt lat="40.596139209865704" lon="16.123879229822737"><ele>397.0</ele><time>2026-04-26T11:07:49Z</time></trkpt><trkpt lat="40.59624061617512" lon="16.123832302342596"><ele>397.0</ele><time>2026-04-26T11:07:52Z</time></trkpt><trkpt lat="40.59630404827992" lon="16.123773994066237"><ele>397.00000000000006</ele><time>2026-04-26T11:07:54Z</time></trkpt><trkpt lat="40.59636463037749" lon="16.123713264374395"><ele>397.0</ele><time>2026-04-26T11:07:55Z</time></trkpt><trkpt lat="40.59642264528475" lon="16.12367459900605"><ele>392.33333333333337</ele><time>2026-04-26T11:07:56Z</time></trkpt><trkpt lat="40.59650268616636" lon="16.12364885287221"><ele>387.6666666666667</ele><time>2026-04-26T11:07:58Z</time></trkpt><trkpt lat="40.596603380365806" lon="16.12358058086389"><ele>383.0</ele><time>2026-04-26T11:08:00Z</time></trkpt><trkpt lat="40.596674657482914" lon="16.123534929044713"><ele>378.33333333333337</ele><time>2026-04-26T11:08:02Z</time></trkpt><trkpt lat="40.59674270342833" lon="16.12348251812327"><ele>373.6666666666667</ele><time>2026-04-26T11:08:04Z</time></trkpt><trkpt lat="40.59681100320377" lon="16.123433063663033"><ele>369.0</ele><time>2026-04-26T11:08:06Z</time></trkpt><trkpt lat="40.59687760597278" lon="16.123402308508666"><ele>369.0</ele><time>2026-04-26T11:08:10Z</time></trkpt><trkpt lat="40.596940660919905" lon="16.123369510138062"><ele>369.0</ele><time>2026-04-26T11:08:12Z</time></trkpt><trkpt lat="40.59704557371469" lon="16.123361981498824"><ele>369.0</ele><time>2026-04-26T11:08:15Z</time></trkpt><trkpt lat="40.59712459373653" lon="16.123357479561562"><ele>369.0</ele><time>2026-04-26T11:08:18Z</time></trkpt><trkpt lat="40.59712067357474" lon="16.123455126537834"><ele>369.0</ele><time>2026-04-26T11:08:24.001Z</time></trkpt><trkpt lat="40.59709910664957" lon="16.123555264334037"><ele>369.0</ele><time>2026-04-26T11:08:26.001Z</time></trkpt><trkpt lat="40.5970822078613" lon="16.123690792204627"><ele>369.0</ele><time>2026-04-26T11:08:28.001Z</time></trkpt><trkpt lat="40.59707657568722" lon="16.123799603044585"><ele>369.0</ele><time>2026-04-26T11:08:30.001Z</time></trkpt><trkpt lat="40.59704935538582" lon="16.123874785563252"><ele>369.0</ele><time>2026-04-26T11:08:33.001Z</time></trkpt><trkpt lat="40.59700866941973" lon="16.123973558009865"><ele>369.0</ele><time>2026-04-26T11:08:35.001Z</time></trkpt><trkpt lat="40.59697190974664" lon="16.124048693961438"><ele>369.0</ele><time>2026-04-26T11:08:43.001Z</time></trkpt><trkpt lat="40.59694817815219" lon="16.124158378036668"><ele>369.0</ele><time>2026-04-26T11:08:45.001Z</time></trkpt><trkpt lat="40.59694489088617" lon="16.12429784845558"><ele>370.3333333333333</ele><time>2026-04-26T11:08:47.001Z</time></trkpt><trkpt lat="40.59698540599436" lon="16.124381803790364"><ele>371.6666666666667</ele><time>2026-04-26T11:08:48.001Z</time></trkpt><trkpt lat="40.59702581971228" lon="16.12445466909773"><ele>373.0</ele><time>2026-04-26T11:08:49.001Z</time></trkpt><trkpt lat="40.59706313609002" lon="16.124525476192066"><ele>374.33333333333337</ele><time>2026-04-26T11:08:50.001Z</time></trkpt><trkpt lat="40.597113892507046" lon="16.124638923400596"><ele>375.6666666666667</ele><time>2026-04-26T11:08:52.001Z</time></trkpt><trkpt lat="40.59706355978871" lon="16.124691842335928"><ele>377.0</ele><time>2026-04-26T11:08:54.001Z</time></trkpt><trkpt lat="40.59699183707655" lon="16.124749917948733"><ele>375.0</ele><time>2026-04-26T11:08:56.001Z</time></trkpt><trkpt lat="40.59694286474064" lon="16.12480870594527"><ele>373.0</ele><time>2026-04-26T11:08:58.001Z</time></trkpt><trkpt lat="40.59693913394726" lon="16.12490310371301"><ele>371.0</ele><time>2026-04-26T11:09:02.001Z</time></trkpt><trkpt lat="40.597017702136334" lon="16.12495037348863"><ele>369.0</ele><time>2026-04-26T11:09:05.001Z</time></trkpt><trkpt lat="40.59708190992805" lon="16.124985481081342"><ele>367.0</ele><time>2026-04-26T11:09:07.001Z</time></trkpt><trkpt lat="40.597093720837115" lon="16.125078571045933"><ele>365.0</ele><time>2026-04-26T11:09:43.001Z</time></trkpt><trkpt lat="40.59716703981076" lon="16.12516100656146"><ele>370.2</ele><time>2026-04-26T11:09:45.001Z</time></trkpt><trkpt lat="40.597263660104595" lon="16.125238901561886"><ele>375.4</ele><time>2026-04-26T11:09:48.001Z</time></trkpt><trkpt lat="40.597365136561805" lon="16.125333260349596"><ele>380.6</ele><time>2026-04-26T11:09:50.001Z</time></trkpt><trkpt lat="40.597444298066385" lon="16.125396031071855"><ele>385.8</ele><time>2026-04-26T11:09:51.001Z</time></trkpt><trkpt lat="40.59751327467897" lon="16.125445243115177"><ele>391.0</ele><time>2026-04-26T11:09:52.001Z</time></trkpt><trkpt lat="40.59758549088694" lon="16.125539186302273"><ele>391.00000000000006</ele><time>2026-04-26T11:09:54.001Z</time></trkpt><trkpt lat="40.597608052697986" lon="16.125622884550808"><ele>391.0</ele><time>2026-04-26T11:09:55.001Z</time></trkpt><trkpt lat="40.5976442878143" lon="16.125703385505094"><ele>391.0</ele><time>2026-04-26T11:09:56.001Z</time></trkpt><trkpt lat="40.59770128075576" lon="16.12577924697745"><ele>391.0</ele><time>2026-04-26T11:09:57.001Z</time></trkpt><trkpt lat="40.597756542732746" lon="16.125877529976222"><ele>391.00000000000006</ele><time>2026-04-26T11:09:58.001Z</time></trkpt><trkpt lat="40.59781437650049" lon="16.125959260904388"><ele>391.0</ele><time>2026-04-26T11:09:59.001Z</time></trkpt><trkpt lat="40.5978541847511" lon="16.126029073031926"><ele>391.33333333333337</ele><time>2026-04-26T11:10:00.001Z</time></trkpt><trkpt lat="40.597845376060135" lon="16.126142258747795"><ele>391.6666666666667</ele><time>2026-04-26T11:10:02.001Z</time></trkpt><trkpt lat="40.59773975637259" lon="16.12617931208164"><ele>392.0</ele><time>2026-04-26T11:10:04.001Z</time></trkpt><trkpt lat="40.597675983909035" lon="16.126178065367313"><ele>392.33333333333337</ele><time>2026-04-26T11:10:05.001Z</time></trkpt><trkpt lat="40.597612041760655" lon="16.126162140123046"><ele>392.6666666666667</ele><time>2026-04-26T11:10:06.001Z</time></trkpt><trkpt lat="40.597519284037745" lon="16.126132837321606"><ele>393.0</ele><time>2026-04-26T11:10:08.001Z</time></trkpt><trkpt lat="40.59748255324396" lon="16.126064431506887"><ele>393.0</ele><time>2026-04-26T11:10:10.001Z</time></trkpt><trkpt lat="40.59736615690432" lon="16.126033499851687"><ele>393.0</ele><time>2026-04-26T11:10:12.001Z</time></trkpt><trkpt lat="40.597303670047616" lon="16.126011593566812"><ele>393.0</ele><time>2026-04-26T11:10:13.001Z</time></trkpt><trkpt lat="40.59718700596653" lon="16.125994567204987"><ele>393.0</ele><time>2026-04-26T11:10:15.001Z</time></trkpt><trkpt lat="40.59707920394594" lon="16.1259531955425"><ele>393.0</ele><time>2026-04-26T11:10:17.001Z</time></trkpt><trkpt lat="40.59697015664486" lon="16.125922151647273"><ele>390.0</ele><time>2026-04-26T11:10:19.001Z</time></trkpt><trkpt lat="40.59685487546187" lon="16.125947218287862"><ele>387.0</ele><time>2026-04-26T11:10:21.001Z</time></trkpt><trkpt lat="40.59675790181945" lon="16.126004969410758"><ele>384.0</ele><time>2026-04-26T11:10:23.001Z</time></trkpt><trkpt lat="40.596673879281205" lon="16.126021288034128"><ele>381.0</ele><time>2026-04-26T11:10:25.001Z</time></trkpt><trkpt lat="40.59657635585665" lon="16.125981035675018"><ele>378.0</ele><time>2026-04-26T11:10:27.001Z</time></trkpt><trkpt lat="40.5964516248807" lon="16.12597044975051"><ele>378.0</ele><time>2026-04-26T11:10:29.001Z</time></trkpt><trkpt lat="40.596365566061365" lon="16.125954725416626"><ele>378.0</ele><time>2026-04-26T11:10:31.001Z</time></trkpt><trkpt lat="40.596334599064285" lon="16.125857586033124"><ele>378.0</ele><time>2026-04-26T11:10:34.001Z</time></trkpt><trkpt lat="40.59633136676105" lon="16.125738230746077"><ele>378.0</ele><time>2026-04-26T11:10:36.001Z</time></trkpt><trkpt lat="40.59633067270045" lon="16.125570940052143"><ele>378.0</ele><time>2026-04-26T11:10:38.001Z</time></trkpt><trkpt lat="40.596313933413896" lon="16.125420520100477"><ele>375.4</ele><time>2026-04-26T11:10:40.001Z</time></trkpt><trkpt lat="40.59622440955302" lon="16.12531852664008"><ele>372.79999999999995</ele><time>2026-04-26T11:10:42.001Z</time></trkpt><trkpt lat="40.5961462049177" lon="16.12525857284116"><ele>370.2</ele><time>2026-04-26T11:10:44.001Z</time></trkpt><trkpt lat="40.59606631405717" lon="16.12531872125081"><ele>367.6</ele><time>2026-04-26T11:10:46.001Z</time></trkpt><trkpt lat="40.59599167787815" lon="16.125303436365947"><ele>365.0</ele><time>2026-04-26T11:10:48.001Z</time></trkpt><trkpt lat="40.59591698685054" lon="16.125347025299423"><ele>363.6666666666667</ele><time>2026-04-26T11:10:51.001Z</time></trkpt><trkpt lat="40.59578569902896" lon="16.12533855594544"><ele>362.33333333333337</ele><time>2026-04-26T11:10:53.001Z</time></trkpt><trkpt lat="40.59571673550923" lon="16.125334717112644"><ele>361.0</ele><time>2026-04-26T11:10:54.001Z</time></trkpt><trkpt lat="40.5956474763671" lon="16.125344128650017"><ele>359.6666666666667</ele><time>2026-04-26T11:10:56.001Z</time></trkpt><trkpt lat="40.59556256072059" lon="16.125352322482573"><ele>358.3333333333333</ele><time>2026-04-26T11:11:10.001Z</time></trkpt><trkpt lat="40.595527794571595" lon="16.12544325538048"><ele>357.0</ele><time>2026-04-26T11:11:12.001Z</time></trkpt><trkpt lat="40.59546356344344" lon="16.125502988505154"><ele>357.0</ele><time>2026-04-26T11:11:15.001Z</time></trkpt><trkpt lat="40.59539541583043" lon="16.12556572312289"><ele>357.0</ele><time>2026-04-26T11:11:18.001Z</time></trkpt><trkpt lat="40.59534858241117" lon="16.12563088617543"><ele>357.0</ele><time>2026-04-26T11:11:20.001Z</time></trkpt><trkpt lat="40.59529879397912" lon="16.125532998221324"><ele>357.0</ele><time>2026-04-26T11:11:26.001Z</time></trkpt><trkpt lat="40.59520650837343" lon="16.12551000806586"><ele>357.0</ele><time>2026-04-26T11:11:29.001Z</time></trkpt><trkpt lat="40.59513751914012" lon="16.125500837570026"><ele>357.0</ele><time>2026-04-26T11:11:31.001Z</time></trkpt><trkpt lat="40.59512211189959" lon="16.125412075538996"><ele>355.5</ele><time>2026-04-26T11:11:33.001Z</time></trkpt><trkpt lat="40.595120972517044" lon="16.125322366544758"><ele>354.0</ele><time>2026-04-26T11:11:35.001Z</time></trkpt><trkpt lat="40.59504545222775" lon="16.12530888153661"><ele>352.5</ele><time>2026-04-26T11:11:39.001Z</time></trkpt><trkpt lat="40.59496233541131" lon="16.12528894978165"><ele>351.0</ele><time>2026-04-26T11:11:41.001Z</time></trkpt><trkpt lat="40.59486608015798" lon="16.125266779027683"><ele>349.5</ele><time>2026-04-26T11:11:42.001Z</time></trkpt><trkpt lat="40.59478722601996" lon="16.125244390819734"><ele>348.0</ele><time>2026-04-26T11:11:43.001Z</time></trkpt><trkpt lat="40.59472563925114" lon="16.125262740241602"><ele>348.0</ele><time>2026-04-26T11:11:44.001Z</time></trkpt><trkpt lat="40.594661265381916" lon="16.125361192469125"><ele>348.0</ele><time>2026-04-26T11:11:46.001Z</time></trkpt><trkpt lat="40.59458986310587" lon="16.125473159383947"><ele>348.0</ele><time>2026-04-26T11:11:50.001Z</time></trkpt><trkpt lat="40.594545055742174" lon="16.125541548511045"><ele>348.0</ele><time>2026-04-26T11:11:51.001Z</time></trkpt><trkpt lat="40.59450146278397" lon="16.12560417983221"><ele>348.0</ele><time>2026-04-26T11:11:52.001Z</time></trkpt><trkpt lat="40.59444433077876" lon="16.125691394050122"><ele>348.0</ele><time>2026-04-26T11:11:54.001Z</time></trkpt><trkpt lat="40.594381310724906" lon="16.12574490631378"><ele>348.2</ele><time>2026-04-26T11:11:56.001Z</time></trkpt><trkpt lat="40.59438639016869" lon="16.125861506827462"><ele>348.4</ele><time>2026-04-26T11:12:00.001Z</time></trkpt><trkpt lat="40.594439102849186" lon="16.125954686041034"><ele>348.59999999999997</ele><time>2026-04-26T11:12:02.001Z</time></trkpt><trkpt lat="40.59447993635439" lon="16.12608435275072"><ele>348.79999999999995</ele><time>2026-04-26T11:12:04.001Z</time></trkpt><trkpt lat="40.594527694027704" lon="16.126182152915245"><ele>349.0</ele><time>2026-04-26T11:12:06.001Z</time></trkpt><trkpt lat="40.59457091375481" lon="16.126286800598614"><ele>353.0</ele><time>2026-04-26T11:12:08.001Z</time></trkpt><trkpt lat="40.59462068143217" lon="16.126381273077644"><ele>357.0</ele><time>2026-04-26T11:12:10.001Z</time></trkpt><trkpt lat="40.59469968539712" lon="16.126443728496046"><ele>361.0</ele><time>2026-04-26T11:12:14.001Z</time></trkpt><trkpt lat="40.59479205426509" lon="16.12656935710248"><ele>365.0</ele><time>2026-04-26T11:12:16.001Z</time></trkpt><trkpt lat="40.594839796505624" lon="16.126674134828047"><ele>369.0</ele><time>2026-04-26T11:12:18.001Z</time></trkpt><trkpt lat="40.59483242831521" lon="16.126791499748407"><ele>371.8333333333333</ele><time>2026-04-26T11:12:20.001Z</time></trkpt><trkpt lat="40.5948666466514" lon="16.12689447423472"><ele>374.66666666666663</ele><time>2026-04-26T11:12:22.001Z</time></trkpt><trkpt lat="40.59491709658435" lon="16.126946859551577"><ele>377.5</ele><time>2026-04-26T11:12:33.001Z</time></trkpt><trkpt lat="40.59496903584115" lon="16.127019864971903"><ele>380.3333333333333</ele><time>2026-04-26T11:12:35.001Z</time></trkpt><trkpt lat="40.59496162959131" lon="16.127111472892736"><ele>383.16666666666663</ele><time>2026-04-26T11:12:42.001Z</time></trkpt><trkpt lat="40.59491569466073" lon="16.12721691991855"><ele>386.0</ele><time>2026-04-26T11:12:45.001Z</time></trkpt><trkpt lat="40.59484777185065" lon="16.127229523506553"><ele>386.00000000000006</ele><time>2026-04-26T11:12:48.001Z</time></trkpt><trkpt lat="40.59477271182407" lon="16.127228389007012"><ele>386.0</ele><time>2026-04-26T11:12:55.001Z</time></trkpt><trkpt lat="40.594710370423215" lon="16.127240007893622"><ele>386.0</ele><time>2026-04-26T11:12:58.001Z</time></trkpt><trkpt lat="40.59470157868043" lon="16.127338340179406"><ele>386.0</ele><time>2026-04-26T11:13:00.001Z</time></trkpt><trkpt lat="40.59462033237982" lon="16.127389761460762"><ele>386.0</ele><time>2026-04-26T11:13:18.001Z</time></trkpt><trkpt lat="40.59456283090298" lon="16.127355824973787"><ele>386.00000000000006</ele><time>2026-04-26T11:13:20.001Z</time></trkpt><trkpt lat="40.594487872548726" lon="16.12733885167107"><ele>386.0</ele><time>2026-04-26T11:13:24.001Z</time></trkpt><trkpt lat="40.59443827112657" lon="16.127280748574556"><ele>382.66666666666663</ele><time>2026-04-26T11:13:26.001Z</time></trkpt><trkpt lat="40.59439499933753" lon="16.1272198283529"><ele>379.3333333333333</ele><time>2026-04-26T11:13:28.001Z</time></trkpt><trkpt lat="40.59433774060336" lon="16.12713872413499"><ele>376.0</ele><time>2026-04-26T11:13:31.001Z</time></trkpt><trkpt lat="40.59427066688803" lon="16.127116857594064"><ele>372.66666666666663</ele><time>2026-04-26T11:13:33.001Z</time></trkpt><trkpt lat="40.594265659143595" lon="16.126990052074042"><ele>369.3333333333333</ele><time>2026-04-26T11:14:02.001Z</time></trkpt><trkpt lat="40.59421753082691" lon="16.126931863935145"><ele>366.0</ele><time>2026-04-26T11:14:06.001Z</time></trkpt><trkpt lat="40.594173692411815" lon="16.127029224309574"><ele>366.0</ele><time>2026-04-26T11:14:09.001Z</time></trkpt><trkpt lat="40.59418565293336" lon="16.12713185225892"><ele>366.0</ele><time>2026-04-26T11:14:11.001Z</time></trkpt><trkpt lat="40.59415931338738" lon="16.127230273062448"><ele>366.0</ele><time>2026-04-26T11:14:13.001Z</time></trkpt><trkpt lat="40.59416124959623" lon="16.127350907789754"><ele>366.0</ele><time>2026-04-26T11:14:15.001Z</time></trkpt><trkpt lat="40.59417716341678" lon="16.1274615075356"><ele>366.0</ele><time>2026-04-26T11:14:17.001Z</time></trkpt><trkpt lat="40.59415122194172" lon="16.12756423494116"><ele>366.0</ele><time>2026-04-26T11:14:20.001Z</time></trkpt><trkpt lat="40.594043275744355" lon="16.127628766895736"><ele>365.0</ele><time>2026-04-26T11:14:23.001Z</time></trkpt><trkpt lat="40.5939778271089" lon="16.12758949726845"><ele>364.0</ele><time>2026-04-26T11:14:24.001Z</time></trkpt><trkpt lat="40.59391790964318" lon="16.127550738875236"><ele>363.0</ele><time>2026-04-26T11:14:25.001Z</time></trkpt><trkpt lat="40.593840733391225" lon="16.127521993303002"><ele>362.0</ele><time>2026-04-26T11:14:26.001Z</time></trkpt><trkpt lat="40.59374447466609" lon="16.12750956684876"><ele>361.0</ele><time>2026-04-26T11:14:28.001Z</time></trkpt><trkpt lat="40.59366237777502" lon="16.127496366929662"><ele>360.0</ele><time>2026-04-26T11:14:30.001Z</time></trkpt><trkpt lat="40.59357909212272" lon="16.127505180057366"><ele>360.0</ele><time>2026-04-26T11:14:32.001Z</time></trkpt><trkpt lat="40.59348061731701" lon="16.127494883697622"><ele>360.0</ele><time>2026-04-26T11:14:34.001Z</time></trkpt><trkpt lat="40.593398197407424" lon="16.127494513244436"><ele>360.0</ele><time>2026-04-26T11:14:37.001Z</time></trkpt><trkpt lat="40.59333921613762" lon="16.127430452176597"><ele>360.0</ele><time>2026-04-26T11:14:40.001Z</time></trkpt><trkpt lat="40.59327035933598" lon="16.127362296812706"><ele>360.0</ele><time>2026-04-26T11:14:43.001Z</time></trkpt><trkpt lat="40.59319635600606" lon="16.127348982819523"><ele>360.0</ele><time>2026-04-26T11:14:45.001Z</time></trkpt><trkpt lat="40.593121933906666" lon="16.12733830007344"><ele>360.0</ele><time>2026-04-26T11:14:47.001Z</time></trkpt><trkpt lat="40.59304837314354" lon="16.12736879895907"><ele>360.0</ele><time>2026-04-26T11:14:49.001Z</time></trkpt><trkpt lat="40.59298481697283" lon="16.12740000719535"><ele>360.0</ele><time>2026-04-26T11:14:51.001Z</time></trkpt><trkpt lat="40.59291899588079" lon="16.127391257652977"><ele>360.0</ele><time>2026-04-26T11:14:54.001Z</time></trkpt><trkpt lat="40.592858255816644" lon="16.127416223814084"><ele>360.0</ele><time>2026-04-26T11:14:57.001Z</time></trkpt><trkpt lat="40.5927868554427" lon="16.12737163828045"><ele>360.0</ele><time>2026-04-26T11:14:59.001Z</time></trkpt><trkpt lat="40.592715835366455" lon="16.127298605799613"><ele>360.0</ele><time>2026-04-26T11:15:03.001Z</time></trkpt><trkpt lat="40.59266259003561" lon="16.127242433944776"><ele>354.8</ele><time>2026-04-26T11:15:05.001Z</time></trkpt><trkpt lat="40.592601208941694" lon="16.127185105047488"><ele>349.6</ele><time>2026-04-26T11:15:06.001Z</time></trkpt><trkpt lat="40.59252876007369" lon="16.12717903830665"><ele>344.4</ele><time>2026-04-26T11:15:08.001Z</time></trkpt><trkpt lat="40.59244675005927" lon="16.12725616180229"><ele>339.2</ele><time>2026-04-26T11:15:10.001Z</time></trkpt><trkpt lat="40.59243102518775" lon="16.127409193335687"><ele>334.0</ele><time>2026-04-26T11:15:12.001Z</time></trkpt><trkpt lat="40.59247046189896" lon="16.127553863878823"><ele>334.0</ele><time>2026-04-26T11:15:14.001Z</time></trkpt><trkpt lat="40.592516806052096" lon="16.127682500749533"><ele>334.0</ele><time>2026-04-26T11:15:16.001Z</time></trkpt><trkpt lat="40.592514743968955" lon="16.127802799457807"><ele>334.0</ele><time>2026-04-26T11:15:18.001Z</time></trkpt><trkpt lat="40.59249545559871" lon="16.12794087890212"><ele>334.0</ele><time>2026-04-26T11:15:20.001Z</time></trkpt><trkpt lat="40.592429745329056" lon="16.128025951363234"><ele>334.0</ele><time>2026-04-26T11:15:22.001Z</time></trkpt><trkpt lat="40.59236544235574" lon="16.12805349898135"><ele>334.0</ele><time>2026-04-26T11:15:24.001Z</time></trkpt><trkpt lat="40.59228875910304" lon="16.128004547334754"><ele>334.0</ele><time>2026-04-26T11:15:26.001Z</time></trkpt><trkpt lat="40.592185145938245" lon="16.127943650282383"><ele>334.0</ele><time>2026-04-26T11:15:28.001Z</time></trkpt><trkpt lat="40.59211820449197" lon="16.127946393354854"><ele>334.0</ele><time>2026-04-26T11:15:31.001Z</time></trkpt><trkpt lat="40.59199783050892" lon="16.12792814948197"><ele>334.0</ele><time>2026-04-26T11:15:34.001Z</time></trkpt><trkpt lat="40.5919340748393" lon="16.127917022115803"><ele>329.8333333333333</ele><time>2026-04-26T11:15:36.001Z</time></trkpt><trkpt lat="40.59183664243546" lon="16.127877521874723"><ele>325.66666666666663</ele><time>2026-04-26T11:15:39.001Z</time></trkpt><trkpt lat="40.591748915432746" lon="16.127857882567785"><ele>321.5</ele><time>2026-04-26T11:15:41.001Z</time></trkpt><trkpt lat="40.59168402609671" lon="16.127868580418774"><ele>317.3333333333333</ele><time>2026-04-26T11:15:42.001Z</time></trkpt><trkpt lat="40.59160754460505" lon="16.127905541814357"><ele>313.1666666666667</ele><time>2026-04-26T11:15:43.001Z</time></trkpt><trkpt lat="40.59156294516597" lon="16.128002879469964"><ele>309.0</ele><time>2026-04-26T11:15:44.001Z</time></trkpt><trkpt lat="40.591533124055175" lon="16.128086572778766"><ele>309.0</ele><time>2026-04-26T11:15:45.001Z</time></trkpt><trkpt lat="40.59151606433226" lon="16.128201912485768"><ele>309.0</ele><time>2026-04-26T11:15:46.001Z</time></trkpt><trkpt lat="40.591488903197586" lon="16.12830005609505"><ele>309.0</ele><time>2026-04-26T11:15:47.001Z</time></trkpt><trkpt lat="40.591472777861405" lon="16.128384054152157"><ele>309.0</ele><time>2026-04-26T11:15:48.001Z</time></trkpt><trkpt lat="40.591485825476624" lon="16.128510058655596"><ele>309.0</ele><time>2026-04-26T11:15:50.001Z</time></trkpt><trkpt lat="40.59149272886304" lon="16.128631432239327"><ele>309.0</ele><time>2026-04-26T11:15:52.001Z</time></trkpt><trkpt lat="40.59146481909301" lon="16.128706668078895"><ele>311.4</ele><time>2026-04-26T11:15:53.001Z</time></trkpt><trkpt lat="40.59141697236281" lon="16.128775953860067"><ele>313.79999999999995</ele><time>2026-04-26T11:15:55.001Z</time></trkpt><trkpt lat="40.59137351417227" lon="16.128842733219816"><ele>316.20000000000005</ele><time>2026-04-26T11:15:57Z</time></trkpt><trkpt lat="40.591310273267084" lon="16.12896182033882"><ele>318.6</ele><time>2026-04-26T11:15:59Z</time></trkpt><trkpt lat="40.59120802519209" lon="16.129059137229294"><ele>321.0</ele><time>2026-04-26T11:16:02Z</time></trkpt><trkpt lat="40.59115054235694" lon="16.129125810945446"><ele>320.99999999999994</ele><time>2026-04-26T11:16:03Z</time></trkpt><trkpt lat="40.59109657016483" lon="16.129178399456844"><ele>321.0</ele><time>2026-04-26T11:16:04Z</time></trkpt><trkpt lat="40.59106536724814" lon="16.12929137430399"><ele>321.0</ele><time>2026-04-26T11:16:06Z</time></trkpt><trkpt lat="40.59102403271547" lon="16.12935434398528"><ele>321.0</ele><time>2026-04-26T11:16:08Z</time></trkpt><trkpt lat="40.59096379832503" lon="16.129397539911636"><ele>321.0</ele><time>2026-04-26T11:16:10Z</time></trkpt><trkpt lat="40.59089492795007" lon="16.12945396686628"><ele>320.99999999999994</ele><time>2026-04-26T11:16:14Z</time></trkpt><trkpt lat="40.590850542762155" lon="16.129526775314798"><ele>321.0</ele><time>2026-04-26T11:16:16Z</time></trkpt><trkpt lat="40.590792502224424" lon="16.129620025450972"><ele>321.0</ele><time>2026-04-26T11:16:19Z</time></trkpt><trkpt lat="40.59072988418637" lon="16.129700629161803"><ele>321.0</ele><time>2026-04-26T11:16:21Z</time></trkpt><trkpt lat="40.590680444718366" lon="16.129758885637983"><ele>321.0</ele><time>2026-04-26T11:16:23Z</time></trkpt><trkpt lat="40.5906307769717" lon="16.12985294650243"><ele>321.0</ele><time>2026-04-26T11:16:25Z</time></trkpt><trkpt lat="40.59057357605819" lon="16.129948701292975"><ele>321.0</ele><time>2026-04-26T11:16:29Z</time></trkpt><trkpt lat="40.590548681298394" lon="16.13002981390674"><ele>321.0</ele><time>2026-04-26T11:16:31Z</time></trkpt><trkpt lat="40.590532724153036" lon="16.130129372590392"><ele>321.3333333333333</ele><time>2026-04-26T11:16:33Z</time></trkpt><trkpt lat="40.59053600333086" lon="16.130248563952037"><ele>321.6666666666667</ele><time>2026-04-26T11:16:36Z</time></trkpt><trkpt lat="40.59053450093098" lon="16.13034111552369"><ele>322.0</ele><time>2026-04-26T11:16:38Z</time></trkpt><trkpt lat="40.59054143812463" lon="16.13051147904135"><ele>322.33333333333337</ele><time>2026-04-26T11:16:41Z</time></trkpt><trkpt lat="40.59057344226967" lon="16.13058769184512"><ele>322.6666666666667</ele><time>2026-04-26T11:16:42Z</time></trkpt><trkpt lat="40.590615660824014" lon="16.13069180535354"><ele>323.0</ele><time>2026-04-26T11:16:44Z</time></trkpt><trkpt lat="40.59064779857915" lon="16.130768175248395"><ele>323.0</ele><time>2026-04-26T11:16:46Z</time></trkpt><trkpt lat="40.590624504998154" lon="16.13089477869225"><ele>323.0</ele><time>2026-04-26T11:16:49Z</time></trkpt><trkpt lat="40.59054392154057" lon="16.13093610872991"><ele>323.0</ele><time>2026-04-26T11:16:51Z</time></trkpt><trkpt lat="40.59049409142277" lon="16.13098823330875"><ele>323.0</ele><time>2026-04-26T11:16:53Z</time></trkpt><trkpt lat="40.59049932195262" lon="16.13111848064966"><ele>323.0</ele><time>2026-04-26T11:16:55Z</time></trkpt><trkpt lat="40.5904832795179" lon="16.131224397645923"><ele>323.0</ele><time>2026-04-26T11:16:57Z</time></trkpt><trkpt lat="40.59046380976126" lon="16.131353683369795"><ele>323.0</ele><time>2026-04-26T11:16:59Z</time></trkpt><trkpt lat="40.59051779888058" lon="16.13149659650984"><ele>323.0</ele><time>2026-04-26T11:17:01Z</time></trkpt><trkpt lat="40.5905675284166" lon="16.13156232027544"><ele>323.0</ele><time>2026-04-26T11:17:02Z</time></trkpt><trkpt lat="40.59063530676279" lon="16.13160301658242"><ele>323.0</ele><time>2026-04-26T11:17:03Z</time></trkpt><trkpt lat="40.590695881628456" lon="16.13163935697254"><ele>323.0</ele><time>2026-04-26T11:17:04Z</time></trkpt><trkpt lat="40.590690462455626" lon="16.13176061777097"><ele>323.0</ele><time>2026-04-26T11:17:08Z</time></trkpt><trkpt lat="40.590680227821274" lon="16.131866262174817"><ele>324.0</ele><time>2026-04-26T11:17:09Z</time></trkpt><trkpt lat="40.590670165551295" lon="16.131972863841312"><ele>325.0</ele><time>2026-04-26T11:17:10Z</time></trkpt><trkpt lat="40.59066784280312" lon="16.132077528483407"><ele>326.0</ele><time>2026-04-26T11:17:11Z</time></trkpt><trkpt lat="40.590664594115594" lon="16.132175766980584"><ele>327.0</ele><time>2026-04-26T11:17:12Z</time></trkpt><trkpt lat="40.59066911865118" lon="16.132268239814152"><ele>328.0</ele><time>2026-04-26T11:17:13Z</time></trkpt><trkpt lat="40.59067616875526" lon="16.132383983763045"><ele>329.0</ele><time>2026-04-26T11:17:14Z</time></trkpt><trkpt lat="40.590704846975115" lon="16.132491248926748"><ele>330.0</ele><time>2026-04-26T11:17:15Z</time></trkpt><trkpt lat="40.59072273008583" lon="16.132574396690732"><ele>331.0</ele><time>2026-04-26T11:17:16Z</time></trkpt><trkpt lat="40.59074717231618" lon="16.132681301642126"><ele>332.0</ele><time>2026-04-26T11:17:18Z</time></trkpt><trkpt lat="40.59067360767855" lon="16.132723370666238"><ele>333.0</ele><time>2026-04-26T11:17:20Z</time></trkpt><trkpt lat="40.5906006446088" lon="16.132795443280095"><ele>334.0</ele><time>2026-04-26T11:17:22Z</time></trkpt><trkpt lat="40.59052426561862" lon="16.132875779279868"><ele>335.0</ele><time>2026-04-26T11:17:24Z</time></trkpt><trkpt lat="40.59045269216712" lon="16.13293577874481"><ele>335.0</ele><time>2026-04-26T11:17:26Z</time></trkpt><trkpt lat="40.59039398270545" lon="16.133027640994403"><ele>335.0</ele><time>2026-04-26T11:17:28Z</time></trkpt><trkpt lat="40.59034914853491" lon="16.133133717268887"><ele>335.0</ele><time>2026-04-26T11:17:30Z</time></trkpt><trkpt lat="40.590321265206185" lon="16.13323859397802"><ele>335.0</ele><time>2026-04-26T11:17:32Z</time></trkpt><trkpt lat="40.590340866473724" lon="16.13331874474036"><ele>335.0</ele><time>2026-04-26T11:17:34Z</time></trkpt><trkpt lat="40.59025472382922" lon="16.133317293876587"><ele>335.0</ele><time>2026-04-26T11:18:04Z</time></trkpt><trkpt lat="40.590187026869906" lon="16.133299161469736"><ele>330.99999999999994</ele><time>2026-04-26T11:18:06Z</time></trkpt><trkpt lat="40.59014369433595" lon="16.133236754513703"><ele>327.0</ele><time>2026-04-26T11:18:08Z</time></trkpt><trkpt lat="40.59009556348555" lon="16.133182707594166"><ele>323.0</ele><time>2026-04-26T11:18:25Z</time></trkpt><trkpt lat="40.589998625208786" lon="16.13315276083697"><ele>319.0</ele><time>2026-04-26T11:18:34Z</time></trkpt><trkpt lat="40.589924969172166" lon="16.133203564537485"><ele>315.0</ele><time>2026-04-26T11:19:10Z</time></trkpt><trkpt lat="40.58985543012646" lon="16.133182863775918"><ele>310.99999999999994</ele><time>2026-04-26T11:20:58Z</time></trkpt><trkpt lat="40.58979163910135" lon="16.13321007461666"><ele>307.0</ele><time>2026-04-26T11:21:08Z</time></trkpt><trkpt lat="40.58972938330908" lon="16.13313980700364"><ele>306.16666666666663</ele><time>2026-04-26T11:21:14Z</time></trkpt><trkpt lat="40.58972559901849" lon="16.133041078368123"><ele>305.3333333333333</ele><time>2026-04-26T11:21:19Z</time></trkpt><trkpt lat="40.58973469614719" lon="16.13294707408826"><ele>304.5</ele><time>2026-04-26T11:21:24Z</time></trkpt><trkpt lat="40.589689676792105" lon="16.132869389472372"><ele>303.6666666666667</ele><time>2026-04-26T11:21:29Z</time></trkpt><trkpt lat="40.589636621375384" lon="16.132771364897042"><ele>302.83333333333337</ele><time>2026-04-26T11:21:32Z</time></trkpt><trkpt lat="40.58960129455648" lon="16.13267938710506"><ele>302.0</ele><time>2026-04-26T11:21:37Z</time></trkpt><trkpt lat="40.58954082790162" lon="16.132651315223757"><ele>298.00000000000006</ele><time>2026-04-26T11:21:45Z</time></trkpt><trkpt lat="40.58947347522824" lon="16.132668215740225"><ele>294.0</ele><time>2026-04-26T11:21:50Z</time></trkpt><trkpt lat="40.58940924873799" lon="16.132699428350016"><ele>290.0</ele><time>2026-04-26T11:22:32Z</time></trkpt><trkpt lat="40.589330286373546" lon="16.13270046434767"><ele>286.0</ele><time>2026-04-26T11:22:39Z</time></trkpt><trkpt lat="40.58925768737959" lon="16.132681500487646"><ele>282.0</ele><time>2026-04-26T11:22:44Z</time></trkpt><trkpt lat="40.589232238600324" lon="16.132757732052152"><ele>278.00000000000006</ele><time>2026-04-26T11:22:53Z</time></trkpt><trkpt lat="40.58917949380741" lon="16.132813668139665"><ele>274.0</ele><time>2026-04-26T11:23:03Z</time></trkpt><trkpt lat="40.58911744724412" lon="16.132891029391597"><ele>274.0</ele><time>2026-04-26T11:23:09Z</time></trkpt><trkpt lat="40.589098783925564" lon="16.13298443283194"><ele>274.0</ele><time>2026-04-26T11:23:36Z</time></trkpt><trkpt lat="40.589034941655996" lon="16.133052004159982"><ele>274.0</ele><time>2026-04-26T11:23:45Z</time></trkpt><trkpt lat="40.58896261544473" lon="16.133078044077926"><ele>274.0</ele><time>2026-04-26T11:23:48Z</time></trkpt><trkpt lat="40.588892887224915" lon="16.133087192511173"><ele>274.0</ele><time>2026-04-26T11:23:50Z</time></trkpt><trkpt lat="40.58884455252236" lon="16.133181588229053"><ele>274.0</ele><time>2026-04-26T11:23:52Z</time></trkpt><trkpt lat="40.58882876519515" lon="16.133276032465663"><ele>273.8333333333333</ele><time>2026-04-26T11:27:27Z</time></trkpt><trkpt lat="40.5887977021177" lon="16.133383859107347"><ele>273.66666666666663</ele><time>2026-04-26T11:27:29Z</time></trkpt><trkpt lat="40.58879963118797" lon="16.13347816965799"><ele>273.5</ele><time>2026-04-26T11:27:32Z</time></trkpt><trkpt lat="40.588751540549644" lon="16.13355958838457"><ele>273.3333333333333</ele><time>2026-04-26T11:27:34Z</time></trkpt><trkpt lat="40.58869392499141" lon="16.133626531730943"><ele>273.1666666666667</ele><time>2026-04-26T11:27:36Z</time></trkpt><trkpt lat="40.58868056002525" lon="16.1337161133635"><ele>273.0</ele><time>2026-04-26T11:27:42Z</time></trkpt><trkpt lat="40.588735481500784" lon="16.13382231881704"><ele>273.0</ele><time>2026-04-26T11:27:46Z</time></trkpt><trkpt lat="40.58877032999551" lon="16.133916425244347"><ele>273.0</ele><time>2026-04-26T11:27:49Z</time></trkpt><trkpt lat="40.58883553696366" lon="16.133920878888738"><ele>273.0</ele><time>2026-04-26T11:27:50Z</time></trkpt><trkpt lat="40.588876783350734" lon="16.134007677587583"><ele>273.0</ele><time>2026-04-26T11:28:04Z</time></trkpt><trkpt lat="40.588850235533435" lon="16.13410205402772"><ele>273.0</ele><time>2026-04-26T11:28:08Z</time></trkpt><trkpt lat="40.58877539110982" lon="16.13412691389493"><ele>273.0</ele><time>2026-04-26T11:28:10Z</time></trkpt><trkpt lat="40.58872025656049" lon="16.134203393233776"><ele>271.5</ele><time>2026-04-26T11:28:13Z</time></trkpt><trkpt lat="40.58866272637082" lon="16.134248377515398"><ele>270.0</ele><time>2026-04-26T11:28:15Z</time></trkpt><trkpt lat="40.58859833976716" lon="16.134351042489644"><ele>268.5</ele><time>2026-04-26T11:28:18Z</time></trkpt><trkpt lat="40.58854922695551" lon="16.134419560523913"><ele>267.0</ele><time>2026-04-26T11:28:20Z</time></trkpt><trkpt lat="40.588491353140355" lon="16.134499876740676"><ele>265.5</ele><time>2026-04-26T11:28:22.999Z</time></trkpt><trkpt lat="40.5884940513762" lon="16.134616300099047"><ele>264.0</ele><time>2026-04-26T11:28:25.999Z</time></trkpt><trkpt lat="40.58852465404366" lon="16.134707307811123"><ele>264.0</ele><time>2026-04-26T11:28:27.999Z</time></trkpt><trkpt lat="40.58858603912497" lon="16.134763108737218"><ele>264.0</ele><time>2026-04-26T11:28:32.999Z</time></trkpt><trkpt lat="40.58861747064474" lon="16.134861836416857"><ele>264.0</ele><time>2026-04-26T11:28:35.999Z</time></trkpt><trkpt lat="40.58866892288858" lon="16.134955725967224"><ele>264.0</ele><time>2026-04-26T11:28:38.999Z</time></trkpt><trkpt lat="40.588687226118346" lon="16.13506445522526"><ele>264.0</ele><time>2026-04-26T11:28:40.999Z</time></trkpt><trkpt lat="40.58868236284417" lon="16.135154363601853"><ele>264.0</ele><time>2026-04-26T11:28:43Z</time></trkpt><trkpt lat="40.588644734611464" lon="16.135224804881382"><ele>263.3333333333333</ele><time>2026-04-26T11:28:45Z</time></trkpt><trkpt lat="40.58862257206161" lon="16.13530561067824"><ele>262.6666666666667</ele><time>2026-04-26T11:28:47Z</time></trkpt><trkpt lat="40.58860290398849" lon="16.1353890432805"><ele>262.0</ele><time>2026-04-26T11:28:49Z</time></trkpt><trkpt lat="40.588604708014415" lon="16.13554151864322"><ele>261.33333333333337</ele><time>2026-04-26T11:28:51Z</time></trkpt><trkpt lat="40.58861685812644" lon="16.13562773567758"><ele>260.6666666666667</ele><time>2026-04-26T11:28:52Z</time></trkpt><trkpt lat="40.5886928312603" lon="16.135763860898166"><ele>260.0</ele><time>2026-04-26T11:28:54Z</time></trkpt><trkpt lat="40.58874949609687" lon="16.1358589471083"><ele>262.33333333333337</ele><time>2026-04-26T11:28:55Z</time></trkpt><trkpt lat="40.58879568626602" lon="16.13594285359299"><ele>264.6666666666667</ele><time>2026-04-26T11:28:56Z</time></trkpt><trkpt lat="40.58882647936179" lon="16.13603356759883"><ele>267.0</ele><time>2026-04-26T11:28:57Z</time></trkpt><trkpt lat="40.588844734039846" lon="16.136140980389055"><ele>269.3333333333333</ele><time>2026-04-26T11:28:58Z</time></trkpt><trkpt lat="40.58886449828112" lon="16.136253714386914"><ele>271.66666666666663</ele><time>2026-04-26T11:28:59Z</time></trkpt><trkpt lat="40.58889823767817" lon="16.13636262620207"><ele>274.0</ele><time>2026-04-26T11:29:00Z</time></trkpt><trkpt lat="40.58895519212804" lon="16.136509416998553"><ele>271.3333333333333</ele><time>2026-04-26T11:29:02Z</time></trkpt><trkpt lat="40.58900988182821" lon="16.136595178325006"><ele>268.66666666666663</ele><time>2026-04-26T11:29:03Z</time></trkpt><trkpt lat="40.589065246410996" lon="16.13669430379974"><ele>266.0</ele><time>2026-04-26T11:29:04Z</time></trkpt><trkpt lat="40.58912074093754" lon="16.136792250362635"><ele>263.3333333333333</ele><time>2026-04-26T11:29:05Z</time></trkpt><trkpt lat="40.58916525052556" lon="16.136880878329954"><ele>260.6666666666667</ele><time>2026-04-26T11:29:06Z</time></trkpt><trkpt lat="40.58921220115026" lon="16.136978566140264"><ele>258.0</ele><time>2026-04-26T11:29:07Z</time></trkpt><trkpt lat="40.589260488486715" lon="16.137078730556354"><ele>258.0</ele><time>2026-04-26T11:29:08Z</time></trkpt><trkpt lat="40.58930178284517" lon="16.137171257764948"><ele>258.0</ele><time>2026-04-26T11:29:09Z</time></trkpt><trkpt lat="40.58934222780563" lon="16.13725582780621"><ele>258.0</ele><time>2026-04-26T11:29:10Z</time></trkpt><trkpt lat="40.589377800468895" lon="16.137331576487963"><ele>258.0</ele><time>2026-04-26T11:29:11Z</time></trkpt><trkpt lat="40.58944434415929" lon="16.137470559165166"><ele>258.0</ele><time>2026-04-26T11:29:13Z</time></trkpt><trkpt lat="40.589493041047575" lon="16.13753357437107"><ele>258.0</ele><time>2026-04-26T11:29:16Z</time></trkpt><trkpt lat="40.58951884388488" lon="16.137617490593236"><ele>258.99999999999994</ele><time>2026-04-26T11:29:20Z</time></trkpt><trkpt lat="40.589534958176664" lon="16.137698843715576"><ele>260.0</ele><time>2026-04-26T11:29:22Z</time></trkpt><trkpt lat="40.58957495678586" lon="16.13778263951749"><ele>261.0</ele><time>2026-04-26T11:29:24Z</time></trkpt><trkpt lat="40.5896270710204" lon="16.13783797150678"><ele>262.0</ele><time>2026-04-26T11:29:26Z</time></trkpt><trkpt lat="40.58969480663301" lon="16.13784927899109"><ele>263.0</ele><time>2026-04-26T11:29:29Z</time></trkpt><trkpt lat="40.58975828709965" lon="16.13791792805709"><ele>263.99999999999994</ele><time>2026-04-26T11:29:32Z</time></trkpt><trkpt lat="40.58976429012352" lon="16.13803632965324"><ele>265.0</ele><time>2026-04-26T11:29:35Z</time></trkpt><trkpt lat="40.589792407598814" lon="16.13813939313189"><ele>263.5</ele><time>2026-04-26T11:29:37Z</time></trkpt><trkpt lat="40.58973833019088" lon="16.138239474635235"><ele>262.0</ele><time>2026-04-26T11:29:46Z</time></trkpt><trkpt lat="40.589738327074194" lon="16.13834982089338"><ele>260.5</ele><time>2026-04-26T11:29:48Z</time></trkpt><trkpt lat="40.58978488622502" lon="16.138422729957153"><ele>259.0</ele><time>2026-04-26T11:29:51Z</time></trkpt><trkpt lat="40.58982691327438" lon="16.13849086452786"><ele>257.5</ele><time>2026-04-26T11:29:53Z</time></trkpt><trkpt lat="40.58983870412102" lon="16.138602887921255"><ele>256.0</ele><time>2026-04-26T11:29:55Z</time></trkpt><trkpt lat="40.58989518005808" lon="16.138736845181125"><ele>255.99999999999997</ele><time>2026-04-26T11:29:57Z</time></trkpt><trkpt lat="40.58993724678376" lon="16.138833631105516"><ele>256.0</ele><time>2026-04-26T11:29:58Z</time></trkpt><trkpt lat="40.589979410284734" lon="16.138941495798555"><ele>256.0</ele><time>2026-04-26T11:29:59Z</time></trkpt><trkpt lat="40.590026529209084" lon="16.138998062642436"><ele>256.0</ele><time>2026-04-26T11:30:00Z</time></trkpt><trkpt lat="40.59007787833093" lon="16.139046754385866"><ele>255.99999999999997</ele><time>2026-04-26T11:30:01Z</time></trkpt><trkpt lat="40.59016406793378" lon="16.13911977173577"><ele>256.0</ele><time>2026-04-26T11:30:03Z</time></trkpt><trkpt lat="40.59024591245867" lon="16.139145886483774"><ele>257.0</ele><time>2026-04-26T11:30:05Z</time></trkpt><trkpt lat="40.590358060383444" lon="16.139162812303784"><ele>258.0</ele><time>2026-04-26T11:30:07Z</time></trkpt><trkpt lat="40.590436520317894" lon="16.139204470816264"><ele>259.0</ele><time>2026-04-26T11:30:11Z</time></trkpt><trkpt lat="40.59046450747494" lon="16.139294693173493"><ele>260.0</ele><time>2026-04-26T11:30:13Z</time></trkpt><trkpt lat="40.59055065454005" lon="16.13931818836403"><ele>261.0</ele><time>2026-04-26T11:30:15Z</time></trkpt><trkpt lat="40.59064001528798" lon="16.139373032096692"><ele>261.0</ele><time>2026-04-26T11:30:17Z</time></trkpt><trkpt lat="40.590692116434425" lon="16.139466480750762"><ele>261.0</ele><time>2026-04-26T11:30:19Z</time></trkpt><trkpt lat="40.59076160341909" lon="16.139544376631545"><ele>261.0</ele><time>2026-04-26T11:30:21Z</time></trkpt><trkpt lat="40.590802239522766" lon="16.139691297140665"><ele>261.0</ele><time>2026-04-26T11:30:23Z</time></trkpt><trkpt lat="40.590820812255096" lon="16.13978812416276"><ele>261.0</ele><time>2026-04-26T11:30:24Z</time></trkpt><trkpt lat="40.59084018771401" lon="16.13988515718349"><ele>259.5</ele><time>2026-04-26T11:30:25Z</time></trkpt><trkpt lat="40.590855362991064" lon="16.13998501764786"><ele>258.0</ele><time>2026-04-26T11:30:26Z</time></trkpt><trkpt lat="40.590873134338764" lon="16.14009524332958"><ele>256.5</ele><time>2026-04-26T11:30:27Z</time></trkpt><trkpt lat="40.59089897391782" lon="16.140193044833463"><ele>255.0</ele><time>2026-04-26T11:30:28Z</time></trkpt><trkpt lat="40.59090870043648" lon="16.140278680112907"><ele>253.5</ele><time>2026-04-26T11:30:29Z</time></trkpt><trkpt lat="40.59094409183891" lon="16.14041014176515"><ele>252.0</ele><time>2026-04-26T11:30:31Z</time></trkpt><trkpt lat="40.590966404969194" lon="16.140545539956634"><ele>252.0</ele><time>2026-04-26T11:30:33Z</time></trkpt><trkpt lat="40.59096661154176" lon="16.140630140282276"><ele>252.0</ele><time>2026-04-26T11:30:34Z</time></trkpt><trkpt lat="40.59097131742958" lon="16.1407141792996"><ele>252.0</ele><time>2026-04-26T11:30:35Z</time></trkpt><trkpt lat="40.590951947545506" lon="16.140807424059773"><ele>252.0</ele><time>2026-04-26T11:30:38Z</time></trkpt><trkpt lat="40.59088767924625" lon="16.140858639967156"><ele>252.0</ele><time>2026-04-26T11:30:42Z</time></trkpt><trkpt lat="40.59087454450379" lon="16.140941776814827"><ele>252.0</ele><time>2026-04-26T11:30:44Z</time></trkpt><trkpt lat="40.59091987770809" lon="16.141066968992074"><ele>252.0</ele><time>2026-04-26T11:30:46Z</time></trkpt><trkpt lat="40.59096223811089" lon="16.141175604389097"><ele>251.6</ele><time>2026-04-26T11:30:48Z</time></trkpt><trkpt lat="40.59093452094903" lon="16.141289189305223"><ele>251.2</ele><time>2026-04-26T11:30:50Z</time></trkpt><trkpt lat="40.590926228553606" lon="16.141405624325074"><ele>250.8</ele><time>2026-04-26T11:30:52Z</time></trkpt><trkpt lat="40.59096463371088" lon="16.14154231819626"><ele>250.4</ele><time>2026-04-26T11:30:54Z</time></trkpt><trkpt lat="40.590932947338885" lon="16.141674123763607"><ele>250.0</ele><time>2026-04-26T11:30:57Z</time></trkpt><trkpt lat="40.590903661580754" lon="16.14177218703161"><ele>249.99999999999997</ele><time>2026-04-26T11:30:59Z</time></trkpt><trkpt lat="40.590892682331926" lon="16.141858847766176"><ele>250.0</ele><time>2026-04-26T11:31:01Z</time></trkpt><trkpt lat="40.59085163338985" lon="16.14198378904268"><ele>250.0</ele><time>2026-04-26T11:31:05Z</time></trkpt><trkpt lat="40.59085589546598" lon="16.142117183454637"><ele>250.0</ele><time>2026-04-26T11:31:07Z</time></trkpt><trkpt lat="40.59080042003836" lon="16.142208595702755"><ele>249.99999999999997</ele><time>2026-04-26T11:31:10Z</time></trkpt><trkpt lat="40.590768519780895" lon="16.142296501479464"><ele>250.0</ele><time>2026-04-26T11:31:12Z</time></trkpt><trkpt lat="40.59075143185373" lon="16.142426843564486"><ele>250.4</ele><time>2026-04-26T11:31:15Z</time></trkpt><trkpt lat="40.59073157069824" lon="16.14252332168403"><ele>250.8</ele><time>2026-04-26T11:31:18Z</time></trkpt><trkpt lat="40.590723845502" lon="16.142658913221254"><ele>251.2</ele><time>2026-04-26T11:31:21Z</time></trkpt><trkpt lat="40.59071511679123" lon="16.14279109037967"><ele>251.6</ele><time>2026-04-26T11:31:23Z</time></trkpt><trkpt lat="40.59069043445429" lon="16.142956929001937"><ele>252.0</ele><time>2026-04-26T11:31:25Z</time></trkpt><trkpt lat="40.59067067653168" lon="16.14304015271314"><ele>252.0</ele><time>2026-04-26T11:31:26Z</time></trkpt><trkpt lat="40.59064389927489" lon="16.143181929583417"><ele>252.0</ele><time>2026-04-26T11:31:28Z</time></trkpt><trkpt lat="40.59062324603818" lon="16.143319311785053"><ele>252.0</ele><time>2026-04-26T11:31:30Z</time></trkpt><trkpt lat="40.590669880380815" lon="16.14342040333196"><ele>252.0</ele><time>2026-04-26T11:31:32Z</time></trkpt><trkpt lat="40.59073347895345" lon="16.14352216077948"><ele>252.0</ele><time>2026-04-26T11:31:34Z</time></trkpt><trkpt lat="40.590787008864794" lon="16.14362897767658"><ele>252.16666666666666</ele><time>2026-04-26T11:31:36Z</time></trkpt><trkpt lat="40.59079713242558" lon="16.14373150852312"><ele>252.33333333333331</ele><time>2026-04-26T11:31:48Z</time></trkpt><trkpt lat="40.590851454395114" lon="16.143790484219704"><ele>252.5</ele><time>2026-04-26T11:31:56Z</time></trkpt><trkpt lat="40.5909179449622" lon="16.143797367786174"><ele>252.66666666666666</ele><time>2026-04-26T11:31:58Z</time></trkpt><trkpt lat="40.590898087710784" lon="16.143906654618025"><ele>252.83333333333331</ele><time>2026-04-26T11:32:01Z</time></trkpt><trkpt lat="40.59091599270312" lon="16.143991529919866"><ele>253.0</ele><time>2026-04-26T11:32:03Z</time></trkpt><trkpt lat="40.59099091957505" lon="16.144077477493468"><ele>252.2</ele><time>2026-04-26T11:32:06Z</time></trkpt><trkpt lat="40.591031153827984" lon="16.144220007548586"><ele>251.4</ele><time>2026-04-26T11:32:08Z</time></trkpt><trkpt lat="40.591029959146034" lon="16.144318161695015"><ele>250.59999999999997</ele><time>2026-04-26T11:32:10Z</time></trkpt><trkpt lat="40.591111198836884" lon="16.144374428149145"><ele>249.79999999999998</ele><time>2026-04-26T11:32:13Z</time></trkpt><trkpt lat="40.59117208275546" lon="16.144471909170047"><ele>249.0</ele><time>2026-04-26T11:32:17.001Z</time></trkpt><trkpt lat="40.591183883608004" lon="16.144604700521487"><ele>249.0</ele><time>2026-04-26T11:32:20.001Z</time></trkpt><trkpt lat="40.59118216834772" lon="16.14468857119668"><ele>249.0</ele><time>2026-04-26T11:32:21.001Z</time></trkpt><trkpt lat="40.591173600790455" lon="16.14479423877973"><ele>249.0</ele><time>2026-04-26T11:32:22.001Z</time></trkpt><trkpt lat="40.59117292687068" lon="16.14488126174295"><ele>249.0</ele><time>2026-04-26T11:32:23.001Z</time></trkpt><trkpt lat="40.59121244679007" lon="16.14498241016121"><ele>249.0</ele><time>2026-04-26T11:32:25.001Z</time></trkpt><trkpt lat="40.59129567664238" lon="16.14503469281546"><ele>249.0</ele><time>2026-04-26T11:32:27.001Z</time></trkpt><trkpt lat="40.59135455231879" lon="16.145122164779416"><ele>250.5</ele><time>2026-04-26T11:32:29.001Z</time></trkpt><trkpt lat="40.591335364220456" lon="16.145207195853366"><ele>252.0</ele><time>2026-04-26T11:32:32.001Z</time></trkpt><trkpt lat="40.59139938234123" lon="16.145331728403328"><ele>253.5</ele><time>2026-04-26T11:32:35Z</time></trkpt><trkpt lat="40.59144495062981" lon="16.145403900542334"><ele>255.0</ele><time>2026-04-26T11:32:37Z</time></trkpt><trkpt lat="40.59150048174837" lon="16.1454598029546"><ele>256.5</ele><time>2026-04-26T11:32:39Z</time></trkpt><trkpt lat="40.59149490793215" lon="16.14558104257479"><ele>258.0</ele><time>2026-04-26T11:32:42Z</time></trkpt><trkpt lat="40.591486331739674" lon="16.14570486986757"><ele>256.4</ele><time>2026-04-26T11:32:45Z</time></trkpt><trkpt lat="40.591513246022586" lon="16.14581212420459"><ele>254.8</ele><time>2026-04-26T11:32:47Z</time></trkpt><trkpt lat="40.5915829546835" lon="16.14592752347661"><ele>253.2</ele><time>2026-04-26T11:32:50Z</time></trkpt><trkpt lat="40.591656704906" lon="16.145993688182187"><ele>251.6</ele><time>2026-04-26T11:32:52Z</time></trkpt><trkpt lat="40.591708414868656" lon="16.146041017336774"><ele>250.0</ele><time>2026-04-26T11:32:55Z</time></trkpt><trkpt lat="40.59181539345413" lon="16.145971122463756"><ele>250.0</ele><time>2026-04-26T11:32:58Z</time></trkpt><trkpt lat="40.5918838545334" lon="16.145901836726406"><ele>250.0</ele><time>2026-04-26T11:32:59Z</time></trkpt><trkpt lat="40.59197004709073" lon="16.14581861883188"><ele>250.0</ele><time>2026-04-26T11:33:00Z</time></trkpt><trkpt lat="40.59206271716288" lon="16.14571850203403"><ele>250.0</ele><time>2026-04-26T11:33:01Z</time></trkpt><trkpt lat="40.59217108835834" lon="16.145639060177807"><ele>250.0</ele><time>2026-04-26T11:33:02Z</time></trkpt><trkpt lat="40.59226828659072" lon="16.14551494300789"><ele>254.4</ele><time>2026-04-26T11:33:03Z</time></trkpt><trkpt lat="40.59235604292918" lon="16.14542732631713"><ele>258.8</ele><time>2026-04-26T11:33:04Z</time></trkpt><trkpt lat="40.592424560591816" lon="16.14534029021566"><ele>263.2</ele><time>2026-04-26T11:33:05Z</time></trkpt><trkpt lat="40.59249268023935" lon="16.14524073839409"><ele>267.6</ele><time>2026-04-26T11:33:06Z</time></trkpt><trkpt lat="40.59257174784295" lon="16.14513722374324"><ele>272.0</ele><time>2026-04-26T11:33:07Z</time></trkpt><trkpt lat="40.592650361347175" lon="16.14503217887023"><ele>272.0</ele><time>2026-04-26T11:33:08Z</time></trkpt><trkpt lat="40.5927550894135" lon="16.144948245704647"><ele>272.0</ele><time>2026-04-26T11:33:09Z</time></trkpt><trkpt lat="40.592813153234516" lon="16.144816100594674"><ele>272.0</ele><time>2026-04-26T11:33:10Z</time></trkpt><trkpt lat="40.592876408104914" lon="16.1446860477974"><ele>272.0</ele><time>2026-04-26T11:33:11Z</time></trkpt><trkpt lat="40.592942040368044" lon="16.144561003107995"><ele>275.8</ele><time>2026-04-26T11:33:12Z</time></trkpt><trkpt lat="40.59300116432044" lon="16.14447424822062"><ele>279.6</ele><time>2026-04-26T11:33:13Z</time></trkpt><trkpt lat="40.59307199488193" lon="16.144412916448115"><ele>283.40000000000003</ele><time>2026-04-26T11:33:14Z</time></trkpt><trkpt lat="40.593144704324935" lon="16.144374847542917"><ele>287.2</ele><time>2026-04-26T11:33:15Z</time></trkpt><trkpt lat="40.59327262246689" lon="16.14437557349825"><ele>291.0</ele><time>2026-04-26T11:33:17Z</time></trkpt><trkpt lat="40.59334119191183" lon="16.14446906899609"><ele>291.0</ele><time>2026-04-26T11:33:18Z</time></trkpt><trkpt lat="40.593399585205646" lon="16.14457052393177"><ele>291.0</ele><time>2026-04-26T11:33:19Z</time></trkpt><trkpt lat="40.593380511734345" lon="16.144681893039955"><ele>291.0</ele><time>2026-04-26T11:33:20Z</time></trkpt><trkpt lat="40.59335847014581" lon="16.14482615905827"><ele>291.0</ele><time>2026-04-26T11:33:22Z</time></trkpt><trkpt lat="40.5933672596716" lon="16.144926755513605"><ele>291.0</ele><time>2026-04-26T11:33:23Z</time></trkpt><trkpt lat="40.59342900209733" lon="16.145056431215377"><ele>290.40000000000003</ele><time>2026-04-26T11:33:25Z</time></trkpt><trkpt lat="40.593514001878084" lon="16.14500084442655"><ele>289.8</ele><time>2026-04-26T11:33:26Z</time></trkpt><trkpt lat="40.59358936208632" lon="16.14493821375323"><ele>289.20000000000005</ele><time>2026-04-26T11:33:27Z</time></trkpt><trkpt lat="40.59367293952949" lon="16.14484260633815"><ele>288.6</ele><time>2026-04-26T11:33:28Z</time></trkpt><trkpt lat="40.59375270393717" lon="16.14473554452958"><ele>288.0</ele><time>2026-04-26T11:33:29Z</time></trkpt><trkpt lat="40.59382902395107" lon="16.144623534959386"><ele>291.8</ele><time>2026-04-26T11:33:30Z</time></trkpt><trkpt lat="40.59389669963318" lon="16.144500788532813"><ele>295.6</ele><time>2026-04-26T11:33:31Z</time></trkpt><trkpt lat="40.593976790964824" lon="16.14442741171173"><ele>299.4</ele><time>2026-04-26T11:33:32Z</time></trkpt><trkpt lat="40.59405234995757" lon="16.144379831314584"><ele>303.2</ele><time>2026-04-26T11:33:33Z</time></trkpt><trkpt lat="40.594137499663894" lon="16.144317044033166"><ele>307.0</ele><time>2026-04-26T11:33:34Z</time></trkpt><trkpt lat="40.59422260433352" lon="16.1442314180899"><ele>307.0</ele><time>2026-04-26T11:33:35Z</time></trkpt><trkpt lat="40.59430459116267" lon="16.14417746468367"><ele>307.0</ele><time>2026-04-26T11:33:36Z</time></trkpt><trkpt lat="40.594381616739454" lon="16.144135864484138"><ele>307.0</ele><time>2026-04-26T11:33:37Z</time></trkpt><trkpt lat="40.594454630380405" lon="16.14411957705092"><ele>307.0</ele><time>2026-04-26T11:33:38Z</time></trkpt><trkpt lat="40.59453463270565" lon="16.144127219147013"><ele>307.0</ele><time>2026-04-26T11:33:39Z</time></trkpt><trkpt lat="40.59462023688171" lon="16.1441593498931"><ele>307.0</ele><time>2026-04-26T11:33:40Z</time></trkpt><trkpt lat="40.594708690232196" lon="16.14420872092532"><ele>309.3333333333333</ele><time>2026-04-26T11:33:41Z</time></trkpt><trkpt lat="40.594802963749444" lon="16.144258951561387"><ele>311.66666666666663</ele><time>2026-04-26T11:33:42Z</time></trkpt><trkpt lat="40.594894737519816" lon="16.144284856977933"><ele>314.0</ele><time>2026-04-26T11:33:43Z</time></trkpt><trkpt lat="40.594975976275556" lon="16.144276177269383"><ele>316.3333333333333</ele><time>2026-04-26T11:33:44Z</time></trkpt><trkpt lat="40.59505590108719" lon="16.144227793428325"><ele>318.6666666666667</ele><time>2026-04-26T11:33:45Z</time></trkpt><trkpt lat="40.59512871369835" lon="16.14417597656887"><ele>321.0</ele><time>2026-04-26T11:33:46Z</time></trkpt><trkpt lat="40.595204599644816" lon="16.144086041268157"><ele>321.20000000000005</ele><time>2026-04-26T11:33:47Z</time></trkpt><trkpt lat="40.59527625742836" lon="16.143970525414716"><ele>321.40000000000003</ele><time>2026-04-26T11:33:48Z</time></trkpt><trkpt lat="40.5953525962558" lon="16.143877333816516"><ele>321.6</ele><time>2026-04-26T11:33:49Z</time></trkpt><trkpt lat="40.595444256642566" lon="16.143812959300977"><ele>321.8</ele><time>2026-04-26T11:33:50Z</time></trkpt><trkpt lat="40.59554277657741" lon="16.14374688243294"><ele>322.0</ele><time>2026-04-26T11:33:51Z</time></trkpt><trkpt lat="40.595632560953355" lon="16.143669459587233"><ele>324.0</ele><time>2026-04-26T11:33:52Z</time></trkpt><trkpt lat="40.595717793475565" lon="16.143593410987627"><ele>326.0</ele><time>2026-04-26T11:33:53.001Z</time></trkpt><trkpt lat="40.5958033747866" lon="16.143560670537024"><ele>328.0</ele><time>2026-04-26T11:33:54.001Z</time></trkpt><trkpt lat="40.59588433817859" lon="16.14353881842018"><ele>330.0</ele><time>2026-04-26T11:33:55.001Z</time></trkpt><trkpt lat="40.595959664150705" lon="16.143530145453273"><ele>332.0</ele><time>2026-04-26T11:33:56.001Z</time></trkpt><trkpt lat="40.596031770191054" lon="16.14354347182739"><ele>334.0</ele><time>2026-04-26T11:33:57.001Z</time></trkpt><trkpt lat="40.59611681843896" lon="16.14356596791811"><ele>335.16666666666663</ele><time>2026-04-26T11:33:58.001Z</time></trkpt><trkpt lat="40.59620230683956" lon="16.14358655478297"><ele>336.3333333333333</ele><time>2026-04-26T11:33:59.001Z</time></trkpt><trkpt lat="40.59627826243461" lon="16.143593611399062"><ele>337.5</ele><time>2026-04-26T11:34:00.001Z</time></trkpt><trkpt lat="40.596352347622464" lon="16.143610853579162"><ele>338.6666666666667</ele><time>2026-04-26T11:34:01.001Z</time></trkpt><trkpt lat="40.59642741101484" lon="16.143599138420438"><ele>339.83333333333337</ele><time>2026-04-26T11:34:02.001Z</time></trkpt><trkpt lat="40.596496535549555" lon="16.14356112669451"><ele>341.0</ele><time>2026-04-26T11:34:03.001Z</time></trkpt><trkpt lat="40.59658263161022" lon="16.143565376513784"><ele>341.0</ele><time>2026-04-26T11:34:04.001Z</time></trkpt><trkpt lat="40.59666408420426" lon="16.143515115092143"><ele>341.0</ele><time>2026-04-26T11:34:05.001Z</time></trkpt><trkpt lat="40.59674115667898" lon="16.143484676151864"><ele>341.0</ele><time>2026-04-26T11:34:06.001Z</time></trkpt><trkpt lat="40.596818350361886" lon="16.143479412499346"><ele>341.0</ele><time>2026-04-26T11:34:07.001Z</time></trkpt><trkpt lat="40.59694471591795" lon="16.143499570826243"><ele>341.0</ele><time>2026-04-26T11:34:09.001Z</time></trkpt><trkpt lat="40.59701032524334" lon="16.14355282301021"><ele>340.6666666666667</ele><time>2026-04-26T11:34:10.001Z</time></trkpt><trkpt lat="40.59707243845202" lon="16.143663662476893"><ele>340.33333333333337</ele><time>2026-04-26T11:34:12.001Z</time></trkpt><trkpt lat="40.597146062103164" lon="16.143759986460488"><ele>340.0</ele><time>2026-04-26T11:34:14.001Z</time></trkpt><trkpt lat="40.597184838035524" lon="16.14385607745682"><ele>339.6666666666667</ele><time>2026-04-26T11:34:15.001Z</time></trkpt><trkpt lat="40.59725008412502" lon="16.143921413150952"><ele>339.3333333333333</ele><time>2026-04-26T11:34:16.001Z</time></trkpt><trkpt lat="40.59728555568333" lon="16.144010638484176"><ele>339.0</ele><time>2026-04-26T11:34:17.001Z</time></trkpt><trkpt lat="40.59732952292024" lon="16.144089641914633"><ele>339.0</ele><time>2026-04-26T11:34:18.001Z</time></trkpt><trkpt lat="40.59737540323229" lon="16.144172082891945"><ele>339.0</ele><time>2026-04-26T11:34:19.001Z</time></trkpt><trkpt lat="40.59746549321713" lon="16.144206983818073"><ele>339.0</ele><time>2026-04-26T11:34:20.001Z</time></trkpt><trkpt lat="40.597531258115744" lon="16.144247672226143"><ele>339.0</ele><time>2026-04-26T11:34:21.001Z</time></trkpt><trkpt lat="40.597595041776664" lon="16.144275059641796"><ele>339.0</ele><time>2026-04-26T11:34:22.001Z</time></trkpt><trkpt lat="40.59767498461649" lon="16.14427604584506"><ele>339.0</ele><time>2026-04-26T11:34:23.001Z</time></trkpt><trkpt lat="40.59776102991736" lon="16.14428022278096"><ele>339.0</ele><time>2026-04-26T11:34:24.001Z</time></trkpt><trkpt lat="40.59782784669344" lon="16.144319241058238"><ele>339.0</ele><time>2026-04-26T11:34:25.001Z</time></trkpt><trkpt lat="40.59790009714171" lon="16.144385280653307"><ele>339.0</ele><time>2026-04-26T11:34:26.001Z</time></trkpt><trkpt lat="40.59801147137069" lon="16.144449934881106"><ele>339.0</ele><time>2026-04-26T11:34:27.001Z</time></trkpt><trkpt lat="40.59811793217142" lon="16.144495183546816"><ele>339.0</ele><time>2026-04-26T11:34:28.001Z</time></trkpt><trkpt lat="40.59819376961428" lon="16.144524589782794"><ele>341.1666666666667</ele><time>2026-04-26T11:34:29.001Z</time></trkpt><trkpt lat="40.598268748819294" lon="16.14453543541908"><ele>343.3333333333333</ele><time>2026-04-26T11:34:30.001Z</time></trkpt><trkpt lat="40.59835063786719" lon="16.14451111376611"><ele>345.5</ele><time>2026-04-26T11:34:31.001Z</time></trkpt><trkpt lat="40.598435522237466" lon="16.144468124528657"><ele>347.66666666666663</ele><time>2026-04-26T11:34:32.001Z</time></trkpt><trkpt lat="40.59851581261666" lon="16.144413966753216"><ele>349.8333333333333</ele><time>2026-04-26T11:34:33.001Z</time></trkpt><trkpt lat="40.59859166789455" lon="16.14434848116347"><ele>352.0</ele><time>2026-04-26T11:34:34.001Z</time></trkpt><trkpt lat="40.59866114326597" lon="16.14426427717407"><ele>353.40000000000003</ele><time>2026-04-26T11:34:35.001Z</time></trkpt><trkpt lat="40.59873222299977" lon="16.14418994345048"><ele>354.8</ele><time>2026-04-26T11:34:36.001Z</time></trkpt><trkpt lat="40.598812574146315" lon="16.14413191819755"><ele>356.2</ele><time>2026-04-26T11:34:37.001Z</time></trkpt><trkpt lat="40.59889903064089" lon="16.144084896099418"><ele>357.6</ele><time>2026-04-26T11:34:38.001Z</time></trkpt><trkpt lat="40.59899366140689" lon="16.14404140242109"><ele>359.0</ele><time>2026-04-26T11:34:39.001Z</time></trkpt><trkpt lat="40.599085654925666" lon="16.14401171691242"><ele>361.0</ele><time>2026-04-26T11:34:40.001Z</time></trkpt><trkpt lat="40.599150279316355" lon="16.14399786222652"><ele>363.0</ele><time>2026-04-26T11:34:41Z</time></trkpt><trkpt lat="40.59925978172241" lon="16.14398528006987"><ele>365.0</ele><time>2026-04-26T11:34:43Z</time></trkpt><trkpt lat="40.599374117935135" lon="16.143973560608273"><ele>367.0</ele><time>2026-04-26T11:34:45Z</time></trkpt><trkpt lat="40.59947192736853" lon="16.14393067979314"><ele>369.0</ele><time>2026-04-26T11:34:47Z</time></trkpt><trkpt lat="40.599547985352594" lon="16.143925724308485"><ele>369.0</ele><time>2026-04-26T11:34:50Z</time></trkpt><trkpt lat="40.599611156331626" lon="16.143990335841334"><ele>369.0</ele><time>2026-04-26T11:34:52Z</time></trkpt><trkpt lat="40.59972532994058" lon="16.144080633462877"><ele>369.0</ele><time>2026-04-26T11:34:54Z</time></trkpt><trkpt lat="40.59979407166164" lon="16.14412148451144"><ele>369.0</ele><time>2026-04-26T11:34:55Z</time></trkpt><trkpt lat="40.59986434508013" lon="16.144147921781784"><ele>369.0</ele><time>2026-04-26T11:34:56Z</time></trkpt><trkpt lat="40.59993508448875" lon="16.144147482205373"><ele>369.0</ele><time>2026-04-26T11:34:57Z</time></trkpt><trkpt lat="40.600004944778824" lon="16.14414504779347"><ele>368.6</ele><time>2026-04-26T11:34:58Z</time></trkpt><trkpt lat="40.60006903414639" lon="16.144169075150657"><ele>368.2</ele><time>2026-04-26T11:34:59Z</time></trkpt><trkpt lat="40.60018403293033" lon="16.144146505467827"><ele>367.8</ele><time>2026-04-26T11:35:01Z</time></trkpt><trkpt lat="40.60028873950233" lon="16.144088836024583"><ele>367.40000000000003</ele><time>2026-04-26T11:35:03Z</time></trkpt><trkpt lat="40.60039413480212" lon="16.144025111943375"><ele>367.0</ele><time>2026-04-26T11:35:05Z</time></trkpt><trkpt lat="40.600440174479346" lon="16.14396258270409"><ele>369.8</ele><time>2026-04-26T11:35:06Z</time></trkpt><trkpt lat="40.60049822516159" lon="16.143887227073485"><ele>372.6</ele><time>2026-04-26T11:35:08Z</time></trkpt><trkpt lat="40.600577321684355" lon="16.143778730256525"><ele>375.40000000000003</ele><time>2026-04-26T11:35:10Z</time></trkpt><trkpt lat="40.60062247623709" lon="16.143709741594844"><ele>378.20000000000005</ele><time>2026-04-26T11:35:12Z</time></trkpt><trkpt lat="40.6007134664109" lon="16.143631825885652"><ele>381.0</ele><time>2026-04-26T11:35:14Z</time></trkpt><trkpt lat="40.60087461602765" lon="16.14371429775537"><ele>381.0</ele><time>2026-04-26T11:35:20Z</time></trkpt><trkpt lat="40.60089712623933" lon="16.143844898480904"><ele>381.0</ele><time>2026-04-26T11:35:22Z</time></trkpt><trkpt lat="40.60089309730936" lon="16.143948250209093"><ele>381.0</ele><time>2026-04-26T11:35:23Z</time></trkpt><trkpt lat="40.600886617755194" lon="16.1440458299057"><ele>381.0</ele><time>2026-04-26T11:35:24Z</time></trkpt><trkpt lat="40.60089320959101" lon="16.144146580049433"><ele>381.0</ele><time>2026-04-26T11:35:25Z</time></trkpt><trkpt lat="40.600882458281276" lon="16.144271647829054"><ele>381.0</ele><time>2026-04-26T11:35:27Z</time></trkpt><trkpt lat="40.60083029691535" lon="16.144380330292762"><ele>382.0</ele><time>2026-04-26T11:35:29Z</time></trkpt><trkpt lat="40.60077876600903" lon="16.144532788298072"><ele>383.0</ele><time>2026-04-26T11:35:31Z</time></trkpt><trkpt lat="40.60077008735217" lon="16.14468998864199"><ele>384.0</ele><time>2026-04-26T11:35:33Z</time></trkpt><trkpt lat="40.60077875033977" lon="16.14477873955906"><ele>385.0</ele><time>2026-04-26T11:35:34Z</time></trkpt><trkpt lat="40.60080424983454" lon="16.14487421183012"><ele>386.0</ele><time>2026-04-26T11:35:35Z</time></trkpt><trkpt lat="40.60083011022304" lon="16.144975472806266"><ele>386.6</ele><time>2026-04-26T11:35:36Z</time></trkpt><trkpt lat="40.6008488740599" lon="16.145067152337084"><ele>387.20000000000005</ele><time>2026-04-26T11:35:37Z</time></trkpt><trkpt lat="40.60083447155149" lon="16.145180608914767"><ele>387.79999999999995</ele><time>2026-04-26T11:35:39Z</time></trkpt><trkpt lat="40.60081791622753" lon="16.14532644052677"><ele>388.4</ele><time>2026-04-26T11:35:41Z</time></trkpt><trkpt lat="40.6007468139967" lon="16.14545836542712"><ele>389.0</ele><time>2026-04-26T11:35:43Z</time></trkpt><trkpt lat="40.600690442812656" lon="16.145587877693426"><ele>390.6</ele><time>2026-04-26T11:35:45Z</time></trkpt><trkpt lat="40.60064517380702" lon="16.145732867847546"><ele>392.2</ele><time>2026-04-26T11:35:47Z</time></trkpt><trkpt lat="40.60062893685496" lon="16.145822067150096"><ele>393.8</ele><time>2026-04-26T11:35:48Z</time></trkpt><trkpt lat="40.60060908074931" lon="16.145910271194214"><ele>395.40000000000003</ele><time>2026-04-26T11:35:49Z</time></trkpt><trkpt lat="40.60055949632138" lon="16.14602282129685"><ele>397.0</ele><time>2026-04-26T11:35:51Z</time></trkpt><trkpt lat="40.60055608755856" lon="16.146179823887465"><ele>397.0</ele><time>2026-04-26T11:35:53Z</time></trkpt><trkpt lat="40.60056123218065" lon="16.146286871718278"><ele>397.0</ele><time>2026-04-26T11:35:54Z</time></trkpt><trkpt lat="40.60057077900153" lon="16.14641893727097"><ele>397.0</ele><time>2026-04-26T11:35:56Z</time></trkpt><trkpt lat="40.600625398002904" lon="16.14652052672859"><ele>397.0</ele><time>2026-04-26T11:35:58Z</time></trkpt><trkpt lat="40.60066541506492" lon="16.14661280927727"><ele>397.0</ele><time>2026-04-26T11:36:00Z</time></trkpt><trkpt lat="40.60067787143425" lon="16.14674083351476"><ele>399.00000000000006</ele><time>2026-04-26T11:36:02Z</time></trkpt><trkpt lat="40.600649012621716" lon="16.146815424577856"><ele>401.0</ele><time>2026-04-26T11:36:04Z</time></trkpt><trkpt lat="40.600573361447985" lon="16.14689233340028"><ele>403.0</ele><time>2026-04-26T11:36:06Z</time></trkpt><trkpt lat="40.600528083088854" lon="16.146958894778738"><ele>405.0</ele><time>2026-04-26T11:36:07Z</time></trkpt><trkpt lat="40.60047610828653" lon="16.147006255247145"><ele>407.00000000000006</ele><time>2026-04-26T11:36:08.001Z</time></trkpt><trkpt lat="40.600447633016515" lon="16.147145561582434"><ele>409.0</ele><time>2026-04-26T11:36:10.001Z</time></trkpt><trkpt lat="40.60043016560249" lon="16.147231197099927"><ele>409.00000000000006</ele><time>2026-04-26T11:36:12.001Z</time></trkpt><trkpt lat="40.60044300902945" lon="16.14732170829037"><ele>409.0</ele><time>2026-04-26T11:36:13.001Z</time></trkpt><trkpt lat="40.60046112415558" lon="16.14741161364848"><ele>409.0</ele><time>2026-04-26T11:36:14.001Z</time></trkpt><trkpt lat="40.60048730345355" lon="16.14751664264261"><ele>409.0</ele><time>2026-04-26T11:36:15.001Z</time></trkpt><trkpt lat="40.60051642140219" lon="16.14760544270863"><ele>409.00000000000006</ele><time>2026-04-26T11:36:16.001Z</time></trkpt><trkpt lat="40.60054861294615" lon="16.147707770524942"><ele>409.0</ele><time>2026-04-26T11:36:17.001Z</time></trkpt><trkpt lat="40.60058305483919" lon="16.14781212090378"><ele>412.4</ele><time>2026-04-26T11:36:18.001Z</time></trkpt><trkpt lat="40.600636251142234" lon="16.147969095102646"><ele>415.79999999999995</ele><time>2026-04-26T11:36:20.001Z</time></trkpt><trkpt lat="40.60067832825676" lon="16.14805006373062"><ele>419.20000000000005</ele><time>2026-04-26T11:36:21.001Z</time></trkpt><trkpt lat="40.6007088628006" lon="16.148126627313115"><ele>422.6</ele><time>2026-04-26T11:36:22.001Z</time></trkpt><trkpt lat="40.60073145986532" lon="16.148245963159223"><ele>426.0</ele><time>2026-04-26T11:36:24.001Z</time></trkpt><trkpt lat="40.6007747411022" lon="16.148393240128595"><ele>430.8</ele><time>2026-04-26T11:36:26.001Z</time></trkpt><trkpt lat="40.600813229461174" lon="16.1485372514024"><ele>435.6</ele><time>2026-04-26T11:36:28.001Z</time></trkpt><trkpt lat="40.60082573830584" lon="16.148620526719025"><ele>440.4</ele><time>2026-04-26T11:36:29.001Z</time></trkpt><trkpt lat="40.60083994206817" lon="16.148784186602157"><ele>445.2</ele><time>2026-04-26T11:36:31.001Z</time></trkpt><trkpt lat="40.600860739729605" lon="16.14895470102548"><ele>450.0</ele><time>2026-04-26T11:36:33.001Z</time></trkpt><trkpt lat="40.60091377480993" lon="16.149105491599126"><ele>451.4</ele><time>2026-04-26T11:36:35.001Z</time></trkpt><trkpt lat="40.60095978459145" lon="16.149180581426236"><ele>452.8</ele><time>2026-04-26T11:36:36.001Z</time></trkpt><trkpt lat="40.601000446049916" lon="16.149253166408833"><ele>454.20000000000005</ele><time>2026-04-26T11:36:37.001Z</time></trkpt><trkpt lat="40.60104300820071" lon="16.14932575374967"><ele>455.6</ele><time>2026-04-26T11:36:39.001Z</time></trkpt><trkpt lat="40.60106217816351" lon="16.149434698026873"><ele>457.0</ele><time>2026-04-26T11:37:20Z</time></trkpt><trkpt lat="40.60124018145855" lon="16.14929397991181"><ele>460.40000000000003</ele><time>2026-04-26T11:37:24Z</time></trkpt><trkpt lat="40.601306247184446" lon="16.149213649611884"><ele>463.80000000000007</ele><time>2026-04-26T11:37:25Z</time></trkpt><trkpt lat="40.60136098588792" lon="16.149147025366283"><ele>467.2</ele><time>2026-04-26T11:37:26Z</time></trkpt><trkpt lat="40.601457427018474" lon="16.14911498937729"><ele>470.6</ele><time>2026-04-26T11:37:28Z</time></trkpt><trkpt lat="40.60157671874244" lon="16.149063655399896"><ele>474.0</ele><time>2026-04-26T11:37:30Z</time></trkpt><trkpt lat="40.60163873044726" lon="16.149023310471023"><ele>474.0</ele><time>2026-04-26T11:37:31Z</time></trkpt><trkpt lat="40.601742461931785" lon="16.149000482566148"><ele>474.0</ele><time>2026-04-26T11:37:33Z</time></trkpt><trkpt lat="40.60180202404551" lon="16.149082840042247"><ele>474.0</ele><time>2026-04-26T11:37:35Z</time></trkpt><trkpt lat="40.60186954657223" lon="16.14908283878984"><ele>474.0</ele><time>2026-04-26T11:37:37Z</time></trkpt><trkpt lat="40.60190188593407" lon="16.148966716504635"><ele>474.0</ele><time>2026-04-26T11:37:39Z</time></trkpt><trkpt lat="40.60193978350005" lon="16.148860681850568"><ele>474.0</ele><time>2026-04-26T11:37:41Z</time></trkpt><trkpt lat="40.60197278650827" lon="16.14893977060486"><ele>475.79999999999995</ele><time>2026-04-26T11:37:44Z</time></trkpt><trkpt lat="40.601994534697276" lon="16.149089151379485"><ele>477.59999999999997</ele><time>2026-04-26T11:37:46Z</time></trkpt><trkpt lat="40.602024428683066" lon="16.149236751570108"><ele>479.4</ele><time>2026-04-26T11:37:48Z</time></trkpt><trkpt lat="40.60205586466117" lon="16.149349593940173"><ele>481.2</ele><time>2026-04-26T11:37:50Z</time></trkpt><trkpt lat="40.60206405080988" lon="16.149443643371857"><ele>483.0</ele><time>2026-04-26T11:37:52Z</time></trkpt><trkpt lat="40.602080063978995" lon="16.149625081534577"><ele>488.5</ele><time>2026-04-26T11:37:54Z</time></trkpt><trkpt lat="40.60212873403004" lon="16.1497424701274"><ele>494.0</ele><time>2026-04-26T11:37:56Z</time></trkpt><trkpt lat="40.602163108569684" lon="16.149867426703782"><ele>499.5</ele><time>2026-04-26T11:37:58Z</time></trkpt><trkpt lat="40.602171174075224" lon="16.149951252316928"><ele>505.0</ele><time>2026-04-26T11:37:59Z</time></trkpt><trkpt lat="40.60220204491465" lon="16.15004314581666"><ele>510.5</ele><time>2026-04-26T11:38:00Z</time></trkpt><trkpt lat="40.60222594052434" lon="16.150120766236288"><ele>516.0</ele><time>2026-04-26T11:38:01Z</time></trkpt><trkpt lat="40.60228272488749" lon="16.150238654582008"><ele>516.0</ele><time>2026-04-26T11:38:03Z</time></trkpt><trkpt lat="40.60232719341103" lon="16.150315651068023"><ele>516.0</ele><time>2026-04-26T11:38:04Z</time></trkpt><trkpt lat="40.60236518574653" lon="16.15047126243911"><ele>516.0</ele><time>2026-04-26T11:38:06Z</time></trkpt><trkpt lat="40.6023745733329" lon="16.150586649048734"><ele>516.0</ele><time>2026-04-26T11:38:08Z</time></trkpt><trkpt lat="40.6024154230805" lon="16.150740899646987"><ele>516.0</ele><time>2026-04-26T11:38:10Z</time></trkpt><trkpt lat="40.60248704463314" lon="16.150838601418503"><ele>516.0</ele><time>2026-04-26T11:38:12Z</time></trkpt><trkpt lat="40.60262847709974" lon="16.150741269243643"><ele>516.0</ele><time>2026-04-26T11:38:15Z</time></trkpt><trkpt lat="40.6026660849857" lon="16.15067130617489"><ele>516.0</ele><time>2026-04-26T11:38:16Z</time></trkpt><trkpt lat="40.60270490614547" lon="16.15056112710947"><ele>516.0</ele><time>2026-04-26T11:38:18Z</time></trkpt><trkpt lat="40.6027278226441" lon="16.150453986369545"><ele>516.0</ele><time>2026-04-26T11:38:20Z</time></trkpt><trkpt lat="40.60269747481079" lon="16.150310146539532"><ele>516.0</ele><time>2026-04-26T11:38:22Z</time></trkpt><trkpt lat="40.60268098751187" lon="16.15019945387028"><ele>516.0</ele><time>2026-04-26T11:38:24Z</time></trkpt><trkpt lat="40.602675961143085" lon="16.150084522798164"><ele>516.0</ele><time>2026-04-26T11:38:26Z</time></trkpt><trkpt lat="40.60267462266205" lon="16.149980822055166"><ele>516.0</ele><time>2026-04-26T11:38:28Z</time></trkpt><trkpt lat="40.602628674378266" lon="16.149793004984836"><ele>516.0</ele><time>2026-04-26T11:39:16Z</time></trkpt><trkpt lat="40.602623157876" lon="16.14964936530791"><ele>515.8</ele><time>2026-04-26T11:39:18Z</time></trkpt><trkpt lat="40.60259920644532" lon="16.149520769036524"><ele>515.6</ele><time>2026-04-26T11:39:20Z</time></trkpt><trkpt lat="40.60258264094573" lon="16.149410590591888"><ele>515.4</ele><time>2026-04-26T11:39:22Z</time></trkpt><trkpt lat="40.602567891721115" lon="16.14925840964936"><ele>515.2</ele><time>2026-04-26T11:39:24Z</time></trkpt><trkpt lat="40.602574497081704" lon="16.149127683598127"><ele>515.0</ele><time>2026-04-26T11:39:26Z</time></trkpt><trkpt lat="40.602604907046405" lon="16.149018876683506"><ele>515.0</ele><time>2026-04-26T11:39:28Z</time></trkpt><trkpt lat="40.6026579557583" lon="16.14894981619879"><ele>515.0</ele><time>2026-04-26T11:39:30Z</time></trkpt><trkpt lat="40.60269904499982" lon="16.148883715681634"><ele>515.0</ele><time>2026-04-26T11:39:34Z</time></trkpt><trkpt lat="40.60262267298892" lon="16.14879093844164"><ele>515.0</ele><time>2026-04-26T11:39:51Z</time></trkpt><trkpt lat="40.60261767785171" lon="16.148879212685305"><ele>515.0</ele><time>2026-04-26T11:40:31Z</time></trkpt><trkpt lat="40.60260309608709" lon="16.14878651066303"><ele>515.0</ele><time>2026-04-26T11:42:34Z</time></trkpt><trkpt lat="40.602671034716224" lon="16.148756707148607"><ele>515.0</ele><time>2026-04-26T11:43:23.999Z</time></trkpt><trkpt lat="40.602702961501095" lon="16.14867851264525"><ele>515.0</ele><time>2026-04-26T11:43:25.999Z</time></trkpt><trkpt lat="40.60276178606937" lon="16.14861476352692"><ele>515.0</ele><time>2026-04-26T11:43:27.999Z</time></trkpt><trkpt lat="40.60283546348423" lon="16.14855669154662"><ele>515.0</ele><time>2026-04-26T11:43:29.999Z</time></trkpt><trkpt lat="40.60293527504105" lon="16.148565474134827"><ele>515.0</ele><time>2026-04-26T11:43:31.999Z</time></trkpt><trkpt lat="40.60303533802113" lon="16.148584275052492"><ele>515.0</ele><time>2026-04-26T11:43:33.999Z</time></trkpt><trkpt lat="40.60313747121919" lon="16.148557861331728"><ele>519.6666666666666</ele><time>2026-04-26T11:43:40.999Z</time></trkpt><trkpt lat="40.6031925179629" lon="16.148598795399707"><ele>524.3333333333333</ele><time>2026-04-26T11:43:43.999Z</time></trkpt><trkpt lat="40.603269081358796" lon="16.148561844463917"><ele>529.0</ele><time>2026-04-26T11:43:51.999Z</time></trkpt><trkpt lat="40.603338855011515" lon="16.14856941404911"><ele>533.6666666666666</ele><time>2026-04-26T11:43:53.999Z</time></trkpt><trkpt lat="40.60340693976355" lon="16.148589069656023"><ele>538.3333333333334</ele><time>2026-04-26T11:43:55.999Z</time></trkpt><trkpt lat="40.603470392669024" lon="16.148538730387493"><ele>543.0</ele><time>2026-04-26T11:43:57.999Z</time></trkpt><trkpt lat="40.603597861627186" lon="16.148491318044197"><ele>543.0</ele><time>2026-04-26T11:44:00.999Z</time></trkpt><trkpt lat="40.60361419463255" lon="16.14840513471885"><ele>543.0</ele><time>2026-04-26T11:44:02.999Z</time></trkpt><trkpt lat="40.60365982789522" lon="16.148289771916154"><ele>543.0</ele><time>2026-04-26T11:44:06Z</time></trkpt><trkpt lat="40.60371234187994" lon="16.148184946952156"><ele>543.0</ele><time>2026-04-26T11:44:08Z</time></trkpt><trkpt lat="40.60378572684127" lon="16.148073628388225"><ele>543.0</ele><time>2026-04-26T11:44:10Z</time></trkpt><trkpt lat="40.60386741381572" lon="16.148035397193375"><ele>547.5</ele><time>2026-04-26T11:44:12Z</time></trkpt><trkpt lat="40.60394765620361" lon="16.147965822943565"><ele>552.0</ele><time>2026-04-26T11:44:14Z</time></trkpt><trkpt lat="40.60396629566367" lon="16.147880825881174"><ele>556.5</ele><time>2026-04-26T11:44:16Z</time></trkpt><trkpt lat="40.604025566784586" lon="16.147830480252523"><ele>561.0</ele><time>2026-04-26T11:44:18Z</time></trkpt><trkpt lat="40.604120766080094" lon="16.1477874597941"><ele>565.5</ele><time>2026-04-26T11:44:20Z</time></trkpt><trkpt lat="40.60418673753169" lon="16.147776732519606"><ele>570.0</ele><time>2026-04-26T11:44:22Z</time></trkpt><trkpt lat="40.604255045668914" lon="16.14781348233518"><ele>570.0</ele><time>2026-04-26T11:44:24Z</time></trkpt><trkpt lat="40.604325617722104" lon="16.147829902700305"><ele>570.0</ele><time>2026-04-26T11:44:26Z</time></trkpt><trkpt lat="40.604415768263046" lon="16.14784788449341"><ele>570.0</ele><time>2026-04-26T11:44:28Z</time></trkpt><trkpt lat="40.60455499028831" lon="16.147845964551728"><ele>570.0</ele><time>2026-04-26T11:44:30Z</time></trkpt><trkpt lat="40.60462948400373" lon="16.147837252447605"><ele>570.0</ele><time>2026-04-26T11:44:31Z</time></trkpt><trkpt lat="40.604719452562186" lon="16.147818936124043"><ele>570.0</ele><time>2026-04-26T11:44:33Z</time></trkpt><trkpt lat="40.604723876548434" lon="16.147660506866146"><ele>570.0</ele><time>2026-04-26T11:44:35Z</time></trkpt><trkpt lat="40.60466069608233" lon="16.14761191561657"><ele>570.0</ele><time>2026-04-26T11:44:37Z</time></trkpt><trkpt lat="40.60456689329846" lon="16.147571405524122"><ele>570.0</ele><time>2026-04-26T11:44:40Z</time></trkpt><trkpt lat="40.60450613274824" lon="16.147541409807644"><ele>570.0</ele><time>2026-04-26T11:44:43Z</time></trkpt><trkpt lat="40.604475618613485" lon="16.147466414021412"><ele>570.0</ele><time>2026-04-26T11:44:48Z</time></trkpt><trkpt lat="40.604415889796975" lon="16.147434225061033"><ele>573.1666666666666</ele><time>2026-04-26T11:44:51Z</time></trkpt><trkpt lat="40.6044043810154" lon="16.14733806500591"><ele>576.3333333333334</ele><time>2026-04-26T11:44:54Z</time></trkpt><trkpt lat="40.604385172678924" lon="16.147258458369258"><ele>579.5</ele><time>2026-04-26T11:44:56Z</time></trkpt><trkpt lat="40.60434265404948" lon="16.147161790082464"><ele>582.6666666666667</ele><time>2026-04-26T11:44:58Z</time></trkpt><trkpt lat="40.60432361206803" lon="16.147080301674666"><ele>585.8333333333334</ele><time>2026-04-26T11:45:01Z</time></trkpt><trkpt lat="40.604325984768764" lon="16.14696316925881"><ele>589.0</ele><time>2026-04-26T11:45:04Z</time></trkpt><trkpt lat="40.60429835954885" lon="16.146855046058835"><ele>589.0</ele><time>2026-04-26T11:45:07Z</time></trkpt><trkpt lat="40.60427854477066" lon="16.14677282103315"><ele>589.0</ele><time>2026-04-26T11:47:35.001Z</time></trkpt><trkpt lat="40.60425518335309" lon="16.146685040823552"><ele>589.0</ele><time>2026-04-26T11:47:40.001Z</time></trkpt><trkpt lat="40.604263754284766" lon="16.146602185483843"><ele>589.0</ele><time>2026-04-26T11:47:53.001Z</time></trkpt><trkpt lat="40.60422911199109" lon="16.146522420016684"><ele>589.0</ele><time>2026-04-26T11:48:52.001Z</time></trkpt><trkpt lat="40.60424220812754" lon="16.146605626460396"><ele>589.0</ele><time>2026-04-26T11:49:52.001Z</time></trkpt><trkpt lat="40.60422673405087" lon="16.14651499297494"><ele>589.0</ele><time>2026-04-26T11:50:56.001Z</time></trkpt><trkpt lat="40.60422277052536" lon="16.146415031849084"><ele>590.5</ele><time>2026-04-26T11:50:58.001Z</time></trkpt><trkpt lat="40.604202094881586" lon="16.146327423948545"><ele>592.0</ele><time>2026-04-26T11:51:00.001Z</time></trkpt><trkpt lat="40.60417617992561" lon="16.146193539729435"><ele>593.5</ele><time>2026-04-26T11:51:04.001Z</time></trkpt><trkpt lat="40.60416748694109" lon="16.146078015134183"><ele>595.0</ele><time>2026-04-26T11:51:06.001Z</time></trkpt><trkpt lat="40.60413715931583" lon="16.14598569635817"><ele>596.5</ele><time>2026-04-26T11:51:10.001Z</time></trkpt><trkpt lat="40.604161673006736" lon="16.145904338292237"><ele>598.0</ele><time>2026-04-26T11:51:12.001Z</time></trkpt><trkpt lat="40.60421069171362" lon="16.145810688014492"><ele>595.8</ele><time>2026-04-26T11:51:14.001Z</time></trkpt><trkpt lat="40.604237937468255" lon="16.14570041571455"><ele>593.5999999999999</ele><time>2026-04-26T11:51:16.001Z</time></trkpt><trkpt lat="40.60427347093215" lon="16.145596379704024"><ele>591.4000000000001</ele><time>2026-04-26T11:51:18.001Z</time></trkpt><trkpt lat="40.604313214745524" lon="16.145487117871056"><ele>589.2</ele><time>2026-04-26T11:51:20.001Z</time></trkpt><trkpt lat="40.60433942598867" lon="16.145357633954166"><ele>587.0</ele><time>2026-04-26T11:51:22.001Z</time></trkpt><trkpt lat="40.60438002044228" lon="16.14525162766828"><ele>587.0</ele><time>2026-04-26T11:51:25.001Z</time></trkpt><trkpt lat="40.604431522185955" lon="16.14516854652467"><ele>587.0</ele><time>2026-04-26T11:51:28.001Z</time></trkpt><trkpt lat="40.60448837549685" lon="16.145105735632157"><ele>587.0</ele><time>2026-04-26T11:51:31.001Z</time></trkpt><trkpt lat="40.60454461129551" lon="16.145038849800557"><ele>587.0</ele><time>2026-04-26T11:51:34.001Z</time></trkpt><trkpt lat="40.60460178460396" lon="16.144983753151937"><ele>587.0</ele><time>2026-04-26T11:51:38.001Z</time></trkpt><trkpt lat="40.60469692805663" lon="16.144996504820433"><ele>587.0</ele><time>2026-04-26T11:51:41.001Z</time></trkpt><trkpt lat="40.60481061841182" lon="16.144999682739833"><ele>585.8000000000001</ele><time>2026-04-26T11:51:46.001Z</time></trkpt><trkpt lat="40.60488382042606" lon="16.14498147792342"><ele>584.6</ele><time>2026-04-26T11:51:47.001Z</time></trkpt><trkpt lat="40.604966849908" lon="16.144983325974746"><ele>583.4000000000001</ele><time>2026-04-26T11:51:49.001Z</time></trkpt><trkpt lat="40.605083939054005" lon="16.144937495376944"><ele>582.2</ele><time>2026-04-26T11:52:24.001Z</time></trkpt><trkpt lat="40.60518530634479" lon="16.144934431564092"><ele>581.0</ele><time>2026-04-26T11:52:26.001Z</time></trkpt><trkpt lat="40.605261646832325" lon="16.14487131371742"><ele>582.2857142857143</ele><time>2026-04-26T11:52:28.001Z</time></trkpt><trkpt lat="40.60535472717578" lon="16.14487282473979"><ele>583.5714285714286</ele><time>2026-04-26T11:52:30.001Z</time></trkpt><trkpt lat="40.60541874328363" lon="16.144878544686065"><ele>584.8571428571429</ele><time>2026-04-26T11:52:32.001Z</time></trkpt><trkpt lat="40.60549641932281" lon="16.144869134489586"><ele>586.1428571428571</ele><time>2026-04-26T11:52:34.001Z</time></trkpt><trkpt lat="40.605535823828795" lon="16.14478378626046"><ele>587.4285714285714</ele><time>2026-04-26T11:52:37.001Z</time></trkpt><trkpt lat="40.60553326685194" lon="16.144694164043564"><ele>588.7142857142858</ele><time>2026-04-26T11:52:41.001Z</time></trkpt><trkpt lat="40.605573977345934" lon="16.14463059252572"><ele>590.0</ele><time>2026-04-26T11:52:43.001Z</time></trkpt><trkpt lat="40.605678197759275" lon="16.144627633739677"><ele>590.0</ele><time>2026-04-26T11:52:47.001Z</time></trkpt><trkpt lat="40.60575738292404" lon="16.144672375165328"><ele>590.0</ele><time>2026-04-26T11:52:49.001Z</time></trkpt><trkpt lat="40.605813353056945" lon="16.144559961758016"><ele>590.0</ele><time>2026-04-26T11:52:54.001Z</time></trkpt><trkpt lat="40.605798951860045" lon="16.1444762049624"><ele>590.0</ele><time>2026-04-26T11:52:56.001Z</time></trkpt><trkpt lat="40.605816251290044" lon="16.144377542364065"><ele>590.0</ele><time>2026-04-26T11:52:59.001Z</time></trkpt><trkpt lat="40.6058320347512" lon="16.14428762781222"><ele>590.0</ele><time>2026-04-26T11:53:24.001Z</time></trkpt><trkpt lat="40.60584103500912" lon="16.14418504227336"><ele>590.0</ele><time>2026-04-26T11:53:46Z</time></trkpt><trkpt lat="40.605799488737055" lon="16.144121435679654"><ele>590.0</ele><time>2026-04-26T11:53:54Z</time></trkpt><trkpt lat="40.60573985495083" lon="16.144027077318146"><ele>590.0</ele><time>2026-04-26T11:53:57Z</time></trkpt><trkpt lat="40.6057068518345" lon="16.14393027084558"><ele>590.0</ele><time>2026-04-26T11:54:00Z</time></trkpt><trkpt lat="40.60569719552862" lon="16.143839077599132"><ele>590.0</ele><time>2026-04-26T11:54:03Z</time></trkpt><trkpt lat="40.605626140944416" lon="16.14379106148685"><ele>590.0</ele><time>2026-04-26T11:54:05Z</time></trkpt><trkpt lat="40.60559659111202" lon="16.143702069375397"><ele>588.1666666666666</ele><time>2026-04-26T11:54:08Z</time></trkpt><trkpt lat="40.60560746366473" lon="16.1435936400942"><ele>586.3333333333333</ele><time>2026-04-26T11:54:10Z</time></trkpt><trkpt lat="40.6056093758475" lon="16.14351025875772"><ele>584.5</ele><time>2026-04-26T11:54:12Z</time></trkpt><trkpt lat="40.60558503235919" lon="16.14338025471828"><ele>582.6666666666666</ele><time>2026-04-26T11:54:14Z</time></trkpt><trkpt lat="40.60555666506506" lon="16.143283896456293"><ele>580.8333333333334</ele><time>2026-04-26T11:54:16Z</time></trkpt><trkpt lat="40.605520342841736" lon="16.143142633300716"><ele>579.0</ele><time>2026-04-26T11:54:18Z</time></trkpt><trkpt lat="40.60548746640516" lon="16.14306900033045"><ele>577.3333333333334</ele><time>2026-04-26T11:54:19Z</time></trkpt><trkpt lat="40.60545611721772" lon="16.142991366699018"><ele>575.6666666666666</ele><time>2026-04-26T11:54:21Z</time></trkpt><trkpt lat="40.605458298969296" lon="16.14288476237912"><ele>574.0</ele><time>2026-04-26T11:54:24Z</time></trkpt><trkpt lat="40.6054772016067" lon="16.142754318585585"><ele>572.3333333333333</ele><time>2026-04-26T11:54:27Z</time></trkpt><trkpt lat="40.605445307227185" lon="16.142630991488062"><ele>570.6666666666666</ele><time>2026-04-26T11:54:29Z</time></trkpt><trkpt lat="40.605400264926196" lon="16.142530729222027"><ele>569.0</ele><time>2026-04-26T11:54:31Z</time></trkpt><trkpt lat="40.605358585923355" lon="16.142436633554016"><ele>566.4285714285714</ele><time>2026-04-26T11:54:33Z</time></trkpt><trkpt lat="40.6053363488091" lon="16.14234624808425"><ele>563.8571428571429</ele><time>2026-04-26T11:54:35Z</time></trkpt><trkpt lat="40.60535604560407" lon="16.142263318438083"><ele>561.2857142857142</ele><time>2026-04-26T11:54:39Z</time></trkpt><trkpt lat="40.605326656858594" lon="16.142182285802278"><ele>558.7142857142858</ele><time>2026-04-26T11:54:45Z</time></trkpt><trkpt lat="40.60539338012017" lon="16.142137616318397"><ele>556.1428571428571</ele><time>2026-04-26T11:56:24Z</time></trkpt><trkpt lat="40.60547541772606" lon="16.142080999060834"><ele>553.5714285714286</ele><time>2026-04-26T11:56:26Z</time></trkpt><trkpt lat="40.60553378666724" lon="16.142035579986114"><ele>551.0</ele><time>2026-04-26T11:56:28Z</time></trkpt><trkpt lat="40.60557732824719" lon="16.141962865650594"><ele>551.0</ele><time>2026-04-26T11:56:30Z</time></trkpt><trkpt lat="40.60552134303377" lon="16.141845714713885"><ele>551.0</ele><time>2026-04-26T11:56:32Z</time></trkpt><trkpt lat="40.60548490140693" lon="16.141778080791376"><ele>551.0</ele><time>2026-04-26T11:56:34Z</time></trkpt><trkpt lat="40.605520790978616" lon="16.141683271021087"><ele>551.0</ele><time>2026-04-26T11:56:38Z</time></trkpt><trkpt lat="40.60553590059625" lon="16.14159725621812"><ele>551.0</ele><time>2026-04-26T11:56:42Z</time></trkpt><trkpt lat="40.60557582913912" lon="16.141505055201566"><ele>551.0</ele><time>2026-04-26T11:56:45Z</time></trkpt><trkpt lat="40.605612194115274" lon="16.14141582313842"><ele>548.3333333333333</ele><time>2026-04-26T11:56:48Z</time></trkpt><trkpt lat="40.60565329261943" lon="16.141309610023267"><ele>545.6666666666666</ele><time>2026-04-26T11:56:50Z</time></trkpt><trkpt lat="40.605679605059436" lon="16.141219514010324"><ele>543.0</ele><time>2026-04-26T11:56:54Z</time></trkpt><trkpt lat="40.60571853716971" lon="16.141152214906448"><ele>540.3333333333334</ele><time>2026-04-26T11:56:57Z</time></trkpt><trkpt lat="40.605774044611955" lon="16.14107225285366"><ele>537.6666666666667</ele><time>2026-04-26T11:57:00Z</time></trkpt><trkpt lat="40.60580196054423" lon="16.1409663759019"><ele>535.0</ele><time>2026-04-26T11:57:02Z</time></trkpt><trkpt lat="40.605869276676984" lon="16.14093762924245"><ele>535.0</ele><time>2026-04-26T11:57:06Z</time></trkpt><trkpt lat="40.60592076779065" lon="16.141050186579935"><ele>535.0</ele><time>2026-04-26T11:57:09Z</time></trkpt><trkpt lat="40.60593211578553" lon="16.14114685429925"><ele>535.0</ele><time>2026-04-26T11:57:11Z</time></trkpt><trkpt lat="40.60587597270864" lon="16.14121628049758"><ele>535.0</ele><time>2026-04-26T11:57:14Z</time></trkpt><trkpt lat="40.60590676254567" lon="16.141350512240486"><ele>535.0</ele><time>2026-04-26T11:57:17Z</time></trkpt><trkpt lat="40.60597130118678" lon="16.14141571570485"><ele>535.0</ele><time>2026-04-26T11:57:18Z</time></trkpt><trkpt lat="40.60604224878257" lon="16.14146242624101"><ele>535.0</ele><time>2026-04-26T11:57:21Z</time></trkpt><trkpt lat="40.606098440349385" lon="16.141513041813397"><ele>535.0</ele><time>2026-04-26T11:57:23Z</time></trkpt><trkpt lat="40.60616731244294" lon="16.141531863520015"><ele>535.0</ele><time>2026-04-26T11:57:25Z</time></trkpt><trkpt lat="40.60623129555884" lon="16.14157335067804"><ele>535.0</ele><time>2026-04-26T11:57:27Z</time></trkpt><trkpt lat="40.60629874698291" lon="16.14158229437917"><ele>535.0</ele><time>2026-04-26T11:57:29Z</time></trkpt><trkpt lat="40.60641981305464" lon="16.14163291020741"><ele>535.0</ele><time>2026-04-26T11:57:31Z</time></trkpt><trkpt lat="40.606611102873984" lon="16.141603493345535"><ele>537.5</ele><time>2026-04-26T11:57:35Z</time></trkpt><trkpt lat="40.606699537708195" lon="16.14153704740643"><ele>540.0</ele><time>2026-04-26T11:57:37Z</time></trkpt><trkpt lat="40.606776725628805" lon="16.141518253323735"><ele>542.5</ele><time>2026-04-26T11:57:38Z</time></trkpt><trkpt lat="40.6068547218761" lon="16.141503661553042"><ele>545.0</ele><time>2026-04-26T11:57:39Z</time></trkpt><trkpt lat="40.60691135219547" lon="16.141452662473394"><ele>547.5</ele><time>2026-04-26T11:57:40Z</time></trkpt><trkpt lat="40.60698113776544" lon="16.141364441548262"><ele>550.0</ele><time>2026-04-26T11:57:42Z</time></trkpt><trkpt lat="40.60703392184753" lon="16.141273422106003"><ele>551.5</ele><time>2026-04-26T11:57:44Z</time></trkpt><trkpt lat="40.60710315037146" lon="16.141282703753948"><ele>553.0</ele><time>2026-04-26T11:57:47Z</time></trkpt><trkpt lat="40.607180022732095" lon="16.141281214666947"><ele>554.5</ele><time>2026-04-26T11:57:49Z</time></trkpt><trkpt lat="40.60726045728031" lon="16.14129427557656"><ele>556.0</ele><time>2026-04-26T11:57:52Z</time></trkpt><trkpt lat="40.60734079100782" lon="16.141280274283034"><ele>557.5</ele><time>2026-04-26T11:57:54Z</time></trkpt><trkpt lat="40.6074333285746" lon="16.14123680909596"><ele>559.0</ele><time>2026-04-26T11:57:56Z</time></trkpt><trkpt lat="40.60755213301344" lon="16.141248791662107"><ele>559.0</ele><time>2026-04-26T11:57:59Z</time></trkpt><trkpt lat="40.60761554092391" lon="16.14122908134926"><ele>559.0</ele><time>2026-04-26T11:58:01Z</time></trkpt><trkpt lat="40.60768843012078" lon="16.141242759326484"><ele>559.0</ele><time>2026-04-26T11:58:03Z</time></trkpt><trkpt lat="40.60777751423502" lon="16.14124450241894"><ele>559.0</ele><time>2026-04-26T11:58:05Z</time></trkpt><trkpt lat="40.607839014589274" lon="16.14122643887714"><ele>559.0</ele><time>2026-04-26T11:58:06Z</time></trkpt><trkpt lat="40.60793889673738" lon="16.141184795659143"><ele>559.0</ele><time>2026-04-26T11:58:08Z</time></trkpt><trkpt lat="40.60803584799035" lon="16.14121371440113"><ele>560.8</ele><time>2026-04-26T11:58:10Z</time></trkpt><trkpt lat="40.608065845304736" lon="16.141298230612225"><ele>562.5999999999999</ele><time>2026-04-26T11:58:12Z</time></trkpt><trkpt lat="40.608137284771665" lon="16.141390622617156"><ele>564.4</ele><time>2026-04-26T11:58:14Z</time></trkpt><trkpt lat="40.60822689006918" lon="16.141524881288895"><ele>566.1999999999999</ele><time>2026-04-26T11:58:16Z</time></trkpt><trkpt lat="40.60831235242676" lon="16.141616298061802"><ele>568.0</ele><time>2026-04-26T11:58:17Z</time></trkpt><trkpt lat="40.60839485469925" lon="16.141708066832766"><ele>570.1666666666667</ele><time>2026-04-26T11:58:19Z</time></trkpt><trkpt lat="40.60846461111246" lon="16.141780967767968"><ele>572.3333333333334</ele><time>2026-04-26T11:58:24Z</time></trkpt><trkpt lat="40.608550500895646" lon="16.14187263093739"><ele>574.5</ele><time>2026-04-26T11:58:26Z</time></trkpt><trkpt lat="40.60863554712611" lon="16.141907265466862"><ele>576.6666666666666</ele><time>2026-04-26T11:58:28Z</time></trkpt><trkpt lat="40.60868948765144" lon="16.141950426778926"><ele>578.8333333333333</ele><time>2026-04-26T11:58:30Z</time></trkpt><trkpt lat="40.60874390440933" lon="16.142014319612272"><ele>581.0</ele><time>2026-04-26T11:58:32Z</time></trkpt><trkpt lat="40.608810344943016" lon="16.142096022977434"><ele>581.8</ele><time>2026-04-26T11:58:35Z</time></trkpt><trkpt lat="40.60891753212922" lon="16.142074983515258"><ele>582.6</ele><time>2026-04-26T11:58:37Z</time></trkpt><trkpt lat="40.608971611244904" lon="16.142143632154863"><ele>583.4</ele><time>2026-04-26T11:58:40Z</time></trkpt><trkpt lat="40.60893554441464" lon="16.142270093104678"><ele>584.2</ele><time>2026-04-26T11:58:44Z</time></trkpt><trkpt lat="40.60889426212224" lon="16.14239939018613"><ele>585.0</ele><time>2026-04-26T11:58:46Z</time></trkpt><trkpt lat="40.6088786621345" lon="16.142519301943455"><ele>588.4</ele><time>2026-04-26T11:58:48Z</time></trkpt><trkpt lat="40.60889593816304" lon="16.142650837063655"><ele>591.8</ele><time>2026-04-26T11:58:50Z</time></trkpt><trkpt lat="40.60894878680818" lon="16.14271957173539"><ele>595.2</ele><time>2026-04-26T11:58:51Z</time></trkpt><trkpt lat="40.60905032573969" lon="16.14274790912829"><ele>598.6</ele><time>2026-04-26T11:58:54Z</time></trkpt><trkpt lat="40.60915768911085" lon="16.14273680939278"><ele>602.0</ele><time>2026-04-26T11:58:56Z</time></trkpt><trkpt lat="40.60922262237452" lon="16.142748130126794"><ele>602.0</ele><time>2026-04-26T11:58:58Z</time></trkpt><trkpt lat="40.60927927089225" lon="16.14278654301485"><ele>602.0</ele><time>2026-04-26T11:59:07Z</time></trkpt><trkpt lat="40.60936786129913" lon="16.142806855500815"><ele>602.0</ele><time>2026-04-26T11:59:09Z</time></trkpt><trkpt lat="40.60945390934808" lon="16.142803038006964"><ele>602.0</ele><time>2026-04-26T11:59:11Z</time></trkpt><trkpt lat="40.60946445323084" lon="16.142926239517212"><ele>602.0</ele><time>2026-04-26T11:59:13Z</time></trkpt><trkpt lat="40.609426619636444" lon="16.142997492898257"><ele>602.0</ele><time>2026-04-26T11:59:15Z</time></trkpt><trkpt lat="40.609397411381934" lon="16.14309503018231"><ele>602.0</ele><time>2026-04-26T11:59:17Z</time></trkpt><trkpt lat="40.60943973762018" lon="16.143211938949477"><ele>602.0</ele><time>2026-04-26T11:59:19Z</time></trkpt><trkpt lat="40.60946344330393" lon="16.143302682052"><ele>602.0</ele><time>2026-04-26T11:59:21Z</time></trkpt><trkpt lat="40.609661009068084" lon="16.14331147603382"><ele>602.0</ele><time>2026-04-26T11:59:25Z</time></trkpt><trkpt lat="40.60970274769408" lon="16.14324793191483"><ele>602.0</ele><time>2026-04-26T11:59:26Z</time></trkpt><trkpt lat="40.609729414382684" lon="16.143161924344156"><ele>605.5</ele><time>2026-04-26T11:59:27Z</time></trkpt><trkpt lat="40.609738467652676" lon="16.143068856450654"><ele>609.0</ele><time>2026-04-26T11:59:29Z</time></trkpt><trkpt lat="40.60970383043378" lon="16.14296209688269"><ele>612.5</ele><time>2026-04-26T11:59:31Z</time></trkpt><trkpt lat="40.609713454606506" lon="16.14285584371751"><ele>616.0</ele><time>2026-04-26T11:59:33Z</time></trkpt><trkpt lat="40.60972539911447" lon="16.142761783422134"><ele>619.5</ele><time>2026-04-26T11:59:35Z</time></trkpt><trkpt lat="40.60972770573926" lon="16.14265034918671"><ele>623.0</ele><time>2026-04-26T11:59:37Z</time></trkpt><trkpt lat="40.609746815009395" lon="16.142531171421517"><ele>623.0</ele><time>2026-04-26T11:59:39Z</time></trkpt><trkpt lat="40.609748491734784" lon="16.142434945640318"><ele>623.0</ele><time>2026-04-26T11:59:41Z</time></trkpt><trkpt lat="40.60977024135157" lon="16.142335368540063"><ele>623.0</ele><time>2026-04-26T11:59:44Z</time></trkpt><trkpt lat="40.60986114050356" lon="16.142310144996145"><ele>623.0</ele><time>2026-04-26T11:59:46Z</time></trkpt><trkpt lat="40.60992705567702" lon="16.142354386987982"><ele>623.0</ele><time>2026-04-26T11:59:48Z</time></trkpt><trkpt lat="40.60994102235412" lon="16.14243584044248"><ele>623.0</ele><time>2026-04-26T11:59:49Z</time></trkpt><trkpt lat="40.60998400976156" lon="16.142575121409994"><ele>623.0</ele><time>2026-04-26T11:59:51Z</time></trkpt><trkpt lat="40.61000663814575" lon="16.142655745198354"><ele>623.0</ele><time>2026-04-26T11:59:53Z</time></trkpt><trkpt lat="40.61002746873812" lon="16.142771950821263"><ele>623.0</ele><time>2026-04-26T11:59:55Z</time></trkpt><trkpt lat="40.610075199346305" lon="16.142860881273375"><ele>623.0</ele><time>2026-04-26T11:59:58Z</time></trkpt><trkpt lat="40.61013233232778" lon="16.142994783183333"><ele>623.0</ele><time>2026-04-26T12:00:00Z</time></trkpt><trkpt lat="40.61017971618109" lon="16.143072604924274"><ele>623.0</ele><time>2026-04-26T12:00:02Z</time></trkpt><trkpt lat="40.610204842636485" lon="16.14317575449161"><ele>625.0</ele><time>2026-04-26T12:00:06Z</time></trkpt><trkpt lat="40.61022712640934" lon="16.143309130813435"><ele>627.0</ele><time>2026-04-26T12:00:09Z</time></trkpt><trkpt lat="40.61022384046443" lon="16.14340756314787"><ele>629.0</ele><time>2026-04-26T12:00:11Z</time></trkpt><trkpt lat="40.61028373343294" lon="16.14355042640048"><ele>631.0</ele><time>2026-04-26T12:00:13Z</time></trkpt><trkpt lat="40.610306172477145" lon="16.143678891817896"><ele>633.0</ele><time>2026-04-26T12:00:15Z</time></trkpt><trkpt lat="40.610312400664526" lon="16.14379742999659"><ele>635.8333333333334</ele><time>2026-04-26T12:00:17Z</time></trkpt><trkpt lat="40.61034927104676" lon="16.143873273764502"><ele>638.6666666666666</ele><time>2026-04-26T12:00:19Z</time></trkpt><trkpt lat="40.61039255701149" lon="16.14396057953752"><ele>641.5</ele><time>2026-04-26T12:00:22Z</time></trkpt><trkpt lat="40.61049277868654" lon="16.143947262151343"><ele>644.3333333333333</ele><time>2026-04-26T12:00:24Z</time></trkpt><trkpt lat="40.61058041410978" lon="16.143909180457772"><ele>647.1666666666666</ele><time>2026-04-26T12:00:26Z</time></trkpt><trkpt lat="40.61064824240299" lon="16.14388380255248"><ele>650.0</ele><time>2026-04-26T12:00:28Z</time></trkpt><trkpt lat="40.61076875587406" lon="16.14388597925744"><ele>650.0</ele><time>2026-04-26T12:00:31Z</time></trkpt><trkpt lat="40.610870642640585" lon="16.14389822894594"><ele>650.0</ele><time>2026-04-26T12:00:33Z</time></trkpt><trkpt lat="40.61097739154808" lon="16.14389345066258"><ele>650.0</ele><time>2026-04-26T12:00:35Z</time></trkpt><trkpt lat="40.61106967400504" lon="16.14384410328017"><ele>650.0</ele><time>2026-04-26T12:00:37Z</time></trkpt><trkpt lat="40.61116974127034" lon="16.14380556777166"><ele>650.0</ele><time>2026-04-26T12:00:39Z</time></trkpt><trkpt lat="40.61124505007368" lon="16.143801694336094"><ele>652.3333333333333</ele><time>2026-04-26T12:00:41Z</time></trkpt><trkpt lat="40.61133360749348" lon="16.14383107300552"><ele>654.6666666666666</ele><time>2026-04-26T12:00:43Z</time></trkpt><trkpt lat="40.61137156823996" lon="16.143923640287497"><ele>657.0</ele><time>2026-04-26T12:00:47Z</time></trkpt><trkpt lat="40.61135245488029" lon="16.14402289773998"><ele>659.3333333333334</ele><time>2026-04-26T12:00:49Z</time></trkpt><trkpt lat="40.61129585789482" lon="16.144101332432626"><ele>661.6666666666667</ele><time>2026-04-26T12:00:51Z</time></trkpt><trkpt lat="40.611253205781466" lon="16.144190104477104"><ele>664.0</ele><time>2026-04-26T12:00:53Z</time></trkpt><trkpt lat="40.61125198643463" lon="16.144280616618016"><ele>668.2</ele><time>2026-04-26T12:00:54Z</time></trkpt><trkpt lat="40.611288404448835" lon="16.144416295474066"><ele>672.4000000000001</ele><time>2026-04-26T12:00:56Z</time></trkpt><trkpt lat="40.611308772484776" lon="16.14449702749976"><ele>676.6</ele><time>2026-04-26T12:00:57Z</time></trkpt><trkpt lat="40.61133193570286" lon="16.14458415780091"><ele>680.8</ele><time>2026-04-26T12:00:58Z</time></trkpt><trkpt lat="40.61140943378059" lon="16.144697659201853"><ele>685.0</ele><time>2026-04-26T12:01:00Z</time></trkpt><trkpt lat="40.611402084925096" lon="16.144863449369346"><ele>687.5</ele><time>2026-04-26T12:01:02Z</time></trkpt><trkpt lat="40.611384026195466" lon="16.144949137658582"><ele>690.0</ele><time>2026-04-26T12:01:03Z</time></trkpt><trkpt lat="40.611384185726955" lon="16.145062121250017"><ele>692.5</ele><time>2026-04-26T12:01:05Z</time></trkpt><trkpt lat="40.6113854298909" lon="16.14518420191477"><ele>695.0</ele><time>2026-04-26T12:01:07Z</time></trkpt><trkpt lat="40.611381508465165" lon="16.14529650462984"><ele>697.5</ele><time>2026-04-26T12:01:10Z</time></trkpt><trkpt lat="40.611417551169495" lon="16.145373744621605"><ele>700.0</ele><time>2026-04-26T12:01:13Z</time></trkpt><trkpt lat="40.61134739368773" lon="16.14543612421642"><ele>700.0</ele><time>2026-04-26T12:01:20Z</time></trkpt><trkpt lat="40.61127331532214" lon="16.14546079412568"><ele>700.0</ele><time>2026-04-26T12:01:22Z</time></trkpt><trkpt lat="40.61121535334991" lon="16.145514532867942"><ele>700.0</ele><time>2026-04-26T12:02:16Z</time></trkpt><trkpt lat="40.61118735139247" lon="16.145603873683847"><ele>700.0</ele><time>2026-04-26T12:02:17Z</time></trkpt><trkpt lat="40.61114564064037" lon="16.145701487483812"><ele>700.0</ele><time>2026-04-26T12:02:18Z</time></trkpt><trkpt lat="40.61112530695541" lon="16.145819168126927"><ele>700.0</ele><time>2026-04-26T12:02:19Z</time></trkpt><trkpt lat="40.61110114751181" lon="16.145910456598465"><ele>696.6</ele><time>2026-04-26T12:02:20Z</time></trkpt><trkpt lat="40.61108505670327" lon="16.146004566024892"><ele>693.2</ele><time>2026-04-26T12:02:21Z</time></trkpt><trkpt lat="40.61107372126015" lon="16.14609456222524"><ele>689.8</ele><time>2026-04-26T12:02:22Z</time></trkpt><trkpt lat="40.61106585366033" lon="16.14618741128436"><ele>686.4</ele><time>2026-04-26T12:02:23Z</time></trkpt><trkpt lat="40.611025073510305" lon="16.146333687922905"><ele>683.0</ele><time>2026-04-26T12:02:25Z</time></trkpt><trkpt lat="40.61091696518388" lon="16.146403347061533"><ele>683.0</ele><time>2026-04-26T12:02:27Z</time></trkpt><trkpt lat="40.6108508423608" lon="16.146419674725248"><ele>683.0</ele><time>2026-04-26T12:02:28Z</time></trkpt><trkpt lat="40.61078586342413" lon="16.146389371301925"><ele>683.0</ele><time>2026-04-26T12:02:30Z</time></trkpt><trkpt lat="40.61070764882122" lon="16.14638857605365"><ele>683.0</ele><time>2026-04-26T12:02:33Z</time></trkpt><trkpt lat="40.61060144378867" lon="16.14641587969937"><ele>683.0</ele><time>2026-04-26T12:02:35Z</time></trkpt><trkpt lat="40.610537977916216" lon="16.14642800088158"><ele>683.0</ele><time>2026-04-26T12:02:36Z</time></trkpt><trkpt lat="40.610464470525734" lon="16.14643646755545"><ele>683.0</ele><time>2026-04-26T12:02:37Z</time></trkpt><trkpt lat="40.61039266020997" lon="16.146447899490312"><ele>683.0</ele><time>2026-04-26T12:02:38Z</time></trkpt><trkpt lat="40.61032610838139" lon="16.146449335612203"><ele>683.0</ele><time>2026-04-26T12:02:39Z</time></trkpt><trkpt lat="40.61021889799054" lon="16.14643582280545"><ele>683.0</ele><time>2026-04-26T12:02:41Z</time></trkpt><trkpt lat="40.610156651791755" lon="16.146387423809912"><ele>683.0</ele><time>2026-04-26T12:02:42Z</time></trkpt><trkpt lat="40.61005574173867" lon="16.14631803778503"><ele>683.0</ele><time>2026-04-26T12:02:44Z</time></trkpt><trkpt lat="40.60999729228337" lon="16.14627819968346"><ele>681.2857142857143</ele><time>2026-04-26T12:02:45Z</time></trkpt><trkpt lat="40.609911020775975" lon="16.146270039931608"><ele>679.5714285714286</ele><time>2026-04-26T12:02:47Z</time></trkpt><trkpt lat="40.60983333059798" lon="16.14625073207717"><ele>677.8571428571429</ele><time>2026-04-26T12:02:49Z</time></trkpt><trkpt lat="40.60975054951062" lon="16.146239227578093"><ele>676.1428571428571</ele><time>2026-04-26T12:02:52Z</time></trkpt><trkpt lat="40.60977163075917" lon="16.146317602639204"><ele>674.4285714285714</ele><time>2026-04-26T12:03:00Z</time></trkpt><trkpt lat="40.609840285658265" lon="16.146321169429644"><ele>672.7142857142857</ele><time>2026-04-26T12:03:01Z</time></trkpt><trkpt lat="40.60990722076903" lon="16.146312928532893"><ele>671.0</ele><time>2026-04-26T12:03:02Z</time></trkpt><trkpt lat="40.60997036924143" lon="16.14633789879422"><ele>671.0</ele><time>2026-04-26T12:03:03Z</time></trkpt><trkpt lat="40.610043101455155" lon="16.14635022321957"><ele>671.0</ele><time>2026-04-26T12:03:04Z</time></trkpt><trkpt lat="40.61011268047953" lon="16.146388182253002"><ele>671.0</ele><time>2026-04-26T12:03:05Z</time></trkpt><trkpt lat="40.6101755472153" lon="16.14643038653134"><ele>671.0</ele><time>2026-04-26T12:03:06Z</time></trkpt><trkpt lat="40.61025335785794" lon="16.146513172792176"><ele>671.0</ele><time>2026-04-26T12:03:08Z</time></trkpt><trkpt lat="40.610335001535056" lon="16.146549599342052"><ele>671.0</ele><time>2026-04-26T12:03:10Z</time></trkpt><trkpt lat="40.61042304699852" lon="16.146498460168928"><ele>673.0</ele><time>2026-04-26T12:03:12Z</time></trkpt><trkpt lat="40.610535793140585" lon="16.146460041981964"><ele>675.0</ele><time>2026-04-26T12:03:14Z</time></trkpt><trkpt lat="40.610602212226325" lon="16.146459529872498"><ele>677.0</ele><time>2026-04-26T12:03:15Z</time></trkpt><trkpt lat="40.61071173685251" lon="16.146475038268616"><ele>679.0</ele><time>2026-04-26T12:03:17Z</time></trkpt><trkpt lat="40.610781483660176" lon="16.146471585506006"><ele>681.0</ele><time>2026-04-26T12:03:19Z</time></trkpt><trkpt lat="40.61076569602043" lon="16.146559443613842"><ele>683.0</ele><time>2026-04-26T12:03:42Z</time></trkpt><trkpt lat="40.61072446837113" lon="16.146633601170045"><ele>684.8333333333333</ele><time>2026-04-26T12:03:46Z</time></trkpt><trkpt lat="40.61066299149635" lon="16.146680348566267"><ele>686.6666666666666</ele><time>2026-04-26T12:03:48Z</time></trkpt><trkpt lat="40.6105876659495" lon="16.14668843104783"><ele>688.5</ele><time>2026-04-26T12:03:51Z</time></trkpt><trkpt lat="40.6104710504524" lon="16.14671349512944"><ele>690.3333333333334</ele><time>2026-04-26T12:03:55Z</time></trkpt><trkpt lat="40.61045609600403" lon="16.146821260391437"><ele>692.1666666666667</ele><time>2026-04-26T12:03:57Z</time></trkpt><trkpt lat="40.61039259228574" lon="16.1468228746435"><ele>694.0</ele><time>2026-04-26T12:03:59Z</time></trkpt><trkpt lat="40.610336113447296" lon="16.146749998614474"><ele>693.5714285714286</ele><time>2026-04-26T12:04:01Z</time></trkpt><trkpt lat="40.61029185731992" lon="16.146822793836265"><ele>693.1428571428571</ele><time>2026-04-26T12:04:03Z</time></trkpt><trkpt lat="40.61022199244831" lon="16.1468666108719"><ele>692.7142857142857</ele><time>2026-04-26T12:04:04Z</time></trkpt><trkpt lat="40.61015896401166" lon="16.146882533550336"><ele>692.2857142857142</ele><time>2026-04-26T12:04:21Z</time></trkpt><trkpt lat="40.610095263381744" lon="16.146873953871705"><ele>691.8571428571429</ele><time>2026-04-26T12:04:23Z</time></trkpt><trkpt lat="40.61001779580378" lon="16.146866274473386"><ele>691.4285714285713</ele><time>2026-04-26T12:05:07Z</time></trkpt><trkpt lat="40.61000429542815" lon="16.146986308544438"><ele>691.0</ele><time>2026-04-26T12:05:21Z</time></trkpt><trkpt lat="40.61001472941425" lon="16.14707402501749"><ele>691.0</ele><time>2026-04-26T12:05:23Z</time></trkpt><trkpt lat="40.61005155234483" lon="16.147152869460736"><ele>691.0</ele><time>2026-04-26T12:05:26Z</time></trkpt><trkpt lat="40.6099836192995" lon="16.147254039028812"><ele>691.0</ele><time>2026-04-26T12:05:28Z</time></trkpt><trkpt lat="40.610006408180205" lon="16.147361641855184"><ele>691.0</ele><time>2026-04-26T12:05:30Z</time></trkpt><trkpt lat="40.60994506411909" lon="16.147430012576347"><ele>691.0</ele><time>2026-04-26T12:05:32Z</time></trkpt><trkpt lat="40.60984683603103" lon="16.147453739838046"><ele>691.0</ele><time>2026-04-26T12:05:34Z</time></trkpt><trkpt lat="40.60979147079693" lon="16.14749495420597"><ele>694.0</ele><time>2026-04-26T12:05:36Z</time></trkpt><trkpt lat="40.609711190565804" lon="16.147548788701954"><ele>697.0</ele><time>2026-04-26T12:05:38Z</time></trkpt><trkpt lat="40.60961003747701" lon="16.14758180912925"><ele>700.0</ele><time>2026-04-26T12:05:40Z</time></trkpt><trkpt lat="40.609532558562776" lon="16.14760615989852"><ele>703.0</ele><time>2026-04-26T12:05:43Z</time></trkpt><trkpt lat="40.6094611737271" lon="16.147585514178438"><ele>706.0</ele><time>2026-04-26T12:05:45Z</time></trkpt><trkpt lat="40.60937815010955" lon="16.14760371768531"><ele>709.0</ele><time>2026-04-26T12:05:47Z</time></trkpt><trkpt lat="40.609286159172754" lon="16.147628071413767"><ele>709.0</ele><time>2026-04-26T12:05:49Z</time></trkpt><trkpt lat="40.60918613866144" lon="16.14764614908173"><ele>709.0</ele><time>2026-04-26T12:05:52Z</time></trkpt><trkpt lat="40.60908120792379" lon="16.14766963805558"><ele>709.0</ele><time>2026-04-26T12:05:54Z</time></trkpt><trkpt lat="40.60900018233557" lon="16.147664221707366"><ele>709.0</ele><time>2026-04-26T12:05:56Z</time></trkpt><trkpt lat="40.608920989214845" lon="16.14764555823872"><ele>709.0</ele><time>2026-04-26T12:05:58Z</time></trkpt><trkpt lat="40.60882269873364" lon="16.147670806199706"><ele>709.0</ele><time>2026-04-26T12:06:00Z</time></trkpt><trkpt lat="40.60875825074618" lon="16.14765686449374"><ele>709.0</ele><time>2026-04-26T12:06:02Z</time></trkpt><trkpt lat="40.60866669922928" lon="16.147689017964332"><ele>709.0</ele><time>2026-04-26T12:06:05Z</time></trkpt><trkpt lat="40.60860584225176" lon="16.147750934643437"><ele>709.0</ele><time>2026-04-26T12:06:07Z</time></trkpt><trkpt lat="40.608522581995366" lon="16.147777571067245"><ele>709.0</ele><time>2026-04-26T12:06:09Z</time></trkpt><trkpt lat="40.608399108342205" lon="16.147817662331757"><ele>709.8333333333334</ele><time>2026-04-26T12:06:11Z</time></trkpt><trkpt lat="40.60831772303948" lon="16.147852231472225"><ele>710.6666666666667</ele><time>2026-04-26T12:06:12Z</time></trkpt><trkpt lat="40.60825650990508" lon="16.147886473916653"><ele>711.5</ele><time>2026-04-26T12:06:13Z</time></trkpt><trkpt lat="40.60818627541438" lon="16.147914189281302"><ele>712.3333333333334</ele><time>2026-04-26T12:06:15Z</time></trkpt><trkpt lat="40.60816039356908" lon="16.148007388488153"><ele>713.1666666666666</ele><time>2026-04-26T12:06:18Z</time></trkpt><trkpt lat="40.608242005664785" lon="16.14816410479733"><ele>714.0</ele><time>2026-04-26T12:06:21Z</time></trkpt><trkpt lat="40.608288533069" lon="16.1482206762188"><ele>717.3333333333334</ele><time>2026-04-26T12:06:22Z</time></trkpt><trkpt lat="40.60833531501064" lon="16.14828070060962"><ele>720.6666666666666</ele><time>2026-04-26T12:06:23Z</time></trkpt><trkpt lat="40.608386355940425" lon="16.148343017390864"><ele>724.0</ele><time>2026-04-26T12:06:24Z</time></trkpt><trkpt lat="40.60843996825477" lon="16.148415330527953"><ele>727.3333333333333</ele><time>2026-04-26T12:06:25Z</time></trkpt><trkpt lat="40.60851559213384" lon="16.148464019433035"><ele>730.6666666666666</ele><time>2026-04-26T12:06:26Z</time></trkpt><trkpt lat="40.60858543278584" lon="16.14851016860314"><ele>734.0</ele><time>2026-04-26T12:06:27Z</time></trkpt><trkpt lat="40.60871273454276" lon="16.148532205699098"><ele>735.8333333333333</ele><time>2026-04-26T12:06:29Z</time></trkpt><trkpt lat="40.608785672218836" lon="16.14853589274871"><ele>737.6666666666666</ele><time>2026-04-26T12:06:30Z</time></trkpt><trkpt lat="40.60886456094928" lon="16.148547612733168"><ele>739.5</ele><time>2026-04-26T12:06:31Z</time></trkpt><trkpt lat="40.60893416559748" lon="16.148568215507606"><ele>741.3333333333334</ele><time>2026-04-26T12:06:32Z</time></trkpt><trkpt lat="40.609009750787465" lon="16.14858131693516"><ele>743.1666666666667</ele><time>2026-04-26T12:06:33Z</time></trkpt><trkpt lat="40.609122781243904" lon="16.14862005645091"><ele>745.0</ele><time>2026-04-26T12:06:35Z</time></trkpt><trkpt lat="40.60924401529341" lon="16.148658672938872"><ele>745.0</ele><time>2026-04-26T12:06:37Z</time></trkpt><trkpt lat="40.609341089846026" lon="16.148662614340225"><ele>745.0</ele><time>2026-04-26T12:06:39Z</time></trkpt><trkpt lat="40.609420743038754" lon="16.148655063049727"><ele>745.0</ele><time>2026-04-26T12:06:41Z</time></trkpt><trkpt lat="40.60949058180141" lon="16.148640345615416"><ele>745.0</ele><time>2026-04-26T12:06:44Z</time></trkpt><trkpt lat="40.60954753794012" lon="16.148695884264434"><ele>745.0</ele><time>2026-04-26T12:08:11Z</time></trkpt><trkpt lat="40.60957621087127" lon="16.148798187607316"><ele>745.0</ele><time>2026-04-26T12:08:13Z</time></trkpt><trkpt lat="40.60959677992743" lon="16.148890481000027"><ele>746.1666666666667</ele><time>2026-04-26T12:08:15Z</time></trkpt><trkpt lat="40.60966481416018" lon="16.148936282552494"><ele>747.3333333333334</ele><time>2026-04-26T12:08:18Z</time></trkpt><trkpt lat="40.609735640567216" lon="16.149015757756253"><ele>748.5</ele><time>2026-04-26T12:08:21Z</time></trkpt><trkpt lat="40.60979188337935" lon="16.14908941525392"><ele>749.6666666666666</ele><time>2026-04-26T12:08:23Z</time></trkpt><trkpt lat="40.60984394959322" lon="16.149162571591756"><ele>750.8333333333333</ele><time>2026-04-26T12:08:25Z</time></trkpt><trkpt lat="40.609911021624235" lon="16.149245295965912"><ele>752.0</ele><time>2026-04-26T12:08:27Z</time></trkpt><trkpt lat="40.60998376641711" lon="16.14933054364903"><ele>752.0</ele><time>2026-04-26T12:08:29Z</time></trkpt><trkpt lat="40.610033581156486" lon="16.149409288045373"><ele>752.0</ele><time>2026-04-26T12:08:31Z</time></trkpt><trkpt lat="40.61010895725921" lon="16.149498814829656"><ele>752.0</ele><time>2026-04-26T12:08:33Z</time></trkpt><trkpt lat="40.610204696564885" lon="16.149543783284777"><ele>752.0</ele><time>2026-04-26T12:08:35Z</time></trkpt><trkpt lat="40.61032522209209" lon="16.149562871374183"><ele>752.0</ele><time>2026-04-26T12:08:37Z</time></trkpt><trkpt lat="40.61039032886931" lon="16.149585442459788"><ele>750.1666666666666</ele><time>2026-04-26T12:08:38Z</time></trkpt><trkpt lat="40.610456924333285" lon="16.149614084086267"><ele>748.3333333333333</ele><time>2026-04-26T12:08:39Z</time></trkpt><trkpt lat="40.610525546615946" lon="16.149631653762505"><ele>746.5</ele><time>2026-04-26T12:08:40Z</time></trkpt><trkpt lat="40.610600966587384" lon="16.14967977361577"><ele>744.6666666666666</ele><time>2026-04-26T12:08:42Z</time></trkpt><trkpt lat="40.61064087395117" lon="16.149755205611253"><ele>742.8333333333334</ele><time>2026-04-26T12:08:44Z</time></trkpt><trkpt lat="40.610709026299304" lon="16.149832879326006"><ele>741.0</ele><time>2026-04-26T12:08:46Z</time></trkpt><trkpt lat="40.61079414784895" lon="16.14991771453683"><ele>740.5999999999999</ele><time>2026-04-26T12:08:48Z</time></trkpt><trkpt lat="40.61087821055469" lon="16.150028084646223"><ele>740.2</ele><time>2026-04-26T12:08:50Z</time></trkpt><trkpt lat="40.610935014384346" lon="16.15014007285583"><ele>739.8</ele><time>2026-04-26T12:08:52Z</time></trkpt><trkpt lat="40.6109787765969" lon="16.150251912074577"><ele>739.4000000000001</ele><time>2026-04-26T12:08:54Z</time></trkpt><trkpt lat="40.61101234765821" lon="16.150371755290642"><ele>739.0</ele><time>2026-04-26T12:08:56Z</time></trkpt><trkpt lat="40.61103189805485" lon="16.15052025305413"><ele>739.0</ele><time>2026-04-26T12:08:58Z</time></trkpt><trkpt lat="40.61104940127973" lon="16.150652187043562"><ele>739.0</ele><time>2026-04-26T12:09:00Z</time></trkpt><trkpt lat="40.611072890479086" lon="16.150778357480462"><ele>739.0</ele><time>2026-04-26T12:09:02Z</time></trkpt><trkpt lat="40.61108684638015" lon="16.150894784613484"><ele>739.0</ele><time>2026-04-26T12:09:06Z</time></trkpt><trkpt lat="40.61110434203067" lon="16.15100539843868"><ele>739.0</ele><time>2026-04-26T12:09:08Z</time></trkpt><trkpt lat="40.61110401768397" lon="16.151138662757003"><ele>737.2</ele><time>2026-04-26T12:09:10Z</time></trkpt><trkpt lat="40.611130029305684" lon="16.15124246937723"><ele>735.4000000000001</ele><time>2026-04-26T12:09:12Z</time></trkpt><trkpt lat="40.611162253842686" lon="16.151346283982594"><ele>733.6</ele><time>2026-04-26T12:09:16Z</time></trkpt><trkpt lat="40.61124702955551" lon="16.15150673493279"><ele>731.8</ele><time>2026-04-26T12:09:17Z</time></trkpt><trkpt lat="40.61129093199907" lon="16.1516175850589"><ele>730.0</ele><time>2026-04-26T12:09:19Z</time></trkpt><trkpt lat="40.611321261258595" lon="16.15169088178467"><ele>727.3333333333334</ele><time>2026-04-26T12:09:23Z</time></trkpt><trkpt lat="40.61132565880635" lon="16.151774859498403"><ele>724.6666666666667</ele><time>2026-04-26T12:09:31Z</time></trkpt><trkpt lat="40.61135258397742" lon="16.151851575788893"><ele>722.0</ele><time>2026-04-26T12:09:34Z</time></trkpt><trkpt lat="40.61140867569873" lon="16.151930668894494"><ele>719.3333333333334</ele><time>2026-04-26T12:09:37Z</time></trkpt><trkpt lat="40.61140235374515" lon="16.152017431744575"><ele>716.6666666666666</ele><time>2026-04-26T12:09:39Z</time></trkpt><trkpt lat="40.61145826959832" lon="16.15213335790089"><ele>714.0</ele><time>2026-04-26T12:09:41Z</time></trkpt><trkpt lat="40.61149241214299" lon="16.15224089924752"><ele>714.0</ele><time>2026-04-26T12:09:43Z</time></trkpt><trkpt lat="40.61150170037698" lon="16.152363207456393"><ele>714.0</ele><time>2026-04-26T12:09:45Z</time></trkpt><trkpt lat="40.61151652339524" lon="16.152491360792503"><ele>714.0</ele><time>2026-04-26T12:09:48Z</time></trkpt><trkpt lat="40.61149279268906" lon="16.15265230985441"><ele>714.0</ele><time>2026-04-26T12:09:52Z</time></trkpt><trkpt lat="40.61148301756003" lon="16.15277160731418"><ele>714.0</ele><time>2026-04-26T12:09:54Z</time></trkpt><trkpt lat="40.61149246999626" lon="16.15288551194419"><ele>712.1666666666666</ele><time>2026-04-26T12:09:57Z</time></trkpt><trkpt lat="40.611500665332855" lon="16.152981462495244"><ele>710.3333333333334</ele><time>2026-04-26T12:09:59Z</time></trkpt><trkpt lat="40.61152632185843" lon="16.153074157658907"><ele>708.5</ele><time>2026-04-26T12:10:01Z</time></trkpt><trkpt lat="40.61156511729857" lon="16.15315297200513"><ele>706.6666666666667</ele><time>2026-04-26T12:10:03Z</time></trkpt><trkpt lat="40.611525134619434" lon="16.15303961561714"><ele>704.8333333333334</ele><time>2026-04-26T12:10:16Z</time></trkpt><trkpt lat="40.61145499710078" lon="16.152975743413887"><ele>703.0</ele><time>2026-04-26T12:10:18Z</time></trkpt><trkpt lat="40.61139013960967" lon="16.152920227091396"><ele>703.0</ele><time>2026-04-26T12:10:20Z</time></trkpt><trkpt lat="40.61132930498711" lon="16.152830400296914"><ele>703.0</ele><time>2026-04-26T12:10:22Z</time></trkpt><trkpt lat="40.61125107697675" lon="16.152753192496103"><ele>703.0</ele><time>2026-04-26T12:10:24Z</time></trkpt><trkpt lat="40.61118396112673" lon="16.15266874251746"><ele>703.0</ele><time>2026-04-26T12:10:26Z</time></trkpt><trkpt lat="40.611134136918764" lon="16.15260173534145"><ele>703.0</ele><time>2026-04-26T12:10:28Z</time></trkpt><trkpt lat="40.61107079885304" lon="16.152554204175836"><ele>703.0</ele><time>2026-04-26T12:11:00Z</time></trkpt><trkpt lat="40.61100637226803" lon="16.152557048987493"><ele>699.8571428571429</ele><time>2026-04-26T12:11:58Z</time></trkpt><trkpt lat="40.6110588794635" lon="16.15262137688395"><ele>696.7142857142858</ele><time>2026-04-26T12:12:06Z</time></trkpt><trkpt lat="40.61104896027076" lon="16.152711274109723"><ele>693.5714285714287</ele><time>2026-04-26T12:12:09Z</time></trkpt><trkpt lat="40.61104138098801" lon="16.152808016077458"><ele>690.4285714285714</ele><time>2026-04-26T12:12:11Z</time></trkpt><trkpt lat="40.61103363692442" lon="16.152910895144057"><ele>687.2857142857143</ele><time>2026-04-26T12:16:09Z</time></trkpt><trkpt lat="40.61101069365407" lon="16.152992634396337"><ele>684.1428571428572</ele><time>2026-04-26T12:16:12Z</time></trkpt><trkpt lat="40.6109461815834" lon="16.15298788593123"><ele>681.0</ele><time>2026-04-26T12:16:16Z</time></trkpt><trkpt lat="40.61093864217982" lon="16.153092579381404"><ele>681.0</ele><time>2026-04-26T12:16:20Z</time></trkpt><trkpt lat="40.61094072660596" lon="16.153183970370762"><ele>681.0</ele><time>2026-04-26T12:16:22Z</time></trkpt><trkpt lat="40.610954015554995" lon="16.1532665561808"><ele>681.0</ele><time>2026-04-26T12:16:24Z</time></trkpt><trkpt lat="40.610962263305545" lon="16.153351895648832"><ele>681.0</ele><time>2026-04-26T12:16:26Z</time></trkpt><trkpt lat="40.610954616875105" lon="16.15347456947822"><ele>681.0</ele><time>2026-04-26T12:16:28Z</time></trkpt><trkpt lat="40.610928734682716" lon="16.15359371402163"><ele>681.0</ele><time>2026-04-26T12:16:30Z</time></trkpt><trkpt lat="40.61087540946148" lon="16.153675915681102"><ele>679.5</ele><time>2026-04-26T12:16:32Z</time></trkpt><trkpt lat="40.6108297994906" lon="16.153752648117873"><ele>678.0</ele><time>2026-04-26T12:16:34Z</time></trkpt><trkpt lat="40.610763978805174" lon="16.153787318999207"><ele>676.5</ele><time>2026-04-26T12:16:36Z</time></trkpt><trkpt lat="40.610693357649915" lon="16.153770004621506"><ele>675.0</ele><time>2026-04-26T12:16:40Z</time></trkpt><trkpt lat="40.61064901545765" lon="16.153677091753753"><ele>673.5</ele><time>2026-04-26T12:16:44Z</time></trkpt><trkpt lat="40.610638081330016" lon="16.15352836195912"><ele>672.0</ele><time>2026-04-26T12:16:47Z</time></trkpt><trkpt lat="40.61061448766238" lon="16.153427041956203"><ele>672.0</ele><time>2026-04-26T12:16:49Z</time></trkpt><trkpt lat="40.610566220321274" lon="16.153317636999546"><ele>672.0</ele><time>2026-04-26T12:16:52Z</time></trkpt><trkpt lat="40.61053804410704" lon="16.15323118856398"><ele>672.0</ele><time>2026-04-26T12:16:54Z</time></trkpt><trkpt lat="40.61049831417673" lon="16.153159034686087"><ele>672.0</ele><time>2026-04-26T12:16:56Z</time></trkpt><trkpt lat="40.61042860396912" lon="16.153136170311974"><ele>672.0</ele><time>2026-04-26T12:16:58Z</time></trkpt><trkpt lat="40.6104686922977" lon="16.153067242025443"><ele>672.0</ele><time>2026-04-26T12:17:06Z</time></trkpt><trkpt lat="40.61048678257688" lon="16.152978396872204"><ele>672.0</ele><time>2026-04-26T12:17:08Z</time></trkpt><trkpt lat="40.610524700832926" lon="16.152898288394045"><ele>673.2857142857143</ele><time>2026-04-26T12:17:12Z</time></trkpt><trkpt lat="40.61050487277067" lon="16.15279981737162"><ele>674.5714285714286</ele><time>2026-04-26T12:17:14Z</time></trkpt><trkpt lat="40.610440651178735" lon="16.152739813503068"><ele>675.8571428571429</ele><time>2026-04-26T12:17:17Z</time></trkpt><trkpt lat="40.61036856759389" lon="16.152740888129557"><ele>677.1428571428571</ele><time>2026-04-26T12:17:19Z</time></trkpt><trkpt lat="40.6102804119767" lon="16.152724990230897"><ele>678.4285714285714</ele><time>2026-04-26T12:17:22Z</time></trkpt><trkpt lat="40.61021584606742" lon="16.15271795395207"><ele>679.7142857142858</ele><time>2026-04-26T12:17:24Z</time></trkpt><trkpt lat="40.61016949072598" lon="16.152653211347353"><ele>681.0</ele><time>2026-04-26T12:17:27Z</time></trkpt><trkpt lat="40.61010836771963" lon="16.15262661389401"><ele>679.5714285714287</ele><time>2026-04-26T12:17:31Z</time></trkpt><trkpt lat="40.61010247083058" lon="16.152538053567252"><ele>678.1428571428571</ele><time>2026-04-26T12:17:33Z</time></trkpt><trkpt lat="40.610058728881185" lon="16.152435154938683"><ele>676.7142857142858</ele><time>2026-04-26T12:17:36Z</time></trkpt><trkpt lat="40.610053180407995" lon="16.152343912448615"><ele>675.2857142857143</ele><time>2026-04-26T12:17:38Z</time></trkpt><trkpt lat="40.61002532984374" lon="16.15226700054913"><ele>673.8571428571429</ele><time>2026-04-26T12:17:40Z</time></trkpt><trkpt lat="40.60999599825932" lon="16.152175088039016"><ele>672.4285714285714</ele><time>2026-04-26T12:17:43Z</time></trkpt><trkpt lat="40.60999781502153" lon="16.152075424672407"><ele>671.0</ele><time>2026-04-26T12:17:47Z</time></trkpt><trkpt lat="40.60996175857269" lon="16.15200313594158"><ele>671.0</ele><time>2026-04-26T12:18:51Z</time></trkpt><trkpt lat="40.60989258556641" lon="16.151993301511098"><ele>671.0</ele><time>2026-04-26T12:19:25Z</time></trkpt><trkpt lat="40.609793266093995" lon="16.15196946407628"><ele>671.0</ele><time>2026-04-26T12:19:43Z</time></trkpt><trkpt lat="40.60971433122306" lon="16.151968090566047"><ele>671.0</ele><time>2026-04-26T12:19:48Z</time></trkpt><trkpt lat="40.609612224068584" lon="16.151936514562703"><ele>671.0</ele><time>2026-04-26T12:19:50Z</time></trkpt><trkpt lat="40.609545730079525" lon="16.151922190899597"><ele>671.0</ele><time>2026-04-26T12:19:52Z</time></trkpt><trkpt lat="40.60948325583541" lon="16.151910304260003"><ele>669.1666666666666</ele><time>2026-04-26T12:19:54Z</time></trkpt><trkpt lat="40.60939171123574" lon="16.151941281909583"><ele>667.3333333333333</ele><time>2026-04-26T12:19:57Z</time></trkpt><trkpt lat="40.60931296060221" lon="16.151980780920436"><ele>665.5</ele><time>2026-04-26T12:20:00Z</time></trkpt><trkpt lat="40.60921883844389" lon="16.15200221990591"><ele>663.6666666666666</ele><time>2026-04-26T12:20:03Z</time></trkpt><trkpt lat="40.609127266384306" lon="16.152002421320113"><ele>661.8333333333334</ele><time>2026-04-26T12:20:06Z</time></trkpt><trkpt lat="40.609049465968404" lon="16.152005208143446"><ele>660.0</ele><time>2026-04-26T12:20:09Z</time></trkpt><trkpt lat="40.608984032581986" lon="16.152031310693232"><ele>660.0</ele><time>2026-04-26T12:20:11Z</time></trkpt><trkpt lat="40.608883267877594" lon="16.152035471656955"><ele>660.0</ele><time>2026-04-26T12:20:13Z</time></trkpt><trkpt lat="40.60881984194016" lon="16.152016147764517"><ele>660.0</ele><time>2026-04-26T12:20:14Z</time></trkpt><trkpt lat="40.60875317172059" lon="16.152003041313677"><ele>660.0</ele><time>2026-04-26T12:20:15Z</time></trkpt><trkpt lat="40.608648351389576" lon="16.15197466371724"><ele>660.0</ele><time>2026-04-26T12:20:17Z</time></trkpt><trkpt lat="40.608583084742016" lon="16.151959090149763"><ele>660.0</ele><time>2026-04-26T12:20:19Z</time></trkpt><trkpt lat="40.60851330084125" lon="16.151912582833024"><ele>656.5</ele><time>2026-04-26T12:20:22Z</time></trkpt><trkpt lat="40.608439076734605" lon="16.151867934077465"><ele>653.0</ele><time>2026-04-26T12:20:24Z</time></trkpt><trkpt lat="40.60836905841557" lon="16.15183602699202"><ele>649.5</ele><time>2026-04-26T12:20:26Z</time></trkpt><trkpt lat="40.6083144066972" lon="16.151777313108475"><ele>646.0</ele><time>2026-04-26T12:20:28Z</time></trkpt><trkpt lat="40.60824081277344" lon="16.15175106865869"><ele>642.5</ele><time>2026-04-26T12:20:35Z</time></trkpt><trkpt lat="40.60815121657014" lon="16.151739181270734"><ele>639.0</ele><time>2026-04-26T12:20:37Z</time></trkpt><trkpt lat="40.608070080871485" lon="16.151775599763628"><ele>639.0</ele><time>2026-04-26T12:20:41Z</time></trkpt><trkpt lat="40.60795827752341" lon="16.151795845225163"><ele>639.0</ele><time>2026-04-26T12:20:44Z</time></trkpt><trkpt lat="40.60790243187736" lon="16.151835368492428"><ele>639.0</ele><time>2026-04-26T12:20:46Z</time></trkpt><trkpt lat="40.60783249828771" lon="16.151851470943814"><ele>639.0</ele><time>2026-04-26T12:20:48Z</time></trkpt><trkpt lat="40.60779972199259" lon="16.151779081253142"><ele>639.0</ele><time>2026-04-26T12:20:52Z</time></trkpt><trkpt lat="40.6076802831188" lon="16.151744835389813"><ele>639.0</ele><time>2026-04-26T12:20:55Z</time></trkpt><trkpt lat="40.60757858634943" lon="16.151793268504353"><ele>634.6666666666666</ele><time>2026-04-26T12:20:58Z</time></trkpt><trkpt lat="40.60751170472708" lon="16.151810073736755"><ele>630.3333333333334</ele><time>2026-04-26T12:20:59Z</time></trkpt><trkpt lat="40.60745856275695" lon="16.15187261596302"><ele>626.0</ele><time>2026-04-26T12:21:01Z</time></trkpt><trkpt lat="40.607402080432514" lon="16.151968880233362"><ele>621.6666666666667</ele><time>2026-04-26T12:21:04Z</time></trkpt><trkpt lat="40.607363366353596" lon="16.152042571900452"><ele>617.3333333333334</ele><time>2026-04-26T12:21:06Z</time></trkpt><trkpt lat="40.607317104958064" lon="16.152143330423794"><ele>613.0</ele><time>2026-04-26T12:21:09Z</time></trkpt><trkpt lat="40.60724358405511" lon="16.15218785778149"><ele>613.0</ele><time>2026-04-26T12:21:12Z</time></trkpt><trkpt lat="40.60717429618451" lon="16.152169170534187"><ele>613.0</ele><time>2026-04-26T12:21:15Z</time></trkpt><trkpt lat="40.60711033536822" lon="16.152116111394665"><ele>613.0</ele><time>2026-04-26T12:21:17Z</time></trkpt><trkpt lat="40.60703651476067" lon="16.152040244833003"><ele>613.0</ele><time>2026-04-26T12:21:21Z</time></trkpt><trkpt lat="40.60696997029481" lon="16.15195186263819"><ele>613.0</ele><time>2026-04-26T12:21:23Z</time></trkpt><trkpt lat="40.60687677733775" lon="16.151915534479862"><ele>613.0</ele><time>2026-04-26T12:21:25Z</time></trkpt><trkpt lat="40.606845938927535" lon="16.151831327723976"><ele>615.5</ele><time>2026-04-26T12:21:26Z</time></trkpt><trkpt lat="40.606772940914674" lon="16.15174696708292"><ele>618.0</ele><time>2026-04-26T12:21:28Z</time></trkpt><trkpt lat="40.60666978788134" lon="16.15167959442106"><ele>620.5</ele><time>2026-04-26T12:21:30Z</time></trkpt><trkpt lat="40.60661836967089" lon="16.151596252138653"><ele>623.0</ele><time>2026-04-26T12:21:32Z</time></trkpt><trkpt lat="40.60657727725137" lon="16.15153057853947"><ele>625.5</ele><time>2026-04-26T12:21:54Z</time></trkpt><trkpt lat="40.60651532853026" lon="16.15157110764903"><ele>628.0</ele><time>2026-04-26T12:22:07Z</time></trkpt><trkpt lat="40.60644302998347" lon="16.151591791160733"><ele>622.5</ele><time>2026-04-26T12:22:11Z</time></trkpt><trkpt lat="40.60634837168333" lon="16.151607258517526"><ele>617.0</ele><time>2026-04-26T12:22:13Z</time></trkpt><trkpt lat="40.60628856858567" lon="16.15165346389398"><ele>611.5</ele><time>2026-04-26T12:22:15Z</time></trkpt><trkpt lat="40.60624909736275" lon="16.151730709116304"><ele>606.0</ele><time>2026-04-26T12:22:17Z</time></trkpt><trkpt lat="40.60623103209885" lon="16.151827841545725"><ele>600.5</ele><time>2026-04-26T12:22:21Z</time></trkpt><trkpt lat="40.60617062602791" lon="16.15187482553509"><ele>595.0</ele><time>2026-04-26T12:22:48Z</time></trkpt><trkpt lat="40.60613723433159" lon="16.15198421442806"><ele>594.5</ele><time>2026-04-26T12:22:51Z</time></trkpt><trkpt lat="40.60611543671394" lon="16.15207928609477"><ele>594.0</ele><time>2026-04-26T12:22:53Z</time></trkpt><trkpt lat="40.60612489669303" lon="16.152201589887795"><ele>593.5</ele><time>2026-04-26T12:22:55Z</time></trkpt><trkpt lat="40.60608601320684" lon="16.15230885062279"><ele>593.0</ele><time>2026-04-26T12:22:58Z</time></trkpt><trkpt lat="40.60600673242082" lon="16.15231879630939"><ele>592.5</ele><time>2026-04-26T12:23:02Z</time></trkpt><trkpt lat="40.60592566583847" lon="16.152260146284572"><ele>592.0</ele><time>2026-04-26T12:23:04Z</time></trkpt><trkpt lat="40.60587282683308" lon="16.15216635555957"><ele>592.0</ele><time>2026-04-26T12:23:06Z</time></trkpt><trkpt lat="40.60580151645873" lon="16.152147320498706"><ele>592.0</ele><time>2026-04-26T12:23:08Z</time></trkpt><trkpt lat="40.605748988420096" lon="16.152196432275048"><ele>592.0</ele><time>2026-04-26T12:23:10Z</time></trkpt><trkpt lat="40.60569843411076" lon="16.152274540207145"><ele>592.0</ele><time>2026-04-26T12:23:12Z</time></trkpt><trkpt lat="40.60563390973318" lon="16.15228821157956"><ele>592.0</ele><time>2026-04-26T12:23:15Z</time></trkpt><trkpt lat="40.60556916819109" lon="16.15230469133986"><ele>592.0</ele><time>2026-04-26T12:24:03Z</time></trkpt><trkpt lat="40.60557956105403" lon="16.152407677522334"><ele>592.0</ele><time>2026-04-26T12:24:07Z</time></trkpt><trkpt lat="40.60557705481495" lon="16.15252247705587"><ele>587.8333333333334</ele><time>2026-04-26T12:24:09Z</time></trkpt><trkpt lat="40.60555895977046" lon="16.15263292629969"><ele>583.6666666666667</ele><time>2026-04-26T12:24:11Z</time></trkpt><trkpt lat="40.605527549086744" lon="16.152731144584585"><ele>579.5</ele><time>2026-04-26T12:24:13Z</time></trkpt><trkpt lat="40.60550721270159" lon="16.152828501383997"><ele>575.3333333333334</ele><time>2026-04-26T12:24:15Z</time></trkpt><trkpt lat="40.60549758933352" lon="16.152952315250822"><ele>571.1666666666666</ele><time>2026-04-26T12:24:17Z</time></trkpt><trkpt lat="40.60548686601117" lon="16.153054955832943"><ele>567.0</ele><time>2026-04-26T12:24:19Z</time></trkpt><trkpt lat="40.60541859615316" lon="16.15312904769558"><ele>567.0</ele><time>2026-04-26T12:24:22Z</time></trkpt><trkpt lat="40.605352742842356" lon="16.153150736904124"><ele>567.0</ele><time>2026-04-26T12:24:27Z</time></trkpt><trkpt lat="40.60527450625809" lon="16.15307806645506"><ele>567.0</ele><time>2026-04-26T12:24:33Z</time></trkpt><trkpt lat="40.60520137055652" lon="16.15301285613517"><ele>567.0</ele><time>2026-04-26T12:24:37Z</time></trkpt><trkpt lat="40.605132464695146" lon="16.152940618272794"><ele>567.0</ele><time>2026-04-26T12:24:40Z</time></trkpt><trkpt lat="40.60507975400198" lon="16.15284728797061"><ele>567.0</ele><time>2026-04-26T12:24:43Z</time></trkpt><trkpt lat="40.60504307756936" lon="16.15276861180405"><ele>567.6666666666666</ele><time>2026-04-26T12:24:45Z</time></trkpt><trkpt lat="40.60499624290331" lon="16.152684878655485"><ele>568.3333333333334</ele><time>2026-04-26T12:24:47Z</time></trkpt><trkpt lat="40.60497446858712" lon="16.152606094765595"><ele>569.0</ele><time>2026-04-26T12:24:50Z</time></trkpt><trkpt lat="40.604994605012934" lon="16.152502605170028"><ele>569.6666666666667</ele><time>2026-04-26T12:24:53Z</time></trkpt><trkpt lat="40.60493859928787" lon="16.152456227828633"><ele>570.3333333333334</ele><time>2026-04-26T12:26:24Z</time></trkpt><trkpt lat="40.604997726461505" lon="16.152354587861055"><ele>571.0</ele><time>2026-04-26T12:29:12Z</time></trkpt><trkpt lat="40.6050010520807" lon="16.1522494491305"><ele>571.0</ele><time>2026-04-26T12:29:17Z</time></trkpt><trkpt lat="40.60490270506479" lon="16.152274188714376"><ele>571.0</ele><time>2026-04-26T12:29:30Z</time></trkpt><trkpt lat="40.60482905833955" lon="16.152310812840465"><ele>571.0</ele><time>2026-04-26T12:29:33Z</time></trkpt><trkpt lat="40.604749659450526" lon="16.152345882391867"><ele>571.0</ele><time>2026-04-26T12:29:36Z</time></trkpt><trkpt lat="40.60471350117738" lon="16.152426436587813"><ele>571.0</ele><time>2026-04-26T12:29:39Z</time></trkpt><trkpt lat="40.60464551867026" lon="16.15243026446174"><ele>571.0</ele><time>2026-04-26T12:29:42Z</time></trkpt><trkpt lat="40.60456567328859" lon="16.152443155710507"><ele>566.3333333333334</ele><time>2026-04-26T12:29:47Z</time></trkpt><trkpt lat="40.604565509208314" lon="16.152540075448982"><ele>561.6666666666667</ele><time>2026-04-26T12:29:49Z</time></trkpt><trkpt lat="40.604604052907106" lon="16.152638165562486"><ele>557.0</ele><time>2026-04-26T12:29:52Z</time></trkpt><trkpt lat="40.604614921217724" lon="16.15272420083429"><ele>552.3333333333334</ele><time>2026-04-26T12:29:55Z</time></trkpt><trkpt lat="40.60457087377178" lon="16.152801891332356"><ele>547.6666666666666</ele><time>2026-04-26T12:29:59Z</time></trkpt><trkpt lat="40.60448131560659" lon="16.152807636362954"><ele>543.0</ele><time>2026-04-26T12:30:02Z</time></trkpt><trkpt lat="40.60440817980413" lon="16.152835055412"><ele>538.6666666666666</ele><time>2026-04-26T12:30:04Z</time></trkpt><trkpt lat="40.60434164968942" lon="16.152904501613307"><ele>534.3333333333334</ele><time>2026-04-26T12:30:06Z</time></trkpt><trkpt lat="40.604287744663445" lon="16.152954064895646"><ele>530.0</ele><time>2026-04-26T12:30:09Z</time></trkpt><trkpt lat="40.6041923662579" lon="16.152996445265057"><ele>525.6666666666667</ele><time>2026-04-26T12:30:13Z</time></trkpt><trkpt lat="40.60410971706668" lon="16.15299476635147"><ele>521.3333333333334</ele><time>2026-04-26T12:30:15Z</time></trkpt><trkpt lat="40.60404545063018" lon="16.152966978604802"><ele>517.0</ele><time>2026-04-26T12:30:17Z</time></trkpt><trkpt lat="40.60397009827871" lon="16.15301503114238"><ele>517.0</ele><time>2026-04-26T12:30:19Z</time></trkpt><trkpt lat="40.603905143631934" lon="16.15308206980761"><ele>517.0</ele><time>2026-04-26T12:30:21Z</time></trkpt><trkpt lat="40.60383855948448" lon="16.15312406085216"><ele>517.0</ele><time>2026-04-26T12:30:24Z</time></trkpt><trkpt lat="40.603769726164735" lon="16.153139522550948"><ele>517.0</ele><time>2026-04-26T12:30:26Z</time></trkpt><trkpt lat="40.60371617207891" lon="16.1531868615526"><ele>517.0</ele><time>2026-04-26T12:30:34Z</time></trkpt><trkpt lat="40.60366406872392" lon="16.153104748443077"><ele>517.0</ele><time>2026-04-26T12:30:37Z</time></trkpt><trkpt lat="40.603651063300035" lon="16.152984515744194"><ele>512.6666666666667</ele><time>2026-04-26T12:30:39Z</time></trkpt><trkpt lat="40.60362340347338" lon="16.152861203512956"><ele>508.33333333333337</ele><time>2026-04-26T12:30:41Z</time></trkpt><trkpt lat="40.603606332464544" lon="16.152767618393636"><ele>504.0</ele><time>2026-04-26T12:30:43Z</time></trkpt><trkpt lat="40.60353517001321" lon="16.152732423043112"><ele>499.66666666666663</ele><time>2026-04-26T12:31:02Z</time></trkpt><trkpt lat="40.60346304776366" lon="16.15269774075524"><ele>495.3333333333333</ele><time>2026-04-26T12:31:07Z</time></trkpt><trkpt lat="40.603454435185434" lon="16.152798707183134"><ele>491.0</ele><time>2026-04-26T12:31:11Z</time></trkpt><trkpt lat="40.60341053426616" lon="16.152899420197304"><ele>491.0</ele><time>2026-04-26T12:31:14Z</time></trkpt><trkpt lat="40.60335931226953" lon="16.152951788948574"><ele>490.99999999999994</ele><time>2026-04-26T12:31:17Z</time></trkpt><trkpt lat="40.60330246168829" lon="16.15289480450863"><ele>491.0</ele><time>2026-04-26T12:31:21Z</time></trkpt><trkpt lat="40.60325870688177" lon="16.15281580644598"><ele>491.0</ele><time>2026-04-26T12:31:23Z</time></trkpt><trkpt lat="40.60317851474475" lon="16.152841279220862"><ele>490.99999999999994</ele><time>2026-04-26T12:31:26Z</time></trkpt><trkpt lat="40.6031002324431" lon="16.152839617470253"><ele>491.0</ele><time>2026-04-26T12:31:28Z</time></trkpt><trkpt lat="40.60302993427757" lon="16.152877876950647"><ele>491.0</ele><time>2026-04-26T12:31:30Z</time></trkpt><trkpt lat="40.602957367393124" lon="16.15288999429022"><ele>490.99999999999994</ele><time>2026-04-26T12:31:32Z</time></trkpt><trkpt lat="40.60290475879406" lon="16.152935919856123"><ele>491.0</ele><time>2026-04-26T12:31:35Z</time></trkpt><trkpt lat="40.60289957980529" lon="16.153020975002192"><ele>491.0</ele><time>2026-04-26T12:31:37Z</time></trkpt><trkpt lat="40.602878052927494" lon="16.153158736260917"><ele>491.0</ele><time>2026-04-26T12:31:39Z</time></trkpt><trkpt lat="40.602871964736956" lon="16.153252333555617"><ele>490.99999999999994</ele><time>2026-04-26T12:31:41Z</time></trkpt><trkpt lat="40.6028380508365" lon="16.15333164118092"><ele>491.0</ele><time>2026-04-26T12:31:44Z</time></trkpt><trkpt lat="40.60280011487485" lon="16.153419470828876"><ele>484.49999999999994</ele><time>2026-04-26T12:31:47Z</time></trkpt><trkpt lat="40.60280564458415" lon="16.15353461994024"><ele>478.0</ele><time>2026-04-26T12:31:51Z</time></trkpt><trkpt lat="40.602773616250715" lon="16.15362146680223"><ele>471.5</ele><time>2026-04-26T12:31:54Z</time></trkpt><trkpt lat="40.60270798536205" lon="16.153675251871416"><ele>465.0</ele><time>2026-04-26T12:31:58Z</time></trkpt><trkpt lat="40.602649145464596" lon="16.153741763327613"><ele>458.49999999999994</ele><time>2026-04-26T12:32:02Z</time></trkpt><trkpt lat="40.602580996661715" lon="16.15380624163283"><ele>452.0</ele><time>2026-04-26T12:32:05Z</time></trkpt><trkpt lat="40.60251286444386" lon="16.153915275676216"><ele>451.99999999999994</ele><time>2026-04-26T12:32:07Z</time></trkpt><trkpt lat="40.60247261516982" lon="16.153979980930117"><ele>452.0</ele><time>2026-04-26T12:32:08Z</time></trkpt><trkpt lat="40.60243166330127" lon="16.15404576344791"><ele>452.0</ele><time>2026-04-26T12:32:10Z</time></trkpt><trkpt lat="40.602390495981915" lon="16.154157525914613"><ele>452.0</ele><time>2026-04-26T12:32:13Z</time></trkpt><trkpt lat="40.60230807863134" lon="16.15424832061554"><ele>451.99999999999994</ele><time>2026-04-26T12:32:16Z</time></trkpt><trkpt lat="40.60223636159893" lon="16.154334518218775"><ele>452.0</ele><time>2026-04-26T12:32:20Z</time></trkpt><trkpt lat="40.60218152309394" lon="16.15438423388516"><ele>451.99999999999994</ele><time>2026-04-26T12:32:24Z</time></trkpt><trkpt lat="40.60211011869484" lon="16.154349954498027"><ele>452.0</ele><time>2026-04-26T12:32:27Z</time></trkpt><trkpt lat="40.602025462880775" lon="16.154408394230355"><ele>452.0</ele><time>2026-04-26T12:33:38.999Z</time></trkpt><trkpt lat="40.6019758697922" lon="16.154339602998853"><ele>452.0</ele><time>2026-04-26T12:34:28Z</time></trkpt><trkpt lat="40.601983018552886" lon="16.154240010385625"><ele>451.99999999999994</ele><time>2026-04-26T12:34:38Z</time></trkpt><trkpt lat="40.60195132854825" lon="16.154151299519135"><ele>452.0</ele><time>2026-04-26T12:34:51Z</time></trkpt><trkpt lat="40.60188801699447" lon="16.154078146857458"><ele>448.99999999999994</ele><time>2026-04-26T12:34:54Z</time></trkpt><trkpt lat="40.601852502900556" lon="16.153985186069495"><ele>446.0</ele><time>2026-04-26T12:34:57Z</time></trkpt><trkpt lat="40.60181076039479" lon="16.15406159235255"><ele>443.0</ele><time>2026-04-26T12:35:09Z</time></trkpt><trkpt lat="40.60178047458219" lon="16.154173307084786"><ele>440.0</ele><time>2026-04-26T12:35:12Z</time></trkpt><trkpt lat="40.60173556204656" lon="16.154288955388008"><ele>436.99999999999994</ele><time>2026-04-26T12:35:14Z</time></trkpt><trkpt lat="40.60167718104324" lon="16.15434364811449"><ele>434.0</ele><time>2026-04-26T12:35:17Z</time></trkpt><trkpt lat="40.601602688732484" lon="16.154397813633803"><ele>434.0</ele><time>2026-04-26T12:35:19Z</time></trkpt><trkpt lat="40.60152411992053" lon="16.154498489877266"><ele>434.0</ele><time>2026-04-26T12:35:21Z</time></trkpt><trkpt lat="40.60144366046499" lon="16.154593089309582"><ele>434.0</ele><time>2026-04-26T12:35:23Z</time></trkpt><trkpt lat="40.60137559229982" lon="16.154642689638482"><ele>434.0</ele><time>2026-04-26T12:35:25Z</time></trkpt><trkpt lat="40.60127700687671" lon="16.15465734431739"><ele>434.0</ele><time>2026-04-26T12:35:27Z</time></trkpt><trkpt lat="40.60121189368477" lon="16.154664907809238"><ele>430.16666666666663</ele><time>2026-04-26T12:35:28Z</time></trkpt><trkpt lat="40.60114183392867" lon="16.154670328324112"><ele>426.3333333333333</ele><time>2026-04-26T12:35:29Z</time></trkpt><trkpt lat="40.60107309752553" lon="16.15466496247323"><ele>422.5</ele><time>2026-04-26T12:35:30Z</time></trkpt><trkpt lat="40.601009267436204" lon="16.154650566165216"><ele>418.66666666666663</ele><time>2026-04-26T12:35:31Z</time></trkpt><trkpt lat="40.60088904074435" lon="16.15465815795209"><ele>414.8333333333333</ele><time>2026-04-26T12:35:33Z</time></trkpt><trkpt lat="40.60078854248855" lon="16.15469325934387"><ele>411.0</ele><time>2026-04-26T12:35:34.999Z</time></trkpt><trkpt lat="40.600725736538166" lon="16.154654617173325"><ele>411.0</ele><time>2026-04-26T12:35:36.999Z</time></trkpt><trkpt lat="40.60064546205776" lon="16.154568374430475"><ele>411.0</ele><time>2026-04-26T12:35:38.999Z</time></trkpt><trkpt lat="40.600589986900836" lon="16.1545255311798"><ele>411.0</ele><time>2026-04-26T12:35:39.999Z</time></trkpt><trkpt lat="40.600530426177826" lon="16.15448656297388"><ele>411.0</ele><time>2026-04-26T12:35:40.999Z</time></trkpt><trkpt lat="40.60046528835248" lon="16.15445351825944"><ele>411.0</ele><time>2026-04-26T12:35:41.999Z</time></trkpt><trkpt lat="40.600398574311185" lon="16.154371110894665"><ele>411.0</ele><time>2026-04-26T12:35:43.999Z</time></trkpt><trkpt lat="40.600326462277444" lon="16.154287435731977"><ele>407.0</ele><time>2026-04-26T12:35:45.999Z</time></trkpt><trkpt lat="40.60025677398235" lon="16.15425156352494"><ele>403.0</ele><time>2026-04-26T12:35:47.999Z</time></trkpt><trkpt lat="40.6001937036048" lon="16.154214317324087"><ele>399.0</ele><time>2026-04-26T12:35:49.999Z</time></trkpt><trkpt lat="40.60018302724055" lon="16.154119039154853"><ele>395.0</ele><time>2026-04-26T12:35:52.999Z</time></trkpt><trkpt lat="40.60024080778401" lon="16.15402261092102"><ele>391.0</ele><time>2026-04-26T12:35:55.999Z</time></trkpt><trkpt lat="40.60026190171192" lon="16.153908862335467"><ele>387.0</ele><time>2026-04-26T12:35:57.999Z</time></trkpt><trkpt lat="40.60027390862341" lon="16.153819831460787"><ele>386.0</ele><time>2026-04-26T12:35:59.999Z</time></trkpt><trkpt lat="40.60032429519023" lon="16.153730838135633"><ele>385.0</ele><time>2026-04-26T12:36:02.999Z</time></trkpt><trkpt lat="40.60035826479603" lon="16.153660922519563"><ele>384.0</ele><time>2026-04-26T12:36:06Z</time></trkpt><trkpt lat="40.60029613953106" lon="16.15360494674079"><ele>383.0</ele><time>2026-04-26T12:36:09Z</time></trkpt><trkpt lat="40.600226687342726" lon="16.153623824403518"><ele>382.0</ele><time>2026-04-26T12:36:11Z</time></trkpt><trkpt lat="40.60015550973302" lon="16.15366868348368"><ele>381.0</ele><time>2026-04-26T12:36:14Z</time></trkpt><trkpt lat="40.60022930733453" lon="16.15366461096077"><ele>380.0</ele><time>2026-04-26T12:38:09Z</time></trkpt><trkpt lat="40.60029368993197" lon="16.15363465623705"><ele>380.0</ele><time>2026-04-26T12:38:11Z</time></trkpt><trkpt lat="40.60034849272407" lon="16.15369266231396"><ele>380.0</ele><time>2026-04-26T12:38:16Z</time></trkpt><trkpt lat="40.60030987192421" lon="16.153759898552554"><ele>380.0</ele><time>2026-04-26T12:38:20Z</time></trkpt><trkpt lat="40.60026572124717" lon="16.15382010036215"><ele>380.0</ele><time>2026-04-26T12:38:22Z</time></trkpt><trkpt lat="40.60023562753085" lon="16.153955656364886"><ele>380.0</ele><time>2026-04-26T12:38:24Z</time></trkpt><trkpt lat="40.60021717764079" lon="16.154065628443924"><ele>380.0</ele><time>2026-04-26T12:38:26Z</time></trkpt><trkpt lat="40.60014123656184" lon="16.154144584391332"><ele>381.1666666666667</ele><time>2026-04-26T12:38:28Z</time></trkpt><trkpt lat="40.60016696659974" lon="16.1542204380815"><ele>382.33333333333337</ele><time>2026-04-26T12:38:30Z</time></trkpt><trkpt lat="40.60022180395824" lon="16.154298744805264"><ele>383.5</ele><time>2026-04-26T12:38:32Z</time></trkpt><trkpt lat="40.60030943087558" lon="16.154299421825176"><ele>384.6666666666667</ele><time>2026-04-26T12:38:38Z</time></trkpt><trkpt lat="40.60035911620267" lon="16.154363688066752"><ele>385.8333333333333</ele><time>2026-04-26T12:38:39Z</time></trkpt><trkpt lat="40.60044430930443" lon="16.154452376235067"><ele>387.0</ele><time>2026-04-26T12:38:41Z</time></trkpt><trkpt lat="40.600506060574965" lon="16.15451604588007"><ele>391.0</ele><time>2026-04-26T12:38:43Z</time></trkpt><trkpt lat="40.600579668513085" lon="16.154525580362034"><ele>395.0</ele><time>2026-04-26T12:38:45Z</time></trkpt><trkpt lat="40.60063210728792" lon="16.154573636199373"><ele>399.0</ele><time>2026-04-26T12:38:46Z</time></trkpt><trkpt lat="40.60070401916788" lon="16.154648766080538"><ele>403.0</ele><time>2026-04-26T12:38:48Z</time></trkpt><trkpt lat="40.60075044791881" lon="16.154707978334535"><ele>407.0</ele><time>2026-04-26T12:38:50Z</time></trkpt><trkpt lat="40.60087223020527" lon="16.15470345359907"><ele>411.0</ele><time>2026-04-26T12:38:53Z</time></trkpt><trkpt lat="40.600925840617656" lon="16.15465905671397"><ele>411.0</ele><time>2026-04-26T12:38:55Z</time></trkpt><trkpt lat="40.601035301989796" lon="16.154680668943925"><ele>411.0</ele><time>2026-04-26T12:38:57Z</time></trkpt><trkpt lat="40.60114276430085" lon="16.154709921783052"><ele>411.0</ele><time>2026-04-26T12:38:59Z</time></trkpt><trkpt lat="40.601353930033675" lon="16.15465516090593"><ele>411.0</ele><time>2026-04-26T12:40:20Z</time></trkpt><trkpt lat="40.60147215014578" lon="16.154584353016013"><ele>415.6</ele><time>2026-04-26T12:40:22Z</time></trkpt><trkpt lat="40.60155706839778" lon="16.15451585404896"><ele>420.20000000000005</ele><time>2026-04-26T12:40:24Z</time></trkpt><trkpt lat="40.60162631016231" lon="16.154382311719168"><ele>424.79999999999995</ele><time>2026-04-26T12:40:26Z</time></trkpt><trkpt lat="40.601698748535" lon="16.154325676837693"><ele>429.4</ele><time>2026-04-26T12:40:28Z</time></trkpt><trkpt lat="40.60176133406537" lon="16.154417399229605"><ele>434.0</ele><time>2026-04-26T12:40:30Z</time></trkpt><trkpt lat="40.60180770372474" lon="16.154553632176867"><ele>433.99999999999994</ele><time>2026-04-26T12:40:32Z</time></trkpt><trkpt lat="40.60187885163182" lon="16.154593324352604"><ele>434.0</ele><time>2026-04-26T12:40:34Z</time></trkpt><trkpt lat="40.6019829406689" lon="16.15457302372322"><ele>434.0</ele><time>2026-04-26T12:40:36Z</time></trkpt><trkpt lat="40.60205070375314" lon="16.154569730577343"><ele>434.0</ele><time>2026-04-26T12:40:37Z</time></trkpt><trkpt lat="40.60215614571184" lon="16.154578067503277"><ele>433.99999999999994</ele><time>2026-04-26T12:40:39Z</time></trkpt><trkpt lat="40.60224129564276" lon="16.154545156127053"><ele>434.0</ele><time>2026-04-26T12:40:41Z</time></trkpt><trkpt lat="40.60234850291074" lon="16.154475686569686"><ele>436.99999999999994</ele><time>2026-04-26T12:40:43Z</time></trkpt><trkpt lat="40.60240400627142" lon="16.1544285547121"><ele>440.0</ele><time>2026-04-26T12:40:44Z</time></trkpt><trkpt lat="40.6024613723825" lon="16.154386150546895"><ele>443.0</ele><time>2026-04-26T12:40:45Z</time></trkpt><trkpt lat="40.60252054195176" lon="16.154350826195966"><ele>446.0</ele><time>2026-04-26T12:40:46Z</time></trkpt><trkpt lat="40.60257873797352" lon="16.154317471856423"><ele>448.99999999999994</ele><time>2026-04-26T12:40:47Z</time></trkpt><trkpt lat="40.602680980768625" lon="16.154257986479127"><ele>452.0</ele><time>2026-04-26T12:40:49Z</time></trkpt><trkpt lat="40.602754742887484" lon="16.15430588422472"><ele>452.0</ele><time>2026-04-26T12:40:51Z</time></trkpt><trkpt lat="40.602791170844526" lon="16.154452851327402"><ele>452.00000000000006</ele><time>2026-04-26T12:40:53Z</time></trkpt><trkpt lat="40.6028214011557" lon="16.154544717584482"><ele>452.00000000000006</ele><time>2026-04-26T12:40:54Z</time></trkpt><trkpt lat="40.602845078236534" lon="16.154634287012684"><ele>452.0</ele><time>2026-04-26T12:40:55Z</time></trkpt><trkpt lat="40.60290711037034" lon="16.15477561587218"><ele>452.0</ele><time>2026-04-26T12:40:57Z</time></trkpt><trkpt lat="40.60295572464673" lon="16.15484585181444"><ele>453.8</ele><time>2026-04-26T12:40:58Z</time></trkpt><trkpt lat="40.60303759998046" lon="16.154943673124535"><ele>455.6</ele><time>2026-04-26T12:41:00Z</time></trkpt><trkpt lat="40.60312051461494" lon="16.154937135495363"><ele>457.40000000000003</ele><time>2026-04-26T12:41:02Z</time></trkpt><trkpt lat="40.603239928303005" lon="16.154877076322254"><ele>459.20000000000005</ele><time>2026-04-26T12:41:04Z</time></trkpt><trkpt lat="40.6033020991831" lon="16.154841635934186"><ele>461.0</ele><time>2026-04-26T12:41:05Z</time></trkpt><trkpt lat="40.60337287796563" lon="16.15479617158336"><ele>462.66666666666663</ele><time>2026-04-26T12:41:06Z</time></trkpt><trkpt lat="40.603452938048775" lon="16.154765134657826"><ele>464.3333333333333</ele><time>2026-04-26T12:41:07.001Z</time></trkpt><trkpt lat="40.60354143019944" lon="16.1547388580711"><ele>466.0</ele><time>2026-04-26T12:41:08.001Z</time></trkpt><trkpt lat="40.603622195199705" lon="16.154721534609575"><ele>467.66666666666663</ele><time>2026-04-26T12:41:09.001Z</time></trkpt><trkpt lat="40.60368983075458" lon="16.154702509476035"><ele>469.3333333333333</ele><time>2026-04-26T12:41:10.001Z</time></trkpt><trkpt lat="40.60375447180664" lon="16.154686434990225"><ele>471.0</ele><time>2026-04-26T12:41:11.001Z</time></trkpt><trkpt lat="40.60382834082947" lon="16.154696284373625"><ele>473.8571428571429</ele><time>2026-04-26T12:41:12.001Z</time></trkpt><trkpt lat="40.60390844446881" lon="16.1546859794593"><ele>476.7142857142857</ele><time>2026-04-26T12:41:13.001Z</time></trkpt><trkpt lat="40.60398777981451" lon="16.154687974241448"><ele>479.57142857142856</ele><time>2026-04-26T12:41:14.001Z</time></trkpt><trkpt lat="40.60406851728663" lon="16.15467591900765"><ele>482.42857142857144</ele><time>2026-04-26T12:41:15.001Z</time></trkpt><trkpt lat="40.60413993634754" lon="16.154672890279294"><ele>485.2857142857142</ele><time>2026-04-26T12:41:16.001Z</time></trkpt><trkpt lat="40.60421166456344" lon="16.154677211890867"><ele>488.1428571428571</ele><time>2026-04-26T12:41:17.001Z</time></trkpt><trkpt lat="40.60427598941305" lon="16.154682290182727"><ele>491.0</ele><time>2026-04-26T12:41:18.001Z</time></trkpt><trkpt lat="40.604342205453314" lon="16.154693725059733"><ele>490.99999999999994</ele><time>2026-04-26T12:41:19.001Z</time></trkpt><trkpt lat="40.60441354056836" lon="16.154716304715862"><ele>491.0</ele><time>2026-04-26T12:41:20.001Z</time></trkpt><trkpt lat="40.604487863493766" lon="16.154720175989375"><ele>491.0</ele><time>2026-04-26T12:41:21.001Z</time></trkpt><trkpt lat="40.604553799401856" lon="16.154719796582178"><ele>491.0</ele><time>2026-04-26T12:41:22.001Z</time></trkpt><trkpt lat="40.60467899601248" lon="16.15473731971414"><ele>490.99999999999994</ele><time>2026-04-26T12:41:24.001Z</time></trkpt><trkpt lat="40.60476048366019" lon="16.154721122327643"><ele>491.0</ele><time>2026-04-26T12:41:25.001Z</time></trkpt><trkpt lat="40.60484252589492" lon="16.15474673022682"><ele>493.49999999999994</ele><time>2026-04-26T12:41:26.001Z</time></trkpt><trkpt lat="40.60492277860279" lon="16.154752510915053"><ele>496.0</ele><time>2026-04-26T12:41:27.001Z</time></trkpt><trkpt lat="40.60499944773827" lon="16.154741512121298"><ele>498.5</ele><time>2026-04-26T12:41:28.001Z</time></trkpt><trkpt lat="40.60506667417149" lon="16.154731755297306"><ele>501.0</ele><time>2026-04-26T12:41:29.001Z</time></trkpt><trkpt lat="40.605179333461805" lon="16.15472163837289"><ele>503.49999999999994</ele><time>2026-04-26T12:41:31.001Z</time></trkpt><trkpt lat="40.60528539599549" lon="16.154676474849765"><ele>506.0</ele><time>2026-04-26T12:41:33.001Z</time></trkpt><trkpt lat="40.60533465127265" lon="16.15462324134257"><ele>507.8571428571429</ele><time>2026-04-26T12:41:34.001Z</time></trkpt><trkpt lat="40.60539521019005" lon="16.154562921065594"><ele>509.7142857142857</ele><time>2026-04-26T12:41:35.001Z</time></trkpt><trkpt lat="40.605456133520384" lon="16.154515179720995"><ele>511.57142857142856</ele><time>2026-04-26T12:41:36.001Z</time></trkpt><trkpt lat="40.605509215893655" lon="16.1544580874142"><ele>513.4285714285714</ele><time>2026-04-26T12:41:37.001Z</time></trkpt><trkpt lat="40.60557613712553" lon="16.15444867454195"><ele>515.2857142857142</ele><time>2026-04-26T12:41:39.001Z</time></trkpt><trkpt lat="40.60560468496767" lon="16.15456217930899"><ele>517.1428571428571</ele><time>2026-04-26T12:41:41.001Z</time></trkpt><trkpt lat="40.605613045322805" lon="16.154648638044875"><ele>519.0</ele><time>2026-04-26T12:41:42.001Z</time></trkpt><trkpt lat="40.605673297142395" lon="16.154765117353854"><ele>519.0</ele><time>2026-04-26T12:41:44.001Z</time></trkpt><trkpt lat="40.60577218620214" lon="16.154753670465702"><ele>519.0</ele><time>2026-04-26T12:41:46.001Z</time></trkpt><trkpt lat="40.6058665466595" lon="16.15466013940611"><ele>519.0</ele><time>2026-04-26T12:41:48.001Z</time></trkpt><trkpt lat="40.60591815237776" lon="16.154596840861576"><ele>519.0</ele><time>2026-04-26T12:41:49.001Z</time></trkpt><trkpt lat="40.60597991161935" lon="16.154523108967215"><ele>519.0</ele><time>2026-04-26T12:41:50.001Z</time></trkpt><trkpt lat="40.60604218064767" lon="16.154463130634444"><ele>519.0</ele><time>2026-04-26T12:41:51.001Z</time></trkpt><trkpt lat="40.60611433830402" lon="16.15438715190015"><ele>520.8333333333334</ele><time>2026-04-26T12:41:52Z</time></trkpt><trkpt lat="40.60619369436786" lon="16.154312761899725"><ele>522.6666666666666</ele><time>2026-04-26T12:41:53Z</time></trkpt><trkpt lat="40.606276858033155" lon="16.154243735519653"><ele>524.5</ele><time>2026-04-26T12:41:54Z</time></trkpt><trkpt lat="40.60634154762435" lon="16.154182904272393"><ele>526.3333333333333</ele><time>2026-04-26T12:41:55Z</time></trkpt><trkpt lat="40.60640585290372" lon="16.154145898163012"><ele>528.1666666666666</ele><time>2026-04-26T12:41:56Z</time></trkpt><trkpt lat="40.6064764607001" lon="16.15412584288174"><ele>530.0</ele><time>2026-04-26T12:41:57Z</time></trkpt><trkpt lat="40.60655523889558" lon="16.154097546974885"><ele>530.0</ele><time>2026-04-26T12:41:58Z</time></trkpt><trkpt lat="40.606629871391384" lon="16.15408270948457"><ele>530.0</ele><time>2026-04-26T12:41:59Z</time></trkpt><trkpt lat="40.60672448000197" lon="16.154016598869575"><ele>530.0</ele><time>2026-04-26T12:42:01Z</time></trkpt><trkpt lat="40.606779261198106" lon="16.153958013699235"><ele>530.0</ele><time>2026-04-26T12:42:02Z</time></trkpt><trkpt lat="40.60683195077707" lon="16.15387754435842"><ele>530.0</ele><time>2026-04-26T12:42:03Z</time></trkpt><trkpt lat="40.60685912173941" lon="16.15379044820242"><ele>530.0</ele><time>2026-04-26T12:42:04Z</time></trkpt><trkpt lat="40.60690561141579" lon="16.153713104578742"><ele>533.0</ele><time>2026-04-26T12:42:05Z</time></trkpt><trkpt lat="40.606997088888974" lon="16.153669857821036"><ele>536.0</ele><time>2026-04-26T12:42:07Z</time></trkpt><trkpt lat="40.60707657813957" lon="16.153769791606337"><ele>539.0</ele><time>2026-04-26T12:42:09Z</time></trkpt><trkpt lat="40.60710754919101" lon="16.153854180700083"><ele>542.0</ele><time>2026-04-26T12:42:10Z</time></trkpt><trkpt lat="40.60712555818896" lon="16.15395067448822"><ele>545.0</ele><time>2026-04-26T12:42:11Z</time></trkpt><trkpt lat="40.607186262649904" lon="16.15406186617809"><ele>545.0</ele><time>2026-04-26T12:42:13Z</time></trkpt><trkpt lat="40.60729686668071" lon="16.154080191751202"><ele>545.0</ele><time>2026-04-26T12:42:15Z</time></trkpt><trkpt lat="40.60741592846329" lon="16.154085810311486"><ele>545.0</ele><time>2026-04-26T12:42:17Z</time></trkpt><trkpt lat="40.60748181800491" lon="16.154071167746356"><ele>545.0</ele><time>2026-04-26T12:42:18Z</time></trkpt><trkpt lat="40.607551182236136" lon="16.154059224179182"><ele>545.0</ele><time>2026-04-26T12:42:19Z</time></trkpt><trkpt lat="40.60762161591081" lon="16.15406112154042"><ele>545.0</ele><time>2026-04-26T12:42:20Z</time></trkpt><trkpt lat="40.60768985390372" lon="16.154050981411192"><ele>548.1666666666666</ele><time>2026-04-26T12:42:21Z</time></trkpt><trkpt lat="40.60780161085684" lon="16.15403547295126"><ele>551.3333333333333</ele><time>2026-04-26T12:42:23Z</time></trkpt><trkpt lat="40.607888457417836" lon="16.153998088423368"><ele>554.5</ele><time>2026-04-26T12:42:25Z</time></trkpt><trkpt lat="40.60796693312325" lon="16.153953774608468"><ele>557.6666666666666</ele><time>2026-04-26T12:42:27Z</time></trkpt><trkpt lat="40.608037499795245" lon="16.15393420722292"><ele>560.8333333333334</ele><time>2026-04-26T12:42:28Z</time></trkpt><trkpt lat="40.60810482366102" lon="16.153924055647114"><ele>564.0</ele><time>2026-04-26T12:42:29Z</time></trkpt><trkpt lat="40.608180213834565" lon="16.153922155857497"><ele>563.5714285714286</ele><time>2026-04-26T12:42:30Z</time></trkpt><trkpt lat="40.60825573859045" lon="16.153939236354628"><ele>563.1428571428571</ele><time>2026-04-26T12:42:31Z</time></trkpt><trkpt lat="40.608321455321246" lon="16.153951952672827"><ele>562.7142857142857</ele><time>2026-04-26T12:42:32Z</time></trkpt><trkpt lat="40.608384837272325" lon="16.153954968846307"><ele>562.2857142857142</ele><time>2026-04-26T12:42:33Z</time></trkpt><trkpt lat="40.60845267235248" lon="16.1539473772358"><ele>561.8571428571428</ele><time>2026-04-26T12:42:34Z</time></trkpt><trkpt lat="40.608551761831144" lon="16.153925645761344"><ele>561.4285714285714</ele><time>2026-04-26T12:42:36Z</time></trkpt><trkpt lat="40.60860850657636" lon="16.153971770572564"><ele>561.0</ele><time>2026-04-26T12:42:38Z</time></trkpt><trkpt lat="40.608645885133605" lon="16.154079746214794"><ele>566.8333333333334</ele><time>2026-04-26T12:42:40Z</time></trkpt><trkpt lat="40.60867761380176" lon="16.154181125257765"><ele>572.6666666666666</ele><time>2026-04-26T12:42:42Z</time></trkpt><trkpt lat="40.60876963929615" lon="16.1542706866977"><ele>578.5</ele><time>2026-04-26T12:42:44Z</time></trkpt><trkpt lat="40.60882596689479" lon="16.154328693909477"><ele>584.3333333333333</ele><time>2026-04-26T12:42:45Z</time></trkpt><trkpt lat="40.60887123366188" lon="16.15439546217646"><ele>590.1666666666666</ele><time>2026-04-26T12:42:46Z</time></trkpt><trkpt lat="40.60891810268572" lon="16.15446158525389"><ele>596.0</ele><time>2026-04-26T12:42:47Z</time></trkpt><trkpt lat="40.608967201775336" lon="16.15452668033035"><ele>596.0</ele><time>2026-04-26T12:42:48Z</time></trkpt><trkpt lat="40.60902947582726" lon="16.154655608290458"><ele>596.0</ele><time>2026-04-26T12:42:50Z</time></trkpt><trkpt lat="40.609107143543326" lon="16.154723731934663"><ele>596.0</ele><time>2026-04-26T12:42:52Z</time></trkpt><trkpt lat="40.60919713234175" lon="16.154767826830557"><ele>596.0</ele><time>2026-04-26T12:42:54Z</time></trkpt><trkpt lat="40.609260146965724" lon="16.154790984755877"><ele>596.0</ele><time>2026-04-26T12:42:55Z</time></trkpt><trkpt lat="40.60934277889333" lon="16.154824394629063"><ele>596.0</ele><time>2026-04-26T12:42:57Z</time></trkpt><trkpt lat="40.609432495938066" lon="16.154799108414448"><ele>596.0</ele><time>2026-04-26T12:42:59Z</time></trkpt><trkpt lat="40.609526128404575" lon="16.154800276009187"><ele>596.0</ele><time>2026-04-26T12:43:01Z</time></trkpt><trkpt lat="40.60961788419968" lon="16.15485548342474"><ele>596.0</ele><time>2026-04-26T12:43:03Z</time></trkpt><trkpt lat="40.60967289956205" lon="16.154902851747888"><ele>596.0</ele><time>2026-04-26T12:43:04Z</time></trkpt><trkpt lat="40.6097827642122" lon="16.154968979578374"><ele>598.5</ele><time>2026-04-26T12:43:06Z</time></trkpt><trkpt lat="40.60984147517725" lon="16.155003460733862"><ele>601.0</ele><time>2026-04-26T12:43:07Z</time></trkpt><trkpt lat="40.60990418832368" lon="16.15502833273187"><ele>603.5</ele><time>2026-04-26T12:43:08Z</time></trkpt><trkpt lat="40.60997330003477" lon="16.155042038389666"><ele>606.0</ele><time>2026-04-26T12:43:09Z</time></trkpt><trkpt lat="40.610032507131194" lon="16.15507460902032"><ele>608.5</ele><time>2026-04-26T12:43:10Z</time></trkpt><trkpt lat="40.61012880568073" lon="16.155178912351925"><ele>611.0</ele><time>2026-04-26T12:43:12Z</time></trkpt><trkpt lat="40.61020450163547" lon="16.155304309695104"><ele>611.0</ele><time>2026-04-26T12:43:14.001Z</time></trkpt><trkpt lat="40.61028937732773" lon="16.155428135512388"><ele>611.0</ele><time>2026-04-26T12:43:16.001Z</time></trkpt><trkpt lat="40.61034616635112" lon="16.155563832621723"><ele>611.0</ele><time>2026-04-26T12:43:18.001Z</time></trkpt><trkpt lat="40.61032986159117" lon="16.155701797718418"><ele>611.0</ele><time>2026-04-26T12:43:20.001Z</time></trkpt><trkpt lat="40.610314040625646" lon="16.155835866657625"><ele>610.6666666666666</ele><time>2026-04-26T12:43:23.001Z</time></trkpt><trkpt lat="40.610280361679266" lon="16.155919525156015"><ele>610.3333333333333</ele><time>2026-04-26T12:43:25.001Z</time></trkpt><trkpt lat="40.61028325584895" lon="16.15605210752911"><ele>610.0</ele><time>2026-04-26T12:43:27.001Z</time></trkpt><trkpt lat="40.61027514641913" lon="16.15613945445167"><ele>609.6666666666666</ele><time>2026-04-26T12:43:28.001Z</time></trkpt><trkpt lat="40.610319281657695" lon="16.156232046899788"><ele>609.3333333333334</ele><time>2026-04-26T12:43:30.001Z</time></trkpt><trkpt lat="40.61037348176885" lon="16.156274385027526"><ele>609.0</ele><time>2026-04-26T12:43:32.001Z</time></trkpt><trkpt lat="40.610449624536365" lon="16.156251355427543"><ele>612.6666666666666</ele><time>2026-04-26T12:43:33.001Z</time></trkpt><trkpt lat="40.610528384611875" lon="16.156232891007498"><ele>616.3333333333334</ele><time>2026-04-26T12:43:34.001Z</time></trkpt><trkpt lat="40.61061213511469" lon="16.15622716677708"><ele>620.0</ele><time>2026-04-26T12:43:35.001Z</time></trkpt><trkpt lat="40.61069132238929" lon="16.15622088193133"><ele>623.6666666666667</ele><time>2026-04-26T12:43:36.001Z</time></trkpt><trkpt lat="40.610779611752484" lon="16.15620211587203"><ele>627.3333333333334</ele><time>2026-04-26T12:43:37.001Z</time></trkpt><trkpt lat="40.61085919225468" lon="16.15618165177065"><ele>631.0</ele><time>2026-04-26T12:43:38.001Z</time></trkpt><trkpt lat="40.6109424710304" lon="16.156166024053455"><ele>631.0</ele><time>2026-04-26T12:43:39.001Z</time></trkpt><trkpt lat="40.61102106332693" lon="16.156141327245585"><ele>631.0</ele><time>2026-04-26T12:43:40.001Z</time></trkpt><trkpt lat="40.611102341037544" lon="16.15613340160622"><ele>631.0</ele><time>2026-04-26T12:43:41.001Z</time></trkpt><trkpt lat="40.61118149219071" lon="16.156140087733046"><ele>631.0</ele><time>2026-04-26T12:43:42.001Z</time></trkpt><trkpt lat="40.611267094287214" lon="16.156143871759244"><ele>631.0</ele><time>2026-04-26T12:43:43.001Z</time></trkpt><trkpt lat="40.61135188690279" lon="16.15613272276405"><ele>631.0</ele><time>2026-04-26T12:43:44.001Z</time></trkpt><trkpt lat="40.6114354074743" lon="16.156126786875607"><ele>634.8</ele><time>2026-04-26T12:43:45.001Z</time></trkpt><trkpt lat="40.61150922092561" lon="16.15613028451625"><ele>638.6</ele><time>2026-04-26T12:43:46.001Z</time></trkpt><trkpt lat="40.61160564281819" lon="16.156126455318407"><ele>642.4</ele><time>2026-04-26T12:43:48.001Z</time></trkpt><trkpt lat="40.611718080021575" lon="16.156135620145527"><ele>646.2</ele><time>2026-04-26T12:43:50.001Z</time></trkpt><trkpt lat="40.61179196152386" lon="16.156106435323082"><ele>650.0</ele><time>2026-04-26T12:44:17Z</time></trkpt><trkpt lat="40.61187816096302" lon="16.156060331413997"><ele>650.0</ele><time>2026-04-26T12:44:19Z</time></trkpt><trkpt lat="40.611936390032774" lon="16.156026000758835"><ele>650.0</ele><time>2026-04-26T12:44:20Z</time></trkpt><trkpt lat="40.61203850511694" lon="16.155915988715034"><ele>650.0</ele><time>2026-04-26T12:44:22Z</time></trkpt><trkpt lat="40.61208180381141" lon="16.15583861912429"><ele>650.0</ele><time>2026-04-26T12:44:23Z</time></trkpt><trkpt lat="40.61212394520648" lon="16.155750443763345"><ele>650.0</ele><time>2026-04-26T12:44:24Z</time></trkpt><trkpt lat="40.61216265743455" lon="16.155634554475945"><ele>650.0</ele><time>2026-04-26T12:44:25Z</time></trkpt><trkpt lat="40.612198627420945" lon="16.155540602819965"><ele>650.5</ele><time>2026-04-26T12:44:26Z</time></trkpt><trkpt lat="40.6122414813263" lon="16.15544285062606"><ele>651.0</ele><time>2026-04-26T12:44:27Z</time></trkpt><trkpt lat="40.61229636887497" lon="16.15536183345949"><ele>651.5</ele><time>2026-04-26T12:44:28Z</time></trkpt><trkpt lat="40.61234178384547" lon="16.155264912915943"><ele>652.0</ele><time>2026-04-26T12:44:29Z</time></trkpt><trkpt lat="40.61238916040148" lon="16.155169009917262"><ele>652.5</ele><time>2026-04-26T12:44:30Z</time></trkpt><trkpt lat="40.61243516363347" lon="16.155081035519842"><ele>653.0</ele><time>2026-04-26T12:44:31Z</time></trkpt><trkpt lat="40.6124835129424" lon="16.1549965414008"><ele>653.0</ele><time>2026-04-26T12:44:32Z</time></trkpt><trkpt lat="40.61253064143655" lon="16.15492410218094"><ele>653.0</ele><time>2026-04-26T12:44:33Z</time></trkpt><trkpt lat="40.61258613512675" lon="16.154856654955445"><ele>653.0</ele><time>2026-04-26T12:44:34Z</time></trkpt><trkpt lat="40.61264329255146" lon="16.154790138650718"><ele>653.0</ele><time>2026-04-26T12:44:35Z</time></trkpt><trkpt lat="40.61270842995656" lon="16.154736289515586"><ele>653.0</ele><time>2026-04-26T12:44:36Z</time></trkpt><trkpt lat="40.61277975700286" lon="16.15467349023329"><ele>653.0</ele><time>2026-04-26T12:44:37Z</time></trkpt><trkpt lat="40.61284436863449" lon="16.15462107342873"><ele>649.8333333333333</ele><time>2026-04-26T12:44:38Z</time></trkpt><trkpt lat="40.61292137612789" lon="16.154579143997836"><ele>646.6666666666666</ele><time>2026-04-26T12:44:39Z</time></trkpt><trkpt lat="40.61299984875139" lon="16.154526600910255"><ele>643.5</ele><time>2026-04-26T12:44:40Z</time></trkpt><trkpt lat="40.613058509876886" lon="16.1544807466913"><ele>640.3333333333334</ele><time>2026-04-26T12:44:41Z</time></trkpt><trkpt lat="40.61314428263034" lon="16.154374971244927"><ele>637.1666666666667</ele><time>2026-04-26T12:44:43Z</time></trkpt><trkpt lat="40.61315274013838" lon="16.154280603401652"><ele>634.0</ele><time>2026-04-26T12:44:44Z</time></trkpt><trkpt lat="40.61313827283037" lon="16.15411487345249"><ele>635.1666666666667</ele><time>2026-04-26T12:44:46Z</time></trkpt><trkpt lat="40.61312484685305" lon="16.154024910137927"><ele>636.3333333333334</ele><time>2026-04-26T12:44:47Z</time></trkpt><trkpt lat="40.61310260426492" lon="16.1539213618075"><ele>637.5</ele><time>2026-04-26T12:44:48Z</time></trkpt><trkpt lat="40.61309312898538" lon="16.153815363400025"><ele>638.6666666666666</ele><time>2026-04-26T12:44:49Z</time></trkpt><trkpt lat="40.61309288189683" lon="16.15370445155955"><ele>639.8333333333333</ele><time>2026-04-26T12:44:50Z</time></trkpt><trkpt lat="40.61310470711296" lon="16.153591943867095"><ele>641.0</ele><time>2026-04-26T12:44:51Z</time></trkpt><trkpt lat="40.61310544137078" lon="16.153477726655467"><ele>641.0</ele><time>2026-04-26T12:44:52Z</time></trkpt><trkpt lat="40.61310431716971" lon="16.15336216609341"><ele>641.0</ele><time>2026-04-26T12:44:53Z</time></trkpt><trkpt lat="40.61309840131277" lon="16.153243196456096"><ele>641.0</ele><time>2026-04-26T12:44:54Z</time></trkpt><trkpt lat="40.613079562700676" lon="16.15312690736089"><ele>641.0</ele><time>2026-04-26T12:44:55Z</time></trkpt><trkpt lat="40.613072259143145" lon="16.15301774394389"><ele>641.0</ele><time>2026-04-26T12:44:56Z</time></trkpt><trkpt lat="40.61306272398453" lon="16.15292243498443"><ele>641.0</ele><time>2026-04-26T12:44:57Z</time></trkpt><trkpt lat="40.61306605571067" lon="16.15282842083462"><ele>642.3333333333333</ele><time>2026-04-26T12:44:58Z</time></trkpt><trkpt lat="40.61307485076351" lon="16.152739323069998"><ele>643.6666666666666</ele><time>2026-04-26T12:44:59Z</time></trkpt><trkpt lat="40.61308109958904" lon="16.152634886426217"><ele>645.0</ele><time>2026-04-26T12:45:00.001Z</time></trkpt><trkpt lat="40.61308849252953" lon="16.152528800281466"><ele>646.3333333333334</ele><time>2026-04-26T12:45:01.001Z</time></trkpt><trkpt lat="40.613097796463634" lon="16.152419615850505"><ele>647.6666666666667</ele><time>2026-04-26T12:45:02.001Z</time></trkpt><trkpt lat="40.6131080108352" lon="16.15231872542899"><ele>649.0</ele><time>2026-04-26T12:45:03.001Z</time></trkpt><trkpt lat="40.613121604222485" lon="16.15223605267767"><ele>652.4000000000001</ele><time>2026-04-26T12:45:04.001Z</time></trkpt><trkpt lat="40.613173396220226" lon="16.152120472053124"><ele>655.8</ele><time>2026-04-26T12:45:06.001Z</time></trkpt><trkpt lat="40.61323586934928" lon="16.151985721609602"><ele>659.2</ele><time>2026-04-26T12:45:08.001Z</time></trkpt><trkpt lat="40.613275562159465" lon="16.151920355189358"><ele>662.5999999999999</ele><time>2026-04-26T12:45:09.001Z</time></trkpt><trkpt lat="40.6133211543347" lon="16.151856181869658"><ele>666.0</ele><time>2026-04-26T12:45:10.001Z</time></trkpt><trkpt lat="40.613417324558604" lon="16.151758141938267"><ele>666.0</ele><time>2026-04-26T12:45:12.001Z</time></trkpt><trkpt lat="40.613474209170505" lon="16.15171567116779"><ele>666.0</ele><time>2026-04-26T12:45:13.001Z</time></trkpt><trkpt lat="40.61354225595979" lon="16.151649563808135"><ele>666.0</ele><time>2026-04-26T12:45:14.001Z</time></trkpt><trkpt lat="40.61363594222493" lon="16.15162455553237"><ele>666.0</ele><time>2026-04-26T12:45:15.001Z</time></trkpt><trkpt lat="40.61372472221366" lon="16.15156278513773"><ele>666.0</ele><time>2026-04-26T12:45:16.001Z</time></trkpt><trkpt lat="40.61382038781542" lon="16.151496809340575"><ele>668.5999999999999</ele><time>2026-04-26T12:45:17.001Z</time></trkpt><trkpt lat="40.61390684613596" lon="16.151412172841173"><ele>671.2</ele><time>2026-04-26T12:45:18.001Z</time></trkpt><trkpt lat="40.613995579163664" lon="16.151346894420804"><ele>673.8</ele><time>2026-04-26T12:45:19.001Z</time></trkpt><trkpt lat="40.61408189727288" lon="16.151310293644247"><ele>676.4000000000001</ele><time>2026-04-26T12:45:20.001Z</time></trkpt><trkpt lat="40.614159342622436" lon="16.151246742734973"><ele>679.0</ele><time>2026-04-26T12:45:21.001Z</time></trkpt><trkpt lat="40.61424619455912" lon="16.151198957941354"><ele>679.0</ele><time>2026-04-26T12:45:22.001Z</time></trkpt><trkpt lat="40.61433514188494" lon="16.151163123588606"><ele>679.0</ele><time>2026-04-26T12:45:23.001Z</time></trkpt><trkpt lat="40.61441925264127" lon="16.151132394319998"><ele>679.0</ele><time>2026-04-26T12:45:24.001Z</time></trkpt><trkpt lat="40.61450897905731" lon="16.151104901563766"><ele>679.0</ele><time>2026-04-26T12:45:25.001Z</time></trkpt><trkpt lat="40.61459651131128" lon="16.15108531221837"><ele>679.0</ele><time>2026-04-26T12:45:26.001Z</time></trkpt><trkpt lat="40.614693991033356" lon="16.151078626039226"><ele>679.4000000000001</ele><time>2026-04-26T12:45:27.001Z</time></trkpt><trkpt lat="40.61479019334708" lon="16.15106581176175"><ele>679.8</ele><time>2026-04-26T12:45:28.001Z</time></trkpt><trkpt lat="40.61488677964022" lon="16.15105870205365"><ele>680.2</ele><time>2026-04-26T12:45:29.001Z</time></trkpt><trkpt lat="40.61498951846477" lon="16.1510539329467"><ele>680.5999999999999</ele><time>2026-04-26T12:45:30.001Z</time></trkpt><trkpt lat="40.61508910377771" lon="16.151052627821354"><ele>681.0</ele><time>2026-04-26T12:45:31.001Z</time></trkpt><trkpt lat="40.615192670009456" lon="16.15104587871912"><ele>681.0</ele><time>2026-04-26T12:45:32.001Z</time></trkpt><trkpt lat="40.61529625035418" lon="16.151042193346946"><ele>681.0</ele><time>2026-04-26T12:45:33.001Z</time></trkpt><trkpt lat="40.61539794591813" lon="16.151022518987254"><ele>681.0</ele><time>2026-04-26T12:45:34.001Z</time></trkpt><trkpt lat="40.61550002090159" lon="16.15101095800616"><ele>681.0</ele><time>2026-04-26T12:45:35.001Z</time></trkpt><trkpt lat="40.61559591946101" lon="16.15100180425998"><ele>681.0</ele><time>2026-04-26T12:45:36.001Z</time></trkpt><trkpt lat="40.615682351858894" lon="16.151017688397808"><ele>682.5</ele><time>2026-04-26T12:45:37.001Z</time></trkpt><trkpt lat="40.61576206764937" lon="16.15102160218913"><ele>684.0</ele><time>2026-04-26T12:45:38.001Z</time></trkpt><trkpt lat="40.615837599257866" lon="16.15102919683804"><ele>685.5</ele><time>2026-04-26T12:45:39.001Z</time></trkpt><trkpt lat="40.61591007265312" lon="16.151046410952855"><ele>687.0</ele><time>2026-04-26T12:45:40.001Z</time></trkpt><trkpt lat="40.61598712211233" lon="16.151049620687303"><ele>688.5</ele><time>2026-04-26T12:45:41.001Z</time></trkpt><trkpt lat="40.616068437889545" lon="16.151078939077614"><ele>690.0</ele><time>2026-04-26T12:45:42.001Z</time></trkpt><trkpt lat="40.61615238963973" lon="16.151109916406227"><ele>690.1666666666666</ele><time>2026-04-26T12:45:43.001Z</time></trkpt><trkpt lat="40.61623670286062" lon="16.151137755683795"><ele>690.3333333333334</ele><time>2026-04-26T12:45:44.001Z</time></trkpt><trkpt lat="40.616321307087354" lon="16.151163890763012"><ele>690.5</ele><time>2026-04-26T12:45:45.001Z</time></trkpt><trkpt lat="40.616402573912325" lon="16.151165613063366"><ele>690.6666666666667</ele><time>2026-04-26T12:45:46.001Z</time></trkpt><trkpt lat="40.616466339630904" lon="16.151146261065943"><ele>690.8333333333334</ele><time>2026-04-26T12:45:47.001Z</time></trkpt><trkpt lat="40.616571504317996" lon="16.151073812942133"><ele>691.0</ele><time>2026-04-26T12:45:49.001Z</time></trkpt><trkpt lat="40.61666530776237" lon="16.15099823656723"><ele>691.0</ele><time>2026-04-26T12:45:51.001Z</time></trkpt><trkpt lat="40.61675210868392" lon="16.15089865280863"><ele>691.0</ele><time>2026-04-26T12:45:53.001Z</time></trkpt><trkpt lat="40.616810793187206" lon="16.15084169198251"><ele>691.0</ele><time>2026-04-26T12:45:54.001Z</time></trkpt><trkpt lat="40.61686162827258" lon="16.15078706622654"><ele>691.0</ele><time>2026-04-26T12:45:55.001Z</time></trkpt><trkpt lat="40.61691534356977" lon="16.15073601236003"><ele>691.0</ele><time>2026-04-26T12:45:56.001Z</time></trkpt><trkpt lat="40.61700248455744" lon="16.150651583886035"><ele>691.0</ele><time>2026-04-26T12:45:58.001Z</time></trkpt><trkpt lat="40.61708771140729" lon="16.150549764214635"><ele>689.5999999999999</ele><time>2026-04-26T12:46:00.001Z</time></trkpt><trkpt lat="40.61717666603883" lon="16.150458649359866"><ele>688.2</ele><time>2026-04-26T12:46:02.001Z</time></trkpt><trkpt lat="40.61723589489664" lon="16.150425650688252"><ele>686.8</ele><time>2026-04-26T12:46:03.001Z</time></trkpt><trkpt lat="40.617297925928504" lon="16.150386350210642"><ele>685.4000000000001</ele><time>2026-04-26T12:46:04Z</time></trkpt><trkpt lat="40.617402417756885" lon="16.15029519438777"><ele>684.0</ele><time>2026-04-26T12:46:06Z</time></trkpt><trkpt lat="40.617513330603245" lon="16.150192340212495"><ele>684.0</ele><time>2026-04-26T12:46:08Z</time></trkpt><trkpt lat="40.61759807457098" lon="16.15012075971315"><ele>684.0</ele><time>2026-04-26T12:46:10Z</time></trkpt><trkpt lat="40.617655847874" lon="16.150061431414223"><ele>684.0</ele><time>2026-04-26T12:46:12Z</time></trkpt><trkpt lat="40.617704099635425" lon="16.149987477992983"><ele>684.0</ele><time>2026-04-26T12:46:15Z</time></trkpt><trkpt lat="40.617799063656555" lon="16.149948147977305"><ele>684.0</ele><time>2026-04-26T12:46:17Z</time></trkpt><trkpt lat="40.61789202153672" lon="16.149912147713252"><ele>684.0</ele><time>2026-04-26T12:46:18Z</time></trkpt><trkpt lat="40.6179861672344" lon="16.149922228773512"><ele>683.8000000000001</ele><time>2026-04-26T12:46:19Z</time></trkpt><trkpt lat="40.618059331867826" lon="16.149904976561565"><ele>683.6</ele><time>2026-04-26T12:46:20Z</time></trkpt><trkpt lat="40.61812284031278" lon="16.149891303363525"><ele>683.4</ele><time>2026-04-26T12:46:21Z</time></trkpt><trkpt lat="40.61821592873057" lon="16.149860225597266"><ele>683.2</ele><time>2026-04-26T12:46:23Z</time></trkpt><trkpt lat="40.618290228450974" lon="16.150094077513508"><ele>683.0</ele><time>2026-04-26T12:46:25Z</time></trkpt><trkpt lat="40.61831581679492" lon="16.150259723921597"><ele>683.0</ele><time>2026-04-26T12:46:27Z</time></trkpt><trkpt lat="40.61833944904001" lon="16.15035692430718"><ele>683.0</ele><time>2026-04-26T12:46:28Z</time></trkpt><trkpt lat="40.6183493539165" lon="16.15046276452349"><ele>683.0</ele><time>2026-04-26T12:46:29Z</time></trkpt><trkpt lat="40.61837746952638" lon="16.150567982678044"><ele>683.0</ele><time>2026-04-26T12:46:30Z</time></trkpt><trkpt lat="40.618394362236664" lon="16.150683701577297"><ele>683.0</ele><time>2026-04-26T12:46:31Z</time></trkpt><trkpt lat="40.618401577388504" lon="16.150797635598643"><ele>683.0</ele><time>2026-04-26T12:46:32Z</time></trkpt><trkpt lat="40.618416318661865" lon="16.150904978797936"><ele>683.0</ele><time>2026-04-26T12:46:33Z</time></trkpt><trkpt lat="40.61843604415155" lon="16.151001765373405"><ele>683.0</ele><time>2026-04-26T12:46:34Z</time></trkpt><trkpt lat="40.618444297237154" lon="16.151087696074526"><ele>683.0</ele><time>2026-04-26T12:46:35Z</time></trkpt><trkpt lat="40.61845557935389" lon="16.151224346427714"><ele>683.0</ele><time>2026-04-26T12:46:37Z</time></trkpt><trkpt lat="40.6184756548158" lon="16.15135465778971"><ele>683.0</ele><time>2026-04-26T12:46:39Z</time></trkpt><trkpt lat="40.618491808338284" lon="16.151490078565434"><ele>682.1428571428571</ele><time>2026-04-26T12:46:41Z</time></trkpt><trkpt lat="40.61853328117588" lon="16.15163637074831"><ele>681.2857142857142</ele><time>2026-04-26T12:46:43Z</time></trkpt><trkpt lat="40.61854795616813" lon="16.151719192858387"><ele>680.4285714285713</ele><time>2026-04-26T12:46:44Z</time></trkpt><trkpt lat="40.618562657767214" lon="16.15180216503103"><ele>679.5714285714286</ele><time>2026-04-26T12:46:45Z</time></trkpt><trkpt lat="40.61857716169523" lon="16.151885796351355"><ele>678.7142857142857</ele><time>2026-04-26T12:46:46Z</time></trkpt><trkpt lat="40.618592128800934" lon="16.151971627373843"><ele>677.8571428571428</ele><time>2026-04-26T12:46:47Z</time></trkpt><trkpt lat="40.61860699838484" lon="16.152056899153347"><ele>677.0</ele><time>2026-04-26T12:46:48Z</time></trkpt><trkpt lat="40.61862422225425" lon="16.152155671912176"><ele>677.0</ele><time>2026-04-26T12:46:49Z</time></trkpt><trkpt lat="40.6186429794213" lon="16.152263237507086"><ele>677.0</ele><time>2026-04-26T12:46:50Z</time></trkpt><trkpt lat="40.61866270430905" lon="16.15237416768192"><ele>677.0</ele><time>2026-04-26T12:46:51Z</time></trkpt><trkpt lat="40.618681178842515" lon="16.152479130453486"><ele>677.0</ele><time>2026-04-26T12:46:52Z</time></trkpt><trkpt lat="40.61869864733156" lon="16.15258281086816"><ele>677.0</ele><time>2026-04-26T12:46:53Z</time></trkpt><trkpt lat="40.61871677791894" lon="16.152690421018924"><ele>677.0</ele><time>2026-04-26T12:46:54Z</time></trkpt><trkpt lat="40.618735414112315" lon="16.15280103184702"><ele>677.1666666666666</ele><time>2026-04-26T12:46:55Z</time></trkpt><trkpt lat="40.618753073129476" lon="16.152915537989102"><ele>677.3333333333333</ele><time>2026-04-26T12:46:57Z</time></trkpt><trkpt lat="40.61867942243246" lon="16.15299402023103"><ele>677.5</ele><time>2026-04-26T12:47:01Z</time></trkpt><trkpt lat="40.61875098191778" lon="16.152977903133298"><ele>677.6666666666666</ele><time>2026-04-26T12:47:02Z</time></trkpt><trkpt lat="40.61865918321697" lon="16.153058126926386"><ele>677.8333333333334</ele><time>2026-04-26T12:47:03Z</time></trkpt><trkpt lat="40.61863929718979" lon="16.153141903624437"><ele>678.0</ele><time>2026-04-26T12:47:05.001Z</time></trkpt><trkpt lat="40.61861627595997" lon="16.15324637836101"><ele>678.0</ele><time>2026-04-26T12:47:08.001Z</time></trkpt><trkpt lat="40.61860571167138" lon="16.153341964058654"><ele>678.0</ele><time>2026-04-26T12:47:11.001Z</time></trkpt><trkpt lat="40.619033973909495" lon="16.1515695119329"><ele>678.0</ele><time>2026-04-26T12:54:38.999Z</time></trkpt></trkseg></trk></gpx>